<?xml version="1.0" encoding="utf-8" standalone="yes"?>
<gpx version="1.1" creator="Locus Map, Android"
 xmlns="http://www.topografix.com/GPX/1/1"
 xmlns:xsi="http://www.w3.org/2001/XMLSchema-instance"
 xsi:schemaLocation="http://www.topografix.com/GPX/1/1 http://www.topografix.com/GPX/1/1/gpx.xsd"
 xmlns:gpxx="http://www.garmin.com/xmlschemas/GpxExtensions/v3"
 xmlns:gpxtrkx="http://www.garmin.com/xmlschemas/TrackStatsExtension/v1"
 xmlns:gpxtpx="http://www.garmin.com/xmlschemas/TrackPointExtension/v2"
 xmlns:locus="http://www.locusmap.eu">
	<metadata>
		<desc>File with points/tracks from Locus Map Classic/3.70.15</desc>
		<time>2025-04-29T13:10:54.370Z</time>
	</metadata>
<trk>
<name>Rifugio Baita Fontaneto - Rifugio Valdaione</name>
	<extensions>
		<line xmlns="http://www.topografix.com/GPX/gpx_style/0/2">
			<color>0000FF</color>
			<opacity>0.59</opacity>
			<width>6.0</width>
			<extensions>
				<locus:lsColorBase>#960000FF</locus:lsColorBase>
				<locus:lsWidth>6.0</locus:lsWidth>
				<locus:lsUnits>PIXELS</locus:lsUnits>
			</extensions>
		</line>
		<locus:activity>hiking</locus:activity>
	</extensions>
<trkseg>
<trkpt lat="45.9293580" lon="10.3122020">
	<ele>608.00</ele>
	<time>2025-04-29T05:28:54.000Z</time>
</trkpt>
<trkpt lat="45.9293550" lon="10.3122250">
	<ele>608.00</ele>
	<time>2025-04-29T05:28:55.000Z</time>
</trkpt>
<trkpt lat="45.9293620" lon="10.3122410">
	<ele>608.00</ele>
	<time>2025-04-29T05:28:56.000Z</time>
</trkpt>
<trkpt lat="45.9293810" lon="10.3122540">
	<ele>608.00</ele>
	<time>2025-04-29T05:28:57.000Z</time>
</trkpt>
<trkpt lat="45.9294090" lon="10.3122610">
	<ele>608.00</ele>
	<time>2025-04-29T05:28:58.000Z</time>
</trkpt>
<trkpt lat="45.9294200" lon="10.3122700">
	<ele>608.00</ele>
	<time>2025-04-29T05:28:59.000Z</time>
</trkpt>
<trkpt lat="45.9294280" lon="10.3122810">
	<ele>608.00</ele>
	<time>2025-04-29T05:29:00.000Z</time>
</trkpt>
<trkpt lat="45.9294340" lon="10.3122910">
	<ele>608.00</ele>
	<time>2025-04-29T05:29:01.000Z</time>
</trkpt>
<trkpt lat="45.9294370" lon="10.3123020">
	<ele>608.40</ele>
	<time>2025-04-29T05:29:02.000Z</time>
</trkpt>
<trkpt lat="45.9294330" lon="10.3123060">
	<ele>608.60</ele>
	<time>2025-04-29T05:29:03.000Z</time>
</trkpt>
<trkpt lat="45.9294330" lon="10.3123060">
	<ele>608.80</ele>
	<time>2025-04-29T05:29:04.000Z</time>
</trkpt>
<trkpt lat="45.9294360" lon="10.3122990">
	<ele>609.00</ele>
	<time>2025-04-29T05:29:05.000Z</time>
</trkpt>
<trkpt lat="45.9294400" lon="10.3122970">
	<ele>609.00</ele>
	<time>2025-04-29T05:29:06.000Z</time>
</trkpt>
<trkpt lat="45.9294410" lon="10.3123050">
	<ele>608.80</ele>
	<time>2025-04-29T05:29:07.000Z</time>
</trkpt>
<trkpt lat="45.9294400" lon="10.3123110">
	<ele>608.80</ele>
	<time>2025-04-29T05:29:08.000Z</time>
</trkpt>
<trkpt lat="45.9294380" lon="10.3123300">
	<ele>608.80</ele>
	<time>2025-04-29T05:29:09.000Z</time>
</trkpt>
<trkpt lat="45.9294400" lon="10.3123510">
	<ele>608.80</ele>
	<time>2025-04-29T05:29:10.000Z</time>
</trkpt>
<trkpt lat="45.9294420" lon="10.3123620">
	<ele>608.80</ele>
	<time>2025-04-29T05:29:11.000Z</time>
</trkpt>
<trkpt lat="45.9294460" lon="10.3123730">
	<ele>608.80</ele>
	<time>2025-04-29T05:29:12.000Z</time>
</trkpt>
<trkpt lat="45.9294490" lon="10.3123860">
	<ele>608.80</ele>
	<time>2025-04-29T05:29:13.000Z</time>
</trkpt>
<trkpt lat="45.9294560" lon="10.3124020">
	<ele>608.80</ele>
	<time>2025-04-29T05:29:14.000Z</time>
</trkpt>
<trkpt lat="45.9294660" lon="10.3124150">
	<ele>609.00</ele>
	<time>2025-04-29T05:29:15.000Z</time>
</trkpt>
<trkpt lat="45.9294720" lon="10.3124240">
	<ele>609.00</ele>
	<time>2025-04-29T05:29:16.000Z</time>
</trkpt>
<trkpt lat="45.9294800" lon="10.3124330">
	<ele>609.00</ele>
	<time>2025-04-29T05:29:17.000Z</time>
</trkpt>
<trkpt lat="45.9294880" lon="10.3124410">
	<ele>609.20</ele>
	<time>2025-04-29T05:29:18.000Z</time>
</trkpt>
<trkpt lat="45.9294940" lon="10.3124480">
	<ele>609.20</ele>
	<time>2025-04-29T05:29:19.000Z</time>
</trkpt>
<trkpt lat="45.9295000" lon="10.3124560">
	<ele>609.40</ele>
	<time>2025-04-29T05:29:20.000Z</time>
</trkpt>
<trkpt lat="45.9295030" lon="10.3124640">
	<ele>609.40</ele>
	<time>2025-04-29T05:29:21.000Z</time>
</trkpt>
<trkpt lat="45.9295100" lon="10.3124650">
	<ele>609.40</ele>
	<time>2025-04-29T05:29:22.000Z</time>
</trkpt>
<trkpt lat="45.9295180" lon="10.3124620">
	<ele>609.40</ele>
	<time>2025-04-29T05:29:23.000Z</time>
</trkpt>
<trkpt lat="45.9295270" lon="10.3124620">
	<ele>609.40</ele>
	<time>2025-04-29T05:29:24.000Z</time>
</trkpt>
<trkpt lat="45.9295380" lon="10.3124650">
	<ele>609.40</ele>
	<time>2025-04-29T05:29:25.000Z</time>
</trkpt>
<trkpt lat="45.9295500" lon="10.3124660">
	<ele>609.40</ele>
	<time>2025-04-29T05:29:26.000Z</time>
</trkpt>
<trkpt lat="45.9295630" lon="10.3124660">
	<ele>609.40</ele>
	<time>2025-04-29T05:29:27.000Z</time>
</trkpt>
<trkpt lat="45.9295760" lon="10.3124660">
	<ele>609.40</ele>
	<time>2025-04-29T05:29:28.000Z</time>
</trkpt>
<trkpt lat="45.9295890" lon="10.3124740">
	<ele>609.40</ele>
	<time>2025-04-29T05:29:29.000Z</time>
</trkpt>
<trkpt lat="45.9296010" lon="10.3124850">
	<ele>609.40</ele>
	<time>2025-04-29T05:29:30.000Z</time>
</trkpt>
<trkpt lat="45.9296120" lon="10.3125000">
	<ele>609.40</ele>
	<time>2025-04-29T05:29:31.000Z</time>
</trkpt>
<trkpt lat="45.9296230" lon="10.3125130">
	<ele>609.40</ele>
	<time>2025-04-29T05:29:32.000Z</time>
</trkpt>
<trkpt lat="45.9296330" lon="10.3125210">
	<ele>609.40</ele>
	<time>2025-04-29T05:29:33.000Z</time>
</trkpt>
<trkpt lat="45.9296400" lon="10.3125270">
	<ele>609.40</ele>
	<time>2025-04-29T05:29:34.000Z</time>
</trkpt>
<trkpt lat="45.9296410" lon="10.3125340">
	<ele>609.40</ele>
	<time>2025-04-29T05:29:35.000Z</time>
</trkpt>
<trkpt lat="45.9296430" lon="10.3125420">
	<ele>609.20</ele>
	<time>2025-04-29T05:29:36.000Z</time>
</trkpt>
<trkpt lat="45.9296400" lon="10.3125530">
	<ele>609.20</ele>
	<time>2025-04-29T05:29:37.000Z</time>
</trkpt>
<trkpt lat="45.9296370" lon="10.3125640">
	<ele>609.20</ele>
	<time>2025-04-29T05:29:38.000Z</time>
</trkpt>
<trkpt lat="45.9296310" lon="10.3125800">
	<ele>609.40</ele>
	<time>2025-04-29T05:29:39.000Z</time>
</trkpt>
<trkpt lat="45.9296330" lon="10.3125900">
	<ele>609.40</ele>
	<time>2025-04-29T05:29:40.000Z</time>
</trkpt>
<trkpt lat="45.9296330" lon="10.3126020">
	<ele>609.60</ele>
	<time>2025-04-29T05:29:41.000Z</time>
</trkpt>
<trkpt lat="45.9296350" lon="10.3126160">
	<ele>609.60</ele>
	<time>2025-04-29T05:29:42.000Z</time>
</trkpt>
<trkpt lat="45.9296380" lon="10.3126270">
	<ele>609.60</ele>
	<time>2025-04-29T05:29:43.000Z</time>
</trkpt>
<trkpt lat="45.9296350" lon="10.3126430">
	<ele>609.60</ele>
	<time>2025-04-29T05:29:44.000Z</time>
</trkpt>
<trkpt lat="45.9296340" lon="10.3126560">
	<ele>609.80</ele>
	<time>2025-04-29T05:29:45.000Z</time>
</trkpt>
<trkpt lat="45.9296370" lon="10.3126680">
	<ele>609.80</ele>
	<time>2025-04-29T05:29:46.000Z</time>
</trkpt>
<trkpt lat="45.9296440" lon="10.3126740">
	<ele>609.80</ele>
	<time>2025-04-29T05:29:47.000Z</time>
</trkpt>
<trkpt lat="45.9296500" lon="10.3126770">
	<ele>609.80</ele>
	<time>2025-04-29T05:29:48.000Z</time>
</trkpt>
<trkpt lat="45.9296630" lon="10.3126600">
	<ele>609.80</ele>
	<time>2025-04-29T05:29:49.000Z</time>
</trkpt>
<trkpt lat="45.9296720" lon="10.3126430">
	<ele>609.80</ele>
	<time>2025-04-29T05:29:50.000Z</time>
</trkpt>
<trkpt lat="45.9296850" lon="10.3126100">
	<ele>609.80</ele>
	<time>2025-04-29T05:29:51.000Z</time>
</trkpt>
<trkpt lat="45.9296960" lon="10.3125780">
	<ele>609.80</ele>
	<time>2025-04-29T05:29:52.000Z</time>
</trkpt>
<trkpt lat="45.9297090" lon="10.3125520">
	<ele>609.80</ele>
	<time>2025-04-29T05:29:53.000Z</time>
</trkpt>
<trkpt lat="45.9296920" lon="10.3125360">
	<ele>609.80</ele>
	<time>2025-04-29T05:29:54.000Z</time>
</trkpt>
<trkpt lat="45.9296650" lon="10.3125240">
	<ele>609.80</ele>
	<time>2025-04-29T05:29:55.000Z</time>
</trkpt>
<trkpt lat="45.9296460" lon="10.3125060">
	<ele>609.80</ele>
	<time>2025-04-29T05:29:56.000Z</time>
</trkpt>
<trkpt lat="45.9296340" lon="10.3125000">
	<ele>609.80</ele>
	<time>2025-04-29T05:29:57.000Z</time>
</trkpt>
<trkpt lat="45.9296250" lon="10.3124950">
	<ele>610.00</ele>
	<time>2025-04-29T05:29:58.000Z</time>
</trkpt>
<trkpt lat="45.9296190" lon="10.3124890">
	<ele>610.00</ele>
	<time>2025-04-29T05:29:59.000Z</time>
</trkpt>
<trkpt lat="45.9296130" lon="10.3124890">
	<ele>610.00</ele>
	<time>2025-04-29T05:30:00.000Z</time>
</trkpt>
<trkpt lat="45.9296120" lon="10.3124860">
	<ele>610.00</ele>
	<time>2025-04-29T05:30:01.000Z</time>
</trkpt>
<trkpt lat="45.9296120" lon="10.3124840">
	<ele>610.00</ele>
	<time>2025-04-29T05:30:02.000Z</time>
</trkpt>
<trkpt lat="45.9296130" lon="10.3124820">
	<ele>610.00</ele>
	<time>2025-04-29T05:30:03.000Z</time>
</trkpt>
<trkpt lat="45.9296140" lon="10.3124790">
	<ele>610.00</ele>
	<time>2025-04-29T05:30:04.000Z</time>
</trkpt>
<trkpt lat="45.9296140" lon="10.3124750">
	<ele>610.00</ele>
	<time>2025-04-29T05:30:05.000Z</time>
</trkpt>
<trkpt lat="45.9296140" lon="10.3124720">
	<ele>610.20</ele>
	<time>2025-04-29T05:30:06.000Z</time>
</trkpt>
<trkpt lat="45.9296100" lon="10.3124680">
	<ele>609.40</ele>
	<time>2025-04-29T05:30:07.000Z</time>
</trkpt>
<trkpt lat="45.9296090" lon="10.3124630">
	<ele>609.40</ele>
	<time>2025-04-29T05:30:08.000Z</time>
</trkpt>
<trkpt lat="45.9296190" lon="10.3124680">
	<ele>609.40</ele>
	<time>2025-04-29T05:30:09.000Z</time>
</trkpt>
<trkpt lat="45.9296320" lon="10.3124910">
	<ele>609.40</ele>
	<time>2025-04-29T05:30:10.000Z</time>
</trkpt>
<trkpt lat="45.9296360" lon="10.3125200">
	<ele>609.80</ele>
	<time>2025-04-29T05:30:11.000Z</time>
</trkpt>
<trkpt lat="45.9296410" lon="10.3125500">
	<ele>609.40</ele>
	<time>2025-04-29T05:30:12.000Z</time>
</trkpt>
<trkpt lat="45.9296380" lon="10.3125680">
	<ele>609.40</ele>
	<time>2025-04-29T05:30:13.000Z</time>
</trkpt>
<trkpt lat="45.9296390" lon="10.3125840">
	<ele>609.20</ele>
	<time>2025-04-29T05:30:14.000Z</time>
</trkpt>
<trkpt lat="45.9296400" lon="10.3125980">
	<ele>609.40</ele>
	<time>2025-04-29T05:30:15.000Z</time>
</trkpt>
<trkpt lat="45.9296400" lon="10.3126080">
	<ele>609.40</ele>
	<time>2025-04-29T05:30:16.000Z</time>
</trkpt>
<trkpt lat="45.9296440" lon="10.3126170">
	<ele>609.60</ele>
	<time>2025-04-29T05:30:17.000Z</time>
</trkpt>
<trkpt lat="45.9296410" lon="10.3126220">
	<ele>609.60</ele>
	<time>2025-04-29T05:30:18.000Z</time>
</trkpt>
<trkpt lat="45.9296390" lon="10.3126270">
	<ele>609.60</ele>
	<time>2025-04-29T05:30:19.000Z</time>
</trkpt>
<trkpt lat="45.9296370" lon="10.3126310">
	<ele>609.60</ele>
	<time>2025-04-29T05:30:20.000Z</time>
</trkpt>
<trkpt lat="45.9296390" lon="10.3126330">
	<ele>609.60</ele>
	<time>2025-04-29T05:30:21.000Z</time>
</trkpt>
<trkpt lat="45.9296390" lon="10.3126340">
	<ele>609.60</ele>
	<time>2025-04-29T05:30:22.000Z</time>
</trkpt>
<trkpt lat="45.9296430" lon="10.3126370">
	<ele>609.60</ele>
	<time>2025-04-29T05:30:23.000Z</time>
</trkpt>
<trkpt lat="45.9296430" lon="10.3126410">
	<ele>609.60</ele>
	<time>2025-04-29T05:30:24.000Z</time>
</trkpt>
<trkpt lat="45.9296480" lon="10.3126480">
	<ele>609.80</ele>
	<time>2025-04-29T05:30:25.000Z</time>
</trkpt>
<trkpt lat="45.9296540" lon="10.3126510">
	<ele>609.80</ele>
	<time>2025-04-29T05:30:26.000Z</time>
</trkpt>
<trkpt lat="45.9296610" lon="10.3126370">
	<ele>609.80</ele>
	<time>2025-04-29T05:30:27.000Z</time>
</trkpt>
<trkpt lat="45.9296710" lon="10.3126240">
	<ele>609.80</ele>
	<time>2025-04-29T05:30:28.000Z</time>
</trkpt>
<trkpt lat="45.9296840" lon="10.3126160">
	<ele>609.80</ele>
	<time>2025-04-29T05:30:29.000Z</time>
</trkpt>
<trkpt lat="45.9296990" lon="10.3126100">
	<ele>609.80</ele>
	<time>2025-04-29T05:30:30.000Z</time>
</trkpt>
<trkpt lat="45.9297110" lon="10.3126000">
	<ele>610.00</ele>
	<time>2025-04-29T05:30:31.000Z</time>
</trkpt>
<trkpt lat="45.9297230" lon="10.3125840">
	<ele>610.00</ele>
	<time>2025-04-29T05:30:32.000Z</time>
</trkpt>
<trkpt lat="45.9297390" lon="10.3125730">
	<ele>610.00</ele>
	<time>2025-04-29T05:30:33.000Z</time>
</trkpt>
<trkpt lat="45.9297550" lon="10.3125590">
	<ele>610.00</ele>
	<time>2025-04-29T05:30:34.000Z</time>
</trkpt>
<trkpt lat="45.9297660" lon="10.3125410">
	<ele>610.00</ele>
	<time>2025-04-29T05:30:35.000Z</time>
</trkpt>
<trkpt lat="45.9297740" lon="10.3125300">
	<ele>610.20</ele>
	<time>2025-04-29T05:30:36.000Z</time>
</trkpt>
<trkpt lat="45.9297830" lon="10.3125150">
	<ele>610.20</ele>
	<time>2025-04-29T05:30:37.000Z</time>
</trkpt>
<trkpt lat="45.9297940" lon="10.3124940">
	<ele>610.40</ele>
	<time>2025-04-29T05:30:38.000Z</time>
</trkpt>
<trkpt lat="45.9298010" lon="10.3124790">
	<ele>610.40</ele>
	<time>2025-04-29T05:30:39.000Z</time>
</trkpt>
<trkpt lat="45.9298110" lon="10.3124670">
	<ele>610.60</ele>
	<time>2025-04-29T05:30:40.000Z</time>
</trkpt>
<trkpt lat="45.9298230" lon="10.3124580">
	<ele>610.80</ele>
	<time>2025-04-29T05:30:41.000Z</time>
</trkpt>
<trkpt lat="45.9298350" lon="10.3124410">
	<ele>610.80</ele>
	<time>2025-04-29T05:30:42.000Z</time>
</trkpt>
<trkpt lat="45.9298460" lon="10.3124270">
	<ele>611.00</ele>
	<time>2025-04-29T05:30:43.000Z</time>
</trkpt>
<trkpt lat="45.9298550" lon="10.3124090">
	<ele>611.00</ele>
	<time>2025-04-29T05:30:44.000Z</time>
</trkpt>
<trkpt lat="45.9298610" lon="10.3123950">
	<ele>611.20</ele>
	<time>2025-04-29T05:30:45.000Z</time>
</trkpt>
<trkpt lat="45.9298690" lon="10.3123760">
	<ele>611.20</ele>
	<time>2025-04-29T05:30:46.000Z</time>
</trkpt>
<trkpt lat="45.9298760" lon="10.3123680">
	<ele>611.40</ele>
	<time>2025-04-29T05:30:47.000Z</time>
</trkpt>
<trkpt lat="45.9298780" lon="10.3123630">
	<ele>611.60</ele>
	<time>2025-04-29T05:30:48.000Z</time>
</trkpt>
<trkpt lat="45.9298790" lon="10.3123560">
	<ele>611.60</ele>
	<time>2025-04-29T05:30:49.000Z</time>
</trkpt>
<trkpt lat="45.9298840" lon="10.3123450">
	<ele>611.80</ele>
	<time>2025-04-29T05:30:50.000Z</time>
</trkpt>
<trkpt lat="45.9298890" lon="10.3123330">
	<ele>612.00</ele>
	<time>2025-04-29T05:30:51.000Z</time>
</trkpt>
<trkpt lat="45.9298970" lon="10.3123210">
	<ele>612.00</ele>
	<time>2025-04-29T05:30:52.000Z</time>
</trkpt>
<trkpt lat="45.9299030" lon="10.3123060">
	<ele>612.20</ele>
	<time>2025-04-29T05:30:53.000Z</time>
</trkpt>
<trkpt lat="45.9299090" lon="10.3122960">
	<ele>612.40</ele>
	<time>2025-04-29T05:30:54.000Z</time>
</trkpt>
<trkpt lat="45.9299090" lon="10.3122850">
	<ele>612.60</ele>
	<time>2025-04-29T05:30:55.000Z</time>
</trkpt>
<trkpt lat="45.9299100" lon="10.3122750">
	<ele>612.60</ele>
	<time>2025-04-29T05:30:56.000Z</time>
</trkpt>
<trkpt lat="45.9299130" lon="10.3122620">
	<ele>612.60</ele>
	<time>2025-04-29T05:30:57.000Z</time>
</trkpt>
<trkpt lat="45.9299310" lon="10.3122480">
	<ele>613.00</ele>
	<time>2025-04-29T05:30:58.000Z</time>
</trkpt>
<trkpt lat="45.9299520" lon="10.3122380">
	<ele>613.20</ele>
	<time>2025-04-29T05:30:59.000Z</time>
</trkpt>
<trkpt lat="45.9299660" lon="10.3122180">
	<ele>613.40</ele>
	<time>2025-04-29T05:31:00.000Z</time>
</trkpt>
<trkpt lat="45.9299760" lon="10.3122050">
	<ele>613.40</ele>
	<time>2025-04-29T05:31:01.000Z</time>
</trkpt>
<trkpt lat="45.9299860" lon="10.3121880">
	<ele>613.60</ele>
	<time>2025-04-29T05:31:02.000Z</time>
</trkpt>
<trkpt lat="45.9299960" lon="10.3121750">
	<ele>613.60</ele>
	<time>2025-04-29T05:31:03.000Z</time>
</trkpt>
<trkpt lat="45.9300040" lon="10.3121640">
	<ele>613.80</ele>
	<time>2025-04-29T05:31:04.000Z</time>
</trkpt>
<trkpt lat="45.9300080" lon="10.3121580">
	<ele>614.00</ele>
	<time>2025-04-29T05:31:05.000Z</time>
</trkpt>
<trkpt lat="45.9300160" lon="10.3121510">
	<ele>614.20</ele>
	<time>2025-04-29T05:31:06.000Z</time>
</trkpt>
<trkpt lat="45.9300270" lon="10.3121430">
	<ele>614.40</ele>
	<time>2025-04-29T05:31:07.000Z</time>
</trkpt>
<trkpt lat="45.9300350" lon="10.3121150">
	<ele>614.60</ele>
	<time>2025-04-29T05:31:08.000Z</time>
</trkpt>
<trkpt lat="45.9300460" lon="10.3120980">
	<ele>615.00</ele>
	<time>2025-04-29T05:31:09.000Z</time>
</trkpt>
<trkpt lat="45.9300540" lon="10.3120850">
	<ele>615.00</ele>
	<time>2025-04-29T05:31:10.000Z</time>
</trkpt>
<trkpt lat="45.9300530" lon="10.3120800">
	<ele>615.40</ele>
	<time>2025-04-29T05:31:11.000Z</time>
</trkpt>
<trkpt lat="45.9300530" lon="10.3120690">
	<ele>615.60</ele>
	<time>2025-04-29T05:31:12.000Z</time>
</trkpt>
<trkpt lat="45.9300510" lon="10.3120590">
	<ele>615.80</ele>
	<time>2025-04-29T05:31:13.000Z</time>
</trkpt>
<trkpt lat="45.9300450" lon="10.3120440">
	<ele>616.00</ele>
	<time>2025-04-29T05:31:14.000Z</time>
</trkpt>
<trkpt lat="45.9300380" lon="10.3122530">
	<ele>616.60</ele>
	<time>2025-04-29T05:31:19.000Z</time>
</trkpt>
<trkpt lat="45.9300330" lon="10.3122850">
	<ele>616.60</ele>
	<time>2025-04-29T05:31:20.000Z</time>
</trkpt>
<trkpt lat="45.9300250" lon="10.3123180">
	<ele>616.80</ele>
	<time>2025-04-29T05:31:21.000Z</time>
</trkpt>
<trkpt lat="45.9300220" lon="10.3123420">
	<ele>616.80</ele>
	<time>2025-04-29T05:31:22.000Z</time>
</trkpt>
<trkpt lat="45.9300170" lon="10.3123720">
	<ele>617.00</ele>
	<time>2025-04-29T05:31:23.000Z</time>
</trkpt>
<trkpt lat="45.9300130" lon="10.3123970">
	<ele>617.00</ele>
	<time>2025-04-29T05:31:24.000Z</time>
</trkpt>
<trkpt lat="45.9300050" lon="10.3124110">
	<ele>617.20</ele>
	<time>2025-04-29T05:31:25.000Z</time>
</trkpt>
<trkpt lat="45.9299930" lon="10.3124170">
	<ele>617.40</ele>
	<time>2025-04-29T05:31:26.000Z</time>
</trkpt>
<trkpt lat="45.9299850" lon="10.3123810">
	<ele>617.60</ele>
	<time>2025-04-29T05:31:27.000Z</time>
</trkpt>
<trkpt lat="45.9299760" lon="10.3123780">
	<ele>617.80</ele>
	<time>2025-04-29T05:31:28.000Z</time>
</trkpt>
<trkpt lat="45.9299670" lon="10.3123750">
	<ele>618.00</ele>
	<time>2025-04-29T05:31:29.000Z</time>
</trkpt>
<trkpt lat="45.9299540" lon="10.3123750">
	<ele>618.20</ele>
	<time>2025-04-29T05:31:30.000Z</time>
</trkpt>
<trkpt lat="45.9299430" lon="10.3123760">
	<ele>618.40</ele>
	<time>2025-04-29T05:31:31.000Z</time>
</trkpt>
<trkpt lat="45.9299310" lon="10.3123410">
	<ele>618.60</ele>
	<time>2025-04-29T05:31:32.000Z</time>
</trkpt>
<trkpt lat="45.9299230" lon="10.3123310">
	<ele>618.60</ele>
	<time>2025-04-29T05:31:33.000Z</time>
</trkpt>
<trkpt lat="45.9298970" lon="10.3122790">
	<ele>618.80</ele>
	<time>2025-04-29T05:31:34.000Z</time>
</trkpt>
<trkpt lat="45.9298930" lon="10.3123750">
	<ele>619.00</ele>
	<time>2025-04-29T05:31:35.000Z</time>
</trkpt>
<trkpt lat="45.9298860" lon="10.3123960">
	<ele>619.40</ele>
	<time>2025-04-29T05:31:36.000Z</time>
</trkpt>
<trkpt lat="45.9298830" lon="10.3124060">
	<ele>619.40</ele>
	<time>2025-04-29T05:31:37.000Z</time>
</trkpt>
<trkpt lat="45.9298720" lon="10.3124350">
	<ele>619.60</ele>
	<time>2025-04-29T05:31:38.000Z</time>
</trkpt>
<trkpt lat="45.9298580" lon="10.3124590">
	<ele>619.80</ele>
	<time>2025-04-29T05:31:39.000Z</time>
</trkpt>
<trkpt lat="45.9298520" lon="10.3124590">
	<ele>620.00</ele>
	<time>2025-04-29T05:31:40.000Z</time>
</trkpt>
<trkpt lat="45.9298430" lon="10.3124690">
	<ele>620.20</ele>
	<time>2025-04-29T05:31:41.000Z</time>
</trkpt>
<trkpt lat="45.9298400" lon="10.3124880">
	<ele>620.20</ele>
	<time>2025-04-29T05:31:42.000Z</time>
</trkpt>
<trkpt lat="45.9298360" lon="10.3124820">
	<ele>620.40</ele>
	<time>2025-04-29T05:31:43.000Z</time>
</trkpt>
<trkpt lat="45.9298310" lon="10.3124820">
	<ele>620.60</ele>
	<time>2025-04-29T05:31:44.000Z</time>
</trkpt>
<trkpt lat="45.9298250" lon="10.3124820">
	<ele>620.80</ele>
	<time>2025-04-29T05:31:45.000Z</time>
</trkpt>
<trkpt lat="45.9298110" lon="10.3124770">
	<ele>621.00</ele>
	<time>2025-04-29T05:31:46.000Z</time>
</trkpt>
<trkpt lat="45.9297970" lon="10.3124720">
	<ele>621.00</ele>
	<time>2025-04-29T05:31:47.000Z</time>
</trkpt>
<trkpt lat="45.9297720" lon="10.3124910">
	<ele>621.20</ele>
	<time>2025-04-29T05:31:48.000Z</time>
</trkpt>
<trkpt lat="45.9297900" lon="10.3125370">
	<ele>621.20</ele>
	<time>2025-04-29T05:31:49.000Z</time>
</trkpt>
<trkpt lat="45.9297940" lon="10.3124670">
	<ele>621.60</ele>
	<time>2025-04-29T05:31:50.000Z</time>
</trkpt>
<trkpt lat="45.9297940" lon="10.3124680">
	<ele>621.80</ele>
	<time>2025-04-29T05:31:51.000Z</time>
</trkpt>
<trkpt lat="45.9297970" lon="10.3124870">
	<ele>620.80</ele>
	<time>2025-04-29T05:31:52.000Z</time>
</trkpt>
<trkpt lat="45.9297960" lon="10.3124870">
	<ele>620.80</ele>
	<time>2025-04-29T05:31:53.000Z</time>
</trkpt>
<trkpt lat="45.9298020" lon="10.3125390">
	<ele>620.80</ele>
	<time>2025-04-29T05:31:54.000Z</time>
</trkpt>
<trkpt lat="45.9297980" lon="10.3125800">
	<ele>621.20</ele>
	<time>2025-04-29T05:31:55.000Z</time>
</trkpt>
<trkpt lat="45.9297880" lon="10.3125980">
	<ele>621.20</ele>
	<time>2025-04-29T05:31:56.000Z</time>
</trkpt>
<trkpt lat="45.9297810" lon="10.3126150">
	<ele>621.20</ele>
	<time>2025-04-29T05:31:57.000Z</time>
</trkpt>
<trkpt lat="45.9297770" lon="10.3126100">
	<ele>621.20</ele>
	<time>2025-04-29T05:31:58.000Z</time>
</trkpt>
<trkpt lat="45.9297660" lon="10.3126150">
	<ele>621.40</ele>
	<time>2025-04-29T05:31:59.000Z</time>
</trkpt>
<trkpt lat="45.9297580" lon="10.3126230">
	<ele>621.60</ele>
	<time>2025-04-29T05:32:00.000Z</time>
</trkpt>
<trkpt lat="45.9297580" lon="10.3126380">
	<ele>621.80</ele>
	<time>2025-04-29T05:32:01.000Z</time>
</trkpt>
<trkpt lat="45.9297600" lon="10.3126490">
	<ele>621.80</ele>
	<time>2025-04-29T05:32:02.000Z</time>
</trkpt>
<trkpt lat="45.9297570" lon="10.3126600">
	<ele>622.00</ele>
	<time>2025-04-29T05:32:03.000Z</time>
</trkpt>
<trkpt lat="45.9297460" lon="10.3126670">
	<ele>622.40</ele>
	<time>2025-04-29T05:32:04.000Z</time>
</trkpt>
<trkpt lat="45.9297410" lon="10.3126660">
	<ele>622.60</ele>
	<time>2025-04-29T05:32:05.000Z</time>
</trkpt>
<trkpt lat="45.9297410" lon="10.3126860">
	<ele>622.80</ele>
	<time>2025-04-29T05:32:06.000Z</time>
</trkpt>
<trkpt lat="45.9297440" lon="10.3127100">
	<ele>623.00</ele>
	<time>2025-04-29T05:32:07.000Z</time>
</trkpt>
<trkpt lat="45.9297500" lon="10.3127380">
	<ele>623.20</ele>
	<time>2025-04-29T05:32:08.000Z</time>
</trkpt>
<trkpt lat="45.9297630" lon="10.3127710">
	<ele>623.20</ele>
	<time>2025-04-29T05:32:09.000Z</time>
</trkpt>
<trkpt lat="45.9297720" lon="10.3128010">
	<ele>623.40</ele>
	<time>2025-04-29T05:32:10.000Z</time>
</trkpt>
<trkpt lat="45.9297780" lon="10.3128230">
	<ele>623.60</ele>
	<time>2025-04-29T05:32:11.000Z</time>
</trkpt>
<trkpt lat="45.9297790" lon="10.3128540">
	<ele>623.80</ele>
	<time>2025-04-29T05:32:12.000Z</time>
</trkpt>
<trkpt lat="45.9297650" lon="10.3128690">
	<ele>624.00</ele>
	<time>2025-04-29T05:32:13.000Z</time>
</trkpt>
<trkpt lat="45.9297580" lon="10.3128770">
	<ele>624.20</ele>
	<time>2025-04-29T05:32:14.000Z</time>
</trkpt>
<trkpt lat="45.9297580" lon="10.3128930">
	<ele>624.40</ele>
	<time>2025-04-29T05:32:15.000Z</time>
</trkpt>
<trkpt lat="45.9297570" lon="10.3128950">
	<ele>624.60</ele>
	<time>2025-04-29T05:32:16.000Z</time>
</trkpt>
<trkpt lat="45.9297610" lon="10.3129040">
	<ele>624.80</ele>
	<time>2025-04-29T05:32:17.000Z</time>
</trkpt>
<trkpt lat="45.9297350" lon="10.3129230">
	<ele>625.00</ele>
	<time>2025-04-29T05:32:18.000Z</time>
</trkpt>
<trkpt lat="45.9297290" lon="10.3129360">
	<ele>625.20</ele>
	<time>2025-04-29T05:32:19.000Z</time>
</trkpt>
<trkpt lat="45.9297390" lon="10.3129430">
	<ele>625.80</ele>
	<time>2025-04-29T05:32:20.000Z</time>
</trkpt>
<trkpt lat="45.9297500" lon="10.3129550">
	<ele>626.20</ele>
	<time>2025-04-29T05:32:21.000Z</time>
</trkpt>
<trkpt lat="45.9297600" lon="10.3129600">
	<ele>626.60</ele>
	<time>2025-04-29T05:32:22.000Z</time>
</trkpt>
<trkpt lat="45.9297640" lon="10.3129600">
	<ele>626.60</ele>
	<time>2025-04-29T05:32:23.000Z</time>
</trkpt>
<trkpt lat="45.9297630" lon="10.3129610">
	<ele>626.80</ele>
	<time>2025-04-29T05:32:24.000Z</time>
</trkpt>
<trkpt lat="45.9297620" lon="10.3129630">
	<ele>626.60</ele>
	<time>2025-04-29T05:32:25.000Z</time>
</trkpt>
<trkpt lat="45.9297730" lon="10.3129620">
	<ele>626.60</ele>
	<time>2025-04-29T05:32:26.000Z</time>
</trkpt>
<trkpt lat="45.9297880" lon="10.3129690">
	<ele>626.60</ele>
	<time>2025-04-29T05:32:27.000Z</time>
</trkpt>
<trkpt lat="45.9298060" lon="10.3129790">
	<ele>626.80</ele>
	<time>2025-04-29T05:32:28.000Z</time>
</trkpt>
<trkpt lat="45.9298150" lon="10.3129950">
	<ele>626.80</ele>
	<time>2025-04-29T05:32:29.000Z</time>
</trkpt>
<trkpt lat="45.9298230" lon="10.3130120">
	<ele>627.00</ele>
	<time>2025-04-29T05:32:30.000Z</time>
</trkpt>
<trkpt lat="45.9298270" lon="10.3130290">
	<ele>627.00</ele>
	<time>2025-04-29T05:32:31.000Z</time>
</trkpt>
<trkpt lat="45.9298260" lon="10.3130430">
	<ele>627.40</ele>
	<time>2025-04-29T05:32:32.000Z</time>
</trkpt>
<trkpt lat="45.9298320" lon="10.3130640">
	<ele>627.60</ele>
	<time>2025-04-29T05:32:33.000Z</time>
</trkpt>
<trkpt lat="45.9298310" lon="10.3130810">
	<ele>628.00</ele>
	<time>2025-04-29T05:32:34.000Z</time>
</trkpt>
<trkpt lat="45.9298320" lon="10.3131000">
	<ele>628.20</ele>
	<time>2025-04-29T05:32:35.000Z</time>
</trkpt>
<trkpt lat="45.9298360" lon="10.3131180">
	<ele>628.40</ele>
	<time>2025-04-29T05:32:36.000Z</time>
</trkpt>
<trkpt lat="45.9298410" lon="10.3131370">
	<ele>628.60</ele>
	<time>2025-04-29T05:32:37.000Z</time>
</trkpt>
<trkpt lat="45.9298470" lon="10.3131470">
	<ele>628.80</ele>
	<time>2025-04-29T05:32:38.000Z</time>
</trkpt>
<trkpt lat="45.9298500" lon="10.3131600">
	<ele>629.20</ele>
	<time>2025-04-29T05:32:39.000Z</time>
</trkpt>
<trkpt lat="45.9298420" lon="10.3131900">
	<ele>629.40</ele>
	<time>2025-04-29T05:32:40.000Z</time>
</trkpt>
<trkpt lat="45.9298440" lon="10.3132030">
	<ele>629.60</ele>
	<time>2025-04-29T05:32:41.000Z</time>
</trkpt>
<trkpt lat="45.9298400" lon="10.3132380">
	<ele>629.80</ele>
	<time>2025-04-29T05:32:42.000Z</time>
</trkpt>
<trkpt lat="45.9298350" lon="10.3132530">
	<ele>630.00</ele>
	<time>2025-04-29T05:32:43.000Z</time>
</trkpt>
<trkpt lat="45.9298340" lon="10.3132660">
	<ele>630.20</ele>
	<time>2025-04-29T05:32:44.000Z</time>
</trkpt>
<trkpt lat="45.9298310" lon="10.3132700">
	<ele>630.40</ele>
	<time>2025-04-29T05:32:45.000Z</time>
</trkpt>
<trkpt lat="45.9298330" lon="10.3132650">
	<ele>630.60</ele>
	<time>2025-04-29T05:32:46.000Z</time>
</trkpt>
<trkpt lat="45.9298290" lon="10.3132610">
	<ele>630.60</ele>
	<time>2025-04-29T05:32:47.000Z</time>
</trkpt>
<trkpt lat="45.9298510" lon="10.3132510">
	<ele>630.80</ele>
	<time>2025-04-29T05:32:48.000Z</time>
</trkpt>
<trkpt lat="45.9299510" lon="10.3132420">
	<ele>631.00</ele>
	<time>2025-04-29T05:32:49.000Z</time>
</trkpt>
<trkpt lat="45.9300390" lon="10.3132350">
	<ele>631.00</ele>
	<time>2025-04-29T05:32:50.000Z</time>
</trkpt>
<trkpt lat="45.9300520" lon="10.3132450">
	<ele>631.20</ele>
	<time>2025-04-29T05:32:51.000Z</time>
</trkpt>
<trkpt lat="45.9299880" lon="10.3132630">
	<ele>631.40</ele>
	<time>2025-04-29T05:32:52.000Z</time>
</trkpt>
<trkpt lat="45.9299790" lon="10.3132800">
	<ele>631.60</ele>
	<time>2025-04-29T05:32:53.000Z</time>
</trkpt>
<trkpt lat="45.9299760" lon="10.3132940">
	<ele>631.60</ele>
	<time>2025-04-29T05:32:54.000Z</time>
</trkpt>
<trkpt lat="45.9299650" lon="10.3132920">
	<ele>631.80</ele>
	<time>2025-04-29T05:32:55.000Z</time>
</trkpt>
<trkpt lat="45.9299840" lon="10.3132850">
	<ele>631.80</ele>
	<time>2025-04-29T05:32:56.000Z</time>
</trkpt>
<trkpt lat="45.9299770" lon="10.3132710">
	<ele>631.80</ele>
	<time>2025-04-29T05:32:57.000Z</time>
</trkpt>
<trkpt lat="45.9299630" lon="10.3132690">
	<ele>632.00</ele>
	<time>2025-04-29T05:32:58.000Z</time>
</trkpt>
<trkpt lat="45.9299510" lon="10.3132690">
	<ele>632.00</ele>
	<time>2025-04-29T05:32:59.000Z</time>
</trkpt>
<trkpt lat="45.9299410" lon="10.3132740">
	<ele>632.20</ele>
	<time>2025-04-29T05:33:00.000Z</time>
</trkpt>
<trkpt lat="45.9299250" lon="10.3132820">
	<ele>632.20</ele>
	<time>2025-04-29T05:33:01.000Z</time>
</trkpt>
<trkpt lat="45.9299010" lon="10.3132910">
	<ele>632.40</ele>
	<time>2025-04-29T05:33:02.000Z</time>
</trkpt>
<trkpt lat="45.9298740" lon="10.3132990">
	<ele>632.40</ele>
	<time>2025-04-29T05:33:03.000Z</time>
</trkpt>
<trkpt lat="45.9298430" lon="10.3133100">
	<ele>632.60</ele>
	<time>2025-04-29T05:33:04.000Z</time>
</trkpt>
<trkpt lat="45.9298000" lon="10.3133250">
	<ele>632.60</ele>
	<time>2025-04-29T05:33:05.000Z</time>
</trkpt>
<trkpt lat="45.9297840" lon="10.3133260">
	<ele>632.80</ele>
	<time>2025-04-29T05:33:06.000Z</time>
</trkpt>
<trkpt lat="45.9297590" lon="10.3133380">
	<ele>632.80</ele>
	<time>2025-04-29T05:33:07.000Z</time>
</trkpt>
<trkpt lat="45.9297420" lon="10.3133370">
	<ele>632.80</ele>
	<time>2025-04-29T05:33:08.000Z</time>
</trkpt>
<trkpt lat="45.9297170" lon="10.3133690">
	<ele>632.80</ele>
	<time>2025-04-29T05:33:09.000Z</time>
</trkpt>
<trkpt lat="45.9296970" lon="10.3133890">
	<ele>633.00</ele>
	<time>2025-04-29T05:33:10.000Z</time>
</trkpt>
<trkpt lat="45.9297050" lon="10.3133650">
	<ele>633.00</ele>
	<time>2025-04-29T05:33:11.000Z</time>
</trkpt>
<trkpt lat="45.9296970" lon="10.3133660">
	<ele>633.00</ele>
	<time>2025-04-29T05:33:12.000Z</time>
</trkpt>
<trkpt lat="45.9296810" lon="10.3134140">
	<ele>633.00</ele>
	<time>2025-04-29T05:33:13.000Z</time>
</trkpt>
<trkpt lat="45.9296870" lon="10.3134220">
	<ele>633.00</ele>
	<time>2025-04-29T05:33:14.000Z</time>
</trkpt>
<trkpt lat="45.9296850" lon="10.3134200">
	<ele>633.00</ele>
	<time>2025-04-29T05:33:15.000Z</time>
</trkpt>
<trkpt lat="45.9296800" lon="10.3134120">
	<ele>633.00</ele>
	<time>2025-04-29T05:33:16.000Z</time>
</trkpt>
<trkpt lat="45.9296740" lon="10.3134050">
	<ele>633.20</ele>
	<time>2025-04-29T05:33:17.000Z</time>
</trkpt>
<trkpt lat="45.9296780" lon="10.3134040">
	<ele>633.20</ele>
	<time>2025-04-29T05:33:18.000Z</time>
</trkpt>
<trkpt lat="45.9296760" lon="10.3134060">
	<ele>633.20</ele>
	<time>2025-04-29T05:33:19.000Z</time>
</trkpt>
<trkpt lat="45.9296750" lon="10.3134090">
	<ele>633.40</ele>
	<time>2025-04-29T05:33:20.000Z</time>
</trkpt>
<trkpt lat="45.9296670" lon="10.3134230">
	<ele>633.60</ele>
	<time>2025-04-29T05:33:21.000Z</time>
</trkpt>
<trkpt lat="45.9296630" lon="10.3134400">
	<ele>633.60</ele>
	<time>2025-04-29T05:33:22.000Z</time>
</trkpt>
<trkpt lat="45.9296260" lon="10.3134390">
	<ele>633.80</ele>
	<time>2025-04-29T05:33:23.000Z</time>
</trkpt>
<trkpt lat="45.9295920" lon="10.3134290">
	<ele>633.80</ele>
	<time>2025-04-29T05:33:24.000Z</time>
</trkpt>
<trkpt lat="45.9295670" lon="10.3134300">
	<ele>634.00</ele>
	<time>2025-04-29T05:33:25.000Z</time>
</trkpt>
<trkpt lat="45.9295460" lon="10.3134560">
	<ele>634.20</ele>
	<time>2025-04-29T05:33:26.000Z</time>
</trkpt>
<trkpt lat="45.9295310" lon="10.3134760">
	<ele>634.20</ele>
	<time>2025-04-29T05:33:27.000Z</time>
</trkpt>
<trkpt lat="45.9295110" lon="10.3134990">
	<ele>634.20</ele>
	<time>2025-04-29T05:33:28.000Z</time>
</trkpt>
<trkpt lat="45.9294910" lon="10.3135200">
	<ele>634.20</ele>
	<time>2025-04-29T05:33:29.000Z</time>
</trkpt>
<trkpt lat="45.9294670" lon="10.3135450">
	<ele>634.20</ele>
	<time>2025-04-29T05:33:30.000Z</time>
</trkpt>
<trkpt lat="45.9294530" lon="10.3135270">
	<ele>634.20</ele>
	<time>2025-04-29T05:33:31.000Z</time>
</trkpt>
<trkpt lat="45.9294110" lon="10.3135390">
	<ele>634.20</ele>
	<time>2025-04-29T05:33:32.000Z</time>
</trkpt>
<trkpt lat="45.9293800" lon="10.3135480">
	<ele>634.20</ele>
	<time>2025-04-29T05:33:33.000Z</time>
</trkpt>
<trkpt lat="45.9293490" lon="10.3135650">
	<ele>634.20</ele>
	<time>2025-04-29T05:33:34.000Z</time>
</trkpt>
<trkpt lat="45.9293220" lon="10.3135810">
	<ele>634.20</ele>
	<time>2025-04-29T05:33:35.000Z</time>
</trkpt>
<trkpt lat="45.9293040" lon="10.3135900">
	<ele>634.00</ele>
	<time>2025-04-29T05:33:36.000Z</time>
</trkpt>
<trkpt lat="45.9292730" lon="10.3136090">
	<ele>634.00</ele>
	<time>2025-04-29T05:33:37.000Z</time>
</trkpt>
<trkpt lat="45.9292520" lon="10.3136170">
	<ele>634.00</ele>
	<time>2025-04-29T05:33:38.000Z</time>
</trkpt>
<trkpt lat="45.9292370" lon="10.3136230">
	<ele>634.00</ele>
	<time>2025-04-29T05:33:39.000Z</time>
</trkpt>
<trkpt lat="45.9292190" lon="10.3136240">
	<ele>634.00</ele>
	<time>2025-04-29T05:33:40.000Z</time>
</trkpt>
<trkpt lat="45.9292070" lon="10.3136300">
	<ele>634.00</ele>
	<time>2025-04-29T05:33:41.000Z</time>
</trkpt>
<trkpt lat="45.9292050" lon="10.3136380">
	<ele>634.00</ele>
	<time>2025-04-29T05:33:42.000Z</time>
</trkpt>
<trkpt lat="45.9291980" lon="10.3136440">
	<ele>634.00</ele>
	<time>2025-04-29T05:33:43.000Z</time>
</trkpt>
<trkpt lat="45.9291790" lon="10.3136490">
	<ele>634.00</ele>
	<time>2025-04-29T05:33:44.000Z</time>
</trkpt>
<trkpt lat="45.9291520" lon="10.3136440">
	<ele>634.00</ele>
	<time>2025-04-29T05:33:45.000Z</time>
</trkpt>
<trkpt lat="45.9291340" lon="10.3136400">
	<ele>634.20</ele>
	<time>2025-04-29T05:33:46.000Z</time>
</trkpt>
<trkpt lat="45.9291310" lon="10.3136410">
	<ele>634.20</ele>
	<time>2025-04-29T05:33:47.000Z</time>
</trkpt>
<trkpt lat="45.9291240" lon="10.3136440">
	<ele>634.20</ele>
	<time>2025-04-29T05:33:48.000Z</time>
</trkpt>
<trkpt lat="45.9291160" lon="10.3136410">
	<ele>634.40</ele>
	<time>2025-04-29T05:33:49.000Z</time>
</trkpt>
<trkpt lat="45.9291080" lon="10.3136400">
	<ele>634.40</ele>
	<time>2025-04-29T05:33:50.000Z</time>
</trkpt>
<trkpt lat="45.9291010" lon="10.3136390">
	<ele>634.40</ele>
	<time>2025-04-29T05:33:51.000Z</time>
</trkpt>
<trkpt lat="45.9290940" lon="10.3136370">
	<ele>634.40</ele>
	<time>2025-04-29T05:33:52.000Z</time>
</trkpt>
<trkpt lat="45.9290880" lon="10.3136400">
	<ele>634.60</ele>
	<time>2025-04-29T05:33:53.000Z</time>
</trkpt>
<trkpt lat="45.9290830" lon="10.3136450">
	<ele>634.60</ele>
	<time>2025-04-29T05:33:54.000Z</time>
</trkpt>
<trkpt lat="45.9290770" lon="10.3136430">
	<ele>634.60</ele>
	<time>2025-04-29T05:33:55.000Z</time>
</trkpt>
<trkpt lat="45.9290650" lon="10.3136310">
	<ele>634.80</ele>
	<time>2025-04-29T05:33:56.000Z</time>
</trkpt>
<trkpt lat="45.9290480" lon="10.3136270">
	<ele>634.80</ele>
	<time>2025-04-29T05:33:57.000Z</time>
</trkpt>
<trkpt lat="45.9290320" lon="10.3136300">
	<ele>634.80</ele>
	<time>2025-04-29T05:33:58.000Z</time>
</trkpt>
<trkpt lat="45.9290120" lon="10.3136340">
	<ele>634.80</ele>
	<time>2025-04-29T05:33:59.000Z</time>
</trkpt>
<trkpt lat="45.9289980" lon="10.3136340">
	<ele>635.00</ele>
	<time>2025-04-29T05:34:00.000Z</time>
</trkpt>
<trkpt lat="45.9289890" lon="10.3136560">
	<ele>635.00</ele>
	<time>2025-04-29T05:34:01.000Z</time>
</trkpt>
<trkpt lat="45.9289770" lon="10.3136680">
	<ele>635.20</ele>
	<time>2025-04-29T05:34:02.000Z</time>
</trkpt>
<trkpt lat="45.9289590" lon="10.3136730">
	<ele>635.20</ele>
	<time>2025-04-29T05:34:03.000Z</time>
</trkpt>
<trkpt lat="45.9289440" lon="10.3136690">
	<ele>635.40</ele>
	<time>2025-04-29T05:34:04.000Z</time>
</trkpt>
<trkpt lat="45.9289340" lon="10.3136650">
	<ele>635.40</ele>
	<time>2025-04-29T05:34:05.000Z</time>
</trkpt>
<trkpt lat="45.9289280" lon="10.3136250">
	<ele>635.60</ele>
	<time>2025-04-29T05:34:06.000Z</time>
</trkpt>
<trkpt lat="45.9289280" lon="10.3135880">
	<ele>635.60</ele>
	<time>2025-04-29T05:34:07.000Z</time>
</trkpt>
<trkpt lat="45.9289060" lon="10.3135850">
	<ele>635.80</ele>
	<time>2025-04-29T05:34:08.000Z</time>
</trkpt>
<trkpt lat="45.9288890" lon="10.3135820">
	<ele>635.80</ele>
	<time>2025-04-29T05:34:09.000Z</time>
</trkpt>
<trkpt lat="45.9288840" lon="10.3135810">
	<ele>635.80</ele>
	<time>2025-04-29T05:34:10.000Z</time>
</trkpt>
<trkpt lat="45.9288670" lon="10.3135850">
	<ele>636.00</ele>
	<time>2025-04-29T05:34:11.000Z</time>
</trkpt>
<trkpt lat="45.9288440" lon="10.3135950">
	<ele>636.00</ele>
	<time>2025-04-29T05:34:12.000Z</time>
</trkpt>
<trkpt lat="45.9288240" lon="10.3136110">
	<ele>636.20</ele>
	<time>2025-04-29T05:34:13.000Z</time>
</trkpt>
<trkpt lat="45.9288030" lon="10.3136190">
	<ele>636.40</ele>
	<time>2025-04-29T05:34:14.000Z</time>
</trkpt>
<trkpt lat="45.9287820" lon="10.3136300">
	<ele>636.60</ele>
	<time>2025-04-29T05:34:15.000Z</time>
</trkpt>
<trkpt lat="45.9287610" lon="10.3136420">
	<ele>636.80</ele>
	<time>2025-04-29T05:34:16.000Z</time>
</trkpt>
<trkpt lat="45.9287390" lon="10.3136570">
	<ele>636.80</ele>
	<time>2025-04-29T05:34:17.000Z</time>
</trkpt>
<trkpt lat="45.9287170" lon="10.3136670">
	<ele>637.00</ele>
	<time>2025-04-29T05:34:18.000Z</time>
</trkpt>
<trkpt lat="45.9286960" lon="10.3136810">
	<ele>637.40</ele>
	<time>2025-04-29T05:34:19.000Z</time>
</trkpt>
<trkpt lat="45.9286740" lon="10.3136910">
	<ele>637.60</ele>
	<time>2025-04-29T05:34:20.000Z</time>
</trkpt>
<trkpt lat="45.9286520" lon="10.3137000">
	<ele>637.60</ele>
	<time>2025-04-29T05:34:21.000Z</time>
</trkpt>
<trkpt lat="45.9286220" lon="10.3137140">
	<ele>637.80</ele>
	<time>2025-04-29T05:34:22.000Z</time>
</trkpt>
<trkpt lat="45.9285900" lon="10.3137460">
	<ele>638.00</ele>
	<time>2025-04-29T05:34:23.000Z</time>
</trkpt>
<trkpt lat="45.9285760" lon="10.3137660">
	<ele>638.20</ele>
	<time>2025-04-29T05:34:24.000Z</time>
</trkpt>
<trkpt lat="45.9285600" lon="10.3137800">
	<ele>638.20</ele>
	<time>2025-04-29T05:34:25.000Z</time>
</trkpt>
<trkpt lat="45.9285480" lon="10.3137780">
	<ele>638.40</ele>
	<time>2025-04-29T05:34:26.000Z</time>
</trkpt>
<trkpt lat="45.9285350" lon="10.3137830">
	<ele>638.60</ele>
	<time>2025-04-29T05:34:27.000Z</time>
</trkpt>
<trkpt lat="45.9285240" lon="10.3137910">
	<ele>638.60</ele>
	<time>2025-04-29T05:34:28.000Z</time>
</trkpt>
<trkpt lat="45.9285130" lon="10.3137980">
	<ele>638.80</ele>
	<time>2025-04-29T05:34:29.000Z</time>
</trkpt>
<trkpt lat="45.9284990" lon="10.3138070">
	<ele>638.80</ele>
	<time>2025-04-29T05:34:30.000Z</time>
</trkpt>
<trkpt lat="45.9284830" lon="10.3138070">
	<ele>639.00</ele>
	<time>2025-04-29T05:34:31.000Z</time>
</trkpt>
<trkpt lat="45.9284700" lon="10.3138060">
	<ele>639.00</ele>
	<time>2025-04-29T05:34:32.000Z</time>
</trkpt>
<trkpt lat="45.9284580" lon="10.3138050">
	<ele>639.00</ele>
	<time>2025-04-29T05:34:33.000Z</time>
</trkpt>
<trkpt lat="45.9284420" lon="10.3137950">
	<ele>639.20</ele>
	<time>2025-04-29T05:34:34.000Z</time>
</trkpt>
<trkpt lat="45.9284220" lon="10.3137930">
	<ele>639.20</ele>
	<time>2025-04-29T05:34:35.000Z</time>
</trkpt>
<trkpt lat="45.9284050" lon="10.3137860">
	<ele>639.40</ele>
	<time>2025-04-29T05:34:36.000Z</time>
</trkpt>
<trkpt lat="45.9283880" lon="10.3137870">
	<ele>639.60</ele>
	<time>2025-04-29T05:34:37.000Z</time>
</trkpt>
<trkpt lat="45.9283770" lon="10.3137950">
	<ele>639.60</ele>
	<time>2025-04-29T05:34:38.000Z</time>
</trkpt>
<trkpt lat="45.9283590" lon="10.3137980">
	<ele>639.80</ele>
	<time>2025-04-29T05:34:39.000Z</time>
</trkpt>
<trkpt lat="45.9283570" lon="10.3138040">
	<ele>639.80</ele>
	<time>2025-04-29T05:34:40.000Z</time>
</trkpt>
<trkpt lat="45.9283400" lon="10.3138120">
	<ele>640.00</ele>
	<time>2025-04-29T05:34:41.000Z</time>
</trkpt>
<trkpt lat="45.9283200" lon="10.3138010">
	<ele>640.00</ele>
	<time>2025-04-29T05:34:42.000Z</time>
</trkpt>
<trkpt lat="45.9283080" lon="10.3138040">
	<ele>640.20</ele>
	<time>2025-04-29T05:34:43.000Z</time>
</trkpt>
<trkpt lat="45.9282950" lon="10.3138040">
	<ele>640.20</ele>
	<time>2025-04-29T05:34:44.000Z</time>
</trkpt>
<trkpt lat="45.9282800" lon="10.3138080">
	<ele>640.20</ele>
	<time>2025-04-29T05:34:45.000Z</time>
</trkpt>
<trkpt lat="45.9282680" lon="10.3138070">
	<ele>640.20</ele>
	<time>2025-04-29T05:34:46.000Z</time>
</trkpt>
<trkpt lat="45.9282580" lon="10.3138240">
	<ele>640.40</ele>
	<time>2025-04-29T05:34:47.000Z</time>
</trkpt>
<trkpt lat="45.9282440" lon="10.3138300">
	<ele>640.40</ele>
	<time>2025-04-29T05:34:48.000Z</time>
</trkpt>
<trkpt lat="45.9282300" lon="10.3138360">
	<ele>640.60</ele>
	<time>2025-04-29T05:34:49.000Z</time>
</trkpt>
<trkpt lat="45.9282200" lon="10.3138370">
	<ele>640.80</ele>
	<time>2025-04-29T05:34:50.000Z</time>
</trkpt>
<trkpt lat="45.9282110" lon="10.3138320">
	<ele>641.00</ele>
	<time>2025-04-29T05:34:51.000Z</time>
</trkpt>
<trkpt lat="45.9281970" lon="10.3138150">
	<ele>641.20</ele>
	<time>2025-04-29T05:34:52.000Z</time>
</trkpt>
<trkpt lat="45.9281830" lon="10.3138030">
	<ele>641.20</ele>
	<time>2025-04-29T05:34:53.000Z</time>
</trkpt>
<trkpt lat="45.9281710" lon="10.3137940">
	<ele>641.20</ele>
	<time>2025-04-29T05:34:54.000Z</time>
</trkpt>
<trkpt lat="45.9281560" lon="10.3137830">
	<ele>641.40</ele>
	<time>2025-04-29T05:34:55.000Z</time>
</trkpt>
<trkpt lat="45.9281430" lon="10.3137620">
	<ele>641.40</ele>
	<time>2025-04-29T05:34:56.000Z</time>
</trkpt>
<trkpt lat="45.9281270" lon="10.3137450">
	<ele>641.60</ele>
	<time>2025-04-29T05:34:57.000Z</time>
</trkpt>
<trkpt lat="45.9281110" lon="10.3137270">
	<ele>641.60</ele>
	<time>2025-04-29T05:34:58.000Z</time>
</trkpt>
<trkpt lat="45.9280930" lon="10.3137050">
	<ele>641.60</ele>
	<time>2025-04-29T05:34:59.000Z</time>
</trkpt>
<trkpt lat="45.9280800" lon="10.3136930">
	<ele>641.80</ele>
	<time>2025-04-29T05:35:00.000Z</time>
</trkpt>
<trkpt lat="45.9280660" lon="10.3136780">
	<ele>642.00</ele>
	<time>2025-04-29T05:35:01.000Z</time>
</trkpt>
<trkpt lat="45.9280520" lon="10.3136690">
	<ele>642.00</ele>
	<time>2025-04-29T05:35:02.000Z</time>
</trkpt>
<trkpt lat="45.9280400" lon="10.3136560">
	<ele>642.20</ele>
	<time>2025-04-29T05:35:03.000Z</time>
</trkpt>
<trkpt lat="45.9280290" lon="10.3136580">
	<ele>642.20</ele>
	<time>2025-04-29T05:35:04.000Z</time>
</trkpt>
<trkpt lat="45.9280140" lon="10.3136560">
	<ele>642.40</ele>
	<time>2025-04-29T05:35:05.000Z</time>
</trkpt>
<trkpt lat="45.9279970" lon="10.3136480">
	<ele>642.40</ele>
	<time>2025-04-29T05:35:06.000Z</time>
</trkpt>
<trkpt lat="45.9279810" lon="10.3136320">
	<ele>642.40</ele>
	<time>2025-04-29T05:35:07.000Z</time>
</trkpt>
<trkpt lat="45.9279630" lon="10.3136220">
	<ele>642.60</ele>
	<time>2025-04-29T05:35:08.000Z</time>
</trkpt>
<trkpt lat="45.9279480" lon="10.3136250">
	<ele>642.60</ele>
	<time>2025-04-29T05:35:09.000Z</time>
</trkpt>
<trkpt lat="45.9279340" lon="10.3136290">
	<ele>642.80</ele>
	<time>2025-04-29T05:35:10.000Z</time>
</trkpt>
<trkpt lat="45.9279200" lon="10.3136410">
	<ele>643.00</ele>
	<time>2025-04-29T05:35:11.000Z</time>
</trkpt>
<trkpt lat="45.9279060" lon="10.3136450">
	<ele>643.20</ele>
	<time>2025-04-29T05:35:12.000Z</time>
</trkpt>
<trkpt lat="45.9278940" lon="10.3136460">
	<ele>643.40</ele>
	<time>2025-04-29T05:35:13.000Z</time>
</trkpt>
<trkpt lat="45.9278800" lon="10.3136470">
	<ele>643.40</ele>
	<time>2025-04-29T05:35:14.000Z</time>
</trkpt>
<trkpt lat="45.9278660" lon="10.3136410">
	<ele>643.60</ele>
	<time>2025-04-29T05:35:15.000Z</time>
</trkpt>
<trkpt lat="45.9278530" lon="10.3136390">
	<ele>643.60</ele>
	<time>2025-04-29T05:35:16.000Z</time>
</trkpt>
<trkpt lat="45.9278490" lon="10.3136390">
	<ele>643.80</ele>
	<time>2025-04-29T05:35:17.000Z</time>
</trkpt>
<trkpt lat="45.9278500" lon="10.3136280">
	<ele>643.80</ele>
	<time>2025-04-29T05:35:18.000Z</time>
</trkpt>
<trkpt lat="45.9278520" lon="10.3136240">
	<ele>643.80</ele>
	<time>2025-04-29T05:35:19.000Z</time>
</trkpt>
<trkpt lat="45.9278540" lon="10.3136240">
	<ele>644.00</ele>
	<time>2025-04-29T05:35:20.000Z</time>
</trkpt>
<trkpt lat="45.9278550" lon="10.3136250">
	<ele>644.00</ele>
	<time>2025-04-29T05:35:21.000Z</time>
</trkpt>
<trkpt lat="45.9278550" lon="10.3136240">
	<ele>644.20</ele>
	<time>2025-04-29T05:35:22.000Z</time>
</trkpt>
<trkpt lat="45.9278520" lon="10.3136430">
	<ele>644.20</ele>
	<time>2025-04-29T05:35:23.000Z</time>
</trkpt>
<trkpt lat="45.9278430" lon="10.3136550">
	<ele>644.20</ele>
	<time>2025-04-29T05:35:24.000Z</time>
</trkpt>
<trkpt lat="45.9278320" lon="10.3136510">
	<ele>644.20</ele>
	<time>2025-04-29T05:35:25.000Z</time>
</trkpt>
<trkpt lat="45.9278150" lon="10.3136540">
	<ele>644.00</ele>
	<time>2025-04-29T05:35:26.000Z</time>
</trkpt>
<trkpt lat="45.9277980" lon="10.3136590">
	<ele>644.00</ele>
	<time>2025-04-29T05:35:27.000Z</time>
</trkpt>
<trkpt lat="45.9277790" lon="10.3136670">
	<ele>643.80</ele>
	<time>2025-04-29T05:35:28.000Z</time>
</trkpt>
<trkpt lat="45.9277610" lon="10.3136700">
	<ele>643.80</ele>
	<time>2025-04-29T05:35:29.000Z</time>
</trkpt>
<trkpt lat="45.9277470" lon="10.3136830">
	<ele>643.60</ele>
	<time>2025-04-29T05:35:30.000Z</time>
</trkpt>
<trkpt lat="45.9277330" lon="10.3136860">
	<ele>643.40</ele>
	<time>2025-04-29T05:35:31.000Z</time>
</trkpt>
<trkpt lat="45.9277250" lon="10.3136770">
	<ele>643.20</ele>
	<time>2025-04-29T05:35:32.000Z</time>
</trkpt>
<trkpt lat="45.9277180" lon="10.3136660">
	<ele>643.00</ele>
	<time>2025-04-29T05:35:33.000Z</time>
</trkpt>
<trkpt lat="45.9277130" lon="10.3136570">
	<ele>642.80</ele>
	<time>2025-04-29T05:35:34.000Z</time>
</trkpt>
<trkpt lat="45.9277050" lon="10.3136370">
	<ele>642.60</ele>
	<time>2025-04-29T05:35:35.000Z</time>
</trkpt>
<trkpt lat="45.9277010" lon="10.3136310">
	<ele>642.40</ele>
	<time>2025-04-29T05:35:36.000Z</time>
</trkpt>
<trkpt lat="45.9277050" lon="10.3136040">
	<ele>642.20</ele>
	<time>2025-04-29T05:35:37.000Z</time>
</trkpt>
<trkpt lat="45.9277160" lon="10.3135780">
	<ele>642.00</ele>
	<time>2025-04-29T05:35:38.000Z</time>
</trkpt>
<trkpt lat="45.9277220" lon="10.3135520">
	<ele>641.60</ele>
	<time>2025-04-29T05:35:39.000Z</time>
</trkpt>
<trkpt lat="45.9277280" lon="10.3135300">
	<ele>641.20</ele>
	<time>2025-04-29T05:35:40.000Z</time>
</trkpt>
<trkpt lat="45.9277300" lon="10.3135090">
	<ele>641.00</ele>
	<time>2025-04-29T05:35:41.000Z</time>
</trkpt>
<trkpt lat="45.9277310" lon="10.3134800">
	<ele>640.80</ele>
	<time>2025-04-29T05:35:42.000Z</time>
</trkpt>
<trkpt lat="45.9277270" lon="10.3134620">
	<ele>640.40</ele>
	<time>2025-04-29T05:35:43.000Z</time>
</trkpt>
<trkpt lat="45.9277260" lon="10.3134320">
	<ele>640.20</ele>
	<time>2025-04-29T05:35:44.000Z</time>
</trkpt>
<trkpt lat="45.9277270" lon="10.3134130">
	<ele>639.80</ele>
	<time>2025-04-29T05:35:45.000Z</time>
</trkpt>
<trkpt lat="45.9277270" lon="10.3133910">
	<ele>639.40</ele>
	<time>2025-04-29T05:35:46.000Z</time>
</trkpt>
<trkpt lat="45.9277220" lon="10.3133690">
	<ele>639.20</ele>
	<time>2025-04-29T05:35:47.000Z</time>
</trkpt>
<trkpt lat="45.9277150" lon="10.3133400">
	<ele>639.00</ele>
	<time>2025-04-29T05:35:48.000Z</time>
</trkpt>
<trkpt lat="45.9277070" lon="10.3133090">
	<ele>638.60</ele>
	<time>2025-04-29T05:35:49.000Z</time>
</trkpt>
<trkpt lat="45.9276960" lon="10.3132760">
	<ele>638.40</ele>
	<time>2025-04-29T05:35:50.000Z</time>
</trkpt>
<trkpt lat="45.9276900" lon="10.3132510">
	<ele>638.20</ele>
	<time>2025-04-29T05:35:51.000Z</time>
</trkpt>
<trkpt lat="45.9276910" lon="10.3132310">
	<ele>638.00</ele>
	<time>2025-04-29T05:35:52.000Z</time>
</trkpt>
<trkpt lat="45.9276890" lon="10.3132040">
	<ele>637.80</ele>
	<time>2025-04-29T05:35:53.000Z</time>
</trkpt>
<trkpt lat="45.9276820" lon="10.3131830">
	<ele>637.60</ele>
	<time>2025-04-29T05:35:54.000Z</time>
</trkpt>
<trkpt lat="45.9276770" lon="10.3131690">
	<ele>637.20</ele>
	<time>2025-04-29T05:35:55.000Z</time>
</trkpt>
<trkpt lat="45.9276630" lon="10.3131460">
	<ele>637.00</ele>
	<time>2025-04-29T05:35:56.000Z</time>
</trkpt>
<trkpt lat="45.9276390" lon="10.3131200">
	<ele>636.60</ele>
	<time>2025-04-29T05:35:57.000Z</time>
</trkpt>
<trkpt lat="45.9276210" lon="10.3131120">
	<ele>636.40</ele>
	<time>2025-04-29T05:35:58.000Z</time>
</trkpt>
<trkpt lat="45.9275980" lon="10.3131080">
	<ele>636.40</ele>
	<time>2025-04-29T05:35:59.000Z</time>
</trkpt>
<trkpt lat="45.9275850" lon="10.3130920">
	<ele>636.20</ele>
	<time>2025-04-29T05:36:00.000Z</time>
</trkpt>
<trkpt lat="45.9275670" lon="10.3130860">
	<ele>636.20</ele>
	<time>2025-04-29T05:36:01.000Z</time>
</trkpt>
<trkpt lat="45.9275530" lon="10.3130920">
	<ele>636.20</ele>
	<time>2025-04-29T05:36:02.000Z</time>
</trkpt>
<trkpt lat="45.9275440" lon="10.3130930">
	<ele>636.00</ele>
	<time>2025-04-29T05:36:03.000Z</time>
</trkpt>
<trkpt lat="45.9275270" lon="10.3130930">
	<ele>635.80</ele>
	<time>2025-04-29T05:36:04.000Z</time>
</trkpt>
<trkpt lat="45.9275120" lon="10.3130870">
	<ele>635.80</ele>
	<time>2025-04-29T05:36:05.000Z</time>
</trkpt>
<trkpt lat="45.9274910" lon="10.3130860">
	<ele>635.60</ele>
	<time>2025-04-29T05:36:06.000Z</time>
</trkpt>
<trkpt lat="45.9274750" lon="10.3130780">
	<ele>635.60</ele>
	<time>2025-04-29T05:36:07.000Z</time>
</trkpt>
<trkpt lat="45.9274550" lon="10.3130690">
	<ele>635.60</ele>
	<time>2025-04-29T05:36:08.000Z</time>
</trkpt>
<trkpt lat="45.9274420" lon="10.3130660">
	<ele>635.60</ele>
	<time>2025-04-29T05:36:09.000Z</time>
</trkpt>
<trkpt lat="45.9274270" lon="10.3130660">
	<ele>635.60</ele>
	<time>2025-04-29T05:36:10.000Z</time>
</trkpt>
<trkpt lat="45.9274060" lon="10.3130840">
	<ele>635.60</ele>
	<time>2025-04-29T05:36:11.000Z</time>
</trkpt>
<trkpt lat="45.9273890" lon="10.3130970">
	<ele>635.60</ele>
	<time>2025-04-29T05:36:12.000Z</time>
</trkpt>
<trkpt lat="45.9273720" lon="10.3131020">
	<ele>635.80</ele>
	<time>2025-04-29T05:36:13.000Z</time>
</trkpt>
<trkpt lat="45.9273600" lon="10.3131020">
	<ele>635.80</ele>
	<time>2025-04-29T05:36:14.000Z</time>
</trkpt>
<trkpt lat="45.9273500" lon="10.3131020">
	<ele>635.80</ele>
	<time>2025-04-29T05:36:15.000Z</time>
</trkpt>
<trkpt lat="45.9273470" lon="10.3131010">
	<ele>636.00</ele>
	<time>2025-04-29T05:36:16.000Z</time>
</trkpt>
<trkpt lat="45.9273470" lon="10.3130920">
	<ele>636.00</ele>
	<time>2025-04-29T05:36:17.000Z</time>
</trkpt>
<trkpt lat="45.9273420" lon="10.3130780">
	<ele>636.00</ele>
	<time>2025-04-29T05:36:18.000Z</time>
</trkpt>
<trkpt lat="45.9273380" lon="10.3130690">
	<ele>636.00</ele>
	<time>2025-04-29T05:36:19.000Z</time>
</trkpt>
<trkpt lat="45.9273340" lon="10.3130660">
	<ele>636.00</ele>
	<time>2025-04-29T05:36:20.000Z</time>
</trkpt>
<trkpt lat="45.9273280" lon="10.3130620">
	<ele>636.00</ele>
	<time>2025-04-29T05:36:21.000Z</time>
</trkpt>
<trkpt lat="45.9273180" lon="10.3130510">
	<ele>636.00</ele>
	<time>2025-04-29T05:36:22.000Z</time>
</trkpt>
<trkpt lat="45.9273050" lon="10.3130410">
	<ele>635.80</ele>
	<time>2025-04-29T05:36:23.000Z</time>
</trkpt>
<trkpt lat="45.9272940" lon="10.3130250">
	<ele>635.80</ele>
	<time>2025-04-29T05:36:24.000Z</time>
</trkpt>
<trkpt lat="45.9272830" lon="10.3130050">
	<ele>635.80</ele>
	<time>2025-04-29T05:36:25.000Z</time>
</trkpt>
<trkpt lat="45.9272740" lon="10.3129910">
	<ele>635.80</ele>
	<time>2025-04-29T05:36:26.000Z</time>
</trkpt>
<trkpt lat="45.9272740" lon="10.3129870">
	<ele>635.80</ele>
	<time>2025-04-29T05:36:27.000Z</time>
</trkpt>
<trkpt lat="45.9272650" lon="10.3129750">
	<ele>635.80</ele>
	<time>2025-04-29T05:36:28.000Z</time>
</trkpt>
<trkpt lat="45.9272500" lon="10.3129580">
	<ele>636.00</ele>
	<time>2025-04-29T05:36:29.000Z</time>
</trkpt>
<trkpt lat="45.9272420" lon="10.3129410">
	<ele>636.00</ele>
	<time>2025-04-29T05:36:30.000Z</time>
</trkpt>
<trkpt lat="45.9272540" lon="10.3129310">
	<ele>636.00</ele>
	<time>2025-04-29T05:36:31.000Z</time>
</trkpt>
<trkpt lat="45.9272660" lon="10.3129150">
	<ele>636.40</ele>
	<time>2025-04-29T05:36:32.000Z</time>
</trkpt>
<trkpt lat="45.9272620" lon="10.3128930">
	<ele>636.60</ele>
	<time>2025-04-29T05:36:33.000Z</time>
</trkpt>
<trkpt lat="45.9272630" lon="10.3128750">
	<ele>636.80</ele>
	<time>2025-04-29T05:36:34.000Z</time>
</trkpt>
<trkpt lat="45.9272600" lon="10.3128600">
	<ele>637.00</ele>
	<time>2025-04-29T05:36:35.000Z</time>
</trkpt>
<trkpt lat="45.9272600" lon="10.3128480">
	<ele>637.20</ele>
	<time>2025-04-29T05:36:36.000Z</time>
</trkpt>
<trkpt lat="45.9272650" lon="10.3128330">
	<ele>637.20</ele>
	<time>2025-04-29T05:36:37.000Z</time>
</trkpt>
<trkpt lat="45.9272670" lon="10.3128200">
	<ele>637.40</ele>
	<time>2025-04-29T05:36:38.000Z</time>
</trkpt>
<trkpt lat="45.9272660" lon="10.3127990">
	<ele>637.60</ele>
	<time>2025-04-29T05:36:39.000Z</time>
</trkpt>
<trkpt lat="45.9272740" lon="10.3127760">
	<ele>637.80</ele>
	<time>2025-04-29T05:36:40.000Z</time>
</trkpt>
<trkpt lat="45.9272750" lon="10.3127620">
	<ele>638.00</ele>
	<time>2025-04-29T05:36:41.000Z</time>
</trkpt>
<trkpt lat="45.9272760" lon="10.3127460">
	<ele>638.20</ele>
	<time>2025-04-29T05:36:42.000Z</time>
</trkpt>
<trkpt lat="45.9272790" lon="10.3127330">
	<ele>638.40</ele>
	<time>2025-04-29T05:36:43.000Z</time>
</trkpt>
<trkpt lat="45.9272840" lon="10.3127160">
	<ele>638.60</ele>
	<time>2025-04-29T05:36:44.000Z</time>
</trkpt>
<trkpt lat="45.9272840" lon="10.3127000">
	<ele>638.60</ele>
	<time>2025-04-29T05:36:45.000Z</time>
</trkpt>
<trkpt lat="45.9272820" lon="10.3126930">
	<ele>638.80</ele>
	<time>2025-04-29T05:36:46.000Z</time>
</trkpt>
<trkpt lat="45.9272750" lon="10.3126760">
	<ele>639.00</ele>
	<time>2025-04-29T05:36:47.000Z</time>
</trkpt>
<trkpt lat="45.9272710" lon="10.3126610">
	<ele>639.20</ele>
	<time>2025-04-29T05:36:48.000Z</time>
</trkpt>
<trkpt lat="45.9272710" lon="10.3126440">
	<ele>639.40</ele>
	<time>2025-04-29T05:36:49.000Z</time>
</trkpt>
<trkpt lat="45.9272690" lon="10.3126240">
	<ele>639.40</ele>
	<time>2025-04-29T05:36:50.000Z</time>
</trkpt>
<trkpt lat="45.9272650" lon="10.3126070">
	<ele>639.40</ele>
	<time>2025-04-29T05:36:51.000Z</time>
</trkpt>
<trkpt lat="45.9272550" lon="10.3125930">
	<ele>639.60</ele>
	<time>2025-04-29T05:36:52.000Z</time>
</trkpt>
<trkpt lat="45.9272480" lon="10.3125810">
	<ele>639.60</ele>
	<time>2025-04-29T05:36:53.000Z</time>
</trkpt>
<trkpt lat="45.9272370" lon="10.3125540">
	<ele>639.60</ele>
	<time>2025-04-29T05:36:54.000Z</time>
</trkpt>
<trkpt lat="45.9272250" lon="10.3125300">
	<ele>639.60</ele>
	<time>2025-04-29T05:36:55.000Z</time>
</trkpt>
<trkpt lat="45.9272150" lon="10.3125170">
	<ele>639.60</ele>
	<time>2025-04-29T05:36:56.000Z</time>
</trkpt>
<trkpt lat="45.9272000" lon="10.3125020">
	<ele>639.60</ele>
	<time>2025-04-29T05:36:57.000Z</time>
</trkpt>
<trkpt lat="45.9271890" lon="10.3124890">
	<ele>639.60</ele>
	<time>2025-04-29T05:36:58.000Z</time>
</trkpt>
<trkpt lat="45.9271800" lon="10.3124810">
	<ele>639.60</ele>
	<time>2025-04-29T05:36:59.000Z</time>
</trkpt>
<trkpt lat="45.9271730" lon="10.3124770">
	<ele>639.60</ele>
	<time>2025-04-29T05:37:00.000Z</time>
</trkpt>
<trkpt lat="45.9271620" lon="10.3124690">
	<ele>639.40</ele>
	<time>2025-04-29T05:37:01.000Z</time>
</trkpt>
<trkpt lat="45.9271490" lon="10.3124640">
	<ele>639.40</ele>
	<time>2025-04-29T05:37:02.000Z</time>
</trkpt>
<trkpt lat="45.9271400" lon="10.3124550">
	<ele>639.40</ele>
	<time>2025-04-29T05:37:03.000Z</time>
</trkpt>
<trkpt lat="45.9271290" lon="10.3124430">
	<ele>639.20</ele>
	<time>2025-04-29T05:37:04.000Z</time>
</trkpt>
<trkpt lat="45.9271200" lon="10.3124310">
	<ele>639.20</ele>
	<time>2025-04-29T05:37:05.000Z</time>
</trkpt>
<trkpt lat="45.9271110" lon="10.3124240">
	<ele>639.00</ele>
	<time>2025-04-29T05:37:06.000Z</time>
</trkpt>
<trkpt lat="45.9270980" lon="10.3124110">
	<ele>639.00</ele>
	<time>2025-04-29T05:37:07.000Z</time>
</trkpt>
<trkpt lat="45.9270860" lon="10.3123960">
	<ele>639.00</ele>
	<time>2025-04-29T05:37:08.000Z</time>
</trkpt>
<trkpt lat="45.9270750" lon="10.3123850">
	<ele>638.80</ele>
	<time>2025-04-29T05:37:09.000Z</time>
</trkpt>
<trkpt lat="45.9270640" lon="10.3123750">
	<ele>638.80</ele>
	<time>2025-04-29T05:37:10.000Z</time>
</trkpt>
<trkpt lat="45.9270540" lon="10.3123590">
	<ele>638.80</ele>
	<time>2025-04-29T05:37:11.000Z</time>
</trkpt>
<trkpt lat="45.9270490" lon="10.3123400">
	<ele>638.80</ele>
	<time>2025-04-29T05:37:12.000Z</time>
</trkpt>
<trkpt lat="45.9270440" lon="10.3123190">
	<ele>638.80</ele>
	<time>2025-04-29T05:37:13.000Z</time>
</trkpt>
<trkpt lat="45.9270400" lon="10.3123020">
	<ele>638.80</ele>
	<time>2025-04-29T05:37:14.000Z</time>
</trkpt>
<trkpt lat="45.9270470" lon="10.3122860">
	<ele>638.80</ele>
	<time>2025-04-29T05:37:15.000Z</time>
</trkpt>
<trkpt lat="45.9270520" lon="10.3122660">
	<ele>638.80</ele>
	<time>2025-04-29T05:37:16.000Z</time>
</trkpt>
<trkpt lat="45.9270530" lon="10.3122500">
	<ele>639.00</ele>
	<time>2025-04-29T05:37:17.000Z</time>
</trkpt>
<trkpt lat="45.9270530" lon="10.3122420">
	<ele>639.00</ele>
	<time>2025-04-29T05:37:18.000Z</time>
</trkpt>
<trkpt lat="45.9270670" lon="10.3122290">
	<ele>639.00</ele>
	<time>2025-04-29T05:37:19.000Z</time>
</trkpt>
<trkpt lat="45.9270900" lon="10.3122170">
	<ele>639.00</ele>
	<time>2025-04-29T05:37:20.000Z</time>
</trkpt>
<trkpt lat="45.9271040" lon="10.3122010">
	<ele>639.00</ele>
	<time>2025-04-29T05:37:21.000Z</time>
</trkpt>
<trkpt lat="45.9271210" lon="10.3121850">
	<ele>638.80</ele>
	<time>2025-04-29T05:37:22.000Z</time>
</trkpt>
<trkpt lat="45.9271220" lon="10.3121690">
	<ele>638.80</ele>
	<time>2025-04-29T05:37:23.000Z</time>
</trkpt>
<trkpt lat="45.9271160" lon="10.3121580">
	<ele>638.80</ele>
	<time>2025-04-29T05:37:24.000Z</time>
</trkpt>
<trkpt lat="45.9271100" lon="10.3121550">
	<ele>638.60</ele>
	<time>2025-04-29T05:37:25.000Z</time>
</trkpt>
<trkpt lat="45.9270920" lon="10.3121560">
	<ele>638.60</ele>
	<time>2025-04-29T05:37:26.000Z</time>
</trkpt>
<trkpt lat="45.9270640" lon="10.3121560">
	<ele>638.60</ele>
	<time>2025-04-29T05:37:27.000Z</time>
</trkpt>
<trkpt lat="45.9270730" lon="10.3121530">
	<ele>638.60</ele>
	<time>2025-04-29T05:37:28.000Z</time>
</trkpt>
<trkpt lat="45.9270920" lon="10.3121490">
	<ele>638.60</ele>
	<time>2025-04-29T05:37:29.000Z</time>
</trkpt>
<trkpt lat="45.9271200" lon="10.3121460">
	<ele>638.60</ele>
	<time>2025-04-29T05:37:30.000Z</time>
</trkpt>
<trkpt lat="45.9271340" lon="10.3121430">
	<ele>638.80</ele>
	<time>2025-04-29T05:37:31.000Z</time>
</trkpt>
<trkpt lat="45.9271260" lon="10.3121390">
	<ele>638.80</ele>
	<time>2025-04-29T05:37:32.000Z</time>
</trkpt>
<trkpt lat="45.9271240" lon="10.3121340">
	<ele>639.20</ele>
	<time>2025-04-29T05:37:33.000Z</time>
</trkpt>
<trkpt lat="45.9271050" lon="10.3121280">
	<ele>639.60</ele>
	<time>2025-04-29T05:37:34.000Z</time>
</trkpt>
<trkpt lat="45.9270980" lon="10.3121300">
	<ele>639.80</ele>
	<time>2025-04-29T05:37:35.000Z</time>
</trkpt>
<trkpt lat="45.9270930" lon="10.3121360">
	<ele>639.80</ele>
	<time>2025-04-29T05:37:36.000Z</time>
</trkpt>
<trkpt lat="45.9271040" lon="10.3121420">
	<ele>640.00</ele>
	<time>2025-04-29T05:37:37.000Z</time>
</trkpt>
<trkpt lat="45.9270860" lon="10.3121580">
	<ele>638.80</ele>
	<time>2025-04-29T05:37:38.000Z</time>
</trkpt>
<trkpt lat="45.9270900" lon="10.3121660">
	<ele>638.80</ele>
	<time>2025-04-29T05:37:39.000Z</time>
</trkpt>
<trkpt lat="45.9271020" lon="10.3121670">
	<ele>638.80</ele>
	<time>2025-04-29T05:37:40.000Z</time>
</trkpt>
<trkpt lat="45.9271160" lon="10.3121690">
	<ele>639.00</ele>
	<time>2025-04-29T05:37:41.000Z</time>
</trkpt>
<trkpt lat="45.9271420" lon="10.3121700">
	<ele>639.00</ele>
	<time>2025-04-29T05:37:42.000Z</time>
</trkpt>
<trkpt lat="45.9271580" lon="10.3121740">
	<ele>639.20</ele>
	<time>2025-04-29T05:37:43.000Z</time>
</trkpt>
<trkpt lat="45.9271690" lon="10.3121750">
	<ele>639.20</ele>
	<time>2025-04-29T05:37:44.000Z</time>
</trkpt>
<trkpt lat="45.9271850" lon="10.3121720">
	<ele>639.40</ele>
	<time>2025-04-29T05:37:45.000Z</time>
</trkpt>
<trkpt lat="45.9271880" lon="10.3121650">
	<ele>639.60</ele>
	<time>2025-04-29T05:37:46.000Z</time>
</trkpt>
<trkpt lat="45.9271770" lon="10.3121680">
	<ele>639.80</ele>
	<time>2025-04-29T05:37:47.000Z</time>
</trkpt>
<trkpt lat="45.9271770" lon="10.3121720">
	<ele>640.00</ele>
	<time>2025-04-29T05:37:48.000Z</time>
</trkpt>
<trkpt lat="45.9271910" lon="10.3121690">
	<ele>640.20</ele>
	<time>2025-04-29T05:37:49.000Z</time>
</trkpt>
<trkpt lat="45.9272010" lon="10.3121670">
	<ele>640.60</ele>
	<time>2025-04-29T05:37:50.000Z</time>
</trkpt>
<trkpt lat="45.9272240" lon="10.3121650">
	<ele>640.80</ele>
	<time>2025-04-29T05:37:51.000Z</time>
</trkpt>
<trkpt lat="45.9272490" lon="10.3121580">
	<ele>641.00</ele>
	<time>2025-04-29T05:37:52.000Z</time>
</trkpt>
<trkpt lat="45.9272710" lon="10.3121500">
	<ele>641.20</ele>
	<time>2025-04-29T05:37:53.000Z</time>
</trkpt>
<trkpt lat="45.9272980" lon="10.3121360">
	<ele>641.40</ele>
	<time>2025-04-29T05:37:54.000Z</time>
</trkpt>
<trkpt lat="45.9273220" lon="10.3121290">
	<ele>641.60</ele>
	<time>2025-04-29T05:37:55.000Z</time>
</trkpt>
<trkpt lat="45.9273410" lon="10.3121190">
	<ele>641.80</ele>
	<time>2025-04-29T05:37:56.000Z</time>
</trkpt>
<trkpt lat="45.9273620" lon="10.3121140">
	<ele>642.20</ele>
	<time>2025-04-29T05:37:57.000Z</time>
</trkpt>
<trkpt lat="45.9273910" lon="10.3121090">
	<ele>642.40</ele>
	<time>2025-04-29T05:37:58.000Z</time>
</trkpt>
<trkpt lat="45.9274140" lon="10.3121090">
	<ele>642.60</ele>
	<time>2025-04-29T05:37:59.000Z</time>
</trkpt>
<trkpt lat="45.9274280" lon="10.3121070">
	<ele>642.60</ele>
	<time>2025-04-29T05:38:00.000Z</time>
</trkpt>
<trkpt lat="45.9274450" lon="10.3121020">
	<ele>643.00</ele>
	<time>2025-04-29T05:38:01.000Z</time>
</trkpt>
<trkpt lat="45.9274580" lon="10.3120850">
	<ele>643.20</ele>
	<time>2025-04-29T05:38:02.000Z</time>
</trkpt>
<trkpt lat="45.9274690" lon="10.3120760">
	<ele>643.40</ele>
	<time>2025-04-29T05:38:03.000Z</time>
</trkpt>
<trkpt lat="45.9274810" lon="10.3120660">
	<ele>643.80</ele>
	<time>2025-04-29T05:38:04.000Z</time>
</trkpt>
<trkpt lat="45.9274940" lon="10.3120570">
	<ele>644.00</ele>
	<time>2025-04-29T05:38:05.000Z</time>
</trkpt>
<trkpt lat="45.9275120" lon="10.3120410">
	<ele>644.20</ele>
	<time>2025-04-29T05:38:06.000Z</time>
</trkpt>
<trkpt lat="45.9275320" lon="10.3120210">
	<ele>644.40</ele>
	<time>2025-04-29T05:38:07.000Z</time>
</trkpt>
<trkpt lat="45.9275510" lon="10.3120060">
	<ele>644.60</ele>
	<time>2025-04-29T05:38:08.000Z</time>
</trkpt>
<trkpt lat="45.9275700" lon="10.3119850">
	<ele>644.60</ele>
	<time>2025-04-29T05:38:09.000Z</time>
</trkpt>
<trkpt lat="45.9275800" lon="10.3119660">
	<ele>644.80</ele>
	<time>2025-04-29T05:38:10.000Z</time>
</trkpt>
<trkpt lat="45.9275860" lon="10.3119500">
	<ele>645.20</ele>
	<time>2025-04-29T05:38:11.000Z</time>
</trkpt>
<trkpt lat="45.9275960" lon="10.3119420">
	<ele>645.20</ele>
	<time>2025-04-29T05:38:12.000Z</time>
</trkpt>
<trkpt lat="45.9276040" lon="10.3119390">
	<ele>645.60</ele>
	<time>2025-04-29T05:38:13.000Z</time>
</trkpt>
<trkpt lat="45.9276210" lon="10.3119350">
	<ele>645.60</ele>
	<time>2025-04-29T05:38:14.000Z</time>
</trkpt>
<trkpt lat="45.9276300" lon="10.3119310">
	<ele>645.80</ele>
	<time>2025-04-29T05:38:15.000Z</time>
</trkpt>
<trkpt lat="45.9276440" lon="10.3119250">
	<ele>645.80</ele>
	<time>2025-04-29T05:38:16.000Z</time>
</trkpt>
<trkpt lat="45.9276660" lon="10.3119240">
	<ele>646.40</ele>
	<time>2025-04-29T05:38:17.000Z</time>
</trkpt>
<trkpt lat="45.9276840" lon="10.3119200">
	<ele>646.80</ele>
	<time>2025-04-29T05:38:18.000Z</time>
</trkpt>
<trkpt lat="45.9276930" lon="10.3119180">
	<ele>647.20</ele>
	<time>2025-04-29T05:38:19.000Z</time>
</trkpt>
<trkpt lat="45.9277010" lon="10.3119150">
	<ele>647.40</ele>
	<time>2025-04-29T05:38:20.000Z</time>
</trkpt>
<trkpt lat="45.9277140" lon="10.3119110">
	<ele>647.40</ele>
	<time>2025-04-29T05:38:21.000Z</time>
</trkpt>
<trkpt lat="45.9277310" lon="10.3119040">
	<ele>647.60</ele>
	<time>2025-04-29T05:38:22.000Z</time>
</trkpt>
<trkpt lat="45.9277500" lon="10.3118860">
	<ele>647.80</ele>
	<time>2025-04-29T05:38:23.000Z</time>
</trkpt>
<trkpt lat="45.9277630" lon="10.3118700">
	<ele>648.20</ele>
	<time>2025-04-29T05:38:24.000Z</time>
</trkpt>
<trkpt lat="45.9277740" lon="10.3118630">
	<ele>648.40</ele>
	<time>2025-04-29T05:38:25.000Z</time>
</trkpt>
<trkpt lat="45.9277790" lon="10.3118460">
	<ele>648.60</ele>
	<time>2025-04-29T05:38:26.000Z</time>
</trkpt>
<trkpt lat="45.9277820" lon="10.3118320">
	<ele>648.80</ele>
	<time>2025-04-29T05:38:27.000Z</time>
</trkpt>
<trkpt lat="45.9277850" lon="10.3118240">
	<ele>649.00</ele>
	<time>2025-04-29T05:38:28.000Z</time>
</trkpt>
<trkpt lat="45.9277800" lon="10.3118230">
	<ele>649.40</ele>
	<time>2025-04-29T05:38:29.000Z</time>
</trkpt>
<trkpt lat="45.9277770" lon="10.3118180">
	<ele>649.60</ele>
	<time>2025-04-29T05:38:30.000Z</time>
</trkpt>
<trkpt lat="45.9277720" lon="10.3118170">
	<ele>650.00</ele>
	<time>2025-04-29T05:38:31.000Z</time>
</trkpt>
<trkpt lat="45.9277640" lon="10.3118130">
	<ele>650.20</ele>
	<time>2025-04-29T05:38:32.000Z</time>
</trkpt>
<trkpt lat="45.9277590" lon="10.3118060">
	<ele>650.40</ele>
	<time>2025-04-29T05:38:33.000Z</time>
</trkpt>
<trkpt lat="45.9277560" lon="10.3117990">
	<ele>650.60</ele>
	<time>2025-04-29T05:38:34.000Z</time>
</trkpt>
<trkpt lat="45.9277520" lon="10.3117840">
	<ele>650.80</ele>
	<time>2025-04-29T05:38:35.000Z</time>
</trkpt>
<trkpt lat="45.9277460" lon="10.3117700">
	<ele>651.00</ele>
	<time>2025-04-29T05:38:36.000Z</time>
</trkpt>
<trkpt lat="45.9277380" lon="10.3117650">
	<ele>651.20</ele>
	<time>2025-04-29T05:38:37.000Z</time>
</trkpt>
<trkpt lat="45.9277330" lon="10.3117670">
	<ele>651.40</ele>
	<time>2025-04-29T05:38:38.000Z</time>
</trkpt>
<trkpt lat="45.9277190" lon="10.3117730">
	<ele>651.60</ele>
	<time>2025-04-29T05:38:39.000Z</time>
</trkpt>
<trkpt lat="45.9277070" lon="10.3117510">
	<ele>651.80</ele>
	<time>2025-04-29T05:38:40.000Z</time>
</trkpt>
<trkpt lat="45.9277000" lon="10.3117360">
	<ele>652.20</ele>
	<time>2025-04-29T05:38:41.000Z</time>
</trkpt>
<trkpt lat="45.9276970" lon="10.3117120">
	<ele>652.40</ele>
	<time>2025-04-29T05:38:42.000Z</time>
</trkpt>
<trkpt lat="45.9276890" lon="10.3116980">
	<ele>652.60</ele>
	<time>2025-04-29T05:38:43.000Z</time>
</trkpt>
<trkpt lat="45.9276830" lon="10.3116730">
	<ele>652.80</ele>
	<time>2025-04-29T05:38:44.000Z</time>
</trkpt>
<trkpt lat="45.9276700" lon="10.3116640">
	<ele>652.80</ele>
	<time>2025-04-29T05:38:45.000Z</time>
</trkpt>
<trkpt lat="45.9276610" lon="10.3116520">
	<ele>653.00</ele>
	<time>2025-04-29T05:38:46.000Z</time>
</trkpt>
<trkpt lat="45.9276530" lon="10.3116450">
	<ele>653.20</ele>
	<time>2025-04-29T05:38:47.000Z</time>
</trkpt>
<trkpt lat="45.9276430" lon="10.3116490">
	<ele>653.60</ele>
	<time>2025-04-29T05:38:48.000Z</time>
</trkpt>
<trkpt lat="45.9276380" lon="10.3116540">
	<ele>654.00</ele>
	<time>2025-04-29T05:38:49.000Z</time>
</trkpt>
<trkpt lat="45.9276270" lon="10.3116550">
	<ele>654.20</ele>
	<time>2025-04-29T05:38:50.000Z</time>
</trkpt>
<trkpt lat="45.9276150" lon="10.3116480">
	<ele>654.40</ele>
	<time>2025-04-29T05:38:51.000Z</time>
</trkpt>
<trkpt lat="45.9276020" lon="10.3116370">
	<ele>654.60</ele>
	<time>2025-04-29T05:38:52.000Z</time>
</trkpt>
<trkpt lat="45.9275940" lon="10.3116280">
	<ele>654.60</ele>
	<time>2025-04-29T05:38:53.000Z</time>
</trkpt>
<trkpt lat="45.9275900" lon="10.3116210">
	<ele>654.80</ele>
	<time>2025-04-29T05:38:54.000Z</time>
</trkpt>
<trkpt lat="45.9275850" lon="10.3116150">
	<ele>655.00</ele>
	<time>2025-04-29T05:38:55.000Z</time>
</trkpt>
<trkpt lat="45.9275770" lon="10.3116120">
	<ele>655.00</ele>
	<time>2025-04-29T05:38:56.000Z</time>
</trkpt>
<trkpt lat="45.9275670" lon="10.3116020">
	<ele>655.00</ele>
	<time>2025-04-29T05:38:57.000Z</time>
</trkpt>
<trkpt lat="45.9275560" lon="10.3115930">
	<ele>655.20</ele>
	<time>2025-04-29T05:38:58.000Z</time>
</trkpt>
<trkpt lat="45.9275470" lon="10.3115880">
	<ele>655.40</ele>
	<time>2025-04-29T05:38:59.000Z</time>
</trkpt>
<trkpt lat="45.9275350" lon="10.3115840">
	<ele>655.40</ele>
	<time>2025-04-29T05:39:00.000Z</time>
</trkpt>
<trkpt lat="45.9275280" lon="10.3115800">
	<ele>655.60</ele>
	<time>2025-04-29T05:39:01.000Z</time>
</trkpt>
<trkpt lat="45.9275210" lon="10.3115750">
	<ele>656.00</ele>
	<time>2025-04-29T05:39:02.000Z</time>
</trkpt>
<trkpt lat="45.9275130" lon="10.3115710">
	<ele>656.20</ele>
	<time>2025-04-29T05:39:03.000Z</time>
</trkpt>
<trkpt lat="45.9275060" lon="10.3115630">
	<ele>656.20</ele>
	<time>2025-04-29T05:39:04.000Z</time>
</trkpt>
<trkpt lat="45.9275010" lon="10.3115510">
	<ele>656.40</ele>
	<time>2025-04-29T05:39:05.000Z</time>
</trkpt>
<trkpt lat="45.9274990" lon="10.3115420">
	<ele>656.40</ele>
	<time>2025-04-29T05:39:06.000Z</time>
</trkpt>
<trkpt lat="45.9274980" lon="10.3115250">
	<ele>656.60</ele>
	<time>2025-04-29T05:39:07.000Z</time>
</trkpt>
<trkpt lat="45.9274910" lon="10.3115050">
	<ele>657.00</ele>
	<time>2025-04-29T05:39:08.000Z</time>
</trkpt>
<trkpt lat="45.9274800" lon="10.3114900">
	<ele>657.20</ele>
	<time>2025-04-29T05:39:09.000Z</time>
</trkpt>
<trkpt lat="45.9274670" lon="10.3114820">
	<ele>657.40</ele>
	<time>2025-04-29T05:39:10.000Z</time>
</trkpt>
<trkpt lat="45.9274610" lon="10.3114730">
	<ele>657.60</ele>
	<time>2025-04-29T05:39:11.000Z</time>
</trkpt>
<trkpt lat="45.9274550" lon="10.3114560">
	<ele>657.80</ele>
	<time>2025-04-29T05:39:12.000Z</time>
</trkpt>
<trkpt lat="45.9274460" lon="10.3114490">
	<ele>658.00</ele>
	<time>2025-04-29T05:39:13.000Z</time>
</trkpt>
<trkpt lat="45.9274320" lon="10.3114440">
	<ele>658.40</ele>
	<time>2025-04-29T05:39:14.000Z</time>
</trkpt>
<trkpt lat="45.9274220" lon="10.3114400">
	<ele>658.60</ele>
	<time>2025-04-29T05:39:15.000Z</time>
</trkpt>
<trkpt lat="45.9274180" lon="10.3114310">
	<ele>658.80</ele>
	<time>2025-04-29T05:39:16.000Z</time>
</trkpt>
<trkpt lat="45.9274110" lon="10.3114220">
	<ele>659.00</ele>
	<time>2025-04-29T05:39:17.000Z</time>
</trkpt>
<trkpt lat="45.9274080" lon="10.3114240">
	<ele>659.20</ele>
	<time>2025-04-29T05:39:18.000Z</time>
</trkpt>
<trkpt lat="45.9274050" lon="10.3114200">
	<ele>659.40</ele>
	<time>2025-04-29T05:39:19.000Z</time>
</trkpt>
<trkpt lat="45.9273900" lon="10.3114080">
	<ele>659.60</ele>
	<time>2025-04-29T05:39:20.000Z</time>
</trkpt>
<trkpt lat="45.9273810" lon="10.3113960">
	<ele>659.80</ele>
	<time>2025-04-29T05:39:21.000Z</time>
</trkpt>
<trkpt lat="45.9273730" lon="10.3113830">
	<ele>660.00</ele>
	<time>2025-04-29T05:39:22.000Z</time>
</trkpt>
<trkpt lat="45.9273580" lon="10.3113650">
	<ele>660.20</ele>
	<time>2025-04-29T05:39:23.000Z</time>
</trkpt>
<trkpt lat="45.9273410" lon="10.3113440">
	<ele>660.40</ele>
	<time>2025-04-29T05:39:24.000Z</time>
</trkpt>
<trkpt lat="45.9273000" lon="10.3113370">
	<ele>660.60</ele>
	<time>2025-04-29T05:39:25.000Z</time>
</trkpt>
<trkpt lat="45.9272520" lon="10.3113260">
	<ele>660.80</ele>
	<time>2025-04-29T05:39:26.000Z</time>
</trkpt>
<trkpt lat="45.9272280" lon="10.3113300">
	<ele>661.00</ele>
	<time>2025-04-29T05:39:27.000Z</time>
</trkpt>
<trkpt lat="45.9272200" lon="10.3113380">
	<ele>661.40</ele>
	<time>2025-04-29T05:39:28.000Z</time>
</trkpt>
<trkpt lat="45.9272300" lon="10.3113390">
	<ele>661.60</ele>
	<time>2025-04-29T05:39:29.000Z</time>
</trkpt>
<trkpt lat="45.9272320" lon="10.3113470">
	<ele>661.80</ele>
	<time>2025-04-29T05:39:30.000Z</time>
</trkpt>
<trkpt lat="45.9273650" lon="10.3113600">
	<ele>661.80</ele>
	<time>2025-04-29T05:39:31.000Z</time>
</trkpt>
<trkpt lat="45.9273670" lon="10.3113740">
	<ele>662.00</ele>
	<time>2025-04-29T05:39:32.000Z</time>
</trkpt>
<trkpt lat="45.9273810" lon="10.3113770">
	<ele>662.40</ele>
	<time>2025-04-29T05:39:33.000Z</time>
</trkpt>
<trkpt lat="45.9273580" lon="10.3113680">
	<ele>662.60</ele>
	<time>2025-04-29T05:39:34.000Z</time>
</trkpt>
<trkpt lat="45.9273600" lon="10.3113550">
	<ele>662.80</ele>
	<time>2025-04-29T05:39:35.000Z</time>
</trkpt>
<trkpt lat="45.9273520" lon="10.3113500">
	<ele>663.00</ele>
	<time>2025-04-29T05:39:36.000Z</time>
</trkpt>
<trkpt lat="45.9273430" lon="10.3113510">
	<ele>663.20</ele>
	<time>2025-04-29T05:39:37.000Z</time>
</trkpt>
<trkpt lat="45.9273160" lon="10.3113530">
	<ele>663.40</ele>
	<time>2025-04-29T05:39:38.000Z</time>
</trkpt>
<trkpt lat="45.9273200" lon="10.3113470">
	<ele>663.60</ele>
	<time>2025-04-29T05:39:39.000Z</time>
</trkpt>
<trkpt lat="45.9273130" lon="10.3113600">
	<ele>663.80</ele>
	<time>2025-04-29T05:39:40.000Z</time>
</trkpt>
<trkpt lat="45.9273090" lon="10.3113630">
	<ele>664.00</ele>
	<time>2025-04-29T05:39:41.000Z</time>
</trkpt>
<trkpt lat="45.9272860" lon="10.3113800">
	<ele>664.20</ele>
	<time>2025-04-29T05:39:42.000Z</time>
</trkpt>
<trkpt lat="45.9273130" lon="10.3113840">
	<ele>664.40</ele>
	<time>2025-04-29T05:39:43.000Z</time>
</trkpt>
<trkpt lat="45.9273160" lon="10.3113900">
	<ele>664.40</ele>
	<time>2025-04-29T05:39:44.000Z</time>
</trkpt>
<trkpt lat="45.9273070" lon="10.3113900">
	<ele>664.60</ele>
	<time>2025-04-29T05:39:45.000Z</time>
</trkpt>
<trkpt lat="45.9272910" lon="10.3113870">
	<ele>664.60</ele>
	<time>2025-04-29T05:39:46.000Z</time>
</trkpt>
<trkpt lat="45.9272570" lon="10.3113910">
	<ele>665.00</ele>
	<time>2025-04-29T05:39:47.000Z</time>
</trkpt>
<trkpt lat="45.9272190" lon="10.3113960">
	<ele>665.20</ele>
	<time>2025-04-29T05:39:48.000Z</time>
</trkpt>
<trkpt lat="45.9271820" lon="10.3113990">
	<ele>665.40</ele>
	<time>2025-04-29T05:39:49.000Z</time>
</trkpt>
<trkpt lat="45.9271630" lon="10.3113990">
	<ele>665.60</ele>
	<time>2025-04-29T05:39:50.000Z</time>
</trkpt>
<trkpt lat="45.9271260" lon="10.3114040">
	<ele>665.60</ele>
	<time>2025-04-29T05:39:51.000Z</time>
</trkpt>
<trkpt lat="45.9271070" lon="10.3114010">
	<ele>666.00</ele>
	<time>2025-04-29T05:39:52.000Z</time>
</trkpt>
<trkpt lat="45.9270730" lon="10.3114000">
	<ele>666.20</ele>
	<time>2025-04-29T05:39:53.000Z</time>
</trkpt>
<trkpt lat="45.9270650" lon="10.3113960">
	<ele>666.40</ele>
	<time>2025-04-29T05:39:54.000Z</time>
</trkpt>
<trkpt lat="45.9270600" lon="10.3113870">
	<ele>666.40</ele>
	<time>2025-04-29T05:39:55.000Z</time>
</trkpt>
<trkpt lat="45.9270480" lon="10.3113850">
	<ele>666.60</ele>
	<time>2025-04-29T05:39:56.000Z</time>
</trkpt>
<trkpt lat="45.9270480" lon="10.3113920">
	<ele>666.80</ele>
	<time>2025-04-29T05:39:57.000Z</time>
</trkpt>
<trkpt lat="45.9270190" lon="10.3114060">
	<ele>667.00</ele>
	<time>2025-04-29T05:39:58.000Z</time>
</trkpt>
<trkpt lat="45.9270220" lon="10.3113970">
	<ele>667.40</ele>
	<time>2025-04-29T05:39:59.000Z</time>
</trkpt>
<trkpt lat="45.9270110" lon="10.3113950">
	<ele>667.60</ele>
	<time>2025-04-29T05:40:00.000Z</time>
</trkpt>
<trkpt lat="45.9270190" lon="10.3113850">
	<ele>667.80</ele>
	<time>2025-04-29T05:40:01.000Z</time>
</trkpt>
<trkpt lat="45.9270320" lon="10.3113680">
	<ele>667.80</ele>
	<time>2025-04-29T05:40:02.000Z</time>
</trkpt>
<trkpt lat="45.9270320" lon="10.3113590">
	<ele>668.00</ele>
	<time>2025-04-29T05:40:03.000Z</time>
</trkpt>
<trkpt lat="45.9270270" lon="10.3113590">
	<ele>668.00</ele>
	<time>2025-04-29T05:40:04.000Z</time>
</trkpt>
<trkpt lat="45.9269990" lon="10.3113640">
	<ele>668.20</ele>
	<time>2025-04-29T05:40:05.000Z</time>
</trkpt>
<trkpt lat="45.9269690" lon="10.3113790">
	<ele>668.40</ele>
	<time>2025-04-29T05:40:06.000Z</time>
</trkpt>
<trkpt lat="45.9269420" lon="10.3113900">
	<ele>668.60</ele>
	<time>2025-04-29T05:40:07.000Z</time>
</trkpt>
<trkpt lat="45.9269210" lon="10.3114000">
	<ele>668.80</ele>
	<time>2025-04-29T05:40:08.000Z</time>
</trkpt>
<trkpt lat="45.9269110" lon="10.3114040">
	<ele>668.80</ele>
	<time>2025-04-29T05:40:09.000Z</time>
</trkpt>
<trkpt lat="45.9269140" lon="10.3114050">
	<ele>669.00</ele>
	<time>2025-04-29T05:40:10.000Z</time>
</trkpt>
<trkpt lat="45.9269120" lon="10.3114080">
	<ele>669.40</ele>
	<time>2025-04-29T05:40:11.000Z</time>
</trkpt>
<trkpt lat="45.9269100" lon="10.3114110">
	<ele>669.40</ele>
	<time>2025-04-29T05:40:12.000Z</time>
</trkpt>
<trkpt lat="45.9269050" lon="10.3114170">
	<ele>669.60</ele>
	<time>2025-04-29T05:40:13.000Z</time>
</trkpt>
<trkpt lat="45.9269000" lon="10.3114240">
	<ele>669.80</ele>
	<time>2025-04-29T05:40:14.000Z</time>
</trkpt>
<trkpt lat="45.9268990" lon="10.3114300">
	<ele>670.00</ele>
	<time>2025-04-29T05:40:15.000Z</time>
</trkpt>
<trkpt lat="45.9268910" lon="10.3114320">
	<ele>670.20</ele>
	<time>2025-04-29T05:40:16.000Z</time>
</trkpt>
<trkpt lat="45.9268810" lon="10.3114390">
	<ele>670.40</ele>
	<time>2025-04-29T05:40:17.000Z</time>
</trkpt>
<trkpt lat="45.9268710" lon="10.3114410">
	<ele>670.60</ele>
	<time>2025-04-29T05:40:18.000Z</time>
</trkpt>
<trkpt lat="45.9268560" lon="10.3114500">
	<ele>670.60</ele>
	<time>2025-04-29T05:40:19.000Z</time>
</trkpt>
<trkpt lat="45.9268460" lon="10.3114580">
	<ele>670.80</ele>
	<time>2025-04-29T05:40:20.000Z</time>
</trkpt>
<trkpt lat="45.9268430" lon="10.3114620">
	<ele>671.00</ele>
	<time>2025-04-29T05:40:21.000Z</time>
</trkpt>
<trkpt lat="45.9268370" lon="10.3114600">
	<ele>671.20</ele>
	<time>2025-04-29T05:40:22.000Z</time>
</trkpt>
<trkpt lat="45.9268200" lon="10.3114630">
	<ele>671.80</ele>
	<time>2025-04-29T05:40:23.000Z</time>
</trkpt>
<trkpt lat="45.9267970" lon="10.3114700">
	<ele>672.00</ele>
	<time>2025-04-29T05:40:24.000Z</time>
</trkpt>
<trkpt lat="45.9267770" lon="10.3114810">
	<ele>672.20</ele>
	<time>2025-04-29T05:40:25.000Z</time>
</trkpt>
<trkpt lat="45.9267580" lon="10.3114810">
	<ele>672.40</ele>
	<time>2025-04-29T05:40:26.000Z</time>
</trkpt>
<trkpt lat="45.9267510" lon="10.3114820">
	<ele>672.60</ele>
	<time>2025-04-29T05:40:27.000Z</time>
</trkpt>
<trkpt lat="45.9267400" lon="10.3114820">
	<ele>672.80</ele>
	<time>2025-04-29T05:40:28.000Z</time>
</trkpt>
<trkpt lat="45.9267350" lon="10.3114830">
	<ele>672.80</ele>
	<time>2025-04-29T05:40:29.000Z</time>
</trkpt>
<trkpt lat="45.9267250" lon="10.3114780">
	<ele>673.00</ele>
	<time>2025-04-29T05:40:30.000Z</time>
</trkpt>
<trkpt lat="45.9267160" lon="10.3114790">
	<ele>673.20</ele>
	<time>2025-04-29T05:40:31.000Z</time>
</trkpt>
<trkpt lat="45.9267060" lon="10.3114920">
	<ele>673.20</ele>
	<time>2025-04-29T05:40:32.000Z</time>
</trkpt>
<trkpt lat="45.9266750" lon="10.3114920">
	<ele>673.40</ele>
	<time>2025-04-29T05:40:33.000Z</time>
</trkpt>
<trkpt lat="45.9266570" lon="10.3114930">
	<ele>673.40</ele>
	<time>2025-04-29T05:40:34.000Z</time>
</trkpt>
<trkpt lat="45.9266310" lon="10.3114960">
	<ele>673.60</ele>
	<time>2025-04-29T05:40:35.000Z</time>
</trkpt>
<trkpt lat="45.9266190" lon="10.3115030">
	<ele>674.00</ele>
	<time>2025-04-29T05:40:36.000Z</time>
</trkpt>
<trkpt lat="45.9266210" lon="10.3115060">
	<ele>674.20</ele>
	<time>2025-04-29T05:40:37.000Z</time>
</trkpt>
<trkpt lat="45.9266140" lon="10.3115000">
	<ele>674.40</ele>
	<time>2025-04-29T05:40:38.000Z</time>
</trkpt>
<trkpt lat="45.9266090" lon="10.3114960">
	<ele>674.40</ele>
	<time>2025-04-29T05:40:39.000Z</time>
</trkpt>
<trkpt lat="45.9266010" lon="10.3114900">
	<ele>674.60</ele>
	<time>2025-04-29T05:40:40.000Z</time>
</trkpt>
<trkpt lat="45.9265920" lon="10.3114890">
	<ele>674.80</ele>
	<time>2025-04-29T05:40:41.000Z</time>
</trkpt>
<trkpt lat="45.9265800" lon="10.3114910">
	<ele>674.80</ele>
	<time>2025-04-29T05:40:42.000Z</time>
</trkpt>
<trkpt lat="45.9265640" lon="10.3114940">
	<ele>675.00</ele>
	<time>2025-04-29T05:40:43.000Z</time>
</trkpt>
<trkpt lat="45.9265530" lon="10.3114970">
	<ele>675.20</ele>
	<time>2025-04-29T05:40:44.000Z</time>
</trkpt>
<trkpt lat="45.9265470" lon="10.3115050">
	<ele>675.40</ele>
	<time>2025-04-29T05:40:45.000Z</time>
</trkpt>
<trkpt lat="45.9265450" lon="10.3115040">
	<ele>675.60</ele>
	<time>2025-04-29T05:40:46.000Z</time>
</trkpt>
<trkpt lat="45.9265400" lon="10.3114990">
	<ele>675.60</ele>
	<time>2025-04-29T05:40:47.000Z</time>
</trkpt>
<trkpt lat="45.9265380" lon="10.3115030">
	<ele>675.80</ele>
	<time>2025-04-29T05:40:48.000Z</time>
</trkpt>
<trkpt lat="45.9265350" lon="10.3115060">
	<ele>676.00</ele>
	<time>2025-04-29T05:40:49.000Z</time>
</trkpt>
<trkpt lat="45.9265280" lon="10.3115070">
	<ele>676.40</ele>
	<time>2025-04-29T05:40:50.000Z</time>
</trkpt>
<trkpt lat="45.9265160" lon="10.3115030">
	<ele>676.40</ele>
	<time>2025-04-29T05:40:51.000Z</time>
</trkpt>
<trkpt lat="45.9265010" lon="10.3114950">
	<ele>676.80</ele>
	<time>2025-04-29T05:40:52.000Z</time>
</trkpt>
<trkpt lat="45.9264880" lon="10.3114930">
	<ele>677.00</ele>
	<time>2025-04-29T05:40:53.000Z</time>
</trkpt>
<trkpt lat="45.9264730" lon="10.3114950">
	<ele>677.20</ele>
	<time>2025-04-29T05:40:54.000Z</time>
</trkpt>
<trkpt lat="45.9264610" lon="10.3114980">
	<ele>677.40</ele>
	<time>2025-04-29T05:40:55.000Z</time>
</trkpt>
<trkpt lat="45.9264450" lon="10.3114990">
	<ele>677.40</ele>
	<time>2025-04-29T05:40:56.000Z</time>
</trkpt>
<trkpt lat="45.9264330" lon="10.3114950">
	<ele>677.60</ele>
	<time>2025-04-29T05:40:57.000Z</time>
</trkpt>
<trkpt lat="45.9264260" lon="10.3114930">
	<ele>678.00</ele>
	<time>2025-04-29T05:40:58.000Z</time>
</trkpt>
<trkpt lat="45.9264100" lon="10.3114980">
	<ele>678.20</ele>
	<time>2025-04-29T05:40:59.000Z</time>
</trkpt>
<trkpt lat="45.9264050" lon="10.3114900">
	<ele>678.40</ele>
	<time>2025-04-29T05:41:00.000Z</time>
</trkpt>
<trkpt lat="45.9264020" lon="10.3114710">
	<ele>678.80</ele>
	<time>2025-04-29T05:41:01.000Z</time>
</trkpt>
<trkpt lat="45.9263930" lon="10.3114610">
	<ele>679.00</ele>
	<time>2025-04-29T05:41:02.000Z</time>
</trkpt>
<trkpt lat="45.9263840" lon="10.3114520">
	<ele>679.20</ele>
	<time>2025-04-29T05:41:03.000Z</time>
</trkpt>
<trkpt lat="45.9263710" lon="10.3114490">
	<ele>679.20</ele>
	<time>2025-04-29T05:41:04.000Z</time>
</trkpt>
<trkpt lat="45.9263610" lon="10.3114520">
	<ele>679.40</ele>
	<time>2025-04-29T05:41:05.000Z</time>
</trkpt>
<trkpt lat="45.9263550" lon="10.3114580">
	<ele>679.40</ele>
	<time>2025-04-29T05:41:06.000Z</time>
</trkpt>
<trkpt lat="45.9263390" lon="10.3114660">
	<ele>679.60</ele>
	<time>2025-04-29T05:41:07.000Z</time>
</trkpt>
<trkpt lat="45.9263310" lon="10.3114680">
	<ele>679.80</ele>
	<time>2025-04-29T05:41:08.000Z</time>
</trkpt>
<trkpt lat="45.9263370" lon="10.3114750">
	<ele>680.00</ele>
	<time>2025-04-29T05:41:09.000Z</time>
</trkpt>
<trkpt lat="45.9263310" lon="10.3114810">
	<ele>680.20</ele>
	<time>2025-04-29T05:41:10.000Z</time>
</trkpt>
<trkpt lat="45.9263090" lon="10.3114900">
	<ele>680.40</ele>
	<time>2025-04-29T05:41:11.000Z</time>
</trkpt>
<trkpt lat="45.9263010" lon="10.3114950">
	<ele>680.60</ele>
	<time>2025-04-29T05:41:12.000Z</time>
</trkpt>
<trkpt lat="45.9263000" lon="10.3114980">
	<ele>680.80</ele>
	<time>2025-04-29T05:41:13.000Z</time>
</trkpt>
<trkpt lat="45.9263090" lon="10.3114970">
	<ele>681.00</ele>
	<time>2025-04-29T05:41:14.000Z</time>
</trkpt>
<trkpt lat="45.9263110" lon="10.3115030">
	<ele>681.20</ele>
	<time>2025-04-29T05:41:15.000Z</time>
</trkpt>
<trkpt lat="45.9263110" lon="10.3115110">
	<ele>681.40</ele>
	<time>2025-04-29T05:41:16.000Z</time>
</trkpt>
<trkpt lat="45.9262950" lon="10.3115220">
	<ele>681.60</ele>
	<time>2025-04-29T05:41:17.000Z</time>
</trkpt>
<trkpt lat="45.9262880" lon="10.3115260">
	<ele>681.80</ele>
	<time>2025-04-29T05:41:18.000Z</time>
</trkpt>
<trkpt lat="45.9262820" lon="10.3115280">
	<ele>682.20</ele>
	<time>2025-04-29T05:41:19.000Z</time>
</trkpt>
<trkpt lat="45.9262720" lon="10.3115380">
	<ele>682.40</ele>
	<time>2025-04-29T05:41:20.000Z</time>
</trkpt>
<trkpt lat="45.9262460" lon="10.3115390">
	<ele>682.60</ele>
	<time>2025-04-29T05:41:21.000Z</time>
</trkpt>
<trkpt lat="45.9262280" lon="10.3115370">
	<ele>682.80</ele>
	<time>2025-04-29T05:41:22.000Z</time>
</trkpt>
<trkpt lat="45.9262080" lon="10.3115330">
	<ele>683.00</ele>
	<time>2025-04-29T05:41:23.000Z</time>
</trkpt>
<trkpt lat="45.9261960" lon="10.3115380">
	<ele>683.20</ele>
	<time>2025-04-29T05:41:24.000Z</time>
</trkpt>
<trkpt lat="45.9261840" lon="10.3115440">
	<ele>683.20</ele>
	<time>2025-04-29T05:41:25.000Z</time>
</trkpt>
<trkpt lat="45.9261640" lon="10.3115460">
	<ele>683.40</ele>
	<time>2025-04-29T05:41:26.000Z</time>
</trkpt>
<trkpt lat="45.9261470" lon="10.3115490">
	<ele>683.60</ele>
	<time>2025-04-29T05:41:27.000Z</time>
</trkpt>
<trkpt lat="45.9261290" lon="10.3115540">
	<ele>684.00</ele>
	<time>2025-04-29T05:41:28.000Z</time>
</trkpt>
<trkpt lat="45.9261130" lon="10.3115630">
	<ele>684.20</ele>
	<time>2025-04-29T05:41:29.000Z</time>
</trkpt>
<trkpt lat="45.9260940" lon="10.3115700">
	<ele>684.40</ele>
	<time>2025-04-29T05:41:30.000Z</time>
</trkpt>
<trkpt lat="45.9260810" lon="10.3115750">
	<ele>684.60</ele>
	<time>2025-04-29T05:41:31.000Z</time>
</trkpt>
<trkpt lat="45.9260710" lon="10.3115840">
	<ele>684.80</ele>
	<time>2025-04-29T05:41:32.000Z</time>
</trkpt>
<trkpt lat="45.9260550" lon="10.3115930">
	<ele>685.00</ele>
	<time>2025-04-29T05:41:33.000Z</time>
</trkpt>
<trkpt lat="45.9260450" lon="10.3115980">
	<ele>685.20</ele>
	<time>2025-04-29T05:41:34.000Z</time>
</trkpt>
<trkpt lat="45.9260410" lon="10.3116000">
	<ele>685.40</ele>
	<time>2025-04-29T05:41:35.000Z</time>
</trkpt>
<trkpt lat="45.9260310" lon="10.3116050">
	<ele>685.60</ele>
	<time>2025-04-29T05:41:36.000Z</time>
</trkpt>
<trkpt lat="45.9260140" lon="10.3116180">
	<ele>685.80</ele>
	<time>2025-04-29T05:41:37.000Z</time>
</trkpt>
<trkpt lat="45.9259980" lon="10.3116210">
	<ele>686.00</ele>
	<time>2025-04-29T05:41:38.000Z</time>
</trkpt>
<trkpt lat="45.9259850" lon="10.3116170">
	<ele>686.00</ele>
	<time>2025-04-29T05:41:39.000Z</time>
</trkpt>
<trkpt lat="45.9259750" lon="10.3116150">
	<ele>686.40</ele>
	<time>2025-04-29T05:41:40.000Z</time>
</trkpt>
<trkpt lat="45.9259630" lon="10.3116150">
	<ele>686.40</ele>
	<time>2025-04-29T05:41:41.000Z</time>
</trkpt>
<trkpt lat="45.9259530" lon="10.3116180">
	<ele>686.60</ele>
	<time>2025-04-29T05:41:42.000Z</time>
</trkpt>
<trkpt lat="45.9259510" lon="10.3116150">
	<ele>686.80</ele>
	<time>2025-04-29T05:41:43.000Z</time>
</trkpt>
<trkpt lat="45.9259420" lon="10.3116130">
	<ele>687.00</ele>
	<time>2025-04-29T05:41:44.000Z</time>
</trkpt>
<trkpt lat="45.9259360" lon="10.3116110">
	<ele>687.20</ele>
	<time>2025-04-29T05:41:45.000Z</time>
</trkpt>
<trkpt lat="45.9259260" lon="10.3116060">
	<ele>687.40</ele>
	<time>2025-04-29T05:41:46.000Z</time>
</trkpt>
<trkpt lat="45.9259160" lon="10.3116060">
	<ele>687.60</ele>
	<time>2025-04-29T05:41:47.000Z</time>
</trkpt>
<trkpt lat="45.9259030" lon="10.3116030">
	<ele>687.80</ele>
	<time>2025-04-29T05:41:48.000Z</time>
</trkpt>
<trkpt lat="45.9258950" lon="10.3115980">
	<ele>688.00</ele>
	<time>2025-04-29T05:41:49.000Z</time>
</trkpt>
<trkpt lat="45.9258900" lon="10.3115960">
	<ele>688.20</ele>
	<time>2025-04-29T05:41:50.000Z</time>
</trkpt>
<trkpt lat="45.9258830" lon="10.3115990">
	<ele>688.40</ele>
	<time>2025-04-29T05:41:51.000Z</time>
</trkpt>
<trkpt lat="45.9258760" lon="10.3115970">
	<ele>688.40</ele>
	<time>2025-04-29T05:41:52.000Z</time>
</trkpt>
<trkpt lat="45.9258690" lon="10.3115940">
	<ele>688.60</ele>
	<time>2025-04-29T05:41:53.000Z</time>
</trkpt>
<trkpt lat="45.9258590" lon="10.3115940">
	<ele>688.80</ele>
	<time>2025-04-29T05:41:54.000Z</time>
</trkpt>
<trkpt lat="45.9258520" lon="10.3115920">
	<ele>689.20</ele>
	<time>2025-04-29T05:41:55.000Z</time>
</trkpt>
<trkpt lat="45.9258470" lon="10.3115890">
	<ele>689.60</ele>
	<time>2025-04-29T05:41:56.000Z</time>
</trkpt>
<trkpt lat="45.9258420" lon="10.3115870">
	<ele>689.80</ele>
	<time>2025-04-29T05:41:57.000Z</time>
</trkpt>
<trkpt lat="45.9258380" lon="10.3115870">
	<ele>690.00</ele>
	<time>2025-04-29T05:41:58.000Z</time>
</trkpt>
<trkpt lat="45.9258310" lon="10.3115880">
	<ele>690.00</ele>
	<time>2025-04-29T05:41:59.000Z</time>
</trkpt>
<trkpt lat="45.9258240" lon="10.3115870">
	<ele>690.20</ele>
	<time>2025-04-29T05:42:00.000Z</time>
</trkpt>
<trkpt lat="45.9258140" lon="10.3115840">
	<ele>690.20</ele>
	<time>2025-04-29T05:42:01.000Z</time>
</trkpt>
<trkpt lat="45.9258070" lon="10.3115780">
	<ele>690.40</ele>
	<time>2025-04-29T05:42:02.000Z</time>
</trkpt>
<trkpt lat="45.9258000" lon="10.3115740">
	<ele>690.40</ele>
	<time>2025-04-29T05:42:03.000Z</time>
</trkpt>
<trkpt lat="45.9257920" lon="10.3115700">
	<ele>690.60</ele>
	<time>2025-04-29T05:42:04.000Z</time>
</trkpt>
<trkpt lat="45.9257820" lon="10.3115690">
	<ele>690.80</ele>
	<time>2025-04-29T05:42:05.000Z</time>
</trkpt>
<trkpt lat="45.9257740" lon="10.3115480">
	<ele>691.00</ele>
	<time>2025-04-29T05:42:06.000Z</time>
</trkpt>
<trkpt lat="45.9257670" lon="10.3115480">
	<ele>691.40</ele>
	<time>2025-04-29T05:42:07.000Z</time>
</trkpt>
<trkpt lat="45.9257610" lon="10.3115410">
	<ele>691.80</ele>
	<time>2025-04-29T05:42:08.000Z</time>
</trkpt>
<trkpt lat="45.9257540" lon="10.3115310">
	<ele>692.00</ele>
	<time>2025-04-29T05:42:09.000Z</time>
</trkpt>
<trkpt lat="45.9257410" lon="10.3115310">
	<ele>692.20</ele>
	<time>2025-04-29T05:42:10.000Z</time>
</trkpt>
<trkpt lat="45.9257230" lon="10.3115340">
	<ele>692.20</ele>
	<time>2025-04-29T05:42:11.000Z</time>
</trkpt>
<trkpt lat="45.9257050" lon="10.3115320">
	<ele>692.40</ele>
	<time>2025-04-29T05:42:12.000Z</time>
</trkpt>
<trkpt lat="45.9256930" lon="10.3115330">
	<ele>692.60</ele>
	<time>2025-04-29T05:42:13.000Z</time>
</trkpt>
<trkpt lat="45.9256870" lon="10.3115290">
	<ele>692.60</ele>
	<time>2025-04-29T05:42:14.000Z</time>
</trkpt>
<trkpt lat="45.9256700" lon="10.3115290">
	<ele>692.80</ele>
	<time>2025-04-29T05:42:15.000Z</time>
</trkpt>
<trkpt lat="45.9256580" lon="10.3115320">
	<ele>692.80</ele>
	<time>2025-04-29T05:42:16.000Z</time>
</trkpt>
<trkpt lat="45.9256440" lon="10.3115340">
	<ele>693.00</ele>
	<time>2025-04-29T05:42:17.000Z</time>
</trkpt>
<trkpt lat="45.9256340" lon="10.3115310">
	<ele>693.20</ele>
	<time>2025-04-29T05:42:18.000Z</time>
</trkpt>
<trkpt lat="45.9256270" lon="10.3115250">
	<ele>693.20</ele>
	<time>2025-04-29T05:42:19.000Z</time>
</trkpt>
<trkpt lat="45.9256210" lon="10.3115200">
	<ele>693.40</ele>
	<time>2025-04-29T05:42:20.000Z</time>
</trkpt>
<trkpt lat="45.9256040" lon="10.3115110">
	<ele>693.60</ele>
	<time>2025-04-29T05:42:21.000Z</time>
</trkpt>
<trkpt lat="45.9255830" lon="10.3115110">
	<ele>693.80</ele>
	<time>2025-04-29T05:42:22.000Z</time>
</trkpt>
<trkpt lat="45.9255650" lon="10.3115100">
	<ele>693.80</ele>
	<time>2025-04-29T05:42:23.000Z</time>
</trkpt>
<trkpt lat="45.9255590" lon="10.3115050">
	<ele>694.00</ele>
	<time>2025-04-29T05:42:24.000Z</time>
</trkpt>
<trkpt lat="45.9255600" lon="10.3114940">
	<ele>694.00</ele>
	<time>2025-04-29T05:42:25.000Z</time>
</trkpt>
<trkpt lat="45.9255550" lon="10.3114890">
	<ele>694.20</ele>
	<time>2025-04-29T05:42:26.000Z</time>
</trkpt>
<trkpt lat="45.9255520" lon="10.3114860">
	<ele>694.40</ele>
	<time>2025-04-29T05:42:27.000Z</time>
</trkpt>
<trkpt lat="45.9255560" lon="10.3114770">
	<ele>694.60</ele>
	<time>2025-04-29T05:42:28.000Z</time>
</trkpt>
<trkpt lat="45.9255550" lon="10.3114700">
	<ele>694.80</ele>
	<time>2025-04-29T05:42:29.000Z</time>
</trkpt>
<trkpt lat="45.9255490" lon="10.3114680">
	<ele>695.00</ele>
	<time>2025-04-29T05:42:30.000Z</time>
</trkpt>
<trkpt lat="45.9255370" lon="10.3114850">
	<ele>695.20</ele>
	<time>2025-04-29T05:42:31.000Z</time>
</trkpt>
<trkpt lat="45.9255140" lon="10.3114990">
	<ele>695.40</ele>
	<time>2025-04-29T05:42:32.000Z</time>
</trkpt>
<trkpt lat="45.9255020" lon="10.3114950">
	<ele>695.60</ele>
	<time>2025-04-29T05:42:33.000Z</time>
</trkpt>
<trkpt lat="45.9254890" lon="10.3114920">
	<ele>695.80</ele>
	<time>2025-04-29T05:42:34.000Z</time>
</trkpt>
<trkpt lat="45.9254820" lon="10.3114860">
	<ele>696.00</ele>
	<time>2025-04-29T05:42:35.000Z</time>
</trkpt>
<trkpt lat="45.9254840" lon="10.3114760">
	<ele>696.00</ele>
	<time>2025-04-29T05:42:36.000Z</time>
</trkpt>
<trkpt lat="45.9254800" lon="10.3114640">
	<ele>696.20</ele>
	<time>2025-04-29T05:42:37.000Z</time>
</trkpt>
<trkpt lat="45.9254720" lon="10.3114570">
	<ele>696.40</ele>
	<time>2025-04-29T05:42:38.000Z</time>
</trkpt>
<trkpt lat="45.9254650" lon="10.3114490">
	<ele>696.40</ele>
	<time>2025-04-29T05:42:39.000Z</time>
</trkpt>
<trkpt lat="45.9254580" lon="10.3114380">
	<ele>696.80</ele>
	<time>2025-04-29T05:42:40.000Z</time>
</trkpt>
<trkpt lat="45.9254470" lon="10.3114340">
	<ele>697.00</ele>
	<time>2025-04-29T05:42:41.000Z</time>
</trkpt>
<trkpt lat="45.9254390" lon="10.3114260">
	<ele>697.20</ele>
	<time>2025-04-29T05:42:42.000Z</time>
</trkpt>
<trkpt lat="45.9254270" lon="10.3114210">
	<ele>697.20</ele>
	<time>2025-04-29T05:42:43.000Z</time>
</trkpt>
<trkpt lat="45.9254150" lon="10.3114160">
	<ele>697.40</ele>
	<time>2025-04-29T05:42:44.000Z</time>
</trkpt>
<trkpt lat="45.9254060" lon="10.3114060">
	<ele>697.60</ele>
	<time>2025-04-29T05:42:45.000Z</time>
</trkpt>
<trkpt lat="45.9253930" lon="10.3113960">
	<ele>697.80</ele>
	<time>2025-04-29T05:42:46.000Z</time>
</trkpt>
<trkpt lat="45.9253830" lon="10.3113840">
	<ele>697.80</ele>
	<time>2025-04-29T05:42:47.000Z</time>
</trkpt>
<trkpt lat="45.9253710" lon="10.3113770">
	<ele>698.00</ele>
	<time>2025-04-29T05:42:48.000Z</time>
</trkpt>
<trkpt lat="45.9253630" lon="10.3113710">
	<ele>698.20</ele>
	<time>2025-04-29T05:42:49.000Z</time>
</trkpt>
<trkpt lat="45.9253540" lon="10.3113630">
	<ele>698.40</ele>
	<time>2025-04-29T05:42:50.000Z</time>
</trkpt>
<trkpt lat="45.9253420" lon="10.3113530">
	<ele>698.60</ele>
	<time>2025-04-29T05:42:51.000Z</time>
</trkpt>
<trkpt lat="45.9253350" lon="10.3113460">
	<ele>698.80</ele>
	<time>2025-04-29T05:42:52.000Z</time>
</trkpt>
<trkpt lat="45.9253240" lon="10.3113380">
	<ele>698.80</ele>
	<time>2025-04-29T05:42:53.000Z</time>
</trkpt>
<trkpt lat="45.9253170" lon="10.3113280">
	<ele>698.80</ele>
	<time>2025-04-29T05:42:54.000Z</time>
</trkpt>
<trkpt lat="45.9253130" lon="10.3113180">
	<ele>699.00</ele>
	<time>2025-04-29T05:42:55.000Z</time>
</trkpt>
<trkpt lat="45.9253040" lon="10.3113130">
	<ele>699.20</ele>
	<time>2025-04-29T05:42:56.000Z</time>
</trkpt>
<trkpt lat="45.9252980" lon="10.3113090">
	<ele>699.40</ele>
	<time>2025-04-29T05:42:57.000Z</time>
</trkpt>
<trkpt lat="45.9252890" lon="10.3113050">
	<ele>699.80</ele>
	<time>2025-04-29T05:42:58.000Z</time>
</trkpt>
<trkpt lat="45.9252770" lon="10.3113070">
	<ele>699.80</ele>
	<time>2025-04-29T05:42:59.000Z</time>
</trkpt>
<trkpt lat="45.9252640" lon="10.3113040">
	<ele>700.00</ele>
	<time>2025-04-29T05:43:00.000Z</time>
</trkpt>
<trkpt lat="45.9252570" lon="10.3112980">
	<ele>700.40</ele>
	<time>2025-04-29T05:43:01.000Z</time>
</trkpt>
<trkpt lat="45.9252560" lon="10.3112850">
	<ele>700.60</ele>
	<time>2025-04-29T05:43:02.000Z</time>
</trkpt>
<trkpt lat="45.9252500" lon="10.3112820">
	<ele>700.60</ele>
	<time>2025-04-29T05:43:03.000Z</time>
</trkpt>
<trkpt lat="45.9252470" lon="10.3112770">
	<ele>700.80</ele>
	<time>2025-04-29T05:43:04.000Z</time>
</trkpt>
<trkpt lat="45.9252420" lon="10.3112820">
	<ele>701.20</ele>
	<time>2025-04-29T05:43:05.000Z</time>
</trkpt>
<trkpt lat="45.9252440" lon="10.3112750">
	<ele>701.40</ele>
	<time>2025-04-29T05:43:06.000Z</time>
</trkpt>
<trkpt lat="45.9252460" lon="10.3112730">
	<ele>701.60</ele>
	<time>2025-04-29T05:43:07.000Z</time>
</trkpt>
<trkpt lat="45.9252470" lon="10.3112710">
	<ele>701.60</ele>
	<time>2025-04-29T05:43:08.000Z</time>
</trkpt>
<trkpt lat="45.9252480" lon="10.3112700">
	<ele>701.60</ele>
	<time>2025-04-29T05:43:09.000Z</time>
</trkpt>
<trkpt lat="45.9252480" lon="10.3112700">
	<ele>701.80</ele>
	<time>2025-04-29T05:43:10.000Z</time>
</trkpt>
<trkpt lat="45.9252500" lon="10.3112680">
	<ele>701.80</ele>
	<time>2025-04-29T05:43:11.000Z</time>
</trkpt>
<trkpt lat="45.9252500" lon="10.3112660">
	<ele>701.80</ele>
	<time>2025-04-29T05:43:12.000Z</time>
</trkpt>
<trkpt lat="45.9252430" lon="10.3112670">
	<ele>701.60</ele>
	<time>2025-04-29T05:43:13.000Z</time>
</trkpt>
<trkpt lat="45.9252350" lon="10.3112680">
	<ele>701.80</ele>
	<time>2025-04-29T05:43:14.000Z</time>
</trkpt>
<trkpt lat="45.9252310" lon="10.3112660">
	<ele>701.80</ele>
	<time>2025-04-29T05:43:15.000Z</time>
</trkpt>
<trkpt lat="45.9252300" lon="10.3112660">
	<ele>701.80</ele>
	<time>2025-04-29T05:43:16.000Z</time>
</trkpt>
<trkpt lat="45.9252340" lon="10.3112640">
	<ele>702.00</ele>
	<time>2025-04-29T05:43:17.000Z</time>
</trkpt>
<trkpt lat="45.9252330" lon="10.3112610">
	<ele>702.00</ele>
	<time>2025-04-29T05:43:18.000Z</time>
</trkpt>
<trkpt lat="45.9252270" lon="10.3112570">
	<ele>702.20</ele>
	<time>2025-04-29T05:43:19.000Z</time>
</trkpt>
<trkpt lat="45.9252220" lon="10.3112460">
	<ele>702.20</ele>
	<time>2025-04-29T05:43:20.000Z</time>
</trkpt>
<trkpt lat="45.9252120" lon="10.3112440">
	<ele>702.40</ele>
	<time>2025-04-29T05:43:21.000Z</time>
</trkpt>
<trkpt lat="45.9252070" lon="10.3112320">
	<ele>702.60</ele>
	<time>2025-04-29T05:43:22.000Z</time>
</trkpt>
<trkpt lat="45.9251980" lon="10.3112320">
	<ele>702.60</ele>
	<time>2025-04-29T05:43:23.000Z</time>
</trkpt>
<trkpt lat="45.9251870" lon="10.3112290">
	<ele>702.80</ele>
	<time>2025-04-29T05:43:24.000Z</time>
</trkpt>
<trkpt lat="45.9251780" lon="10.3112260">
	<ele>702.80</ele>
	<time>2025-04-29T05:43:25.000Z</time>
</trkpt>
<trkpt lat="45.9251690" lon="10.3112210">
	<ele>703.00</ele>
	<time>2025-04-29T05:43:26.000Z</time>
</trkpt>
<trkpt lat="45.9251650" lon="10.3112150">
	<ele>703.20</ele>
	<time>2025-04-29T05:43:27.000Z</time>
</trkpt>
<trkpt lat="45.9251650" lon="10.3112110">
	<ele>703.40</ele>
	<time>2025-04-29T05:43:28.000Z</time>
</trkpt>
<trkpt lat="45.9251660" lon="10.3112090">
	<ele>703.80</ele>
	<time>2025-04-29T05:43:29.000Z</time>
</trkpt>
<trkpt lat="45.9251650" lon="10.3112100">
	<ele>704.00</ele>
	<time>2025-04-29T05:43:30.000Z</time>
</trkpt>
<trkpt lat="45.9251650" lon="10.3112100">
	<ele>704.00</ele>
	<time>2025-04-29T05:43:31.000Z</time>
</trkpt>
<trkpt lat="45.9251640" lon="10.3112100">
	<ele>704.20</ele>
	<time>2025-04-29T05:43:32.000Z</time>
</trkpt>
<trkpt lat="45.9251600" lon="10.3112070">
	<ele>704.20</ele>
	<time>2025-04-29T05:43:33.000Z</time>
</trkpt>
<trkpt lat="45.9251570" lon="10.3112050">
	<ele>704.20</ele>
	<time>2025-04-29T05:43:34.000Z</time>
</trkpt>
<trkpt lat="45.9251510" lon="10.3112050">
	<ele>704.20</ele>
	<time>2025-04-29T05:43:35.000Z</time>
</trkpt>
<trkpt lat="45.9251440" lon="10.3112020">
	<ele>704.20</ele>
	<time>2025-04-29T05:43:36.000Z</time>
</trkpt>
<trkpt lat="45.9251440" lon="10.3111970">
	<ele>704.20</ele>
	<time>2025-04-29T05:43:37.000Z</time>
</trkpt>
<trkpt lat="45.9251450" lon="10.3111950">
	<ele>704.20</ele>
	<time>2025-04-29T05:43:38.000Z</time>
</trkpt>
<trkpt lat="45.9251370" lon="10.3111990">
	<ele>704.40</ele>
	<time>2025-04-29T05:43:39.000Z</time>
</trkpt>
<trkpt lat="45.9251340" lon="10.3111970">
	<ele>704.60</ele>
	<time>2025-04-29T05:43:40.000Z</time>
</trkpt>
<trkpt lat="45.9251270" lon="10.3111980">
	<ele>704.60</ele>
	<time>2025-04-29T05:43:41.000Z</time>
</trkpt>
<trkpt lat="45.9251240" lon="10.3112030">
	<ele>704.80</ele>
	<time>2025-04-29T05:43:42.000Z</time>
</trkpt>
<trkpt lat="45.9251170" lon="10.3112040">
	<ele>705.00</ele>
	<time>2025-04-29T05:43:43.000Z</time>
</trkpt>
<trkpt lat="45.9251010" lon="10.3112100">
	<ele>705.00</ele>
	<time>2025-04-29T05:43:44.000Z</time>
</trkpt>
<trkpt lat="45.9250870" lon="10.3112140">
	<ele>705.20</ele>
	<time>2025-04-29T05:43:45.000Z</time>
</trkpt>
<trkpt lat="45.9250720" lon="10.3112170">
	<ele>705.20</ele>
	<time>2025-04-29T05:43:46.000Z</time>
</trkpt>
<trkpt lat="45.9250610" lon="10.3112200">
	<ele>705.20</ele>
	<time>2025-04-29T05:43:47.000Z</time>
</trkpt>
<trkpt lat="45.9250540" lon="10.3112150">
	<ele>705.40</ele>
	<time>2025-04-29T05:43:48.000Z</time>
</trkpt>
<trkpt lat="45.9250430" lon="10.3112100">
	<ele>705.60</ele>
	<time>2025-04-29T05:43:49.000Z</time>
</trkpt>
<trkpt lat="45.9250340" lon="10.3111980">
	<ele>705.80</ele>
	<time>2025-04-29T05:43:50.000Z</time>
</trkpt>
<trkpt lat="45.9250260" lon="10.3111960">
	<ele>705.80</ele>
	<time>2025-04-29T05:43:51.000Z</time>
</trkpt>
<trkpt lat="45.9250200" lon="10.3112030">
	<ele>706.00</ele>
	<time>2025-04-29T05:43:52.000Z</time>
</trkpt>
<trkpt lat="45.9250130" lon="10.3112200">
	<ele>706.20</ele>
	<time>2025-04-29T05:43:53.000Z</time>
</trkpt>
<trkpt lat="45.9250040" lon="10.3112430">
	<ele>706.20</ele>
	<time>2025-04-29T05:43:54.000Z</time>
</trkpt>
<trkpt lat="45.9249850" lon="10.3112660">
	<ele>706.40</ele>
	<time>2025-04-29T05:43:55.000Z</time>
</trkpt>
<trkpt lat="45.9250000" lon="10.3112660">
	<ele>706.60</ele>
	<time>2025-04-29T05:43:56.000Z</time>
</trkpt>
<trkpt lat="45.9249940" lon="10.3112750">
	<ele>706.60</ele>
	<time>2025-04-29T05:43:57.000Z</time>
</trkpt>
<trkpt lat="45.9249840" lon="10.3112790">
	<ele>706.80</ele>
	<time>2025-04-29T05:43:58.000Z</time>
</trkpt>
<trkpt lat="45.9249730" lon="10.3112860">
	<ele>707.20</ele>
	<time>2025-04-29T05:43:59.000Z</time>
</trkpt>
<trkpt lat="45.9249600" lon="10.3112950">
	<ele>707.40</ele>
	<time>2025-04-29T05:44:00.000Z</time>
</trkpt>
<trkpt lat="45.9249470" lon="10.3113060">
	<ele>707.40</ele>
	<time>2025-04-29T05:44:01.000Z</time>
</trkpt>
<trkpt lat="45.9249460" lon="10.3113140">
	<ele>707.60</ele>
	<time>2025-04-29T05:44:02.000Z</time>
</trkpt>
<trkpt lat="45.9249540" lon="10.3113120">
	<ele>707.80</ele>
	<time>2025-04-29T05:44:03.000Z</time>
</trkpt>
<trkpt lat="45.9249690" lon="10.3113160">
	<ele>708.00</ele>
	<time>2025-04-29T05:44:04.000Z</time>
</trkpt>
<trkpt lat="45.9249770" lon="10.3113170">
	<ele>708.20</ele>
	<time>2025-04-29T05:44:05.000Z</time>
</trkpt>
<trkpt lat="45.9249860" lon="10.3113200">
	<ele>708.60</ele>
	<time>2025-04-29T05:44:06.000Z</time>
</trkpt>
<trkpt lat="45.9249960" lon="10.3113250">
	<ele>709.00</ele>
	<time>2025-04-29T05:44:07.000Z</time>
</trkpt>
<trkpt lat="45.9250050" lon="10.3113330">
	<ele>709.00</ele>
	<time>2025-04-29T05:44:08.000Z</time>
</trkpt>
<trkpt lat="45.9250180" lon="10.3113370">
	<ele>709.20</ele>
	<time>2025-04-29T05:44:09.000Z</time>
</trkpt>
<trkpt lat="45.9250180" lon="10.3113420">
	<ele>709.40</ele>
	<time>2025-04-29T05:44:10.000Z</time>
</trkpt>
<trkpt lat="45.9250270" lon="10.3113440">
	<ele>709.40</ele>
	<time>2025-04-29T05:44:11.000Z</time>
</trkpt>
<trkpt lat="45.9250130" lon="10.3113510">
	<ele>709.60</ele>
	<time>2025-04-29T05:44:12.000Z</time>
</trkpt>
<trkpt lat="45.9249800" lon="10.3113670">
	<ele>709.80</ele>
	<time>2025-04-29T05:44:13.000Z</time>
</trkpt>
<trkpt lat="45.9249260" lon="10.3113880">
	<ele>709.80</ele>
	<time>2025-04-29T05:44:14.000Z</time>
</trkpt>
<trkpt lat="45.9248790" lon="10.3114040">
	<ele>710.00</ele>
	<time>2025-04-29T05:44:15.000Z</time>
</trkpt>
<trkpt lat="45.9248260" lon="10.3114240">
	<ele>710.20</ele>
	<time>2025-04-29T05:44:16.000Z</time>
</trkpt>
<trkpt lat="45.9247930" lon="10.3114320">
	<ele>710.40</ele>
	<time>2025-04-29T05:44:17.000Z</time>
</trkpt>
<trkpt lat="45.9247660" lon="10.3114380">
	<ele>710.40</ele>
	<time>2025-04-29T05:44:18.000Z</time>
</trkpt>
<trkpt lat="45.9247400" lon="10.3114440">
	<ele>710.60</ele>
	<time>2025-04-29T05:44:19.000Z</time>
</trkpt>
<trkpt lat="45.9247280" lon="10.3114490">
	<ele>711.00</ele>
	<time>2025-04-29T05:44:20.000Z</time>
</trkpt>
<trkpt lat="45.9247270" lon="10.3114560">
	<ele>711.00</ele>
	<time>2025-04-29T05:44:21.000Z</time>
</trkpt>
<trkpt lat="45.9247280" lon="10.3114630">
	<ele>711.20</ele>
	<time>2025-04-29T05:44:22.000Z</time>
</trkpt>
<trkpt lat="45.9247240" lon="10.3114640">
	<ele>711.40</ele>
	<time>2025-04-29T05:44:23.000Z</time>
</trkpt>
<trkpt lat="45.9247200" lon="10.3114690">
	<ele>711.60</ele>
	<time>2025-04-29T05:44:24.000Z</time>
</trkpt>
<trkpt lat="45.9247230" lon="10.3114730">
	<ele>711.60</ele>
	<time>2025-04-29T05:44:25.000Z</time>
</trkpt>
<trkpt lat="45.9247120" lon="10.3114800">
	<ele>711.80</ele>
	<time>2025-04-29T05:44:26.000Z</time>
</trkpt>
<trkpt lat="45.9247150" lon="10.3114860">
	<ele>712.00</ele>
	<time>2025-04-29T05:44:27.000Z</time>
</trkpt>
<trkpt lat="45.9247190" lon="10.3115000">
	<ele>712.20</ele>
	<time>2025-04-29T05:44:28.000Z</time>
</trkpt>
<trkpt lat="45.9247140" lon="10.3115120">
	<ele>712.60</ele>
	<time>2025-04-29T05:44:29.000Z</time>
</trkpt>
<trkpt lat="45.9247110" lon="10.3115210">
	<ele>712.80</ele>
	<time>2025-04-29T05:44:30.000Z</time>
</trkpt>
<trkpt lat="45.9247020" lon="10.3115260">
	<ele>713.00</ele>
	<time>2025-04-29T05:44:31.000Z</time>
</trkpt>
<trkpt lat="45.9246990" lon="10.3115350">
	<ele>713.20</ele>
	<time>2025-04-29T05:44:32.000Z</time>
</trkpt>
<trkpt lat="45.9246950" lon="10.3115390">
	<ele>713.40</ele>
	<time>2025-04-29T05:44:33.000Z</time>
</trkpt>
<trkpt lat="45.9246920" lon="10.3115460">
	<ele>713.60</ele>
	<time>2025-04-29T05:44:34.000Z</time>
</trkpt>
<trkpt lat="45.9246930" lon="10.3115540">
	<ele>713.80</ele>
	<time>2025-04-29T05:44:35.000Z</time>
</trkpt>
<trkpt lat="45.9246950" lon="10.3115660">
	<ele>714.00</ele>
	<time>2025-04-29T05:44:36.000Z</time>
</trkpt>
<trkpt lat="45.9247010" lon="10.3115840">
	<ele>714.00</ele>
	<time>2025-04-29T05:44:37.000Z</time>
</trkpt>
<trkpt lat="45.9247050" lon="10.3116000">
	<ele>714.20</ele>
	<time>2025-04-29T05:44:38.000Z</time>
</trkpt>
<trkpt lat="45.9247070" lon="10.3116100">
	<ele>714.40</ele>
	<time>2025-04-29T05:44:39.000Z</time>
</trkpt>
<trkpt lat="45.9247070" lon="10.3116140">
	<ele>714.60</ele>
	<time>2025-04-29T05:44:40.000Z</time>
</trkpt>
<trkpt lat="45.9247060" lon="10.3116160">
	<ele>715.00</ele>
	<time>2025-04-29T05:44:41.000Z</time>
</trkpt>
<trkpt lat="45.9247060" lon="10.3116200">
	<ele>715.20</ele>
	<time>2025-04-29T05:44:42.000Z</time>
</trkpt>
<trkpt lat="45.9247060" lon="10.3116170">
	<ele>715.40</ele>
	<time>2025-04-29T05:44:43.000Z</time>
</trkpt>
<trkpt lat="45.9247070" lon="10.3116190">
	<ele>715.60</ele>
	<time>2025-04-29T05:44:44.000Z</time>
</trkpt>
<trkpt lat="45.9247080" lon="10.3116200">
	<ele>715.80</ele>
	<time>2025-04-29T05:44:45.000Z</time>
</trkpt>
<trkpt lat="45.9247130" lon="10.3116220">
	<ele>716.00</ele>
	<time>2025-04-29T05:44:46.000Z</time>
</trkpt>
<trkpt lat="45.9247150" lon="10.3116260">
	<ele>716.00</ele>
	<time>2025-04-29T05:44:47.000Z</time>
</trkpt>
<trkpt lat="45.9247160" lon="10.3116410">
	<ele>716.20</ele>
	<time>2025-04-29T05:44:48.000Z</time>
</trkpt>
<trkpt lat="45.9247150" lon="10.3116460">
	<ele>716.40</ele>
	<time>2025-04-29T05:44:49.000Z</time>
</trkpt>
<trkpt lat="45.9247130" lon="10.3116510">
	<ele>716.60</ele>
	<time>2025-04-29T05:44:50.000Z</time>
</trkpt>
<trkpt lat="45.9247060" lon="10.3116710">
	<ele>716.80</ele>
	<time>2025-04-29T05:44:51.000Z</time>
</trkpt>
<trkpt lat="45.9247040" lon="10.3116760">
	<ele>717.00</ele>
	<time>2025-04-29T05:44:52.000Z</time>
</trkpt>
<trkpt lat="45.9247030" lon="10.3116780">
	<ele>717.20</ele>
	<time>2025-04-29T05:44:53.000Z</time>
</trkpt>
<trkpt lat="45.9246950" lon="10.3116900">
	<ele>717.40</ele>
	<time>2025-04-29T05:44:54.000Z</time>
</trkpt>
<trkpt lat="45.9246940" lon="10.3116930">
	<ele>717.60</ele>
	<time>2025-04-29T05:44:55.000Z</time>
</trkpt>
<trkpt lat="45.9246930" lon="10.3116960">
	<ele>718.00</ele>
	<time>2025-04-29T05:44:56.000Z</time>
</trkpt>
<trkpt lat="45.9246940" lon="10.3117010">
	<ele>718.40</ele>
	<time>2025-04-29T05:44:57.000Z</time>
</trkpt>
<trkpt lat="45.9246940" lon="10.3117040">
	<ele>718.60</ele>
	<time>2025-04-29T05:44:58.000Z</time>
</trkpt>
<trkpt lat="45.9246930" lon="10.3117060">
	<ele>718.60</ele>
	<time>2025-04-29T05:44:59.000Z</time>
</trkpt>
<trkpt lat="45.9246840" lon="10.3117180">
	<ele>718.80</ele>
	<time>2025-04-29T05:45:00.000Z</time>
</trkpt>
<trkpt lat="45.9246830" lon="10.3117350">
	<ele>718.80</ele>
	<time>2025-04-29T05:45:01.000Z</time>
</trkpt>
<trkpt lat="45.9246760" lon="10.3117510">
	<ele>719.00</ele>
	<time>2025-04-29T05:45:02.000Z</time>
</trkpt>
<trkpt lat="45.9246690" lon="10.3117590">
	<ele>719.20</ele>
	<time>2025-04-29T05:45:03.000Z</time>
</trkpt>
<trkpt lat="45.9246580" lon="10.3117750">
	<ele>719.20</ele>
	<time>2025-04-29T05:45:04.000Z</time>
</trkpt>
<trkpt lat="45.9246470" lon="10.3117920">
	<ele>719.40</ele>
	<time>2025-04-29T05:45:05.000Z</time>
</trkpt>
<trkpt lat="45.9246380" lon="10.3118050">
	<ele>719.40</ele>
	<time>2025-04-29T05:45:06.000Z</time>
</trkpt>
<trkpt lat="45.9246240" lon="10.3118140">
	<ele>719.60</ele>
	<time>2025-04-29T05:45:07.000Z</time>
</trkpt>
<trkpt lat="45.9246120" lon="10.3118200">
	<ele>719.80</ele>
	<time>2025-04-29T05:45:08.000Z</time>
</trkpt>
<trkpt lat="45.9246030" lon="10.3118230">
	<ele>719.80</ele>
	<time>2025-04-29T05:45:09.000Z</time>
</trkpt>
<trkpt lat="45.9246020" lon="10.3118250">
	<ele>720.00</ele>
	<time>2025-04-29T05:45:10.000Z</time>
</trkpt>
<trkpt lat="45.9245950" lon="10.3118360">
	<ele>720.20</ele>
	<time>2025-04-29T05:45:11.000Z</time>
</trkpt>
<trkpt lat="45.9245890" lon="10.3118530">
	<ele>720.40</ele>
	<time>2025-04-29T05:45:12.000Z</time>
</trkpt>
<trkpt lat="45.9245810" lon="10.3118630">
	<ele>720.60</ele>
	<time>2025-04-29T05:45:13.000Z</time>
</trkpt>
<trkpt lat="45.9245720" lon="10.3118830">
	<ele>720.80</ele>
	<time>2025-04-29T05:45:14.000Z</time>
</trkpt>
<trkpt lat="45.9245650" lon="10.3118880">
	<ele>721.00</ele>
	<time>2025-04-29T05:45:15.000Z</time>
</trkpt>
<trkpt lat="45.9245510" lon="10.3118930">
	<ele>721.00</ele>
	<time>2025-04-29T05:45:16.000Z</time>
</trkpt>
<trkpt lat="45.9245460" lon="10.3119010">
	<ele>721.00</ele>
	<time>2025-04-29T05:45:17.000Z</time>
</trkpt>
<trkpt lat="45.9245400" lon="10.3119110">
	<ele>721.40</ele>
	<time>2025-04-29T05:45:18.000Z</time>
</trkpt>
<trkpt lat="45.9245320" lon="10.3119220">
	<ele>721.40</ele>
	<time>2025-04-29T05:45:19.000Z</time>
</trkpt>
<trkpt lat="45.9245290" lon="10.3119360">
	<ele>721.60</ele>
	<time>2025-04-29T05:45:20.000Z</time>
</trkpt>
<trkpt lat="45.9245260" lon="10.3119450">
	<ele>721.80</ele>
	<time>2025-04-29T05:45:21.000Z</time>
</trkpt>
<trkpt lat="45.9245160" lon="10.3119520">
	<ele>721.80</ele>
	<time>2025-04-29T05:45:22.000Z</time>
</trkpt>
<trkpt lat="45.9244790" lon="10.3119690">
	<ele>722.00</ele>
	<time>2025-04-29T05:45:23.000Z</time>
</trkpt>
<trkpt lat="45.9244440" lon="10.3119800">
	<ele>722.20</ele>
	<time>2025-04-29T05:45:24.000Z</time>
</trkpt>
<trkpt lat="45.9244240" lon="10.3119940">
	<ele>722.40</ele>
	<time>2025-04-29T05:45:25.000Z</time>
</trkpt>
<trkpt lat="45.9244130" lon="10.3120360">
	<ele>722.60</ele>
	<time>2025-04-29T05:45:26.000Z</time>
</trkpt>
<trkpt lat="45.9244170" lon="10.3120650">
	<ele>722.80</ele>
	<time>2025-04-29T05:45:27.000Z</time>
</trkpt>
<trkpt lat="45.9244150" lon="10.3120750">
	<ele>723.00</ele>
	<time>2025-04-29T05:45:28.000Z</time>
</trkpt>
<trkpt lat="45.9244070" lon="10.3120780">
	<ele>723.20</ele>
	<time>2025-04-29T05:45:29.000Z</time>
</trkpt>
<trkpt lat="45.9244030" lon="10.3120820">
	<ele>723.20</ele>
	<time>2025-04-29T05:45:30.000Z</time>
</trkpt>
<trkpt lat="45.9244040" lon="10.3120910">
	<ele>723.40</ele>
	<time>2025-04-29T05:45:31.000Z</time>
</trkpt>
<trkpt lat="45.9244000" lon="10.3120960">
	<ele>723.60</ele>
	<time>2025-04-29T05:45:32.000Z</time>
</trkpt>
<trkpt lat="45.9244030" lon="10.3121070">
	<ele>723.80</ele>
	<time>2025-04-29T05:45:33.000Z</time>
</trkpt>
<trkpt lat="45.9244050" lon="10.3121170">
	<ele>723.80</ele>
	<time>2025-04-29T05:45:34.000Z</time>
</trkpt>
<trkpt lat="45.9243990" lon="10.3121280">
	<ele>724.00</ele>
	<time>2025-04-29T05:45:35.000Z</time>
</trkpt>
<trkpt lat="45.9243930" lon="10.3121310">
	<ele>724.20</ele>
	<time>2025-04-29T05:45:36.000Z</time>
</trkpt>
<trkpt lat="45.9243770" lon="10.3121350">
	<ele>724.20</ele>
	<time>2025-04-29T05:45:37.000Z</time>
</trkpt>
<trkpt lat="45.9243660" lon="10.3121380">
	<ele>724.60</ele>
	<time>2025-04-29T05:45:38.000Z</time>
</trkpt>
<trkpt lat="45.9243580" lon="10.3121610">
	<ele>724.60</ele>
	<time>2025-04-29T05:45:39.000Z</time>
</trkpt>
<trkpt lat="45.9243630" lon="10.3121790">
	<ele>725.00</ele>
	<time>2025-04-29T05:45:40.000Z</time>
</trkpt>
<trkpt lat="45.9243600" lon="10.3121820">
	<ele>725.00</ele>
	<time>2025-04-29T05:45:41.000Z</time>
</trkpt>
<trkpt lat="45.9243580" lon="10.3121820">
	<ele>725.20</ele>
	<time>2025-04-29T05:45:42.000Z</time>
</trkpt>
<trkpt lat="45.9243560" lon="10.3121810">
	<ele>725.40</ele>
	<time>2025-04-29T05:45:43.000Z</time>
</trkpt>
<trkpt lat="45.9243490" lon="10.3121910">
	<ele>725.40</ele>
	<time>2025-04-29T05:45:44.000Z</time>
</trkpt>
<trkpt lat="45.9243420" lon="10.3122070">
	<ele>725.60</ele>
	<time>2025-04-29T05:45:45.000Z</time>
</trkpt>
<trkpt lat="45.9243200" lon="10.3122360">
	<ele>725.80</ele>
	<time>2025-04-29T05:45:46.000Z</time>
</trkpt>
<trkpt lat="45.9242990" lon="10.3122570">
	<ele>725.80</ele>
	<time>2025-04-29T05:45:47.000Z</time>
</trkpt>
<trkpt lat="45.9242950" lon="10.3122630">
	<ele>726.20</ele>
	<time>2025-04-29T05:45:48.000Z</time>
</trkpt>
<trkpt lat="45.9242960" lon="10.3122640">
	<ele>726.40</ele>
	<time>2025-04-29T05:45:49.000Z</time>
</trkpt>
<trkpt lat="45.9243000" lon="10.3122730">
	<ele>726.40</ele>
	<time>2025-04-29T05:45:50.000Z</time>
</trkpt>
<trkpt lat="45.9243030" lon="10.3122920">
	<ele>726.60</ele>
	<time>2025-04-29T05:45:51.000Z</time>
</trkpt>
<trkpt lat="45.9243020" lon="10.3122990">
	<ele>726.80</ele>
	<time>2025-04-29T05:45:52.000Z</time>
</trkpt>
<trkpt lat="45.9242990" lon="10.3123060">
	<ele>727.00</ele>
	<time>2025-04-29T05:45:53.000Z</time>
</trkpt>
<trkpt lat="45.9242990" lon="10.3123090">
	<ele>727.00</ele>
	<time>2025-04-29T05:45:54.000Z</time>
</trkpt>
<trkpt lat="45.9242960" lon="10.3123120">
	<ele>727.00</ele>
	<time>2025-04-29T05:45:55.000Z</time>
</trkpt>
<trkpt lat="45.9242940" lon="10.3123100">
	<ele>727.20</ele>
	<time>2025-04-29T05:45:56.000Z</time>
</trkpt>
<trkpt lat="45.9242900" lon="10.3123150">
	<ele>727.40</ele>
	<time>2025-04-29T05:45:57.000Z</time>
</trkpt>
<trkpt lat="45.9242840" lon="10.3123160">
	<ele>727.40</ele>
	<time>2025-04-29T05:45:58.000Z</time>
</trkpt>
<trkpt lat="45.9242770" lon="10.3123140">
	<ele>727.60</ele>
	<time>2025-04-29T05:45:59.000Z</time>
</trkpt>
<trkpt lat="45.9242650" lon="10.3123090">
	<ele>727.80</ele>
	<time>2025-04-29T05:46:00.000Z</time>
</trkpt>
<trkpt lat="45.9242470" lon="10.3123010">
	<ele>728.00</ele>
	<time>2025-04-29T05:46:01.000Z</time>
</trkpt>
<trkpt lat="45.9242340" lon="10.3123020">
	<ele>728.00</ele>
	<time>2025-04-29T05:46:02.000Z</time>
</trkpt>
<trkpt lat="45.9242300" lon="10.3123120">
	<ele>728.20</ele>
	<time>2025-04-29T05:46:03.000Z</time>
</trkpt>
<trkpt lat="45.9242260" lon="10.3123280">
	<ele>728.40</ele>
	<time>2025-04-29T05:46:04.000Z</time>
</trkpt>
<trkpt lat="45.9242150" lon="10.3123460">
	<ele>728.40</ele>
	<time>2025-04-29T05:46:05.000Z</time>
</trkpt>
<trkpt lat="45.9242090" lon="10.3123580">
	<ele>728.60</ele>
	<time>2025-04-29T05:46:06.000Z</time>
</trkpt>
<trkpt lat="45.9242070" lon="10.3123690">
	<ele>728.80</ele>
	<time>2025-04-29T05:46:07.000Z</time>
</trkpt>
<trkpt lat="45.9242050" lon="10.3123750">
	<ele>729.00</ele>
	<time>2025-04-29T05:46:08.000Z</time>
</trkpt>
<trkpt lat="45.9241930" lon="10.3123800">
	<ele>729.20</ele>
	<time>2025-04-29T05:46:09.000Z</time>
</trkpt>
<trkpt lat="45.9241870" lon="10.3123860">
	<ele>729.40</ele>
	<time>2025-04-29T05:46:10.000Z</time>
</trkpt>
<trkpt lat="45.9241830" lon="10.3123920">
	<ele>729.60</ele>
	<time>2025-04-29T05:46:11.000Z</time>
</trkpt>
<trkpt lat="45.9241760" lon="10.3123910">
	<ele>729.60</ele>
	<time>2025-04-29T05:46:12.000Z</time>
</trkpt>
<trkpt lat="45.9241700" lon="10.3124010">
	<ele>729.80</ele>
	<time>2025-04-29T05:46:13.000Z</time>
</trkpt>
<trkpt lat="45.9241580" lon="10.3124070">
	<ele>730.20</ele>
	<time>2025-04-29T05:46:14.000Z</time>
</trkpt>
<trkpt lat="45.9241410" lon="10.3124140">
	<ele>730.40</ele>
	<time>2025-04-29T05:46:15.000Z</time>
</trkpt>
<trkpt lat="45.9241330" lon="10.3124180">
	<ele>730.60</ele>
	<time>2025-04-29T05:46:16.000Z</time>
</trkpt>
<trkpt lat="45.9241300" lon="10.3124270">
	<ele>731.00</ele>
	<time>2025-04-29T05:46:17.000Z</time>
</trkpt>
<trkpt lat="45.9241200" lon="10.3124400">
	<ele>731.20</ele>
	<time>2025-04-29T05:46:18.000Z</time>
</trkpt>
<trkpt lat="45.9241150" lon="10.3124510">
	<ele>731.20</ele>
	<time>2025-04-29T05:46:19.000Z</time>
</trkpt>
<trkpt lat="45.9241070" lon="10.3124570">
	<ele>731.60</ele>
	<time>2025-04-29T05:46:20.000Z</time>
</trkpt>
<trkpt lat="45.9240960" lon="10.3124650">
	<ele>732.00</ele>
	<time>2025-04-29T05:46:21.000Z</time>
</trkpt>
<trkpt lat="45.9240910" lon="10.3124730">
	<ele>732.20</ele>
	<time>2025-04-29T05:46:22.000Z</time>
</trkpt>
<trkpt lat="45.9240860" lon="10.3124790">
	<ele>732.20</ele>
	<time>2025-04-29T05:46:23.000Z</time>
</trkpt>
<trkpt lat="45.9240800" lon="10.3124900">
	<ele>732.40</ele>
	<time>2025-04-29T05:46:24.000Z</time>
</trkpt>
<trkpt lat="45.9240730" lon="10.3125110">
	<ele>732.60</ele>
	<time>2025-04-29T05:46:25.000Z</time>
</trkpt>
<trkpt lat="45.9240690" lon="10.3125220">
	<ele>732.80</ele>
	<time>2025-04-29T05:46:26.000Z</time>
</trkpt>
<trkpt lat="45.9240650" lon="10.3125310">
	<ele>733.00</ele>
	<time>2025-04-29T05:46:27.000Z</time>
</trkpt>
<trkpt lat="45.9240610" lon="10.3125410">
	<ele>733.00</ele>
	<time>2025-04-29T05:46:28.000Z</time>
</trkpt>
<trkpt lat="45.9240570" lon="10.3125520">
	<ele>733.00</ele>
	<time>2025-04-29T05:46:29.000Z</time>
</trkpt>
<trkpt lat="45.9240510" lon="10.3125580">
	<ele>733.40</ele>
	<time>2025-04-29T05:46:30.000Z</time>
</trkpt>
<trkpt lat="45.9240440" lon="10.3125610">
	<ele>733.60</ele>
	<time>2025-04-29T05:46:31.000Z</time>
</trkpt>
<trkpt lat="45.9240350" lon="10.3125670">
	<ele>733.80</ele>
	<time>2025-04-29T05:46:32.000Z</time>
</trkpt>
<trkpt lat="45.9240290" lon="10.3125710">
	<ele>734.00</ele>
	<time>2025-04-29T05:46:33.000Z</time>
</trkpt>
<trkpt lat="45.9240250" lon="10.3125790">
	<ele>734.20</ele>
	<time>2025-04-29T05:46:34.000Z</time>
</trkpt>
<trkpt lat="45.9240210" lon="10.3125850">
	<ele>734.40</ele>
	<time>2025-04-29T05:46:35.000Z</time>
</trkpt>
<trkpt lat="45.9240190" lon="10.3125920">
	<ele>734.40</ele>
	<time>2025-04-29T05:46:36.000Z</time>
</trkpt>
<trkpt lat="45.9240150" lon="10.3126000">
	<ele>734.60</ele>
	<time>2025-04-29T05:46:37.000Z</time>
</trkpt>
<trkpt lat="45.9240060" lon="10.3126080">
	<ele>734.80</ele>
	<time>2025-04-29T05:46:38.000Z</time>
</trkpt>
<trkpt lat="45.9239970" lon="10.3126190">
	<ele>735.00</ele>
	<time>2025-04-29T05:46:39.000Z</time>
</trkpt>
<trkpt lat="45.9239980" lon="10.3126310">
	<ele>735.20</ele>
	<time>2025-04-29T05:46:40.000Z</time>
</trkpt>
<trkpt lat="45.9239900" lon="10.3126360">
	<ele>735.40</ele>
	<time>2025-04-29T05:46:41.000Z</time>
</trkpt>
<trkpt lat="45.9239810" lon="10.3126410">
	<ele>735.60</ele>
	<time>2025-04-29T05:46:42.000Z</time>
</trkpt>
<trkpt lat="45.9239760" lon="10.3126440">
	<ele>736.00</ele>
	<time>2025-04-29T05:46:43.000Z</time>
</trkpt>
<trkpt lat="45.9239720" lon="10.3126460">
	<ele>736.20</ele>
	<time>2025-04-29T05:46:44.000Z</time>
</trkpt>
<trkpt lat="45.9239700" lon="10.3126500">
	<ele>736.40</ele>
	<time>2025-04-29T05:46:45.000Z</time>
</trkpt>
<trkpt lat="45.9239670" lon="10.3126550">
	<ele>736.60</ele>
	<time>2025-04-29T05:46:46.000Z</time>
</trkpt>
<trkpt lat="45.9239510" lon="10.3126760">
	<ele>736.80</ele>
	<time>2025-04-29T05:46:47.000Z</time>
</trkpt>
<trkpt lat="45.9239460" lon="10.3126940">
	<ele>736.80</ele>
	<time>2025-04-29T05:46:48.000Z</time>
</trkpt>
<trkpt lat="45.9239450" lon="10.3126970">
	<ele>737.00</ele>
	<time>2025-04-29T05:46:49.000Z</time>
</trkpt>
<trkpt lat="45.9239410" lon="10.3126960">
	<ele>737.00</ele>
	<time>2025-04-29T05:46:50.000Z</time>
</trkpt>
<trkpt lat="45.9239340" lon="10.3126930">
	<ele>737.20</ele>
	<time>2025-04-29T05:46:51.000Z</time>
</trkpt>
<trkpt lat="45.9239340" lon="10.3126920">
	<ele>737.40</ele>
	<time>2025-04-29T05:46:52.000Z</time>
</trkpt>
<trkpt lat="45.9239340" lon="10.3126940">
	<ele>737.60</ele>
	<time>2025-04-29T05:46:53.000Z</time>
</trkpt>
<trkpt lat="45.9239260" lon="10.3126970">
	<ele>737.80</ele>
	<time>2025-04-29T05:46:54.000Z</time>
</trkpt>
<trkpt lat="45.9239270" lon="10.3126960">
	<ele>738.00</ele>
	<time>2025-04-29T05:46:55.000Z</time>
</trkpt>
<trkpt lat="45.9239330" lon="10.3126930">
	<ele>738.20</ele>
	<time>2025-04-29T05:46:56.000Z</time>
</trkpt>
<trkpt lat="45.9239320" lon="10.3126920">
	<ele>738.40</ele>
	<time>2025-04-29T05:46:57.000Z</time>
</trkpt>
<trkpt lat="45.9239200" lon="10.3126970">
	<ele>738.40</ele>
	<time>2025-04-29T05:46:58.000Z</time>
</trkpt>
<trkpt lat="45.9239060" lon="10.3127030">
	<ele>738.60</ele>
	<time>2025-04-29T05:46:59.000Z</time>
</trkpt>
<trkpt lat="45.9238950" lon="10.3127060">
	<ele>738.80</ele>
	<time>2025-04-29T05:47:00.000Z</time>
</trkpt>
<trkpt lat="45.9238850" lon="10.3127080">
	<ele>738.80</ele>
	<time>2025-04-29T05:47:01.000Z</time>
</trkpt>
<trkpt lat="45.9238780" lon="10.3127090">
	<ele>739.00</ele>
	<time>2025-04-29T05:47:02.000Z</time>
</trkpt>
<trkpt lat="45.9238750" lon="10.3127060">
	<ele>739.20</ele>
	<time>2025-04-29T05:47:03.000Z</time>
</trkpt>
<trkpt lat="45.9238680" lon="10.3127080">
	<ele>739.40</ele>
	<time>2025-04-29T05:47:04.000Z</time>
</trkpt>
<trkpt lat="45.9238670" lon="10.3127080">
	<ele>739.60</ele>
	<time>2025-04-29T05:47:05.000Z</time>
</trkpt>
<trkpt lat="45.9238660" lon="10.3127070">
	<ele>740.00</ele>
	<time>2025-04-29T05:47:06.000Z</time>
</trkpt>
<trkpt lat="45.9238660" lon="10.3127060">
	<ele>740.20</ele>
	<time>2025-04-29T05:47:07.000Z</time>
</trkpt>
<trkpt lat="45.9238610" lon="10.3127070">
	<ele>740.40</ele>
	<time>2025-04-29T05:47:08.000Z</time>
</trkpt>
<trkpt lat="45.9238520" lon="10.3127110">
	<ele>740.60</ele>
	<time>2025-04-29T05:47:09.000Z</time>
</trkpt>
<trkpt lat="45.9238450" lon="10.3127100">
	<ele>740.60</ele>
	<time>2025-04-29T05:47:10.000Z</time>
</trkpt>
<trkpt lat="45.9238420" lon="10.3127050">
	<ele>740.80</ele>
	<time>2025-04-29T05:47:11.000Z</time>
</trkpt>
<trkpt lat="45.9238380" lon="10.3127070">
	<ele>741.00</ele>
	<time>2025-04-29T05:47:12.000Z</time>
</trkpt>
<trkpt lat="45.9238340" lon="10.3127000">
	<ele>741.20</ele>
	<time>2025-04-29T05:47:13.000Z</time>
</trkpt>
<trkpt lat="45.9238190" lon="10.3126930">
	<ele>741.60</ele>
	<time>2025-04-29T05:47:14.000Z</time>
</trkpt>
<trkpt lat="45.9238080" lon="10.3126910">
	<ele>741.80</ele>
	<time>2025-04-29T05:47:15.000Z</time>
</trkpt>
<trkpt lat="45.9238020" lon="10.3126930">
	<ele>742.00</ele>
	<time>2025-04-29T05:47:16.000Z</time>
</trkpt>
<trkpt lat="45.9237930" lon="10.3126930">
	<ele>742.20</ele>
	<time>2025-04-29T05:47:17.000Z</time>
</trkpt>
<trkpt lat="45.9237760" lon="10.3126920">
	<ele>742.40</ele>
	<time>2025-04-29T05:47:18.000Z</time>
</trkpt>
<trkpt lat="45.9237650" lon="10.3126910">
	<ele>742.60</ele>
	<time>2025-04-29T05:47:19.000Z</time>
</trkpt>
<trkpt lat="45.9237580" lon="10.3126830">
	<ele>742.80</ele>
	<time>2025-04-29T05:47:20.000Z</time>
</trkpt>
<trkpt lat="45.9237520" lon="10.3126780">
	<ele>743.00</ele>
	<time>2025-04-29T05:47:21.000Z</time>
</trkpt>
<trkpt lat="45.9237400" lon="10.3126800">
	<ele>743.20</ele>
	<time>2025-04-29T05:47:22.000Z</time>
</trkpt>
<trkpt lat="45.9237260" lon="10.3126790">
	<ele>743.60</ele>
	<time>2025-04-29T05:47:23.000Z</time>
</trkpt>
<trkpt lat="45.9237190" lon="10.3126800">
	<ele>744.00</ele>
	<time>2025-04-29T05:47:24.000Z</time>
</trkpt>
<trkpt lat="45.9237110" lon="10.3126810">
	<ele>744.20</ele>
	<time>2025-04-29T05:47:25.000Z</time>
</trkpt>
<trkpt lat="45.9236970" lon="10.3126820">
	<ele>744.20</ele>
	<time>2025-04-29T05:47:26.000Z</time>
</trkpt>
<trkpt lat="45.9236840" lon="10.3126850">
	<ele>744.40</ele>
	<time>2025-04-29T05:47:27.000Z</time>
</trkpt>
<trkpt lat="45.9236770" lon="10.3126860">
	<ele>744.60</ele>
	<time>2025-04-29T05:47:28.000Z</time>
</trkpt>
<trkpt lat="45.9236660" lon="10.3126860">
	<ele>744.60</ele>
	<time>2025-04-29T05:47:29.000Z</time>
</trkpt>
<trkpt lat="45.9236570" lon="10.3126850">
	<ele>744.80</ele>
	<time>2025-04-29T05:47:30.000Z</time>
</trkpt>
<trkpt lat="45.9236380" lon="10.3126840">
	<ele>744.80</ele>
	<time>2025-04-29T05:47:31.000Z</time>
</trkpt>
<trkpt lat="45.9236170" lon="10.3126870">
	<ele>745.00</ele>
	<time>2025-04-29T05:47:32.000Z</time>
</trkpt>
<trkpt lat="45.9235970" lon="10.3126940">
	<ele>745.00</ele>
	<time>2025-04-29T05:47:33.000Z</time>
</trkpt>
<trkpt lat="45.9235790" lon="10.3126950">
	<ele>745.20</ele>
	<time>2025-04-29T05:47:34.000Z</time>
</trkpt>
<trkpt lat="45.9235630" lon="10.3126940">
	<ele>745.40</ele>
	<time>2025-04-29T05:47:35.000Z</time>
</trkpt>
<trkpt lat="45.9235480" lon="10.3126930">
	<ele>745.40</ele>
	<time>2025-04-29T05:47:36.000Z</time>
</trkpt>
<trkpt lat="45.9235390" lon="10.3126950">
	<ele>745.60</ele>
	<time>2025-04-29T05:47:37.000Z</time>
</trkpt>
<trkpt lat="45.9235150" lon="10.3127010">
	<ele>745.80</ele>
	<time>2025-04-29T05:47:38.000Z</time>
</trkpt>
<trkpt lat="45.9234950" lon="10.3127040">
	<ele>746.00</ele>
	<time>2025-04-29T05:47:39.000Z</time>
</trkpt>
<trkpt lat="45.9234820" lon="10.3127040">
	<ele>746.00</ele>
	<time>2025-04-29T05:47:40.000Z</time>
</trkpt>
<trkpt lat="45.9234650" lon="10.3127040">
	<ele>746.20</ele>
	<time>2025-04-29T05:47:41.000Z</time>
</trkpt>
<trkpt lat="45.9234590" lon="10.3126970">
	<ele>746.40</ele>
	<time>2025-04-29T05:47:42.000Z</time>
</trkpt>
<trkpt lat="45.9234630" lon="10.3127020">
	<ele>746.60</ele>
	<time>2025-04-29T05:47:43.000Z</time>
</trkpt>
<trkpt lat="45.9234710" lon="10.3127040">
	<ele>746.80</ele>
	<time>2025-04-29T05:47:44.000Z</time>
</trkpt>
<trkpt lat="45.9234750" lon="10.3127020">
	<ele>747.00</ele>
	<time>2025-04-29T05:47:45.000Z</time>
</trkpt>
<trkpt lat="45.9234800" lon="10.3126910">
	<ele>747.20</ele>
	<time>2025-04-29T05:47:46.000Z</time>
</trkpt>
<trkpt lat="45.9234800" lon="10.3126970">
	<ele>747.40</ele>
	<time>2025-04-29T05:47:47.000Z</time>
</trkpt>
<trkpt lat="45.9234610" lon="10.3127040">
	<ele>747.60</ele>
	<time>2025-04-29T05:47:48.000Z</time>
</trkpt>
<trkpt lat="45.9234490" lon="10.3127110">
	<ele>747.60</ele>
	<time>2025-04-29T05:47:49.000Z</time>
</trkpt>
<trkpt lat="45.9234320" lon="10.3127100">
	<ele>747.80</ele>
	<time>2025-04-29T05:47:50.000Z</time>
</trkpt>
<trkpt lat="45.9234130" lon="10.3127110">
	<ele>748.00</ele>
	<time>2025-04-29T05:47:51.000Z</time>
</trkpt>
<trkpt lat="45.9234000" lon="10.3127070">
	<ele>748.20</ele>
	<time>2025-04-29T05:47:52.000Z</time>
</trkpt>
<trkpt lat="45.9233960" lon="10.3127070">
	<ele>748.40</ele>
	<time>2025-04-29T05:47:53.000Z</time>
</trkpt>
<trkpt lat="45.9234030" lon="10.3127040">
	<ele>748.60</ele>
	<time>2025-04-29T05:47:54.000Z</time>
</trkpt>
<trkpt lat="45.9233960" lon="10.3126960">
	<ele>748.60</ele>
	<time>2025-04-29T05:47:55.000Z</time>
</trkpt>
<trkpt lat="45.9233870" lon="10.3126880">
	<ele>748.80</ele>
	<time>2025-04-29T05:47:56.000Z</time>
</trkpt>
<trkpt lat="45.9233790" lon="10.3126830">
	<ele>749.00</ele>
	<time>2025-04-29T05:47:57.000Z</time>
</trkpt>
<trkpt lat="45.9233650" lon="10.3126790">
	<ele>749.20</ele>
	<time>2025-04-29T05:47:58.000Z</time>
</trkpt>
<trkpt lat="45.9233480" lon="10.3126790">
	<ele>749.40</ele>
	<time>2025-04-29T05:47:59.000Z</time>
</trkpt>
<trkpt lat="45.9233340" lon="10.3126790">
	<ele>749.60</ele>
	<time>2025-04-29T05:48:00.000Z</time>
</trkpt>
<trkpt lat="45.9233220" lon="10.3126720">
	<ele>749.60</ele>
	<time>2025-04-29T05:48:01.000Z</time>
</trkpt>
<trkpt lat="45.9233100" lon="10.3126750">
	<ele>749.80</ele>
	<time>2025-04-29T05:48:02.000Z</time>
</trkpt>
<trkpt lat="45.9232980" lon="10.3126740">
	<ele>750.20</ele>
	<time>2025-04-29T05:48:03.000Z</time>
</trkpt>
<trkpt lat="45.9232860" lon="10.3126740">
	<ele>750.40</ele>
	<time>2025-04-29T05:48:04.000Z</time>
</trkpt>
<trkpt lat="45.9232690" lon="10.3126630">
	<ele>750.60</ele>
	<time>2025-04-29T05:48:05.000Z</time>
</trkpt>
<trkpt lat="45.9232810" lon="10.3126440">
	<ele>750.80</ele>
	<time>2025-04-29T05:48:06.000Z</time>
</trkpt>
<trkpt lat="45.9232930" lon="10.3126310">
	<ele>750.80</ele>
	<time>2025-04-29T05:48:07.000Z</time>
</trkpt>
<trkpt lat="45.9232970" lon="10.3126190">
	<ele>751.00</ele>
	<time>2025-04-29T05:48:08.000Z</time>
</trkpt>
<trkpt lat="45.9232930" lon="10.3126050">
	<ele>751.20</ele>
	<time>2025-04-29T05:48:09.000Z</time>
</trkpt>
<trkpt lat="45.9232810" lon="10.3125970">
	<ele>751.20</ele>
	<time>2025-04-29T05:48:10.000Z</time>
</trkpt>
<trkpt lat="45.9232770" lon="10.3125930">
	<ele>751.60</ele>
	<time>2025-04-29T05:48:11.000Z</time>
</trkpt>
<trkpt lat="45.9232740" lon="10.3125900">
	<ele>751.80</ele>
	<time>2025-04-29T05:48:12.000Z</time>
</trkpt>
<trkpt lat="45.9232500" lon="10.3125890">
	<ele>752.00</ele>
	<time>2025-04-29T05:48:13.000Z</time>
</trkpt>
<trkpt lat="45.9232250" lon="10.3126010">
	<ele>752.00</ele>
	<time>2025-04-29T05:48:14.000Z</time>
</trkpt>
<trkpt lat="45.9232160" lon="10.3126030">
	<ele>752.20</ele>
	<time>2025-04-29T05:48:15.000Z</time>
</trkpt>
<trkpt lat="45.9232140" lon="10.3126030">
	<ele>752.40</ele>
	<time>2025-04-29T05:48:16.000Z</time>
</trkpt>
<trkpt lat="45.9232120" lon="10.3125970">
	<ele>752.60</ele>
	<time>2025-04-29T05:48:17.000Z</time>
</trkpt>
<trkpt lat="45.9231950" lon="10.3125940">
	<ele>752.80</ele>
	<time>2025-04-29T05:48:18.000Z</time>
</trkpt>
<trkpt lat="45.9231810" lon="10.3126010">
	<ele>753.00</ele>
	<time>2025-04-29T05:48:19.000Z</time>
</trkpt>
<trkpt lat="45.9231460" lon="10.3126080">
	<ele>753.00</ele>
	<time>2025-04-29T05:48:20.000Z</time>
</trkpt>
<trkpt lat="45.9231290" lon="10.3126130">
	<ele>753.20</ele>
	<time>2025-04-29T05:48:21.000Z</time>
</trkpt>
<trkpt lat="45.9231230" lon="10.3126040">
	<ele>753.40</ele>
	<time>2025-04-29T05:48:22.000Z</time>
</trkpt>
<trkpt lat="45.9231160" lon="10.3126010">
	<ele>753.60</ele>
	<time>2025-04-29T05:48:23.000Z</time>
</trkpt>
<trkpt lat="45.9231060" lon="10.3125990">
	<ele>753.60</ele>
	<time>2025-04-29T05:48:24.000Z</time>
</trkpt>
<trkpt lat="45.9230980" lon="10.3126040">
	<ele>754.00</ele>
	<time>2025-04-29T05:48:25.000Z</time>
</trkpt>
<trkpt lat="45.9230870" lon="10.3126080">
	<ele>754.40</ele>
	<time>2025-04-29T05:48:26.000Z</time>
</trkpt>
<trkpt lat="45.9230840" lon="10.3126090">
	<ele>754.60</ele>
	<time>2025-04-29T05:48:27.000Z</time>
</trkpt>
<trkpt lat="45.9230870" lon="10.3126150">
	<ele>754.80</ele>
	<time>2025-04-29T05:48:28.000Z</time>
</trkpt>
<trkpt lat="45.9230530" lon="10.3126210">
	<ele>755.00</ele>
	<time>2025-04-29T05:48:29.000Z</time>
</trkpt>
<trkpt lat="45.9230420" lon="10.3126260">
	<ele>755.20</ele>
	<time>2025-04-29T05:48:30.000Z</time>
</trkpt>
<trkpt lat="45.9230250" lon="10.3126300">
	<ele>755.40</ele>
	<time>2025-04-29T05:48:31.000Z</time>
</trkpt>
<trkpt lat="45.9230800" lon="10.3126280">
	<ele>755.60</ele>
	<time>2025-04-29T05:48:32.000Z</time>
</trkpt>
<trkpt lat="45.9230690" lon="10.3126290">
	<ele>755.60</ele>
	<time>2025-04-29T05:48:33.000Z</time>
</trkpt>
<trkpt lat="45.9230950" lon="10.3126270">
	<ele>756.00</ele>
	<time>2025-04-29T05:48:34.000Z</time>
</trkpt>
<trkpt lat="45.9231090" lon="10.3126240">
	<ele>756.00</ele>
	<time>2025-04-29T05:48:35.000Z</time>
</trkpt>
<trkpt lat="45.9231240" lon="10.3126250">
	<ele>756.20</ele>
	<time>2025-04-29T05:48:36.000Z</time>
</trkpt>
<trkpt lat="45.9231020" lon="10.3126230">
	<ele>756.60</ele>
	<time>2025-04-29T05:48:37.000Z</time>
</trkpt>
<trkpt lat="45.9230930" lon="10.3126240">
	<ele>756.80</ele>
	<time>2025-04-29T05:48:38.000Z</time>
</trkpt>
<trkpt lat="45.9230870" lon="10.3126270">
	<ele>756.80</ele>
	<time>2025-04-29T05:48:39.000Z</time>
</trkpt>
<trkpt lat="45.9230760" lon="10.3126300">
	<ele>757.20</ele>
	<time>2025-04-29T05:48:40.000Z</time>
</trkpt>
<trkpt lat="45.9230680" lon="10.3126310">
	<ele>757.40</ele>
	<time>2025-04-29T05:48:41.000Z</time>
</trkpt>
<trkpt lat="45.9230630" lon="10.3126300">
	<ele>757.40</ele>
	<time>2025-04-29T05:48:42.000Z</time>
</trkpt>
<trkpt lat="45.9230580" lon="10.3126270">
	<ele>757.60</ele>
	<time>2025-04-29T05:48:43.000Z</time>
</trkpt>
<trkpt lat="45.9230610" lon="10.3126260">
	<ele>757.60</ele>
	<time>2025-04-29T05:48:44.000Z</time>
</trkpt>
<trkpt lat="45.9230550" lon="10.3126240">
	<ele>757.60</ele>
	<time>2025-04-29T05:48:45.000Z</time>
</trkpt>
<trkpt lat="45.9230430" lon="10.3126210">
	<ele>757.80</ele>
	<time>2025-04-29T05:48:46.000Z</time>
</trkpt>
<trkpt lat="45.9230610" lon="10.3126300">
	<ele>757.80</ele>
	<time>2025-04-29T05:48:47.000Z</time>
</trkpt>
<trkpt lat="45.9230610" lon="10.3126190">
	<ele>757.80</ele>
	<time>2025-04-29T05:48:48.000Z</time>
</trkpt>
<trkpt lat="45.9230600" lon="10.3126160">
	<ele>757.80</ele>
	<time>2025-04-29T05:48:49.000Z</time>
</trkpt>
<trkpt lat="45.9230610" lon="10.3126160">
	<ele>757.80</ele>
	<time>2025-04-29T05:48:50.000Z</time>
</trkpt>
<trkpt lat="45.9230550" lon="10.3126240">
	<ele>757.80</ele>
	<time>2025-04-29T05:48:51.000Z</time>
</trkpt>
<trkpt lat="45.9230490" lon="10.3126270">
	<ele>757.80</ele>
	<time>2025-04-29T05:48:52.000Z</time>
</trkpt>
<trkpt lat="45.9230460" lon="10.3126290">
	<ele>757.80</ele>
	<time>2025-04-29T05:48:53.000Z</time>
</trkpt>
<trkpt lat="45.9230450" lon="10.3126280">
	<ele>758.00</ele>
	<time>2025-04-29T05:48:54.000Z</time>
</trkpt>
<trkpt lat="45.9230620" lon="10.3126300">
	<ele>758.00</ele>
	<time>2025-04-29T05:48:55.000Z</time>
</trkpt>
<trkpt lat="45.9230760" lon="10.3126270">
	<ele>758.00</ele>
	<time>2025-04-29T05:48:56.000Z</time>
</trkpt>
<trkpt lat="45.9230930" lon="10.3126230">
	<ele>758.00</ele>
	<time>2025-04-29T05:48:57.000Z</time>
</trkpt>
<trkpt lat="45.9231010" lon="10.3126210">
	<ele>758.20</ele>
	<time>2025-04-29T05:48:58.000Z</time>
</trkpt>
<trkpt lat="45.9231020" lon="10.3126240">
	<ele>758.20</ele>
	<time>2025-04-29T05:48:59.000Z</time>
</trkpt>
<trkpt lat="45.9231020" lon="10.3126340">
	<ele>758.40</ele>
	<time>2025-04-29T05:49:00.000Z</time>
</trkpt>
<trkpt lat="45.9230960" lon="10.3126450">
	<ele>758.60</ele>
	<time>2025-04-29T05:49:01.000Z</time>
</trkpt>
<trkpt lat="45.9230640" lon="10.3126520">
	<ele>758.60</ele>
	<time>2025-04-29T05:49:02.000Z</time>
</trkpt>
<trkpt lat="45.9230460" lon="10.3126590">
	<ele>758.80</ele>
	<time>2025-04-29T05:49:03.000Z</time>
</trkpt>
<trkpt lat="45.9230340" lon="10.3126630">
	<ele>759.00</ele>
	<time>2025-04-29T05:49:04.000Z</time>
</trkpt>
<trkpt lat="45.9230180" lon="10.3126670">
	<ele>759.20</ele>
	<time>2025-04-29T05:49:05.000Z</time>
</trkpt>
<trkpt lat="45.9230280" lon="10.3126610">
	<ele>759.40</ele>
	<time>2025-04-29T05:49:06.000Z</time>
</trkpt>
<trkpt lat="45.9230120" lon="10.3126440">
	<ele>759.60</ele>
	<time>2025-04-29T05:49:07.000Z</time>
</trkpt>
<trkpt lat="45.9229840" lon="10.3126560">
	<ele>759.80</ele>
	<time>2025-04-29T05:49:08.000Z</time>
</trkpt>
<trkpt lat="45.9229660" lon="10.3126580">
	<ele>759.80</ele>
	<time>2025-04-29T05:49:09.000Z</time>
</trkpt>
<trkpt lat="45.9229350" lon="10.3126710">
	<ele>760.00</ele>
	<time>2025-04-29T05:49:10.000Z</time>
</trkpt>
<trkpt lat="45.9229590" lon="10.3126660">
	<ele>760.00</ele>
	<time>2025-04-29T05:49:11.000Z</time>
</trkpt>
<trkpt lat="45.9229490" lon="10.3126700">
	<ele>760.40</ele>
	<time>2025-04-29T05:49:12.000Z</time>
</trkpt>
<trkpt lat="45.9229420" lon="10.3126840">
	<ele>760.80</ele>
	<time>2025-04-29T05:49:13.000Z</time>
</trkpt>
<trkpt lat="45.9229410" lon="10.3126860">
	<ele>761.00</ele>
	<time>2025-04-29T05:49:14.000Z</time>
</trkpt>
<trkpt lat="45.9229270" lon="10.3126930">
	<ele>761.20</ele>
	<time>2025-04-29T05:49:15.000Z</time>
</trkpt>
<trkpt lat="45.9229280" lon="10.3126950">
	<ele>761.40</ele>
	<time>2025-04-29T05:49:16.000Z</time>
</trkpt>
<trkpt lat="45.9229170" lon="10.3126980">
	<ele>761.60</ele>
	<time>2025-04-29T05:49:17.000Z</time>
</trkpt>
<trkpt lat="45.9229000" lon="10.3127050">
	<ele>761.80</ele>
	<time>2025-04-29T05:49:18.000Z</time>
</trkpt>
<trkpt lat="45.9229010" lon="10.3127070">
	<ele>762.00</ele>
	<time>2025-04-29T05:49:19.000Z</time>
</trkpt>
<trkpt lat="45.9229010" lon="10.3127070">
	<ele>762.20</ele>
	<time>2025-04-29T05:49:20.000Z</time>
</trkpt>
<trkpt lat="45.9228980" lon="10.3127060">
	<ele>762.40</ele>
	<time>2025-04-29T05:49:21.000Z</time>
</trkpt>
<trkpt lat="45.9228980" lon="10.3127060">
	<ele>762.40</ele>
	<time>2025-04-29T05:49:22.000Z</time>
</trkpt>
<trkpt lat="45.9228940" lon="10.3127110">
	<ele>762.60</ele>
	<time>2025-04-29T05:49:23.000Z</time>
</trkpt>
<trkpt lat="45.9228810" lon="10.3127150">
	<ele>762.60</ele>
	<time>2025-04-29T05:49:24.000Z</time>
</trkpt>
<trkpt lat="45.9228650" lon="10.3127140">
	<ele>762.80</ele>
	<time>2025-04-29T05:49:25.000Z</time>
</trkpt>
<trkpt lat="45.9228790" lon="10.3127210">
	<ele>762.80</ele>
	<time>2025-04-29T05:49:26.000Z</time>
</trkpt>
<trkpt lat="45.9228610" lon="10.3127230">
	<ele>762.80</ele>
	<time>2025-04-29T05:49:27.000Z</time>
</trkpt>
<trkpt lat="45.9228510" lon="10.3127270">
	<ele>762.80</ele>
	<time>2025-04-29T05:49:28.000Z</time>
</trkpt>
<trkpt lat="45.9228160" lon="10.3127450">
	<ele>763.00</ele>
	<time>2025-04-29T05:49:29.000Z</time>
</trkpt>
<trkpt lat="45.9227910" lon="10.3127560">
	<ele>763.20</ele>
	<time>2025-04-29T05:49:30.000Z</time>
</trkpt>
<trkpt lat="45.9227780" lon="10.3127650">
	<ele>763.20</ele>
	<time>2025-04-29T05:49:31.000Z</time>
</trkpt>
<trkpt lat="45.9227570" lon="10.3127790">
	<ele>763.40</ele>
	<time>2025-04-29T05:49:32.000Z</time>
</trkpt>
<trkpt lat="45.9227550" lon="10.3127850">
	<ele>763.40</ele>
	<time>2025-04-29T05:49:33.000Z</time>
</trkpt>
<trkpt lat="45.9227410" lon="10.3127930">
	<ele>763.40</ele>
	<time>2025-04-29T05:49:34.000Z</time>
</trkpt>
<trkpt lat="45.9227330" lon="10.3127930">
	<ele>763.60</ele>
	<time>2025-04-29T05:49:35.000Z</time>
</trkpt>
<trkpt lat="45.9227290" lon="10.3127900">
	<ele>763.80</ele>
	<time>2025-04-29T05:49:36.000Z</time>
</trkpt>
<trkpt lat="45.9227100" lon="10.3127890">
	<ele>763.80</ele>
	<time>2025-04-29T05:49:37.000Z</time>
</trkpt>
<trkpt lat="45.9226990" lon="10.3127900">
	<ele>763.80</ele>
	<time>2025-04-29T05:49:38.000Z</time>
</trkpt>
<trkpt lat="45.9226930" lon="10.3127940">
	<ele>764.00</ele>
	<time>2025-04-29T05:49:39.000Z</time>
</trkpt>
<trkpt lat="45.9226920" lon="10.3127960">
	<ele>764.00</ele>
	<time>2025-04-29T05:49:40.000Z</time>
</trkpt>
<trkpt lat="45.9226950" lon="10.3127960">
	<ele>764.00</ele>
	<time>2025-04-29T05:49:41.000Z</time>
</trkpt>
<trkpt lat="45.9226840" lon="10.3128040">
	<ele>764.00</ele>
	<time>2025-04-29T05:49:42.000Z</time>
</trkpt>
<trkpt lat="45.9226810" lon="10.3128250">
	<ele>764.20</ele>
	<time>2025-04-29T05:49:43.000Z</time>
</trkpt>
<trkpt lat="45.9226740" lon="10.3128280">
	<ele>764.20</ele>
	<time>2025-04-29T05:49:44.000Z</time>
</trkpt>
<trkpt lat="45.9226540" lon="10.3128450">
	<ele>764.20</ele>
	<time>2025-04-29T05:49:45.000Z</time>
</trkpt>
<trkpt lat="45.9226500" lon="10.3128640">
	<ele>764.20</ele>
	<time>2025-04-29T05:49:46.000Z</time>
</trkpt>
<trkpt lat="45.9226310" lon="10.3128930">
	<ele>764.20</ele>
	<time>2025-04-29T05:49:47.000Z</time>
</trkpt>
<trkpt lat="45.9226230" lon="10.3129220">
	<ele>764.20</ele>
	<time>2025-04-29T05:49:48.000Z</time>
</trkpt>
<trkpt lat="45.9226170" lon="10.3129550">
	<ele>764.20</ele>
	<time>2025-04-29T05:49:49.000Z</time>
</trkpt>
<trkpt lat="45.9226230" lon="10.3129830">
	<ele>764.20</ele>
	<time>2025-04-29T05:49:50.000Z</time>
</trkpt>
<trkpt lat="45.9226280" lon="10.3130100">
	<ele>764.20</ele>
	<time>2025-04-29T05:49:51.000Z</time>
</trkpt>
<trkpt lat="45.9226310" lon="10.3130250">
	<ele>764.20</ele>
	<time>2025-04-29T05:49:52.000Z</time>
</trkpt>
<trkpt lat="45.9226280" lon="10.3130490">
	<ele>764.20</ele>
	<time>2025-04-29T05:49:53.000Z</time>
</trkpt>
<trkpt lat="45.9226220" lon="10.3130780">
	<ele>764.20</ele>
	<time>2025-04-29T05:49:54.000Z</time>
</trkpt>
<trkpt lat="45.9226320" lon="10.3131100">
	<ele>764.20</ele>
	<time>2025-04-29T05:49:55.000Z</time>
</trkpt>
<trkpt lat="45.9226640" lon="10.3131250">
	<ele>764.20</ele>
	<time>2025-04-29T05:49:56.000Z</time>
</trkpt>
<trkpt lat="45.9226930" lon="10.3131460">
	<ele>764.20</ele>
	<time>2025-04-29T05:49:57.000Z</time>
</trkpt>
<trkpt lat="45.9227190" lon="10.3131780">
	<ele>764.20</ele>
	<time>2025-04-29T05:49:58.000Z</time>
</trkpt>
<trkpt lat="45.9227290" lon="10.3132170">
	<ele>764.20</ele>
	<time>2025-04-29T05:49:59.000Z</time>
</trkpt>
<trkpt lat="45.9227350" lon="10.3132270">
	<ele>764.20</ele>
	<time>2025-04-29T05:50:00.000Z</time>
</trkpt>
<trkpt lat="45.9227330" lon="10.3132410">
	<ele>764.40</ele>
	<time>2025-04-29T05:50:01.000Z</time>
</trkpt>
<trkpt lat="45.9227410" lon="10.3132620">
	<ele>764.40</ele>
	<time>2025-04-29T05:50:02.000Z</time>
</trkpt>
<trkpt lat="45.9227370" lon="10.3132800">
	<ele>764.60</ele>
	<time>2025-04-29T05:50:03.000Z</time>
</trkpt>
<trkpt lat="45.9227250" lon="10.3132850">
	<ele>764.60</ele>
	<time>2025-04-29T05:50:04.000Z</time>
</trkpt>
<trkpt lat="45.9227160" lon="10.3132990">
	<ele>764.60</ele>
	<time>2025-04-29T05:50:05.000Z</time>
</trkpt>
<trkpt lat="45.9227200" lon="10.3133070">
	<ele>764.60</ele>
	<time>2025-04-29T05:50:06.000Z</time>
</trkpt>
<trkpt lat="45.9227190" lon="10.3133060">
	<ele>764.80</ele>
	<time>2025-04-29T05:50:07.000Z</time>
</trkpt>
<trkpt lat="45.9227360" lon="10.3133040">
	<ele>765.00</ele>
	<time>2025-04-29T05:50:08.000Z</time>
</trkpt>
<trkpt lat="45.9227420" lon="10.3133060">
	<ele>765.00</ele>
	<time>2025-04-29T05:50:09.000Z</time>
</trkpt>
<trkpt lat="45.9227370" lon="10.3133060">
	<ele>765.20</ele>
	<time>2025-04-29T05:50:10.000Z</time>
</trkpt>
<trkpt lat="45.9227180" lon="10.3133020">
	<ele>765.20</ele>
	<time>2025-04-29T05:50:11.000Z</time>
</trkpt>
<trkpt lat="45.9227070" lon="10.3133040">
	<ele>765.40</ele>
	<time>2025-04-29T05:50:12.000Z</time>
</trkpt>
<trkpt lat="45.9227060" lon="10.3133160">
	<ele>765.60</ele>
	<time>2025-04-29T05:50:13.000Z</time>
</trkpt>
<trkpt lat="45.9227010" lon="10.3133380">
	<ele>765.60</ele>
	<time>2025-04-29T05:50:14.000Z</time>
</trkpt>
<trkpt lat="45.9226970" lon="10.3133590">
	<ele>765.60</ele>
	<time>2025-04-29T05:50:15.000Z</time>
</trkpt>
<trkpt lat="45.9226920" lon="10.3133650">
	<ele>765.80</ele>
	<time>2025-04-29T05:50:16.000Z</time>
</trkpt>
<trkpt lat="45.9226800" lon="10.3133700">
	<ele>765.80</ele>
	<time>2025-04-29T05:50:17.000Z</time>
</trkpt>
<trkpt lat="45.9226720" lon="10.3133750">
	<ele>766.00</ele>
	<time>2025-04-29T05:50:18.000Z</time>
</trkpt>
<trkpt lat="45.9226730" lon="10.3133880">
	<ele>766.20</ele>
	<time>2025-04-29T05:50:19.000Z</time>
</trkpt>
<trkpt lat="45.9226700" lon="10.3134090">
	<ele>766.40</ele>
	<time>2025-04-29T05:50:20.000Z</time>
</trkpt>
<trkpt lat="45.9226770" lon="10.3134290">
	<ele>766.60</ele>
	<time>2025-04-29T05:50:21.000Z</time>
</trkpt>
<trkpt lat="45.9226770" lon="10.3134330">
	<ele>766.80</ele>
	<time>2025-04-29T05:50:22.000Z</time>
</trkpt>
<trkpt lat="45.9226700" lon="10.3134350">
	<ele>767.00</ele>
	<time>2025-04-29T05:50:23.000Z</time>
</trkpt>
<trkpt lat="45.9226650" lon="10.3134420">
	<ele>767.00</ele>
	<time>2025-04-29T05:50:24.000Z</time>
</trkpt>
<trkpt lat="45.9226800" lon="10.3134420">
	<ele>767.20</ele>
	<time>2025-04-29T05:50:25.000Z</time>
</trkpt>
<trkpt lat="45.9226840" lon="10.3134450">
	<ele>767.20</ele>
	<time>2025-04-29T05:50:26.000Z</time>
</trkpt>
<trkpt lat="45.9226720" lon="10.3134490">
	<ele>767.20</ele>
	<time>2025-04-29T05:50:27.000Z</time>
</trkpt>
<trkpt lat="45.9226470" lon="10.3134590">
	<ele>767.40</ele>
	<time>2025-04-29T05:50:28.000Z</time>
</trkpt>
<trkpt lat="45.9226310" lon="10.3134850">
	<ele>767.40</ele>
	<time>2025-04-29T05:50:29.000Z</time>
</trkpt>
<trkpt lat="45.9226310" lon="10.3135130">
	<ele>767.60</ele>
	<time>2025-04-29T05:50:30.000Z</time>
</trkpt>
<trkpt lat="45.9226290" lon="10.3135300">
	<ele>767.60</ele>
	<time>2025-04-29T05:50:31.000Z</time>
</trkpt>
<trkpt lat="45.9226230" lon="10.3135440">
	<ele>767.80</ele>
	<time>2025-04-29T05:50:32.000Z</time>
</trkpt>
<trkpt lat="45.9226080" lon="10.3135690">
	<ele>767.80</ele>
	<time>2025-04-29T05:50:33.000Z</time>
</trkpt>
<trkpt lat="45.9226010" lon="10.3135860">
	<ele>767.80</ele>
	<time>2025-04-29T05:50:34.000Z</time>
</trkpt>
<trkpt lat="45.9225870" lon="10.3136030">
	<ele>767.80</ele>
	<time>2025-04-29T05:50:35.000Z</time>
</trkpt>
<trkpt lat="45.9225790" lon="10.3136170">
	<ele>767.80</ele>
	<time>2025-04-29T05:50:36.000Z</time>
</trkpt>
<trkpt lat="45.9225720" lon="10.3136250">
	<ele>767.80</ele>
	<time>2025-04-29T05:50:37.000Z</time>
</trkpt>
<trkpt lat="45.9225650" lon="10.3136380">
	<ele>768.00</ele>
	<time>2025-04-29T05:50:38.000Z</time>
</trkpt>
<trkpt lat="45.9225630" lon="10.3136530">
	<ele>768.00</ele>
	<time>2025-04-29T05:50:39.000Z</time>
</trkpt>
<trkpt lat="45.9225560" lon="10.3136720">
	<ele>768.20</ele>
	<time>2025-04-29T05:50:40.000Z</time>
</trkpt>
<trkpt lat="45.9225490" lon="10.3136950">
	<ele>768.20</ele>
	<time>2025-04-29T05:50:41.000Z</time>
</trkpt>
<trkpt lat="45.9225390" lon="10.3137190">
	<ele>768.40</ele>
	<time>2025-04-29T05:50:42.000Z</time>
</trkpt>
<trkpt lat="45.9225230" lon="10.3137410">
	<ele>768.40</ele>
	<time>2025-04-29T05:50:43.000Z</time>
</trkpt>
<trkpt lat="45.9225100" lon="10.3137650">
	<ele>768.40</ele>
	<time>2025-04-29T05:50:44.000Z</time>
</trkpt>
<trkpt lat="45.9225040" lon="10.3137790">
	<ele>768.40</ele>
	<time>2025-04-29T05:50:45.000Z</time>
</trkpt>
<trkpt lat="45.9225040" lon="10.3138000">
	<ele>768.60</ele>
	<time>2025-04-29T05:50:46.000Z</time>
</trkpt>
<trkpt lat="45.9225030" lon="10.3138130">
	<ele>768.60</ele>
	<time>2025-04-29T05:50:47.000Z</time>
</trkpt>
<trkpt lat="45.9225010" lon="10.3138210">
	<ele>768.60</ele>
	<time>2025-04-29T05:50:48.000Z</time>
</trkpt>
<trkpt lat="45.9225000" lon="10.3138280">
	<ele>768.60</ele>
	<time>2025-04-29T05:50:49.000Z</time>
</trkpt>
<trkpt lat="45.9224960" lon="10.3138350">
	<ele>768.60</ele>
	<time>2025-04-29T05:50:50.000Z</time>
</trkpt>
<trkpt lat="45.9224970" lon="10.3138400">
	<ele>768.60</ele>
	<time>2025-04-29T05:50:51.000Z</time>
</trkpt>
<trkpt lat="45.9225000" lon="10.3138530">
	<ele>768.80</ele>
	<time>2025-04-29T05:50:52.000Z</time>
</trkpt>
<trkpt lat="45.9224900" lon="10.3138620">
	<ele>768.80</ele>
	<time>2025-04-29T05:50:53.000Z</time>
</trkpt>
<trkpt lat="45.9224880" lon="10.3138680">
	<ele>768.80</ele>
	<time>2025-04-29T05:50:54.000Z</time>
</trkpt>
<trkpt lat="45.9224800" lon="10.3138750">
	<ele>769.00</ele>
	<time>2025-04-29T05:50:55.000Z</time>
</trkpt>
<trkpt lat="45.9224800" lon="10.3138870">
	<ele>769.00</ele>
	<time>2025-04-29T05:50:56.000Z</time>
</trkpt>
<trkpt lat="45.9224830" lon="10.3138900">
	<ele>769.20</ele>
	<time>2025-04-29T05:50:57.000Z</time>
</trkpt>
<trkpt lat="45.9224840" lon="10.3139050">
	<ele>769.20</ele>
	<time>2025-04-29T05:50:58.000Z</time>
</trkpt>
<trkpt lat="45.9224760" lon="10.3139160">
	<ele>769.40</ele>
	<time>2025-04-29T05:50:59.000Z</time>
</trkpt>
<trkpt lat="45.9224670" lon="10.3139260">
	<ele>769.40</ele>
	<time>2025-04-29T05:51:00.000Z</time>
</trkpt>
<trkpt lat="45.9224520" lon="10.3139350">
	<ele>769.40</ele>
	<time>2025-04-29T05:51:01.000Z</time>
</trkpt>
<trkpt lat="45.9224330" lon="10.3139400">
	<ele>769.60</ele>
	<time>2025-04-29T05:51:02.000Z</time>
</trkpt>
<trkpt lat="45.9224130" lon="10.3139480">
	<ele>769.60</ele>
	<time>2025-04-29T05:51:03.000Z</time>
</trkpt>
<trkpt lat="45.9223980" lon="10.3139580">
	<ele>769.80</ele>
	<time>2025-04-29T05:51:04.000Z</time>
</trkpt>
<trkpt lat="45.9223840" lon="10.3139680">
	<ele>769.80</ele>
	<time>2025-04-29T05:51:05.000Z</time>
</trkpt>
<trkpt lat="45.9223800" lon="10.3139870">
	<ele>769.80</ele>
	<time>2025-04-29T05:51:06.000Z</time>
</trkpt>
<trkpt lat="45.9223780" lon="10.3140100">
	<ele>770.00</ele>
	<time>2025-04-29T05:51:07.000Z</time>
</trkpt>
<trkpt lat="45.9223770" lon="10.3140350">
	<ele>770.20</ele>
	<time>2025-04-29T05:51:08.000Z</time>
</trkpt>
<trkpt lat="45.9223660" lon="10.3140660">
	<ele>770.40</ele>
	<time>2025-04-29T05:51:09.000Z</time>
</trkpt>
<trkpt lat="45.9223680" lon="10.3140980">
	<ele>770.40</ele>
	<time>2025-04-29T05:51:10.000Z</time>
</trkpt>
<trkpt lat="45.9223410" lon="10.3141390">
	<ele>770.60</ele>
	<time>2025-04-29T05:51:11.000Z</time>
</trkpt>
<trkpt lat="45.9223140" lon="10.3141790">
	<ele>770.60</ele>
	<time>2025-04-29T05:51:12.000Z</time>
</trkpt>
<trkpt lat="45.9222990" lon="10.3142190">
	<ele>770.60</ele>
	<time>2025-04-29T05:51:13.000Z</time>
</trkpt>
<trkpt lat="45.9223000" lon="10.3142260">
	<ele>770.80</ele>
	<time>2025-04-29T05:51:14.000Z</time>
</trkpt>
<trkpt lat="45.9222990" lon="10.3142380">
	<ele>770.80</ele>
	<time>2025-04-29T05:51:15.000Z</time>
</trkpt>
<trkpt lat="45.9223050" lon="10.3142530">
	<ele>771.00</ele>
	<time>2025-04-29T05:51:16.000Z</time>
</trkpt>
<trkpt lat="45.9223040" lon="10.3142680">
	<ele>771.00</ele>
	<time>2025-04-29T05:51:17.000Z</time>
</trkpt>
<trkpt lat="45.9222960" lon="10.3142750">
	<ele>771.00</ele>
	<time>2025-04-29T05:51:18.000Z</time>
</trkpt>
<trkpt lat="45.9222970" lon="10.3142780">
	<ele>771.20</ele>
	<time>2025-04-29T05:51:19.000Z</time>
</trkpt>
<trkpt lat="45.9222940" lon="10.3142830">
	<ele>771.40</ele>
	<time>2025-04-29T05:51:20.000Z</time>
</trkpt>
<trkpt lat="45.9222910" lon="10.3142890">
	<ele>771.40</ele>
	<time>2025-04-29T05:51:21.000Z</time>
</trkpt>
<trkpt lat="45.9222920" lon="10.3143030">
	<ele>771.60</ele>
	<time>2025-04-29T05:51:22.000Z</time>
</trkpt>
<trkpt lat="45.9222880" lon="10.3143230">
	<ele>771.60</ele>
	<time>2025-04-29T05:51:23.000Z</time>
</trkpt>
<trkpt lat="45.9222850" lon="10.3143430">
	<ele>771.80</ele>
	<time>2025-04-29T05:51:24.000Z</time>
</trkpt>
<trkpt lat="45.9222860" lon="10.3143660">
	<ele>771.80</ele>
	<time>2025-04-29T05:51:25.000Z</time>
</trkpt>
<trkpt lat="45.9222830" lon="10.3143830">
	<ele>771.80</ele>
	<time>2025-04-29T05:51:26.000Z</time>
</trkpt>
<trkpt lat="45.9222790" lon="10.3143930">
	<ele>772.00</ele>
	<time>2025-04-29T05:51:27.000Z</time>
</trkpt>
<trkpt lat="45.9222760" lon="10.3144050">
	<ele>772.20</ele>
	<time>2025-04-29T05:51:28.000Z</time>
</trkpt>
<trkpt lat="45.9222670" lon="10.3144110">
	<ele>772.40</ele>
	<time>2025-04-29T05:51:29.000Z</time>
</trkpt>
<trkpt lat="45.9222680" lon="10.3144190">
	<ele>772.40</ele>
	<time>2025-04-29T05:51:30.000Z</time>
</trkpt>
<trkpt lat="45.9222680" lon="10.3144360">
	<ele>772.60</ele>
	<time>2025-04-29T05:51:31.000Z</time>
</trkpt>
<trkpt lat="45.9222670" lon="10.3144460">
	<ele>772.60</ele>
	<time>2025-04-29T05:51:32.000Z</time>
</trkpt>
<trkpt lat="45.9222650" lon="10.3144600">
	<ele>772.80</ele>
	<time>2025-04-29T05:51:33.000Z</time>
</trkpt>
<trkpt lat="45.9222590" lon="10.3144740">
	<ele>772.80</ele>
	<time>2025-04-29T05:51:34.000Z</time>
</trkpt>
<trkpt lat="45.9222540" lon="10.3144930">
	<ele>773.00</ele>
	<time>2025-04-29T05:51:35.000Z</time>
</trkpt>
<trkpt lat="45.9222450" lon="10.3145140">
	<ele>773.00</ele>
	<time>2025-04-29T05:51:36.000Z</time>
</trkpt>
<trkpt lat="45.9222430" lon="10.3145320">
	<ele>773.20</ele>
	<time>2025-04-29T05:51:37.000Z</time>
</trkpt>
<trkpt lat="45.9222510" lon="10.3145370">
	<ele>773.40</ele>
	<time>2025-04-29T05:51:38.000Z</time>
</trkpt>
<trkpt lat="45.9222540" lon="10.3145490">
	<ele>773.60</ele>
	<time>2025-04-29T05:51:39.000Z</time>
</trkpt>
<trkpt lat="45.9222670" lon="10.3145640">
	<ele>773.60</ele>
	<time>2025-04-29T05:51:40.000Z</time>
</trkpt>
<trkpt lat="45.9222570" lon="10.3145890">
	<ele>773.60</ele>
	<time>2025-04-29T05:51:41.000Z</time>
</trkpt>
<trkpt lat="45.9222530" lon="10.3146090">
	<ele>773.80</ele>
	<time>2025-04-29T05:51:42.000Z</time>
</trkpt>
<trkpt lat="45.9222530" lon="10.3146280">
	<ele>774.00</ele>
	<time>2025-04-29T05:51:43.000Z</time>
</trkpt>
<trkpt lat="45.9222470" lon="10.3146500">
	<ele>774.20</ele>
	<time>2025-04-29T05:51:44.000Z</time>
</trkpt>
<trkpt lat="45.9222340" lon="10.3146770">
	<ele>774.20</ele>
	<time>2025-04-29T05:51:45.000Z</time>
</trkpt>
<trkpt lat="45.9222210" lon="10.3146980">
	<ele>774.40</ele>
	<time>2025-04-29T05:51:46.000Z</time>
</trkpt>
<trkpt lat="45.9222140" lon="10.3146980">
	<ele>774.40</ele>
	<time>2025-04-29T05:51:47.000Z</time>
</trkpt>
<trkpt lat="45.9222180" lon="10.3147020">
	<ele>774.60</ele>
	<time>2025-04-29T05:51:48.000Z</time>
</trkpt>
<trkpt lat="45.9222190" lon="10.3147060">
	<ele>774.80</ele>
	<time>2025-04-29T05:51:49.000Z</time>
</trkpt>
<trkpt lat="45.9222200" lon="10.3147100">
	<ele>775.00</ele>
	<time>2025-04-29T05:51:50.000Z</time>
</trkpt>
<trkpt lat="45.9222190" lon="10.3147200">
	<ele>775.20</ele>
	<time>2025-04-29T05:51:51.000Z</time>
</trkpt>
<trkpt lat="45.9222130" lon="10.3147340">
	<ele>775.40</ele>
	<time>2025-04-29T05:51:52.000Z</time>
</trkpt>
<trkpt lat="45.9222100" lon="10.3147410">
	<ele>775.40</ele>
	<time>2025-04-29T05:51:53.000Z</time>
</trkpt>
<trkpt lat="45.9222030" lon="10.3147510">
	<ele>775.60</ele>
	<time>2025-04-29T05:51:54.000Z</time>
</trkpt>
<trkpt lat="45.9222050" lon="10.3147580">
	<ele>775.60</ele>
	<time>2025-04-29T05:51:55.000Z</time>
</trkpt>
<trkpt lat="45.9221950" lon="10.3147590">
	<ele>775.80</ele>
	<time>2025-04-29T05:51:56.000Z</time>
</trkpt>
<trkpt lat="45.9221750" lon="10.3147620">
	<ele>776.00</ele>
	<time>2025-04-29T05:51:57.000Z</time>
</trkpt>
<trkpt lat="45.9221680" lon="10.3147700">
	<ele>776.20</ele>
	<time>2025-04-29T05:51:58.000Z</time>
</trkpt>
<trkpt lat="45.9221620" lon="10.3147780">
	<ele>776.40</ele>
	<time>2025-04-29T05:51:59.000Z</time>
</trkpt>
<trkpt lat="45.9221600" lon="10.3147820">
	<ele>776.60</ele>
	<time>2025-04-29T05:52:00.000Z</time>
</trkpt>
<trkpt lat="45.9221510" lon="10.3147850">
	<ele>776.60</ele>
	<time>2025-04-29T05:52:01.000Z</time>
</trkpt>
<trkpt lat="45.9221300" lon="10.3148030">
	<ele>776.80</ele>
	<time>2025-04-29T05:52:02.000Z</time>
</trkpt>
<trkpt lat="45.9221220" lon="10.3148190">
	<ele>776.80</ele>
	<time>2025-04-29T05:52:03.000Z</time>
</trkpt>
<trkpt lat="45.9221160" lon="10.3148380">
	<ele>777.00</ele>
	<time>2025-04-29T05:52:04.000Z</time>
</trkpt>
<trkpt lat="45.9221090" lon="10.3148570">
	<ele>777.00</ele>
	<time>2025-04-29T05:52:05.000Z</time>
</trkpt>
<trkpt lat="45.9221080" lon="10.3148980">
	<ele>777.20</ele>
	<time>2025-04-29T05:52:06.000Z</time>
</trkpt>
<trkpt lat="45.9221040" lon="10.3149260">
	<ele>777.20</ele>
	<time>2025-04-29T05:52:07.000Z</time>
</trkpt>
<trkpt lat="45.9221010" lon="10.3149270">
	<ele>777.40</ele>
	<time>2025-04-29T05:52:08.000Z</time>
</trkpt>
<trkpt lat="45.9220900" lon="10.3149410">
	<ele>777.40</ele>
	<time>2025-04-29T05:52:09.000Z</time>
</trkpt>
<trkpt lat="45.9220830" lon="10.3149720">
	<ele>777.60</ele>
	<time>2025-04-29T05:52:10.000Z</time>
</trkpt>
<trkpt lat="45.9220770" lon="10.3149940">
	<ele>777.60</ele>
	<time>2025-04-29T05:52:11.000Z</time>
</trkpt>
<trkpt lat="45.9220590" lon="10.3150200">
	<ele>777.80</ele>
	<time>2025-04-29T05:52:12.000Z</time>
</trkpt>
<trkpt lat="45.9220530" lon="10.3150440">
	<ele>778.00</ele>
	<time>2025-04-29T05:52:13.000Z</time>
</trkpt>
<trkpt lat="45.9220650" lon="10.3150530">
	<ele>778.20</ele>
	<time>2025-04-29T05:52:14.000Z</time>
</trkpt>
<trkpt lat="45.9220720" lon="10.3150570">
	<ele>778.20</ele>
	<time>2025-04-29T05:52:15.000Z</time>
</trkpt>
<trkpt lat="45.9220860" lon="10.3150730">
	<ele>778.40</ele>
	<time>2025-04-29T05:52:16.000Z</time>
</trkpt>
<trkpt lat="45.9220960" lon="10.3150960">
	<ele>778.60</ele>
	<time>2025-04-29T05:52:17.000Z</time>
</trkpt>
<trkpt lat="45.9221010" lon="10.3151060">
	<ele>778.80</ele>
	<time>2025-04-29T05:52:18.000Z</time>
</trkpt>
<trkpt lat="45.9220950" lon="10.3151340">
	<ele>779.00</ele>
	<time>2025-04-29T05:52:19.000Z</time>
</trkpt>
<trkpt lat="45.9221020" lon="10.3151440">
	<ele>779.20</ele>
	<time>2025-04-29T05:52:20.000Z</time>
</trkpt>
<trkpt lat="45.9221100" lon="10.3151350">
	<ele>779.20</ele>
	<time>2025-04-29T05:52:21.000Z</time>
</trkpt>
<trkpt lat="45.9221180" lon="10.3151200">
	<ele>779.40</ele>
	<time>2025-04-29T05:52:22.000Z</time>
</trkpt>
<trkpt lat="45.9221110" lon="10.3151240">
	<ele>779.60</ele>
	<time>2025-04-29T05:52:23.000Z</time>
</trkpt>
<trkpt lat="45.9221010" lon="10.3151380">
	<ele>779.60</ele>
	<time>2025-04-29T05:52:24.000Z</time>
</trkpt>
<trkpt lat="45.9221000" lon="10.3151530">
	<ele>779.80</ele>
	<time>2025-04-29T05:52:25.000Z</time>
</trkpt>
<trkpt lat="45.9220920" lon="10.3151900">
	<ele>779.80</ele>
	<time>2025-04-29T05:52:26.000Z</time>
</trkpt>
<trkpt lat="45.9220980" lon="10.3151850">
	<ele>780.20</ele>
	<time>2025-04-29T05:52:27.000Z</time>
</trkpt>
<trkpt lat="45.9220910" lon="10.3152090">
	<ele>780.60</ele>
	<time>2025-04-29T05:52:28.000Z</time>
</trkpt>
<trkpt lat="45.9220840" lon="10.3152270">
	<ele>780.60</ele>
	<time>2025-04-29T05:52:29.000Z</time>
</trkpt>
<trkpt lat="45.9220830" lon="10.3152380">
	<ele>780.60</ele>
	<time>2025-04-29T05:52:30.000Z</time>
</trkpt>
<trkpt lat="45.9220830" lon="10.3152530">
	<ele>780.80</ele>
	<time>2025-04-29T05:52:31.000Z</time>
</trkpt>
<trkpt lat="45.9220810" lon="10.3152690">
	<ele>780.80</ele>
	<time>2025-04-29T05:52:32.000Z</time>
</trkpt>
<trkpt lat="45.9220780" lon="10.3152800">
	<ele>781.00</ele>
	<time>2025-04-29T05:52:33.000Z</time>
</trkpt>
<trkpt lat="45.9220790" lon="10.3152900">
	<ele>781.20</ele>
	<time>2025-04-29T05:52:34.000Z</time>
</trkpt>
<trkpt lat="45.9220790" lon="10.3153020">
	<ele>781.20</ele>
	<time>2025-04-29T05:52:35.000Z</time>
</trkpt>
<trkpt lat="45.9220760" lon="10.3153180">
	<ele>781.40</ele>
	<time>2025-04-29T05:52:36.000Z</time>
</trkpt>
<trkpt lat="45.9220660" lon="10.3153350">
	<ele>781.40</ele>
	<time>2025-04-29T05:52:37.000Z</time>
</trkpt>
<trkpt lat="45.9220610" lon="10.3153570">
	<ele>781.60</ele>
	<time>2025-04-29T05:52:38.000Z</time>
</trkpt>
<trkpt lat="45.9220470" lon="10.3153820">
	<ele>781.80</ele>
	<time>2025-04-29T05:52:39.000Z</time>
</trkpt>
<trkpt lat="45.9220490" lon="10.3153920">
	<ele>782.00</ele>
	<time>2025-04-29T05:52:40.000Z</time>
</trkpt>
<trkpt lat="45.9220570" lon="10.3154050">
	<ele>782.20</ele>
	<time>2025-04-29T05:52:41.000Z</time>
</trkpt>
<trkpt lat="45.9220620" lon="10.3154080">
	<ele>782.40</ele>
	<time>2025-04-29T05:52:42.000Z</time>
</trkpt>
<trkpt lat="45.9220680" lon="10.3154100">
	<ele>782.40</ele>
	<time>2025-04-29T05:52:43.000Z</time>
</trkpt>
<trkpt lat="45.9220770" lon="10.3154120">
	<ele>782.60</ele>
	<time>2025-04-29T05:52:44.000Z</time>
</trkpt>
<trkpt lat="45.9220840" lon="10.3154220">
	<ele>782.80</ele>
	<time>2025-04-29T05:52:45.000Z</time>
</trkpt>
<trkpt lat="45.9220870" lon="10.3154370">
	<ele>783.00</ele>
	<time>2025-04-29T05:52:46.000Z</time>
</trkpt>
<trkpt lat="45.9220860" lon="10.3154550">
	<ele>783.20</ele>
	<time>2025-04-29T05:52:47.000Z</time>
</trkpt>
<trkpt lat="45.9220810" lon="10.3154770">
	<ele>783.40</ele>
	<time>2025-04-29T05:52:48.000Z</time>
</trkpt>
<trkpt lat="45.9220750" lon="10.3154920">
	<ele>783.60</ele>
	<time>2025-04-29T05:52:49.000Z</time>
</trkpt>
<trkpt lat="45.9220760" lon="10.3154970">
	<ele>784.00</ele>
	<time>2025-04-29T05:52:50.000Z</time>
</trkpt>
<trkpt lat="45.9220720" lon="10.3155050">
	<ele>784.20</ele>
	<time>2025-04-29T05:52:51.000Z</time>
</trkpt>
<trkpt lat="45.9220710" lon="10.3155170">
	<ele>784.20</ele>
	<time>2025-04-29T05:52:52.000Z</time>
</trkpt>
<trkpt lat="45.9220670" lon="10.3155320">
	<ele>784.40</ele>
	<time>2025-04-29T05:52:53.000Z</time>
</trkpt>
<trkpt lat="45.9220610" lon="10.3155430">
	<ele>784.60</ele>
	<time>2025-04-29T05:52:54.000Z</time>
</trkpt>
<trkpt lat="45.9220630" lon="10.3155500">
	<ele>784.80</ele>
	<time>2025-04-29T05:52:55.000Z</time>
</trkpt>
<trkpt lat="45.9220640" lon="10.3155560">
	<ele>785.00</ele>
	<time>2025-04-29T05:52:56.000Z</time>
</trkpt>
<trkpt lat="45.9220600" lon="10.3155550">
	<ele>785.20</ele>
	<time>2025-04-29T05:52:57.000Z</time>
</trkpt>
<trkpt lat="45.9220520" lon="10.3155620">
	<ele>785.20</ele>
	<time>2025-04-29T05:52:58.000Z</time>
</trkpt>
<trkpt lat="45.9220420" lon="10.3155660">
	<ele>785.40</ele>
	<time>2025-04-29T05:52:59.000Z</time>
</trkpt>
<trkpt lat="45.9220330" lon="10.3155710">
	<ele>785.60</ele>
	<time>2025-04-29T05:53:00.000Z</time>
</trkpt>
<trkpt lat="45.9220290" lon="10.3155760">
	<ele>785.60</ele>
	<time>2025-04-29T05:53:01.000Z</time>
</trkpt>
<trkpt lat="45.9220200" lon="10.3155820">
	<ele>785.80</ele>
	<time>2025-04-29T05:53:02.000Z</time>
</trkpt>
<trkpt lat="45.9220080" lon="10.3155910">
	<ele>786.00</ele>
	<time>2025-04-29T05:53:03.000Z</time>
</trkpt>
<trkpt lat="45.9219900" lon="10.3155980">
	<ele>786.00</ele>
	<time>2025-04-29T05:53:04.000Z</time>
</trkpt>
<trkpt lat="45.9219970" lon="10.3156060">
	<ele>786.20</ele>
	<time>2025-04-29T05:53:05.000Z</time>
</trkpt>
<trkpt lat="45.9219930" lon="10.3156250">
	<ele>786.40</ele>
	<time>2025-04-29T05:53:06.000Z</time>
</trkpt>
<trkpt lat="45.9219900" lon="10.3156350">
	<ele>786.40</ele>
	<time>2025-04-29T05:53:07.000Z</time>
</trkpt>
<trkpt lat="45.9219990" lon="10.3156500">
	<ele>786.60</ele>
	<time>2025-04-29T05:53:08.000Z</time>
</trkpt>
<trkpt lat="45.9220060" lon="10.3156720">
	<ele>786.80</ele>
	<time>2025-04-29T05:53:09.000Z</time>
</trkpt>
<trkpt lat="45.9220030" lon="10.3156880">
	<ele>786.80</ele>
	<time>2025-04-29T05:53:10.000Z</time>
</trkpt>
<trkpt lat="45.9219960" lon="10.3156980">
	<ele>787.00</ele>
	<time>2025-04-29T05:53:11.000Z</time>
</trkpt>
<trkpt lat="45.9219930" lon="10.3157050">
	<ele>787.20</ele>
	<time>2025-04-29T05:53:12.000Z</time>
</trkpt>
<trkpt lat="45.9219880" lon="10.3157080">
	<ele>787.40</ele>
	<time>2025-04-29T05:53:13.000Z</time>
</trkpt>
<trkpt lat="45.9219800" lon="10.3157070">
	<ele>787.40</ele>
	<time>2025-04-29T05:53:14.000Z</time>
</trkpt>
<trkpt lat="45.9219770" lon="10.3157140">
	<ele>787.60</ele>
	<time>2025-04-29T05:53:15.000Z</time>
</trkpt>
<trkpt lat="45.9219700" lon="10.3157170">
	<ele>787.80</ele>
	<time>2025-04-29T05:53:16.000Z</time>
</trkpt>
<trkpt lat="45.9219570" lon="10.3157130">
	<ele>787.80</ele>
	<time>2025-04-29T05:53:17.000Z</time>
</trkpt>
<trkpt lat="45.9219470" lon="10.3157070">
	<ele>788.00</ele>
	<time>2025-04-29T05:53:18.000Z</time>
</trkpt>
<trkpt lat="45.9219410" lon="10.3157090">
	<ele>788.20</ele>
	<time>2025-04-29T05:53:19.000Z</time>
</trkpt>
<trkpt lat="45.9219370" lon="10.3157160">
	<ele>788.20</ele>
	<time>2025-04-29T05:53:20.000Z</time>
</trkpt>
<trkpt lat="45.9219290" lon="10.3157340">
	<ele>788.40</ele>
	<time>2025-04-29T05:53:21.000Z</time>
</trkpt>
<trkpt lat="45.9219210" lon="10.3157500">
	<ele>788.60</ele>
	<time>2025-04-29T05:53:22.000Z</time>
</trkpt>
<trkpt lat="45.9219170" lon="10.3157660">
	<ele>788.80</ele>
	<time>2025-04-29T05:53:23.000Z</time>
</trkpt>
<trkpt lat="45.9219110" lon="10.3157790">
	<ele>788.80</ele>
	<time>2025-04-29T05:53:24.000Z</time>
</trkpt>
<trkpt lat="45.9219090" lon="10.3157930">
	<ele>789.00</ele>
	<time>2025-04-29T05:53:25.000Z</time>
</trkpt>
<trkpt lat="45.9218950" lon="10.3158020">
	<ele>789.20</ele>
	<time>2025-04-29T05:53:26.000Z</time>
</trkpt>
<trkpt lat="45.9218920" lon="10.3158140">
	<ele>789.40</ele>
	<time>2025-04-29T05:53:27.000Z</time>
</trkpt>
<trkpt lat="45.9218860" lon="10.3158230">
	<ele>789.40</ele>
	<time>2025-04-29T05:53:28.000Z</time>
</trkpt>
<trkpt lat="45.9218850" lon="10.3158300">
	<ele>789.60</ele>
	<time>2025-04-29T05:53:29.000Z</time>
</trkpt>
<trkpt lat="45.9218710" lon="10.3158300">
	<ele>789.80</ele>
	<time>2025-04-29T05:53:30.000Z</time>
</trkpt>
<trkpt lat="45.9218620" lon="10.3158340">
	<ele>790.00</ele>
	<time>2025-04-29T05:53:31.000Z</time>
</trkpt>
<trkpt lat="45.9218510" lon="10.3158420">
	<ele>790.00</ele>
	<time>2025-04-29T05:53:32.000Z</time>
</trkpt>
<trkpt lat="45.9218460" lon="10.3158550">
	<ele>790.20</ele>
	<time>2025-04-29T05:53:33.000Z</time>
</trkpt>
<trkpt lat="45.9218380" lon="10.3158690">
	<ele>790.40</ele>
	<time>2025-04-29T05:53:34.000Z</time>
</trkpt>
<trkpt lat="45.9218240" lon="10.3158790">
	<ele>790.60</ele>
	<time>2025-04-29T05:53:35.000Z</time>
</trkpt>
<trkpt lat="45.9218100" lon="10.3158940">
	<ele>790.80</ele>
	<time>2025-04-29T05:53:36.000Z</time>
</trkpt>
<trkpt lat="45.9217930" lon="10.3159040">
	<ele>790.80</ele>
	<time>2025-04-29T05:53:37.000Z</time>
</trkpt>
<trkpt lat="45.9217870" lon="10.3159120">
	<ele>791.00</ele>
	<time>2025-04-29T05:53:38.000Z</time>
</trkpt>
<trkpt lat="45.9217820" lon="10.3159220">
	<ele>791.20</ele>
	<time>2025-04-29T05:53:39.000Z</time>
</trkpt>
<trkpt lat="45.9217760" lon="10.3159430">
	<ele>791.40</ele>
	<time>2025-04-29T05:53:40.000Z</time>
</trkpt>
<trkpt lat="45.9217700" lon="10.3159650">
	<ele>791.40</ele>
	<time>2025-04-29T05:53:41.000Z</time>
</trkpt>
<trkpt lat="45.9217690" lon="10.3159860">
	<ele>791.60</ele>
	<time>2025-04-29T05:53:42.000Z</time>
</trkpt>
<trkpt lat="45.9217770" lon="10.3159880">
	<ele>791.80</ele>
	<time>2025-04-29T05:53:43.000Z</time>
</trkpt>
<trkpt lat="45.9217720" lon="10.3159870">
	<ele>792.00</ele>
	<time>2025-04-29T05:53:44.000Z</time>
</trkpt>
<trkpt lat="45.9217710" lon="10.3160070">
	<ele>792.20</ele>
	<time>2025-04-29T05:53:45.000Z</time>
</trkpt>
<trkpt lat="45.9217590" lon="10.3160420">
	<ele>792.40</ele>
	<time>2025-04-29T05:53:46.000Z</time>
</trkpt>
<trkpt lat="45.9217530" lon="10.3160570">
	<ele>792.60</ele>
	<time>2025-04-29T05:53:47.000Z</time>
</trkpt>
<trkpt lat="45.9217490" lon="10.3160690">
	<ele>792.80</ele>
	<time>2025-04-29T05:53:48.000Z</time>
</trkpt>
<trkpt lat="45.9217380" lon="10.3160780">
	<ele>793.00</ele>
	<time>2025-04-29T05:53:49.000Z</time>
</trkpt>
<trkpt lat="45.9217230" lon="10.3160940">
	<ele>793.20</ele>
	<time>2025-04-29T05:53:50.000Z</time>
</trkpt>
<trkpt lat="45.9217060" lon="10.3161100">
	<ele>793.40</ele>
	<time>2025-04-29T05:53:51.000Z</time>
</trkpt>
<trkpt lat="45.9217000" lon="10.3161310">
	<ele>793.80</ele>
	<time>2025-04-29T05:53:52.000Z</time>
</trkpt>
<trkpt lat="45.9216950" lon="10.3161450">
	<ele>794.20</ele>
	<time>2025-04-29T05:53:53.000Z</time>
</trkpt>
<trkpt lat="45.9216800" lon="10.3161560">
	<ele>794.20</ele>
	<time>2025-04-29T05:53:54.000Z</time>
</trkpt>
<trkpt lat="45.9216860" lon="10.3161640">
	<ele>794.60</ele>
	<time>2025-04-29T05:53:55.000Z</time>
</trkpt>
<trkpt lat="45.9216860" lon="10.3161670">
	<ele>794.80</ele>
	<time>2025-04-29T05:53:56.000Z</time>
</trkpt>
<trkpt lat="45.9216900" lon="10.3161660">
	<ele>795.00</ele>
	<time>2025-04-29T05:53:57.000Z</time>
</trkpt>
<trkpt lat="45.9216920" lon="10.3161720">
	<ele>795.00</ele>
	<time>2025-04-29T05:53:58.000Z</time>
</trkpt>
<trkpt lat="45.9216940" lon="10.3161730">
	<ele>795.20</ele>
	<time>2025-04-29T05:53:59.000Z</time>
</trkpt>
<trkpt lat="45.9216920" lon="10.3161780">
	<ele>795.40</ele>
	<time>2025-04-29T05:54:00.000Z</time>
</trkpt>
<trkpt lat="45.9216780" lon="10.3161900">
	<ele>795.60</ele>
	<time>2025-04-29T05:54:01.000Z</time>
</trkpt>
<trkpt lat="45.9216780" lon="10.3162000">
	<ele>795.60</ele>
	<time>2025-04-29T05:54:02.000Z</time>
</trkpt>
<trkpt lat="45.9216650" lon="10.3162010">
	<ele>795.80</ele>
	<time>2025-04-29T05:54:03.000Z</time>
</trkpt>
<trkpt lat="45.9216590" lon="10.3162080">
	<ele>796.00</ele>
	<time>2025-04-29T05:54:04.000Z</time>
</trkpt>
<trkpt lat="45.9216560" lon="10.3162110">
	<ele>796.20</ele>
	<time>2025-04-29T05:54:05.000Z</time>
</trkpt>
<trkpt lat="45.9216530" lon="10.3162140">
	<ele>796.20</ele>
	<time>2025-04-29T05:54:06.000Z</time>
</trkpt>
<trkpt lat="45.9216560" lon="10.3162190">
	<ele>796.40</ele>
	<time>2025-04-29T05:54:07.000Z</time>
</trkpt>
<trkpt lat="45.9216540" lon="10.3162280">
	<ele>796.60</ele>
	<time>2025-04-29T05:54:08.000Z</time>
</trkpt>
<trkpt lat="45.9216570" lon="10.3162380">
	<ele>796.60</ele>
	<time>2025-04-29T05:54:09.000Z</time>
</trkpt>
<trkpt lat="45.9216490" lon="10.3162430">
	<ele>796.80</ele>
	<time>2025-04-29T05:54:10.000Z</time>
</trkpt>
<trkpt lat="45.9216300" lon="10.3162500">
	<ele>796.80</ele>
	<time>2025-04-29T05:54:11.000Z</time>
</trkpt>
<trkpt lat="45.9216090" lon="10.3162590">
	<ele>797.00</ele>
	<time>2025-04-29T05:54:12.000Z</time>
</trkpt>
<trkpt lat="45.9215960" lon="10.3162710">
	<ele>797.00</ele>
	<time>2025-04-29T05:54:13.000Z</time>
</trkpt>
<trkpt lat="45.9215880" lon="10.3162780">
	<ele>797.00</ele>
	<time>2025-04-29T05:54:14.000Z</time>
</trkpt>
<trkpt lat="45.9215800" lon="10.3162810">
	<ele>797.20</ele>
	<time>2025-04-29T05:54:15.000Z</time>
</trkpt>
<trkpt lat="45.9215800" lon="10.3162860">
	<ele>797.40</ele>
	<time>2025-04-29T05:54:16.000Z</time>
</trkpt>
<trkpt lat="45.9215760" lon="10.3162980">
	<ele>797.40</ele>
	<time>2025-04-29T05:54:17.000Z</time>
</trkpt>
<trkpt lat="45.9215720" lon="10.3163110">
	<ele>797.60</ele>
	<time>2025-04-29T05:54:18.000Z</time>
</trkpt>
<trkpt lat="45.9215630" lon="10.3163220">
	<ele>797.60</ele>
	<time>2025-04-29T05:54:19.000Z</time>
</trkpt>
<trkpt lat="45.9215590" lon="10.3163380">
	<ele>797.80</ele>
	<time>2025-04-29T05:54:20.000Z</time>
</trkpt>
<trkpt lat="45.9215590" lon="10.3163550">
	<ele>797.80</ele>
	<time>2025-04-29T05:54:21.000Z</time>
</trkpt>
<trkpt lat="45.9215600" lon="10.3163690">
	<ele>798.00</ele>
	<time>2025-04-29T05:54:22.000Z</time>
</trkpt>
<trkpt lat="45.9215590" lon="10.3163800">
	<ele>798.00</ele>
	<time>2025-04-29T05:54:23.000Z</time>
</trkpt>
<trkpt lat="45.9215520" lon="10.3163890">
	<ele>798.20</ele>
	<time>2025-04-29T05:54:24.000Z</time>
</trkpt>
<trkpt lat="45.9215350" lon="10.3164150">
	<ele>798.40</ele>
	<time>2025-04-29T05:54:25.000Z</time>
</trkpt>
<trkpt lat="45.9215300" lon="10.3164320">
	<ele>798.40</ele>
	<time>2025-04-29T05:54:26.000Z</time>
</trkpt>
<trkpt lat="45.9215220" lon="10.3164470">
	<ele>798.60</ele>
	<time>2025-04-29T05:54:27.000Z</time>
</trkpt>
<trkpt lat="45.9215040" lon="10.3164650">
	<ele>798.60</ele>
	<time>2025-04-29T05:54:28.000Z</time>
</trkpt>
<trkpt lat="45.9214850" lon="10.3164970">
	<ele>798.60</ele>
	<time>2025-04-29T05:54:29.000Z</time>
</trkpt>
<trkpt lat="45.9214760" lon="10.3165240">
	<ele>798.80</ele>
	<time>2025-04-29T05:54:30.000Z</time>
</trkpt>
<trkpt lat="45.9214720" lon="10.3165390">
	<ele>798.80</ele>
	<time>2025-04-29T05:54:31.000Z</time>
</trkpt>
<trkpt lat="45.9214670" lon="10.3165650">
	<ele>799.00</ele>
	<time>2025-04-29T05:54:32.000Z</time>
</trkpt>
<trkpt lat="45.9214590" lon="10.3165840">
	<ele>799.00</ele>
	<time>2025-04-29T05:54:33.000Z</time>
</trkpt>
<trkpt lat="45.9214570" lon="10.3166020">
	<ele>799.20</ele>
	<time>2025-04-29T05:54:34.000Z</time>
</trkpt>
<trkpt lat="45.9214600" lon="10.3166270">
	<ele>799.40</ele>
	<time>2025-04-29T05:54:35.000Z</time>
</trkpt>
<trkpt lat="45.9214700" lon="10.3166520">
	<ele>799.60</ele>
	<time>2025-04-29T05:54:36.000Z</time>
</trkpt>
<trkpt lat="45.9214770" lon="10.3166770">
	<ele>799.60</ele>
	<time>2025-04-29T05:54:37.000Z</time>
</trkpt>
<trkpt lat="45.9214700" lon="10.3166950">
	<ele>799.60</ele>
	<time>2025-04-29T05:54:38.000Z</time>
</trkpt>
<trkpt lat="45.9214690" lon="10.3167170">
	<ele>799.80</ele>
	<time>2025-04-29T05:54:39.000Z</time>
</trkpt>
<trkpt lat="45.9214840" lon="10.3167280">
	<ele>799.80</ele>
	<time>2025-04-29T05:54:40.000Z</time>
</trkpt>
<trkpt lat="45.9215020" lon="10.3167390">
	<ele>800.00</ele>
	<time>2025-04-29T05:54:41.000Z</time>
</trkpt>
<trkpt lat="45.9215210" lon="10.3167440">
	<ele>800.20</ele>
	<time>2025-04-29T05:54:42.000Z</time>
</trkpt>
<trkpt lat="45.9215260" lon="10.3167630">
	<ele>800.20</ele>
	<time>2025-04-29T05:54:43.000Z</time>
</trkpt>
<trkpt lat="45.9215180" lon="10.3167740">
	<ele>800.40</ele>
	<time>2025-04-29T05:54:44.000Z</time>
</trkpt>
<trkpt lat="45.9215150" lon="10.3167920">
	<ele>800.40</ele>
	<time>2025-04-29T05:54:45.000Z</time>
</trkpt>
<trkpt lat="45.9215170" lon="10.3168040">
	<ele>800.60</ele>
	<time>2025-04-29T05:54:46.000Z</time>
</trkpt>
<trkpt lat="45.9215130" lon="10.3168260">
	<ele>800.80</ele>
	<time>2025-04-29T05:54:47.000Z</time>
</trkpt>
<trkpt lat="45.9215230" lon="10.3168510">
	<ele>801.00</ele>
	<time>2025-04-29T05:54:48.000Z</time>
</trkpt>
<trkpt lat="45.9215330" lon="10.3168740">
	<ele>801.00</ele>
	<time>2025-04-29T05:54:49.000Z</time>
</trkpt>
<trkpt lat="45.9215470" lon="10.3168820">
	<ele>801.20</ele>
	<time>2025-04-29T05:54:50.000Z</time>
</trkpt>
<trkpt lat="45.9215620" lon="10.3168820">
	<ele>801.20</ele>
	<time>2025-04-29T05:54:51.000Z</time>
</trkpt>
<trkpt lat="45.9215760" lon="10.3168650">
	<ele>801.20</ele>
	<time>2025-04-29T05:54:52.000Z</time>
</trkpt>
<trkpt lat="45.9215800" lon="10.3168560">
	<ele>801.40</ele>
	<time>2025-04-29T05:54:53.000Z</time>
</trkpt>
<trkpt lat="45.9215700" lon="10.3168660">
	<ele>801.40</ele>
	<time>2025-04-29T05:54:54.000Z</time>
</trkpt>
<trkpt lat="45.9215570" lon="10.3168860">
	<ele>801.60</ele>
	<time>2025-04-29T05:54:55.000Z</time>
</trkpt>
<trkpt lat="45.9215380" lon="10.3169020">
	<ele>801.80</ele>
	<time>2025-04-29T05:54:56.000Z</time>
</trkpt>
<trkpt lat="45.9215290" lon="10.3169090">
	<ele>802.00</ele>
	<time>2025-04-29T05:54:57.000Z</time>
</trkpt>
<trkpt lat="45.9215180" lon="10.3169230">
	<ele>802.20</ele>
	<time>2025-04-29T05:54:58.000Z</time>
</trkpt>
<trkpt lat="45.9215140" lon="10.3169320">
	<ele>802.20</ele>
	<time>2025-04-29T05:54:59.000Z</time>
</trkpt>
<trkpt lat="45.9215150" lon="10.3169420">
	<ele>802.40</ele>
	<time>2025-04-29T05:55:00.000Z</time>
</trkpt>
<trkpt lat="45.9215190" lon="10.3169460">
	<ele>802.40</ele>
	<time>2025-04-29T05:55:01.000Z</time>
</trkpt>
<trkpt lat="45.9215230" lon="10.3169470">
	<ele>802.60</ele>
	<time>2025-04-29T05:55:02.000Z</time>
</trkpt>
<trkpt lat="45.9215230" lon="10.3169470">
	<ele>802.80</ele>
	<time>2025-04-29T05:55:03.000Z</time>
</trkpt>
<trkpt lat="45.9215270" lon="10.3169500">
	<ele>803.00</ele>
	<time>2025-04-29T05:55:04.000Z</time>
</trkpt>
<trkpt lat="45.9215270" lon="10.3169570">
	<ele>803.20</ele>
	<time>2025-04-29T05:55:05.000Z</time>
</trkpt>
<trkpt lat="45.9215290" lon="10.3169680">
	<ele>803.60</ele>
	<time>2025-04-29T05:55:06.000Z</time>
</trkpt>
<trkpt lat="45.9215280" lon="10.3169810">
	<ele>803.80</ele>
	<time>2025-04-29T05:55:07.000Z</time>
</trkpt>
<trkpt lat="45.9215210" lon="10.3169990">
	<ele>803.80</ele>
	<time>2025-04-29T05:55:08.000Z</time>
</trkpt>
<trkpt lat="45.9215160" lon="10.3170110">
	<ele>804.00</ele>
	<time>2025-04-29T05:55:09.000Z</time>
</trkpt>
<trkpt lat="45.9215120" lon="10.3170170">
	<ele>804.00</ele>
	<time>2025-04-29T05:55:10.000Z</time>
</trkpt>
<trkpt lat="45.9215150" lon="10.3170180">
	<ele>804.40</ele>
	<time>2025-04-29T05:55:11.000Z</time>
</trkpt>
<trkpt lat="45.9215140" lon="10.3170160">
	<ele>804.40</ele>
	<time>2025-04-29T05:55:12.000Z</time>
</trkpt>
<trkpt lat="45.9215090" lon="10.3170200">
	<ele>804.60</ele>
	<time>2025-04-29T05:55:13.000Z</time>
</trkpt>
<trkpt lat="45.9215030" lon="10.3170180">
	<ele>804.80</ele>
	<time>2025-04-29T05:55:14.000Z</time>
</trkpt>
<trkpt lat="45.9215000" lon="10.3170190">
	<ele>804.80</ele>
	<time>2025-04-29T05:55:15.000Z</time>
</trkpt>
<trkpt lat="45.9214950" lon="10.3170260">
	<ele>805.20</ele>
	<time>2025-04-29T05:55:16.000Z</time>
</trkpt>
<trkpt lat="45.9214820" lon="10.3170450">
	<ele>805.40</ele>
	<time>2025-04-29T05:55:17.000Z</time>
</trkpt>
<trkpt lat="45.9214690" lon="10.3170600">
	<ele>805.40</ele>
	<time>2025-04-29T05:55:18.000Z</time>
</trkpt>
<trkpt lat="45.9214580" lon="10.3170740">
	<ele>805.80</ele>
	<time>2025-04-29T05:55:19.000Z</time>
</trkpt>
<trkpt lat="45.9214550" lon="10.3170850">
	<ele>806.00</ele>
	<time>2025-04-29T05:55:20.000Z</time>
</trkpt>
<trkpt lat="45.9214550" lon="10.3170960">
	<ele>806.20</ele>
	<time>2025-04-29T05:55:21.000Z</time>
</trkpt>
<trkpt lat="45.9214540" lon="10.3171060">
	<ele>806.40</ele>
	<time>2025-04-29T05:55:22.000Z</time>
</trkpt>
<trkpt lat="45.9214550" lon="10.3171140">
	<ele>806.60</ele>
	<time>2025-04-29T05:55:23.000Z</time>
</trkpt>
<trkpt lat="45.9214520" lon="10.3171180">
	<ele>806.80</ele>
	<time>2025-04-29T05:55:24.000Z</time>
</trkpt>
<trkpt lat="45.9214400" lon="10.3171230">
	<ele>807.00</ele>
	<time>2025-04-29T05:55:25.000Z</time>
</trkpt>
<trkpt lat="45.9214330" lon="10.3171270">
	<ele>807.00</ele>
	<time>2025-04-29T05:55:26.000Z</time>
</trkpt>
<trkpt lat="45.9214210" lon="10.3171270">
	<ele>807.20</ele>
	<time>2025-04-29T05:55:27.000Z</time>
</trkpt>
<trkpt lat="45.9214100" lon="10.3171290">
	<ele>807.20</ele>
	<time>2025-04-29T05:55:28.000Z</time>
</trkpt>
<trkpt lat="45.9214000" lon="10.3171350">
	<ele>807.40</ele>
	<time>2025-04-29T05:55:29.000Z</time>
</trkpt>
<trkpt lat="45.9213950" lon="10.3171470">
	<ele>807.60</ele>
	<time>2025-04-29T05:55:30.000Z</time>
</trkpt>
<trkpt lat="45.9213920" lon="10.3171570">
	<ele>807.80</ele>
	<time>2025-04-29T05:55:31.000Z</time>
</trkpt>
<trkpt lat="45.9213910" lon="10.3171660">
	<ele>807.80</ele>
	<time>2025-04-29T05:55:32.000Z</time>
</trkpt>
<trkpt lat="45.9213940" lon="10.3171760">
	<ele>808.00</ele>
	<time>2025-04-29T05:55:33.000Z</time>
</trkpt>
<trkpt lat="45.9213940" lon="10.3171840">
	<ele>808.00</ele>
	<time>2025-04-29T05:55:34.000Z</time>
</trkpt>
<trkpt lat="45.9213910" lon="10.3171870">
	<ele>808.20</ele>
	<time>2025-04-29T05:55:35.000Z</time>
</trkpt>
<trkpt lat="45.9213880" lon="10.3171930">
	<ele>808.20</ele>
	<time>2025-04-29T05:55:36.000Z</time>
</trkpt>
<trkpt lat="45.9213790" lon="10.3171990">
	<ele>808.40</ele>
	<time>2025-04-29T05:55:37.000Z</time>
</trkpt>
<trkpt lat="45.9213750" lon="10.3172090">
	<ele>808.40</ele>
	<time>2025-04-29T05:55:38.000Z</time>
</trkpt>
<trkpt lat="45.9213680" lon="10.3172150">
	<ele>808.60</ele>
	<time>2025-04-29T05:55:39.000Z</time>
</trkpt>
<trkpt lat="45.9213580" lon="10.3172270">
	<ele>808.80</ele>
	<time>2025-04-29T05:55:40.000Z</time>
</trkpt>
<trkpt lat="45.9213510" lon="10.3172390">
	<ele>808.80</ele>
	<time>2025-04-29T05:55:41.000Z</time>
</trkpt>
<trkpt lat="45.9213440" lon="10.3172510">
	<ele>809.00</ele>
	<time>2025-04-29T05:55:42.000Z</time>
</trkpt>
<trkpt lat="45.9213260" lon="10.3172580">
	<ele>809.00</ele>
	<time>2025-04-29T05:55:43.000Z</time>
</trkpt>
<trkpt lat="45.9213120" lon="10.3172730">
	<ele>809.00</ele>
	<time>2025-04-29T05:55:44.000Z</time>
</trkpt>
<trkpt lat="45.9213000" lon="10.3172890">
	<ele>809.20</ele>
	<time>2025-04-29T05:55:45.000Z</time>
</trkpt>
<trkpt lat="45.9213020" lon="10.3173080">
	<ele>809.20</ele>
	<time>2025-04-29T05:55:46.000Z</time>
</trkpt>
<trkpt lat="45.9212980" lon="10.3173270">
	<ele>809.40</ele>
	<time>2025-04-29T05:55:47.000Z</time>
</trkpt>
<trkpt lat="45.9212980" lon="10.3173350">
	<ele>809.40</ele>
	<time>2025-04-29T05:55:48.000Z</time>
</trkpt>
<trkpt lat="45.9212910" lon="10.3173450">
	<ele>809.40</ele>
	<time>2025-04-29T05:55:49.000Z</time>
</trkpt>
<trkpt lat="45.9212820" lon="10.3173570">
	<ele>809.60</ele>
	<time>2025-04-29T05:55:50.000Z</time>
</trkpt>
<trkpt lat="45.9212730" lon="10.3173650">
	<ele>809.60</ele>
	<time>2025-04-29T05:55:51.000Z</time>
</trkpt>
<trkpt lat="45.9212640" lon="10.3173730">
	<ele>809.60</ele>
	<time>2025-04-29T05:55:52.000Z</time>
</trkpt>
<trkpt lat="45.9212590" lon="10.3173820">
	<ele>809.60</ele>
	<time>2025-04-29T05:55:53.000Z</time>
</trkpt>
<trkpt lat="45.9212560" lon="10.3173960">
	<ele>809.80</ele>
	<time>2025-04-29T05:55:54.000Z</time>
</trkpt>
<trkpt lat="45.9212550" lon="10.3174170">
	<ele>809.80</ele>
	<time>2025-04-29T05:55:55.000Z</time>
</trkpt>
<trkpt lat="45.9212420" lon="10.3174300">
	<ele>810.00</ele>
	<time>2025-04-29T05:55:56.000Z</time>
</trkpt>
<trkpt lat="45.9212330" lon="10.3174460">
	<ele>810.00</ele>
	<time>2025-04-29T05:55:57.000Z</time>
</trkpt>
<trkpt lat="45.9212230" lon="10.3174650">
	<ele>810.00</ele>
	<time>2025-04-29T05:55:58.000Z</time>
</trkpt>
<trkpt lat="45.9212120" lon="10.3174800">
	<ele>810.20</ele>
	<time>2025-04-29T05:55:59.000Z</time>
</trkpt>
<trkpt lat="45.9212090" lon="10.3174950">
	<ele>810.20</ele>
	<time>2025-04-29T05:56:00.000Z</time>
</trkpt>
<trkpt lat="45.9212090" lon="10.3175010">
	<ele>810.20</ele>
	<time>2025-04-29T05:56:01.000Z</time>
</trkpt>
<trkpt lat="45.9212070" lon="10.3175050">
	<ele>810.40</ele>
	<time>2025-04-29T05:56:02.000Z</time>
</trkpt>
<trkpt lat="45.9212020" lon="10.3175480">
	<ele>810.60</ele>
	<time>2025-04-29T05:56:03.000Z</time>
</trkpt>
<trkpt lat="45.9212020" lon="10.3176040">
	<ele>810.80</ele>
	<time>2025-04-29T05:56:04.000Z</time>
</trkpt>
<trkpt lat="45.9212050" lon="10.3176270">
	<ele>811.00</ele>
	<time>2025-04-29T05:56:05.000Z</time>
</trkpt>
<trkpt lat="45.9212000" lon="10.3176690">
	<ele>811.00</ele>
	<time>2025-04-29T05:56:06.000Z</time>
</trkpt>
<trkpt lat="45.9212080" lon="10.3176780">
	<ele>811.20</ele>
	<time>2025-04-29T05:56:07.000Z</time>
</trkpt>
<trkpt lat="45.9212090" lon="10.3176780">
	<ele>811.40</ele>
	<time>2025-04-29T05:56:08.000Z</time>
</trkpt>
<trkpt lat="45.9212230" lon="10.3176650">
	<ele>811.40</ele>
	<time>2025-04-29T05:56:09.000Z</time>
</trkpt>
<trkpt lat="45.9212320" lon="10.3176640">
	<ele>811.60</ele>
	<time>2025-04-29T05:56:10.000Z</time>
</trkpt>
<trkpt lat="45.9212460" lon="10.3176770">
	<ele>811.80</ele>
	<time>2025-04-29T05:56:11.000Z</time>
</trkpt>
<trkpt lat="45.9212490" lon="10.3176990">
	<ele>812.00</ele>
	<time>2025-04-29T05:56:12.000Z</time>
</trkpt>
<trkpt lat="45.9212550" lon="10.3177130">
	<ele>812.00</ele>
	<time>2025-04-29T05:56:13.000Z</time>
</trkpt>
<trkpt lat="45.9212620" lon="10.3177270">
	<ele>812.20</ele>
	<time>2025-04-29T05:56:14.000Z</time>
</trkpt>
<trkpt lat="45.9212580" lon="10.3177380">
	<ele>812.40</ele>
	<time>2025-04-29T05:56:15.000Z</time>
</trkpt>
<trkpt lat="45.9212490" lon="10.3177530">
	<ele>812.60</ele>
	<time>2025-04-29T05:56:16.000Z</time>
</trkpt>
<trkpt lat="45.9212380" lon="10.3177680">
	<ele>812.60</ele>
	<time>2025-04-29T05:56:17.000Z</time>
</trkpt>
<trkpt lat="45.9212070" lon="10.3177790">
	<ele>812.80</ele>
	<time>2025-04-29T05:56:18.000Z</time>
</trkpt>
<trkpt lat="45.9212030" lon="10.3177850">
	<ele>812.80</ele>
	<time>2025-04-29T05:56:19.000Z</time>
</trkpt>
<trkpt lat="45.9211990" lon="10.3177970">
	<ele>813.00</ele>
	<time>2025-04-29T05:56:20.000Z</time>
</trkpt>
<trkpt lat="45.9211960" lon="10.3178080">
	<ele>813.20</ele>
	<time>2025-04-29T05:56:21.000Z</time>
</trkpt>
<trkpt lat="45.9211950" lon="10.3178140">
	<ele>813.40</ele>
	<time>2025-04-29T05:56:22.000Z</time>
</trkpt>
<trkpt lat="45.9211970" lon="10.3178190">
	<ele>813.60</ele>
	<time>2025-04-29T05:56:23.000Z</time>
</trkpt>
<trkpt lat="45.9211820" lon="10.3178310">
	<ele>813.80</ele>
	<time>2025-04-29T05:56:24.000Z</time>
</trkpt>
<trkpt lat="45.9211740" lon="10.3178440">
	<ele>813.80</ele>
	<time>2025-04-29T05:56:25.000Z</time>
</trkpt>
<trkpt lat="45.9211690" lon="10.3178600">
	<ele>814.00</ele>
	<time>2025-04-29T05:56:26.000Z</time>
</trkpt>
<trkpt lat="45.9211540" lon="10.3178860">
	<ele>814.00</ele>
	<time>2025-04-29T05:56:27.000Z</time>
</trkpt>
<trkpt lat="45.9211450" lon="10.3179130">
	<ele>814.20</ele>
	<time>2025-04-29T05:56:28.000Z</time>
</trkpt>
<trkpt lat="45.9211530" lon="10.3179310">
	<ele>814.40</ele>
	<time>2025-04-29T05:56:29.000Z</time>
</trkpt>
<trkpt lat="45.9211540" lon="10.3179360">
	<ele>814.40</ele>
	<time>2025-04-29T05:56:30.000Z</time>
</trkpt>
<trkpt lat="45.9211600" lon="10.3179450">
	<ele>814.60</ele>
	<time>2025-04-29T05:56:31.000Z</time>
</trkpt>
<trkpt lat="45.9211780" lon="10.3179460">
	<ele>814.80</ele>
	<time>2025-04-29T05:56:32.000Z</time>
</trkpt>
<trkpt lat="45.9211760" lon="10.3179520">
	<ele>815.00</ele>
	<time>2025-04-29T05:56:33.000Z</time>
</trkpt>
<trkpt lat="45.9211800" lon="10.3179580">
	<ele>815.20</ele>
	<time>2025-04-29T05:56:34.000Z</time>
</trkpt>
<trkpt lat="45.9211800" lon="10.3179620">
	<ele>815.40</ele>
	<time>2025-04-29T05:56:35.000Z</time>
</trkpt>
<trkpt lat="45.9211880" lon="10.3179610">
	<ele>815.60</ele>
	<time>2025-04-29T05:56:36.000Z</time>
</trkpt>
<trkpt lat="45.9211900" lon="10.3179660">
	<ele>815.80</ele>
	<time>2025-04-29T05:56:37.000Z</time>
</trkpt>
<trkpt lat="45.9211970" lon="10.3179730">
	<ele>816.00</ele>
	<time>2025-04-29T05:56:38.000Z</time>
</trkpt>
<trkpt lat="45.9211980" lon="10.3179760">
	<ele>816.00</ele>
	<time>2025-04-29T05:56:39.000Z</time>
</trkpt>
<trkpt lat="45.9211990" lon="10.3179770">
	<ele>816.00</ele>
	<time>2025-04-29T05:56:40.000Z</time>
</trkpt>
<trkpt lat="45.9211960" lon="10.3179770">
	<ele>816.20</ele>
	<time>2025-04-29T05:56:41.000Z</time>
</trkpt>
<trkpt lat="45.9211970" lon="10.3179790">
	<ele>816.40</ele>
	<time>2025-04-29T05:56:42.000Z</time>
</trkpt>
<trkpt lat="45.9211720" lon="10.3179860">
	<ele>816.40</ele>
	<time>2025-04-29T05:56:43.000Z</time>
</trkpt>
<trkpt lat="45.9211590" lon="10.3180130">
	<ele>816.40</ele>
	<time>2025-04-29T05:56:44.000Z</time>
</trkpt>
<trkpt lat="45.9211490" lon="10.3180200">
	<ele>816.60</ele>
	<time>2025-04-29T05:56:45.000Z</time>
</trkpt>
<trkpt lat="45.9211390" lon="10.3180250">
	<ele>816.80</ele>
	<time>2025-04-29T05:56:46.000Z</time>
</trkpt>
<trkpt lat="45.9211410" lon="10.3180290">
	<ele>817.00</ele>
	<time>2025-04-29T05:56:47.000Z</time>
</trkpt>
<trkpt lat="45.9211370" lon="10.3180300">
	<ele>817.00</ele>
	<time>2025-04-29T05:56:48.000Z</time>
</trkpt>
<trkpt lat="45.9211260" lon="10.3180270">
	<ele>817.20</ele>
	<time>2025-04-29T05:56:49.000Z</time>
</trkpt>
<trkpt lat="45.9211100" lon="10.3180410">
	<ele>817.40</ele>
	<time>2025-04-29T05:56:50.000Z</time>
</trkpt>
<trkpt lat="45.9210970" lon="10.3180520">
	<ele>817.60</ele>
	<time>2025-04-29T05:56:51.000Z</time>
</trkpt>
<trkpt lat="45.9211010" lon="10.3180780">
	<ele>817.60</ele>
	<time>2025-04-29T05:56:52.000Z</time>
</trkpt>
<trkpt lat="45.9211020" lon="10.3181170">
	<ele>817.80</ele>
	<time>2025-04-29T05:56:53.000Z</time>
</trkpt>
<trkpt lat="45.9210960" lon="10.3181370">
	<ele>817.80</ele>
	<time>2025-04-29T05:56:54.000Z</time>
</trkpt>
<trkpt lat="45.9210820" lon="10.3181490">
	<ele>818.00</ele>
	<time>2025-04-29T05:56:55.000Z</time>
</trkpt>
<trkpt lat="45.9210720" lon="10.3181520">
	<ele>818.00</ele>
	<time>2025-04-29T05:56:56.000Z</time>
</trkpt>
<trkpt lat="45.9210620" lon="10.3181580">
	<ele>818.20</ele>
	<time>2025-04-29T05:56:57.000Z</time>
</trkpt>
<trkpt lat="45.9210560" lon="10.3181480">
	<ele>818.20</ele>
	<time>2025-04-29T05:56:58.000Z</time>
</trkpt>
<trkpt lat="45.9210440" lon="10.3181510">
	<ele>818.40</ele>
	<time>2025-04-29T05:56:59.000Z</time>
</trkpt>
<trkpt lat="45.9210330" lon="10.3181530">
	<ele>818.60</ele>
	<time>2025-04-29T05:57:00.000Z</time>
</trkpt>
<trkpt lat="45.9210050" lon="10.3181480">
	<ele>818.60</ele>
	<time>2025-04-29T05:57:01.000Z</time>
</trkpt>
<trkpt lat="45.9209910" lon="10.3181520">
	<ele>818.60</ele>
	<time>2025-04-29T05:57:02.000Z</time>
</trkpt>
<trkpt lat="45.9209840" lon="10.3181540">
	<ele>818.80</ele>
	<time>2025-04-29T05:57:03.000Z</time>
</trkpt>
<trkpt lat="45.9209610" lon="10.3181580">
	<ele>819.00</ele>
	<time>2025-04-29T05:57:04.000Z</time>
</trkpt>
<trkpt lat="45.9209530" lon="10.3181660">
	<ele>819.00</ele>
	<time>2025-04-29T05:57:05.000Z</time>
</trkpt>
<trkpt lat="45.9209440" lon="10.3181640">
	<ele>819.20</ele>
	<time>2025-04-29T05:57:06.000Z</time>
</trkpt>
<trkpt lat="45.9209370" lon="10.3181670">
	<ele>819.40</ele>
	<time>2025-04-29T05:57:07.000Z</time>
</trkpt>
<trkpt lat="45.9209310" lon="10.3181740">
	<ele>819.40</ele>
	<time>2025-04-29T05:57:08.000Z</time>
</trkpt>
<trkpt lat="45.9209400" lon="10.3181800">
	<ele>819.40</ele>
	<time>2025-04-29T05:57:09.000Z</time>
</trkpt>
<trkpt lat="45.9209410" lon="10.3181880">
	<ele>819.60</ele>
	<time>2025-04-29T05:57:10.000Z</time>
</trkpt>
<trkpt lat="45.9209370" lon="10.3181920">
	<ele>819.60</ele>
	<time>2025-04-29T05:57:11.000Z</time>
</trkpt>
<trkpt lat="45.9209340" lon="10.3181950">
	<ele>819.80</ele>
	<time>2025-04-29T05:57:12.000Z</time>
</trkpt>
<trkpt lat="45.9209170" lon="10.3181950">
	<ele>820.00</ele>
	<time>2025-04-29T05:57:13.000Z</time>
</trkpt>
<trkpt lat="45.9209000" lon="10.3182040">
	<ele>820.00</ele>
	<time>2025-04-29T05:57:14.000Z</time>
</trkpt>
<trkpt lat="45.9208940" lon="10.3182180">
	<ele>820.20</ele>
	<time>2025-04-29T05:57:15.000Z</time>
</trkpt>
<trkpt lat="45.9208830" lon="10.3182260">
	<ele>820.20</ele>
	<time>2025-04-29T05:57:16.000Z</time>
</trkpt>
<trkpt lat="45.9208780" lon="10.3182310">
	<ele>820.40</ele>
	<time>2025-04-29T05:57:17.000Z</time>
</trkpt>
<trkpt lat="45.9208720" lon="10.3182400">
	<ele>820.40</ele>
	<time>2025-04-29T05:57:18.000Z</time>
</trkpt>
<trkpt lat="45.9208650" lon="10.3182520">
	<ele>820.60</ele>
	<time>2025-04-29T05:57:19.000Z</time>
</trkpt>
<trkpt lat="45.9208550" lon="10.3182680">
	<ele>820.80</ele>
	<time>2025-04-29T05:57:20.000Z</time>
</trkpt>
<trkpt lat="45.9208540" lon="10.3182860">
	<ele>821.00</ele>
	<time>2025-04-29T05:57:21.000Z</time>
</trkpt>
<trkpt lat="45.9208620" lon="10.3183070">
	<ele>821.20</ele>
	<time>2025-04-29T05:57:22.000Z</time>
</trkpt>
<trkpt lat="45.9208460" lon="10.3183210">
	<ele>821.40</ele>
	<time>2025-04-29T05:57:23.000Z</time>
</trkpt>
<trkpt lat="45.9208200" lon="10.3183300">
	<ele>821.40</ele>
	<time>2025-04-29T05:57:24.000Z</time>
</trkpt>
<trkpt lat="45.9208150" lon="10.3183480">
	<ele>821.60</ele>
	<time>2025-04-29T05:57:25.000Z</time>
</trkpt>
<trkpt lat="45.9208150" lon="10.3183710">
	<ele>821.60</ele>
	<time>2025-04-29T05:57:26.000Z</time>
</trkpt>
<trkpt lat="45.9208100" lon="10.3184020">
	<ele>821.80</ele>
	<time>2025-04-29T05:57:27.000Z</time>
</trkpt>
<trkpt lat="45.9208120" lon="10.3184230">
	<ele>822.00</ele>
	<time>2025-04-29T05:57:28.000Z</time>
</trkpt>
<trkpt lat="45.9208230" lon="10.3184480">
	<ele>822.20</ele>
	<time>2025-04-29T05:57:29.000Z</time>
</trkpt>
<trkpt lat="45.9208290" lon="10.3184670">
	<ele>822.20</ele>
	<time>2025-04-29T05:57:30.000Z</time>
</trkpt>
<trkpt lat="45.9208350" lon="10.3184740">
	<ele>822.40</ele>
	<time>2025-04-29T05:57:31.000Z</time>
</trkpt>
<trkpt lat="45.9208600" lon="10.3184910">
	<ele>822.40</ele>
	<time>2025-04-29T05:57:32.000Z</time>
</trkpt>
<trkpt lat="45.9208930" lon="10.3185260">
	<ele>822.60</ele>
	<time>2025-04-29T05:57:33.000Z</time>
</trkpt>
<trkpt lat="45.9208970" lon="10.3185500">
	<ele>822.60</ele>
	<time>2025-04-29T05:57:34.000Z</time>
</trkpt>
<trkpt lat="45.9208810" lon="10.3185690">
	<ele>822.80</ele>
	<time>2025-04-29T05:57:35.000Z</time>
</trkpt>
<trkpt lat="45.9208550" lon="10.3185900">
	<ele>823.00</ele>
	<time>2025-04-29T05:57:36.000Z</time>
</trkpt>
<trkpt lat="45.9208400" lon="10.3186020">
	<ele>823.00</ele>
	<time>2025-04-29T05:57:37.000Z</time>
</trkpt>
<trkpt lat="45.9208370" lon="10.3186200">
	<ele>823.20</ele>
	<time>2025-04-29T05:57:38.000Z</time>
</trkpt>
<trkpt lat="45.9208350" lon="10.3186340">
	<ele>823.40</ele>
	<time>2025-04-29T05:57:39.000Z</time>
</trkpt>
<trkpt lat="45.9208340" lon="10.3186420">
	<ele>823.60</ele>
	<time>2025-04-29T05:57:40.000Z</time>
</trkpt>
<trkpt lat="45.9208240" lon="10.3186460">
	<ele>823.60</ele>
	<time>2025-04-29T05:57:41.000Z</time>
</trkpt>
<trkpt lat="45.9208150" lon="10.3186540">
	<ele>823.80</ele>
	<time>2025-04-29T05:57:42.000Z</time>
</trkpt>
<trkpt lat="45.9208020" lon="10.3186650">
	<ele>824.00</ele>
	<time>2025-04-29T05:57:43.000Z</time>
</trkpt>
<trkpt lat="45.9208020" lon="10.3186730">
	<ele>824.00</ele>
	<time>2025-04-29T05:57:44.000Z</time>
</trkpt>
<trkpt lat="45.9208120" lon="10.3186860">
	<ele>824.00</ele>
	<time>2025-04-29T05:57:45.000Z</time>
</trkpt>
<trkpt lat="45.9208100" lon="10.3186970">
	<ele>824.20</ele>
	<time>2025-04-29T05:57:46.000Z</time>
</trkpt>
<trkpt lat="45.9208020" lon="10.3186990">
	<ele>824.20</ele>
	<time>2025-04-29T05:57:47.000Z</time>
</trkpt>
<trkpt lat="45.9207880" lon="10.3186940">
	<ele>824.40</ele>
	<time>2025-04-29T05:57:48.000Z</time>
</trkpt>
<trkpt lat="45.9207730" lon="10.3186960">
	<ele>824.40</ele>
	<time>2025-04-29T05:57:49.000Z</time>
</trkpt>
<trkpt lat="45.9207550" lon="10.3186970">
	<ele>824.60</ele>
	<time>2025-04-29T05:57:50.000Z</time>
</trkpt>
<trkpt lat="45.9207330" lon="10.3186950">
	<ele>824.60</ele>
	<time>2025-04-29T05:57:51.000Z</time>
</trkpt>
<trkpt lat="45.9207180" lon="10.3187010">
	<ele>824.60</ele>
	<time>2025-04-29T05:57:52.000Z</time>
</trkpt>
<trkpt lat="45.9207140" lon="10.3187130">
	<ele>824.60</ele>
	<time>2025-04-29T05:57:53.000Z</time>
</trkpt>
<trkpt lat="45.9207080" lon="10.3187220">
	<ele>825.00</ele>
	<time>2025-04-29T05:57:54.000Z</time>
</trkpt>
<trkpt lat="45.9206990" lon="10.3187290">
	<ele>825.20</ele>
	<time>2025-04-29T05:57:55.000Z</time>
</trkpt>
<trkpt lat="45.9206850" lon="10.3187300">
	<ele>825.40</ele>
	<time>2025-04-29T05:57:56.000Z</time>
</trkpt>
<trkpt lat="45.9206700" lon="10.3187300">
	<ele>825.40</ele>
	<time>2025-04-29T05:57:57.000Z</time>
</trkpt>
<trkpt lat="45.9206490" lon="10.3187320">
	<ele>825.60</ele>
	<time>2025-04-29T05:57:58.000Z</time>
</trkpt>
<trkpt lat="45.9206490" lon="10.3187500">
	<ele>825.60</ele>
	<time>2025-04-29T05:57:59.000Z</time>
</trkpt>
<trkpt lat="45.9206480" lon="10.3187660">
	<ele>825.80</ele>
	<time>2025-04-29T05:58:00.000Z</time>
</trkpt>
<trkpt lat="45.9206450" lon="10.3187870">
	<ele>825.80</ele>
	<time>2025-04-29T05:58:01.000Z</time>
</trkpt>
<trkpt lat="45.9206400" lon="10.3188050">
	<ele>826.00</ele>
	<time>2025-04-29T05:58:02.000Z</time>
</trkpt>
<trkpt lat="45.9206270" lon="10.3188220">
	<ele>826.20</ele>
	<time>2025-04-29T05:58:03.000Z</time>
</trkpt>
<trkpt lat="45.9206170" lon="10.3188400">
	<ele>826.20</ele>
	<time>2025-04-29T05:58:04.000Z</time>
</trkpt>
<trkpt lat="45.9206130" lon="10.3188580">
	<ele>826.40</ele>
	<time>2025-04-29T05:58:05.000Z</time>
</trkpt>
<trkpt lat="45.9206240" lon="10.3188760">
	<ele>826.80</ele>
	<time>2025-04-29T05:58:06.000Z</time>
</trkpt>
<trkpt lat="45.9206290" lon="10.3188840">
	<ele>827.00</ele>
	<time>2025-04-29T05:58:07.000Z</time>
</trkpt>
<trkpt lat="45.9206350" lon="10.3189040">
	<ele>827.00</ele>
	<time>2025-04-29T05:58:08.000Z</time>
</trkpt>
<trkpt lat="45.9206320" lon="10.3189200">
	<ele>827.00</ele>
	<time>2025-04-29T05:58:09.000Z</time>
</trkpt>
<trkpt lat="45.9206220" lon="10.3189320">
	<ele>827.20</ele>
	<time>2025-04-29T05:58:10.000Z</time>
</trkpt>
<trkpt lat="45.9206140" lon="10.3189440">
	<ele>827.20</ele>
	<time>2025-04-29T05:58:11.000Z</time>
</trkpt>
<trkpt lat="45.9206010" lon="10.3189600">
	<ele>827.20</ele>
	<time>2025-04-29T05:58:12.000Z</time>
</trkpt>
<trkpt lat="45.9205920" lon="10.3189790">
	<ele>827.40</ele>
	<time>2025-04-29T05:58:13.000Z</time>
</trkpt>
<trkpt lat="45.9205780" lon="10.3189960">
	<ele>827.40</ele>
	<time>2025-04-29T05:58:14.000Z</time>
</trkpt>
<trkpt lat="45.9205720" lon="10.3190040">
	<ele>827.60</ele>
	<time>2025-04-29T05:58:15.000Z</time>
</trkpt>
<trkpt lat="45.9205640" lon="10.3190170">
	<ele>827.60</ele>
	<time>2025-04-29T05:58:16.000Z</time>
</trkpt>
<trkpt lat="45.9205480" lon="10.3190290">
	<ele>827.80</ele>
	<time>2025-04-29T05:58:17.000Z</time>
</trkpt>
<trkpt lat="45.9205360" lon="10.3190460">
	<ele>827.80</ele>
	<time>2025-04-29T05:58:18.000Z</time>
</trkpt>
<trkpt lat="45.9205250" lon="10.3190670">
	<ele>828.00</ele>
	<time>2025-04-29T05:58:19.000Z</time>
</trkpt>
<trkpt lat="45.9205220" lon="10.3190870">
	<ele>828.00</ele>
	<time>2025-04-29T05:58:20.000Z</time>
</trkpt>
<trkpt lat="45.9205180" lon="10.3190940">
	<ele>828.20</ele>
	<time>2025-04-29T05:58:21.000Z</time>
</trkpt>
<trkpt lat="45.9205160" lon="10.3191070">
	<ele>828.20</ele>
	<time>2025-04-29T05:58:22.000Z</time>
</trkpt>
<trkpt lat="45.9205020" lon="10.3191240">
	<ele>828.20</ele>
	<time>2025-04-29T05:58:23.000Z</time>
</trkpt>
<trkpt lat="45.9204950" lon="10.3191350">
	<ele>828.20</ele>
	<time>2025-04-29T05:58:24.000Z</time>
</trkpt>
<trkpt lat="45.9204990" lon="10.3191620">
	<ele>828.40</ele>
	<time>2025-04-29T05:58:25.000Z</time>
</trkpt>
<trkpt lat="45.9204960" lon="10.3191740">
	<ele>828.40</ele>
	<time>2025-04-29T05:58:26.000Z</time>
</trkpt>
<trkpt lat="45.9204880" lon="10.3191740">
	<ele>828.40</ele>
	<time>2025-04-29T05:58:27.000Z</time>
</trkpt>
<trkpt lat="45.9204880" lon="10.3191750">
	<ele>828.60</ele>
	<time>2025-04-29T05:58:28.000Z</time>
</trkpt>
<trkpt lat="45.9204860" lon="10.3192010">
	<ele>828.60</ele>
	<time>2025-04-29T05:58:29.000Z</time>
</trkpt>
<trkpt lat="45.9204770" lon="10.3192270">
	<ele>828.60</ele>
	<time>2025-04-29T05:58:30.000Z</time>
</trkpt>
<trkpt lat="45.9204790" lon="10.3192450">
	<ele>828.80</ele>
	<time>2025-04-29T05:58:31.000Z</time>
</trkpt>
<trkpt lat="45.9204740" lon="10.3192710">
	<ele>828.80</ele>
	<time>2025-04-29T05:58:32.000Z</time>
</trkpt>
<trkpt lat="45.9204740" lon="10.3192980">
	<ele>829.00</ele>
	<time>2025-04-29T05:58:33.000Z</time>
</trkpt>
<trkpt lat="45.9204700" lon="10.3193250">
	<ele>829.00</ele>
	<time>2025-04-29T05:58:34.000Z</time>
</trkpt>
<trkpt lat="45.9204550" lon="10.3193470">
	<ele>829.20</ele>
	<time>2025-04-29T05:58:35.000Z</time>
</trkpt>
<trkpt lat="45.9204460" lon="10.3193640">
	<ele>829.20</ele>
	<time>2025-04-29T05:58:36.000Z</time>
</trkpt>
<trkpt lat="45.9204550" lon="10.3193730">
	<ele>829.20</ele>
	<time>2025-04-29T05:58:37.000Z</time>
</trkpt>
<trkpt lat="45.9204670" lon="10.3193840">
	<ele>829.20</ele>
	<time>2025-04-29T05:58:38.000Z</time>
</trkpt>
<trkpt lat="45.9204750" lon="10.3193950">
	<ele>829.40</ele>
	<time>2025-04-29T05:58:39.000Z</time>
</trkpt>
<trkpt lat="45.9204700" lon="10.3194110">
	<ele>829.40</ele>
	<time>2025-04-29T05:58:40.000Z</time>
</trkpt>
<trkpt lat="45.9204570" lon="10.3194400">
	<ele>829.60</ele>
	<time>2025-04-29T05:58:41.000Z</time>
</trkpt>
<trkpt lat="45.9204640" lon="10.3194680">
	<ele>829.80</ele>
	<time>2025-04-29T05:58:42.000Z</time>
</trkpt>
<trkpt lat="45.9204600" lon="10.3194990">
	<ele>830.00</ele>
	<time>2025-04-29T05:58:43.000Z</time>
</trkpt>
<trkpt lat="45.9204630" lon="10.3195050">
	<ele>830.00</ele>
	<time>2025-04-29T05:58:44.000Z</time>
</trkpt>
<trkpt lat="45.9204580" lon="10.3195140">
	<ele>830.20</ele>
	<time>2025-04-29T05:58:45.000Z</time>
</trkpt>
<trkpt lat="45.9204530" lon="10.3195150">
	<ele>830.20</ele>
	<time>2025-04-29T05:58:46.000Z</time>
</trkpt>
<trkpt lat="45.9204540" lon="10.3195180">
	<ele>830.40</ele>
	<time>2025-04-29T05:58:47.000Z</time>
</trkpt>
<trkpt lat="45.9204660" lon="10.3195160">
	<ele>830.40</ele>
	<time>2025-04-29T05:58:48.000Z</time>
</trkpt>
<trkpt lat="45.9204650" lon="10.3195210">
	<ele>830.40</ele>
	<time>2025-04-29T05:58:49.000Z</time>
</trkpt>
<trkpt lat="45.9204430" lon="10.3195400">
	<ele>830.40</ele>
	<time>2025-04-29T05:58:50.000Z</time>
</trkpt>
<trkpt lat="45.9204350" lon="10.3195480">
	<ele>830.40</ele>
	<time>2025-04-29T05:58:51.000Z</time>
</trkpt>
<trkpt lat="45.9204340" lon="10.3195620">
	<ele>830.40</ele>
	<time>2025-04-29T05:58:52.000Z</time>
</trkpt>
<trkpt lat="45.9204350" lon="10.3195850">
	<ele>830.40</ele>
	<time>2025-04-29T05:58:53.000Z</time>
</trkpt>
<trkpt lat="45.9204330" lon="10.3195980">
	<ele>830.60</ele>
	<time>2025-04-29T05:58:54.000Z</time>
</trkpt>
<trkpt lat="45.9204330" lon="10.3196100">
	<ele>830.80</ele>
	<time>2025-04-29T05:58:55.000Z</time>
</trkpt>
<trkpt lat="45.9204300" lon="10.3196160">
	<ele>830.80</ele>
	<time>2025-04-29T05:58:56.000Z</time>
</trkpt>
<trkpt lat="45.9204260" lon="10.3196300">
	<ele>831.00</ele>
	<time>2025-04-29T05:58:57.000Z</time>
</trkpt>
<trkpt lat="45.9204280" lon="10.3196480">
	<ele>831.00</ele>
	<time>2025-04-29T05:58:58.000Z</time>
</trkpt>
<trkpt lat="45.9204290" lon="10.3196560">
	<ele>831.00</ele>
	<time>2025-04-29T05:58:59.000Z</time>
</trkpt>
<trkpt lat="45.9204190" lon="10.3196570">
	<ele>831.20</ele>
	<time>2025-04-29T05:59:00.000Z</time>
</trkpt>
<trkpt lat="45.9204140" lon="10.3196620">
	<ele>831.40</ele>
	<time>2025-04-29T05:59:01.000Z</time>
</trkpt>
<trkpt lat="45.9204120" lon="10.3196710">
	<ele>831.60</ele>
	<time>2025-04-29T05:59:02.000Z</time>
</trkpt>
<trkpt lat="45.9203930" lon="10.3196810">
	<ele>831.60</ele>
	<time>2025-04-29T05:59:03.000Z</time>
</trkpt>
<trkpt lat="45.9203830" lon="10.3196920">
	<ele>831.60</ele>
	<time>2025-04-29T05:59:04.000Z</time>
</trkpt>
<trkpt lat="45.9203780" lon="10.3197040">
	<ele>831.80</ele>
	<time>2025-04-29T05:59:05.000Z</time>
</trkpt>
<trkpt lat="45.9203730" lon="10.3197160">
	<ele>831.80</ele>
	<time>2025-04-29T05:59:06.000Z</time>
</trkpt>
<trkpt lat="45.9203720" lon="10.3197380">
	<ele>831.80</ele>
	<time>2025-04-29T05:59:07.000Z</time>
</trkpt>
<trkpt lat="45.9203700" lon="10.3197660">
	<ele>831.80</ele>
	<time>2025-04-29T05:59:08.000Z</time>
</trkpt>
<trkpt lat="45.9203600" lon="10.3197810">
	<ele>832.00</ele>
	<time>2025-04-29T05:59:09.000Z</time>
</trkpt>
<trkpt lat="45.9203430" lon="10.3197900">
	<ele>832.00</ele>
	<time>2025-04-29T05:59:10.000Z</time>
</trkpt>
<trkpt lat="45.9203280" lon="10.3197980">
	<ele>832.20</ele>
	<time>2025-04-29T05:59:11.000Z</time>
</trkpt>
<trkpt lat="45.9203160" lon="10.3198130">
	<ele>832.40</ele>
	<time>2025-04-29T05:59:12.000Z</time>
</trkpt>
<trkpt lat="45.9203080" lon="10.3198280">
	<ele>832.60</ele>
	<time>2025-04-29T05:59:13.000Z</time>
</trkpt>
<trkpt lat="45.9203010" lon="10.3198410">
	<ele>832.60</ele>
	<time>2025-04-29T05:59:14.000Z</time>
</trkpt>
<trkpt lat="45.9202960" lon="10.3198620">
	<ele>832.60</ele>
	<time>2025-04-29T05:59:15.000Z</time>
</trkpt>
<trkpt lat="45.9202820" lon="10.3198890">
	<ele>832.80</ele>
	<time>2025-04-29T05:59:16.000Z</time>
</trkpt>
<trkpt lat="45.9202850" lon="10.3199050">
	<ele>832.80</ele>
	<time>2025-04-29T05:59:17.000Z</time>
</trkpt>
<trkpt lat="45.9202880" lon="10.3199130">
	<ele>833.00</ele>
	<time>2025-04-29T05:59:18.000Z</time>
</trkpt>
<trkpt lat="45.9202910" lon="10.3199170">
	<ele>833.20</ele>
	<time>2025-04-29T05:59:19.000Z</time>
</trkpt>
<trkpt lat="45.9202900" lon="10.3199310">
	<ele>833.20</ele>
	<time>2025-04-29T05:59:20.000Z</time>
</trkpt>
<trkpt lat="45.9202880" lon="10.3199510">
	<ele>833.20</ele>
	<time>2025-04-29T05:59:21.000Z</time>
</trkpt>
<trkpt lat="45.9202830" lon="10.3199690">
	<ele>833.40</ele>
	<time>2025-04-29T05:59:22.000Z</time>
</trkpt>
<trkpt lat="45.9202740" lon="10.3199800">
	<ele>833.60</ele>
	<time>2025-04-29T05:59:23.000Z</time>
</trkpt>
<trkpt lat="45.9202710" lon="10.3199880">
	<ele>833.80</ele>
	<time>2025-04-29T05:59:24.000Z</time>
</trkpt>
<trkpt lat="45.9202680" lon="10.3200030">
	<ele>833.80</ele>
	<time>2025-04-29T05:59:25.000Z</time>
</trkpt>
<trkpt lat="45.9202660" lon="10.3200230">
	<ele>834.00</ele>
	<time>2025-04-29T05:59:26.000Z</time>
</trkpt>
<trkpt lat="45.9202510" lon="10.3200440">
	<ele>834.00</ele>
	<time>2025-04-29T05:59:27.000Z</time>
</trkpt>
<trkpt lat="45.9202390" lon="10.3200720">
	<ele>834.20</ele>
	<time>2025-04-29T05:59:28.000Z</time>
</trkpt>
<trkpt lat="45.9202470" lon="10.3201000">
	<ele>834.40</ele>
	<time>2025-04-29T05:59:29.000Z</time>
</trkpt>
<trkpt lat="45.9202470" lon="10.3201140">
	<ele>834.40</ele>
	<time>2025-04-29T05:59:30.000Z</time>
</trkpt>
<trkpt lat="45.9202430" lon="10.3201230">
	<ele>834.60</ele>
	<time>2025-04-29T05:59:31.000Z</time>
</trkpt>
<trkpt lat="45.9202390" lon="10.3201280">
	<ele>834.80</ele>
	<time>2025-04-29T05:59:32.000Z</time>
</trkpt>
<trkpt lat="45.9202330" lon="10.3201330">
	<ele>834.80</ele>
	<time>2025-04-29T05:59:33.000Z</time>
</trkpt>
<trkpt lat="45.9202260" lon="10.3201380">
	<ele>835.00</ele>
	<time>2025-04-29T05:59:34.000Z</time>
</trkpt>
<trkpt lat="45.9202210" lon="10.3201500">
	<ele>835.20</ele>
	<time>2025-04-29T05:59:35.000Z</time>
</trkpt>
<trkpt lat="45.9202130" lon="10.3201630">
	<ele>835.20</ele>
	<time>2025-04-29T05:59:36.000Z</time>
</trkpt>
<trkpt lat="45.9202080" lon="10.3201750">
	<ele>835.40</ele>
	<time>2025-04-29T05:59:37.000Z</time>
</trkpt>
<trkpt lat="45.9202050" lon="10.3201880">
	<ele>835.60</ele>
	<time>2025-04-29T05:59:38.000Z</time>
</trkpt>
<trkpt lat="45.9202330" lon="10.3202100">
	<ele>835.60</ele>
	<time>2025-04-29T05:59:39.000Z</time>
</trkpt>
<trkpt lat="45.9202510" lon="10.3202240">
	<ele>836.00</ele>
	<time>2025-04-29T05:59:40.000Z</time>
</trkpt>
<trkpt lat="45.9202590" lon="10.3202370">
	<ele>836.20</ele>
	<time>2025-04-29T05:59:41.000Z</time>
</trkpt>
<trkpt lat="45.9202630" lon="10.3202540">
	<ele>836.40</ele>
	<time>2025-04-29T05:59:42.000Z</time>
</trkpt>
<trkpt lat="45.9202760" lon="10.3202690">
	<ele>836.60</ele>
	<time>2025-04-29T05:59:43.000Z</time>
</trkpt>
<trkpt lat="45.9202820" lon="10.3202820">
	<ele>836.80</ele>
	<time>2025-04-29T05:59:44.000Z</time>
</trkpt>
<trkpt lat="45.9202780" lon="10.3202950">
	<ele>837.00</ele>
	<time>2025-04-29T05:59:45.000Z</time>
</trkpt>
<trkpt lat="45.9202730" lon="10.3203030">
	<ele>837.00</ele>
	<time>2025-04-29T05:59:46.000Z</time>
</trkpt>
<trkpt lat="45.9202680" lon="10.3203140">
	<ele>837.20</ele>
	<time>2025-04-29T05:59:47.000Z</time>
</trkpt>
<trkpt lat="45.9202660" lon="10.3203180">
	<ele>837.40</ele>
	<time>2025-04-29T05:59:48.000Z</time>
</trkpt>
<trkpt lat="45.9202530" lon="10.3203200">
	<ele>837.40</ele>
	<time>2025-04-29T05:59:49.000Z</time>
</trkpt>
<trkpt lat="45.9202460" lon="10.3203280">
	<ele>837.60</ele>
	<time>2025-04-29T05:59:50.000Z</time>
</trkpt>
<trkpt lat="45.9202440" lon="10.3203370">
	<ele>837.60</ele>
	<time>2025-04-29T05:59:51.000Z</time>
</trkpt>
<trkpt lat="45.9202320" lon="10.3203490">
	<ele>837.80</ele>
	<time>2025-04-29T05:59:52.000Z</time>
</trkpt>
<trkpt lat="45.9202300" lon="10.3203570">
	<ele>838.00</ele>
	<time>2025-04-29T05:59:53.000Z</time>
</trkpt>
<trkpt lat="45.9202230" lon="10.3203640">
	<ele>838.00</ele>
	<time>2025-04-29T05:59:54.000Z</time>
</trkpt>
<trkpt lat="45.9202140" lon="10.3203660">
	<ele>838.20</ele>
	<time>2025-04-29T05:59:55.000Z</time>
</trkpt>
<trkpt lat="45.9202040" lon="10.3203720">
	<ele>838.40</ele>
	<time>2025-04-29T05:59:56.000Z</time>
</trkpt>
<trkpt lat="45.9202010" lon="10.3203830">
	<ele>838.40</ele>
	<time>2025-04-29T05:59:57.000Z</time>
</trkpt>
<trkpt lat="45.9202000" lon="10.3203870">
	<ele>838.60</ele>
	<time>2025-04-29T05:59:58.000Z</time>
</trkpt>
<trkpt lat="45.9201990" lon="10.3204070">
	<ele>838.60</ele>
	<time>2025-04-29T05:59:59.000Z</time>
</trkpt>
<trkpt lat="45.9201950" lon="10.3204320">
	<ele>838.80</ele>
	<time>2025-04-29T06:00:00.000Z</time>
</trkpt>
<trkpt lat="45.9201790" lon="10.3204620">
	<ele>839.00</ele>
	<time>2025-04-29T06:00:01.000Z</time>
</trkpt>
<trkpt lat="45.9201680" lon="10.3204900">
	<ele>839.00</ele>
	<time>2025-04-29T06:00:02.000Z</time>
</trkpt>
<trkpt lat="45.9201550" lon="10.3205190">
	<ele>839.00</ele>
	<time>2025-04-29T06:00:03.000Z</time>
</trkpt>
<trkpt lat="45.9201500" lon="10.3205220">
	<ele>839.20</ele>
	<time>2025-04-29T06:00:04.000Z</time>
</trkpt>
<trkpt lat="45.9201630" lon="10.3205370">
	<ele>839.20</ele>
	<time>2025-04-29T06:00:05.000Z</time>
</trkpt>
<trkpt lat="45.9201690" lon="10.3205470">
	<ele>839.40</ele>
	<time>2025-04-29T06:00:06.000Z</time>
</trkpt>
<trkpt lat="45.9201910" lon="10.3205580">
	<ele>839.60</ele>
	<time>2025-04-29T06:00:07.000Z</time>
</trkpt>
<trkpt lat="45.9202000" lon="10.3205720">
	<ele>839.60</ele>
	<time>2025-04-29T06:00:08.000Z</time>
</trkpt>
<trkpt lat="45.9202240" lon="10.3205870">
	<ele>839.60</ele>
	<time>2025-04-29T06:00:09.000Z</time>
</trkpt>
<trkpt lat="45.9202330" lon="10.3205910">
	<ele>839.80</ele>
	<time>2025-04-29T06:00:10.000Z</time>
</trkpt>
<trkpt lat="45.9202270" lon="10.3205970">
	<ele>840.00</ele>
	<time>2025-04-29T06:00:11.000Z</time>
</trkpt>
<trkpt lat="45.9202250" lon="10.3206000">
	<ele>840.00</ele>
	<time>2025-04-29T06:00:12.000Z</time>
</trkpt>
<trkpt lat="45.9202300" lon="10.3206010">
	<ele>840.00</ele>
	<time>2025-04-29T06:00:13.000Z</time>
</trkpt>
<trkpt lat="45.9202180" lon="10.3206040">
	<ele>840.00</ele>
	<time>2025-04-29T06:00:14.000Z</time>
</trkpt>
<trkpt lat="45.9202140" lon="10.3206100">
	<ele>840.20</ele>
	<time>2025-04-29T06:00:15.000Z</time>
</trkpt>
<trkpt lat="45.9202130" lon="10.3206140">
	<ele>840.20</ele>
	<time>2025-04-29T06:00:16.000Z</time>
</trkpt>
<trkpt lat="45.9202130" lon="10.3206200">
	<ele>840.20</ele>
	<time>2025-04-29T06:00:17.000Z</time>
</trkpt>
<trkpt lat="45.9202120" lon="10.3206290">
	<ele>840.40</ele>
	<time>2025-04-29T06:00:18.000Z</time>
</trkpt>
<trkpt lat="45.9202150" lon="10.3206370">
	<ele>840.60</ele>
	<time>2025-04-29T06:00:19.000Z</time>
</trkpt>
<trkpt lat="45.9202190" lon="10.3206520">
	<ele>840.60</ele>
	<time>2025-04-29T06:00:20.000Z</time>
</trkpt>
<trkpt lat="45.9202180" lon="10.3206690">
	<ele>840.60</ele>
	<time>2025-04-29T06:00:21.000Z</time>
</trkpt>
<trkpt lat="45.9202210" lon="10.3206890">
	<ele>840.80</ele>
	<time>2025-04-29T06:00:22.000Z</time>
</trkpt>
<trkpt lat="45.9202170" lon="10.3207140">
	<ele>840.80</ele>
	<time>2025-04-29T06:00:23.000Z</time>
</trkpt>
<trkpt lat="45.9202040" lon="10.3207450">
	<ele>841.00</ele>
	<time>2025-04-29T06:00:24.000Z</time>
</trkpt>
<trkpt lat="45.9201800" lon="10.3207720">
	<ele>841.00</ele>
	<time>2025-04-29T06:00:25.000Z</time>
</trkpt>
<trkpt lat="45.9201540" lon="10.3207870">
	<ele>841.20</ele>
	<time>2025-04-29T06:00:26.000Z</time>
</trkpt>
<trkpt lat="45.9201360" lon="10.3207870">
	<ele>841.40</ele>
	<time>2025-04-29T06:00:27.000Z</time>
</trkpt>
<trkpt lat="45.9201260" lon="10.3207910">
	<ele>841.60</ele>
	<time>2025-04-29T06:00:28.000Z</time>
</trkpt>
<trkpt lat="45.9201180" lon="10.3207940">
	<ele>841.80</ele>
	<time>2025-04-29T06:00:29.000Z</time>
</trkpt>
<trkpt lat="45.9201160" lon="10.3208020">
	<ele>842.00</ele>
	<time>2025-04-29T06:00:30.000Z</time>
</trkpt>
<trkpt lat="45.9201180" lon="10.3208060">
	<ele>842.00</ele>
	<time>2025-04-29T06:00:31.000Z</time>
</trkpt>
<trkpt lat="45.9201120" lon="10.3208150">
	<ele>842.20</ele>
	<time>2025-04-29T06:00:32.000Z</time>
</trkpt>
<trkpt lat="45.9201110" lon="10.3208200">
	<ele>842.20</ele>
	<time>2025-04-29T06:00:33.000Z</time>
</trkpt>
<trkpt lat="45.9201090" lon="10.3208280">
	<ele>842.40</ele>
	<time>2025-04-29T06:00:34.000Z</time>
</trkpt>
<trkpt lat="45.9200990" lon="10.3208350">
	<ele>842.60</ele>
	<time>2025-04-29T06:00:35.000Z</time>
</trkpt>
<trkpt lat="45.9200930" lon="10.3208390">
	<ele>842.80</ele>
	<time>2025-04-29T06:00:36.000Z</time>
</trkpt>
<trkpt lat="45.9200920" lon="10.3208520">
	<ele>843.00</ele>
	<time>2025-04-29T06:00:37.000Z</time>
</trkpt>
<trkpt lat="45.9200950" lon="10.3208670">
	<ele>843.20</ele>
	<time>2025-04-29T06:00:38.000Z</time>
</trkpt>
<trkpt lat="45.9201000" lon="10.3208720">
	<ele>843.40</ele>
	<time>2025-04-29T06:00:39.000Z</time>
</trkpt>
<trkpt lat="45.9200980" lon="10.3208820">
	<ele>843.40</ele>
	<time>2025-04-29T06:00:40.000Z</time>
</trkpt>
<trkpt lat="45.9200890" lon="10.3208900">
	<ele>843.60</ele>
	<time>2025-04-29T06:00:41.000Z</time>
</trkpt>
<trkpt lat="45.9200880" lon="10.3208960">
	<ele>843.60</ele>
	<time>2025-04-29T06:00:42.000Z</time>
</trkpt>
<trkpt lat="45.9200800" lon="10.3208940">
	<ele>843.80</ele>
	<time>2025-04-29T06:00:43.000Z</time>
</trkpt>
<trkpt lat="45.9200680" lon="10.3208940">
	<ele>844.00</ele>
	<time>2025-04-29T06:00:44.000Z</time>
</trkpt>
<trkpt lat="45.9200520" lon="10.3209060">
	<ele>844.20</ele>
	<time>2025-04-29T06:00:45.000Z</time>
</trkpt>
<trkpt lat="45.9200400" lon="10.3209250">
	<ele>844.40</ele>
	<time>2025-04-29T06:00:46.000Z</time>
</trkpt>
<trkpt lat="45.9200340" lon="10.3209380">
	<ele>844.60</ele>
	<time>2025-04-29T06:00:47.000Z</time>
</trkpt>
<trkpt lat="45.9200290" lon="10.3209490">
	<ele>844.80</ele>
	<time>2025-04-29T06:00:48.000Z</time>
</trkpt>
<trkpt lat="45.9200350" lon="10.3209620">
	<ele>845.00</ele>
	<time>2025-04-29T06:00:49.000Z</time>
</trkpt>
<trkpt lat="45.9200500" lon="10.3209790">
	<ele>845.20</ele>
	<time>2025-04-29T06:00:50.000Z</time>
</trkpt>
<trkpt lat="45.9200470" lon="10.3209920">
	<ele>845.20</ele>
	<time>2025-04-29T06:00:51.000Z</time>
</trkpt>
<trkpt lat="45.9200380" lon="10.3210060">
	<ele>845.40</ele>
	<time>2025-04-29T06:00:52.000Z</time>
</trkpt>
<trkpt lat="45.9200290" lon="10.3210060">
	<ele>845.60</ele>
	<time>2025-04-29T06:00:53.000Z</time>
</trkpt>
<trkpt lat="45.9200240" lon="10.3210140">
	<ele>845.80</ele>
	<time>2025-04-29T06:00:54.000Z</time>
</trkpt>
<trkpt lat="45.9200170" lon="10.3210220">
	<ele>846.00</ele>
	<time>2025-04-29T06:00:55.000Z</time>
</trkpt>
<trkpt lat="45.9200060" lon="10.3210280">
	<ele>846.20</ele>
	<time>2025-04-29T06:00:56.000Z</time>
</trkpt>
<trkpt lat="45.9199910" lon="10.3210220">
	<ele>846.40</ele>
	<time>2025-04-29T06:00:57.000Z</time>
</trkpt>
<trkpt lat="45.9199800" lon="10.3210200">
	<ele>846.60</ele>
	<time>2025-04-29T06:00:58.000Z</time>
</trkpt>
<trkpt lat="45.9199750" lon="10.3210230">
	<ele>846.60</ele>
	<time>2025-04-29T06:00:59.000Z</time>
</trkpt>
<trkpt lat="45.9199800" lon="10.3210320">
	<ele>846.80</ele>
	<time>2025-04-29T06:01:00.000Z</time>
</trkpt>
<trkpt lat="45.9199760" lon="10.3210510">
	<ele>847.00</ele>
	<time>2025-04-29T06:01:01.000Z</time>
</trkpt>
<trkpt lat="45.9199690" lon="10.3210740">
	<ele>847.20</ele>
	<time>2025-04-29T06:01:02.000Z</time>
</trkpt>
<trkpt lat="45.9199700" lon="10.3210920">
	<ele>847.40</ele>
	<time>2025-04-29T06:01:03.000Z</time>
</trkpt>
<trkpt lat="45.9199720" lon="10.3211080">
	<ele>847.40</ele>
	<time>2025-04-29T06:01:04.000Z</time>
</trkpt>
<trkpt lat="45.9199850" lon="10.3211250">
	<ele>847.60</ele>
	<time>2025-04-29T06:01:05.000Z</time>
</trkpt>
<trkpt lat="45.9199900" lon="10.3211410">
	<ele>847.80</ele>
	<time>2025-04-29T06:01:06.000Z</time>
</trkpt>
<trkpt lat="45.9200020" lon="10.3211550">
	<ele>847.80</ele>
	<time>2025-04-29T06:01:07.000Z</time>
</trkpt>
<trkpt lat="45.9200120" lon="10.3211720">
	<ele>848.00</ele>
	<time>2025-04-29T06:01:08.000Z</time>
</trkpt>
<trkpt lat="45.9200290" lon="10.3211850">
	<ele>848.20</ele>
	<time>2025-04-29T06:01:09.000Z</time>
</trkpt>
<trkpt lat="45.9200500" lon="10.3211960">
	<ele>848.20</ele>
	<time>2025-04-29T06:01:10.000Z</time>
</trkpt>
<trkpt lat="45.9200620" lon="10.3211990">
	<ele>848.40</ele>
	<time>2025-04-29T06:01:11.000Z</time>
</trkpt>
<trkpt lat="45.9200570" lon="10.3212080">
	<ele>848.60</ele>
	<time>2025-04-29T06:01:12.000Z</time>
</trkpt>
<trkpt lat="45.9200590" lon="10.3212090">
	<ele>849.00</ele>
	<time>2025-04-29T06:01:13.000Z</time>
</trkpt>
<trkpt lat="45.9200560" lon="10.3212130">
	<ele>849.20</ele>
	<time>2025-04-29T06:01:14.000Z</time>
</trkpt>
<trkpt lat="45.9200470" lon="10.3212180">
	<ele>849.20</ele>
	<time>2025-04-29T06:01:15.000Z</time>
</trkpt>
<trkpt lat="45.9200470" lon="10.3212170">
	<ele>849.40</ele>
	<time>2025-04-29T06:01:16.000Z</time>
</trkpt>
<trkpt lat="45.9200460" lon="10.3212210">
	<ele>849.60</ele>
	<time>2025-04-29T06:01:17.000Z</time>
</trkpt>
<trkpt lat="45.9200430" lon="10.3212230">
	<ele>849.60</ele>
	<time>2025-04-29T06:01:18.000Z</time>
</trkpt>
<trkpt lat="45.9200320" lon="10.3212290">
	<ele>849.80</ele>
	<time>2025-04-29T06:01:19.000Z</time>
</trkpt>
<trkpt lat="45.9200160" lon="10.3212330">
	<ele>850.00</ele>
	<time>2025-04-29T06:01:20.000Z</time>
</trkpt>
<trkpt lat="45.9200090" lon="10.3212340">
	<ele>850.20</ele>
	<time>2025-04-29T06:01:21.000Z</time>
</trkpt>
<trkpt lat="45.9200070" lon="10.3212330">
	<ele>850.20</ele>
	<time>2025-04-29T06:01:22.000Z</time>
</trkpt>
<trkpt lat="45.9200020" lon="10.3212310">
	<ele>850.40</ele>
	<time>2025-04-29T06:01:23.000Z</time>
</trkpt>
<trkpt lat="45.9200010" lon="10.3212350">
	<ele>850.40</ele>
	<time>2025-04-29T06:01:24.000Z</time>
</trkpt>
<trkpt lat="45.9200020" lon="10.3212350">
	<ele>850.40</ele>
	<time>2025-04-29T06:01:25.000Z</time>
</trkpt>
<trkpt lat="45.9200030" lon="10.3212340">
	<ele>850.60</ele>
	<time>2025-04-29T06:01:26.000Z</time>
</trkpt>
<trkpt lat="45.9200010" lon="10.3212450">
	<ele>850.60</ele>
	<time>2025-04-29T06:01:27.000Z</time>
</trkpt>
<trkpt lat="45.9200020" lon="10.3212400">
	<ele>850.60</ele>
	<time>2025-04-29T06:01:28.000Z</time>
</trkpt>
<trkpt lat="45.9200040" lon="10.3212380">
	<ele>850.60</ele>
	<time>2025-04-29T06:01:29.000Z</time>
</trkpt>
<trkpt lat="45.9200140" lon="10.3212410">
	<ele>850.60</ele>
	<time>2025-04-29T06:01:30.000Z</time>
</trkpt>
<trkpt lat="45.9200150" lon="10.3212480">
	<ele>850.60</ele>
	<time>2025-04-29T06:01:31.000Z</time>
</trkpt>
<trkpt lat="45.9200230" lon="10.3212540">
	<ele>850.60</ele>
	<time>2025-04-29T06:01:32.000Z</time>
</trkpt>
<trkpt lat="45.9200320" lon="10.3212520">
	<ele>850.60</ele>
	<time>2025-04-29T06:01:33.000Z</time>
</trkpt>
<trkpt lat="45.9200340" lon="10.3212660">
	<ele>850.60</ele>
	<time>2025-04-29T06:01:34.000Z</time>
</trkpt>
<trkpt lat="45.9200370" lon="10.3212460">
	<ele>850.40</ele>
	<time>2025-04-29T06:01:35.000Z</time>
</trkpt>
<trkpt lat="45.9200410" lon="10.3212450">
	<ele>850.40</ele>
	<time>2025-04-29T06:01:36.000Z</time>
</trkpt>
<trkpt lat="45.9200380" lon="10.3212470">
	<ele>850.40</ele>
	<time>2025-04-29T06:01:37.000Z</time>
</trkpt>
<trkpt lat="45.9200190" lon="10.3212560">
	<ele>850.40</ele>
	<time>2025-04-29T06:01:38.000Z</time>
</trkpt>
<trkpt lat="45.9200000" lon="10.3212600">
	<ele>850.40</ele>
	<time>2025-04-29T06:01:39.000Z</time>
</trkpt>
<trkpt lat="45.9199550" lon="10.3212540">
	<ele>850.40</ele>
	<time>2025-04-29T06:01:40.000Z</time>
</trkpt>
<trkpt lat="45.9199250" lon="10.3212560">
	<ele>850.40</ele>
	<time>2025-04-29T06:01:41.000Z</time>
</trkpt>
<trkpt lat="45.9199100" lon="10.3212590">
	<ele>850.40</ele>
	<time>2025-04-29T06:01:42.000Z</time>
</trkpt>
<trkpt lat="45.9199030" lon="10.3212650">
	<ele>850.40</ele>
	<time>2025-04-29T06:01:43.000Z</time>
</trkpt>
<trkpt lat="45.9199000" lon="10.3212640">
	<ele>850.40</ele>
	<time>2025-04-29T06:01:44.000Z</time>
</trkpt>
<trkpt lat="45.9199000" lon="10.3212680">
	<ele>850.60</ele>
	<time>2025-04-29T06:01:45.000Z</time>
</trkpt>
<trkpt lat="45.9199030" lon="10.3212820">
	<ele>850.60</ele>
	<time>2025-04-29T06:01:46.000Z</time>
</trkpt>
<trkpt lat="45.9199050" lon="10.3212950">
	<ele>850.60</ele>
	<time>2025-04-29T06:01:47.000Z</time>
</trkpt>
<trkpt lat="45.9198910" lon="10.3213010">
	<ele>850.80</ele>
	<time>2025-04-29T06:01:48.000Z</time>
</trkpt>
<trkpt lat="45.9198880" lon="10.3213140">
	<ele>850.80</ele>
	<time>2025-04-29T06:01:49.000Z</time>
</trkpt>
<trkpt lat="45.9198990" lon="10.3213170">
	<ele>850.80</ele>
	<time>2025-04-29T06:01:50.000Z</time>
</trkpt>
<trkpt lat="45.9199010" lon="10.3213140">
	<ele>850.80</ele>
	<time>2025-04-29T06:01:51.000Z</time>
</trkpt>
<trkpt lat="45.9199100" lon="10.3213220">
	<ele>850.80</ele>
	<time>2025-04-29T06:01:52.000Z</time>
</trkpt>
<trkpt lat="45.9199250" lon="10.3213320">
	<ele>850.80</ele>
	<time>2025-04-29T06:01:53.000Z</time>
</trkpt>
<trkpt lat="45.9199280" lon="10.3213390">
	<ele>850.80</ele>
	<time>2025-04-29T06:01:54.000Z</time>
</trkpt>
<trkpt lat="45.9199240" lon="10.3213480">
	<ele>850.80</ele>
	<time>2025-04-29T06:01:55.000Z</time>
</trkpt>
<trkpt lat="45.9199250" lon="10.3213620">
	<ele>850.80</ele>
	<time>2025-04-29T06:01:56.000Z</time>
</trkpt>
<trkpt lat="45.9199180" lon="10.3213760">
	<ele>850.80</ele>
	<time>2025-04-29T06:01:57.000Z</time>
</trkpt>
<trkpt lat="45.9199370" lon="10.3213920">
	<ele>850.80</ele>
	<time>2025-04-29T06:01:58.000Z</time>
</trkpt>
<trkpt lat="45.9199370" lon="10.3214000">
	<ele>851.00</ele>
	<time>2025-04-29T06:01:59.000Z</time>
</trkpt>
<trkpt lat="45.9199330" lon="10.3213990">
	<ele>851.00</ele>
	<time>2025-04-29T06:02:00.000Z</time>
</trkpt>
<trkpt lat="45.9199110" lon="10.3213910">
	<ele>851.00</ele>
	<time>2025-04-29T06:02:01.000Z</time>
</trkpt>
<trkpt lat="45.9198980" lon="10.3213930">
	<ele>851.20</ele>
	<time>2025-04-29T06:02:02.000Z</time>
</trkpt>
<trkpt lat="45.9198980" lon="10.3213990">
	<ele>851.40</ele>
	<time>2025-04-29T06:02:03.000Z</time>
</trkpt>
<trkpt lat="45.9199030" lon="10.3214080">
	<ele>851.60</ele>
	<time>2025-04-29T06:02:04.000Z</time>
</trkpt>
<trkpt lat="45.9199150" lon="10.3214250">
	<ele>851.60</ele>
	<time>2025-04-29T06:02:05.000Z</time>
</trkpt>
<trkpt lat="45.9199310" lon="10.3214440">
	<ele>851.80</ele>
	<time>2025-04-29T06:02:06.000Z</time>
</trkpt>
<trkpt lat="45.9199380" lon="10.3214640">
	<ele>852.00</ele>
	<time>2025-04-29T06:02:07.000Z</time>
</trkpt>
<trkpt lat="45.9199460" lon="10.3214800">
	<ele>852.20</ele>
	<time>2025-04-29T06:02:08.000Z</time>
</trkpt>
<trkpt lat="45.9199640" lon="10.3215000">
	<ele>852.40</ele>
	<time>2025-04-29T06:02:09.000Z</time>
</trkpt>
<trkpt lat="45.9199730" lon="10.3215170">
	<ele>852.60</ele>
	<time>2025-04-29T06:02:10.000Z</time>
</trkpt>
<trkpt lat="45.9199780" lon="10.3215220">
	<ele>852.80</ele>
	<time>2025-04-29T06:02:11.000Z</time>
</trkpt>
<trkpt lat="45.9199740" lon="10.3215330">
	<ele>852.80</ele>
	<time>2025-04-29T06:02:12.000Z</time>
</trkpt>
<trkpt lat="45.9199830" lon="10.3215500">
	<ele>853.00</ele>
	<time>2025-04-29T06:02:13.000Z</time>
</trkpt>
<trkpt lat="45.9199970" lon="10.3215630">
	<ele>853.00</ele>
	<time>2025-04-29T06:02:14.000Z</time>
</trkpt>
<trkpt lat="45.9199990" lon="10.3215760">
	<ele>853.20</ele>
	<time>2025-04-29T06:02:15.000Z</time>
</trkpt>
<trkpt lat="45.9200020" lon="10.3215850">
	<ele>853.40</ele>
	<time>2025-04-29T06:02:16.000Z</time>
</trkpt>
<trkpt lat="45.9200060" lon="10.3215920">
	<ele>853.60</ele>
	<time>2025-04-29T06:02:17.000Z</time>
</trkpt>
<trkpt lat="45.9199950" lon="10.3215870">
	<ele>853.60</ele>
	<time>2025-04-29T06:02:18.000Z</time>
</trkpt>
<trkpt lat="45.9199740" lon="10.3215760">
	<ele>854.00</ele>
	<time>2025-04-29T06:02:19.000Z</time>
</trkpt>
<trkpt lat="45.9199560" lon="10.3215720">
	<ele>854.00</ele>
	<time>2025-04-29T06:02:20.000Z</time>
</trkpt>
<trkpt lat="45.9199760" lon="10.3215890">
	<ele>854.20</ele>
	<time>2025-04-29T06:02:21.000Z</time>
</trkpt>
<trkpt lat="45.9199780" lon="10.3216070">
	<ele>854.40</ele>
	<time>2025-04-29T06:02:22.000Z</time>
</trkpt>
<trkpt lat="45.9199800" lon="10.3216130">
	<ele>854.40</ele>
	<time>2025-04-29T06:02:23.000Z</time>
</trkpt>
<trkpt lat="45.9199790" lon="10.3216270">
	<ele>854.60</ele>
	<time>2025-04-29T06:02:24.000Z</time>
</trkpt>
<trkpt lat="45.9199750" lon="10.3216340">
	<ele>854.80</ele>
	<time>2025-04-29T06:02:25.000Z</time>
</trkpt>
<trkpt lat="45.9199680" lon="10.3216360">
	<ele>854.80</ele>
	<time>2025-04-29T06:02:26.000Z</time>
</trkpt>
<trkpt lat="45.9199640" lon="10.3216410">
	<ele>855.00</ele>
	<time>2025-04-29T06:02:27.000Z</time>
</trkpt>
<trkpt lat="45.9199450" lon="10.3216390">
	<ele>855.20</ele>
	<time>2025-04-29T06:02:28.000Z</time>
</trkpt>
<trkpt lat="45.9199320" lon="10.3216440">
	<ele>855.40</ele>
	<time>2025-04-29T06:02:29.000Z</time>
</trkpt>
<trkpt lat="45.9199230" lon="10.3216530">
	<ele>855.60</ele>
	<time>2025-04-29T06:02:30.000Z</time>
</trkpt>
<trkpt lat="45.9199140" lon="10.3216610">
	<ele>855.80</ele>
	<time>2025-04-29T06:02:31.000Z</time>
</trkpt>
<trkpt lat="45.9199040" lon="10.3216710">
	<ele>855.80</ele>
	<time>2025-04-29T06:02:32.000Z</time>
</trkpt>
<trkpt lat="45.9198850" lon="10.3216630">
	<ele>856.00</ele>
	<time>2025-04-29T06:02:33.000Z</time>
</trkpt>
<trkpt lat="45.9198590" lon="10.3216640">
	<ele>856.20</ele>
	<time>2025-04-29T06:02:34.000Z</time>
</trkpt>
<trkpt lat="45.9198600" lon="10.3216830">
	<ele>856.20</ele>
	<time>2025-04-29T06:02:35.000Z</time>
</trkpt>
<trkpt lat="45.9198710" lon="10.3216980">
	<ele>856.40</ele>
	<time>2025-04-29T06:02:36.000Z</time>
</trkpt>
<trkpt lat="45.9198740" lon="10.3217210">
	<ele>856.40</ele>
	<time>2025-04-29T06:02:37.000Z</time>
</trkpt>
<trkpt lat="45.9198790" lon="10.3217500">
	<ele>856.60</ele>
	<time>2025-04-29T06:02:38.000Z</time>
</trkpt>
<trkpt lat="45.9198900" lon="10.3217730">
	<ele>856.60</ele>
	<time>2025-04-29T06:02:39.000Z</time>
</trkpt>
<trkpt lat="45.9198740" lon="10.3217760">
	<ele>856.80</ele>
	<time>2025-04-29T06:02:40.000Z</time>
</trkpt>
<trkpt lat="45.9198630" lon="10.3217760">
	<ele>856.80</ele>
	<time>2025-04-29T06:02:41.000Z</time>
</trkpt>
<trkpt lat="45.9198490" lon="10.3217790">
	<ele>857.00</ele>
	<time>2025-04-29T06:02:42.000Z</time>
</trkpt>
<trkpt lat="45.9198420" lon="10.3217880">
	<ele>857.20</ele>
	<time>2025-04-29T06:02:43.000Z</time>
</trkpt>
<trkpt lat="45.9198360" lon="10.3217980">
	<ele>857.40</ele>
	<time>2025-04-29T06:02:44.000Z</time>
</trkpt>
<trkpt lat="45.9198310" lon="10.3218050">
	<ele>857.60</ele>
	<time>2025-04-29T06:02:45.000Z</time>
</trkpt>
<trkpt lat="45.9198460" lon="10.3218200">
	<ele>857.80</ele>
	<time>2025-04-29T06:02:46.000Z</time>
</trkpt>
<trkpt lat="45.9198570" lon="10.3218370">
	<ele>858.00</ele>
	<time>2025-04-29T06:02:47.000Z</time>
</trkpt>
<trkpt lat="45.9198650" lon="10.3218500">
	<ele>858.20</ele>
	<time>2025-04-29T06:02:48.000Z</time>
</trkpt>
<trkpt lat="45.9198650" lon="10.3218640">
	<ele>858.40</ele>
	<time>2025-04-29T06:02:49.000Z</time>
</trkpt>
<trkpt lat="45.9198610" lon="10.3218750">
	<ele>858.40</ele>
	<time>2025-04-29T06:02:50.000Z</time>
</trkpt>
<trkpt lat="45.9198590" lon="10.3218830">
	<ele>858.60</ele>
	<time>2025-04-29T06:02:51.000Z</time>
</trkpt>
<trkpt lat="45.9198610" lon="10.3218930">
	<ele>858.80</ele>
	<time>2025-04-29T06:02:52.000Z</time>
</trkpt>
<trkpt lat="45.9198590" lon="10.3219000">
	<ele>858.80</ele>
	<time>2025-04-29T06:02:53.000Z</time>
</trkpt>
<trkpt lat="45.9198590" lon="10.3219030">
	<ele>859.00</ele>
	<time>2025-04-29T06:02:54.000Z</time>
</trkpt>
<trkpt lat="45.9198540" lon="10.3219050">
	<ele>859.20</ele>
	<time>2025-04-29T06:02:55.000Z</time>
</trkpt>
<trkpt lat="45.9198510" lon="10.3219100">
	<ele>859.20</ele>
	<time>2025-04-29T06:02:56.000Z</time>
</trkpt>
<trkpt lat="45.9198450" lon="10.3219160">
	<ele>859.40</ele>
	<time>2025-04-29T06:02:57.000Z</time>
</trkpt>
<trkpt lat="45.9198390" lon="10.3219290">
	<ele>859.40</ele>
	<time>2025-04-29T06:02:58.000Z</time>
</trkpt>
<trkpt lat="45.9198420" lon="10.3219430">
	<ele>859.60</ele>
	<time>2025-04-29T06:02:59.000Z</time>
</trkpt>
<trkpt lat="45.9198360" lon="10.3219600">
	<ele>859.80</ele>
	<time>2025-04-29T06:03:00.000Z</time>
</trkpt>
<trkpt lat="45.9198240" lon="10.3219760">
	<ele>860.00</ele>
	<time>2025-04-29T06:03:01.000Z</time>
</trkpt>
<trkpt lat="45.9198090" lon="10.3219770">
	<ele>860.20</ele>
	<time>2025-04-29T06:03:02.000Z</time>
</trkpt>
<trkpt lat="45.9197950" lon="10.3219720">
	<ele>860.40</ele>
	<time>2025-04-29T06:03:03.000Z</time>
</trkpt>
<trkpt lat="45.9197840" lon="10.3219750">
	<ele>860.60</ele>
	<time>2025-04-29T06:03:04.000Z</time>
</trkpt>
<trkpt lat="45.9197780" lon="10.3219870">
	<ele>860.80</ele>
	<time>2025-04-29T06:03:05.000Z</time>
</trkpt>
<trkpt lat="45.9197590" lon="10.3220080">
	<ele>861.20</ele>
	<time>2025-04-29T06:03:06.000Z</time>
</trkpt>
<trkpt lat="45.9197180" lon="10.3220420">
	<ele>861.40</ele>
	<time>2025-04-29T06:03:07.000Z</time>
</trkpt>
<trkpt lat="45.9197090" lon="10.3220630">
	<ele>861.60</ele>
	<time>2025-04-29T06:03:08.000Z</time>
</trkpt>
<trkpt lat="45.9197020" lon="10.3220750">
	<ele>861.80</ele>
	<time>2025-04-29T06:03:09.000Z</time>
</trkpt>
<trkpt lat="45.9196920" lon="10.3220790">
	<ele>862.00</ele>
	<time>2025-04-29T06:03:10.000Z</time>
</trkpt>
<trkpt lat="45.9196860" lon="10.3220860">
	<ele>862.20</ele>
	<time>2025-04-29T06:03:11.000Z</time>
</trkpt>
<trkpt lat="45.9196830" lon="10.3220930">
	<ele>862.40</ele>
	<time>2025-04-29T06:03:12.000Z</time>
</trkpt>
<trkpt lat="45.9196740" lon="10.3220990">
	<ele>862.40</ele>
	<time>2025-04-29T06:03:13.000Z</time>
</trkpt>
<trkpt lat="45.9196710" lon="10.3221060">
	<ele>862.60</ele>
	<time>2025-04-29T06:03:14.000Z</time>
</trkpt>
<trkpt lat="45.9196600" lon="10.3221160">
	<ele>862.80</ele>
	<time>2025-04-29T06:03:15.000Z</time>
</trkpt>
<trkpt lat="45.9196520" lon="10.3221300">
	<ele>863.00</ele>
	<time>2025-04-29T06:03:16.000Z</time>
</trkpt>
<trkpt lat="45.9196490" lon="10.3221430">
	<ele>863.20</ele>
	<time>2025-04-29T06:03:17.000Z</time>
</trkpt>
<trkpt lat="45.9196300" lon="10.3221480">
	<ele>863.40</ele>
	<time>2025-04-29T06:03:18.000Z</time>
</trkpt>
<trkpt lat="45.9196190" lon="10.3221550">
	<ele>863.60</ele>
	<time>2025-04-29T06:03:19.000Z</time>
</trkpt>
<trkpt lat="45.9196080" lon="10.3221600">
	<ele>863.80</ele>
	<time>2025-04-29T06:03:20.000Z</time>
</trkpt>
<trkpt lat="45.9196040" lon="10.3221630">
	<ele>863.80</ele>
	<time>2025-04-29T06:03:21.000Z</time>
</trkpt>
<trkpt lat="45.9196010" lon="10.3221660">
	<ele>864.00</ele>
	<time>2025-04-29T06:03:22.000Z</time>
</trkpt>
<trkpt lat="45.9195970" lon="10.3221810">
	<ele>864.20</ele>
	<time>2025-04-29T06:03:23.000Z</time>
</trkpt>
<trkpt lat="45.9195930" lon="10.3221970">
	<ele>864.40</ele>
	<time>2025-04-29T06:03:24.000Z</time>
</trkpt>
<trkpt lat="45.9196020" lon="10.3222150">
	<ele>864.40</ele>
	<time>2025-04-29T06:03:25.000Z</time>
</trkpt>
<trkpt lat="45.9196060" lon="10.3222250">
	<ele>864.60</ele>
	<time>2025-04-29T06:03:26.000Z</time>
</trkpt>
<trkpt lat="45.9196140" lon="10.3222390">
	<ele>864.80</ele>
	<time>2025-04-29T06:03:27.000Z</time>
</trkpt>
<trkpt lat="45.9196190" lon="10.3222520">
	<ele>865.00</ele>
	<time>2025-04-29T06:03:28.000Z</time>
</trkpt>
<trkpt lat="45.9196220" lon="10.3222640">
	<ele>865.00</ele>
	<time>2025-04-29T06:03:29.000Z</time>
</trkpt>
<trkpt lat="45.9196230" lon="10.3222770">
	<ele>865.40</ele>
	<time>2025-04-29T06:03:30.000Z</time>
</trkpt>
<trkpt lat="45.9196150" lon="10.3222840">
	<ele>865.60</ele>
	<time>2025-04-29T06:03:31.000Z</time>
</trkpt>
<trkpt lat="45.9196040" lon="10.3222960">
	<ele>865.80</ele>
	<time>2025-04-29T06:03:32.000Z</time>
</trkpt>
<trkpt lat="45.9195910" lon="10.3223070">
	<ele>866.00</ele>
	<time>2025-04-29T06:03:33.000Z</time>
</trkpt>
<trkpt lat="45.9195850" lon="10.3223180">
	<ele>866.20</ele>
	<time>2025-04-29T06:03:34.000Z</time>
</trkpt>
<trkpt lat="45.9195770" lon="10.3223250">
	<ele>866.40</ele>
	<time>2025-04-29T06:03:35.000Z</time>
</trkpt>
<trkpt lat="45.9195740" lon="10.3223270">
	<ele>866.60</ele>
	<time>2025-04-29T06:03:36.000Z</time>
</trkpt>
<trkpt lat="45.9195710" lon="10.3223280">
	<ele>866.80</ele>
	<time>2025-04-29T06:03:37.000Z</time>
</trkpt>
<trkpt lat="45.9195690" lon="10.3223280">
	<ele>867.00</ele>
	<time>2025-04-29T06:03:38.000Z</time>
</trkpt>
<trkpt lat="45.9195720" lon="10.3223290">
	<ele>867.20</ele>
	<time>2025-04-29T06:03:39.000Z</time>
</trkpt>
<trkpt lat="45.9195750" lon="10.3223320">
	<ele>867.20</ele>
	<time>2025-04-29T06:03:40.000Z</time>
</trkpt>
<trkpt lat="45.9195860" lon="10.3223350">
	<ele>867.40</ele>
	<time>2025-04-29T06:03:41.000Z</time>
</trkpt>
<trkpt lat="45.9195900" lon="10.3223370">
	<ele>867.60</ele>
	<time>2025-04-29T06:03:42.000Z</time>
</trkpt>
<trkpt lat="45.9195880" lon="10.3223460">
	<ele>867.60</ele>
	<time>2025-04-29T06:03:43.000Z</time>
</trkpt>
<trkpt lat="45.9195830" lon="10.3223600">
	<ele>867.80</ele>
	<time>2025-04-29T06:03:44.000Z</time>
</trkpt>
<trkpt lat="45.9195750" lon="10.3223740">
	<ele>868.00</ele>
	<time>2025-04-29T06:03:45.000Z</time>
</trkpt>
<trkpt lat="45.9195900" lon="10.3224030">
	<ele>868.40</ele>
	<time>2025-04-29T06:03:46.000Z</time>
</trkpt>
<trkpt lat="45.9195910" lon="10.3224130">
	<ele>868.60</ele>
	<time>2025-04-29T06:03:47.000Z</time>
</trkpt>
<trkpt lat="45.9195860" lon="10.3224190">
	<ele>868.80</ele>
	<time>2025-04-29T06:03:48.000Z</time>
</trkpt>
<trkpt lat="45.9195740" lon="10.3224170">
	<ele>868.80</ele>
	<time>2025-04-29T06:03:49.000Z</time>
</trkpt>
<trkpt lat="45.9195700" lon="10.3224110">
	<ele>869.00</ele>
	<time>2025-04-29T06:03:50.000Z</time>
</trkpt>
<trkpt lat="45.9195690" lon="10.3224080">
	<ele>869.00</ele>
	<time>2025-04-29T06:03:51.000Z</time>
</trkpt>
<trkpt lat="45.9195580" lon="10.3224180">
	<ele>869.20</ele>
	<time>2025-04-29T06:03:52.000Z</time>
</trkpt>
<trkpt lat="45.9195600" lon="10.3224390">
	<ele>869.40</ele>
	<time>2025-04-29T06:03:53.000Z</time>
</trkpt>
<trkpt lat="45.9195580" lon="10.3224430">
	<ele>869.60</ele>
	<time>2025-04-29T06:03:54.000Z</time>
</trkpt>
<trkpt lat="45.9195630" lon="10.3224580">
	<ele>869.80</ele>
	<time>2025-04-29T06:03:55.000Z</time>
</trkpt>
<trkpt lat="45.9195590" lon="10.3224750">
	<ele>870.00</ele>
	<time>2025-04-29T06:03:56.000Z</time>
</trkpt>
<trkpt lat="45.9195590" lon="10.3224910">
	<ele>870.00</ele>
	<time>2025-04-29T06:03:57.000Z</time>
</trkpt>
<trkpt lat="45.9195400" lon="10.3225200">
	<ele>870.20</ele>
	<time>2025-04-29T06:03:58.000Z</time>
</trkpt>
<trkpt lat="45.9195380" lon="10.3225570">
	<ele>870.60</ele>
	<time>2025-04-29T06:03:59.000Z</time>
</trkpt>
<trkpt lat="45.9195290" lon="10.3225890">
	<ele>870.80</ele>
	<time>2025-04-29T06:04:00.000Z</time>
</trkpt>
<trkpt lat="45.9195100" lon="10.3226120">
	<ele>870.80</ele>
	<time>2025-04-29T06:04:01.000Z</time>
</trkpt>
<trkpt lat="45.9195120" lon="10.3226180">
	<ele>871.00</ele>
	<time>2025-04-29T06:04:02.000Z</time>
</trkpt>
<trkpt lat="45.9195170" lon="10.3226130">
	<ele>871.20</ele>
	<time>2025-04-29T06:04:03.000Z</time>
</trkpt>
<trkpt lat="45.9195200" lon="10.3226080">
	<ele>871.40</ele>
	<time>2025-04-29T06:04:04.000Z</time>
</trkpt>
<trkpt lat="45.9195200" lon="10.3226150">
	<ele>871.40</ele>
	<time>2025-04-29T06:04:05.000Z</time>
</trkpt>
<trkpt lat="45.9195130" lon="10.3226250">
	<ele>871.60</ele>
	<time>2025-04-29T06:04:06.000Z</time>
</trkpt>
<trkpt lat="45.9194950" lon="10.3226320">
	<ele>871.80</ele>
	<time>2025-04-29T06:04:07.000Z</time>
</trkpt>
<trkpt lat="45.9194810" lon="10.3226430">
	<ele>871.80</ele>
	<time>2025-04-29T06:04:08.000Z</time>
</trkpt>
<trkpt lat="45.9194600" lon="10.3226470">
	<ele>872.00</ele>
	<time>2025-04-29T06:04:09.000Z</time>
</trkpt>
<trkpt lat="45.9194540" lon="10.3226620">
	<ele>872.20</ele>
	<time>2025-04-29T06:04:10.000Z</time>
</trkpt>
<trkpt lat="45.9194430" lon="10.3226720">
	<ele>872.20</ele>
	<time>2025-04-29T06:04:11.000Z</time>
</trkpt>
<trkpt lat="45.9194170" lon="10.3226650">
	<ele>872.40</ele>
	<time>2025-04-29T06:04:12.000Z</time>
</trkpt>
<trkpt lat="45.9194110" lon="10.3226650">
	<ele>872.80</ele>
	<time>2025-04-29T06:04:13.000Z</time>
</trkpt>
<trkpt lat="45.9194080" lon="10.3226730">
	<ele>873.00</ele>
	<time>2025-04-29T06:04:14.000Z</time>
</trkpt>
<trkpt lat="45.9193990" lon="10.3226810">
	<ele>873.00</ele>
	<time>2025-04-29T06:04:15.000Z</time>
</trkpt>
<trkpt lat="45.9193860" lon="10.3226770">
	<ele>873.20</ele>
	<time>2025-04-29T06:04:16.000Z</time>
</trkpt>
<trkpt lat="45.9193970" lon="10.3226910">
	<ele>873.40</ele>
	<time>2025-04-29T06:04:17.000Z</time>
</trkpt>
<trkpt lat="45.9194220" lon="10.3226950">
	<ele>873.60</ele>
	<time>2025-04-29T06:04:18.000Z</time>
</trkpt>
<trkpt lat="45.9194250" lon="10.3226940">
	<ele>873.60</ele>
	<time>2025-04-29T06:04:19.000Z</time>
</trkpt>
<trkpt lat="45.9194440" lon="10.3227210">
	<ele>873.80</ele>
	<time>2025-04-29T06:04:20.000Z</time>
</trkpt>
<trkpt lat="45.9194390" lon="10.3227470">
	<ele>874.00</ele>
	<time>2025-04-29T06:04:21.000Z</time>
</trkpt>
<trkpt lat="45.9194050" lon="10.3227570">
	<ele>874.20</ele>
	<time>2025-04-29T06:04:22.000Z</time>
</trkpt>
<trkpt lat="45.9193750" lon="10.3227680">
	<ele>874.40</ele>
	<time>2025-04-29T06:04:23.000Z</time>
</trkpt>
<trkpt lat="45.9193450" lon="10.3227710">
	<ele>874.80</ele>
	<time>2025-04-29T06:04:24.000Z</time>
</trkpt>
<trkpt lat="45.9193170" lon="10.3227630">
	<ele>875.00</ele>
	<time>2025-04-29T06:04:25.000Z</time>
</trkpt>
<trkpt lat="45.9193280" lon="10.3227810">
	<ele>875.00</ele>
	<time>2025-04-29T06:04:26.000Z</time>
</trkpt>
<trkpt lat="45.9193130" lon="10.3227810">
	<ele>875.20</ele>
	<time>2025-04-29T06:04:27.000Z</time>
</trkpt>
<trkpt lat="45.9193030" lon="10.3227820">
	<ele>875.20</ele>
	<time>2025-04-29T06:04:28.000Z</time>
</trkpt>
<trkpt lat="45.9192960" lon="10.3227750">
	<ele>875.20</ele>
	<time>2025-04-29T06:04:29.000Z</time>
</trkpt>
<trkpt lat="45.9192930" lon="10.3227760">
	<ele>875.60</ele>
	<time>2025-04-29T06:04:30.000Z</time>
</trkpt>
<trkpt lat="45.9192830" lon="10.3227810">
	<ele>875.80</ele>
	<time>2025-04-29T06:04:31.000Z</time>
</trkpt>
<trkpt lat="45.9192760" lon="10.3227840">
	<ele>875.80</ele>
	<time>2025-04-29T06:04:32.000Z</time>
</trkpt>
<trkpt lat="45.9192680" lon="10.3227870">
	<ele>876.00</ele>
	<time>2025-04-29T06:04:33.000Z</time>
</trkpt>
<trkpt lat="45.9192620" lon="10.3227920">
	<ele>876.20</ele>
	<time>2025-04-29T06:04:34.000Z</time>
</trkpt>
<trkpt lat="45.9192470" lon="10.3227920">
	<ele>876.40</ele>
	<time>2025-04-29T06:04:35.000Z</time>
</trkpt>
<trkpt lat="45.9192350" lon="10.3227960">
	<ele>876.60</ele>
	<time>2025-04-29T06:04:36.000Z</time>
</trkpt>
<trkpt lat="45.9192170" lon="10.3228030">
	<ele>876.80</ele>
	<time>2025-04-29T06:04:37.000Z</time>
</trkpt>
<trkpt lat="45.9192030" lon="10.3228070">
	<ele>877.00</ele>
	<time>2025-04-29T06:04:38.000Z</time>
</trkpt>
<trkpt lat="45.9191770" lon="10.3228030">
	<ele>877.00</ele>
	<time>2025-04-29T06:04:39.000Z</time>
</trkpt>
<trkpt lat="45.9191560" lon="10.3228110">
	<ele>877.40</ele>
	<time>2025-04-29T06:04:40.000Z</time>
</trkpt>
<trkpt lat="45.9191460" lon="10.3228200">
	<ele>877.60</ele>
	<time>2025-04-29T06:04:41.000Z</time>
</trkpt>
<trkpt lat="45.9191460" lon="10.3228300">
	<ele>877.80</ele>
	<time>2025-04-29T06:04:42.000Z</time>
</trkpt>
<trkpt lat="45.9191500" lon="10.3228440">
	<ele>878.00</ele>
	<time>2025-04-29T06:04:43.000Z</time>
</trkpt>
<trkpt lat="45.9191430" lon="10.3228460">
	<ele>878.00</ele>
	<time>2025-04-29T06:04:44.000Z</time>
</trkpt>
<trkpt lat="45.9191360" lon="10.3228550">
	<ele>878.20</ele>
	<time>2025-04-29T06:04:45.000Z</time>
</trkpt>
<trkpt lat="45.9191340" lon="10.3228640">
	<ele>878.60</ele>
	<time>2025-04-29T06:04:46.000Z</time>
</trkpt>
<trkpt lat="45.9191410" lon="10.3228770">
	<ele>878.80</ele>
	<time>2025-04-29T06:04:47.000Z</time>
</trkpt>
<trkpt lat="45.9191530" lon="10.3228960">
	<ele>878.80</ele>
	<time>2025-04-29T06:04:48.000Z</time>
</trkpt>
<trkpt lat="45.9191710" lon="10.3229140">
	<ele>878.80</ele>
	<time>2025-04-29T06:04:49.000Z</time>
</trkpt>
<trkpt lat="45.9191840" lon="10.3229290">
	<ele>878.80</ele>
	<time>2025-04-29T06:04:50.000Z</time>
</trkpt>
<trkpt lat="45.9191770" lon="10.3229410">
	<ele>878.80</ele>
	<time>2025-04-29T06:04:51.000Z</time>
</trkpt>
<trkpt lat="45.9191710" lon="10.3229500">
	<ele>878.80</ele>
	<time>2025-04-29T06:04:52.000Z</time>
</trkpt>
<trkpt lat="45.9191610" lon="10.3229580">
	<ele>878.80</ele>
	<time>2025-04-29T06:04:53.000Z</time>
</trkpt>
<trkpt lat="45.9191610" lon="10.3229640">
	<ele>878.80</ele>
	<time>2025-04-29T06:04:54.000Z</time>
</trkpt>
<trkpt lat="45.9191460" lon="10.3229680">
	<ele>879.00</ele>
	<time>2025-04-29T06:04:55.000Z</time>
</trkpt>
<trkpt lat="45.9191240" lon="10.3229590">
	<ele>879.00</ele>
	<time>2025-04-29T06:04:56.000Z</time>
</trkpt>
<trkpt lat="45.9191150" lon="10.3229520">
	<ele>879.20</ele>
	<time>2025-04-29T06:04:57.000Z</time>
</trkpt>
<trkpt lat="45.9191170" lon="10.3229560">
	<ele>879.40</ele>
	<time>2025-04-29T06:04:58.000Z</time>
</trkpt>
<trkpt lat="45.9191210" lon="10.3229660">
	<ele>879.40</ele>
	<time>2025-04-29T06:04:59.000Z</time>
</trkpt>
<trkpt lat="45.9191300" lon="10.3229870">
	<ele>879.60</ele>
	<time>2025-04-29T06:05:00.000Z</time>
</trkpt>
<trkpt lat="45.9191420" lon="10.3230070">
	<ele>879.80</ele>
	<time>2025-04-29T06:05:01.000Z</time>
</trkpt>
<trkpt lat="45.9191300" lon="10.3230120">
	<ele>880.00</ele>
	<time>2025-04-29T06:05:02.000Z</time>
</trkpt>
<trkpt lat="45.9191310" lon="10.3230190">
	<ele>880.20</ele>
	<time>2025-04-29T06:05:03.000Z</time>
</trkpt>
<trkpt lat="45.9191490" lon="10.3230390">
	<ele>880.40</ele>
	<time>2025-04-29T06:05:04.000Z</time>
</trkpt>
<trkpt lat="45.9191620" lon="10.3230630">
	<ele>880.60</ele>
	<time>2025-04-29T06:05:05.000Z</time>
</trkpt>
<trkpt lat="45.9191740" lon="10.3230870">
	<ele>880.80</ele>
	<time>2025-04-29T06:05:06.000Z</time>
</trkpt>
<trkpt lat="45.9191800" lon="10.3231000">
	<ele>881.00</ele>
	<time>2025-04-29T06:05:07.000Z</time>
</trkpt>
<trkpt lat="45.9191930" lon="10.3231140">
	<ele>881.00</ele>
	<time>2025-04-29T06:05:08.000Z</time>
</trkpt>
<trkpt lat="45.9192030" lon="10.3231380">
	<ele>881.20</ele>
	<time>2025-04-29T06:05:09.000Z</time>
</trkpt>
<trkpt lat="45.9192100" lon="10.3231570">
	<ele>881.20</ele>
	<time>2025-04-29T06:05:10.000Z</time>
</trkpt>
<trkpt lat="45.9192300" lon="10.3231740">
	<ele>881.40</ele>
	<time>2025-04-29T06:05:11.000Z</time>
</trkpt>
<trkpt lat="45.9192490" lon="10.3231820">
	<ele>881.40</ele>
	<time>2025-04-29T06:05:12.000Z</time>
</trkpt>
<trkpt lat="45.9192750" lon="10.3231950">
	<ele>881.40</ele>
	<time>2025-04-29T06:05:13.000Z</time>
</trkpt>
<trkpt lat="45.9193090" lon="10.3232160">
	<ele>881.40</ele>
	<time>2025-04-29T06:05:14.000Z</time>
</trkpt>
<trkpt lat="45.9193200" lon="10.3232290">
	<ele>881.40</ele>
	<time>2025-04-29T06:05:15.000Z</time>
</trkpt>
<trkpt lat="45.9193360" lon="10.3232450">
	<ele>881.60</ele>
	<time>2025-04-29T06:05:16.000Z</time>
</trkpt>
<trkpt lat="45.9193490" lon="10.3232640">
	<ele>881.60</ele>
	<time>2025-04-29T06:05:17.000Z</time>
</trkpt>
<trkpt lat="45.9193520" lon="10.3232790">
	<ele>881.60</ele>
	<time>2025-04-29T06:05:18.000Z</time>
</trkpt>
<trkpt lat="45.9193520" lon="10.3232970">
	<ele>881.80</ele>
	<time>2025-04-29T06:05:19.000Z</time>
</trkpt>
<trkpt lat="45.9193460" lon="10.3233120">
	<ele>882.00</ele>
	<time>2025-04-29T06:05:20.000Z</time>
</trkpt>
<trkpt lat="45.9193480" lon="10.3233300">
	<ele>882.20</ele>
	<time>2025-04-29T06:05:21.000Z</time>
</trkpt>
<trkpt lat="45.9193380" lon="10.3233340">
	<ele>882.20</ele>
	<time>2025-04-29T06:05:22.000Z</time>
</trkpt>
<trkpt lat="45.9193360" lon="10.3233450">
	<ele>882.20</ele>
	<time>2025-04-29T06:05:23.000Z</time>
</trkpt>
<trkpt lat="45.9193120" lon="10.3233620">
	<ele>882.40</ele>
	<time>2025-04-29T06:05:24.000Z</time>
</trkpt>
<trkpt lat="45.9192950" lon="10.3233810">
	<ele>882.40</ele>
	<time>2025-04-29T06:05:25.000Z</time>
</trkpt>
<trkpt lat="45.9192890" lon="10.3234010">
	<ele>882.40</ele>
	<time>2025-04-29T06:05:26.000Z</time>
</trkpt>
<trkpt lat="45.9192830" lon="10.3234270">
	<ele>882.60</ele>
	<time>2025-04-29T06:05:27.000Z</time>
</trkpt>
<trkpt lat="45.9192610" lon="10.3234370">
	<ele>882.60</ele>
	<time>2025-04-29T06:05:28.000Z</time>
</trkpt>
<trkpt lat="45.9192560" lon="10.3234400">
	<ele>882.80</ele>
	<time>2025-04-29T06:05:29.000Z</time>
</trkpt>
<trkpt lat="45.9192430" lon="10.3234510">
	<ele>883.00</ele>
	<time>2025-04-29T06:05:30.000Z</time>
</trkpt>
<trkpt lat="45.9192360" lon="10.3234640">
	<ele>883.00</ele>
	<time>2025-04-29T06:05:31.000Z</time>
</trkpt>
<trkpt lat="45.9192320" lon="10.3234800">
	<ele>883.20</ele>
	<time>2025-04-29T06:05:32.000Z</time>
</trkpt>
<trkpt lat="45.9192430" lon="10.3234930">
	<ele>883.20</ele>
	<time>2025-04-29T06:05:33.000Z</time>
</trkpt>
<trkpt lat="45.9192570" lon="10.3235110">
	<ele>883.40</ele>
	<time>2025-04-29T06:05:34.000Z</time>
</trkpt>
<trkpt lat="45.9192750" lon="10.3235360">
	<ele>883.40</ele>
	<time>2025-04-29T06:05:35.000Z</time>
</trkpt>
<trkpt lat="45.9192780" lon="10.3235430">
	<ele>883.40</ele>
	<time>2025-04-29T06:05:36.000Z</time>
</trkpt>
<trkpt lat="45.9192940" lon="10.3235560">
	<ele>883.40</ele>
	<time>2025-04-29T06:05:37.000Z</time>
</trkpt>
<trkpt lat="45.9193050" lon="10.3235690">
	<ele>883.60</ele>
	<time>2025-04-29T06:05:38.000Z</time>
</trkpt>
<trkpt lat="45.9192870" lon="10.3235720">
	<ele>883.60</ele>
	<time>2025-04-29T06:05:39.000Z</time>
</trkpt>
<trkpt lat="45.9192880" lon="10.3235750">
	<ele>883.60</ele>
	<time>2025-04-29T06:05:40.000Z</time>
</trkpt>
<trkpt lat="45.9192750" lon="10.3235820">
	<ele>883.80</ele>
	<time>2025-04-29T06:05:41.000Z</time>
</trkpt>
<trkpt lat="45.9192610" lon="10.3235920">
	<ele>883.80</ele>
	<time>2025-04-29T06:05:42.000Z</time>
</trkpt>
<trkpt lat="45.9192510" lon="10.3236000">
	<ele>883.80</ele>
	<time>2025-04-29T06:05:43.000Z</time>
</trkpt>
<trkpt lat="45.9192450" lon="10.3236110">
	<ele>884.00</ele>
	<time>2025-04-29T06:05:44.000Z</time>
</trkpt>
<trkpt lat="45.9192370" lon="10.3236270">
	<ele>884.00</ele>
	<time>2025-04-29T06:05:45.000Z</time>
</trkpt>
<trkpt lat="45.9192270" lon="10.3236420">
	<ele>884.20</ele>
	<time>2025-04-29T06:05:46.000Z</time>
</trkpt>
<trkpt lat="45.9192190" lon="10.3236570">
	<ele>884.20</ele>
	<time>2025-04-29T06:05:47.000Z</time>
</trkpt>
<trkpt lat="45.9192100" lon="10.3236710">
	<ele>884.40</ele>
	<time>2025-04-29T06:05:48.000Z</time>
</trkpt>
<trkpt lat="45.9192000" lon="10.3236910">
	<ele>884.60</ele>
	<time>2025-04-29T06:05:49.000Z</time>
</trkpt>
<trkpt lat="45.9191910" lon="10.3237090">
	<ele>884.60</ele>
	<time>2025-04-29T06:05:50.000Z</time>
</trkpt>
<trkpt lat="45.9191810" lon="10.3237290">
	<ele>884.80</ele>
	<time>2025-04-29T06:05:51.000Z</time>
</trkpt>
<trkpt lat="45.9191670" lon="10.3237450">
	<ele>884.80</ele>
	<time>2025-04-29T06:05:52.000Z</time>
</trkpt>
<trkpt lat="45.9191540" lon="10.3237550">
	<ele>884.80</ele>
	<time>2025-04-29T06:05:53.000Z</time>
</trkpt>
<trkpt lat="45.9191460" lon="10.3237640">
	<ele>884.80</ele>
	<time>2025-04-29T06:05:54.000Z</time>
</trkpt>
<trkpt lat="45.9191320" lon="10.3237820">
	<ele>884.80</ele>
	<time>2025-04-29T06:05:55.000Z</time>
</trkpt>
<trkpt lat="45.9191170" lon="10.3238040">
	<ele>884.80</ele>
	<time>2025-04-29T06:05:56.000Z</time>
</trkpt>
<trkpt lat="45.9191060" lon="10.3238230">
	<ele>885.00</ele>
	<time>2025-04-29T06:05:57.000Z</time>
</trkpt>
<trkpt lat="45.9190920" lon="10.3238430">
	<ele>885.00</ele>
	<time>2025-04-29T06:05:58.000Z</time>
</trkpt>
<trkpt lat="45.9190850" lon="10.3238540">
	<ele>885.20</ele>
	<time>2025-04-29T06:05:59.000Z</time>
</trkpt>
<trkpt lat="45.9190760" lon="10.3238690">
	<ele>885.40</ele>
	<time>2025-04-29T06:06:00.000Z</time>
</trkpt>
<trkpt lat="45.9190660" lon="10.3238840">
	<ele>885.40</ele>
	<time>2025-04-29T06:06:01.000Z</time>
</trkpt>
<trkpt lat="45.9190640" lon="10.3238950">
	<ele>885.60</ele>
	<time>2025-04-29T06:06:02.000Z</time>
</trkpt>
<trkpt lat="45.9190630" lon="10.3238980">
	<ele>885.80</ele>
	<time>2025-04-29T06:06:03.000Z</time>
</trkpt>
<trkpt lat="45.9190540" lon="10.3239060">
	<ele>885.80</ele>
	<time>2025-04-29T06:06:04.000Z</time>
</trkpt>
<trkpt lat="45.9190520" lon="10.3239160">
	<ele>886.00</ele>
	<time>2025-04-29T06:06:05.000Z</time>
</trkpt>
<trkpt lat="45.9190560" lon="10.3239300">
	<ele>886.00</ele>
	<time>2025-04-29T06:06:06.000Z</time>
</trkpt>
<trkpt lat="45.9190470" lon="10.3239300">
	<ele>886.20</ele>
	<time>2025-04-29T06:06:07.000Z</time>
</trkpt>
<trkpt lat="45.9190320" lon="10.3239300">
	<ele>886.20</ele>
	<time>2025-04-29T06:06:08.000Z</time>
</trkpt>
<trkpt lat="45.9190190" lon="10.3239400">
	<ele>886.20</ele>
	<time>2025-04-29T06:06:09.000Z</time>
</trkpt>
<trkpt lat="45.9190250" lon="10.3239560">
	<ele>886.20</ele>
	<time>2025-04-29T06:06:10.000Z</time>
</trkpt>
<trkpt lat="45.9190320" lon="10.3239710">
	<ele>886.60</ele>
	<time>2025-04-29T06:06:11.000Z</time>
</trkpt>
<trkpt lat="45.9190380" lon="10.3239870">
	<ele>886.80</ele>
	<time>2025-04-29T06:06:12.000Z</time>
</trkpt>
<trkpt lat="45.9190380" lon="10.3240120">
	<ele>886.80</ele>
	<time>2025-04-29T06:06:13.000Z</time>
</trkpt>
<trkpt lat="45.9190490" lon="10.3240430">
	<ele>887.00</ele>
	<time>2025-04-29T06:06:14.000Z</time>
</trkpt>
<trkpt lat="45.9190490" lon="10.3240670">
	<ele>887.00</ele>
	<time>2025-04-29T06:06:15.000Z</time>
</trkpt>
<trkpt lat="45.9190440" lon="10.3240710">
	<ele>887.20</ele>
	<time>2025-04-29T06:06:16.000Z</time>
</trkpt>
<trkpt lat="45.9190450" lon="10.3240790">
	<ele>887.40</ele>
	<time>2025-04-29T06:06:17.000Z</time>
</trkpt>
<trkpt lat="45.9190390" lon="10.3240900">
	<ele>887.40</ele>
	<time>2025-04-29T06:06:18.000Z</time>
</trkpt>
<trkpt lat="45.9190320" lon="10.3241090">
	<ele>887.40</ele>
	<time>2025-04-29T06:06:19.000Z</time>
</trkpt>
<trkpt lat="45.9190270" lon="10.3241260">
	<ele>887.60</ele>
	<time>2025-04-29T06:06:20.000Z</time>
</trkpt>
<trkpt lat="45.9190320" lon="10.3241410">
	<ele>887.80</ele>
	<time>2025-04-29T06:06:21.000Z</time>
</trkpt>
<trkpt lat="45.9190450" lon="10.3241650">
	<ele>887.80</ele>
	<time>2025-04-29T06:06:22.000Z</time>
</trkpt>
<trkpt lat="45.9190520" lon="10.3241810">
	<ele>888.00</ele>
	<time>2025-04-29T06:06:23.000Z</time>
</trkpt>
<trkpt lat="45.9190480" lon="10.3242040">
	<ele>888.00</ele>
	<time>2025-04-29T06:06:24.000Z</time>
</trkpt>
<trkpt lat="45.9190350" lon="10.3242190">
	<ele>888.40</ele>
	<time>2025-04-29T06:06:25.000Z</time>
</trkpt>
<trkpt lat="45.9190160" lon="10.3242170">
	<ele>888.60</ele>
	<time>2025-04-29T06:06:26.000Z</time>
</trkpt>
<trkpt lat="45.9190100" lon="10.3242230">
	<ele>888.60</ele>
	<time>2025-04-29T06:06:27.000Z</time>
</trkpt>
<trkpt lat="45.9190090" lon="10.3242360">
	<ele>888.80</ele>
	<time>2025-04-29T06:06:28.000Z</time>
</trkpt>
<trkpt lat="45.9189990" lon="10.3242440">
	<ele>888.80</ele>
	<time>2025-04-29T06:06:29.000Z</time>
</trkpt>
<trkpt lat="45.9189810" lon="10.3242500">
	<ele>889.00</ele>
	<time>2025-04-29T06:06:30.000Z</time>
</trkpt>
<trkpt lat="45.9189630" lon="10.3242560">
	<ele>889.00</ele>
	<time>2025-04-29T06:06:31.000Z</time>
</trkpt>
<trkpt lat="45.9189500" lon="10.3242680">
	<ele>889.20</ele>
	<time>2025-04-29T06:06:32.000Z</time>
</trkpt>
<trkpt lat="45.9189460" lon="10.3242740">
	<ele>889.40</ele>
	<time>2025-04-29T06:06:33.000Z</time>
</trkpt>
<trkpt lat="45.9189380" lon="10.3242870">
	<ele>889.60</ele>
	<time>2025-04-29T06:06:34.000Z</time>
</trkpt>
<trkpt lat="45.9189310" lon="10.3242980">
	<ele>889.80</ele>
	<time>2025-04-29T06:06:35.000Z</time>
</trkpt>
<trkpt lat="45.9189240" lon="10.3243110">
	<ele>890.00</ele>
	<time>2025-04-29T06:06:36.000Z</time>
</trkpt>
<trkpt lat="45.9189170" lon="10.3243150">
	<ele>890.00</ele>
	<time>2025-04-29T06:06:37.000Z</time>
</trkpt>
<trkpt lat="45.9189210" lon="10.3243150">
	<ele>890.00</ele>
	<time>2025-04-29T06:06:38.000Z</time>
</trkpt>
<trkpt lat="45.9189170" lon="10.3243180">
	<ele>890.20</ele>
	<time>2025-04-29T06:06:39.000Z</time>
</trkpt>
<trkpt lat="45.9189070" lon="10.3243270">
	<ele>890.40</ele>
	<time>2025-04-29T06:06:40.000Z</time>
</trkpt>
<trkpt lat="45.9188990" lon="10.3243380">
	<ele>890.60</ele>
	<time>2025-04-29T06:06:41.000Z</time>
</trkpt>
<trkpt lat="45.9189000" lon="10.3243520">
	<ele>890.60</ele>
	<time>2025-04-29T06:06:42.000Z</time>
</trkpt>
<trkpt lat="45.9189010" lon="10.3243630">
	<ele>890.80</ele>
	<time>2025-04-29T06:06:43.000Z</time>
</trkpt>
<trkpt lat="45.9188990" lon="10.3243690">
	<ele>890.80</ele>
	<time>2025-04-29T06:06:44.000Z</time>
</trkpt>
<trkpt lat="45.9188880" lon="10.3243770">
	<ele>891.00</ele>
	<time>2025-04-29T06:06:45.000Z</time>
</trkpt>
<trkpt lat="45.9188700" lon="10.3243900">
	<ele>891.20</ele>
	<time>2025-04-29T06:06:46.000Z</time>
</trkpt>
<trkpt lat="45.9188560" lon="10.3244000">
	<ele>891.40</ele>
	<time>2025-04-29T06:06:47.000Z</time>
</trkpt>
<trkpt lat="45.9188530" lon="10.3244140">
	<ele>891.60</ele>
	<time>2025-04-29T06:06:48.000Z</time>
</trkpt>
<trkpt lat="45.9188500" lon="10.3244160">
	<ele>891.80</ele>
	<time>2025-04-29T06:06:49.000Z</time>
</trkpt>
<trkpt lat="45.9188470" lon="10.3244300">
	<ele>891.80</ele>
	<time>2025-04-29T06:06:50.000Z</time>
</trkpt>
<trkpt lat="45.9188480" lon="10.3244480">
	<ele>892.00</ele>
	<time>2025-04-29T06:06:51.000Z</time>
</trkpt>
<trkpt lat="45.9188470" lon="10.3244660">
	<ele>892.00</ele>
	<time>2025-04-29T06:06:52.000Z</time>
</trkpt>
<trkpt lat="45.9188400" lon="10.3244810">
	<ele>892.20</ele>
	<time>2025-04-29T06:06:53.000Z</time>
</trkpt>
<trkpt lat="45.9188380" lon="10.3244970">
	<ele>892.40</ele>
	<time>2025-04-29T06:06:54.000Z</time>
</trkpt>
<trkpt lat="45.9188290" lon="10.3245070">
	<ele>892.40</ele>
	<time>2025-04-29T06:06:55.000Z</time>
</trkpt>
<trkpt lat="45.9188300" lon="10.3245200">
	<ele>892.60</ele>
	<time>2025-04-29T06:06:56.000Z</time>
</trkpt>
<trkpt lat="45.9188320" lon="10.3245350">
	<ele>892.80</ele>
	<time>2025-04-29T06:06:57.000Z</time>
</trkpt>
<trkpt lat="45.9188370" lon="10.3245440">
	<ele>893.00</ele>
	<time>2025-04-29T06:06:58.000Z</time>
</trkpt>
<trkpt lat="45.9188370" lon="10.3245540">
	<ele>893.20</ele>
	<time>2025-04-29T06:06:59.000Z</time>
</trkpt>
<trkpt lat="45.9188280" lon="10.3245580">
	<ele>893.40</ele>
	<time>2025-04-29T06:07:00.000Z</time>
</trkpt>
<trkpt lat="45.9188210" lon="10.3245640">
	<ele>893.40</ele>
	<time>2025-04-29T06:07:01.000Z</time>
</trkpt>
<trkpt lat="45.9188140" lon="10.3245740">
	<ele>893.60</ele>
	<time>2025-04-29T06:07:02.000Z</time>
</trkpt>
<trkpt lat="45.9188060" lon="10.3245900">
	<ele>893.80</ele>
	<time>2025-04-29T06:07:03.000Z</time>
</trkpt>
<trkpt lat="45.9188000" lon="10.3246080">
	<ele>894.00</ele>
	<time>2025-04-29T06:07:04.000Z</time>
</trkpt>
<trkpt lat="45.9187910" lon="10.3246320">
	<ele>894.20</ele>
	<time>2025-04-29T06:07:05.000Z</time>
</trkpt>
<trkpt lat="45.9187850" lon="10.3246330">
	<ele>894.40</ele>
	<time>2025-04-29T06:07:06.000Z</time>
</trkpt>
<trkpt lat="45.9187950" lon="10.3246450">
	<ele>894.60</ele>
	<time>2025-04-29T06:07:07.000Z</time>
</trkpt>
<trkpt lat="45.9187950" lon="10.3246590">
	<ele>894.80</ele>
	<time>2025-04-29T06:07:08.000Z</time>
</trkpt>
<trkpt lat="45.9187920" lon="10.3246650">
	<ele>895.00</ele>
	<time>2025-04-29T06:07:09.000Z</time>
</trkpt>
<trkpt lat="45.9187950" lon="10.3246800">
	<ele>895.20</ele>
	<time>2025-04-29T06:07:10.000Z</time>
</trkpt>
<trkpt lat="45.9187920" lon="10.3246830">
	<ele>895.40</ele>
	<time>2025-04-29T06:07:11.000Z</time>
</trkpt>
<trkpt lat="45.9187830" lon="10.3246880">
	<ele>895.60</ele>
	<time>2025-04-29T06:07:12.000Z</time>
</trkpt>
<trkpt lat="45.9187680" lon="10.3247120">
	<ele>895.80</ele>
	<time>2025-04-29T06:07:13.000Z</time>
</trkpt>
<trkpt lat="45.9187520" lon="10.3247410">
	<ele>896.00</ele>
	<time>2025-04-29T06:07:14.000Z</time>
</trkpt>
<trkpt lat="45.9187540" lon="10.3247710">
	<ele>896.20</ele>
	<time>2025-04-29T06:07:15.000Z</time>
</trkpt>
<trkpt lat="45.9187560" lon="10.3248030">
	<ele>896.40</ele>
	<time>2025-04-29T06:07:16.000Z</time>
</trkpt>
<trkpt lat="45.9187540" lon="10.3248100">
	<ele>896.60</ele>
	<time>2025-04-29T06:07:17.000Z</time>
</trkpt>
<trkpt lat="45.9187500" lon="10.3248250">
	<ele>896.60</ele>
	<time>2025-04-29T06:07:18.000Z</time>
</trkpt>
<trkpt lat="45.9187370" lon="10.3248230">
	<ele>896.80</ele>
	<time>2025-04-29T06:07:19.000Z</time>
</trkpt>
<trkpt lat="45.9187170" lon="10.3248230">
	<ele>896.80</ele>
	<time>2025-04-29T06:07:20.000Z</time>
</trkpt>
<trkpt lat="45.9187020" lon="10.3248230">
	<ele>897.00</ele>
	<time>2025-04-29T06:07:21.000Z</time>
</trkpt>
<trkpt lat="45.9186520" lon="10.3248240">
	<ele>897.20</ele>
	<time>2025-04-29T06:07:22.000Z</time>
</trkpt>
<trkpt lat="45.9186360" lon="10.3248270">
	<ele>897.20</ele>
	<time>2025-04-29T06:07:23.000Z</time>
</trkpt>
<trkpt lat="45.9186280" lon="10.3248270">
	<ele>897.20</ele>
	<time>2025-04-29T06:07:24.000Z</time>
</trkpt>
<trkpt lat="45.9186250" lon="10.3248340">
	<ele>897.20</ele>
	<time>2025-04-29T06:07:25.000Z</time>
</trkpt>
<trkpt lat="45.9186300" lon="10.3248570">
	<ele>897.20</ele>
	<time>2025-04-29T06:07:26.000Z</time>
</trkpt>
<trkpt lat="45.9186310" lon="10.3248720">
	<ele>897.40</ele>
	<time>2025-04-29T06:07:27.000Z</time>
</trkpt>
<trkpt lat="45.9186250" lon="10.3248710">
	<ele>897.40</ele>
	<time>2025-04-29T06:07:28.000Z</time>
</trkpt>
<trkpt lat="45.9186290" lon="10.3248700">
	<ele>897.20</ele>
	<time>2025-04-29T06:07:29.000Z</time>
</trkpt>
<trkpt lat="45.9186320" lon="10.3248650">
	<ele>897.20</ele>
	<time>2025-04-29T06:07:30.000Z</time>
</trkpt>
<trkpt lat="45.9186390" lon="10.3248750">
	<ele>897.20</ele>
	<time>2025-04-29T06:07:31.000Z</time>
</trkpt>
<trkpt lat="45.9186430" lon="10.3248840">
	<ele>897.20</ele>
	<time>2025-04-29T06:07:32.000Z</time>
</trkpt>
<trkpt lat="45.9186470" lon="10.3248880">
	<ele>897.20</ele>
	<time>2025-04-29T06:07:33.000Z</time>
</trkpt>
<trkpt lat="45.9186640" lon="10.3248930">
	<ele>897.20</ele>
	<time>2025-04-29T06:07:34.000Z</time>
</trkpt>
<trkpt lat="45.9186660" lon="10.3248980">
	<ele>897.20</ele>
	<time>2025-04-29T06:07:35.000Z</time>
</trkpt>
<trkpt lat="45.9186690" lon="10.3249140">
	<ele>897.20</ele>
	<time>2025-04-29T06:07:36.000Z</time>
</trkpt>
<trkpt lat="45.9186670" lon="10.3249330">
	<ele>897.40</ele>
	<time>2025-04-29T06:07:37.000Z</time>
</trkpt>
<trkpt lat="45.9186570" lon="10.3249390">
	<ele>897.60</ele>
	<time>2025-04-29T06:07:38.000Z</time>
</trkpt>
<trkpt lat="45.9186510" lon="10.3249550">
	<ele>897.80</ele>
	<time>2025-04-29T06:07:39.000Z</time>
</trkpt>
<trkpt lat="45.9186480" lon="10.3249680">
	<ele>898.00</ele>
	<time>2025-04-29T06:07:40.000Z</time>
</trkpt>
<trkpt lat="45.9186400" lon="10.3249810">
	<ele>898.20</ele>
	<time>2025-04-29T06:07:41.000Z</time>
</trkpt>
<trkpt lat="45.9186410" lon="10.3249940">
	<ele>898.40</ele>
	<time>2025-04-29T06:07:42.000Z</time>
</trkpt>
<trkpt lat="45.9186400" lon="10.3250010">
	<ele>898.60</ele>
	<time>2025-04-29T06:07:43.000Z</time>
</trkpt>
<trkpt lat="45.9186360" lon="10.3250090">
	<ele>898.60</ele>
	<time>2025-04-29T06:07:44.000Z</time>
</trkpt>
<trkpt lat="45.9186330" lon="10.3250230">
	<ele>898.80</ele>
	<time>2025-04-29T06:07:45.000Z</time>
</trkpt>
<trkpt lat="45.9186290" lon="10.3250340">
	<ele>898.80</ele>
	<time>2025-04-29T06:07:46.000Z</time>
</trkpt>
<trkpt lat="45.9186220" lon="10.3250490">
	<ele>899.00</ele>
	<time>2025-04-29T06:07:47.000Z</time>
</trkpt>
<trkpt lat="45.9186140" lon="10.3250600">
	<ele>899.20</ele>
	<time>2025-04-29T06:07:48.000Z</time>
</trkpt>
<trkpt lat="45.9186110" lon="10.3250680">
	<ele>899.40</ele>
	<time>2025-04-29T06:07:49.000Z</time>
</trkpt>
<trkpt lat="45.9186110" lon="10.3250700">
	<ele>899.40</ele>
	<time>2025-04-29T06:07:50.000Z</time>
</trkpt>
<trkpt lat="45.9186150" lon="10.3250740">
	<ele>899.60</ele>
	<time>2025-04-29T06:07:51.000Z</time>
</trkpt>
<trkpt lat="45.9186180" lon="10.3250740">
	<ele>900.00</ele>
	<time>2025-04-29T06:07:52.000Z</time>
</trkpt>
<trkpt lat="45.9186260" lon="10.3250780">
	<ele>900.20</ele>
	<time>2025-04-29T06:07:53.000Z</time>
</trkpt>
<trkpt lat="45.9186170" lon="10.3250840">
	<ele>900.20</ele>
	<time>2025-04-29T06:07:54.000Z</time>
</trkpt>
<trkpt lat="45.9186220" lon="10.3250860">
	<ele>900.40</ele>
	<time>2025-04-29T06:07:55.000Z</time>
</trkpt>
<trkpt lat="45.9186370" lon="10.3250880">
	<ele>900.40</ele>
	<time>2025-04-29T06:07:56.000Z</time>
</trkpt>
<trkpt lat="45.9186440" lon="10.3251020">
	<ele>900.40</ele>
	<time>2025-04-29T06:07:57.000Z</time>
</trkpt>
<trkpt lat="45.9186440" lon="10.3251140">
	<ele>900.40</ele>
	<time>2025-04-29T06:07:58.000Z</time>
</trkpt>
<trkpt lat="45.9186440" lon="10.3251220">
	<ele>900.40</ele>
	<time>2025-04-29T06:07:59.000Z</time>
</trkpt>
<trkpt lat="45.9186430" lon="10.3251270">
	<ele>900.40</ele>
	<time>2025-04-29T06:08:00.000Z</time>
</trkpt>
<trkpt lat="45.9186370" lon="10.3251370">
	<ele>900.40</ele>
	<time>2025-04-29T06:08:01.000Z</time>
</trkpt>
<trkpt lat="45.9186350" lon="10.3251460">
	<ele>900.60</ele>
	<time>2025-04-29T06:08:02.000Z</time>
</trkpt>
<trkpt lat="45.9186430" lon="10.3251610">
	<ele>901.00</ele>
	<time>2025-04-29T06:08:03.000Z</time>
</trkpt>
<trkpt lat="45.9186360" lon="10.3251720">
	<ele>901.40</ele>
	<time>2025-04-29T06:08:04.000Z</time>
</trkpt>
<trkpt lat="45.9186400" lon="10.3251840">
	<ele>901.60</ele>
	<time>2025-04-29T06:08:05.000Z</time>
</trkpt>
<trkpt lat="45.9186410" lon="10.3251910">
	<ele>901.80</ele>
	<time>2025-04-29T06:08:06.000Z</time>
</trkpt>
<trkpt lat="45.9186380" lon="10.3251990">
	<ele>902.00</ele>
	<time>2025-04-29T06:08:07.000Z</time>
</trkpt>
<trkpt lat="45.9186080" lon="10.3251930">
	<ele>902.00</ele>
	<time>2025-04-29T06:08:08.000Z</time>
</trkpt>
<trkpt lat="45.9186010" lon="10.3251920">
	<ele>902.00</ele>
	<time>2025-04-29T06:08:09.000Z</time>
</trkpt>
<trkpt lat="45.9186000" lon="10.3251970">
	<ele>902.20</ele>
	<time>2025-04-29T06:08:10.000Z</time>
</trkpt>
<trkpt lat="45.9185930" lon="10.3252010">
	<ele>902.20</ele>
	<time>2025-04-29T06:08:11.000Z</time>
</trkpt>
<trkpt lat="45.9185820" lon="10.3251940">
	<ele>902.60</ele>
	<time>2025-04-29T06:08:12.000Z</time>
</trkpt>
<trkpt lat="45.9185780" lon="10.3251890">
	<ele>902.80</ele>
	<time>2025-04-29T06:08:13.000Z</time>
</trkpt>
<trkpt lat="45.9185770" lon="10.3251910">
	<ele>903.00</ele>
	<time>2025-04-29T06:08:14.000Z</time>
</trkpt>
<trkpt lat="45.9185760" lon="10.3251960">
	<ele>903.00</ele>
	<time>2025-04-29T06:08:15.000Z</time>
</trkpt>
<trkpt lat="45.9185770" lon="10.3252090">
	<ele>903.40</ele>
	<time>2025-04-29T06:08:16.000Z</time>
</trkpt>
<trkpt lat="45.9185680" lon="10.3252210">
	<ele>903.60</ele>
	<time>2025-04-29T06:08:17.000Z</time>
</trkpt>
<trkpt lat="45.9185690" lon="10.3252230">
	<ele>903.80</ele>
	<time>2025-04-29T06:08:18.000Z</time>
</trkpt>
<trkpt lat="45.9185670" lon="10.3252260">
	<ele>904.00</ele>
	<time>2025-04-29T06:08:19.000Z</time>
</trkpt>
<trkpt lat="45.9185800" lon="10.3252400">
	<ele>904.20</ele>
	<time>2025-04-29T06:08:20.000Z</time>
</trkpt>
<trkpt lat="45.9185930" lon="10.3252570">
	<ele>904.20</ele>
	<time>2025-04-29T06:08:21.000Z</time>
</trkpt>
<trkpt lat="45.9186080" lon="10.3252790">
	<ele>904.60</ele>
	<time>2025-04-29T06:08:22.000Z</time>
</trkpt>
<trkpt lat="45.9186210" lon="10.3253010">
	<ele>904.80</ele>
	<time>2025-04-29T06:08:23.000Z</time>
</trkpt>
<trkpt lat="45.9186300" lon="10.3253250">
	<ele>905.00</ele>
	<time>2025-04-29T06:08:24.000Z</time>
</trkpt>
<trkpt lat="45.9186400" lon="10.3253330">
	<ele>905.20</ele>
	<time>2025-04-29T06:08:25.000Z</time>
</trkpt>
<trkpt lat="45.9186430" lon="10.3253260">
	<ele>905.40</ele>
	<time>2025-04-29T06:08:26.000Z</time>
</trkpt>
<trkpt lat="45.9186410" lon="10.3253190">
	<ele>905.40</ele>
	<time>2025-04-29T06:08:27.000Z</time>
</trkpt>
<trkpt lat="45.9186360" lon="10.3253180">
	<ele>905.60</ele>
	<time>2025-04-29T06:08:28.000Z</time>
</trkpt>
<trkpt lat="45.9186240" lon="10.3253150">
	<ele>905.60</ele>
	<time>2025-04-29T06:08:29.000Z</time>
</trkpt>
<trkpt lat="45.9186180" lon="10.3253130">
	<ele>905.80</ele>
	<time>2025-04-29T06:08:30.000Z</time>
</trkpt>
<trkpt lat="45.9186200" lon="10.3253200">
	<ele>906.00</ele>
	<time>2025-04-29T06:08:31.000Z</time>
</trkpt>
<trkpt lat="45.9186220" lon="10.3253240">
	<ele>906.20</ele>
	<time>2025-04-29T06:08:32.000Z</time>
</trkpt>
<trkpt lat="45.9186250" lon="10.3253340">
	<ele>906.40</ele>
	<time>2025-04-29T06:08:33.000Z</time>
</trkpt>
<trkpt lat="45.9186240" lon="10.3253400">
	<ele>906.60</ele>
	<time>2025-04-29T06:08:34.000Z</time>
</trkpt>
<trkpt lat="45.9186210" lon="10.3253450">
	<ele>906.80</ele>
	<time>2025-04-29T06:08:35.000Z</time>
</trkpt>
<trkpt lat="45.9186180" lon="10.3253490">
	<ele>907.00</ele>
	<time>2025-04-29T06:08:36.000Z</time>
</trkpt>
<trkpt lat="45.9186140" lon="10.3253590">
	<ele>907.20</ele>
	<time>2025-04-29T06:08:37.000Z</time>
</trkpt>
<trkpt lat="45.9185840" lon="10.3253540">
	<ele>907.40</ele>
	<time>2025-04-29T06:08:38.000Z</time>
</trkpt>
<trkpt lat="45.9185740" lon="10.3253580">
	<ele>907.60</ele>
	<time>2025-04-29T06:08:39.000Z</time>
</trkpt>
<trkpt lat="45.9185730" lon="10.3253640">
	<ele>907.80</ele>
	<time>2025-04-29T06:08:40.000Z</time>
</trkpt>
<trkpt lat="45.9185870" lon="10.3253800">
	<ele>908.00</ele>
	<time>2025-04-29T06:08:41.000Z</time>
</trkpt>
<trkpt lat="45.9185800" lon="10.3253880">
	<ele>908.20</ele>
	<time>2025-04-29T06:08:42.000Z</time>
</trkpt>
<trkpt lat="45.9185690" lon="10.3253960">
	<ele>908.20</ele>
	<time>2025-04-29T06:08:43.000Z</time>
</trkpt>
<trkpt lat="45.9185670" lon="10.3254140">
	<ele>908.60</ele>
	<time>2025-04-29T06:08:44.000Z</time>
</trkpt>
<trkpt lat="45.9185680" lon="10.3254310">
	<ele>908.80</ele>
	<time>2025-04-29T06:08:45.000Z</time>
</trkpt>
<trkpt lat="45.9185830" lon="10.3254540">
	<ele>909.00</ele>
	<time>2025-04-29T06:08:46.000Z</time>
</trkpt>
<trkpt lat="45.9186020" lon="10.3254720">
	<ele>909.40</ele>
	<time>2025-04-29T06:08:47.000Z</time>
</trkpt>
<trkpt lat="45.9186080" lon="10.3254780">
	<ele>909.40</ele>
	<time>2025-04-29T06:08:48.000Z</time>
</trkpt>
<trkpt lat="45.9186220" lon="10.3254980">
	<ele>909.60</ele>
	<time>2025-04-29T06:08:49.000Z</time>
</trkpt>
<trkpt lat="45.9186380" lon="10.3255330">
	<ele>910.00</ele>
	<time>2025-04-29T06:08:50.000Z</time>
</trkpt>
<trkpt lat="45.9186330" lon="10.3255480">
	<ele>910.20</ele>
	<time>2025-04-29T06:08:51.000Z</time>
</trkpt>
<trkpt lat="45.9186310" lon="10.3255530">
	<ele>910.20</ele>
	<time>2025-04-29T06:08:52.000Z</time>
</trkpt>
<trkpt lat="45.9186260" lon="10.3255630">
	<ele>910.60</ele>
	<time>2025-04-29T06:08:53.000Z</time>
</trkpt>
<trkpt lat="45.9186410" lon="10.3255840">
	<ele>910.60</ele>
	<time>2025-04-29T06:08:54.000Z</time>
</trkpt>
<trkpt lat="45.9186470" lon="10.3255900">
	<ele>910.80</ele>
	<time>2025-04-29T06:08:55.000Z</time>
</trkpt>
<trkpt lat="45.9186510" lon="10.3255940">
	<ele>911.00</ele>
	<time>2025-04-29T06:08:56.000Z</time>
</trkpt>
<trkpt lat="45.9186430" lon="10.3256080">
	<ele>911.00</ele>
	<time>2025-04-29T06:08:57.000Z</time>
</trkpt>
<trkpt lat="45.9186270" lon="10.3256170">
	<ele>911.20</ele>
	<time>2025-04-29T06:08:58.000Z</time>
</trkpt>
<trkpt lat="45.9186230" lon="10.3256280">
	<ele>911.60</ele>
	<time>2025-04-29T06:08:59.000Z</time>
</trkpt>
<trkpt lat="45.9186260" lon="10.3256460">
	<ele>911.80</ele>
	<time>2025-04-29T06:09:00.000Z</time>
</trkpt>
<trkpt lat="45.9186230" lon="10.3256510">
	<ele>911.80</ele>
	<time>2025-04-29T06:09:01.000Z</time>
</trkpt>
<trkpt lat="45.9186020" lon="10.3256580">
	<ele>912.00</ele>
	<time>2025-04-29T06:09:02.000Z</time>
</trkpt>
<trkpt lat="45.9185910" lon="10.3256640">
	<ele>912.20</ele>
	<time>2025-04-29T06:09:03.000Z</time>
</trkpt>
<trkpt lat="45.9185910" lon="10.3256690">
	<ele>912.40</ele>
	<time>2025-04-29T06:09:04.000Z</time>
</trkpt>
<trkpt lat="45.9185880" lon="10.3256810">
	<ele>912.60</ele>
	<time>2025-04-29T06:09:05.000Z</time>
</trkpt>
<trkpt lat="45.9185890" lon="10.3256940">
	<ele>912.80</ele>
	<time>2025-04-29T06:09:06.000Z</time>
</trkpt>
<trkpt lat="45.9185880" lon="10.3257050">
	<ele>913.00</ele>
	<time>2025-04-29T06:09:07.000Z</time>
</trkpt>
<trkpt lat="45.9185740" lon="10.3257110">
	<ele>913.20</ele>
	<time>2025-04-29T06:09:08.000Z</time>
</trkpt>
<trkpt lat="45.9185490" lon="10.3257110">
	<ele>913.40</ele>
	<time>2025-04-29T06:09:09.000Z</time>
</trkpt>
<trkpt lat="45.9185330" lon="10.3257160">
	<ele>913.60</ele>
	<time>2025-04-29T06:09:10.000Z</time>
</trkpt>
<trkpt lat="45.9185220" lon="10.3257260">
	<ele>914.00</ele>
	<time>2025-04-29T06:09:11.000Z</time>
</trkpt>
<trkpt lat="45.9185400" lon="10.3257280">
	<ele>914.20</ele>
	<time>2025-04-29T06:09:12.000Z</time>
</trkpt>
<trkpt lat="45.9185390" lon="10.3257350">
	<ele>914.20</ele>
	<time>2025-04-29T06:09:13.000Z</time>
</trkpt>
<trkpt lat="45.9185320" lon="10.3257420">
	<ele>914.40</ele>
	<time>2025-04-29T06:09:14.000Z</time>
</trkpt>
<trkpt lat="45.9185340" lon="10.3257540">
	<ele>914.60</ele>
	<time>2025-04-29T06:09:15.000Z</time>
</trkpt>
<trkpt lat="45.9185430" lon="10.3257700">
	<ele>914.80</ele>
	<time>2025-04-29T06:09:16.000Z</time>
</trkpt>
<trkpt lat="45.9185430" lon="10.3257870">
	<ele>914.80</ele>
	<time>2025-04-29T06:09:17.000Z</time>
</trkpt>
<trkpt lat="45.9185430" lon="10.3257930">
	<ele>915.00</ele>
	<time>2025-04-29T06:09:18.000Z</time>
</trkpt>
<trkpt lat="45.9185300" lon="10.3257950">
	<ele>915.40</ele>
	<time>2025-04-29T06:09:19.000Z</time>
</trkpt>
<trkpt lat="45.9185200" lon="10.3257930">
	<ele>915.60</ele>
	<time>2025-04-29T06:09:20.000Z</time>
</trkpt>
<trkpt lat="45.9185180" lon="10.3258060">
	<ele>915.80</ele>
	<time>2025-04-29T06:09:21.000Z</time>
</trkpt>
<trkpt lat="45.9185200" lon="10.3258110">
	<ele>916.00</ele>
	<time>2025-04-29T06:09:22.000Z</time>
</trkpt>
<trkpt lat="45.9185130" lon="10.3258190">
	<ele>916.40</ele>
	<time>2025-04-29T06:09:23.000Z</time>
</trkpt>
<trkpt lat="45.9185080" lon="10.3258290">
	<ele>916.60</ele>
	<time>2025-04-29T06:09:24.000Z</time>
</trkpt>
<trkpt lat="45.9185020" lon="10.3258360">
	<ele>916.60</ele>
	<time>2025-04-29T06:09:25.000Z</time>
</trkpt>
<trkpt lat="45.9185010" lon="10.3258400">
	<ele>916.80</ele>
	<time>2025-04-29T06:09:26.000Z</time>
</trkpt>
<trkpt lat="45.9184930" lon="10.3258390">
	<ele>917.00</ele>
	<time>2025-04-29T06:09:27.000Z</time>
</trkpt>
<trkpt lat="45.9185090" lon="10.3258420">
	<ele>917.20</ele>
	<time>2025-04-29T06:09:28.000Z</time>
</trkpt>
<trkpt lat="45.9185200" lon="10.3258520">
	<ele>917.40</ele>
	<time>2025-04-29T06:09:29.000Z</time>
</trkpt>
<trkpt lat="45.9185210" lon="10.3258570">
	<ele>917.60</ele>
	<time>2025-04-29T06:09:30.000Z</time>
</trkpt>
<trkpt lat="45.9185310" lon="10.3258710">
	<ele>917.80</ele>
	<time>2025-04-29T06:09:31.000Z</time>
</trkpt>
<trkpt lat="45.9185440" lon="10.3258920">
	<ele>918.00</ele>
	<time>2025-04-29T06:09:32.000Z</time>
</trkpt>
<trkpt lat="45.9185460" lon="10.3259030">
	<ele>918.20</ele>
	<time>2025-04-29T06:09:33.000Z</time>
</trkpt>
<trkpt lat="45.9185380" lon="10.3259070">
	<ele>918.40</ele>
	<time>2025-04-29T06:09:34.000Z</time>
</trkpt>
<trkpt lat="45.9185430" lon="10.3259160">
	<ele>918.60</ele>
	<time>2025-04-29T06:09:35.000Z</time>
</trkpt>
<trkpt lat="45.9185390" lon="10.3259270">
	<ele>918.60</ele>
	<time>2025-04-29T06:09:36.000Z</time>
</trkpt>
<trkpt lat="45.9185310" lon="10.3259340">
	<ele>919.00</ele>
	<time>2025-04-29T06:09:37.000Z</time>
</trkpt>
<trkpt lat="45.9185360" lon="10.3259510">
	<ele>919.20</ele>
	<time>2025-04-29T06:09:38.000Z</time>
</trkpt>
<trkpt lat="45.9185640" lon="10.3259770">
	<ele>919.40</ele>
	<time>2025-04-29T06:09:39.000Z</time>
</trkpt>
<trkpt lat="45.9185710" lon="10.3259900">
	<ele>919.60</ele>
	<time>2025-04-29T06:09:40.000Z</time>
</trkpt>
<trkpt lat="45.9185680" lon="10.3259950">
	<ele>919.60</ele>
	<time>2025-04-29T06:09:41.000Z</time>
</trkpt>
<trkpt lat="45.9185600" lon="10.3259990">
	<ele>919.80</ele>
	<time>2025-04-29T06:09:42.000Z</time>
</trkpt>
<trkpt lat="45.9185530" lon="10.3260040">
	<ele>920.00</ele>
	<time>2025-04-29T06:09:43.000Z</time>
</trkpt>
<trkpt lat="45.9185670" lon="10.3260150">
	<ele>920.20</ele>
	<time>2025-04-29T06:09:44.000Z</time>
</trkpt>
<trkpt lat="45.9185630" lon="10.3260250">
	<ele>920.40</ele>
	<time>2025-04-29T06:09:45.000Z</time>
</trkpt>
<trkpt lat="45.9185620" lon="10.3260380">
	<ele>920.60</ele>
	<time>2025-04-29T06:09:46.000Z</time>
</trkpt>
<trkpt lat="45.9185610" lon="10.3260470">
	<ele>920.80</ele>
	<time>2025-04-29T06:09:47.000Z</time>
</trkpt>
<trkpt lat="45.9185590" lon="10.3260580">
	<ele>920.80</ele>
	<time>2025-04-29T06:09:48.000Z</time>
</trkpt>
<trkpt lat="45.9185710" lon="10.3260700">
	<ele>921.00</ele>
	<time>2025-04-29T06:09:49.000Z</time>
</trkpt>
<trkpt lat="45.9185720" lon="10.3260760">
	<ele>921.40</ele>
	<time>2025-04-29T06:09:50.000Z</time>
</trkpt>
<trkpt lat="45.9185620" lon="10.3260800">
	<ele>921.60</ele>
	<time>2025-04-29T06:09:51.000Z</time>
</trkpt>
<trkpt lat="45.9185600" lon="10.3260830">
	<ele>921.80</ele>
	<time>2025-04-29T06:09:52.000Z</time>
</trkpt>
<trkpt lat="45.9185570" lon="10.3260920">
	<ele>921.80</ele>
	<time>2025-04-29T06:09:53.000Z</time>
</trkpt>
<trkpt lat="45.9185570" lon="10.3261070">
	<ele>922.00</ele>
	<time>2025-04-29T06:09:54.000Z</time>
</trkpt>
<trkpt lat="45.9185670" lon="10.3261120">
	<ele>922.20</ele>
	<time>2025-04-29T06:09:55.000Z</time>
</trkpt>
<trkpt lat="45.9185690" lon="10.3261260">
	<ele>922.20</ele>
	<time>2025-04-29T06:09:56.000Z</time>
</trkpt>
<trkpt lat="45.9185900" lon="10.3261410">
	<ele>922.40</ele>
	<time>2025-04-29T06:09:57.000Z</time>
</trkpt>
<trkpt lat="45.9186080" lon="10.3261590">
	<ele>922.60</ele>
	<time>2025-04-29T06:09:58.000Z</time>
</trkpt>
<trkpt lat="45.9186130" lon="10.3261700">
	<ele>923.00</ele>
	<time>2025-04-29T06:09:59.000Z</time>
</trkpt>
<trkpt lat="45.9186150" lon="10.3261790">
	<ele>923.20</ele>
	<time>2025-04-29T06:10:00.000Z</time>
</trkpt>
<trkpt lat="45.9186040" lon="10.3261790">
	<ele>923.20</ele>
	<time>2025-04-29T06:10:01.000Z</time>
</trkpt>
<trkpt lat="45.9185960" lon="10.3261750">
	<ele>923.40</ele>
	<time>2025-04-29T06:10:02.000Z</time>
</trkpt>
<trkpt lat="45.9185860" lon="10.3261830">
	<ele>923.60</ele>
	<time>2025-04-29T06:10:03.000Z</time>
</trkpt>
<trkpt lat="45.9185810" lon="10.3261850">
	<ele>923.80</ele>
	<time>2025-04-29T06:10:04.000Z</time>
</trkpt>
<trkpt lat="45.9185730" lon="10.3262020">
	<ele>923.80</ele>
	<time>2025-04-29T06:10:05.000Z</time>
</trkpt>
<trkpt lat="45.9185650" lon="10.3262160">
	<ele>924.00</ele>
	<time>2025-04-29T06:10:06.000Z</time>
</trkpt>
<trkpt lat="45.9185640" lon="10.3262200">
	<ele>924.20</ele>
	<time>2025-04-29T06:10:07.000Z</time>
</trkpt>
<trkpt lat="45.9185660" lon="10.3262260">
	<ele>924.60</ele>
	<time>2025-04-29T06:10:08.000Z</time>
</trkpt>
<trkpt lat="45.9185600" lon="10.3262340">
	<ele>924.80</ele>
	<time>2025-04-29T06:10:09.000Z</time>
</trkpt>
<trkpt lat="45.9185510" lon="10.3262430">
	<ele>925.00</ele>
	<time>2025-04-29T06:10:10.000Z</time>
</trkpt>
<trkpt lat="45.9185360" lon="10.3262540">
	<ele>925.20</ele>
	<time>2025-04-29T06:10:11.000Z</time>
</trkpt>
<trkpt lat="45.9185160" lon="10.3262700">
	<ele>925.40</ele>
	<time>2025-04-29T06:10:12.000Z</time>
</trkpt>
<trkpt lat="45.9185090" lon="10.3262750">
	<ele>925.60</ele>
	<time>2025-04-29T06:10:13.000Z</time>
</trkpt>
<trkpt lat="45.9185020" lon="10.3262800">
	<ele>925.80</ele>
	<time>2025-04-29T06:10:14.000Z</time>
</trkpt>
<trkpt lat="45.9185050" lon="10.3262910">
	<ele>926.00</ele>
	<time>2025-04-29T06:10:15.000Z</time>
</trkpt>
<trkpt lat="45.9185160" lon="10.3263050">
	<ele>926.00</ele>
	<time>2025-04-29T06:10:16.000Z</time>
</trkpt>
<trkpt lat="45.9185220" lon="10.3263190">
	<ele>926.20</ele>
	<time>2025-04-29T06:10:17.000Z</time>
</trkpt>
<trkpt lat="45.9185110" lon="10.3263350">
	<ele>926.40</ele>
	<time>2025-04-29T06:10:18.000Z</time>
</trkpt>
<trkpt lat="45.9184990" lon="10.3263340">
	<ele>926.40</ele>
	<time>2025-04-29T06:10:19.000Z</time>
</trkpt>
<trkpt lat="45.9184880" lon="10.3263290">
	<ele>926.80</ele>
	<time>2025-04-29T06:10:20.000Z</time>
</trkpt>
<trkpt lat="45.9184740" lon="10.3263370">
	<ele>926.80</ele>
	<time>2025-04-29T06:10:21.000Z</time>
</trkpt>
<trkpt lat="45.9184670" lon="10.3263410">
	<ele>927.20</ele>
	<time>2025-04-29T06:10:22.000Z</time>
</trkpt>
<trkpt lat="45.9184580" lon="10.3263400">
	<ele>927.20</ele>
	<time>2025-04-29T06:10:23.000Z</time>
</trkpt>
<trkpt lat="45.9184480" lon="10.3263360">
	<ele>927.40</ele>
	<time>2025-04-29T06:10:24.000Z</time>
</trkpt>
<trkpt lat="45.9184560" lon="10.3263440">
	<ele>927.40</ele>
	<time>2025-04-29T06:10:25.000Z</time>
</trkpt>
<trkpt lat="45.9184530" lon="10.3263490">
	<ele>927.60</ele>
	<time>2025-04-29T06:10:26.000Z</time>
</trkpt>
<trkpt lat="45.9184430" lon="10.3263540">
	<ele>928.00</ele>
	<time>2025-04-29T06:10:27.000Z</time>
</trkpt>
<trkpt lat="45.9184320" lon="10.3263630">
	<ele>928.20</ele>
	<time>2025-04-29T06:10:28.000Z</time>
</trkpt>
<trkpt lat="45.9184370" lon="10.3263740">
	<ele>928.60</ele>
	<time>2025-04-29T06:10:29.000Z</time>
</trkpt>
<trkpt lat="45.9184330" lon="10.3263790">
	<ele>928.60</ele>
	<time>2025-04-29T06:10:30.000Z</time>
</trkpt>
<trkpt lat="45.9184400" lon="10.3263860">
	<ele>928.80</ele>
	<time>2025-04-29T06:10:31.000Z</time>
</trkpt>
<trkpt lat="45.9184330" lon="10.3263920">
	<ele>929.00</ele>
	<time>2025-04-29T06:10:32.000Z</time>
</trkpt>
<trkpt lat="45.9184250" lon="10.3264020">
	<ele>929.20</ele>
	<time>2025-04-29T06:10:33.000Z</time>
</trkpt>
<trkpt lat="45.9184260" lon="10.3264200">
	<ele>929.20</ele>
	<time>2025-04-29T06:10:34.000Z</time>
</trkpt>
<trkpt lat="45.9184160" lon="10.3264320">
	<ele>929.40</ele>
	<time>2025-04-29T06:10:35.000Z</time>
</trkpt>
<trkpt lat="45.9183940" lon="10.3264410">
	<ele>929.60</ele>
	<time>2025-04-29T06:10:36.000Z</time>
</trkpt>
<trkpt lat="45.9183810" lon="10.3264490">
	<ele>929.80</ele>
	<time>2025-04-29T06:10:37.000Z</time>
</trkpt>
<trkpt lat="45.9183790" lon="10.3264410">
	<ele>930.00</ele>
	<time>2025-04-29T06:10:38.000Z</time>
</trkpt>
<trkpt lat="45.9183780" lon="10.3264310">
	<ele>930.20</ele>
	<time>2025-04-29T06:10:39.000Z</time>
</trkpt>
<trkpt lat="45.9183720" lon="10.3264330">
	<ele>930.40</ele>
	<time>2025-04-29T06:10:40.000Z</time>
</trkpt>
<trkpt lat="45.9183640" lon="10.3264380">
	<ele>930.40</ele>
	<time>2025-04-29T06:10:41.000Z</time>
</trkpt>
<trkpt lat="45.9183620" lon="10.3264410">
	<ele>930.40</ele>
	<time>2025-04-29T06:10:42.000Z</time>
</trkpt>
<trkpt lat="45.9183520" lon="10.3264480">
	<ele>930.60</ele>
	<time>2025-04-29T06:10:43.000Z</time>
</trkpt>
<trkpt lat="45.9183340" lon="10.3264520">
	<ele>930.80</ele>
	<time>2025-04-29T06:10:44.000Z</time>
</trkpt>
<trkpt lat="45.9183190" lon="10.3264590">
	<ele>931.00</ele>
	<time>2025-04-29T06:10:45.000Z</time>
</trkpt>
<trkpt lat="45.9183120" lon="10.3264600">
	<ele>931.20</ele>
	<time>2025-04-29T06:10:46.000Z</time>
</trkpt>
<trkpt lat="45.9183040" lon="10.3264550">
	<ele>931.40</ele>
	<time>2025-04-29T06:10:47.000Z</time>
</trkpt>
<trkpt lat="45.9182960" lon="10.3264520">
	<ele>931.60</ele>
	<time>2025-04-29T06:10:48.000Z</time>
</trkpt>
<trkpt lat="45.9182890" lon="10.3264600">
	<ele>931.80</ele>
	<time>2025-04-29T06:10:49.000Z</time>
</trkpt>
<trkpt lat="45.9182850" lon="10.3264510">
	<ele>932.00</ele>
	<time>2025-04-29T06:10:50.000Z</time>
</trkpt>
<trkpt lat="45.9182770" lon="10.3264540">
	<ele>932.20</ele>
	<time>2025-04-29T06:10:51.000Z</time>
</trkpt>
<trkpt lat="45.9182710" lon="10.3264750">
	<ele>932.40</ele>
	<time>2025-04-29T06:10:52.000Z</time>
</trkpt>
<trkpt lat="45.9182700" lon="10.3264740">
	<ele>932.60</ele>
	<time>2025-04-29T06:10:53.000Z</time>
</trkpt>
<trkpt lat="45.9182750" lon="10.3264800">
	<ele>932.80</ele>
	<time>2025-04-29T06:10:54.000Z</time>
</trkpt>
<trkpt lat="45.9182750" lon="10.3264830">
	<ele>932.80</ele>
	<time>2025-04-29T06:10:55.000Z</time>
</trkpt>
<trkpt lat="45.9182680" lon="10.3264880">
	<ele>933.00</ele>
	<time>2025-04-29T06:10:56.000Z</time>
</trkpt>
<trkpt lat="45.9182610" lon="10.3264930">
	<ele>933.20</ele>
	<time>2025-04-29T06:10:57.000Z</time>
</trkpt>
<trkpt lat="45.9182510" lon="10.3265020">
	<ele>933.40</ele>
	<time>2025-04-29T06:10:58.000Z</time>
</trkpt>
<trkpt lat="45.9182470" lon="10.3265040">
	<ele>933.60</ele>
	<time>2025-04-29T06:10:59.000Z</time>
</trkpt>
<trkpt lat="45.9182390" lon="10.3265170">
	<ele>933.80</ele>
	<time>2025-04-29T06:11:00.000Z</time>
</trkpt>
<trkpt lat="45.9182430" lon="10.3265220">
	<ele>934.00</ele>
	<time>2025-04-29T06:11:01.000Z</time>
</trkpt>
<trkpt lat="45.9182410" lon="10.3265240">
	<ele>934.20</ele>
	<time>2025-04-29T06:11:02.000Z</time>
</trkpt>
<trkpt lat="45.9182390" lon="10.3265240">
	<ele>934.60</ele>
	<time>2025-04-29T06:11:03.000Z</time>
</trkpt>
<trkpt lat="45.9182310" lon="10.3265240">
	<ele>934.80</ele>
	<time>2025-04-29T06:11:04.000Z</time>
</trkpt>
<trkpt lat="45.9182300" lon="10.3265290">
	<ele>934.80</ele>
	<time>2025-04-29T06:11:05.000Z</time>
</trkpt>
<trkpt lat="45.9182290" lon="10.3265340">
	<ele>935.20</ele>
	<time>2025-04-29T06:11:06.000Z</time>
</trkpt>
<trkpt lat="45.9182320" lon="10.3265440">
	<ele>935.20</ele>
	<time>2025-04-29T06:11:07.000Z</time>
</trkpt>
<trkpt lat="45.9182360" lon="10.3265540">
	<ele>935.40</ele>
	<time>2025-04-29T06:11:08.000Z</time>
</trkpt>
<trkpt lat="45.9182320" lon="10.3265770">
	<ele>935.60</ele>
	<time>2025-04-29T06:11:09.000Z</time>
</trkpt>
<trkpt lat="45.9182260" lon="10.3265970">
	<ele>935.80</ele>
	<time>2025-04-29T06:11:10.000Z</time>
</trkpt>
<trkpt lat="45.9182150" lon="10.3266130">
	<ele>936.00</ele>
	<time>2025-04-29T06:11:11.000Z</time>
</trkpt>
<trkpt lat="45.9182060" lon="10.3266290">
	<ele>936.20</ele>
	<time>2025-04-29T06:11:12.000Z</time>
</trkpt>
<trkpt lat="45.9181950" lon="10.3266400">
	<ele>936.40</ele>
	<time>2025-04-29T06:11:13.000Z</time>
</trkpt>
<trkpt lat="45.9181920" lon="10.3266470">
	<ele>936.40</ele>
	<time>2025-04-29T06:11:14.000Z</time>
</trkpt>
<trkpt lat="45.9181850" lon="10.3266520">
	<ele>936.60</ele>
	<time>2025-04-29T06:11:15.000Z</time>
</trkpt>
<trkpt lat="45.9181810" lon="10.3266540">
	<ele>936.80</ele>
	<time>2025-04-29T06:11:16.000Z</time>
</trkpt>
<trkpt lat="45.9181720" lon="10.3266640">
	<ele>937.00</ele>
	<time>2025-04-29T06:11:17.000Z</time>
</trkpt>
<trkpt lat="45.9181680" lon="10.3266610">
	<ele>937.20</ele>
	<time>2025-04-29T06:11:18.000Z</time>
</trkpt>
<trkpt lat="45.9181700" lon="10.3266720">
	<ele>937.20</ele>
	<time>2025-04-29T06:11:19.000Z</time>
</trkpt>
<trkpt lat="45.9181730" lon="10.3266730">
	<ele>937.40</ele>
	<time>2025-04-29T06:11:20.000Z</time>
</trkpt>
<trkpt lat="45.9181890" lon="10.3266800">
	<ele>937.40</ele>
	<time>2025-04-29T06:11:21.000Z</time>
</trkpt>
<trkpt lat="45.9181860" lon="10.3266900">
	<ele>937.60</ele>
	<time>2025-04-29T06:11:22.000Z</time>
</trkpt>
<trkpt lat="45.9182000" lon="10.3266930">
	<ele>937.60</ele>
	<time>2025-04-29T06:11:23.000Z</time>
</trkpt>
<trkpt lat="45.9182060" lon="10.3266940">
	<ele>937.80</ele>
	<time>2025-04-29T06:11:24.000Z</time>
</trkpt>
<trkpt lat="45.9182080" lon="10.3266940">
	<ele>937.80</ele>
	<time>2025-04-29T06:11:25.000Z</time>
</trkpt>
<trkpt lat="45.9182290" lon="10.3266980">
	<ele>937.60</ele>
	<time>2025-04-29T06:11:26.000Z</time>
</trkpt>
<trkpt lat="45.9182350" lon="10.3267010">
	<ele>937.60</ele>
	<time>2025-04-29T06:11:27.000Z</time>
</trkpt>
<trkpt lat="45.9182380" lon="10.3267030">
	<ele>937.60</ele>
	<time>2025-04-29T06:11:28.000Z</time>
</trkpt>
<trkpt lat="45.9182410" lon="10.3267060">
	<ele>937.60</ele>
	<time>2025-04-29T06:11:29.000Z</time>
</trkpt>
<trkpt lat="45.9182420" lon="10.3267110">
	<ele>937.40</ele>
	<time>2025-04-29T06:11:30.000Z</time>
</trkpt>
<trkpt lat="45.9182380" lon="10.3267320">
	<ele>937.40</ele>
	<time>2025-04-29T06:11:31.000Z</time>
</trkpt>
<trkpt lat="45.9182340" lon="10.3267440">
	<ele>937.40</ele>
	<time>2025-04-29T06:11:32.000Z</time>
</trkpt>
<trkpt lat="45.9182340" lon="10.3267430">
	<ele>937.40</ele>
	<time>2025-04-29T06:11:33.000Z</time>
</trkpt>
<trkpt lat="45.9182340" lon="10.3267430">
	<ele>937.40</ele>
	<time>2025-04-29T06:11:34.000Z</time>
</trkpt>
<trkpt lat="45.9182340" lon="10.3267430">
	<ele>937.40</ele>
	<time>2025-04-29T06:11:35.000Z</time>
</trkpt>
<trkpt lat="45.9182320" lon="10.3267430">
	<ele>937.20</ele>
	<time>2025-04-29T06:11:36.000Z</time>
</trkpt>
<trkpt lat="45.9182240" lon="10.3267450">
	<ele>937.00</ele>
	<time>2025-04-29T06:11:37.000Z</time>
</trkpt>
<trkpt lat="45.9182170" lon="10.3267470">
	<ele>937.00</ele>
	<time>2025-04-29T06:11:38.000Z</time>
</trkpt>
<trkpt lat="45.9182170" lon="10.3267480">
	<ele>937.00</ele>
	<time>2025-04-29T06:11:39.000Z</time>
</trkpt>
<trkpt lat="45.9182360" lon="10.3267630">
	<ele>937.00</ele>
	<time>2025-04-29T06:11:40.000Z</time>
</trkpt>
<trkpt lat="45.9182440" lon="10.3267720">
	<ele>937.20</ele>
	<time>2025-04-29T06:11:41.000Z</time>
</trkpt>
<trkpt lat="45.9182460" lon="10.3267750">
	<ele>937.20</ele>
	<time>2025-04-29T06:11:42.000Z</time>
</trkpt>
<trkpt lat="45.9182440" lon="10.3267790">
	<ele>937.20</ele>
	<time>2025-04-29T06:11:43.000Z</time>
</trkpt>
<trkpt lat="45.9182140" lon="10.3267730">
	<ele>937.20</ele>
	<time>2025-04-29T06:11:44.000Z</time>
</trkpt>
<trkpt lat="45.9181870" lon="10.3267660">
	<ele>937.20</ele>
	<time>2025-04-29T06:11:45.000Z</time>
</trkpt>
<trkpt lat="45.9181840" lon="10.3267670">
	<ele>937.40</ele>
	<time>2025-04-29T06:11:46.000Z</time>
</trkpt>
<trkpt lat="45.9181890" lon="10.3267700">
	<ele>937.40</ele>
	<time>2025-04-29T06:11:47.000Z</time>
</trkpt>
<trkpt lat="45.9181920" lon="10.3267680">
	<ele>937.40</ele>
	<time>2025-04-29T06:11:48.000Z</time>
</trkpt>
<trkpt lat="45.9181930" lon="10.3267690">
	<ele>937.40</ele>
	<time>2025-04-29T06:11:49.000Z</time>
</trkpt>
<trkpt lat="45.9182030" lon="10.3267770">
	<ele>937.20</ele>
	<time>2025-04-29T06:11:50.000Z</time>
</trkpt>
<trkpt lat="45.9182040" lon="10.3267800">
	<ele>937.20</ele>
	<time>2025-04-29T06:11:51.000Z</time>
</trkpt>
<trkpt lat="45.9182020" lon="10.3267750">
	<ele>937.20</ele>
	<time>2025-04-29T06:11:52.000Z</time>
</trkpt>
<trkpt lat="45.9182020" lon="10.3267730">
	<ele>937.20</ele>
	<time>2025-04-29T06:11:53.000Z</time>
</trkpt>
<trkpt lat="45.9181960" lon="10.3267710">
	<ele>937.20</ele>
	<time>2025-04-29T06:11:54.000Z</time>
</trkpt>
<trkpt lat="45.9181680" lon="10.3267610">
	<ele>937.20</ele>
	<time>2025-04-29T06:11:55.000Z</time>
</trkpt>
<trkpt lat="45.9181600" lon="10.3267560">
	<ele>937.20</ele>
	<time>2025-04-29T06:11:56.000Z</time>
</trkpt>
<trkpt lat="45.9181650" lon="10.3267570">
	<ele>937.20</ele>
	<time>2025-04-29T06:11:57.000Z</time>
</trkpt>
<trkpt lat="45.9181650" lon="10.3267590">
	<ele>937.20</ele>
	<time>2025-04-29T06:11:58.000Z</time>
</trkpt>
<trkpt lat="45.9181590" lon="10.3267620">
	<ele>937.40</ele>
	<time>2025-04-29T06:11:59.000Z</time>
</trkpt>
<trkpt lat="45.9181570" lon="10.3267650">
	<ele>937.60</ele>
	<time>2025-04-29T06:12:00.000Z</time>
</trkpt>
<trkpt lat="45.9181420" lon="10.3267680">
	<ele>937.60</ele>
	<time>2025-04-29T06:12:01.000Z</time>
</trkpt>
<trkpt lat="45.9181510" lon="10.3267820">
	<ele>937.60</ele>
	<time>2025-04-29T06:12:02.000Z</time>
</trkpt>
<trkpt lat="45.9181600" lon="10.3267980">
	<ele>937.60</ele>
	<time>2025-04-29T06:12:03.000Z</time>
</trkpt>
<trkpt lat="45.9181650" lon="10.3268000">
	<ele>937.60</ele>
	<time>2025-04-29T06:12:04.000Z</time>
</trkpt>
<trkpt lat="45.9181520" lon="10.3267970">
	<ele>937.60</ele>
	<time>2025-04-29T06:12:05.000Z</time>
</trkpt>
<trkpt lat="45.9181310" lon="10.3267980">
	<ele>937.60</ele>
	<time>2025-04-29T06:12:06.000Z</time>
</trkpt>
<trkpt lat="45.9181230" lon="10.3268110">
	<ele>937.60</ele>
	<time>2025-04-29T06:12:07.000Z</time>
</trkpt>
<trkpt lat="45.9181440" lon="10.3268190">
	<ele>937.60</ele>
	<time>2025-04-29T06:12:08.000Z</time>
</trkpt>
<trkpt lat="45.9181420" lon="10.3268290">
	<ele>937.80</ele>
	<time>2025-04-29T06:12:09.000Z</time>
</trkpt>
<trkpt lat="45.9181410" lon="10.3268350">
	<ele>937.80</ele>
	<time>2025-04-29T06:12:10.000Z</time>
</trkpt>
<trkpt lat="45.9181360" lon="10.3268420">
	<ele>938.00</ele>
	<time>2025-04-29T06:12:11.000Z</time>
</trkpt>
<trkpt lat="45.9181400" lon="10.3268470">
	<ele>938.20</ele>
	<time>2025-04-29T06:12:12.000Z</time>
</trkpt>
<trkpt lat="45.9181520" lon="10.3268590">
	<ele>938.40</ele>
	<time>2025-04-29T06:12:13.000Z</time>
</trkpt>
<trkpt lat="45.9181530" lon="10.3268710">
	<ele>938.40</ele>
	<time>2025-04-29T06:12:14.000Z</time>
</trkpt>
<trkpt lat="45.9181580" lon="10.3268830">
	<ele>938.60</ele>
	<time>2025-04-29T06:12:15.000Z</time>
</trkpt>
<trkpt lat="45.9181640" lon="10.3268900">
	<ele>938.60</ele>
	<time>2025-04-29T06:12:16.000Z</time>
</trkpt>
<trkpt lat="45.9181670" lon="10.3269010">
	<ele>938.80</ele>
	<time>2025-04-29T06:12:17.000Z</time>
</trkpt>
<trkpt lat="45.9181670" lon="10.3269080">
	<ele>939.00</ele>
	<time>2025-04-29T06:12:18.000Z</time>
</trkpt>
<trkpt lat="45.9181720" lon="10.3269060">
	<ele>939.20</ele>
	<time>2025-04-29T06:12:19.000Z</time>
</trkpt>
<trkpt lat="45.9181710" lon="10.3268980">
	<ele>939.20</ele>
	<time>2025-04-29T06:12:20.000Z</time>
</trkpt>
<trkpt lat="45.9181640" lon="10.3268910">
	<ele>939.40</ele>
	<time>2025-04-29T06:12:21.000Z</time>
</trkpt>
<trkpt lat="45.9181590" lon="10.3268910">
	<ele>939.40</ele>
	<time>2025-04-29T06:12:22.000Z</time>
</trkpt>
<trkpt lat="45.9181640" lon="10.3268930">
	<ele>939.60</ele>
	<time>2025-04-29T06:12:23.000Z</time>
</trkpt>
<trkpt lat="45.9181650" lon="10.3269010">
	<ele>939.60</ele>
	<time>2025-04-29T06:12:24.000Z</time>
</trkpt>
<trkpt lat="45.9181490" lon="10.3269130">
	<ele>939.80</ele>
	<time>2025-04-29T06:12:25.000Z</time>
</trkpt>
<trkpt lat="45.9181440" lon="10.3269300">
	<ele>940.00</ele>
	<time>2025-04-29T06:12:26.000Z</time>
</trkpt>
<trkpt lat="45.9181380" lon="10.3269460">
	<ele>940.00</ele>
	<time>2025-04-29T06:12:27.000Z</time>
</trkpt>
<trkpt lat="45.9181370" lon="10.3269530">
	<ele>940.00</ele>
	<time>2025-04-29T06:12:28.000Z</time>
</trkpt>
<trkpt lat="45.9181350" lon="10.3269560">
	<ele>940.00</ele>
	<time>2025-04-29T06:12:29.000Z</time>
</trkpt>
<trkpt lat="45.9181290" lon="10.3269680">
	<ele>940.20</ele>
	<time>2025-04-29T06:12:30.000Z</time>
</trkpt>
<trkpt lat="45.9181280" lon="10.3269720">
	<ele>940.20</ele>
	<time>2025-04-29T06:12:31.000Z</time>
</trkpt>
<trkpt lat="45.9181320" lon="10.3269780">
	<ele>940.40</ele>
	<time>2025-04-29T06:12:32.000Z</time>
</trkpt>
<trkpt lat="45.9181350" lon="10.3269860">
	<ele>940.60</ele>
	<time>2025-04-29T06:12:33.000Z</time>
</trkpt>
<trkpt lat="45.9181370" lon="10.3269950">
	<ele>940.80</ele>
	<time>2025-04-29T06:12:34.000Z</time>
</trkpt>
<trkpt lat="45.9181390" lon="10.3270080">
	<ele>941.00</ele>
	<time>2025-04-29T06:12:35.000Z</time>
</trkpt>
<trkpt lat="45.9181390" lon="10.3270160">
	<ele>941.20</ele>
	<time>2025-04-29T06:12:36.000Z</time>
</trkpt>
<trkpt lat="45.9181400" lon="10.3270230">
	<ele>941.40</ele>
	<time>2025-04-29T06:12:37.000Z</time>
</trkpt>
<trkpt lat="45.9181380" lon="10.3270220">
	<ele>941.60</ele>
	<time>2025-04-29T06:12:38.000Z</time>
</trkpt>
<trkpt lat="45.9181350" lon="10.3270190">
	<ele>941.80</ele>
	<time>2025-04-29T06:12:39.000Z</time>
</trkpt>
<trkpt lat="45.9181250" lon="10.3270160">
	<ele>942.00</ele>
	<time>2025-04-29T06:12:40.000Z</time>
</trkpt>
<trkpt lat="45.9181160" lon="10.3270280">
	<ele>942.00</ele>
	<time>2025-04-29T06:12:41.000Z</time>
</trkpt>
<trkpt lat="45.9181050" lon="10.3270430">
	<ele>942.40</ele>
	<time>2025-04-29T06:12:42.000Z</time>
</trkpt>
<trkpt lat="45.9181070" lon="10.3270600">
	<ele>942.60</ele>
	<time>2025-04-29T06:12:43.000Z</time>
</trkpt>
<trkpt lat="45.9181060" lon="10.3270730">
	<ele>943.00</ele>
	<time>2025-04-29T06:12:44.000Z</time>
</trkpt>
<trkpt lat="45.9180950" lon="10.3270860">
	<ele>943.20</ele>
	<time>2025-04-29T06:12:45.000Z</time>
</trkpt>
<trkpt lat="45.9180820" lon="10.3270960">
	<ele>943.40</ele>
	<time>2025-04-29T06:12:46.000Z</time>
</trkpt>
<trkpt lat="45.9180790" lon="10.3271010">
	<ele>943.60</ele>
	<time>2025-04-29T06:12:47.000Z</time>
</trkpt>
<trkpt lat="45.9180780" lon="10.3271080">
	<ele>943.80</ele>
	<time>2025-04-29T06:12:48.000Z</time>
</trkpt>
<trkpt lat="45.9180790" lon="10.3271180">
	<ele>944.00</ele>
	<time>2025-04-29T06:12:49.000Z</time>
</trkpt>
<trkpt lat="45.9180720" lon="10.3271330">
	<ele>944.20</ele>
	<time>2025-04-29T06:12:50.000Z</time>
</trkpt>
<trkpt lat="45.9180660" lon="10.3271460">
	<ele>944.40</ele>
	<time>2025-04-29T06:12:51.000Z</time>
</trkpt>
<trkpt lat="45.9180640" lon="10.3271600">
	<ele>944.40</ele>
	<time>2025-04-29T06:12:52.000Z</time>
</trkpt>
<trkpt lat="45.9180530" lon="10.3271700">
	<ele>944.60</ele>
	<time>2025-04-29T06:12:53.000Z</time>
</trkpt>
<trkpt lat="45.9180510" lon="10.3271760">
	<ele>944.80</ele>
	<time>2025-04-29T06:12:54.000Z</time>
</trkpt>
<trkpt lat="45.9180560" lon="10.3271840">
	<ele>945.00</ele>
	<time>2025-04-29T06:12:55.000Z</time>
</trkpt>
<trkpt lat="45.9180550" lon="10.3271860">
	<ele>945.20</ele>
	<time>2025-04-29T06:12:56.000Z</time>
</trkpt>
<trkpt lat="45.9180610" lon="10.3271910">
	<ele>945.20</ele>
	<time>2025-04-29T06:12:57.000Z</time>
</trkpt>
<trkpt lat="45.9180690" lon="10.3271960">
	<ele>945.40</ele>
	<time>2025-04-29T06:12:58.000Z</time>
</trkpt>
<trkpt lat="45.9180690" lon="10.3272060">
	<ele>945.40</ele>
	<time>2025-04-29T06:12:59.000Z</time>
</trkpt>
<trkpt lat="45.9180660" lon="10.3272170">
	<ele>945.80</ele>
	<time>2025-04-29T06:13:00.000Z</time>
</trkpt>
<trkpt lat="45.9180630" lon="10.3272280">
	<ele>946.00</ele>
	<time>2025-04-29T06:13:01.000Z</time>
</trkpt>
<trkpt lat="45.9180560" lon="10.3272370">
	<ele>946.20</ele>
	<time>2025-04-29T06:13:02.000Z</time>
</trkpt>
<trkpt lat="45.9180470" lon="10.3272440">
	<ele>946.40</ele>
	<time>2025-04-29T06:13:03.000Z</time>
</trkpt>
<trkpt lat="45.9180370" lon="10.3272510">
	<ele>946.60</ele>
	<time>2025-04-29T06:13:04.000Z</time>
</trkpt>
<trkpt lat="45.9180330" lon="10.3272570">
	<ele>946.80</ele>
	<time>2025-04-29T06:13:05.000Z</time>
</trkpt>
<trkpt lat="45.9180320" lon="10.3272630">
	<ele>947.00</ele>
	<time>2025-04-29T06:13:06.000Z</time>
</trkpt>
<trkpt lat="45.9180310" lon="10.3272700">
	<ele>947.20</ele>
	<time>2025-04-29T06:13:07.000Z</time>
</trkpt>
<trkpt lat="45.9180360" lon="10.3272730">
	<ele>947.60</ele>
	<time>2025-04-29T06:13:08.000Z</time>
</trkpt>
<trkpt lat="45.9180380" lon="10.3272820">
	<ele>947.80</ele>
	<time>2025-04-29T06:13:09.000Z</time>
</trkpt>
<trkpt lat="45.9180360" lon="10.3272980">
	<ele>948.00</ele>
	<time>2025-04-29T06:13:10.000Z</time>
</trkpt>
<trkpt lat="45.9180320" lon="10.3273110">
	<ele>948.20</ele>
	<time>2025-04-29T06:13:11.000Z</time>
</trkpt>
<trkpt lat="45.9180290" lon="10.3273180">
	<ele>948.40</ele>
	<time>2025-04-29T06:13:12.000Z</time>
</trkpt>
<trkpt lat="45.9180270" lon="10.3273180">
	<ele>948.60</ele>
	<time>2025-04-29T06:13:13.000Z</time>
</trkpt>
<trkpt lat="45.9180300" lon="10.3273140">
	<ele>948.80</ele>
	<time>2025-04-29T06:13:14.000Z</time>
</trkpt>
<trkpt lat="45.9180160" lon="10.3273110">
	<ele>948.80</ele>
	<time>2025-04-29T06:13:15.000Z</time>
</trkpt>
<trkpt lat="45.9180030" lon="10.3273090">
	<ele>949.00</ele>
	<time>2025-04-29T06:13:16.000Z</time>
</trkpt>
<trkpt lat="45.9179920" lon="10.3273090">
	<ele>949.20</ele>
	<time>2025-04-29T06:13:17.000Z</time>
</trkpt>
<trkpt lat="45.9179770" lon="10.3273150">
	<ele>949.40</ele>
	<time>2025-04-29T06:13:18.000Z</time>
</trkpt>
<trkpt lat="45.9179680" lon="10.3273270">
	<ele>949.40</ele>
	<time>2025-04-29T06:13:19.000Z</time>
</trkpt>
<trkpt lat="45.9179580" lon="10.3273460">
	<ele>949.60</ele>
	<time>2025-04-29T06:13:20.000Z</time>
</trkpt>
<trkpt lat="45.9179520" lon="10.3273610">
	<ele>949.80</ele>
	<time>2025-04-29T06:13:21.000Z</time>
</trkpt>
<trkpt lat="45.9179500" lon="10.3273670">
	<ele>950.00</ele>
	<time>2025-04-29T06:13:22.000Z</time>
</trkpt>
<trkpt lat="45.9179530" lon="10.3273750">
	<ele>950.20</ele>
	<time>2025-04-29T06:13:23.000Z</time>
</trkpt>
<trkpt lat="45.9179590" lon="10.3273840">
	<ele>950.20</ele>
	<time>2025-04-29T06:13:24.000Z</time>
</trkpt>
<trkpt lat="45.9179590" lon="10.3273910">
	<ele>950.40</ele>
	<time>2025-04-29T06:13:25.000Z</time>
</trkpt>
<trkpt lat="45.9179500" lon="10.3273930">
	<ele>950.60</ele>
	<time>2025-04-29T06:13:26.000Z</time>
</trkpt>
<trkpt lat="45.9179440" lon="10.3274000">
	<ele>950.80</ele>
	<time>2025-04-29T06:13:27.000Z</time>
</trkpt>
<trkpt lat="45.9179430" lon="10.3274030">
	<ele>951.00</ele>
	<time>2025-04-29T06:13:28.000Z</time>
</trkpt>
<trkpt lat="45.9179380" lon="10.3274030">
	<ele>951.00</ele>
	<time>2025-04-29T06:13:29.000Z</time>
</trkpt>
<trkpt lat="45.9179250" lon="10.3274050">
	<ele>951.20</ele>
	<time>2025-04-29T06:13:30.000Z</time>
</trkpt>
<trkpt lat="45.9179130" lon="10.3274030">
	<ele>951.40</ele>
	<time>2025-04-29T06:13:31.000Z</time>
</trkpt>
<trkpt lat="45.9179040" lon="10.3274090">
	<ele>951.60</ele>
	<time>2025-04-29T06:13:32.000Z</time>
</trkpt>
<trkpt lat="45.9179020" lon="10.3274150">
	<ele>952.00</ele>
	<time>2025-04-29T06:13:33.000Z</time>
</trkpt>
<trkpt lat="45.9178980" lon="10.3274240">
	<ele>952.40</ele>
	<time>2025-04-29T06:13:34.000Z</time>
</trkpt>
<trkpt lat="45.9179070" lon="10.3274360">
	<ele>952.60</ele>
	<time>2025-04-29T06:13:35.000Z</time>
</trkpt>
<trkpt lat="45.9179210" lon="10.3274440">
	<ele>952.80</ele>
	<time>2025-04-29T06:13:36.000Z</time>
</trkpt>
<trkpt lat="45.9179140" lon="10.3274470">
	<ele>953.00</ele>
	<time>2025-04-29T06:13:37.000Z</time>
</trkpt>
<trkpt lat="45.9179120" lon="10.3274480">
	<ele>953.20</ele>
	<time>2025-04-29T06:13:38.000Z</time>
</trkpt>
<trkpt lat="45.9179140" lon="10.3274480">
	<ele>953.40</ele>
	<time>2025-04-29T06:13:39.000Z</time>
</trkpt>
<trkpt lat="45.9179150" lon="10.3274540">
	<ele>953.60</ele>
	<time>2025-04-29T06:13:40.000Z</time>
</trkpt>
<trkpt lat="45.9179160" lon="10.3274690">
	<ele>953.80</ele>
	<time>2025-04-29T06:13:41.000Z</time>
</trkpt>
<trkpt lat="45.9179120" lon="10.3274720">
	<ele>954.00</ele>
	<time>2025-04-29T06:13:42.000Z</time>
</trkpt>
<trkpt lat="45.9179090" lon="10.3274830">
	<ele>954.20</ele>
	<time>2025-04-29T06:13:43.000Z</time>
</trkpt>
<trkpt lat="45.9178950" lon="10.3274960">
	<ele>954.40</ele>
	<time>2025-04-29T06:13:44.000Z</time>
</trkpt>
<trkpt lat="45.9178940" lon="10.3275020">
	<ele>954.60</ele>
	<time>2025-04-29T06:13:45.000Z</time>
</trkpt>
<trkpt lat="45.9178840" lon="10.3275110">
	<ele>954.80</ele>
	<time>2025-04-29T06:13:46.000Z</time>
</trkpt>
<trkpt lat="45.9178720" lon="10.3275220">
	<ele>955.00</ele>
	<time>2025-04-29T06:13:47.000Z</time>
</trkpt>
<trkpt lat="45.9178600" lon="10.3275330">
	<ele>955.20</ele>
	<time>2025-04-29T06:13:48.000Z</time>
</trkpt>
<trkpt lat="45.9178470" lon="10.3275440">
	<ele>955.20</ele>
	<time>2025-04-29T06:13:49.000Z</time>
</trkpt>
<trkpt lat="45.9178450" lon="10.3275460">
	<ele>955.40</ele>
	<time>2025-04-29T06:13:50.000Z</time>
</trkpt>
<trkpt lat="45.9178440" lon="10.3275500">
	<ele>955.40</ele>
	<time>2025-04-29T06:13:51.000Z</time>
</trkpt>
<trkpt lat="45.9178420" lon="10.3275610">
	<ele>955.40</ele>
	<time>2025-04-29T06:13:52.000Z</time>
</trkpt>
<trkpt lat="45.9178400" lon="10.3275750">
	<ele>955.60</ele>
	<time>2025-04-29T06:13:53.000Z</time>
</trkpt>
<trkpt lat="45.9178390" lon="10.3275870">
	<ele>955.60</ele>
	<time>2025-04-29T06:13:54.000Z</time>
</trkpt>
<trkpt lat="45.9178350" lon="10.3275990">
	<ele>955.80</ele>
	<time>2025-04-29T06:13:55.000Z</time>
</trkpt>
<trkpt lat="45.9178310" lon="10.3276130">
	<ele>955.80</ele>
	<time>2025-04-29T06:13:56.000Z</time>
</trkpt>
<trkpt lat="45.9178290" lon="10.3276250">
	<ele>956.00</ele>
	<time>2025-04-29T06:13:57.000Z</time>
</trkpt>
<trkpt lat="45.9178280" lon="10.3276360">
	<ele>956.20</ele>
	<time>2025-04-29T06:13:58.000Z</time>
</trkpt>
<trkpt lat="45.9178260" lon="10.3276470">
	<ele>956.40</ele>
	<time>2025-04-29T06:13:59.000Z</time>
</trkpt>
<trkpt lat="45.9178270" lon="10.3276550">
	<ele>956.60</ele>
	<time>2025-04-29T06:14:00.000Z</time>
</trkpt>
<trkpt lat="45.9178310" lon="10.3276610">
	<ele>956.60</ele>
	<time>2025-04-29T06:14:01.000Z</time>
</trkpt>
<trkpt lat="45.9178380" lon="10.3276750">
	<ele>957.00</ele>
	<time>2025-04-29T06:14:02.000Z</time>
</trkpt>
<trkpt lat="45.9178390" lon="10.3276890">
	<ele>957.20</ele>
	<time>2025-04-29T06:14:03.000Z</time>
</trkpt>
<trkpt lat="45.9178370" lon="10.3276970">
	<ele>957.40</ele>
	<time>2025-04-29T06:14:04.000Z</time>
</trkpt>
<trkpt lat="45.9178320" lon="10.3276940">
	<ele>957.60</ele>
	<time>2025-04-29T06:14:05.000Z</time>
</trkpt>
<trkpt lat="45.9178240" lon="10.3276980">
	<ele>957.80</ele>
	<time>2025-04-29T06:14:06.000Z</time>
</trkpt>
<trkpt lat="45.9178110" lon="10.3276990">
	<ele>957.80</ele>
	<time>2025-04-29T06:14:07.000Z</time>
</trkpt>
<trkpt lat="45.9177990" lon="10.3276960">
	<ele>957.80</ele>
	<time>2025-04-29T06:14:08.000Z</time>
</trkpt>
<trkpt lat="45.9177940" lon="10.3276960">
	<ele>958.00</ele>
	<time>2025-04-29T06:14:09.000Z</time>
</trkpt>
<trkpt lat="45.9177930" lon="10.3277030">
	<ele>958.20</ele>
	<time>2025-04-29T06:14:10.000Z</time>
</trkpt>
<trkpt lat="45.9177930" lon="10.3277050">
	<ele>958.40</ele>
	<time>2025-04-29T06:14:11.000Z</time>
</trkpt>
<trkpt lat="45.9177900" lon="10.3277100">
	<ele>958.60</ele>
	<time>2025-04-29T06:14:12.000Z</time>
</trkpt>
<trkpt lat="45.9177870" lon="10.3277130">
	<ele>958.80</ele>
	<time>2025-04-29T06:14:13.000Z</time>
</trkpt>
<trkpt lat="45.9177820" lon="10.3277160">
	<ele>958.80</ele>
	<time>2025-04-29T06:14:14.000Z</time>
</trkpt>
<trkpt lat="45.9177860" lon="10.3277220">
	<ele>959.00</ele>
	<time>2025-04-29T06:14:15.000Z</time>
</trkpt>
<trkpt lat="45.9177880" lon="10.3277350">
	<ele>959.20</ele>
	<time>2025-04-29T06:14:16.000Z</time>
</trkpt>
<trkpt lat="45.9177880" lon="10.3277500">
	<ele>959.40</ele>
	<time>2025-04-29T06:14:17.000Z</time>
</trkpt>
<trkpt lat="45.9177830" lon="10.3277650">
	<ele>959.60</ele>
	<time>2025-04-29T06:14:18.000Z</time>
</trkpt>
<trkpt lat="45.9177810" lon="10.3277790">
	<ele>959.80</ele>
	<time>2025-04-29T06:14:19.000Z</time>
</trkpt>
<trkpt lat="45.9177740" lon="10.3277830">
	<ele>960.20</ele>
	<time>2025-04-29T06:14:20.000Z</time>
</trkpt>
<trkpt lat="45.9177680" lon="10.3277810">
	<ele>960.40</ele>
	<time>2025-04-29T06:14:21.000Z</time>
</trkpt>
<trkpt lat="45.9177610" lon="10.3277760">
	<ele>960.60</ele>
	<time>2025-04-29T06:14:22.000Z</time>
</trkpt>
<trkpt lat="45.9177580" lon="10.3277750">
	<ele>960.60</ele>
	<time>2025-04-29T06:14:23.000Z</time>
</trkpt>
<trkpt lat="45.9177530" lon="10.3277800">
	<ele>960.80</ele>
	<time>2025-04-29T06:14:24.000Z</time>
</trkpt>
<trkpt lat="45.9177460" lon="10.3277800">
	<ele>960.80</ele>
	<time>2025-04-29T06:14:25.000Z</time>
</trkpt>
<trkpt lat="45.9177440" lon="10.3277800">
	<ele>961.00</ele>
	<time>2025-04-29T06:14:26.000Z</time>
</trkpt>
<trkpt lat="45.9177420" lon="10.3277760">
	<ele>961.40</ele>
	<time>2025-04-29T06:14:27.000Z</time>
</trkpt>
<trkpt lat="45.9177380" lon="10.3277830">
	<ele>961.60</ele>
	<time>2025-04-29T06:14:28.000Z</time>
</trkpt>
<trkpt lat="45.9177310" lon="10.3277860">
	<ele>961.80</ele>
	<time>2025-04-29T06:14:29.000Z</time>
</trkpt>
<trkpt lat="45.9177220" lon="10.3277880">
	<ele>962.00</ele>
	<time>2025-04-29T06:14:30.000Z</time>
</trkpt>
<trkpt lat="45.9177160" lon="10.3277910">
	<ele>962.20</ele>
	<time>2025-04-29T06:14:31.000Z</time>
</trkpt>
<trkpt lat="45.9177130" lon="10.3277950">
	<ele>962.20</ele>
	<time>2025-04-29T06:14:32.000Z</time>
</trkpt>
<trkpt lat="45.9177080" lon="10.3278020">
	<ele>962.40</ele>
	<time>2025-04-29T06:14:33.000Z</time>
</trkpt>
<trkpt lat="45.9177040" lon="10.3278080">
	<ele>962.40</ele>
	<time>2025-04-29T06:14:34.000Z</time>
</trkpt>
<trkpt lat="45.9177030" lon="10.3278170">
	<ele>962.60</ele>
	<time>2025-04-29T06:14:35.000Z</time>
</trkpt>
<trkpt lat="45.9177050" lon="10.3278290">
	<ele>962.60</ele>
	<time>2025-04-29T06:14:36.000Z</time>
</trkpt>
<trkpt lat="45.9177060" lon="10.3278520">
	<ele>963.00</ele>
	<time>2025-04-29T06:14:37.000Z</time>
</trkpt>
<trkpt lat="45.9176990" lon="10.3278630">
	<ele>963.40</ele>
	<time>2025-04-29T06:14:38.000Z</time>
</trkpt>
<trkpt lat="45.9176910" lon="10.3278690">
	<ele>963.60</ele>
	<time>2025-04-29T06:14:39.000Z</time>
</trkpt>
<trkpt lat="45.9176900" lon="10.3278710">
	<ele>963.80</ele>
	<time>2025-04-29T06:14:40.000Z</time>
</trkpt>
<trkpt lat="45.9176910" lon="10.3278740">
	<ele>964.00</ele>
	<time>2025-04-29T06:14:41.000Z</time>
</trkpt>
<trkpt lat="45.9177000" lon="10.3278950">
	<ele>964.20</ele>
	<time>2025-04-29T06:14:42.000Z</time>
</trkpt>
<trkpt lat="45.9177040" lon="10.3279130">
	<ele>964.20</ele>
	<time>2025-04-29T06:14:43.000Z</time>
</trkpt>
<trkpt lat="45.9176910" lon="10.3279290">
	<ele>964.40</ele>
	<time>2025-04-29T06:14:44.000Z</time>
</trkpt>
<trkpt lat="45.9176730" lon="10.3279450">
	<ele>964.40</ele>
	<time>2025-04-29T06:14:45.000Z</time>
</trkpt>
<trkpt lat="45.9176650" lon="10.3279660">
	<ele>964.40</ele>
	<time>2025-04-29T06:14:46.000Z</time>
</trkpt>
<trkpt lat="45.9176650" lon="10.3279640">
	<ele>964.40</ele>
	<time>2025-04-29T06:14:47.000Z</time>
</trkpt>
<trkpt lat="45.9176590" lon="10.3279710">
	<ele>964.60</ele>
	<time>2025-04-29T06:14:48.000Z</time>
</trkpt>
<trkpt lat="45.9176640" lon="10.3279890">
	<ele>964.80</ele>
	<time>2025-04-29T06:14:49.000Z</time>
</trkpt>
<trkpt lat="45.9176660" lon="10.3279910">
	<ele>964.80</ele>
	<time>2025-04-29T06:14:50.000Z</time>
</trkpt>
<trkpt lat="45.9176660" lon="10.3279960">
	<ele>964.80</ele>
	<time>2025-04-29T06:14:51.000Z</time>
</trkpt>
<trkpt lat="45.9176630" lon="10.3279980">
	<ele>964.80</ele>
	<time>2025-04-29T06:14:52.000Z</time>
</trkpt>
<trkpt lat="45.9176510" lon="10.3279880">
	<ele>964.80</ele>
	<time>2025-04-29T06:14:53.000Z</time>
</trkpt>
<trkpt lat="45.9176500" lon="10.3279850">
	<ele>965.00</ele>
	<time>2025-04-29T06:14:54.000Z</time>
</trkpt>
<trkpt lat="45.9176500" lon="10.3279870">
	<ele>965.20</ele>
	<time>2025-04-29T06:14:55.000Z</time>
</trkpt>
<trkpt lat="45.9176470" lon="10.3279920">
	<ele>965.20</ele>
	<time>2025-04-29T06:14:56.000Z</time>
</trkpt>
<trkpt lat="45.9176630" lon="10.3280040">
	<ele>965.40</ele>
	<time>2025-04-29T06:14:57.000Z</time>
</trkpt>
<trkpt lat="45.9176670" lon="10.3280230">
	<ele>965.40</ele>
	<time>2025-04-29T06:14:58.000Z</time>
</trkpt>
<trkpt lat="45.9176640" lon="10.3280350">
	<ele>965.40</ele>
	<time>2025-04-29T06:14:59.000Z</time>
</trkpt>
<trkpt lat="45.9176500" lon="10.3280340">
	<ele>965.60</ele>
	<time>2025-04-29T06:15:00.000Z</time>
</trkpt>
<trkpt lat="45.9176430" lon="10.3280340">
	<ele>965.80</ele>
	<time>2025-04-29T06:15:01.000Z</time>
</trkpt>
<trkpt lat="45.9176390" lon="10.3280360">
	<ele>965.80</ele>
	<time>2025-04-29T06:15:02.000Z</time>
</trkpt>
<trkpt lat="45.9176280" lon="10.3280450">
	<ele>966.00</ele>
	<time>2025-04-29T06:15:03.000Z</time>
</trkpt>
<trkpt lat="45.9176160" lon="10.3280650">
	<ele>966.00</ele>
	<time>2025-04-29T06:15:04.000Z</time>
</trkpt>
<trkpt lat="45.9176010" lon="10.3280780">
	<ele>966.00</ele>
	<time>2025-04-29T06:15:05.000Z</time>
</trkpt>
<trkpt lat="45.9175950" lon="10.3280840">
	<ele>966.20</ele>
	<time>2025-04-29T06:15:06.000Z</time>
</trkpt>
<trkpt lat="45.9176030" lon="10.3280920">
	<ele>966.20</ele>
	<time>2025-04-29T06:15:07.000Z</time>
</trkpt>
<trkpt lat="45.9176050" lon="10.3280980">
	<ele>966.20</ele>
	<time>2025-04-29T06:15:08.000Z</time>
</trkpt>
<trkpt lat="45.9176130" lon="10.3280980">
	<ele>966.40</ele>
	<time>2025-04-29T06:15:09.000Z</time>
</trkpt>
<trkpt lat="45.9176230" lon="10.3281030">
	<ele>966.60</ele>
	<time>2025-04-29T06:15:10.000Z</time>
</trkpt>
<trkpt lat="45.9176310" lon="10.3281210">
	<ele>966.60</ele>
	<time>2025-04-29T06:15:11.000Z</time>
</trkpt>
<trkpt lat="45.9176370" lon="10.3281400">
	<ele>966.60</ele>
	<time>2025-04-29T06:15:12.000Z</time>
</trkpt>
<trkpt lat="45.9176430" lon="10.3281590">
	<ele>966.60</ele>
	<time>2025-04-29T06:15:13.000Z</time>
</trkpt>
<trkpt lat="45.9176480" lon="10.3281700">
	<ele>966.60</ele>
	<time>2025-04-29T06:15:14.000Z</time>
</trkpt>
<trkpt lat="45.9176510" lon="10.3281750">
	<ele>966.60</ele>
	<time>2025-04-29T06:15:15.000Z</time>
</trkpt>
<trkpt lat="45.9176530" lon="10.3281810">
	<ele>966.80</ele>
	<time>2025-04-29T06:15:16.000Z</time>
</trkpt>
<trkpt lat="45.9176540" lon="10.3281860">
	<ele>966.80</ele>
	<time>2025-04-29T06:15:17.000Z</time>
</trkpt>
<trkpt lat="45.9176580" lon="10.3281970">
	<ele>967.00</ele>
	<time>2025-04-29T06:15:18.000Z</time>
</trkpt>
<trkpt lat="45.9176560" lon="10.3282100">
	<ele>967.20</ele>
	<time>2025-04-29T06:15:19.000Z</time>
</trkpt>
<trkpt lat="45.9176580" lon="10.3282230">
	<ele>967.40</ele>
	<time>2025-04-29T06:15:20.000Z</time>
</trkpt>
<trkpt lat="45.9176630" lon="10.3282340">
	<ele>967.40</ele>
	<time>2025-04-29T06:15:21.000Z</time>
</trkpt>
<trkpt lat="45.9176600" lon="10.3282450">
	<ele>967.60</ele>
	<time>2025-04-29T06:15:22.000Z</time>
</trkpt>
<trkpt lat="45.9176600" lon="10.3282620">
	<ele>967.80</ele>
	<time>2025-04-29T06:15:23.000Z</time>
</trkpt>
<trkpt lat="45.9176610" lon="10.3282730">
	<ele>968.00</ele>
	<time>2025-04-29T06:15:24.000Z</time>
</trkpt>
<trkpt lat="45.9176610" lon="10.3282820">
	<ele>968.20</ele>
	<time>2025-04-29T06:15:25.000Z</time>
</trkpt>
<trkpt lat="45.9176590" lon="10.3282910">
	<ele>968.40</ele>
	<time>2025-04-29T06:15:26.000Z</time>
</trkpt>
<trkpt lat="45.9176580" lon="10.3283030">
	<ele>968.60</ele>
	<time>2025-04-29T06:15:27.000Z</time>
</trkpt>
<trkpt lat="45.9176580" lon="10.3283130">
	<ele>968.80</ele>
	<time>2025-04-29T06:15:28.000Z</time>
</trkpt>
<trkpt lat="45.9176590" lon="10.3283210">
	<ele>968.80</ele>
	<time>2025-04-29T06:15:29.000Z</time>
</trkpt>
<trkpt lat="45.9176540" lon="10.3283260">
	<ele>969.00</ele>
	<time>2025-04-29T06:15:30.000Z</time>
</trkpt>
<trkpt lat="45.9176530" lon="10.3283350">
	<ele>969.20</ele>
	<time>2025-04-29T06:15:31.000Z</time>
</trkpt>
<trkpt lat="45.9176550" lon="10.3283420">
	<ele>969.20</ele>
	<time>2025-04-29T06:15:32.000Z</time>
</trkpt>
<trkpt lat="45.9176500" lon="10.3283640">
	<ele>969.60</ele>
	<time>2025-04-29T06:15:33.000Z</time>
</trkpt>
<trkpt lat="45.9176480" lon="10.3283830">
	<ele>969.80</ele>
	<time>2025-04-29T06:15:34.000Z</time>
</trkpt>
<trkpt lat="45.9176470" lon="10.3283950">
	<ele>969.80</ele>
	<time>2025-04-29T06:15:35.000Z</time>
</trkpt>
<trkpt lat="45.9176450" lon="10.3284030">
	<ele>970.00</ele>
	<time>2025-04-29T06:15:36.000Z</time>
</trkpt>
<trkpt lat="45.9176340" lon="10.3284190">
	<ele>970.20</ele>
	<time>2025-04-29T06:15:37.000Z</time>
</trkpt>
<trkpt lat="45.9176320" lon="10.3284300">
	<ele>970.40</ele>
	<time>2025-04-29T06:15:38.000Z</time>
</trkpt>
<trkpt lat="45.9176330" lon="10.3284360">
	<ele>970.60</ele>
	<time>2025-04-29T06:15:39.000Z</time>
</trkpt>
<trkpt lat="45.9176300" lon="10.3284390">
	<ele>970.80</ele>
	<time>2025-04-29T06:15:40.000Z</time>
</trkpt>
<trkpt lat="45.9176300" lon="10.3284430">
	<ele>970.80</ele>
	<time>2025-04-29T06:15:41.000Z</time>
</trkpt>
<trkpt lat="45.9176310" lon="10.3284490">
	<ele>971.00</ele>
	<time>2025-04-29T06:15:42.000Z</time>
</trkpt>
<trkpt lat="45.9176300" lon="10.3284560">
	<ele>971.20</ele>
	<time>2025-04-29T06:15:43.000Z</time>
</trkpt>
<trkpt lat="45.9176300" lon="10.3284670">
	<ele>971.40</ele>
	<time>2025-04-29T06:15:44.000Z</time>
</trkpt>
<trkpt lat="45.9176290" lon="10.3284810">
	<ele>971.60</ele>
	<time>2025-04-29T06:15:45.000Z</time>
</trkpt>
<trkpt lat="45.9176260" lon="10.3284950">
	<ele>971.80</ele>
	<time>2025-04-29T06:15:46.000Z</time>
</trkpt>
<trkpt lat="45.9176250" lon="10.3285060">
	<ele>971.80</ele>
	<time>2025-04-29T06:15:47.000Z</time>
</trkpt>
<trkpt lat="45.9176220" lon="10.3285150">
	<ele>972.00</ele>
	<time>2025-04-29T06:15:48.000Z</time>
</trkpt>
<trkpt lat="45.9176270" lon="10.3285210">
	<ele>972.20</ele>
	<time>2025-04-29T06:15:49.000Z</time>
</trkpt>
<trkpt lat="45.9176260" lon="10.3285310">
	<ele>972.40</ele>
	<time>2025-04-29T06:15:50.000Z</time>
</trkpt>
<trkpt lat="45.9176200" lon="10.3285400">
	<ele>972.40</ele>
	<time>2025-04-29T06:15:51.000Z</time>
</trkpt>
<trkpt lat="45.9176150" lon="10.3285430">
	<ele>972.40</ele>
	<time>2025-04-29T06:15:52.000Z</time>
</trkpt>
<trkpt lat="45.9176140" lon="10.3285430">
	<ele>972.40</ele>
	<time>2025-04-29T06:15:53.000Z</time>
</trkpt>
<trkpt lat="45.9176140" lon="10.3285520">
	<ele>972.60</ele>
	<time>2025-04-29T06:15:54.000Z</time>
</trkpt>
<trkpt lat="45.9176200" lon="10.3285660">
	<ele>972.60</ele>
	<time>2025-04-29T06:15:55.000Z</time>
</trkpt>
<trkpt lat="45.9176190" lon="10.3285720">
	<ele>972.60</ele>
	<time>2025-04-29T06:15:56.000Z</time>
</trkpt>
<trkpt lat="45.9176160" lon="10.3285760">
	<ele>972.80</ele>
	<time>2025-04-29T06:15:57.000Z</time>
</trkpt>
<trkpt lat="45.9176080" lon="10.3285900">
	<ele>973.00</ele>
	<time>2025-04-29T06:15:58.000Z</time>
</trkpt>
<trkpt lat="45.9176060" lon="10.3285990">
	<ele>973.20</ele>
	<time>2025-04-29T06:15:59.000Z</time>
</trkpt>
<trkpt lat="45.9176040" lon="10.3285960">
	<ele>973.40</ele>
	<time>2025-04-29T06:16:00.000Z</time>
</trkpt>
<trkpt lat="45.9176020" lon="10.3285940">
	<ele>973.40</ele>
	<time>2025-04-29T06:16:01.000Z</time>
</trkpt>
<trkpt lat="45.9176000" lon="10.3285930">
	<ele>973.60</ele>
	<time>2025-04-29T06:16:02.000Z</time>
</trkpt>
<trkpt lat="45.9175960" lon="10.3285990">
	<ele>973.80</ele>
	<time>2025-04-29T06:16:03.000Z</time>
</trkpt>
<trkpt lat="45.9176010" lon="10.3286110">
	<ele>973.80</ele>
	<time>2025-04-29T06:16:04.000Z</time>
</trkpt>
<trkpt lat="45.9175940" lon="10.3286310">
	<ele>974.00</ele>
	<time>2025-04-29T06:16:05.000Z</time>
</trkpt>
<trkpt lat="45.9175860" lon="10.3286440">
	<ele>974.20</ele>
	<time>2025-04-29T06:16:06.000Z</time>
</trkpt>
<trkpt lat="45.9175750" lon="10.3286660">
	<ele>974.20</ele>
	<time>2025-04-29T06:16:07.000Z</time>
</trkpt>
<trkpt lat="45.9175700" lon="10.3286800">
	<ele>974.40</ele>
	<time>2025-04-29T06:16:08.000Z</time>
</trkpt>
<trkpt lat="45.9175670" lon="10.3286940">
	<ele>974.40</ele>
	<time>2025-04-29T06:16:09.000Z</time>
</trkpt>
<trkpt lat="45.9175690" lon="10.3287110">
	<ele>974.60</ele>
	<time>2025-04-29T06:16:10.000Z</time>
</trkpt>
<trkpt lat="45.9175750" lon="10.3287290">
	<ele>974.80</ele>
	<time>2025-04-29T06:16:11.000Z</time>
</trkpt>
<trkpt lat="45.9175770" lon="10.3287470">
	<ele>975.00</ele>
	<time>2025-04-29T06:16:12.000Z</time>
</trkpt>
<trkpt lat="45.9175710" lon="10.3287600">
	<ele>975.20</ele>
	<time>2025-04-29T06:16:13.000Z</time>
</trkpt>
<trkpt lat="45.9175620" lon="10.3287730">
	<ele>975.40</ele>
	<time>2025-04-29T06:16:14.000Z</time>
</trkpt>
<trkpt lat="45.9175490" lon="10.3287800">
	<ele>975.60</ele>
	<time>2025-04-29T06:16:15.000Z</time>
</trkpt>
<trkpt lat="45.9175360" lon="10.3287930">
	<ele>975.80</ele>
	<time>2025-04-29T06:16:16.000Z</time>
</trkpt>
<trkpt lat="45.9175250" lon="10.3287880">
	<ele>976.00</ele>
	<time>2025-04-29T06:16:17.000Z</time>
</trkpt>
<trkpt lat="45.9175180" lon="10.3287790">
	<ele>976.00</ele>
	<time>2025-04-29T06:16:18.000Z</time>
</trkpt>
<trkpt lat="45.9175140" lon="10.3287760">
	<ele>976.20</ele>
	<time>2025-04-29T06:16:19.000Z</time>
</trkpt>
<trkpt lat="45.9175100" lon="10.3287820">
	<ele>976.40</ele>
	<time>2025-04-29T06:16:20.000Z</time>
</trkpt>
<trkpt lat="45.9175070" lon="10.3287900">
	<ele>976.60</ele>
	<time>2025-04-29T06:16:21.000Z</time>
</trkpt>
<trkpt lat="45.9175000" lon="10.3287930">
	<ele>976.80</ele>
	<time>2025-04-29T06:16:22.000Z</time>
</trkpt>
<trkpt lat="45.9174900" lon="10.3287850">
	<ele>977.00</ele>
	<time>2025-04-29T06:16:23.000Z</time>
</trkpt>
<trkpt lat="45.9174750" lon="10.3287830">
	<ele>977.00</ele>
	<time>2025-04-29T06:16:24.000Z</time>
</trkpt>
<trkpt lat="45.9174680" lon="10.3287870">
	<ele>977.20</ele>
	<time>2025-04-29T06:16:25.000Z</time>
</trkpt>
<trkpt lat="45.9174530" lon="10.3288010">
	<ele>977.60</ele>
	<time>2025-04-29T06:16:26.000Z</time>
</trkpt>
<trkpt lat="45.9174520" lon="10.3288110">
	<ele>977.80</ele>
	<time>2025-04-29T06:16:27.000Z</time>
</trkpt>
<trkpt lat="45.9174510" lon="10.3288260">
	<ele>978.20</ele>
	<time>2025-04-29T06:16:28.000Z</time>
</trkpt>
<trkpt lat="45.9174510" lon="10.3288400">
	<ele>978.40</ele>
	<time>2025-04-29T06:16:29.000Z</time>
</trkpt>
<trkpt lat="45.9174520" lon="10.3288510">
	<ele>978.60</ele>
	<time>2025-04-29T06:16:30.000Z</time>
</trkpt>
<trkpt lat="45.9174510" lon="10.3288580">
	<ele>978.60</ele>
	<time>2025-04-29T06:16:31.000Z</time>
</trkpt>
<trkpt lat="45.9174510" lon="10.3288660">
	<ele>978.60</ele>
	<time>2025-04-29T06:16:32.000Z</time>
</trkpt>
<trkpt lat="45.9174590" lon="10.3288770">
	<ele>978.80</ele>
	<time>2025-04-29T06:16:33.000Z</time>
</trkpt>
<trkpt lat="45.9174660" lon="10.3288890">
	<ele>979.00</ele>
	<time>2025-04-29T06:16:34.000Z</time>
</trkpt>
<trkpt lat="45.9174700" lon="10.3289070">
	<ele>979.00</ele>
	<time>2025-04-29T06:16:35.000Z</time>
</trkpt>
<trkpt lat="45.9174670" lon="10.3289240">
	<ele>979.20</ele>
	<time>2025-04-29T06:16:36.000Z</time>
</trkpt>
<trkpt lat="45.9174640" lon="10.3289350">
	<ele>979.20</ele>
	<time>2025-04-29T06:16:37.000Z</time>
</trkpt>
<trkpt lat="45.9174620" lon="10.3289430">
	<ele>979.40</ele>
	<time>2025-04-29T06:16:38.000Z</time>
</trkpt>
<trkpt lat="45.9174540" lon="10.3289480">
	<ele>979.60</ele>
	<time>2025-04-29T06:16:39.000Z</time>
</trkpt>
<trkpt lat="45.9174420" lon="10.3289490">
	<ele>979.80</ele>
	<time>2025-04-29T06:16:40.000Z</time>
</trkpt>
<trkpt lat="45.9174310" lon="10.3289490">
	<ele>980.00</ele>
	<time>2025-04-29T06:16:41.000Z</time>
</trkpt>
<trkpt lat="45.9174230" lon="10.3289450">
	<ele>980.20</ele>
	<time>2025-04-29T06:16:42.000Z</time>
</trkpt>
<trkpt lat="45.9174130" lon="10.3289400">
	<ele>980.40</ele>
	<time>2025-04-29T06:16:43.000Z</time>
</trkpt>
<trkpt lat="45.9174050" lon="10.3289310">
	<ele>980.40</ele>
	<time>2025-04-29T06:16:44.000Z</time>
</trkpt>
<trkpt lat="45.9173990" lon="10.3289210">
	<ele>980.80</ele>
	<time>2025-04-29T06:16:45.000Z</time>
</trkpt>
<trkpt lat="45.9173950" lon="10.3289210">
	<ele>981.00</ele>
	<time>2025-04-29T06:16:46.000Z</time>
</trkpt>
<trkpt lat="45.9173850" lon="10.3289290">
	<ele>981.20</ele>
	<time>2025-04-29T06:16:47.000Z</time>
</trkpt>
<trkpt lat="45.9173730" lon="10.3289420">
	<ele>981.40</ele>
	<time>2025-04-29T06:16:48.000Z</time>
</trkpt>
<trkpt lat="45.9173690" lon="10.3289590">
	<ele>981.40</ele>
	<time>2025-04-29T06:16:49.000Z</time>
</trkpt>
<trkpt lat="45.9173620" lon="10.3289850">
	<ele>981.40</ele>
	<time>2025-04-29T06:16:50.000Z</time>
</trkpt>
<trkpt lat="45.9173590" lon="10.3290040">
	<ele>981.40</ele>
	<time>2025-04-29T06:16:51.000Z</time>
</trkpt>
<trkpt lat="45.9173630" lon="10.3290210">
	<ele>981.20</ele>
	<time>2025-04-29T06:16:52.000Z</time>
</trkpt>
<trkpt lat="45.9173710" lon="10.3290350">
	<ele>981.20</ele>
	<time>2025-04-29T06:16:53.000Z</time>
</trkpt>
<trkpt lat="45.9173700" lon="10.3290530">
	<ele>981.20</ele>
	<time>2025-04-29T06:16:54.000Z</time>
</trkpt>
<trkpt lat="45.9173670" lon="10.3290680">
	<ele>981.40</ele>
	<time>2025-04-29T06:16:55.000Z</time>
</trkpt>
<trkpt lat="45.9173670" lon="10.3290740">
	<ele>981.80</ele>
	<time>2025-04-29T06:16:56.000Z</time>
</trkpt>
<trkpt lat="45.9173660" lon="10.3290760">
	<ele>982.00</ele>
	<time>2025-04-29T06:16:57.000Z</time>
</trkpt>
<trkpt lat="45.9173660" lon="10.3290800">
	<ele>982.00</ele>
	<time>2025-04-29T06:16:58.000Z</time>
</trkpt>
<trkpt lat="45.9173610" lon="10.3290850">
	<ele>982.20</ele>
	<time>2025-04-29T06:16:59.000Z</time>
</trkpt>
<trkpt lat="45.9173530" lon="10.3290920">
	<ele>982.20</ele>
	<time>2025-04-29T06:17:00.000Z</time>
</trkpt>
<trkpt lat="45.9173470" lon="10.3291000">
	<ele>982.40</ele>
	<time>2025-04-29T06:17:01.000Z</time>
</trkpt>
<trkpt lat="45.9173470" lon="10.3291100">
	<ele>982.40</ele>
	<time>2025-04-29T06:17:02.000Z</time>
</trkpt>
<trkpt lat="45.9173480" lon="10.3291140">
	<ele>982.80</ele>
	<time>2025-04-29T06:17:03.000Z</time>
</trkpt>
<trkpt lat="45.9173450" lon="10.3291280">
	<ele>983.00</ele>
	<time>2025-04-29T06:17:04.000Z</time>
</trkpt>
<trkpt lat="45.9173400" lon="10.3291480">
	<ele>983.00</ele>
	<time>2025-04-29T06:17:05.000Z</time>
</trkpt>
<trkpt lat="45.9173370" lon="10.3291490">
	<ele>983.20</ele>
	<time>2025-04-29T06:17:06.000Z</time>
</trkpt>
<trkpt lat="45.9173340" lon="10.3291500">
	<ele>983.40</ele>
	<time>2025-04-29T06:17:07.000Z</time>
</trkpt>
<trkpt lat="45.9173310" lon="10.3291510">
	<ele>983.60</ele>
	<time>2025-04-29T06:17:08.000Z</time>
</trkpt>
<trkpt lat="45.9173300" lon="10.3291530">
	<ele>983.80</ele>
	<time>2025-04-29T06:17:09.000Z</time>
</trkpt>
<trkpt lat="45.9173250" lon="10.3291490">
	<ele>984.00</ele>
	<time>2025-04-29T06:17:10.000Z</time>
</trkpt>
<trkpt lat="45.9173200" lon="10.3291440">
	<ele>984.00</ele>
	<time>2025-04-29T06:17:11.000Z</time>
</trkpt>
<trkpt lat="45.9173160" lon="10.3291440">
	<ele>984.20</ele>
	<time>2025-04-29T06:17:12.000Z</time>
</trkpt>
<trkpt lat="45.9173260" lon="10.3291600">
	<ele>984.20</ele>
	<time>2025-04-29T06:17:13.000Z</time>
</trkpt>
<trkpt lat="45.9173260" lon="10.3291770">
	<ele>984.60</ele>
	<time>2025-04-29T06:17:14.000Z</time>
</trkpt>
<trkpt lat="45.9173260" lon="10.3291820">
	<ele>984.80</ele>
	<time>2025-04-29T06:17:15.000Z</time>
</trkpt>
<trkpt lat="45.9173280" lon="10.3291980">
	<ele>985.00</ele>
	<time>2025-04-29T06:17:16.000Z</time>
</trkpt>
<trkpt lat="45.9173160" lon="10.3292130">
	<ele>985.20</ele>
	<time>2025-04-29T06:17:17.000Z</time>
</trkpt>
<trkpt lat="45.9173110" lon="10.3292260">
	<ele>985.40</ele>
	<time>2025-04-29T06:17:18.000Z</time>
</trkpt>
<trkpt lat="45.9172990" lon="10.3292340">
	<ele>985.60</ele>
	<time>2025-04-29T06:17:19.000Z</time>
</trkpt>
<trkpt lat="45.9172920" lon="10.3292410">
	<ele>985.80</ele>
	<time>2025-04-29T06:17:20.000Z</time>
</trkpt>
<trkpt lat="45.9172910" lon="10.3292500">
	<ele>985.80</ele>
	<time>2025-04-29T06:17:21.000Z</time>
</trkpt>
<trkpt lat="45.9172930" lon="10.3292540">
	<ele>986.00</ele>
	<time>2025-04-29T06:17:22.000Z</time>
</trkpt>
<trkpt lat="45.9172860" lon="10.3292550">
	<ele>986.40</ele>
	<time>2025-04-29T06:17:23.000Z</time>
</trkpt>
<trkpt lat="45.9172840" lon="10.3292560">
	<ele>986.60</ele>
	<time>2025-04-29T06:17:24.000Z</time>
</trkpt>
<trkpt lat="45.9172790" lon="10.3292630">
	<ele>986.80</ele>
	<time>2025-04-29T06:17:25.000Z</time>
</trkpt>
<trkpt lat="45.9172760" lon="10.3292660">
	<ele>987.00</ele>
	<time>2025-04-29T06:17:26.000Z</time>
</trkpt>
<trkpt lat="45.9172720" lon="10.3292840">
	<ele>987.00</ele>
	<time>2025-04-29T06:17:27.000Z</time>
</trkpt>
<trkpt lat="45.9172720" lon="10.3293000">
	<ele>987.20</ele>
	<time>2025-04-29T06:17:28.000Z</time>
</trkpt>
<trkpt lat="45.9172690" lon="10.3293220">
	<ele>987.40</ele>
	<time>2025-04-29T06:17:29.000Z</time>
</trkpt>
<trkpt lat="45.9172640" lon="10.3293380">
	<ele>987.60</ele>
	<time>2025-04-29T06:17:30.000Z</time>
</trkpt>
<trkpt lat="45.9172590" lon="10.3293520">
	<ele>987.80</ele>
	<time>2025-04-29T06:17:31.000Z</time>
</trkpt>
<trkpt lat="45.9172560" lon="10.3293690">
	<ele>988.00</ele>
	<time>2025-04-29T06:17:32.000Z</time>
</trkpt>
<trkpt lat="45.9172510" lon="10.3293850">
	<ele>988.20</ele>
	<time>2025-04-29T06:17:33.000Z</time>
</trkpt>
<trkpt lat="45.9172450" lon="10.3293980">
	<ele>988.40</ele>
	<time>2025-04-29T06:17:34.000Z</time>
</trkpt>
<trkpt lat="45.9172460" lon="10.3294210">
	<ele>988.60</ele>
	<time>2025-04-29T06:17:35.000Z</time>
</trkpt>
<trkpt lat="45.9172480" lon="10.3294420">
	<ele>988.80</ele>
	<time>2025-04-29T06:17:36.000Z</time>
</trkpt>
<trkpt lat="45.9172460" lon="10.3294700">
	<ele>988.80</ele>
	<time>2025-04-29T06:17:37.000Z</time>
</trkpt>
<trkpt lat="45.9172340" lon="10.3295010">
	<ele>989.00</ele>
	<time>2025-04-29T06:17:38.000Z</time>
</trkpt>
<trkpt lat="45.9172280" lon="10.3295230">
	<ele>989.20</ele>
	<time>2025-04-29T06:17:39.000Z</time>
</trkpt>
<trkpt lat="45.9172290" lon="10.3295410">
	<ele>989.20</ele>
	<time>2025-04-29T06:17:40.000Z</time>
</trkpt>
<trkpt lat="45.9172300" lon="10.3295510">
	<ele>989.40</ele>
	<time>2025-04-29T06:17:41.000Z</time>
</trkpt>
<trkpt lat="45.9172330" lon="10.3295640">
	<ele>989.60</ele>
	<time>2025-04-29T06:17:42.000Z</time>
</trkpt>
<trkpt lat="45.9172360" lon="10.3295690">
	<ele>989.60</ele>
	<time>2025-04-29T06:17:43.000Z</time>
</trkpt>
<trkpt lat="45.9172310" lon="10.3295850">
	<ele>989.80</ele>
	<time>2025-04-29T06:17:44.000Z</time>
</trkpt>
<trkpt lat="45.9172340" lon="10.3295960">
	<ele>990.00</ele>
	<time>2025-04-29T06:17:45.000Z</time>
</trkpt>
<trkpt lat="45.9172350" lon="10.3296010">
	<ele>990.00</ele>
	<time>2025-04-29T06:17:46.000Z</time>
</trkpt>
<trkpt lat="45.9172380" lon="10.3296040">
	<ele>990.00</ele>
	<time>2025-04-29T06:17:47.000Z</time>
</trkpt>
<trkpt lat="45.9172570" lon="10.3296020">
	<ele>990.00</ele>
	<time>2025-04-29T06:17:48.000Z</time>
</trkpt>
<trkpt lat="45.9172610" lon="10.3296190">
	<ele>990.20</ele>
	<time>2025-04-29T06:17:49.000Z</time>
</trkpt>
<trkpt lat="45.9172590" lon="10.3296430">
	<ele>990.40</ele>
	<time>2025-04-29T06:17:50.000Z</time>
</trkpt>
<trkpt lat="45.9172600" lon="10.3296500">
	<ele>990.60</ele>
	<time>2025-04-29T06:17:51.000Z</time>
</trkpt>
<trkpt lat="45.9172620" lon="10.3296560">
	<ele>991.00</ele>
	<time>2025-04-29T06:17:52.000Z</time>
</trkpt>
<trkpt lat="45.9172580" lon="10.3296780">
	<ele>991.20</ele>
	<time>2025-04-29T06:17:53.000Z</time>
</trkpt>
<trkpt lat="45.9172560" lon="10.3296870">
	<ele>991.40</ele>
	<time>2025-04-29T06:17:54.000Z</time>
</trkpt>
<trkpt lat="45.9172490" lon="10.3296940">
	<ele>991.40</ele>
	<time>2025-04-29T06:17:55.000Z</time>
</trkpt>
<trkpt lat="45.9172430" lon="10.3297070">
	<ele>991.60</ele>
	<time>2025-04-29T06:17:56.000Z</time>
</trkpt>
<trkpt lat="45.9172430" lon="10.3297150">
	<ele>991.80</ele>
	<time>2025-04-29T06:17:57.000Z</time>
</trkpt>
<trkpt lat="45.9172440" lon="10.3297290">
	<ele>991.80</ele>
	<time>2025-04-29T06:17:58.000Z</time>
</trkpt>
<trkpt lat="45.9172460" lon="10.3297350">
	<ele>992.00</ele>
	<time>2025-04-29T06:17:59.000Z</time>
</trkpt>
<trkpt lat="45.9172450" lon="10.3297480">
	<ele>992.20</ele>
	<time>2025-04-29T06:18:00.000Z</time>
</trkpt>
<trkpt lat="45.9172440" lon="10.3297540">
	<ele>992.60</ele>
	<time>2025-04-29T06:18:01.000Z</time>
</trkpt>
<trkpt lat="45.9172470" lon="10.3297950">
	<ele>993.00</ele>
	<time>2025-04-29T06:18:02.000Z</time>
</trkpt>
<trkpt lat="45.9172580" lon="10.3298240">
	<ele>993.20</ele>
	<time>2025-04-29T06:18:03.000Z</time>
</trkpt>
<trkpt lat="45.9172670" lon="10.3298300">
	<ele>993.40</ele>
	<time>2025-04-29T06:18:04.000Z</time>
</trkpt>
<trkpt lat="45.9172550" lon="10.3298480">
	<ele>993.60</ele>
	<time>2025-04-29T06:18:05.000Z</time>
</trkpt>
<trkpt lat="45.9172550" lon="10.3298560">
	<ele>993.80</ele>
	<time>2025-04-29T06:18:06.000Z</time>
</trkpt>
<trkpt lat="45.9172520" lon="10.3298630">
	<ele>993.80</ele>
	<time>2025-04-29T06:18:07.000Z</time>
</trkpt>
<trkpt lat="45.9172560" lon="10.3298730">
	<ele>994.00</ele>
	<time>2025-04-29T06:18:08.000Z</time>
</trkpt>
<trkpt lat="45.9172730" lon="10.3298830">
	<ele>994.00</ele>
	<time>2025-04-29T06:18:09.000Z</time>
</trkpt>
<trkpt lat="45.9172870" lon="10.3298700">
	<ele>994.00</ele>
	<time>2025-04-29T06:18:10.000Z</time>
</trkpt>
<trkpt lat="45.9172880" lon="10.3298750">
	<ele>994.20</ele>
	<time>2025-04-29T06:18:11.000Z</time>
</trkpt>
<trkpt lat="45.9172820" lon="10.3298880">
	<ele>994.40</ele>
	<time>2025-04-29T06:18:12.000Z</time>
</trkpt>
<trkpt lat="45.9172760" lon="10.3298970">
	<ele>994.60</ele>
	<time>2025-04-29T06:18:13.000Z</time>
</trkpt>
<trkpt lat="45.9172770" lon="10.3299020">
	<ele>994.60</ele>
	<time>2025-04-29T06:18:14.000Z</time>
</trkpt>
<trkpt lat="45.9172700" lon="10.3299050">
	<ele>994.80</ele>
	<time>2025-04-29T06:18:15.000Z</time>
</trkpt>
<trkpt lat="45.9172700" lon="10.3299080">
	<ele>994.80</ele>
	<time>2025-04-29T06:18:16.000Z</time>
</trkpt>
<trkpt lat="45.9172700" lon="10.3299100">
	<ele>994.80</ele>
	<time>2025-04-29T06:18:17.000Z</time>
</trkpt>
<trkpt lat="45.9172680" lon="10.3299160">
	<ele>994.80</ele>
	<time>2025-04-29T06:18:18.000Z</time>
</trkpt>
<trkpt lat="45.9172620" lon="10.3299190">
	<ele>994.80</ele>
	<time>2025-04-29T06:18:19.000Z</time>
</trkpt>
<trkpt lat="45.9172590" lon="10.3299190">
	<ele>995.00</ele>
	<time>2025-04-29T06:18:20.000Z</time>
</trkpt>
<trkpt lat="45.9172560" lon="10.3299200">
	<ele>995.00</ele>
	<time>2025-04-29T06:18:21.000Z</time>
</trkpt>
<trkpt lat="45.9172560" lon="10.3299210">
	<ele>995.00</ele>
	<time>2025-04-29T06:18:22.000Z</time>
</trkpt>
<trkpt lat="45.9172560" lon="10.3299260">
	<ele>995.00</ele>
	<time>2025-04-29T06:18:23.000Z</time>
</trkpt>
<trkpt lat="45.9172560" lon="10.3299350">
	<ele>995.00</ele>
	<time>2025-04-29T06:18:24.000Z</time>
</trkpt>
<trkpt lat="45.9172510" lon="10.3299470">
	<ele>995.20</ele>
	<time>2025-04-29T06:18:25.000Z</time>
</trkpt>
<trkpt lat="45.9172380" lon="10.3299550">
	<ele>995.40</ele>
	<time>2025-04-29T06:18:26.000Z</time>
</trkpt>
<trkpt lat="45.9172270" lon="10.3299600">
	<ele>995.40</ele>
	<time>2025-04-29T06:18:27.000Z</time>
</trkpt>
<trkpt lat="45.9172110" lon="10.3299600">
	<ele>995.40</ele>
	<time>2025-04-29T06:18:28.000Z</time>
</trkpt>
<trkpt lat="45.9171950" lon="10.3299660">
	<ele>995.40</ele>
	<time>2025-04-29T06:18:29.000Z</time>
</trkpt>
<trkpt lat="45.9171890" lon="10.3299740">
	<ele>995.40</ele>
	<time>2025-04-29T06:18:30.000Z</time>
</trkpt>
<trkpt lat="45.9171900" lon="10.3299750">
	<ele>995.40</ele>
	<time>2025-04-29T06:18:31.000Z</time>
</trkpt>
<trkpt lat="45.9171860" lon="10.3299790">
	<ele>995.40</ele>
	<time>2025-04-29T06:18:32.000Z</time>
</trkpt>
<trkpt lat="45.9171920" lon="10.3299880">
	<ele>995.40</ele>
	<time>2025-04-29T06:18:33.000Z</time>
</trkpt>
<trkpt lat="45.9171890" lon="10.3299940">
	<ele>995.60</ele>
	<time>2025-04-29T06:18:34.000Z</time>
</trkpt>
<trkpt lat="45.9171930" lon="10.3300040">
	<ele>995.60</ele>
	<time>2025-04-29T06:18:35.000Z</time>
</trkpt>
<trkpt lat="45.9171940" lon="10.3300180">
	<ele>995.60</ele>
	<time>2025-04-29T06:18:36.000Z</time>
</trkpt>
<trkpt lat="45.9171960" lon="10.3300330">
	<ele>995.80</ele>
	<time>2025-04-29T06:18:37.000Z</time>
</trkpt>
<trkpt lat="45.9171980" lon="10.3300430">
	<ele>996.00</ele>
	<time>2025-04-29T06:18:38.000Z</time>
</trkpt>
<trkpt lat="45.9171950" lon="10.3300350">
	<ele>996.00</ele>
	<time>2025-04-29T06:18:39.000Z</time>
</trkpt>
<trkpt lat="45.9171940" lon="10.3300310">
	<ele>996.40</ele>
	<time>2025-04-29T06:18:40.000Z</time>
</trkpt>
<trkpt lat="45.9171910" lon="10.3300230">
	<ele>996.40</ele>
	<time>2025-04-29T06:18:41.000Z</time>
</trkpt>
<trkpt lat="45.9171840" lon="10.3300120">
	<ele>996.60</ele>
	<time>2025-04-29T06:18:42.000Z</time>
</trkpt>
<trkpt lat="45.9171840" lon="10.3300010">
	<ele>996.80</ele>
	<time>2025-04-29T06:18:43.000Z</time>
</trkpt>
<trkpt lat="45.9171870" lon="10.3299910">
	<ele>997.00</ele>
	<time>2025-04-29T06:18:44.000Z</time>
</trkpt>
<trkpt lat="45.9171880" lon="10.3299830">
	<ele>997.20</ele>
	<time>2025-04-29T06:18:45.000Z</time>
</trkpt>
<trkpt lat="45.9171900" lon="10.3299750">
	<ele>997.20</ele>
	<time>2025-04-29T06:18:46.000Z</time>
</trkpt>
<trkpt lat="45.9172070" lon="10.3299750">
	<ele>997.20</ele>
	<time>2025-04-29T06:18:47.000Z</time>
</trkpt>
<trkpt lat="45.9172250" lon="10.3299710">
	<ele>997.40</ele>
	<time>2025-04-29T06:18:48.000Z</time>
</trkpt>
<trkpt lat="45.9172360" lon="10.3299610">
	<ele>997.60</ele>
	<time>2025-04-29T06:18:49.000Z</time>
</trkpt>
<trkpt lat="45.9172530" lon="10.3299570">
	<ele>997.80</ele>
	<time>2025-04-29T06:18:50.000Z</time>
</trkpt>
<trkpt lat="45.9172600" lon="10.3299490">
	<ele>997.80</ele>
	<time>2025-04-29T06:18:51.000Z</time>
</trkpt>
<trkpt lat="45.9172670" lon="10.3299390">
	<ele>998.00</ele>
	<time>2025-04-29T06:18:52.000Z</time>
</trkpt>
<trkpt lat="45.9172640" lon="10.3299330">
	<ele>998.20</ele>
	<time>2025-04-29T06:18:53.000Z</time>
</trkpt>
<trkpt lat="45.9172480" lon="10.3299240">
	<ele>998.40</ele>
	<time>2025-04-29T06:18:54.000Z</time>
</trkpt>
<trkpt lat="45.9172410" lon="10.3299060">
	<ele>998.60</ele>
	<time>2025-04-29T06:18:55.000Z</time>
</trkpt>
<trkpt lat="45.9172380" lon="10.3298910">
	<ele>998.80</ele>
	<time>2025-04-29T06:18:56.000Z</time>
</trkpt>
<trkpt lat="45.9172390" lon="10.3298750">
	<ele>999.00</ele>
	<time>2025-04-29T06:18:57.000Z</time>
</trkpt>
<trkpt lat="45.9172400" lon="10.3298650">
	<ele>999.20</ele>
	<time>2025-04-29T06:18:58.000Z</time>
</trkpt>
<trkpt lat="45.9172340" lon="10.3298500">
	<ele>999.20</ele>
	<time>2025-04-29T06:18:59.000Z</time>
</trkpt>
<trkpt lat="45.9172270" lon="10.3298370">
	<ele>999.40</ele>
	<time>2025-04-29T06:19:00.000Z</time>
</trkpt>
<trkpt lat="45.9172100" lon="10.3298380">
	<ele>999.60</ele>
	<time>2025-04-29T06:19:01.000Z</time>
</trkpt>
<trkpt lat="45.9171920" lon="10.3298400">
	<ele>999.80</ele>
	<time>2025-04-29T06:19:02.000Z</time>
</trkpt>
<trkpt lat="45.9171780" lon="10.3298370">
	<ele>999.80</ele>
	<time>2025-04-29T06:19:03.000Z</time>
</trkpt>
<trkpt lat="45.9171680" lon="10.3298330">
	<ele>1000.00</ele>
	<time>2025-04-29T06:19:04.000Z</time>
</trkpt>
<trkpt lat="45.9171600" lon="10.3298200">
	<ele>1000.20</ele>
	<time>2025-04-29T06:19:05.000Z</time>
</trkpt>
<trkpt lat="45.9171470" lon="10.3298130">
	<ele>1000.20</ele>
	<time>2025-04-29T06:19:06.000Z</time>
</trkpt>
<trkpt lat="45.9171330" lon="10.3298030">
	<ele>1000.20</ele>
	<time>2025-04-29T06:19:07.000Z</time>
</trkpt>
<trkpt lat="45.9171220" lon="10.3297940">
	<ele>1000.20</ele>
	<time>2025-04-29T06:19:08.000Z</time>
</trkpt>
<trkpt lat="45.9171070" lon="10.3297940">
	<ele>1000.20</ele>
	<time>2025-04-29T06:19:09.000Z</time>
</trkpt>
<trkpt lat="45.9171000" lon="10.3297930">
	<ele>1000.20</ele>
	<time>2025-04-29T06:19:10.000Z</time>
</trkpt>
<trkpt lat="45.9170950" lon="10.3297830">
	<ele>1000.40</ele>
	<time>2025-04-29T06:19:11.000Z</time>
</trkpt>
<trkpt lat="45.9170890" lon="10.3297690">
	<ele>1000.40</ele>
	<time>2025-04-29T06:19:12.000Z</time>
</trkpt>
<trkpt lat="45.9170820" lon="10.3297590">
	<ele>1000.40</ele>
	<time>2025-04-29T06:19:13.000Z</time>
</trkpt>
<trkpt lat="45.9170730" lon="10.3297550">
	<ele>1000.60</ele>
	<time>2025-04-29T06:19:14.000Z</time>
</trkpt>
<trkpt lat="45.9170650" lon="10.3297430">
	<ele>1000.60</ele>
	<time>2025-04-29T06:19:15.000Z</time>
</trkpt>
<trkpt lat="45.9170600" lon="10.3297290">
	<ele>1000.60</ele>
	<time>2025-04-29T06:19:16.000Z</time>
</trkpt>
<trkpt lat="45.9170540" lon="10.3297230">
	<ele>1000.80</ele>
	<time>2025-04-29T06:19:17.000Z</time>
</trkpt>
<trkpt lat="45.9170510" lon="10.3297130">
	<ele>1001.00</ele>
	<time>2025-04-29T06:19:18.000Z</time>
</trkpt>
<trkpt lat="45.9170490" lon="10.3297100">
	<ele>1001.00</ele>
	<time>2025-04-29T06:19:19.000Z</time>
</trkpt>
<trkpt lat="45.9170450" lon="10.3297000">
	<ele>1001.20</ele>
	<time>2025-04-29T06:19:20.000Z</time>
</trkpt>
<trkpt lat="45.9170360" lon="10.3296910">
	<ele>1001.40</ele>
	<time>2025-04-29T06:19:21.000Z</time>
</trkpt>
<trkpt lat="45.9170290" lon="10.3296740">
	<ele>1001.60</ele>
	<time>2025-04-29T06:19:22.000Z</time>
</trkpt>
<trkpt lat="45.9170200" lon="10.3296690">
	<ele>1001.60</ele>
	<time>2025-04-29T06:19:23.000Z</time>
</trkpt>
<trkpt lat="45.9170090" lon="10.3296610">
	<ele>1001.80</ele>
	<time>2025-04-29T06:19:24.000Z</time>
</trkpt>
<trkpt lat="45.9170040" lon="10.3296500">
	<ele>1002.00</ele>
	<time>2025-04-29T06:19:25.000Z</time>
</trkpt>
<trkpt lat="45.9170050" lon="10.3296390">
	<ele>1002.20</ele>
	<time>2025-04-29T06:19:26.000Z</time>
</trkpt>
<trkpt lat="45.9170020" lon="10.3296250">
	<ele>1002.40</ele>
	<time>2025-04-29T06:19:27.000Z</time>
</trkpt>
<trkpt lat="45.9170010" lon="10.3296200">
	<ele>1002.40</ele>
	<time>2025-04-29T06:19:28.000Z</time>
</trkpt>
<trkpt lat="45.9169960" lon="10.3296080">
	<ele>1002.60</ele>
	<time>2025-04-29T06:19:29.000Z</time>
</trkpt>
<trkpt lat="45.9169930" lon="10.3295940">
	<ele>1002.60</ele>
	<time>2025-04-29T06:19:30.000Z</time>
</trkpt>
<trkpt lat="45.9169880" lon="10.3295760">
	<ele>1002.80</ele>
	<time>2025-04-29T06:19:31.000Z</time>
</trkpt>
<trkpt lat="45.9169800" lon="10.3295650">
	<ele>1003.00</ele>
	<time>2025-04-29T06:19:32.000Z</time>
</trkpt>
<trkpt lat="45.9169780" lon="10.3295540">
	<ele>1003.20</ele>
	<time>2025-04-29T06:19:33.000Z</time>
</trkpt>
<trkpt lat="45.9169770" lon="10.3295490">
	<ele>1003.40</ele>
	<time>2025-04-29T06:19:34.000Z</time>
</trkpt>
<trkpt lat="45.9169620" lon="10.3295450">
	<ele>1003.40</ele>
	<time>2025-04-29T06:19:35.000Z</time>
</trkpt>
<trkpt lat="45.9169580" lon="10.3295220">
	<ele>1003.60</ele>
	<time>2025-04-29T06:19:36.000Z</time>
</trkpt>
<trkpt lat="45.9169560" lon="10.3295150">
	<ele>1003.80</ele>
	<time>2025-04-29T06:19:37.000Z</time>
</trkpt>
<trkpt lat="45.9169540" lon="10.3295090">
	<ele>1004.00</ele>
	<time>2025-04-29T06:19:38.000Z</time>
</trkpt>
<trkpt lat="45.9169550" lon="10.3295030">
	<ele>1004.20</ele>
	<time>2025-04-29T06:19:39.000Z</time>
</trkpt>
<trkpt lat="45.9169470" lon="10.3294830">
	<ele>1004.40</ele>
	<time>2025-04-29T06:19:40.000Z</time>
</trkpt>
<trkpt lat="45.9169420" lon="10.3294750">
	<ele>1004.60</ele>
	<time>2025-04-29T06:19:41.000Z</time>
</trkpt>
<trkpt lat="45.9169380" lon="10.3294750">
	<ele>1004.80</ele>
	<time>2025-04-29T06:19:42.000Z</time>
</trkpt>
<trkpt lat="45.9169380" lon="10.3294700">
	<ele>1005.00</ele>
	<time>2025-04-29T06:19:43.000Z</time>
</trkpt>
<trkpt lat="45.9169370" lon="10.3294680">
	<ele>1005.20</ele>
	<time>2025-04-29T06:19:44.000Z</time>
</trkpt>
<trkpt lat="45.9169360" lon="10.3294670">
	<ele>1005.20</ele>
	<time>2025-04-29T06:19:45.000Z</time>
</trkpt>
<trkpt lat="45.9169350" lon="10.3294680">
	<ele>1005.40</ele>
	<time>2025-04-29T06:19:46.000Z</time>
</trkpt>
<trkpt lat="45.9169340" lon="10.3294580">
	<ele>1005.60</ele>
	<time>2025-04-29T06:19:47.000Z</time>
</trkpt>
<trkpt lat="45.9169280" lon="10.3294560">
	<ele>1006.00</ele>
	<time>2025-04-29T06:19:48.000Z</time>
</trkpt>
<trkpt lat="45.9169260" lon="10.3294520">
	<ele>1006.20</ele>
	<time>2025-04-29T06:19:49.000Z</time>
</trkpt>
<trkpt lat="45.9169270" lon="10.3294450">
	<ele>1006.60</ele>
	<time>2025-04-29T06:19:50.000Z</time>
</trkpt>
<trkpt lat="45.9169310" lon="10.3294340">
	<ele>1006.80</ele>
	<time>2025-04-29T06:19:51.000Z</time>
</trkpt>
<trkpt lat="45.9169380" lon="10.3294220">
	<ele>1007.00</ele>
	<time>2025-04-29T06:19:52.000Z</time>
</trkpt>
<trkpt lat="45.9169380" lon="10.3294070">
	<ele>1007.20</ele>
	<time>2025-04-29T06:19:53.000Z</time>
</trkpt>
<trkpt lat="45.9169350" lon="10.3293960">
	<ele>1007.40</ele>
	<time>2025-04-29T06:19:54.000Z</time>
</trkpt>
<trkpt lat="45.9169260" lon="10.3293930">
	<ele>1007.40</ele>
	<time>2025-04-29T06:19:55.000Z</time>
</trkpt>
<trkpt lat="45.9169250" lon="10.3293840">
	<ele>1007.60</ele>
	<time>2025-04-29T06:19:56.000Z</time>
</trkpt>
<trkpt lat="45.9169220" lon="10.3293760">
	<ele>1007.80</ele>
	<time>2025-04-29T06:19:57.000Z</time>
</trkpt>
<trkpt lat="45.9169170" lon="10.3293680">
	<ele>1008.00</ele>
	<time>2025-04-29T06:19:58.000Z</time>
</trkpt>
<trkpt lat="45.9169130" lon="10.3293670">
	<ele>1008.00</ele>
	<time>2025-04-29T06:19:59.000Z</time>
</trkpt>
<trkpt lat="45.9169040" lon="10.3293650">
	<ele>1008.20</ele>
	<time>2025-04-29T06:20:00.000Z</time>
</trkpt>
<trkpt lat="45.9168950" lon="10.3293640">
	<ele>1008.40</ele>
	<time>2025-04-29T06:20:01.000Z</time>
</trkpt>
<trkpt lat="45.9168850" lon="10.3293570">
	<ele>1008.60</ele>
	<time>2025-04-29T06:20:02.000Z</time>
</trkpt>
<trkpt lat="45.9168840" lon="10.3293550">
	<ele>1008.80</ele>
	<time>2025-04-29T06:20:03.000Z</time>
</trkpt>
<trkpt lat="45.9168800" lon="10.3293520">
	<ele>1009.00</ele>
	<time>2025-04-29T06:20:04.000Z</time>
</trkpt>
<trkpt lat="45.9168850" lon="10.3293540">
	<ele>1009.20</ele>
	<time>2025-04-29T06:20:05.000Z</time>
</trkpt>
<trkpt lat="45.9168980" lon="10.3293660">
	<ele>1009.20</ele>
	<time>2025-04-29T06:20:06.000Z</time>
</trkpt>
<trkpt lat="45.9169150" lon="10.3293820">
	<ele>1009.40</ele>
	<time>2025-04-29T06:20:07.000Z</time>
</trkpt>
<trkpt lat="45.9169240" lon="10.3293970">
	<ele>1009.40</ele>
	<time>2025-04-29T06:20:08.000Z</time>
</trkpt>
<trkpt lat="45.9169240" lon="10.3294070">
	<ele>1009.40</ele>
	<time>2025-04-29T06:20:09.000Z</time>
</trkpt>
<trkpt lat="45.9169230" lon="10.3294110">
	<ele>1009.40</ele>
	<time>2025-04-29T06:20:10.000Z</time>
</trkpt>
<trkpt lat="45.9169160" lon="10.3294150">
	<ele>1009.40</ele>
	<time>2025-04-29T06:20:11.000Z</time>
</trkpt>
<trkpt lat="45.9169120" lon="10.3294140">
	<ele>1009.40</ele>
	<time>2025-04-29T06:20:12.000Z</time>
</trkpt>
<trkpt lat="45.9169170" lon="10.3294160">
	<ele>1009.60</ele>
	<time>2025-04-29T06:20:13.000Z</time>
</trkpt>
<trkpt lat="45.9169190" lon="10.3294140">
	<ele>1009.60</ele>
	<time>2025-04-29T06:20:14.000Z</time>
</trkpt>
<trkpt lat="45.9169180" lon="10.3294270">
	<ele>1009.80</ele>
	<time>2025-04-29T06:20:15.000Z</time>
</trkpt>
<trkpt lat="45.9169170" lon="10.3294390">
	<ele>1010.00</ele>
	<time>2025-04-29T06:20:16.000Z</time>
</trkpt>
<trkpt lat="45.9169120" lon="10.3294420">
	<ele>1010.20</ele>
	<time>2025-04-29T06:20:17.000Z</time>
</trkpt>
<trkpt lat="45.9169130" lon="10.3294480">
	<ele>1010.40</ele>
	<time>2025-04-29T06:20:18.000Z</time>
</trkpt>
<trkpt lat="45.9169110" lon="10.3294510">
	<ele>1010.80</ele>
	<time>2025-04-29T06:20:19.000Z</time>
</trkpt>
<trkpt lat="45.9169080" lon="10.3294540">
	<ele>1010.80</ele>
	<time>2025-04-29T06:20:20.000Z</time>
</trkpt>
<trkpt lat="45.9169080" lon="10.3294630">
	<ele>1011.00</ele>
	<time>2025-04-29T06:20:21.000Z</time>
</trkpt>
<trkpt lat="45.9169050" lon="10.3294690">
	<ele>1011.00</ele>
	<time>2025-04-29T06:20:22.000Z</time>
</trkpt>
<trkpt lat="45.9169020" lon="10.3294770">
	<ele>1011.20</ele>
	<time>2025-04-29T06:20:23.000Z</time>
</trkpt>
<trkpt lat="45.9168960" lon="10.3294930">
	<ele>1011.40</ele>
	<time>2025-04-29T06:20:24.000Z</time>
</trkpt>
<trkpt lat="45.9168920" lon="10.3295020">
	<ele>1011.40</ele>
	<time>2025-04-29T06:20:25.000Z</time>
</trkpt>
<trkpt lat="45.9168930" lon="10.3295160">
	<ele>1011.60</ele>
	<time>2025-04-29T06:20:26.000Z</time>
</trkpt>
<trkpt lat="45.9168930" lon="10.3295300">
	<ele>1011.80</ele>
	<time>2025-04-29T06:20:27.000Z</time>
</trkpt>
<trkpt lat="45.9168890" lon="10.3295420">
	<ele>1011.80</ele>
	<time>2025-04-29T06:20:28.000Z</time>
</trkpt>
<trkpt lat="45.9168830" lon="10.3295500">
	<ele>1012.00</ele>
	<time>2025-04-29T06:20:29.000Z</time>
</trkpt>
<trkpt lat="45.9168760" lon="10.3295580">
	<ele>1012.20</ele>
	<time>2025-04-29T06:20:30.000Z</time>
</trkpt>
<trkpt lat="45.9168720" lon="10.3295690">
	<ele>1012.20</ele>
	<time>2025-04-29T06:20:31.000Z</time>
</trkpt>
<trkpt lat="45.9168720" lon="10.3295750">
	<ele>1012.40</ele>
	<time>2025-04-29T06:20:32.000Z</time>
</trkpt>
<trkpt lat="45.9168710" lon="10.3295830">
	<ele>1012.60</ele>
	<time>2025-04-29T06:20:33.000Z</time>
</trkpt>
<trkpt lat="45.9168740" lon="10.3295920">
	<ele>1012.60</ele>
	<time>2025-04-29T06:20:34.000Z</time>
</trkpt>
<trkpt lat="45.9168780" lon="10.3296050">
	<ele>1012.80</ele>
	<time>2025-04-29T06:20:35.000Z</time>
</trkpt>
<trkpt lat="45.9168740" lon="10.3296210">
	<ele>1013.00</ele>
	<time>2025-04-29T06:20:36.000Z</time>
</trkpt>
<trkpt lat="45.9168680" lon="10.3296340">
	<ele>1013.00</ele>
	<time>2025-04-29T06:20:37.000Z</time>
</trkpt>
<trkpt lat="45.9168650" lon="10.3296380">
	<ele>1013.20</ele>
	<time>2025-04-29T06:20:38.000Z</time>
</trkpt>
<trkpt lat="45.9168570" lon="10.3296500">
	<ele>1013.40</ele>
	<time>2025-04-29T06:20:39.000Z</time>
</trkpt>
<trkpt lat="45.9168510" lon="10.3296600">
	<ele>1013.40</ele>
	<time>2025-04-29T06:20:40.000Z</time>
</trkpt>
<trkpt lat="45.9168500" lon="10.3296670">
	<ele>1013.60</ele>
	<time>2025-04-29T06:20:41.000Z</time>
</trkpt>
<trkpt lat="45.9168440" lon="10.3296800">
	<ele>1013.80</ele>
	<time>2025-04-29T06:20:42.000Z</time>
</trkpt>
<trkpt lat="45.9168370" lon="10.3296980">
	<ele>1013.80</ele>
	<time>2025-04-29T06:20:43.000Z</time>
</trkpt>
<trkpt lat="45.9168330" lon="10.3297120">
	<ele>1014.00</ele>
	<time>2025-04-29T06:20:44.000Z</time>
</trkpt>
<trkpt lat="45.9168310" lon="10.3297200">
	<ele>1014.00</ele>
	<time>2025-04-29T06:20:45.000Z</time>
</trkpt>
<trkpt lat="45.9168320" lon="10.3297330">
	<ele>1014.20</ele>
	<time>2025-04-29T06:20:46.000Z</time>
</trkpt>
<trkpt lat="45.9168310" lon="10.3297370">
	<ele>1014.20</ele>
	<time>2025-04-29T06:20:47.000Z</time>
</trkpt>
<trkpt lat="45.9168340" lon="10.3297420">
	<ele>1014.40</ele>
	<time>2025-04-29T06:20:48.000Z</time>
</trkpt>
<trkpt lat="45.9168350" lon="10.3297510">
	<ele>1014.40</ele>
	<time>2025-04-29T06:20:49.000Z</time>
</trkpt>
<trkpt lat="45.9168240" lon="10.3297550">
	<ele>1014.60</ele>
	<time>2025-04-29T06:20:50.000Z</time>
</trkpt>
<trkpt lat="45.9168060" lon="10.3297720">
	<ele>1014.80</ele>
	<time>2025-04-29T06:20:51.000Z</time>
</trkpt>
<trkpt lat="45.9168050" lon="10.3297780">
	<ele>1015.00</ele>
	<time>2025-04-29T06:20:52.000Z</time>
</trkpt>
<trkpt lat="45.9168060" lon="10.3297820">
	<ele>1015.20</ele>
	<time>2025-04-29T06:20:53.000Z</time>
</trkpt>
<trkpt lat="45.9168130" lon="10.3297930">
	<ele>1015.40</ele>
	<time>2025-04-29T06:20:54.000Z</time>
</trkpt>
<trkpt lat="45.9168200" lon="10.3298060">
	<ele>1015.60</ele>
	<time>2025-04-29T06:20:55.000Z</time>
</trkpt>
<trkpt lat="45.9168260" lon="10.3298170">
	<ele>1015.60</ele>
	<time>2025-04-29T06:20:56.000Z</time>
</trkpt>
<trkpt lat="45.9168280" lon="10.3298160">
	<ele>1015.80</ele>
	<time>2025-04-29T06:20:57.000Z</time>
</trkpt>
<trkpt lat="45.9168360" lon="10.3298230">
	<ele>1015.80</ele>
	<time>2025-04-29T06:20:58.000Z</time>
</trkpt>
<trkpt lat="45.9168380" lon="10.3298240">
	<ele>1016.00</ele>
	<time>2025-04-29T06:20:59.000Z</time>
</trkpt>
<trkpt lat="45.9168390" lon="10.3298330">
	<ele>1016.00</ele>
	<time>2025-04-29T06:21:00.000Z</time>
</trkpt>
<trkpt lat="45.9168430" lon="10.3298470">
	<ele>1016.20</ele>
	<time>2025-04-29T06:21:01.000Z</time>
</trkpt>
<trkpt lat="45.9168400" lon="10.3298650">
	<ele>1016.40</ele>
	<time>2025-04-29T06:21:02.000Z</time>
</trkpt>
<trkpt lat="45.9168390" lon="10.3298770">
	<ele>1016.60</ele>
	<time>2025-04-29T06:21:03.000Z</time>
</trkpt>
<trkpt lat="45.9168410" lon="10.3298890">
	<ele>1016.60</ele>
	<time>2025-04-29T06:21:04.000Z</time>
</trkpt>
<trkpt lat="45.9168450" lon="10.3298960">
	<ele>1016.80</ele>
	<time>2025-04-29T06:21:05.000Z</time>
</trkpt>
<trkpt lat="45.9168480" lon="10.3299050">
	<ele>1017.00</ele>
	<time>2025-04-29T06:21:06.000Z</time>
</trkpt>
<trkpt lat="45.9168540" lon="10.3299090">
	<ele>1017.40</ele>
	<time>2025-04-29T06:21:07.000Z</time>
</trkpt>
<trkpt lat="45.9168580" lon="10.3299180">
	<ele>1017.60</ele>
	<time>2025-04-29T06:21:08.000Z</time>
</trkpt>
<trkpt lat="45.9168670" lon="10.3299300">
	<ele>1017.60</ele>
	<time>2025-04-29T06:21:09.000Z</time>
</trkpt>
<trkpt lat="45.9168720" lon="10.3299410">
	<ele>1017.80</ele>
	<time>2025-04-29T06:21:10.000Z</time>
</trkpt>
<trkpt lat="45.9168700" lon="10.3299460">
	<ele>1018.00</ele>
	<time>2025-04-29T06:21:11.000Z</time>
</trkpt>
<trkpt lat="45.9168700" lon="10.3299510">
	<ele>1018.20</ele>
	<time>2025-04-29T06:21:12.000Z</time>
</trkpt>
<trkpt lat="45.9168720" lon="10.3299570">
	<ele>1018.40</ele>
	<time>2025-04-29T06:21:13.000Z</time>
</trkpt>
<trkpt lat="45.9168740" lon="10.3299600">
	<ele>1018.60</ele>
	<time>2025-04-29T06:21:14.000Z</time>
</trkpt>
<trkpt lat="45.9168800" lon="10.3299650">
	<ele>1018.80</ele>
	<time>2025-04-29T06:21:15.000Z</time>
</trkpt>
<trkpt lat="45.9168800" lon="10.3299750">
	<ele>1019.00</ele>
	<time>2025-04-29T06:21:16.000Z</time>
</trkpt>
<trkpt lat="45.9168840" lon="10.3299850">
	<ele>1019.00</ele>
	<time>2025-04-29T06:21:17.000Z</time>
</trkpt>
<trkpt lat="45.9168910" lon="10.3299910">
	<ele>1019.40</ele>
	<time>2025-04-29T06:21:18.000Z</time>
</trkpt>
<trkpt lat="45.9169010" lon="10.3300000">
	<ele>1019.40</ele>
	<time>2025-04-29T06:21:19.000Z</time>
</trkpt>
<trkpt lat="45.9169090" lon="10.3300060">
	<ele>1019.60</ele>
	<time>2025-04-29T06:21:20.000Z</time>
</trkpt>
<trkpt lat="45.9169210" lon="10.3300020">
	<ele>1019.80</ele>
	<time>2025-04-29T06:21:21.000Z</time>
</trkpt>
<trkpt lat="45.9169230" lon="10.3300100">
	<ele>1019.80</ele>
	<time>2025-04-29T06:21:22.000Z</time>
</trkpt>
<trkpt lat="45.9169180" lon="10.3300200">
	<ele>1019.80</ele>
	<time>2025-04-29T06:21:23.000Z</time>
</trkpt>
<trkpt lat="45.9169190" lon="10.3300290">
	<ele>1020.00</ele>
	<time>2025-04-29T06:21:24.000Z</time>
</trkpt>
<trkpt lat="45.9169180" lon="10.3300350">
	<ele>1020.00</ele>
	<time>2025-04-29T06:21:25.000Z</time>
</trkpt>
<trkpt lat="45.9169160" lon="10.3300470">
	<ele>1020.20</ele>
	<time>2025-04-29T06:21:26.000Z</time>
</trkpt>
<trkpt lat="45.9169140" lon="10.3300480">
	<ele>1020.20</ele>
	<time>2025-04-29T06:21:27.000Z</time>
</trkpt>
<trkpt lat="45.9169130" lon="10.3300480">
	<ele>1020.40</ele>
	<time>2025-04-29T06:21:28.000Z</time>
</trkpt>
<trkpt lat="45.9169100" lon="10.3300510">
	<ele>1020.60</ele>
	<time>2025-04-29T06:21:29.000Z</time>
</trkpt>
<trkpt lat="45.9169120" lon="10.3300530">
	<ele>1020.80</ele>
	<time>2025-04-29T06:21:30.000Z</time>
</trkpt>
<trkpt lat="45.9169130" lon="10.3300620">
	<ele>1021.00</ele>
	<time>2025-04-29T06:21:31.000Z</time>
</trkpt>
<trkpt lat="45.9169100" lon="10.3300740">
	<ele>1021.20</ele>
	<time>2025-04-29T06:21:32.000Z</time>
</trkpt>
<trkpt lat="45.9169060" lon="10.3300900">
	<ele>1021.20</ele>
	<time>2025-04-29T06:21:33.000Z</time>
</trkpt>
<trkpt lat="45.9169010" lon="10.3301050">
	<ele>1021.60</ele>
	<time>2025-04-29T06:21:34.000Z</time>
</trkpt>
<trkpt lat="45.9168940" lon="10.3301210">
	<ele>1021.80</ele>
	<time>2025-04-29T06:21:35.000Z</time>
</trkpt>
<trkpt lat="45.9168860" lon="10.3301410">
	<ele>1021.80</ele>
	<time>2025-04-29T06:21:36.000Z</time>
</trkpt>
<trkpt lat="45.9168850" lon="10.3301470">
	<ele>1022.00</ele>
	<time>2025-04-29T06:21:37.000Z</time>
</trkpt>
<trkpt lat="45.9168860" lon="10.3301540">
	<ele>1022.20</ele>
	<time>2025-04-29T06:21:38.000Z</time>
</trkpt>
<trkpt lat="45.9168880" lon="10.3301590">
	<ele>1022.40</ele>
	<time>2025-04-29T06:21:39.000Z</time>
</trkpt>
<trkpt lat="45.9168890" lon="10.3301640">
	<ele>1022.80</ele>
	<time>2025-04-29T06:21:40.000Z</time>
</trkpt>
<trkpt lat="45.9168880" lon="10.3301720">
	<ele>1023.00</ele>
	<time>2025-04-29T06:21:41.000Z</time>
</trkpt>
<trkpt lat="45.9168920" lon="10.3301840">
	<ele>1023.20</ele>
	<time>2025-04-29T06:21:42.000Z</time>
</trkpt>
<trkpt lat="45.9168950" lon="10.3301880">
	<ele>1023.20</ele>
	<time>2025-04-29T06:21:43.000Z</time>
</trkpt>
<trkpt lat="45.9169000" lon="10.3301980">
	<ele>1023.40</ele>
	<time>2025-04-29T06:21:44.000Z</time>
</trkpt>
<trkpt lat="45.9169050" lon="10.3302120">
	<ele>1023.60</ele>
	<time>2025-04-29T06:21:45.000Z</time>
</trkpt>
<trkpt lat="45.9169090" lon="10.3302230">
	<ele>1023.80</ele>
	<time>2025-04-29T06:21:46.000Z</time>
</trkpt>
<trkpt lat="45.9169040" lon="10.3302270">
	<ele>1024.00</ele>
	<time>2025-04-29T06:21:47.000Z</time>
</trkpt>
<trkpt lat="45.9169000" lon="10.3302280">
	<ele>1024.00</ele>
	<time>2025-04-29T06:21:48.000Z</time>
</trkpt>
<trkpt lat="45.9168950" lon="10.3302350">
	<ele>1024.20</ele>
	<time>2025-04-29T06:21:49.000Z</time>
</trkpt>
<trkpt lat="45.9168920" lon="10.3302380">
	<ele>1024.20</ele>
	<time>2025-04-29T06:21:50.000Z</time>
</trkpt>
<trkpt lat="45.9168940" lon="10.3302440">
	<ele>1024.40</ele>
	<time>2025-04-29T06:21:51.000Z</time>
</trkpt>
<trkpt lat="45.9168910" lon="10.3302470">
	<ele>1024.40</ele>
	<time>2025-04-29T06:21:52.000Z</time>
</trkpt>
<trkpt lat="45.9168880" lon="10.3302580">
	<ele>1024.60</ele>
	<time>2025-04-29T06:21:53.000Z</time>
</trkpt>
<trkpt lat="45.9168770" lon="10.3302710">
	<ele>1024.80</ele>
	<time>2025-04-29T06:21:54.000Z</time>
</trkpt>
<trkpt lat="45.9168660" lon="10.3302800">
	<ele>1024.80</ele>
	<time>2025-04-29T06:21:55.000Z</time>
</trkpt>
<trkpt lat="45.9168640" lon="10.3302890">
	<ele>1025.00</ele>
	<time>2025-04-29T06:21:56.000Z</time>
</trkpt>
<trkpt lat="45.9168640" lon="10.3303050">
	<ele>1025.20</ele>
	<time>2025-04-29T06:21:57.000Z</time>
</trkpt>
<trkpt lat="45.9168670" lon="10.3303250">
	<ele>1025.40</ele>
	<time>2025-04-29T06:21:58.000Z</time>
</trkpt>
<trkpt lat="45.9168650" lon="10.3303450">
	<ele>1025.60</ele>
	<time>2025-04-29T06:21:59.000Z</time>
</trkpt>
<trkpt lat="45.9168640" lon="10.3303620">
	<ele>1025.80</ele>
	<time>2025-04-29T06:22:00.000Z</time>
</trkpt>
<trkpt lat="45.9168700" lon="10.3303690">
	<ele>1025.80</ele>
	<time>2025-04-29T06:22:01.000Z</time>
</trkpt>
<trkpt lat="45.9168730" lon="10.3303680">
	<ele>1026.00</ele>
	<time>2025-04-29T06:22:02.000Z</time>
</trkpt>
<trkpt lat="45.9168710" lon="10.3303720">
	<ele>1026.20</ele>
	<time>2025-04-29T06:22:03.000Z</time>
</trkpt>
<trkpt lat="45.9168730" lon="10.3303800">
	<ele>1026.20</ele>
	<time>2025-04-29T06:22:04.000Z</time>
</trkpt>
<trkpt lat="45.9168700" lon="10.3304020">
	<ele>1026.40</ele>
	<time>2025-04-29T06:22:05.000Z</time>
</trkpt>
<trkpt lat="45.9168630" lon="10.3304200">
	<ele>1026.60</ele>
	<time>2025-04-29T06:22:06.000Z</time>
</trkpt>
<trkpt lat="45.9168570" lon="10.3304380">
	<ele>1026.80</ele>
	<time>2025-04-29T06:22:07.000Z</time>
</trkpt>
<trkpt lat="45.9168500" lon="10.3304520">
	<ele>1027.00</ele>
	<time>2025-04-29T06:22:08.000Z</time>
</trkpt>
<trkpt lat="45.9168410" lon="10.3304640">
	<ele>1027.00</ele>
	<time>2025-04-29T06:22:09.000Z</time>
</trkpt>
<trkpt lat="45.9168390" lon="10.3304810">
	<ele>1027.20</ele>
	<time>2025-04-29T06:22:10.000Z</time>
</trkpt>
<trkpt lat="45.9168350" lon="10.3304960">
	<ele>1027.40</ele>
	<time>2025-04-29T06:22:11.000Z</time>
</trkpt>
<trkpt lat="45.9168320" lon="10.3305030">
	<ele>1027.60</ele>
	<time>2025-04-29T06:22:12.000Z</time>
</trkpt>
<trkpt lat="45.9168320" lon="10.3305120">
	<ele>1027.80</ele>
	<time>2025-04-29T06:22:13.000Z</time>
</trkpt>
<trkpt lat="45.9168320" lon="10.3305200">
	<ele>1028.00</ele>
	<time>2025-04-29T06:22:14.000Z</time>
</trkpt>
<trkpt lat="45.9168320" lon="10.3305350">
	<ele>1028.20</ele>
	<time>2025-04-29T06:22:15.000Z</time>
</trkpt>
<trkpt lat="45.9168300" lon="10.3305410">
	<ele>1028.40</ele>
	<time>2025-04-29T06:22:16.000Z</time>
</trkpt>
<trkpt lat="45.9168280" lon="10.3305490">
	<ele>1028.60</ele>
	<time>2025-04-29T06:22:17.000Z</time>
</trkpt>
<trkpt lat="45.9168290" lon="10.3305570">
	<ele>1028.80</ele>
	<time>2025-04-29T06:22:18.000Z</time>
</trkpt>
<trkpt lat="45.9168330" lon="10.3305610">
	<ele>1029.00</ele>
	<time>2025-04-29T06:22:19.000Z</time>
</trkpt>
<trkpt lat="45.9168280" lon="10.3305690">
	<ele>1029.20</ele>
	<time>2025-04-29T06:22:20.000Z</time>
</trkpt>
<trkpt lat="45.9168220" lon="10.3305750">
	<ele>1029.40</ele>
	<time>2025-04-29T06:22:21.000Z</time>
</trkpt>
<trkpt lat="45.9168170" lon="10.3305790">
	<ele>1029.60</ele>
	<time>2025-04-29T06:22:22.000Z</time>
</trkpt>
<trkpt lat="45.9168140" lon="10.3305870">
	<ele>1029.80</ele>
	<time>2025-04-29T06:22:23.000Z</time>
</trkpt>
<trkpt lat="45.9168090" lon="10.3305980">
	<ele>1030.00</ele>
	<time>2025-04-29T06:22:24.000Z</time>
</trkpt>
<trkpt lat="45.9168070" lon="10.3306020">
	<ele>1030.20</ele>
	<time>2025-04-29T06:22:25.000Z</time>
</trkpt>
<trkpt lat="45.9168130" lon="10.3306130">
	<ele>1030.20</ele>
	<time>2025-04-29T06:22:26.000Z</time>
</trkpt>
<trkpt lat="45.9168230" lon="10.3306330">
	<ele>1030.40</ele>
	<time>2025-04-29T06:22:27.000Z</time>
</trkpt>
<trkpt lat="45.9168180" lon="10.3306450">
	<ele>1030.60</ele>
	<time>2025-04-29T06:22:28.000Z</time>
</trkpt>
<trkpt lat="45.9168190" lon="10.3306550">
	<ele>1030.60</ele>
	<time>2025-04-29T06:22:29.000Z</time>
</trkpt>
<trkpt lat="45.9168170" lon="10.3306600">
	<ele>1030.80</ele>
	<time>2025-04-29T06:22:30.000Z</time>
</trkpt>
<trkpt lat="45.9168070" lon="10.3306630">
	<ele>1031.00</ele>
	<time>2025-04-29T06:22:31.000Z</time>
</trkpt>
<trkpt lat="45.9167870" lon="10.3306570">
	<ele>1031.20</ele>
	<time>2025-04-29T06:22:32.000Z</time>
</trkpt>
<trkpt lat="45.9167730" lon="10.3306600">
	<ele>1031.20</ele>
	<time>2025-04-29T06:22:33.000Z</time>
</trkpt>
<trkpt lat="45.9167740" lon="10.3306670">
	<ele>1031.60</ele>
	<time>2025-04-29T06:22:34.000Z</time>
</trkpt>
<trkpt lat="45.9167730" lon="10.3306730">
	<ele>1031.80</ele>
	<time>2025-04-29T06:22:35.000Z</time>
</trkpt>
<trkpt lat="45.9167700" lon="10.3306730">
	<ele>1032.20</ele>
	<time>2025-04-29T06:22:36.000Z</time>
</trkpt>
<trkpt lat="45.9167640" lon="10.3306830">
	<ele>1032.20</ele>
	<time>2025-04-29T06:22:37.000Z</time>
</trkpt>
<trkpt lat="45.9167580" lon="10.3307030">
	<ele>1032.40</ele>
	<time>2025-04-29T06:22:38.000Z</time>
</trkpt>
<trkpt lat="45.9167560" lon="10.3307200">
	<ele>1032.60</ele>
	<time>2025-04-29T06:22:39.000Z</time>
</trkpt>
<trkpt lat="45.9167500" lon="10.3307310">
	<ele>1032.80</ele>
	<time>2025-04-29T06:22:40.000Z</time>
</trkpt>
<trkpt lat="45.9167430" lon="10.3307380">
	<ele>1032.80</ele>
	<time>2025-04-29T06:22:41.000Z</time>
</trkpt>
<trkpt lat="45.9167340" lon="10.3307450">
	<ele>1033.00</ele>
	<time>2025-04-29T06:22:42.000Z</time>
</trkpt>
<trkpt lat="45.9167360" lon="10.3307560">
	<ele>1033.20</ele>
	<time>2025-04-29T06:22:43.000Z</time>
</trkpt>
<trkpt lat="45.9167410" lon="10.3307710">
	<ele>1033.40</ele>
	<time>2025-04-29T06:22:44.000Z</time>
</trkpt>
<trkpt lat="45.9167330" lon="10.3307780">
	<ele>1033.60</ele>
	<time>2025-04-29T06:22:45.000Z</time>
</trkpt>
<trkpt lat="45.9167300" lon="10.3307800">
	<ele>1033.60</ele>
	<time>2025-04-29T06:22:46.000Z</time>
</trkpt>
<trkpt lat="45.9167290" lon="10.3307800">
	<ele>1033.80</ele>
	<time>2025-04-29T06:22:47.000Z</time>
</trkpt>
<trkpt lat="45.9167300" lon="10.3307840">
	<ele>1033.80</ele>
	<time>2025-04-29T06:22:48.000Z</time>
</trkpt>
<trkpt lat="45.9167240" lon="10.3307890">
	<ele>1034.00</ele>
	<time>2025-04-29T06:22:49.000Z</time>
</trkpt>
<trkpt lat="45.9167160" lon="10.3307900">
	<ele>1034.20</ele>
	<time>2025-04-29T06:22:50.000Z</time>
</trkpt>
<trkpt lat="45.9167080" lon="10.3307900">
	<ele>1034.40</ele>
	<time>2025-04-29T06:22:51.000Z</time>
</trkpt>
<trkpt lat="45.9166950" lon="10.3307830">
	<ele>1034.40</ele>
	<time>2025-04-29T06:22:52.000Z</time>
</trkpt>
<trkpt lat="45.9166810" lon="10.3307860">
	<ele>1034.60</ele>
	<time>2025-04-29T06:22:53.000Z</time>
</trkpt>
<trkpt lat="45.9166740" lon="10.3308010">
	<ele>1034.80</ele>
	<time>2025-04-29T06:22:54.000Z</time>
</trkpt>
<trkpt lat="45.9166630" lon="10.3308200">
	<ele>1035.00</ele>
	<time>2025-04-29T06:22:55.000Z</time>
</trkpt>
<trkpt lat="45.9166620" lon="10.3308220">
	<ele>1035.00</ele>
	<time>2025-04-29T06:22:56.000Z</time>
</trkpt>
<trkpt lat="45.9166620" lon="10.3308290">
	<ele>1035.20</ele>
	<time>2025-04-29T06:22:57.000Z</time>
</trkpt>
<trkpt lat="45.9166630" lon="10.3308270">
	<ele>1035.40</ele>
	<time>2025-04-29T06:22:58.000Z</time>
</trkpt>
<trkpt lat="45.9166590" lon="10.3308360">
	<ele>1035.60</ele>
	<time>2025-04-29T06:22:59.000Z</time>
</trkpt>
<trkpt lat="45.9166560" lon="10.3308360">
	<ele>1035.80</ele>
	<time>2025-04-29T06:23:00.000Z</time>
</trkpt>
<trkpt lat="45.9166520" lon="10.3308370">
	<ele>1036.00</ele>
	<time>2025-04-29T06:23:01.000Z</time>
</trkpt>
<trkpt lat="45.9166520" lon="10.3308410">
	<ele>1036.20</ele>
	<time>2025-04-29T06:23:02.000Z</time>
</trkpt>
<trkpt lat="45.9166530" lon="10.3308450">
	<ele>1036.20</ele>
	<time>2025-04-29T06:23:03.000Z</time>
</trkpt>
<trkpt lat="45.9166540" lon="10.3308550">
	<ele>1036.40</ele>
	<time>2025-04-29T06:23:04.000Z</time>
</trkpt>
<trkpt lat="45.9166580" lon="10.3308740">
	<ele>1036.40</ele>
	<time>2025-04-29T06:23:05.000Z</time>
</trkpt>
<trkpt lat="45.9166690" lon="10.3308900">
	<ele>1036.60</ele>
	<time>2025-04-29T06:23:06.000Z</time>
</trkpt>
<trkpt lat="45.9166700" lon="10.3308930">
	<ele>1036.80</ele>
	<time>2025-04-29T06:23:07.000Z</time>
</trkpt>
<trkpt lat="45.9166690" lon="10.3309110">
	<ele>1037.00</ele>
	<time>2025-04-29T06:23:08.000Z</time>
</trkpt>
<trkpt lat="45.9166580" lon="10.3309280">
	<ele>1037.20</ele>
	<time>2025-04-29T06:23:09.000Z</time>
</trkpt>
<trkpt lat="45.9166510" lon="10.3309320">
	<ele>1037.20</ele>
	<time>2025-04-29T06:23:10.000Z</time>
</trkpt>
<trkpt lat="45.9166320" lon="10.3309410">
	<ele>1037.40</ele>
	<time>2025-04-29T06:23:11.000Z</time>
</trkpt>
<trkpt lat="45.9166220" lon="10.3309490">
	<ele>1037.40</ele>
	<time>2025-04-29T06:23:12.000Z</time>
</trkpt>
<trkpt lat="45.9166120" lon="10.3309560">
	<ele>1037.40</ele>
	<time>2025-04-29T06:23:13.000Z</time>
</trkpt>
<trkpt lat="45.9166010" lon="10.3309590">
	<ele>1037.60</ele>
	<time>2025-04-29T06:23:14.000Z</time>
</trkpt>
<trkpt lat="45.9165940" lon="10.3309600">
	<ele>1037.60</ele>
	<time>2025-04-29T06:23:15.000Z</time>
</trkpt>
<trkpt lat="45.9165890" lon="10.3309660">
	<ele>1037.60</ele>
	<time>2025-04-29T06:23:16.000Z</time>
</trkpt>
<trkpt lat="45.9165860" lon="10.3309690">
	<ele>1037.80</ele>
	<time>2025-04-29T06:23:17.000Z</time>
</trkpt>
<trkpt lat="45.9165930" lon="10.3309790">
	<ele>1038.00</ele>
	<time>2025-04-29T06:23:18.000Z</time>
</trkpt>
<trkpt lat="45.9165900" lon="10.3309840">
	<ele>1038.00</ele>
	<time>2025-04-29T06:23:19.000Z</time>
</trkpt>
<trkpt lat="45.9165830" lon="10.3309880">
	<ele>1038.20</ele>
	<time>2025-04-29T06:23:20.000Z</time>
</trkpt>
<trkpt lat="45.9165680" lon="10.3309880">
	<ele>1038.20</ele>
	<time>2025-04-29T06:23:21.000Z</time>
</trkpt>
<trkpt lat="45.9165510" lon="10.3309890">
	<ele>1038.40</ele>
	<time>2025-04-29T06:23:22.000Z</time>
</trkpt>
<trkpt lat="45.9165370" lon="10.3309880">
	<ele>1038.60</ele>
	<time>2025-04-29T06:23:23.000Z</time>
</trkpt>
<trkpt lat="45.9165220" lon="10.3309860">
	<ele>1038.80</ele>
	<time>2025-04-29T06:23:24.000Z</time>
</trkpt>
<trkpt lat="45.9165140" lon="10.3309900">
	<ele>1039.00</ele>
	<time>2025-04-29T06:23:25.000Z</time>
</trkpt>
<trkpt lat="45.9165090" lon="10.3309960">
	<ele>1039.20</ele>
	<time>2025-04-29T06:23:26.000Z</time>
</trkpt>
<trkpt lat="45.9164940" lon="10.3310120">
	<ele>1039.20</ele>
	<time>2025-04-29T06:23:27.000Z</time>
</trkpt>
<trkpt lat="45.9164860" lon="10.3310340">
	<ele>1039.40</ele>
	<time>2025-04-29T06:23:28.000Z</time>
</trkpt>
<trkpt lat="45.9164740" lon="10.3310460">
	<ele>1039.40</ele>
	<time>2025-04-29T06:23:29.000Z</time>
</trkpt>
<trkpt lat="45.9164620" lon="10.3310570">
	<ele>1039.60</ele>
	<time>2025-04-29T06:23:30.000Z</time>
</trkpt>
<trkpt lat="45.9164520" lon="10.3310740">
	<ele>1039.60</ele>
	<time>2025-04-29T06:23:31.000Z</time>
</trkpt>
<trkpt lat="45.9164390" lon="10.3310940">
	<ele>1039.80</ele>
	<time>2025-04-29T06:23:32.000Z</time>
</trkpt>
<trkpt lat="45.9164360" lon="10.3310980">
	<ele>1040.00</ele>
	<time>2025-04-29T06:23:33.000Z</time>
</trkpt>
<trkpt lat="45.9164310" lon="10.3311000">
	<ele>1040.20</ele>
	<time>2025-04-29T06:23:34.000Z</time>
</trkpt>
<trkpt lat="45.9164240" lon="10.3310980">
	<ele>1040.20</ele>
	<time>2025-04-29T06:23:35.000Z</time>
</trkpt>
<trkpt lat="45.9164180" lon="10.3310960">
	<ele>1040.40</ele>
	<time>2025-04-29T06:23:36.000Z</time>
</trkpt>
<trkpt lat="45.9164110" lon="10.3311040">
	<ele>1040.60</ele>
	<time>2025-04-29T06:23:37.000Z</time>
</trkpt>
<trkpt lat="45.9164110" lon="10.3311220">
	<ele>1040.80</ele>
	<time>2025-04-29T06:23:38.000Z</time>
</trkpt>
<trkpt lat="45.9164180" lon="10.3311450">
	<ele>1040.80</ele>
	<time>2025-04-29T06:23:39.000Z</time>
</trkpt>
<trkpt lat="45.9164240" lon="10.3311700">
	<ele>1041.00</ele>
	<time>2025-04-29T06:23:40.000Z</time>
</trkpt>
<trkpt lat="45.9164180" lon="10.3311890">
	<ele>1041.00</ele>
	<time>2025-04-29T06:23:41.000Z</time>
</trkpt>
<trkpt lat="45.9164100" lon="10.3312000">
	<ele>1041.20</ele>
	<time>2025-04-29T06:23:42.000Z</time>
</trkpt>
<trkpt lat="45.9164030" lon="10.3312010">
	<ele>1041.20</ele>
	<time>2025-04-29T06:23:43.000Z</time>
</trkpt>
<trkpt lat="45.9163900" lon="10.3311950">
	<ele>1041.40</ele>
	<time>2025-04-29T06:23:44.000Z</time>
</trkpt>
<trkpt lat="45.9163770" lon="10.3311870">
	<ele>1041.60</ele>
	<time>2025-04-29T06:23:45.000Z</time>
</trkpt>
<trkpt lat="45.9163810" lon="10.3311760">
	<ele>1041.60</ele>
	<time>2025-04-29T06:23:46.000Z</time>
</trkpt>
<trkpt lat="45.9163890" lon="10.3311730">
	<ele>1041.80</ele>
	<time>2025-04-29T06:23:47.000Z</time>
</trkpt>
<trkpt lat="45.9164000" lon="10.3311810">
	<ele>1041.80</ele>
	<time>2025-04-29T06:23:48.000Z</time>
</trkpt>
<trkpt lat="45.9164060" lon="10.3311910">
	<ele>1042.00</ele>
	<time>2025-04-29T06:23:49.000Z</time>
</trkpt>
<trkpt lat="45.9163980" lon="10.3312020">
	<ele>1042.00</ele>
	<time>2025-04-29T06:23:50.000Z</time>
</trkpt>
<trkpt lat="45.9163940" lon="10.3312060">
	<ele>1042.20</ele>
	<time>2025-04-29T06:23:51.000Z</time>
</trkpt>
<trkpt lat="45.9163940" lon="10.3312060">
	<ele>1042.20</ele>
	<time>2025-04-29T06:23:52.000Z</time>
</trkpt>
<trkpt lat="45.9163950" lon="10.3312050">
	<ele>1042.60</ele>
	<time>2025-04-29T06:23:53.000Z</time>
</trkpt>
<trkpt lat="45.9163950" lon="10.3312070">
	<ele>1042.80</ele>
	<time>2025-04-29T06:23:54.000Z</time>
</trkpt>
<trkpt lat="45.9163950" lon="10.3312070">
	<ele>1042.80</ele>
	<time>2025-04-29T06:23:55.000Z</time>
</trkpt>
<trkpt lat="45.9163910" lon="10.3312110">
	<ele>1042.80</ele>
	<time>2025-04-29T06:23:56.000Z</time>
</trkpt>
<trkpt lat="45.9163750" lon="10.3312360">
	<ele>1043.00</ele>
	<time>2025-04-29T06:23:57.000Z</time>
</trkpt>
<trkpt lat="45.9163680" lon="10.3312540">
	<ele>1043.20</ele>
	<time>2025-04-29T06:23:58.000Z</time>
</trkpt>
<trkpt lat="45.9163610" lon="10.3312720">
	<ele>1043.20</ele>
	<time>2025-04-29T06:23:59.000Z</time>
</trkpt>
<trkpt lat="45.9163520" lon="10.3312890">
	<ele>1043.20</ele>
	<time>2025-04-29T06:24:00.000Z</time>
</trkpt>
<trkpt lat="45.9163400" lon="10.3313070">
	<ele>1043.40</ele>
	<time>2025-04-29T06:24:01.000Z</time>
</trkpt>
<trkpt lat="45.9163270" lon="10.3313300">
	<ele>1043.40</ele>
	<time>2025-04-29T06:24:02.000Z</time>
</trkpt>
<trkpt lat="45.9163150" lon="10.3313540">
	<ele>1043.40</ele>
	<time>2025-04-29T06:24:03.000Z</time>
</trkpt>
<trkpt lat="45.9163090" lon="10.3313730">
	<ele>1043.40</ele>
	<time>2025-04-29T06:24:04.000Z</time>
</trkpt>
<trkpt lat="45.9163030" lon="10.3313950">
	<ele>1043.60</ele>
	<time>2025-04-29T06:24:05.000Z</time>
</trkpt>
<trkpt lat="45.9163030" lon="10.3314110">
	<ele>1043.60</ele>
	<time>2025-04-29T06:24:06.000Z</time>
</trkpt>
<trkpt lat="45.9163010" lon="10.3314220">
	<ele>1043.80</ele>
	<time>2025-04-29T06:24:07.000Z</time>
</trkpt>
<trkpt lat="45.9162960" lon="10.3314350">
	<ele>1043.80</ele>
	<time>2025-04-29T06:24:08.000Z</time>
</trkpt>
<trkpt lat="45.9162910" lon="10.3314480">
	<ele>1044.00</ele>
	<time>2025-04-29T06:24:09.000Z</time>
</trkpt>
<trkpt lat="45.9162870" lon="10.3314650">
	<ele>1044.00</ele>
	<time>2025-04-29T06:24:10.000Z</time>
</trkpt>
<trkpt lat="45.9162770" lon="10.3314910">
	<ele>1044.00</ele>
	<time>2025-04-29T06:24:11.000Z</time>
</trkpt>
<trkpt lat="45.9162750" lon="10.3315140">
	<ele>1044.20</ele>
	<time>2025-04-29T06:24:12.000Z</time>
</trkpt>
<trkpt lat="45.9162650" lon="10.3315280">
	<ele>1044.20</ele>
	<time>2025-04-29T06:24:13.000Z</time>
</trkpt>
<trkpt lat="45.9162450" lon="10.3315490">
	<ele>1044.40</ele>
	<time>2025-04-29T06:24:14.000Z</time>
</trkpt>
<trkpt lat="45.9162280" lon="10.3315650">
	<ele>1044.40</ele>
	<time>2025-04-29T06:24:15.000Z</time>
</trkpt>
<trkpt lat="45.9162210" lon="10.3315810">
	<ele>1044.80</ele>
	<time>2025-04-29T06:24:16.000Z</time>
</trkpt>
<trkpt lat="45.9162260" lon="10.3316060">
	<ele>1044.80</ele>
	<time>2025-04-29T06:24:17.000Z</time>
</trkpt>
<trkpt lat="45.9162260" lon="10.3316130">
	<ele>1045.00</ele>
	<time>2025-04-29T06:24:18.000Z</time>
</trkpt>
<trkpt lat="45.9162180" lon="10.3316150">
	<ele>1045.20</ele>
	<time>2025-04-29T06:24:19.000Z</time>
</trkpt>
<trkpt lat="45.9161990" lon="10.3316290">
	<ele>1045.40</ele>
	<time>2025-04-29T06:24:20.000Z</time>
</trkpt>
<trkpt lat="45.9162030" lon="10.3316590">
	<ele>1045.40</ele>
	<time>2025-04-29T06:24:21.000Z</time>
</trkpt>
<trkpt lat="45.9162070" lon="10.3316750">
	<ele>1045.40</ele>
	<time>2025-04-29T06:24:22.000Z</time>
</trkpt>
<trkpt lat="45.9162090" lon="10.3316980">
	<ele>1045.40</ele>
	<time>2025-04-29T06:24:23.000Z</time>
</trkpt>
<trkpt lat="45.9162100" lon="10.3317170">
	<ele>1045.60</ele>
	<time>2025-04-29T06:24:24.000Z</time>
</trkpt>
<trkpt lat="45.9162090" lon="10.3317260">
	<ele>1045.60</ele>
	<time>2025-04-29T06:24:25.000Z</time>
</trkpt>
<trkpt lat="45.9162080" lon="10.3317430">
	<ele>1045.60</ele>
	<time>2025-04-29T06:24:26.000Z</time>
</trkpt>
<trkpt lat="45.9162000" lon="10.3317580">
	<ele>1045.60</ele>
	<time>2025-04-29T06:24:27.000Z</time>
</trkpt>
<trkpt lat="45.9161960" lon="10.3317700">
	<ele>1045.60</ele>
	<time>2025-04-29T06:24:28.000Z</time>
</trkpt>
<trkpt lat="45.9161930" lon="10.3317800">
	<ele>1045.80</ele>
	<time>2025-04-29T06:24:29.000Z</time>
</trkpt>
<trkpt lat="45.9161890" lon="10.3317870">
	<ele>1046.00</ele>
	<time>2025-04-29T06:24:30.000Z</time>
</trkpt>
<trkpt lat="45.9161830" lon="10.3317950">
	<ele>1046.20</ele>
	<time>2025-04-29T06:24:31.000Z</time>
</trkpt>
<trkpt lat="45.9161750" lon="10.3318010">
	<ele>1046.20</ele>
	<time>2025-04-29T06:24:32.000Z</time>
</trkpt>
<trkpt lat="45.9161700" lon="10.3318100">
	<ele>1046.20</ele>
	<time>2025-04-29T06:24:33.000Z</time>
</trkpt>
<trkpt lat="45.9161660" lon="10.3318150">
	<ele>1046.40</ele>
	<time>2025-04-29T06:24:34.000Z</time>
</trkpt>
<trkpt lat="45.9161630" lon="10.3318200">
	<ele>1046.60</ele>
	<time>2025-04-29T06:24:35.000Z</time>
</trkpt>
<trkpt lat="45.9161650" lon="10.3318360">
	<ele>1046.80</ele>
	<time>2025-04-29T06:24:36.000Z</time>
</trkpt>
<trkpt lat="45.9161640" lon="10.3318450">
	<ele>1047.00</ele>
	<time>2025-04-29T06:24:37.000Z</time>
</trkpt>
<trkpt lat="45.9161610" lon="10.3318670">
	<ele>1047.20</ele>
	<time>2025-04-29T06:24:38.000Z</time>
</trkpt>
<trkpt lat="45.9161620" lon="10.3318680">
	<ele>1047.40</ele>
	<time>2025-04-29T06:24:39.000Z</time>
</trkpt>
<trkpt lat="45.9161600" lon="10.3318890">
	<ele>1047.60</ele>
	<time>2025-04-29T06:24:40.000Z</time>
</trkpt>
<trkpt lat="45.9161620" lon="10.3319070">
	<ele>1047.60</ele>
	<time>2025-04-29T06:24:41.000Z</time>
</trkpt>
<trkpt lat="45.9161620" lon="10.3319260">
	<ele>1047.80</ele>
	<time>2025-04-29T06:24:42.000Z</time>
</trkpt>
<trkpt lat="45.9161570" lon="10.3319420">
	<ele>1047.80</ele>
	<time>2025-04-29T06:24:43.000Z</time>
</trkpt>
<trkpt lat="45.9161510" lon="10.3319620">
	<ele>1047.80</ele>
	<time>2025-04-29T06:24:44.000Z</time>
</trkpt>
<trkpt lat="45.9161470" lon="10.3319800">
	<ele>1048.00</ele>
	<time>2025-04-29T06:24:45.000Z</time>
</trkpt>
<trkpt lat="45.9161480" lon="10.3319870">
	<ele>1048.20</ele>
	<time>2025-04-29T06:24:46.000Z</time>
</trkpt>
<trkpt lat="45.9161500" lon="10.3319900">
	<ele>1048.20</ele>
	<time>2025-04-29T06:24:47.000Z</time>
</trkpt>
<trkpt lat="45.9161430" lon="10.3320050">
	<ele>1048.40</ele>
	<time>2025-04-29T06:24:48.000Z</time>
</trkpt>
<trkpt lat="45.9161310" lon="10.3320240">
	<ele>1048.60</ele>
	<time>2025-04-29T06:24:49.000Z</time>
</trkpt>
<trkpt lat="45.9161320" lon="10.3320320">
	<ele>1048.60</ele>
	<time>2025-04-29T06:24:50.000Z</time>
</trkpt>
<trkpt lat="45.9161230" lon="10.3320440">
	<ele>1049.00</ele>
	<time>2025-04-29T06:24:51.000Z</time>
</trkpt>
<trkpt lat="45.9161260" lon="10.3320470">
	<ele>1049.20</ele>
	<time>2025-04-29T06:24:52.000Z</time>
</trkpt>
<trkpt lat="45.9161280" lon="10.3320570">
	<ele>1049.20</ele>
	<time>2025-04-29T06:24:53.000Z</time>
</trkpt>
<trkpt lat="45.9161500" lon="10.3320690">
	<ele>1049.20</ele>
	<time>2025-04-29T06:24:54.000Z</time>
</trkpt>
<trkpt lat="45.9161640" lon="10.3320860">
	<ele>1049.60</ele>
	<time>2025-04-29T06:24:55.000Z</time>
</trkpt>
<trkpt lat="45.9161550" lon="10.3321000">
	<ele>1049.80</ele>
	<time>2025-04-29T06:24:56.000Z</time>
</trkpt>
<trkpt lat="45.9161530" lon="10.3321140">
	<ele>1049.80</ele>
	<time>2025-04-29T06:24:57.000Z</time>
</trkpt>
<trkpt lat="45.9161520" lon="10.3321340">
	<ele>1050.00</ele>
	<time>2025-04-29T06:24:58.000Z</time>
</trkpt>
<trkpt lat="45.9161550" lon="10.3321510">
	<ele>1050.20</ele>
	<time>2025-04-29T06:24:59.000Z</time>
</trkpt>
<trkpt lat="45.9161570" lon="10.3321670">
	<ele>1050.40</ele>
	<time>2025-04-29T06:25:00.000Z</time>
</trkpt>
<trkpt lat="45.9161550" lon="10.3321740">
	<ele>1050.40</ele>
	<time>2025-04-29T06:25:01.000Z</time>
</trkpt>
<trkpt lat="45.9161510" lon="10.3321880">
	<ele>1050.60</ele>
	<time>2025-04-29T06:25:02.000Z</time>
</trkpt>
<trkpt lat="45.9161460" lon="10.3322030">
	<ele>1050.60</ele>
	<time>2025-04-29T06:25:03.000Z</time>
</trkpt>
<trkpt lat="45.9161390" lon="10.3322210">
	<ele>1050.80</ele>
	<time>2025-04-29T06:25:04.000Z</time>
</trkpt>
<trkpt lat="45.9161380" lon="10.3322380">
	<ele>1050.80</ele>
	<time>2025-04-29T06:25:05.000Z</time>
</trkpt>
<trkpt lat="45.9161320" lon="10.3322550">
	<ele>1050.80</ele>
	<time>2025-04-29T06:25:06.000Z</time>
</trkpt>
<trkpt lat="45.9161270" lon="10.3322640">
	<ele>1050.80</ele>
	<time>2025-04-29T06:25:07.000Z</time>
</trkpt>
<trkpt lat="45.9161250" lon="10.3322670">
	<ele>1051.00</ele>
	<time>2025-04-29T06:25:08.000Z</time>
</trkpt>
<trkpt lat="45.9161330" lon="10.3322750">
	<ele>1051.20</ele>
	<time>2025-04-29T06:25:09.000Z</time>
</trkpt>
<trkpt lat="45.9161380" lon="10.3322900">
	<ele>1051.20</ele>
	<time>2025-04-29T06:25:10.000Z</time>
</trkpt>
<trkpt lat="45.9161390" lon="10.3323010">
	<ele>1051.40</ele>
	<time>2025-04-29T06:25:11.000Z</time>
</trkpt>
<trkpt lat="45.9161360" lon="10.3323130">
	<ele>1051.60</ele>
	<time>2025-04-29T06:25:12.000Z</time>
</trkpt>
<trkpt lat="45.9161320" lon="10.3323270">
	<ele>1051.80</ele>
	<time>2025-04-29T06:25:13.000Z</time>
</trkpt>
<trkpt lat="45.9161260" lon="10.3323320">
	<ele>1052.00</ele>
	<time>2025-04-29T06:25:14.000Z</time>
</trkpt>
<trkpt lat="45.9161210" lon="10.3323340">
	<ele>1052.20</ele>
	<time>2025-04-29T06:25:15.000Z</time>
</trkpt>
<trkpt lat="45.9161180" lon="10.3323350">
	<ele>1052.20</ele>
	<time>2025-04-29T06:25:16.000Z</time>
</trkpt>
<trkpt lat="45.9161230" lon="10.3323500">
	<ele>1052.40</ele>
	<time>2025-04-29T06:25:17.000Z</time>
</trkpt>
<trkpt lat="45.9161270" lon="10.3323550">
	<ele>1052.60</ele>
	<time>2025-04-29T06:25:18.000Z</time>
</trkpt>
<trkpt lat="45.9161300" lon="10.3323560">
	<ele>1052.60</ele>
	<time>2025-04-29T06:25:19.000Z</time>
</trkpt>
<trkpt lat="45.9161320" lon="10.3323600">
	<ele>1052.80</ele>
	<time>2025-04-29T06:25:20.000Z</time>
</trkpt>
<trkpt lat="45.9161270" lon="10.3323700">
	<ele>1053.00</ele>
	<time>2025-04-29T06:25:21.000Z</time>
</trkpt>
<trkpt lat="45.9161250" lon="10.3323720">
	<ele>1053.40</ele>
	<time>2025-04-29T06:25:22.000Z</time>
</trkpt>
<trkpt lat="45.9161290" lon="10.3323820">
	<ele>1053.60</ele>
	<time>2025-04-29T06:25:23.000Z</time>
</trkpt>
<trkpt lat="45.9161280" lon="10.3323860">
	<ele>1053.80</ele>
	<time>2025-04-29T06:25:24.000Z</time>
</trkpt>
<trkpt lat="45.9161290" lon="10.3323850">
	<ele>1054.00</ele>
	<time>2025-04-29T06:25:25.000Z</time>
</trkpt>
<trkpt lat="45.9161310" lon="10.3323940">
	<ele>1054.20</ele>
	<time>2025-04-29T06:25:26.000Z</time>
</trkpt>
<trkpt lat="45.9161320" lon="10.3324020">
	<ele>1054.40</ele>
	<time>2025-04-29T06:25:27.000Z</time>
</trkpt>
<trkpt lat="45.9161340" lon="10.3324160">
	<ele>1054.60</ele>
	<time>2025-04-29T06:25:28.000Z</time>
</trkpt>
<trkpt lat="45.9161340" lon="10.3324240">
	<ele>1054.80</ele>
	<time>2025-04-29T06:25:29.000Z</time>
</trkpt>
<trkpt lat="45.9161290" lon="10.3324350">
	<ele>1055.00</ele>
	<time>2025-04-29T06:25:30.000Z</time>
</trkpt>
<trkpt lat="45.9161290" lon="10.3324560">
	<ele>1055.20</ele>
	<time>2025-04-29T06:25:31.000Z</time>
</trkpt>
<trkpt lat="45.9161280" lon="10.3324690">
	<ele>1055.20</ele>
	<time>2025-04-29T06:25:32.000Z</time>
</trkpt>
<trkpt lat="45.9161250" lon="10.3324760">
	<ele>1055.60</ele>
	<time>2025-04-29T06:25:33.000Z</time>
</trkpt>
<trkpt lat="45.9161220" lon="10.3324830">
	<ele>1056.00</ele>
	<time>2025-04-29T06:25:34.000Z</time>
</trkpt>
<trkpt lat="45.9161220" lon="10.3324860">
	<ele>1056.00</ele>
	<time>2025-04-29T06:25:35.000Z</time>
</trkpt>
<trkpt lat="45.9161190" lon="10.3324930">
	<ele>1056.40</ele>
	<time>2025-04-29T06:25:36.000Z</time>
</trkpt>
<trkpt lat="45.9161110" lon="10.3325020">
	<ele>1056.60</ele>
	<time>2025-04-29T06:25:37.000Z</time>
</trkpt>
<trkpt lat="45.9161040" lon="10.3325090">
	<ele>1056.80</ele>
	<time>2025-04-29T06:25:38.000Z</time>
</trkpt>
<trkpt lat="45.9160980" lon="10.3325170">
	<ele>1057.00</ele>
	<time>2025-04-29T06:25:39.000Z</time>
</trkpt>
<trkpt lat="45.9161010" lon="10.3325260">
	<ele>1057.20</ele>
	<time>2025-04-29T06:25:40.000Z</time>
</trkpt>
<trkpt lat="45.9161000" lon="10.3325440">
	<ele>1057.40</ele>
	<time>2025-04-29T06:25:41.000Z</time>
</trkpt>
<trkpt lat="45.9161000" lon="10.3325590">
	<ele>1057.60</ele>
	<time>2025-04-29T06:25:42.000Z</time>
</trkpt>
<trkpt lat="45.9161020" lon="10.3325670">
	<ele>1057.80</ele>
	<time>2025-04-29T06:25:43.000Z</time>
</trkpt>
<trkpt lat="45.9161030" lon="10.3325710">
	<ele>1058.00</ele>
	<time>2025-04-29T06:25:44.000Z</time>
</trkpt>
<trkpt lat="45.9161060" lon="10.3325730">
	<ele>1058.20</ele>
	<time>2025-04-29T06:25:45.000Z</time>
</trkpt>
<trkpt lat="45.9161020" lon="10.3325740">
	<ele>1058.40</ele>
	<time>2025-04-29T06:25:46.000Z</time>
</trkpt>
<trkpt lat="45.9161030" lon="10.3325740">
	<ele>1058.60</ele>
	<time>2025-04-29T06:25:47.000Z</time>
</trkpt>
<trkpt lat="45.9161080" lon="10.3325800">
	<ele>1058.80</ele>
	<time>2025-04-29T06:25:48.000Z</time>
</trkpt>
<trkpt lat="45.9160980" lon="10.3325850">
	<ele>1059.00</ele>
	<time>2025-04-29T06:25:49.000Z</time>
</trkpt>
<trkpt lat="45.9160970" lon="10.3325860">
	<ele>1059.20</ele>
	<time>2025-04-29T06:25:50.000Z</time>
</trkpt>
<trkpt lat="45.9160970" lon="10.3325910">
	<ele>1059.60</ele>
	<time>2025-04-29T06:25:51.000Z</time>
</trkpt>
<trkpt lat="45.9160910" lon="10.3325990">
	<ele>1059.60</ele>
	<time>2025-04-29T06:25:52.000Z</time>
</trkpt>
<trkpt lat="45.9160850" lon="10.3326110">
	<ele>1059.80</ele>
	<time>2025-04-29T06:25:53.000Z</time>
</trkpt>
<trkpt lat="45.9160780" lon="10.3326360">
	<ele>1060.00</ele>
	<time>2025-04-29T06:25:54.000Z</time>
</trkpt>
<trkpt lat="45.9160770" lon="10.3326590">
	<ele>1060.20</ele>
	<time>2025-04-29T06:25:55.000Z</time>
</trkpt>
<trkpt lat="45.9160850" lon="10.3326930">
	<ele>1060.40</ele>
	<time>2025-04-29T06:25:56.000Z</time>
</trkpt>
<trkpt lat="45.9160930" lon="10.3327190">
	<ele>1060.60</ele>
	<time>2025-04-29T06:25:57.000Z</time>
</trkpt>
<trkpt lat="45.9161020" lon="10.3327410">
	<ele>1060.80</ele>
	<time>2025-04-29T06:25:58.000Z</time>
</trkpt>
<trkpt lat="45.9161150" lon="10.3327530">
	<ele>1061.00</ele>
	<time>2025-04-29T06:25:59.000Z</time>
</trkpt>
<trkpt lat="45.9161140" lon="10.3327670">
	<ele>1061.20</ele>
	<time>2025-04-29T06:26:00.000Z</time>
</trkpt>
<trkpt lat="45.9161050" lon="10.3327770">
	<ele>1061.40</ele>
	<time>2025-04-29T06:26:01.000Z</time>
</trkpt>
<trkpt lat="45.9160940" lon="10.3327890">
	<ele>1061.40</ele>
	<time>2025-04-29T06:26:02.000Z</time>
</trkpt>
<trkpt lat="45.9160940" lon="10.3327970">
	<ele>1061.60</ele>
	<time>2025-04-29T06:26:03.000Z</time>
</trkpt>
<trkpt lat="45.9160870" lon="10.3328020">
	<ele>1061.80</ele>
	<time>2025-04-29T06:26:04.000Z</time>
</trkpt>
<trkpt lat="45.9160840" lon="10.3328080">
	<ele>1062.20</ele>
	<time>2025-04-29T06:26:05.000Z</time>
</trkpt>
<trkpt lat="45.9160760" lon="10.3328040">
	<ele>1062.40</ele>
	<time>2025-04-29T06:26:06.000Z</time>
</trkpt>
<trkpt lat="45.9160720" lon="10.3327980">
	<ele>1062.40</ele>
	<time>2025-04-29T06:26:07.000Z</time>
</trkpt>
<trkpt lat="45.9160680" lon="10.3327970">
	<ele>1062.60</ele>
	<time>2025-04-29T06:26:08.000Z</time>
</trkpt>
<trkpt lat="45.9160650" lon="10.3328000">
	<ele>1062.80</ele>
	<time>2025-04-29T06:26:09.000Z</time>
</trkpt>
<trkpt lat="45.9160610" lon="10.3328020">
	<ele>1063.00</ele>
	<time>2025-04-29T06:26:10.000Z</time>
</trkpt>
<trkpt lat="45.9160620" lon="10.3328030">
	<ele>1063.00</ele>
	<time>2025-04-29T06:26:11.000Z</time>
</trkpt>
<trkpt lat="45.9160580" lon="10.3328050">
	<ele>1063.40</ele>
	<time>2025-04-29T06:26:12.000Z</time>
</trkpt>
<trkpt lat="45.9160520" lon="10.3328170">
	<ele>1063.60</ele>
	<time>2025-04-29T06:26:13.000Z</time>
</trkpt>
<trkpt lat="45.9160490" lon="10.3328250">
	<ele>1063.80</ele>
	<time>2025-04-29T06:26:14.000Z</time>
</trkpt>
<trkpt lat="45.9160430" lon="10.3328250">
	<ele>1064.00</ele>
	<time>2025-04-29T06:26:15.000Z</time>
</trkpt>
<trkpt lat="45.9160390" lon="10.3328290">
	<ele>1064.20</ele>
	<time>2025-04-29T06:26:16.000Z</time>
</trkpt>
<trkpt lat="45.9160350" lon="10.3328310">
	<ele>1064.60</ele>
	<time>2025-04-29T06:26:17.000Z</time>
</trkpt>
<trkpt lat="45.9160340" lon="10.3328360">
	<ele>1064.80</ele>
	<time>2025-04-29T06:26:18.000Z</time>
</trkpt>
<trkpt lat="45.9160270" lon="10.3328400">
	<ele>1065.00</ele>
	<time>2025-04-29T06:26:19.000Z</time>
</trkpt>
<trkpt lat="45.9160220" lon="10.3328450">
	<ele>1065.20</ele>
	<time>2025-04-29T06:26:20.000Z</time>
</trkpt>
<trkpt lat="45.9160140" lon="10.3328500">
	<ele>1065.40</ele>
	<time>2025-04-29T06:26:21.000Z</time>
</trkpt>
<trkpt lat="45.9160060" lon="10.3328630">
	<ele>1065.80</ele>
	<time>2025-04-29T06:26:22.000Z</time>
</trkpt>
<trkpt lat="45.9160010" lon="10.3328620">
	<ele>1066.00</ele>
	<time>2025-04-29T06:26:23.000Z</time>
</trkpt>
<trkpt lat="45.9159990" lon="10.3328560">
	<ele>1066.20</ele>
	<time>2025-04-29T06:26:24.000Z</time>
</trkpt>
<trkpt lat="45.9159980" lon="10.3328560">
	<ele>1066.40</ele>
	<time>2025-04-29T06:26:25.000Z</time>
</trkpt>
<trkpt lat="45.9159970" lon="10.3328540">
	<ele>1066.40</ele>
	<time>2025-04-29T06:26:26.000Z</time>
</trkpt>
<trkpt lat="45.9159920" lon="10.3328560">
	<ele>1066.60</ele>
	<time>2025-04-29T06:26:27.000Z</time>
</trkpt>
<trkpt lat="45.9159870" lon="10.3328560">
	<ele>1066.60</ele>
	<time>2025-04-29T06:26:28.000Z</time>
</trkpt>
<trkpt lat="45.9159860" lon="10.3328560">
	<ele>1066.80</ele>
	<time>2025-04-29T06:26:29.000Z</time>
</trkpt>
<trkpt lat="45.9159720" lon="10.3328470">
	<ele>1066.80</ele>
	<time>2025-04-29T06:26:30.000Z</time>
</trkpt>
<trkpt lat="45.9159510" lon="10.3328360">
	<ele>1066.80</ele>
	<time>2025-04-29T06:26:31.000Z</time>
</trkpt>
<trkpt lat="45.9159380" lon="10.3328320">
	<ele>1067.00</ele>
	<time>2025-04-29T06:26:32.000Z</time>
</trkpt>
<trkpt lat="45.9159290" lon="10.3328340">
	<ele>1067.20</ele>
	<time>2025-04-29T06:26:33.000Z</time>
</trkpt>
<trkpt lat="45.9159240" lon="10.3328360">
	<ele>1067.40</ele>
	<time>2025-04-29T06:26:34.000Z</time>
</trkpt>
<trkpt lat="45.9159220" lon="10.3328370">
	<ele>1067.60</ele>
	<time>2025-04-29T06:26:35.000Z</time>
</trkpt>
<trkpt lat="45.9159060" lon="10.3328350">
	<ele>1067.60</ele>
	<time>2025-04-29T06:26:36.000Z</time>
</trkpt>
<trkpt lat="45.9158970" lon="10.3328420">
	<ele>1067.80</ele>
	<time>2025-04-29T06:26:37.000Z</time>
</trkpt>
<trkpt lat="45.9158740" lon="10.3328540">
	<ele>1068.00</ele>
	<time>2025-04-29T06:26:38.000Z</time>
</trkpt>
<trkpt lat="45.9158610" lon="10.3328710">
	<ele>1068.20</ele>
	<time>2025-04-29T06:26:39.000Z</time>
</trkpt>
<trkpt lat="45.9158420" lon="10.3328810">
	<ele>1068.40</ele>
	<time>2025-04-29T06:26:40.000Z</time>
</trkpt>
<trkpt lat="45.9158320" lon="10.3328870">
	<ele>1068.60</ele>
	<time>2025-04-29T06:26:41.000Z</time>
</trkpt>
<trkpt lat="45.9158150" lon="10.3328930">
	<ele>1068.80</ele>
	<time>2025-04-29T06:26:42.000Z</time>
</trkpt>
<trkpt lat="45.9158010" lon="10.3328990">
	<ele>1068.80</ele>
	<time>2025-04-29T06:26:43.000Z</time>
</trkpt>
<trkpt lat="45.9158500" lon="10.3329130">
	<ele>1069.20</ele>
	<time>2025-04-29T06:26:44.000Z</time>
</trkpt>
<trkpt lat="45.9158820" lon="10.3329230">
	<ele>1069.40</ele>
	<time>2025-04-29T06:26:45.000Z</time>
</trkpt>
<trkpt lat="45.9158700" lon="10.3329180">
	<ele>1069.60</ele>
	<time>2025-04-29T06:26:46.000Z</time>
</trkpt>
<trkpt lat="45.9158120" lon="10.3329100">
	<ele>1069.80</ele>
	<time>2025-04-29T06:26:47.000Z</time>
</trkpt>
<trkpt lat="45.9158050" lon="10.3329040">
	<ele>1070.00</ele>
	<time>2025-04-29T06:26:48.000Z</time>
</trkpt>
<trkpt lat="45.9158060" lon="10.3329020">
	<ele>1070.00</ele>
	<time>2025-04-29T06:26:49.000Z</time>
</trkpt>
<trkpt lat="45.9157940" lon="10.3328950">
	<ele>1070.00</ele>
	<time>2025-04-29T06:26:50.000Z</time>
</trkpt>
<trkpt lat="45.9157770" lon="10.3328910">
	<ele>1070.20</ele>
	<time>2025-04-29T06:26:51.000Z</time>
</trkpt>
<trkpt lat="45.9157650" lon="10.3328900">
	<ele>1070.40</ele>
	<time>2025-04-29T06:26:52.000Z</time>
</trkpt>
<trkpt lat="45.9157570" lon="10.3328940">
	<ele>1070.60</ele>
	<time>2025-04-29T06:26:53.000Z</time>
</trkpt>
<trkpt lat="45.9157410" lon="10.3328990">
	<ele>1070.80</ele>
	<time>2025-04-29T06:26:54.000Z</time>
</trkpt>
<trkpt lat="45.9157420" lon="10.3329090">
	<ele>1071.00</ele>
	<time>2025-04-29T06:26:55.000Z</time>
</trkpt>
<trkpt lat="45.9157410" lon="10.3329170">
	<ele>1071.40</ele>
	<time>2025-04-29T06:26:56.000Z</time>
</trkpt>
<trkpt lat="45.9157260" lon="10.3329180">
	<ele>1071.40</ele>
	<time>2025-04-29T06:26:57.000Z</time>
</trkpt>
<trkpt lat="45.9157050" lon="10.3329070">
	<ele>1071.60</ele>
	<time>2025-04-29T06:26:58.000Z</time>
</trkpt>
<trkpt lat="45.9157090" lon="10.3329110">
	<ele>1071.80</ele>
	<time>2025-04-29T06:26:59.000Z</time>
</trkpt>
<trkpt lat="45.9157090" lon="10.3329130">
	<ele>1072.00</ele>
	<time>2025-04-29T06:27:00.000Z</time>
</trkpt>
<trkpt lat="45.9157040" lon="10.3329010">
	<ele>1072.20</ele>
	<time>2025-04-29T06:27:01.000Z</time>
</trkpt>
<trkpt lat="45.9157030" lon="10.3328990">
	<ele>1072.40</ele>
	<time>2025-04-29T06:27:02.000Z</time>
</trkpt>
<trkpt lat="45.9156920" lon="10.3329060">
	<ele>1072.60</ele>
	<time>2025-04-29T06:27:03.000Z</time>
</trkpt>
<trkpt lat="45.9156890" lon="10.3329140">
	<ele>1072.60</ele>
	<time>2025-04-29T06:27:04.000Z</time>
</trkpt>
<trkpt lat="45.9156750" lon="10.3329020">
	<ele>1072.80</ele>
	<time>2025-04-29T06:27:05.000Z</time>
</trkpt>
<trkpt lat="45.9156570" lon="10.3328820">
	<ele>1072.80</ele>
	<time>2025-04-29T06:27:06.000Z</time>
</trkpt>
<trkpt lat="45.9156560" lon="10.3328810">
	<ele>1073.00</ele>
	<time>2025-04-29T06:27:07.000Z</time>
</trkpt>
<trkpt lat="45.9156530" lon="10.3328810">
	<ele>1073.00</ele>
	<time>2025-04-29T06:27:08.000Z</time>
</trkpt>
<trkpt lat="45.9156420" lon="10.3328860">
	<ele>1073.20</ele>
	<time>2025-04-29T06:27:09.000Z</time>
</trkpt>
<trkpt lat="45.9156210" lon="10.3328950">
	<ele>1073.20</ele>
	<time>2025-04-29T06:27:10.000Z</time>
</trkpt>
<trkpt lat="45.9156030" lon="10.3329100">
	<ele>1073.20</ele>
	<time>2025-04-29T06:27:11.000Z</time>
</trkpt>
<trkpt lat="45.9155790" lon="10.3329270">
	<ele>1073.40</ele>
	<time>2025-04-29T06:27:12.000Z</time>
</trkpt>
<trkpt lat="45.9155570" lon="10.3329360">
	<ele>1073.60</ele>
	<time>2025-04-29T06:27:13.000Z</time>
</trkpt>
<trkpt lat="45.9155310" lon="10.3328960">
	<ele>1073.80</ele>
	<time>2025-04-29T06:27:14.000Z</time>
</trkpt>
<trkpt lat="45.9155120" lon="10.3328370">
	<ele>1073.80</ele>
	<time>2025-04-29T06:27:15.000Z</time>
</trkpt>
<trkpt lat="45.9155110" lon="10.3327840">
	<ele>1073.80</ele>
	<time>2025-04-29T06:27:16.000Z</time>
</trkpt>
<trkpt lat="45.9155140" lon="10.3327620">
	<ele>1073.80</ele>
	<time>2025-04-29T06:27:17.000Z</time>
</trkpt>
<trkpt lat="45.9155300" lon="10.3327610">
	<ele>1074.00</ele>
	<time>2025-04-29T06:27:18.000Z</time>
</trkpt>
<trkpt lat="45.9155340" lon="10.3327680">
	<ele>1074.00</ele>
	<time>2025-04-29T06:27:19.000Z</time>
</trkpt>
<trkpt lat="45.9155470" lon="10.3327760">
	<ele>1073.80</ele>
	<time>2025-04-29T06:27:20.000Z</time>
</trkpt>
<trkpt lat="45.9155560" lon="10.3327890">
	<ele>1073.80</ele>
	<time>2025-04-29T06:27:21.000Z</time>
</trkpt>
<trkpt lat="45.9155730" lon="10.3328160">
	<ele>1073.80</ele>
	<time>2025-04-29T06:27:22.000Z</time>
</trkpt>
<trkpt lat="45.9155830" lon="10.3328390">
	<ele>1073.80</ele>
	<time>2025-04-29T06:27:23.000Z</time>
</trkpt>
<trkpt lat="45.9156090" lon="10.3328770">
	<ele>1074.00</ele>
	<time>2025-04-29T06:27:24.000Z</time>
</trkpt>
<trkpt lat="45.9156110" lon="10.3328880">
	<ele>1074.00</ele>
	<time>2025-04-29T06:27:25.000Z</time>
</trkpt>
<trkpt lat="45.9156080" lon="10.3328810">
	<ele>1074.00</ele>
	<time>2025-04-29T06:27:26.000Z</time>
</trkpt>
<trkpt lat="45.9155930" lon="10.3328700">
	<ele>1074.00</ele>
	<time>2025-04-29T06:27:27.000Z</time>
</trkpt>
<trkpt lat="45.9156020" lon="10.3328790">
	<ele>1074.00</ele>
	<time>2025-04-29T06:27:28.000Z</time>
</trkpt>
<trkpt lat="45.9155970" lon="10.3328920">
	<ele>1074.20</ele>
	<time>2025-04-29T06:27:29.000Z</time>
</trkpt>
<trkpt lat="45.9155780" lon="10.3329010">
	<ele>1074.20</ele>
	<time>2025-04-29T06:27:30.000Z</time>
</trkpt>
<trkpt lat="45.9155840" lon="10.3329180">
	<ele>1074.40</ele>
	<time>2025-04-29T06:27:31.000Z</time>
</trkpt>
<trkpt lat="45.9155860" lon="10.3329320">
	<ele>1074.40</ele>
	<time>2025-04-29T06:27:32.000Z</time>
</trkpt>
<trkpt lat="45.9155880" lon="10.3329480">
	<ele>1074.40</ele>
	<time>2025-04-29T06:27:33.000Z</time>
</trkpt>
<trkpt lat="45.9155960" lon="10.3329720">
	<ele>1074.40</ele>
	<time>2025-04-29T06:27:34.000Z</time>
</trkpt>
<trkpt lat="45.9156150" lon="10.3329980">
	<ele>1074.40</ele>
	<time>2025-04-29T06:27:35.000Z</time>
</trkpt>
<trkpt lat="45.9156220" lon="10.3330000">
	<ele>1074.60</ele>
	<time>2025-04-29T06:27:36.000Z</time>
</trkpt>
<trkpt lat="45.9156510" lon="10.3330290">
	<ele>1074.60</ele>
	<time>2025-04-29T06:27:37.000Z</time>
</trkpt>
<trkpt lat="45.9156820" lon="10.3330600">
	<ele>1074.60</ele>
	<time>2025-04-29T06:27:38.000Z</time>
</trkpt>
<trkpt lat="45.9157150" lon="10.3330990">
	<ele>1074.80</ele>
	<time>2025-04-29T06:27:39.000Z</time>
</trkpt>
<trkpt lat="45.9157480" lon="10.3331390">
	<ele>1074.80</ele>
	<time>2025-04-29T06:27:40.000Z</time>
</trkpt>
<trkpt lat="45.9157690" lon="10.3331640">
	<ele>1075.00</ele>
	<time>2025-04-29T06:27:41.000Z</time>
</trkpt>
<trkpt lat="45.9157840" lon="10.3331890">
	<ele>1075.00</ele>
	<time>2025-04-29T06:27:42.000Z</time>
</trkpt>
<trkpt lat="45.9157830" lon="10.3332040">
	<ele>1075.40</ele>
	<time>2025-04-29T06:27:43.000Z</time>
</trkpt>
<trkpt lat="45.9157890" lon="10.3332130">
	<ele>1075.60</ele>
	<time>2025-04-29T06:27:44.000Z</time>
</trkpt>
<trkpt lat="45.9157950" lon="10.3332250">
	<ele>1075.60</ele>
	<time>2025-04-29T06:27:45.000Z</time>
</trkpt>
<trkpt lat="45.9157990" lon="10.3332270">
	<ele>1075.80</ele>
	<time>2025-04-29T06:27:46.000Z</time>
</trkpt>
<trkpt lat="45.9158040" lon="10.3332350">
	<ele>1075.80</ele>
	<time>2025-04-29T06:27:47.000Z</time>
</trkpt>
<trkpt lat="45.9158100" lon="10.3332400">
	<ele>1076.20</ele>
	<time>2025-04-29T06:27:48.000Z</time>
</trkpt>
<trkpt lat="45.9158090" lon="10.3332550">
	<ele>1076.40</ele>
	<time>2025-04-29T06:27:49.000Z</time>
</trkpt>
<trkpt lat="45.9158090" lon="10.3332740">
	<ele>1076.40</ele>
	<time>2025-04-29T06:27:50.000Z</time>
</trkpt>
<trkpt lat="45.9158160" lon="10.3332890">
	<ele>1076.60</ele>
	<time>2025-04-29T06:27:51.000Z</time>
</trkpt>
<trkpt lat="45.9158190" lon="10.3332950">
	<ele>1076.60</ele>
	<time>2025-04-29T06:27:52.000Z</time>
</trkpt>
<trkpt lat="45.9158300" lon="10.3333030">
	<ele>1076.80</ele>
	<time>2025-04-29T06:27:53.000Z</time>
</trkpt>
<trkpt lat="45.9158380" lon="10.3333120">
	<ele>1077.00</ele>
	<time>2025-04-29T06:27:54.000Z</time>
</trkpt>
<trkpt lat="45.9158400" lon="10.3333250">
	<ele>1077.20</ele>
	<time>2025-04-29T06:27:55.000Z</time>
</trkpt>
<trkpt lat="45.9158380" lon="10.3333390">
	<ele>1077.40</ele>
	<time>2025-04-29T06:27:56.000Z</time>
</trkpt>
<trkpt lat="45.9158360" lon="10.3333540">
	<ele>1077.60</ele>
	<time>2025-04-29T06:27:57.000Z</time>
</trkpt>
<trkpt lat="45.9158310" lon="10.3333680">
	<ele>1077.60</ele>
	<time>2025-04-29T06:27:58.000Z</time>
</trkpt>
<trkpt lat="45.9158240" lon="10.3333870">
	<ele>1077.80</ele>
	<time>2025-04-29T06:27:59.000Z</time>
</trkpt>
<trkpt lat="45.9158200" lon="10.3334020">
	<ele>1077.80</ele>
	<time>2025-04-29T06:28:00.000Z</time>
</trkpt>
<trkpt lat="45.9158240" lon="10.3334220">
	<ele>1077.80</ele>
	<time>2025-04-29T06:28:01.000Z</time>
</trkpt>
<trkpt lat="45.9158180" lon="10.3334340">
	<ele>1078.00</ele>
	<time>2025-04-29T06:28:02.000Z</time>
</trkpt>
<trkpt lat="45.9158210" lon="10.3334380">
	<ele>1078.00</ele>
	<time>2025-04-29T06:28:03.000Z</time>
</trkpt>
<trkpt lat="45.9158260" lon="10.3334500">
	<ele>1078.20</ele>
	<time>2025-04-29T06:28:04.000Z</time>
</trkpt>
<trkpt lat="45.9158360" lon="10.3334660">
	<ele>1078.40</ele>
	<time>2025-04-29T06:28:05.000Z</time>
</trkpt>
<trkpt lat="45.9158340" lon="10.3334750">
	<ele>1078.40</ele>
	<time>2025-04-29T06:28:06.000Z</time>
</trkpt>
<trkpt lat="45.9158420" lon="10.3334790">
	<ele>1078.60</ele>
	<time>2025-04-29T06:28:07.000Z</time>
</trkpt>
<trkpt lat="45.9158530" lon="10.3334840">
	<ele>1078.80</ele>
	<time>2025-04-29T06:28:08.000Z</time>
</trkpt>
<trkpt lat="45.9158630" lon="10.3335040">
	<ele>1079.00</ele>
	<time>2025-04-29T06:28:09.000Z</time>
</trkpt>
<trkpt lat="45.9158740" lon="10.3335270">
	<ele>1079.20</ele>
	<time>2025-04-29T06:28:10.000Z</time>
</trkpt>
<trkpt lat="45.9158870" lon="10.3335500">
	<ele>1079.20</ele>
	<time>2025-04-29T06:28:11.000Z</time>
</trkpt>
<trkpt lat="45.9158940" lon="10.3335690">
	<ele>1079.20</ele>
	<time>2025-04-29T06:28:12.000Z</time>
</trkpt>
<trkpt lat="45.9159110" lon="10.3335820">
	<ele>1079.40</ele>
	<time>2025-04-29T06:28:13.000Z</time>
</trkpt>
<trkpt lat="45.9159140" lon="10.3335860">
	<ele>1079.40</ele>
	<time>2025-04-29T06:28:14.000Z</time>
</trkpt>
<trkpt lat="45.9159090" lon="10.3335940">
	<ele>1079.60</ele>
	<time>2025-04-29T06:28:15.000Z</time>
</trkpt>
<trkpt lat="45.9159110" lon="10.3336180">
	<ele>1079.60</ele>
	<time>2025-04-29T06:28:16.000Z</time>
</trkpt>
<trkpt lat="45.9159130" lon="10.3336250">
	<ele>1079.80</ele>
	<time>2025-04-29T06:28:17.000Z</time>
</trkpt>
<trkpt lat="45.9159120" lon="10.3336370">
	<ele>1079.80</ele>
	<time>2025-04-29T06:28:18.000Z</time>
</trkpt>
<trkpt lat="45.9159080" lon="10.3336400">
	<ele>1080.00</ele>
	<time>2025-04-29T06:28:19.000Z</time>
</trkpt>
<trkpt lat="45.9159130" lon="10.3336580">
	<ele>1079.80</ele>
	<time>2025-04-29T06:28:20.000Z</time>
</trkpt>
<trkpt lat="45.9159100" lon="10.3336750">
	<ele>1079.80</ele>
	<time>2025-04-29T06:28:21.000Z</time>
</trkpt>
<trkpt lat="45.9159050" lon="10.3336950">
	<ele>1079.80</ele>
	<time>2025-04-29T06:28:22.000Z</time>
</trkpt>
<trkpt lat="45.9159060" lon="10.3337090">
	<ele>1079.80</ele>
	<time>2025-04-29T06:28:23.000Z</time>
</trkpt>
<trkpt lat="45.9159080" lon="10.3337160">
	<ele>1079.80</ele>
	<time>2025-04-29T06:28:24.000Z</time>
</trkpt>
<trkpt lat="45.9159150" lon="10.3337250">
	<ele>1079.80</ele>
	<time>2025-04-29T06:28:25.000Z</time>
</trkpt>
<trkpt lat="45.9159230" lon="10.3337350">
	<ele>1079.80</ele>
	<time>2025-04-29T06:28:26.000Z</time>
</trkpt>
<trkpt lat="45.9159260" lon="10.3337380">
	<ele>1079.80</ele>
	<time>2025-04-29T06:28:27.000Z</time>
</trkpt>
<trkpt lat="45.9159250" lon="10.3337490">
	<ele>1079.80</ele>
	<time>2025-04-29T06:28:28.000Z</time>
</trkpt>
<trkpt lat="45.9159190" lon="10.3337560">
	<ele>1079.80</ele>
	<time>2025-04-29T06:28:29.000Z</time>
</trkpt>
<trkpt lat="45.9159190" lon="10.3337510">
	<ele>1079.60</ele>
	<time>2025-04-29T06:28:30.000Z</time>
</trkpt>
<trkpt lat="45.9159030" lon="10.3337520">
	<ele>1079.60</ele>
	<time>2025-04-29T06:28:31.000Z</time>
</trkpt>
<trkpt lat="45.9158750" lon="10.3337470">
	<ele>1079.40</ele>
	<time>2025-04-29T06:28:32.000Z</time>
</trkpt>
<trkpt lat="45.9158510" lon="10.3337490">
	<ele>1079.40</ele>
	<time>2025-04-29T06:28:33.000Z</time>
</trkpt>
<trkpt lat="45.9158430" lon="10.3337780">
	<ele>1079.40</ele>
	<time>2025-04-29T06:28:34.000Z</time>
</trkpt>
<trkpt lat="45.9158460" lon="10.3337950">
	<ele>1079.40</ele>
	<time>2025-04-29T06:28:35.000Z</time>
</trkpt>
<trkpt lat="45.9158630" lon="10.3338090">
	<ele>1079.40</ele>
	<time>2025-04-29T06:28:36.000Z</time>
</trkpt>
<trkpt lat="45.9158830" lon="10.3338260">
	<ele>1079.40</ele>
	<time>2025-04-29T06:28:37.000Z</time>
</trkpt>
<trkpt lat="45.9158960" lon="10.3338370">
	<ele>1079.40</ele>
	<time>2025-04-29T06:28:38.000Z</time>
</trkpt>
<trkpt lat="45.9159040" lon="10.3338220">
	<ele>1079.40</ele>
	<time>2025-04-29T06:28:39.000Z</time>
</trkpt>
<trkpt lat="45.9158980" lon="10.3338240">
	<ele>1079.40</ele>
	<time>2025-04-29T06:28:40.000Z</time>
</trkpt>
<trkpt lat="45.9159000" lon="10.3338320">
	<ele>1079.40</ele>
	<time>2025-04-29T06:28:41.000Z</time>
</trkpt>
<trkpt lat="45.9158980" lon="10.3338440">
	<ele>1079.40</ele>
	<time>2025-04-29T06:28:42.000Z</time>
</trkpt>
<trkpt lat="45.9159010" lon="10.3338490">
	<ele>1079.40</ele>
	<time>2025-04-29T06:28:43.000Z</time>
</trkpt>
<trkpt lat="45.9159070" lon="10.3338480">
	<ele>1079.40</ele>
	<time>2025-04-29T06:28:44.000Z</time>
</trkpt>
<trkpt lat="45.9159120" lon="10.3338540">
	<ele>1079.40</ele>
	<time>2025-04-29T06:28:45.000Z</time>
</trkpt>
<trkpt lat="45.9159100" lon="10.3338580">
	<ele>1079.40</ele>
	<time>2025-04-29T06:28:46.000Z</time>
</trkpt>
<trkpt lat="45.9159100" lon="10.3338680">
	<ele>1079.40</ele>
	<time>2025-04-29T06:28:47.000Z</time>
</trkpt>
<trkpt lat="45.9159090" lon="10.3338750">
	<ele>1079.60</ele>
	<time>2025-04-29T06:28:48.000Z</time>
</trkpt>
<trkpt lat="45.9159060" lon="10.3338840">
	<ele>1079.60</ele>
	<time>2025-04-29T06:28:49.000Z</time>
</trkpt>
<trkpt lat="45.9158950" lon="10.3338860">
	<ele>1079.60</ele>
	<time>2025-04-29T06:28:50.000Z</time>
</trkpt>
<trkpt lat="45.9158910" lon="10.3338940">
	<ele>1079.60</ele>
	<time>2025-04-29T06:28:51.000Z</time>
</trkpt>
<trkpt lat="45.9158970" lon="10.3339010">
	<ele>1079.60</ele>
	<time>2025-04-29T06:28:52.000Z</time>
</trkpt>
<trkpt lat="45.9158890" lon="10.3339150">
	<ele>1079.60</ele>
	<time>2025-04-29T06:28:53.000Z</time>
</trkpt>
<trkpt lat="45.9158890" lon="10.3339150">
	<ele>1079.60</ele>
	<time>2025-04-29T06:28:54.000Z</time>
</trkpt>
<trkpt lat="45.9158840" lon="10.3339260">
	<ele>1079.60</ele>
	<time>2025-04-29T06:28:55.000Z</time>
</trkpt>
<trkpt lat="45.9158820" lon="10.3339270">
	<ele>1079.40</ele>
	<time>2025-04-29T06:28:56.000Z</time>
</trkpt>
<trkpt lat="45.9158780" lon="10.3339340">
	<ele>1079.40</ele>
	<time>2025-04-29T06:28:57.000Z</time>
</trkpt>
<trkpt lat="45.9158830" lon="10.3339390">
	<ele>1079.40</ele>
	<time>2025-04-29T06:28:58.000Z</time>
</trkpt>
<trkpt lat="45.9158900" lon="10.3339430">
	<ele>1079.40</ele>
	<time>2025-04-29T06:28:59.000Z</time>
</trkpt>
<trkpt lat="45.9158980" lon="10.3339490">
	<ele>1079.40</ele>
	<time>2025-04-29T06:29:00.000Z</time>
</trkpt>
<trkpt lat="45.9159030" lon="10.3339520">
	<ele>1079.60</ele>
	<time>2025-04-29T06:29:01.000Z</time>
</trkpt>
<trkpt lat="45.9159260" lon="10.3339320">
	<ele>1079.60</ele>
	<time>2025-04-29T06:29:02.000Z</time>
</trkpt>
<trkpt lat="45.9159440" lon="10.3339210">
	<ele>1079.60</ele>
	<time>2025-04-29T06:29:03.000Z</time>
</trkpt>
<trkpt lat="45.9159460" lon="10.3339710">
	<ele>1079.60</ele>
	<time>2025-04-29T06:29:04.000Z</time>
</trkpt>
<trkpt lat="45.9159370" lon="10.3339850">
	<ele>1079.60</ele>
	<time>2025-04-29T06:29:05.000Z</time>
</trkpt>
<trkpt lat="45.9159450" lon="10.3339770">
	<ele>1079.60</ele>
	<time>2025-04-29T06:29:06.000Z</time>
</trkpt>
<trkpt lat="45.9159490" lon="10.3339710">
	<ele>1079.60</ele>
	<time>2025-04-29T06:29:07.000Z</time>
</trkpt>
<trkpt lat="45.9159540" lon="10.3339700">
	<ele>1079.60</ele>
	<time>2025-04-29T06:29:08.000Z</time>
</trkpt>
<trkpt lat="45.9159730" lon="10.3339760">
	<ele>1079.60</ele>
	<time>2025-04-29T06:29:09.000Z</time>
</trkpt>
<trkpt lat="45.9159700" lon="10.3339850">
	<ele>1079.60</ele>
	<time>2025-04-29T06:29:10.000Z</time>
</trkpt>
<trkpt lat="45.9159660" lon="10.3339890">
	<ele>1079.60</ele>
	<time>2025-04-29T06:29:11.000Z</time>
</trkpt>
<trkpt lat="45.9159710" lon="10.3339970">
	<ele>1079.60</ele>
	<time>2025-04-29T06:29:12.000Z</time>
</trkpt>
<trkpt lat="45.9159660" lon="10.3340090">
	<ele>1079.60</ele>
	<time>2025-04-29T06:29:13.000Z</time>
</trkpt>
<trkpt lat="45.9159660" lon="10.3340190">
	<ele>1079.40</ele>
	<time>2025-04-29T06:29:14.000Z</time>
</trkpt>
<trkpt lat="45.9159630" lon="10.3340390">
	<ele>1079.40</ele>
	<time>2025-04-29T06:29:15.000Z</time>
</trkpt>
<trkpt lat="45.9159590" lon="10.3340530">
	<ele>1079.20</ele>
	<time>2025-04-29T06:29:16.000Z</time>
</trkpt>
<trkpt lat="45.9159610" lon="10.3340620">
	<ele>1079.20</ele>
	<time>2025-04-29T06:29:17.000Z</time>
</trkpt>
<trkpt lat="45.9159630" lon="10.3340720">
	<ele>1079.20</ele>
	<time>2025-04-29T06:29:18.000Z</time>
</trkpt>
<trkpt lat="45.9159640" lon="10.3340850">
	<ele>1079.20</ele>
	<time>2025-04-29T06:29:19.000Z</time>
</trkpt>
<trkpt lat="45.9159570" lon="10.3340920">
	<ele>1079.20</ele>
	<time>2025-04-29T06:29:20.000Z</time>
</trkpt>
<trkpt lat="45.9159460" lon="10.3340930">
	<ele>1079.20</ele>
	<time>2025-04-29T06:29:21.000Z</time>
</trkpt>
<trkpt lat="45.9159430" lon="10.3341010">
	<ele>1079.20</ele>
	<time>2025-04-29T06:29:22.000Z</time>
</trkpt>
<trkpt lat="45.9159440" lon="10.3341110">
	<ele>1079.20</ele>
	<time>2025-04-29T06:29:23.000Z</time>
</trkpt>
<trkpt lat="45.9159520" lon="10.3341170">
	<ele>1079.40</ele>
	<time>2025-04-29T06:29:24.000Z</time>
</trkpt>
<trkpt lat="45.9159640" lon="10.3341300">
	<ele>1079.40</ele>
	<time>2025-04-29T06:29:25.000Z</time>
</trkpt>
<trkpt lat="45.9159850" lon="10.3341500">
	<ele>1079.40</ele>
	<time>2025-04-29T06:29:26.000Z</time>
</trkpt>
<trkpt lat="45.9160060" lon="10.3341540">
	<ele>1079.60</ele>
	<time>2025-04-29T06:29:27.000Z</time>
</trkpt>
<trkpt lat="45.9160320" lon="10.3341560">
	<ele>1079.80</ele>
	<time>2025-04-29T06:29:28.000Z</time>
</trkpt>
<trkpt lat="45.9160520" lon="10.3341580">
	<ele>1079.80</ele>
	<time>2025-04-29T06:29:29.000Z</time>
</trkpt>
<trkpt lat="45.9160710" lon="10.3341690">
	<ele>1080.00</ele>
	<time>2025-04-29T06:29:30.000Z</time>
</trkpt>
<trkpt lat="45.9160840" lon="10.3341810">
	<ele>1080.20</ele>
	<time>2025-04-29T06:29:31.000Z</time>
</trkpt>
<trkpt lat="45.9160890" lon="10.3341880">
	<ele>1080.20</ele>
	<time>2025-04-29T06:29:32.000Z</time>
</trkpt>
<trkpt lat="45.9161040" lon="10.3342000">
	<ele>1080.40</ele>
	<time>2025-04-29T06:29:33.000Z</time>
</trkpt>
<trkpt lat="45.9161150" lon="10.3342090">
	<ele>1080.40</ele>
	<time>2025-04-29T06:29:34.000Z</time>
</trkpt>
<trkpt lat="45.9161160" lon="10.3342130">
	<ele>1080.80</ele>
	<time>2025-04-29T06:29:35.000Z</time>
</trkpt>
<trkpt lat="45.9161210" lon="10.3342150">
	<ele>1081.00</ele>
	<time>2025-04-29T06:29:36.000Z</time>
</trkpt>
<trkpt lat="45.9161190" lon="10.3342190">
	<ele>1081.00</ele>
	<time>2025-04-29T06:29:37.000Z</time>
</trkpt>
<trkpt lat="45.9161180" lon="10.3342240">
	<ele>1081.20</ele>
	<time>2025-04-29T06:29:38.000Z</time>
</trkpt>
<trkpt lat="45.9161200" lon="10.3342380">
	<ele>1081.20</ele>
	<time>2025-04-29T06:29:39.000Z</time>
</trkpt>
<trkpt lat="45.9161230" lon="10.3342490">
	<ele>1081.40</ele>
	<time>2025-04-29T06:29:40.000Z</time>
</trkpt>
<trkpt lat="45.9161320" lon="10.3342570">
	<ele>1081.60</ele>
	<time>2025-04-29T06:29:41.000Z</time>
</trkpt>
<trkpt lat="45.9161430" lon="10.3342680">
	<ele>1081.60</ele>
	<time>2025-04-29T06:29:42.000Z</time>
</trkpt>
<trkpt lat="45.9161510" lon="10.3342820">
	<ele>1081.80</ele>
	<time>2025-04-29T06:29:43.000Z</time>
</trkpt>
<trkpt lat="45.9161580" lon="10.3343030">
	<ele>1082.00</ele>
	<time>2025-04-29T06:29:44.000Z</time>
</trkpt>
<trkpt lat="45.9161640" lon="10.3343080">
	<ele>1082.20</ele>
	<time>2025-04-29T06:29:45.000Z</time>
</trkpt>
<trkpt lat="45.9161660" lon="10.3343000">
	<ele>1082.40</ele>
	<time>2025-04-29T06:29:46.000Z</time>
</trkpt>
<trkpt lat="45.9161770" lon="10.3342990">
	<ele>1082.60</ele>
	<time>2025-04-29T06:29:47.000Z</time>
</trkpt>
<trkpt lat="45.9161900" lon="10.3343000">
	<ele>1083.00</ele>
	<time>2025-04-29T06:29:48.000Z</time>
</trkpt>
<trkpt lat="45.9162000" lon="10.3343070">
	<ele>1083.00</ele>
	<time>2025-04-29T06:29:49.000Z</time>
</trkpt>
<trkpt lat="45.9162090" lon="10.3343140">
	<ele>1083.20</ele>
	<time>2025-04-29T06:29:50.000Z</time>
</trkpt>
<trkpt lat="45.9162200" lon="10.3343190">
	<ele>1083.40</ele>
	<time>2025-04-29T06:29:51.000Z</time>
</trkpt>
<trkpt lat="45.9162330" lon="10.3343200">
	<ele>1083.40</ele>
	<time>2025-04-29T06:29:52.000Z</time>
</trkpt>
<trkpt lat="45.9162390" lon="10.3343240">
	<ele>1083.60</ele>
	<time>2025-04-29T06:29:53.000Z</time>
</trkpt>
<trkpt lat="45.9162420" lon="10.3343330">
	<ele>1083.60</ele>
	<time>2025-04-29T06:29:54.000Z</time>
</trkpt>
<trkpt lat="45.9162470" lon="10.3343430">
	<ele>1083.80</ele>
	<time>2025-04-29T06:29:55.000Z</time>
</trkpt>
<trkpt lat="45.9162560" lon="10.3343520">
	<ele>1084.00</ele>
	<time>2025-04-29T06:29:56.000Z</time>
</trkpt>
<trkpt lat="45.9162620" lon="10.3343740">
	<ele>1084.20</ele>
	<time>2025-04-29T06:29:57.000Z</time>
</trkpt>
<trkpt lat="45.9162630" lon="10.3343860">
	<ele>1084.40</ele>
	<time>2025-04-29T06:29:58.000Z</time>
</trkpt>
<trkpt lat="45.9162670" lon="10.3343980">
	<ele>1084.40</ele>
	<time>2025-04-29T06:29:59.000Z</time>
</trkpt>
<trkpt lat="45.9162690" lon="10.3344070">
	<ele>1084.60</ele>
	<time>2025-04-29T06:30:00.000Z</time>
</trkpt>
<trkpt lat="45.9162730" lon="10.3344150">
	<ele>1084.80</ele>
	<time>2025-04-29T06:30:01.000Z</time>
</trkpt>
<trkpt lat="45.9162750" lon="10.3344240">
	<ele>1084.80</ele>
	<time>2025-04-29T06:30:02.000Z</time>
</trkpt>
<trkpt lat="45.9162860" lon="10.3344410">
	<ele>1084.80</ele>
	<time>2025-04-29T06:30:03.000Z</time>
</trkpt>
<trkpt lat="45.9162910" lon="10.3344530">
	<ele>1085.00</ele>
	<time>2025-04-29T06:30:04.000Z</time>
</trkpt>
<trkpt lat="45.9162940" lon="10.3344580">
	<ele>1085.20</ele>
	<time>2025-04-29T06:30:05.000Z</time>
</trkpt>
<trkpt lat="45.9162930" lon="10.3344630">
	<ele>1085.20</ele>
	<time>2025-04-29T06:30:06.000Z</time>
</trkpt>
<trkpt lat="45.9162930" lon="10.3344600">
	<ele>1085.20</ele>
	<time>2025-04-29T06:30:07.000Z</time>
</trkpt>
<trkpt lat="45.9162930" lon="10.3344590">
	<ele>1085.20</ele>
	<time>2025-04-29T06:30:08.000Z</time>
</trkpt>
<trkpt lat="45.9163040" lon="10.3344630">
	<ele>1085.40</ele>
	<time>2025-04-29T06:30:09.000Z</time>
</trkpt>
<trkpt lat="45.9163040" lon="10.3344640">
	<ele>1085.40</ele>
	<time>2025-04-29T06:30:10.000Z</time>
</trkpt>
<trkpt lat="45.9163030" lon="10.3344500">
	<ele>1085.60</ele>
	<time>2025-04-29T06:30:11.000Z</time>
</trkpt>
<trkpt lat="45.9163020" lon="10.3344540">
	<ele>1085.60</ele>
	<time>2025-04-29T06:30:12.000Z</time>
</trkpt>
<trkpt lat="45.9162990" lon="10.3344610">
	<ele>1085.60</ele>
	<time>2025-04-29T06:30:13.000Z</time>
</trkpt>
<trkpt lat="45.9163000" lon="10.3344690">
	<ele>1085.80</ele>
	<time>2025-04-29T06:30:14.000Z</time>
</trkpt>
<trkpt lat="45.9162990" lon="10.3344730">
	<ele>1086.00</ele>
	<time>2025-04-29T06:30:15.000Z</time>
</trkpt>
<trkpt lat="45.9163050" lon="10.3344790">
	<ele>1086.00</ele>
	<time>2025-04-29T06:30:16.000Z</time>
</trkpt>
<trkpt lat="45.9163010" lon="10.3345010">
	<ele>1086.20</ele>
	<time>2025-04-29T06:30:17.000Z</time>
</trkpt>
<trkpt lat="45.9163010" lon="10.3345090">
	<ele>1086.60</ele>
	<time>2025-04-29T06:30:18.000Z</time>
</trkpt>
<trkpt lat="45.9163010" lon="10.3345160">
	<ele>1086.80</ele>
	<time>2025-04-29T06:30:19.000Z</time>
</trkpt>
<trkpt lat="45.9163070" lon="10.3345380">
	<ele>1087.00</ele>
	<time>2025-04-29T06:30:20.000Z</time>
</trkpt>
<trkpt lat="45.9163090" lon="10.3345410">
	<ele>1087.20</ele>
	<time>2025-04-29T06:30:21.000Z</time>
</trkpt>
<trkpt lat="45.9163150" lon="10.3345580">
	<ele>1087.60</ele>
	<time>2025-04-29T06:30:22.000Z</time>
</trkpt>
<trkpt lat="45.9163230" lon="10.3345680">
	<ele>1087.80</ele>
	<time>2025-04-29T06:30:23.000Z</time>
</trkpt>
<trkpt lat="45.9163300" lon="10.3345850">
	<ele>1088.00</ele>
	<time>2025-04-29T06:30:24.000Z</time>
</trkpt>
<trkpt lat="45.9163370" lon="10.3345960">
	<ele>1088.20</ele>
	<time>2025-04-29T06:30:25.000Z</time>
</trkpt>
<trkpt lat="45.9163470" lon="10.3346030">
	<ele>1088.40</ele>
	<time>2025-04-29T06:30:26.000Z</time>
</trkpt>
<trkpt lat="45.9163530" lon="10.3346130">
	<ele>1088.60</ele>
	<time>2025-04-29T06:30:27.000Z</time>
</trkpt>
<trkpt lat="45.9163600" lon="10.3346200">
	<ele>1088.80</ele>
	<time>2025-04-29T06:30:28.000Z</time>
</trkpt>
<trkpt lat="45.9163670" lon="10.3346270">
	<ele>1089.00</ele>
	<time>2025-04-29T06:30:29.000Z</time>
</trkpt>
<trkpt lat="45.9163740" lon="10.3346380">
	<ele>1089.20</ele>
	<time>2025-04-29T06:30:30.000Z</time>
</trkpt>
<trkpt lat="45.9163760" lon="10.3346460">
	<ele>1089.60</ele>
	<time>2025-04-29T06:30:31.000Z</time>
</trkpt>
<trkpt lat="45.9163720" lon="10.3346550">
	<ele>1089.60</ele>
	<time>2025-04-29T06:30:32.000Z</time>
</trkpt>
<trkpt lat="45.9163690" lon="10.3346680">
	<ele>1090.00</ele>
	<time>2025-04-29T06:30:33.000Z</time>
</trkpt>
<trkpt lat="45.9163710" lon="10.3346750">
	<ele>1090.20</ele>
	<time>2025-04-29T06:30:34.000Z</time>
</trkpt>
<trkpt lat="45.9163730" lon="10.3346840">
	<ele>1090.40</ele>
	<time>2025-04-29T06:30:35.000Z</time>
</trkpt>
<trkpt lat="45.9163740" lon="10.3346880">
	<ele>1090.60</ele>
	<time>2025-04-29T06:30:36.000Z</time>
</trkpt>
<trkpt lat="45.9163730" lon="10.3346920">
	<ele>1090.80</ele>
	<time>2025-04-29T06:30:37.000Z</time>
</trkpt>
<trkpt lat="45.9163710" lon="10.3346980">
	<ele>1091.00</ele>
	<time>2025-04-29T06:30:38.000Z</time>
</trkpt>
<trkpt lat="45.9163700" lon="10.3347020">
	<ele>1091.20</ele>
	<time>2025-04-29T06:30:39.000Z</time>
</trkpt>
<trkpt lat="45.9163710" lon="10.3347060">
	<ele>1091.40</ele>
	<time>2025-04-29T06:30:40.000Z</time>
</trkpt>
<trkpt lat="45.9163770" lon="10.3347130">
	<ele>1091.40</ele>
	<time>2025-04-29T06:30:41.000Z</time>
</trkpt>
<trkpt lat="45.9163880" lon="10.3347230">
	<ele>1091.80</ele>
	<time>2025-04-29T06:30:42.000Z</time>
</trkpt>
<trkpt lat="45.9163930" lon="10.3347350">
	<ele>1092.00</ele>
	<time>2025-04-29T06:30:43.000Z</time>
</trkpt>
<trkpt lat="45.9163970" lon="10.3347500">
	<ele>1092.20</ele>
	<time>2025-04-29T06:30:44.000Z</time>
</trkpt>
<trkpt lat="45.9164020" lon="10.3347700">
	<ele>1092.60</ele>
	<time>2025-04-29T06:30:45.000Z</time>
</trkpt>
<trkpt lat="45.9164040" lon="10.3347860">
	<ele>1092.60</ele>
	<time>2025-04-29T06:30:46.000Z</time>
</trkpt>
<trkpt lat="45.9164040" lon="10.3348020">
	<ele>1092.80</ele>
	<time>2025-04-29T06:30:47.000Z</time>
</trkpt>
<trkpt lat="45.9164030" lon="10.3348220">
	<ele>1093.00</ele>
	<time>2025-04-29T06:30:48.000Z</time>
</trkpt>
<trkpt lat="45.9163960" lon="10.3348420">
	<ele>1093.20</ele>
	<time>2025-04-29T06:30:49.000Z</time>
</trkpt>
<trkpt lat="45.9164000" lon="10.3348540">
	<ele>1093.40</ele>
	<time>2025-04-29T06:30:50.000Z</time>
</trkpt>
<trkpt lat="45.9164030" lon="10.3348640">
	<ele>1093.80</ele>
	<time>2025-04-29T06:30:51.000Z</time>
</trkpt>
<trkpt lat="45.9164100" lon="10.3348720">
	<ele>1094.00</ele>
	<time>2025-04-29T06:30:52.000Z</time>
</trkpt>
<trkpt lat="45.9164180" lon="10.3348830">
	<ele>1094.20</ele>
	<time>2025-04-29T06:30:53.000Z</time>
</trkpt>
<trkpt lat="45.9164300" lon="10.3348900">
	<ele>1094.20</ele>
	<time>2025-04-29T06:30:54.000Z</time>
</trkpt>
<trkpt lat="45.9164340" lon="10.3348920">
	<ele>1094.40</ele>
	<time>2025-04-29T06:30:55.000Z</time>
</trkpt>
<trkpt lat="45.9164350" lon="10.3349070">
	<ele>1094.60</ele>
	<time>2025-04-29T06:30:56.000Z</time>
</trkpt>
<trkpt lat="45.9164370" lon="10.3349150">
	<ele>1094.60</ele>
	<time>2025-04-29T06:30:57.000Z</time>
</trkpt>
<trkpt lat="45.9164430" lon="10.3349250">
	<ele>1094.80</ele>
	<time>2025-04-29T06:30:58.000Z</time>
</trkpt>
<trkpt lat="45.9164490" lon="10.3349380">
	<ele>1094.80</ele>
	<time>2025-04-29T06:30:59.000Z</time>
</trkpt>
<trkpt lat="45.9164510" lon="10.3349570">
	<ele>1095.00</ele>
	<time>2025-04-29T06:31:00.000Z</time>
</trkpt>
<trkpt lat="45.9164480" lon="10.3349720">
	<ele>1095.00</ele>
	<time>2025-04-29T06:31:01.000Z</time>
</trkpt>
<trkpt lat="45.9164460" lon="10.3349870">
	<ele>1095.20</ele>
	<time>2025-04-29T06:31:02.000Z</time>
</trkpt>
<trkpt lat="45.9164490" lon="10.3349970">
	<ele>1095.40</ele>
	<time>2025-04-29T06:31:03.000Z</time>
</trkpt>
<trkpt lat="45.9164480" lon="10.3350010">
	<ele>1095.40</ele>
	<time>2025-04-29T06:31:04.000Z</time>
</trkpt>
<trkpt lat="45.9164550" lon="10.3350080">
	<ele>1095.60</ele>
	<time>2025-04-29T06:31:05.000Z</time>
</trkpt>
<trkpt lat="45.9164640" lon="10.3350120">
	<ele>1095.60</ele>
	<time>2025-04-29T06:31:06.000Z</time>
</trkpt>
<trkpt lat="45.9164650" lon="10.3350200">
	<ele>1095.80</ele>
	<time>2025-04-29T06:31:07.000Z</time>
</trkpt>
<trkpt lat="45.9164540" lon="10.3350420">
	<ele>1095.80</ele>
	<time>2025-04-29T06:31:08.000Z</time>
</trkpt>
<trkpt lat="45.9164520" lon="10.3350570">
	<ele>1095.80</ele>
	<time>2025-04-29T06:31:09.000Z</time>
</trkpt>
<trkpt lat="45.9164520" lon="10.3350610">
	<ele>1096.00</ele>
	<time>2025-04-29T06:31:10.000Z</time>
</trkpt>
<trkpt lat="45.9164540" lon="10.3350690">
	<ele>1096.00</ele>
	<time>2025-04-29T06:31:11.000Z</time>
</trkpt>
<trkpt lat="45.9164620" lon="10.3350820">
	<ele>1096.20</ele>
	<time>2025-04-29T06:31:12.000Z</time>
</trkpt>
<trkpt lat="45.9164700" lon="10.3351050">
	<ele>1096.40</ele>
	<time>2025-04-29T06:31:13.000Z</time>
</trkpt>
<trkpt lat="45.9164800" lon="10.3351240">
	<ele>1096.40</ele>
	<time>2025-04-29T06:31:14.000Z</time>
</trkpt>
<trkpt lat="45.9164800" lon="10.3351400">
	<ele>1096.60</ele>
	<time>2025-04-29T06:31:15.000Z</time>
</trkpt>
<trkpt lat="45.9164760" lon="10.3351480">
	<ele>1096.80</ele>
	<time>2025-04-29T06:31:16.000Z</time>
</trkpt>
<trkpt lat="45.9164810" lon="10.3351580">
	<ele>1097.00</ele>
	<time>2025-04-29T06:31:17.000Z</time>
</trkpt>
<trkpt lat="45.9164770" lon="10.3351660">
	<ele>1097.00</ele>
	<time>2025-04-29T06:31:18.000Z</time>
</trkpt>
<trkpt lat="45.9164760" lon="10.3351680">
	<ele>1097.20</ele>
	<time>2025-04-29T06:31:19.000Z</time>
</trkpt>
<trkpt lat="45.9164800" lon="10.3351670">
	<ele>1097.40</ele>
	<time>2025-04-29T06:31:20.000Z</time>
</trkpt>
<trkpt lat="45.9164880" lon="10.3351630">
	<ele>1097.40</ele>
	<time>2025-04-29T06:31:21.000Z</time>
</trkpt>
<trkpt lat="45.9164950" lon="10.3351620">
	<ele>1097.60</ele>
	<time>2025-04-29T06:31:22.000Z</time>
</trkpt>
<trkpt lat="45.9165030" lon="10.3351640">
	<ele>1097.80</ele>
	<time>2025-04-29T06:31:23.000Z</time>
</trkpt>
<trkpt lat="45.9165140" lon="10.3351600">
	<ele>1097.80</ele>
	<time>2025-04-29T06:31:24.000Z</time>
</trkpt>
<trkpt lat="45.9165220" lon="10.3351570">
	<ele>1098.20</ele>
	<time>2025-04-29T06:31:25.000Z</time>
</trkpt>
<trkpt lat="45.9165270" lon="10.3351590">
	<ele>1098.40</ele>
	<time>2025-04-29T06:31:26.000Z</time>
</trkpt>
<trkpt lat="45.9165280" lon="10.3351710">
	<ele>1098.60</ele>
	<time>2025-04-29T06:31:27.000Z</time>
</trkpt>
<trkpt lat="45.9165300" lon="10.3351770">
	<ele>1098.60</ele>
	<time>2025-04-29T06:31:28.000Z</time>
</trkpt>
<trkpt lat="45.9165330" lon="10.3351910">
	<ele>1098.80</ele>
	<time>2025-04-29T06:31:29.000Z</time>
</trkpt>
<trkpt lat="45.9165360" lon="10.3352050">
	<ele>1098.80</ele>
	<time>2025-04-29T06:31:30.000Z</time>
</trkpt>
<trkpt lat="45.9165410" lon="10.3352110">
	<ele>1099.00</ele>
	<time>2025-04-29T06:31:31.000Z</time>
</trkpt>
<trkpt lat="45.9165470" lon="10.3352220">
	<ele>1099.20</ele>
	<time>2025-04-29T06:31:32.000Z</time>
</trkpt>
<trkpt lat="45.9165620" lon="10.3352410">
	<ele>1099.40</ele>
	<time>2025-04-29T06:31:33.000Z</time>
</trkpt>
<trkpt lat="45.9165730" lon="10.3352480">
	<ele>1099.60</ele>
	<time>2025-04-29T06:31:34.000Z</time>
</trkpt>
<trkpt lat="45.9165790" lon="10.3352490">
	<ele>1100.00</ele>
	<time>2025-04-29T06:31:35.000Z</time>
</trkpt>
<trkpt lat="45.9165830" lon="10.3352530">
	<ele>1100.00</ele>
	<time>2025-04-29T06:31:36.000Z</time>
</trkpt>
<trkpt lat="45.9165850" lon="10.3352590">
	<ele>1100.20</ele>
	<time>2025-04-29T06:31:37.000Z</time>
</trkpt>
<trkpt lat="45.9165860" lon="10.3352620">
	<ele>1100.40</ele>
	<time>2025-04-29T06:31:38.000Z</time>
</trkpt>
<trkpt lat="45.9165910" lon="10.3352700">
	<ele>1100.60</ele>
	<time>2025-04-29T06:31:39.000Z</time>
</trkpt>
<trkpt lat="45.9165970" lon="10.3352740">
	<ele>1100.60</ele>
	<time>2025-04-29T06:31:40.000Z</time>
</trkpt>
<trkpt lat="45.9166000" lon="10.3352740">
	<ele>1100.80</ele>
	<time>2025-04-29T06:31:41.000Z</time>
</trkpt>
<trkpt lat="45.9166000" lon="10.3352730">
	<ele>1101.20</ele>
	<time>2025-04-29T06:31:42.000Z</time>
</trkpt>
<trkpt lat="45.9166020" lon="10.3352730">
	<ele>1101.20</ele>
	<time>2025-04-29T06:31:43.000Z</time>
</trkpt>
<trkpt lat="45.9166080" lon="10.3352770">
	<ele>1101.60</ele>
	<time>2025-04-29T06:31:44.000Z</time>
</trkpt>
<trkpt lat="45.9166120" lon="10.3352890">
	<ele>1101.80</ele>
	<time>2025-04-29T06:31:45.000Z</time>
</trkpt>
<trkpt lat="45.9166170" lon="10.3352920">
	<ele>1102.00</ele>
	<time>2025-04-29T06:31:46.000Z</time>
</trkpt>
<trkpt lat="45.9166180" lon="10.3353060">
	<ele>1102.20</ele>
	<time>2025-04-29T06:31:47.000Z</time>
</trkpt>
<trkpt lat="45.9166240" lon="10.3353080">
	<ele>1102.40</ele>
	<time>2025-04-29T06:31:48.000Z</time>
</trkpt>
<trkpt lat="45.9166260" lon="10.3353080">
	<ele>1102.40</ele>
	<time>2025-04-29T06:31:49.000Z</time>
</trkpt>
<trkpt lat="45.9166330" lon="10.3353110">
	<ele>1102.80</ele>
	<time>2025-04-29T06:31:50.000Z</time>
</trkpt>
<trkpt lat="45.9166450" lon="10.3353100">
	<ele>1103.00</ele>
	<time>2025-04-29T06:31:51.000Z</time>
</trkpt>
<trkpt lat="45.9166600" lon="10.3353090">
	<ele>1103.20</ele>
	<time>2025-04-29T06:31:52.000Z</time>
</trkpt>
<trkpt lat="45.9166690" lon="10.3353110">
	<ele>1103.20</ele>
	<time>2025-04-29T06:31:53.000Z</time>
</trkpt>
<trkpt lat="45.9166760" lon="10.3353160">
	<ele>1103.20</ele>
	<time>2025-04-29T06:31:54.000Z</time>
</trkpt>
<trkpt lat="45.9166850" lon="10.3353210">
	<ele>1103.40</ele>
	<time>2025-04-29T06:31:55.000Z</time>
</trkpt>
<trkpt lat="45.9166900" lon="10.3353280">
	<ele>1103.40</ele>
	<time>2025-04-29T06:31:56.000Z</time>
</trkpt>
<trkpt lat="45.9166910" lon="10.3353410">
	<ele>1103.60</ele>
	<time>2025-04-29T06:31:57.000Z</time>
</trkpt>
<trkpt lat="45.9166950" lon="10.3353620">
	<ele>1103.80</ele>
	<time>2025-04-29T06:31:58.000Z</time>
</trkpt>
<trkpt lat="45.9166900" lon="10.3354130">
	<ele>1104.00</ele>
	<time>2025-04-29T06:31:59.000Z</time>
</trkpt>
<trkpt lat="45.9166970" lon="10.3354190">
	<ele>1104.20</ele>
	<time>2025-04-29T06:32:00.000Z</time>
</trkpt>
<trkpt lat="45.9167100" lon="10.3354190">
	<ele>1104.20</ele>
	<time>2025-04-29T06:32:01.000Z</time>
</trkpt>
<trkpt lat="45.9167210" lon="10.3354230">
	<ele>1104.60</ele>
	<time>2025-04-29T06:32:02.000Z</time>
</trkpt>
<trkpt lat="45.9167300" lon="10.3354220">
	<ele>1104.60</ele>
	<time>2025-04-29T06:32:03.000Z</time>
</trkpt>
<trkpt lat="45.9167390" lon="10.3354280">
	<ele>1104.80</ele>
	<time>2025-04-29T06:32:04.000Z</time>
</trkpt>
<trkpt lat="45.9167450" lon="10.3354410">
	<ele>1104.80</ele>
	<time>2025-04-29T06:32:05.000Z</time>
</trkpt>
<trkpt lat="45.9167450" lon="10.3354560">
	<ele>1105.00</ele>
	<time>2025-04-29T06:32:06.000Z</time>
</trkpt>
<trkpt lat="45.9167500" lon="10.3354680">
	<ele>1105.00</ele>
	<time>2025-04-29T06:32:07.000Z</time>
</trkpt>
<trkpt lat="45.9167580" lon="10.3354770">
	<ele>1105.00</ele>
	<time>2025-04-29T06:32:08.000Z</time>
</trkpt>
<trkpt lat="45.9167680" lon="10.3354820">
	<ele>1105.20</ele>
	<time>2025-04-29T06:32:09.000Z</time>
</trkpt>
<trkpt lat="45.9167720" lon="10.3354890">
	<ele>1105.20</ele>
	<time>2025-04-29T06:32:10.000Z</time>
</trkpt>
<trkpt lat="45.9167790" lon="10.3354930">
	<ele>1105.20</ele>
	<time>2025-04-29T06:32:11.000Z</time>
</trkpt>
<trkpt lat="45.9167860" lon="10.3355110">
	<ele>1105.40</ele>
	<time>2025-04-29T06:32:12.000Z</time>
</trkpt>
<trkpt lat="45.9167930" lon="10.3355220">
	<ele>1105.60</ele>
	<time>2025-04-29T06:32:13.000Z</time>
</trkpt>
<trkpt lat="45.9168020" lon="10.3355340">
	<ele>1105.80</ele>
	<time>2025-04-29T06:32:14.000Z</time>
</trkpt>
<trkpt lat="45.9168120" lon="10.3355410">
	<ele>1105.80</ele>
	<time>2025-04-29T06:32:15.000Z</time>
</trkpt>
<trkpt lat="45.9168250" lon="10.3355550">
	<ele>1106.00</ele>
	<time>2025-04-29T06:32:16.000Z</time>
</trkpt>
<trkpt lat="45.9168370" lon="10.3355650">
	<ele>1106.00</ele>
	<time>2025-04-29T06:32:17.000Z</time>
</trkpt>
<trkpt lat="45.9168470" lon="10.3355760">
	<ele>1106.20</ele>
	<time>2025-04-29T06:32:18.000Z</time>
</trkpt>
<trkpt lat="45.9168590" lon="10.3355780">
	<ele>1106.40</ele>
	<time>2025-04-29T06:32:19.000Z</time>
</trkpt>
<trkpt lat="45.9168630" lon="10.3355800">
	<ele>1106.40</ele>
	<time>2025-04-29T06:32:20.000Z</time>
</trkpt>
<trkpt lat="45.9168650" lon="10.3355880">
	<ele>1106.60</ele>
	<time>2025-04-29T06:32:21.000Z</time>
</trkpt>
<trkpt lat="45.9168600" lon="10.3356050">
	<ele>1107.00</ele>
	<time>2025-04-29T06:32:22.000Z</time>
</trkpt>
<trkpt lat="45.9168620" lon="10.3356150">
	<ele>1107.20</ele>
	<time>2025-04-29T06:32:23.000Z</time>
</trkpt>
<trkpt lat="45.9168710" lon="10.3356160">
	<ele>1107.20</ele>
	<time>2025-04-29T06:32:24.000Z</time>
</trkpt>
<trkpt lat="45.9168790" lon="10.3356190">
	<ele>1107.60</ele>
	<time>2025-04-29T06:32:25.000Z</time>
</trkpt>
<trkpt lat="45.9168860" lon="10.3356270">
	<ele>1107.80</ele>
	<time>2025-04-29T06:32:26.000Z</time>
</trkpt>
<trkpt lat="45.9168900" lon="10.3356400">
	<ele>1108.00</ele>
	<time>2025-04-29T06:32:27.000Z</time>
</trkpt>
<trkpt lat="45.9168900" lon="10.3356480">
	<ele>1108.20</ele>
	<time>2025-04-29T06:32:28.000Z</time>
</trkpt>
<trkpt lat="45.9168950" lon="10.3356560">
	<ele>1108.40</ele>
	<time>2025-04-29T06:32:29.000Z</time>
</trkpt>
<trkpt lat="45.9168960" lon="10.3356590">
	<ele>1108.60</ele>
	<time>2025-04-29T06:32:30.000Z</time>
</trkpt>
<trkpt lat="45.9168980" lon="10.3356650">
	<ele>1108.80</ele>
	<time>2025-04-29T06:32:31.000Z</time>
</trkpt>
<trkpt lat="45.9169050" lon="10.3356760">
	<ele>1109.00</ele>
	<time>2025-04-29T06:32:32.000Z</time>
</trkpt>
<trkpt lat="45.9169050" lon="10.3356960">
	<ele>1109.20</ele>
	<time>2025-04-29T06:32:33.000Z</time>
</trkpt>
<trkpt lat="45.9168950" lon="10.3357130">
	<ele>1109.40</ele>
	<time>2025-04-29T06:32:34.000Z</time>
</trkpt>
<trkpt lat="45.9168940" lon="10.3357370">
	<ele>1109.60</ele>
	<time>2025-04-29T06:32:35.000Z</time>
</trkpt>
<trkpt lat="45.9169030" lon="10.3357410">
	<ele>1109.80</ele>
	<time>2025-04-29T06:32:36.000Z</time>
</trkpt>
<trkpt lat="45.9169110" lon="10.3357550">
	<ele>1110.00</ele>
	<time>2025-04-29T06:32:37.000Z</time>
</trkpt>
<trkpt lat="45.9169170" lon="10.3357560">
	<ele>1110.40</ele>
	<time>2025-04-29T06:32:38.000Z</time>
</trkpt>
<trkpt lat="45.9169270" lon="10.3357650">
	<ele>1110.60</ele>
	<time>2025-04-29T06:32:39.000Z</time>
</trkpt>
<trkpt lat="45.9169400" lon="10.3357660">
	<ele>1110.80</ele>
	<time>2025-04-29T06:32:40.000Z</time>
</trkpt>
<trkpt lat="45.9169520" lon="10.3357770">
	<ele>1110.80</ele>
	<time>2025-04-29T06:32:41.000Z</time>
</trkpt>
<trkpt lat="45.9169560" lon="10.3357800">
	<ele>1111.20</ele>
	<time>2025-04-29T06:32:42.000Z</time>
</trkpt>
<trkpt lat="45.9169600" lon="10.3357920">
	<ele>1111.60</ele>
	<time>2025-04-29T06:32:43.000Z</time>
</trkpt>
<trkpt lat="45.9169630" lon="10.3357990">
	<ele>1111.80</ele>
	<time>2025-04-29T06:32:44.000Z</time>
</trkpt>
<trkpt lat="45.9169680" lon="10.3358030">
	<ele>1112.00</ele>
	<time>2025-04-29T06:32:45.000Z</time>
</trkpt>
<trkpt lat="45.9169700" lon="10.3358200">
	<ele>1112.20</ele>
	<time>2025-04-29T06:32:46.000Z</time>
</trkpt>
<trkpt lat="45.9169710" lon="10.3358360">
	<ele>1112.40</ele>
	<time>2025-04-29T06:32:47.000Z</time>
</trkpt>
<trkpt lat="45.9169730" lon="10.3358410">
	<ele>1112.40</ele>
	<time>2025-04-29T06:32:48.000Z</time>
</trkpt>
<trkpt lat="45.9169790" lon="10.3358550">
	<ele>1112.60</ele>
	<time>2025-04-29T06:32:49.000Z</time>
</trkpt>
<trkpt lat="45.9169830" lon="10.3358710">
	<ele>1112.80</ele>
	<time>2025-04-29T06:32:50.000Z</time>
</trkpt>
<trkpt lat="45.9169870" lon="10.3358850">
	<ele>1113.00</ele>
	<time>2025-04-29T06:32:51.000Z</time>
</trkpt>
<trkpt lat="45.9169810" lon="10.3359120">
	<ele>1113.40</ele>
	<time>2025-04-29T06:32:52.000Z</time>
</trkpt>
<trkpt lat="45.9169890" lon="10.3359220">
	<ele>1113.60</ele>
	<time>2025-04-29T06:32:53.000Z</time>
</trkpt>
<trkpt lat="45.9170000" lon="10.3359370">
	<ele>1113.80</ele>
	<time>2025-04-29T06:32:54.000Z</time>
</trkpt>
<trkpt lat="45.9169970" lon="10.3359500">
	<ele>1114.00</ele>
	<time>2025-04-29T06:32:55.000Z</time>
</trkpt>
<trkpt lat="45.9169990" lon="10.3359710">
	<ele>1114.00</ele>
	<time>2025-04-29T06:32:56.000Z</time>
</trkpt>
<trkpt lat="45.9170020" lon="10.3359760">
	<ele>1114.20</ele>
	<time>2025-04-29T06:32:57.000Z</time>
</trkpt>
<trkpt lat="45.9169990" lon="10.3359860">
	<ele>1114.40</ele>
	<time>2025-04-29T06:32:58.000Z</time>
</trkpt>
<trkpt lat="45.9169950" lon="10.3359950">
	<ele>1114.60</ele>
	<time>2025-04-29T06:32:59.000Z</time>
</trkpt>
<trkpt lat="45.9169920" lon="10.3360010">
	<ele>1114.80</ele>
	<time>2025-04-29T06:33:00.000Z</time>
</trkpt>
<trkpt lat="45.9169900" lon="10.3360040">
	<ele>1115.20</ele>
	<time>2025-04-29T06:33:01.000Z</time>
</trkpt>
<trkpt lat="45.9169910" lon="10.3360070">
	<ele>1115.20</ele>
	<time>2025-04-29T06:33:02.000Z</time>
</trkpt>
<trkpt lat="45.9169900" lon="10.3360150">
	<ele>1115.60</ele>
	<time>2025-04-29T06:33:03.000Z</time>
</trkpt>
<trkpt lat="45.9169980" lon="10.3360250">
	<ele>1115.80</ele>
	<time>2025-04-29T06:33:04.000Z</time>
</trkpt>
<trkpt lat="45.9170020" lon="10.3360350">
	<ele>1116.00</ele>
	<time>2025-04-29T06:33:05.000Z</time>
</trkpt>
<trkpt lat="45.9170050" lon="10.3360410">
	<ele>1116.20</ele>
	<time>2025-04-29T06:33:06.000Z</time>
</trkpt>
<trkpt lat="45.9170080" lon="10.3360560">
	<ele>1116.40</ele>
	<time>2025-04-29T06:33:07.000Z</time>
</trkpt>
<trkpt lat="45.9170070" lon="10.3360730">
	<ele>1116.60</ele>
	<time>2025-04-29T06:33:08.000Z</time>
</trkpt>
<trkpt lat="45.9170020" lon="10.3360860">
	<ele>1116.80</ele>
	<time>2025-04-29T06:33:09.000Z</time>
</trkpt>
<trkpt lat="45.9170000" lon="10.3360940">
	<ele>1117.00</ele>
	<time>2025-04-29T06:33:10.000Z</time>
</trkpt>
<trkpt lat="45.9170030" lon="10.3361000">
	<ele>1117.20</ele>
	<time>2025-04-29T06:33:11.000Z</time>
</trkpt>
<trkpt lat="45.9170090" lon="10.3360980">
	<ele>1117.40</ele>
	<time>2025-04-29T06:33:12.000Z</time>
</trkpt>
<trkpt lat="45.9170150" lon="10.3361070">
	<ele>1117.60</ele>
	<time>2025-04-29T06:33:13.000Z</time>
</trkpt>
<trkpt lat="45.9170150" lon="10.3361220">
	<ele>1117.80</ele>
	<time>2025-04-29T06:33:14.000Z</time>
</trkpt>
<trkpt lat="45.9170110" lon="10.3361370">
	<ele>1117.80</ele>
	<time>2025-04-29T06:33:15.000Z</time>
</trkpt>
<trkpt lat="45.9170180" lon="10.3361430">
	<ele>1118.00</ele>
	<time>2025-04-29T06:33:16.000Z</time>
</trkpt>
<trkpt lat="45.9170220" lon="10.3361490">
	<ele>1118.20</ele>
	<time>2025-04-29T06:33:17.000Z</time>
</trkpt>
<trkpt lat="45.9170250" lon="10.3361640">
	<ele>1118.20</ele>
	<time>2025-04-29T06:33:18.000Z</time>
</trkpt>
<trkpt lat="45.9170290" lon="10.3361690">
	<ele>1118.40</ele>
	<time>2025-04-29T06:33:19.000Z</time>
</trkpt>
<trkpt lat="45.9170350" lon="10.3361840">
	<ele>1118.80</ele>
	<time>2025-04-29T06:33:20.000Z</time>
</trkpt>
<trkpt lat="45.9170390" lon="10.3361880">
	<ele>1119.00</ele>
	<time>2025-04-29T06:33:21.000Z</time>
</trkpt>
<trkpt lat="45.9170390" lon="10.3361930">
	<ele>1119.40</ele>
	<time>2025-04-29T06:33:22.000Z</time>
</trkpt>
<trkpt lat="45.9170370" lon="10.3362010">
	<ele>1119.40</ele>
	<time>2025-04-29T06:33:23.000Z</time>
</trkpt>
<trkpt lat="45.9170270" lon="10.3362240">
	<ele>1119.60</ele>
	<time>2025-04-29T06:33:24.000Z</time>
</trkpt>
<trkpt lat="45.9170220" lon="10.3362380">
	<ele>1119.80</ele>
	<time>2025-04-29T06:33:25.000Z</time>
</trkpt>
<trkpt lat="45.9170230" lon="10.3362480">
	<ele>1120.00</ele>
	<time>2025-04-29T06:33:26.000Z</time>
</trkpt>
<trkpt lat="45.9170250" lon="10.3362540">
	<ele>1120.20</ele>
	<time>2025-04-29T06:33:27.000Z</time>
</trkpt>
<trkpt lat="45.9170240" lon="10.3362590">
	<ele>1120.40</ele>
	<time>2025-04-29T06:33:28.000Z</time>
</trkpt>
<trkpt lat="45.9170260" lon="10.3362640">
	<ele>1120.60</ele>
	<time>2025-04-29T06:33:29.000Z</time>
</trkpt>
<trkpt lat="45.9170260" lon="10.3362660">
	<ele>1120.60</ele>
	<time>2025-04-29T06:33:30.000Z</time>
</trkpt>
<trkpt lat="45.9170260" lon="10.3362710">
	<ele>1120.80</ele>
	<time>2025-04-29T06:33:31.000Z</time>
</trkpt>
<trkpt lat="45.9170250" lon="10.3362790">
	<ele>1120.80</ele>
	<time>2025-04-29T06:33:32.000Z</time>
</trkpt>
<trkpt lat="45.9170280" lon="10.3362850">
	<ele>1121.00</ele>
	<time>2025-04-29T06:33:33.000Z</time>
</trkpt>
<trkpt lat="45.9170300" lon="10.3362880">
	<ele>1121.20</ele>
	<time>2025-04-29T06:33:34.000Z</time>
</trkpt>
<trkpt lat="45.9170350" lon="10.3362880">
	<ele>1121.20</ele>
	<time>2025-04-29T06:33:35.000Z</time>
</trkpt>
<trkpt lat="45.9170350" lon="10.3362990">
	<ele>1121.40</ele>
	<time>2025-04-29T06:33:36.000Z</time>
</trkpt>
<trkpt lat="45.9170180" lon="10.3363090">
	<ele>1121.60</ele>
	<time>2025-04-29T06:33:37.000Z</time>
</trkpt>
<trkpt lat="45.9170140" lon="10.3363230">
	<ele>1121.80</ele>
	<time>2025-04-29T06:33:38.000Z</time>
</trkpt>
<trkpt lat="45.9170120" lon="10.3363370">
	<ele>1122.00</ele>
	<time>2025-04-29T06:33:39.000Z</time>
</trkpt>
<trkpt lat="45.9170140" lon="10.3363490">
	<ele>1122.20</ele>
	<time>2025-04-29T06:33:40.000Z</time>
</trkpt>
<trkpt lat="45.9170050" lon="10.3363640">
	<ele>1122.40</ele>
	<time>2025-04-29T06:33:41.000Z</time>
</trkpt>
<trkpt lat="45.9169940" lon="10.3363740">
	<ele>1122.60</ele>
	<time>2025-04-29T06:33:42.000Z</time>
</trkpt>
<trkpt lat="45.9169890" lon="10.3363810">
	<ele>1122.80</ele>
	<time>2025-04-29T06:33:43.000Z</time>
</trkpt>
<trkpt lat="45.9169890" lon="10.3363870">
	<ele>1122.80</ele>
	<time>2025-04-29T06:33:44.000Z</time>
</trkpt>
<trkpt lat="45.9169910" lon="10.3363920">
	<ele>1123.00</ele>
	<time>2025-04-29T06:33:45.000Z</time>
</trkpt>
<trkpt lat="45.9169940" lon="10.3363980">
	<ele>1123.00</ele>
	<time>2025-04-29T06:33:46.000Z</time>
</trkpt>
<trkpt lat="45.9169960" lon="10.3364030">
	<ele>1123.20</ele>
	<time>2025-04-29T06:33:47.000Z</time>
</trkpt>
<trkpt lat="45.9169950" lon="10.3364130">
	<ele>1123.40</ele>
	<time>2025-04-29T06:33:48.000Z</time>
</trkpt>
<trkpt lat="45.9169980" lon="10.3364230">
	<ele>1123.60</ele>
	<time>2025-04-29T06:33:49.000Z</time>
</trkpt>
<trkpt lat="45.9170060" lon="10.3364340">
	<ele>1123.80</ele>
	<time>2025-04-29T06:33:50.000Z</time>
</trkpt>
<trkpt lat="45.9170110" lon="10.3364400">
	<ele>1124.00</ele>
	<time>2025-04-29T06:33:51.000Z</time>
</trkpt>
<trkpt lat="45.9170110" lon="10.3364520">
	<ele>1124.40</ele>
	<time>2025-04-29T06:33:52.000Z</time>
</trkpt>
<trkpt lat="45.9170140" lon="10.3364560">
	<ele>1124.60</ele>
	<time>2025-04-29T06:33:53.000Z</time>
</trkpt>
<trkpt lat="45.9170170" lon="10.3364660">
	<ele>1124.60</ele>
	<time>2025-04-29T06:33:54.000Z</time>
</trkpt>
<trkpt lat="45.9170150" lon="10.3364750">
	<ele>1124.80</ele>
	<time>2025-04-29T06:33:55.000Z</time>
</trkpt>
<trkpt lat="45.9170190" lon="10.3364930">
	<ele>1124.80</ele>
	<time>2025-04-29T06:33:56.000Z</time>
</trkpt>
<trkpt lat="45.9170210" lon="10.3365060">
	<ele>1125.00</ele>
	<time>2025-04-29T06:33:57.000Z</time>
</trkpt>
<trkpt lat="45.9170230" lon="10.3365190">
	<ele>1125.20</ele>
	<time>2025-04-29T06:33:58.000Z</time>
</trkpt>
<trkpt lat="45.9170340" lon="10.3365330">
	<ele>1125.20</ele>
	<time>2025-04-29T06:33:59.000Z</time>
</trkpt>
<trkpt lat="45.9170440" lon="10.3365410">
	<ele>1125.60</ele>
	<time>2025-04-29T06:34:00.000Z</time>
</trkpt>
<trkpt lat="45.9170550" lon="10.3365400">
	<ele>1125.80</ele>
	<time>2025-04-29T06:34:01.000Z</time>
</trkpt>
<trkpt lat="45.9170580" lon="10.3365390">
	<ele>1126.00</ele>
	<time>2025-04-29T06:34:02.000Z</time>
</trkpt>
<trkpt lat="45.9170620" lon="10.3365430">
	<ele>1126.20</ele>
	<time>2025-04-29T06:34:03.000Z</time>
</trkpt>
<trkpt lat="45.9170610" lon="10.3365530">
	<ele>1126.20</ele>
	<time>2025-04-29T06:34:04.000Z</time>
</trkpt>
<trkpt lat="45.9170640" lon="10.3365650">
	<ele>1126.20</ele>
	<time>2025-04-29T06:34:05.000Z</time>
</trkpt>
<trkpt lat="45.9170570" lon="10.3365830">
	<ele>1126.60</ele>
	<time>2025-04-29T06:34:06.000Z</time>
</trkpt>
<trkpt lat="45.9170500" lon="10.3366060">
	<ele>1126.60</ele>
	<time>2025-04-29T06:34:07.000Z</time>
</trkpt>
<trkpt lat="45.9170460" lon="10.3366190">
	<ele>1126.80</ele>
	<time>2025-04-29T06:34:08.000Z</time>
</trkpt>
<trkpt lat="45.9170400" lon="10.3366310">
	<ele>1127.00</ele>
	<time>2025-04-29T06:34:09.000Z</time>
</trkpt>
<trkpt lat="45.9170360" lon="10.3366490">
	<ele>1127.20</ele>
	<time>2025-04-29T06:34:10.000Z</time>
</trkpt>
<trkpt lat="45.9170390" lon="10.3366540">
	<ele>1127.40</ele>
	<time>2025-04-29T06:34:11.000Z</time>
</trkpt>
<trkpt lat="45.9170360" lon="10.3366560">
	<ele>1127.60</ele>
	<time>2025-04-29T06:34:12.000Z</time>
</trkpt>
<trkpt lat="45.9170370" lon="10.3366590">
	<ele>1127.80</ele>
	<time>2025-04-29T06:34:13.000Z</time>
</trkpt>
<trkpt lat="45.9170420" lon="10.3366640">
	<ele>1128.00</ele>
	<time>2025-04-29T06:34:14.000Z</time>
</trkpt>
<trkpt lat="45.9170410" lon="10.3366740">
	<ele>1128.20</ele>
	<time>2025-04-29T06:34:15.000Z</time>
</trkpt>
<trkpt lat="45.9170420" lon="10.3366830">
	<ele>1128.40</ele>
	<time>2025-04-29T06:34:16.000Z</time>
</trkpt>
<trkpt lat="45.9170410" lon="10.3366980">
	<ele>1128.60</ele>
	<time>2025-04-29T06:34:17.000Z</time>
</trkpt>
<trkpt lat="45.9170370" lon="10.3367150">
	<ele>1128.80</ele>
	<time>2025-04-29T06:34:18.000Z</time>
</trkpt>
<trkpt lat="45.9170370" lon="10.3367210">
	<ele>1129.20</ele>
	<time>2025-04-29T06:34:19.000Z</time>
</trkpt>
<trkpt lat="45.9170420" lon="10.3367240">
	<ele>1129.40</ele>
	<time>2025-04-29T06:34:20.000Z</time>
</trkpt>
<trkpt lat="45.9170470" lon="10.3367270">
	<ele>1129.60</ele>
	<time>2025-04-29T06:34:21.000Z</time>
</trkpt>
<trkpt lat="45.9170520" lon="10.3367420">
	<ele>1129.80</ele>
	<time>2025-04-29T06:34:22.000Z</time>
</trkpt>
<trkpt lat="45.9170550" lon="10.3367450">
	<ele>1129.80</ele>
	<time>2025-04-29T06:34:23.000Z</time>
</trkpt>
<trkpt lat="45.9170630" lon="10.3367470">
	<ele>1130.00</ele>
	<time>2025-04-29T06:34:24.000Z</time>
</trkpt>
<trkpt lat="45.9170590" lon="10.3367510">
	<ele>1130.00</ele>
	<time>2025-04-29T06:34:25.000Z</time>
</trkpt>
<trkpt lat="45.9170540" lon="10.3367480">
	<ele>1130.20</ele>
	<time>2025-04-29T06:34:26.000Z</time>
</trkpt>
<trkpt lat="45.9170480" lon="10.3367450">
	<ele>1130.40</ele>
	<time>2025-04-29T06:34:27.000Z</time>
</trkpt>
<trkpt lat="45.9170460" lon="10.3367500">
	<ele>1130.60</ele>
	<time>2025-04-29T06:34:28.000Z</time>
</trkpt>
<trkpt lat="45.9170440" lon="10.3367520">
	<ele>1130.80</ele>
	<time>2025-04-29T06:34:29.000Z</time>
</trkpt>
<trkpt lat="45.9170400" lon="10.3367580">
	<ele>1130.80</ele>
	<time>2025-04-29T06:34:30.000Z</time>
</trkpt>
<trkpt lat="45.9170350" lon="10.3367630">
	<ele>1131.00</ele>
	<time>2025-04-29T06:34:31.000Z</time>
</trkpt>
<trkpt lat="45.9170310" lon="10.3367670">
	<ele>1131.20</ele>
	<time>2025-04-29T06:34:32.000Z</time>
</trkpt>
<trkpt lat="45.9170280" lon="10.3367750">
	<ele>1131.40</ele>
	<time>2025-04-29T06:34:33.000Z</time>
</trkpt>
<trkpt lat="45.9170220" lon="10.3367810">
	<ele>1131.60</ele>
	<time>2025-04-29T06:34:34.000Z</time>
</trkpt>
<trkpt lat="45.9170130" lon="10.3367860">
	<ele>1131.80</ele>
	<time>2025-04-29T06:34:35.000Z</time>
</trkpt>
<trkpt lat="45.9170110" lon="10.3367750">
	<ele>1132.00</ele>
	<time>2025-04-29T06:34:36.000Z</time>
</trkpt>
<trkpt lat="45.9170090" lon="10.3367690">
	<ele>1132.20</ele>
	<time>2025-04-29T06:34:37.000Z</time>
</trkpt>
<trkpt lat="45.9170060" lon="10.3367730">
	<ele>1132.20</ele>
	<time>2025-04-29T06:34:38.000Z</time>
</trkpt>
<trkpt lat="45.9170030" lon="10.3367790">
	<ele>1132.40</ele>
	<time>2025-04-29T06:34:39.000Z</time>
</trkpt>
<trkpt lat="45.9170020" lon="10.3367870">
	<ele>1132.60</ele>
	<time>2025-04-29T06:34:40.000Z</time>
</trkpt>
<trkpt lat="45.9170010" lon="10.3367930">
	<ele>1132.60</ele>
	<time>2025-04-29T06:34:41.000Z</time>
</trkpt>
<trkpt lat="45.9170030" lon="10.3368020">
	<ele>1132.80</ele>
	<time>2025-04-29T06:34:42.000Z</time>
</trkpt>
<trkpt lat="45.9170030" lon="10.3368130">
	<ele>1133.00</ele>
	<time>2025-04-29T06:34:43.000Z</time>
</trkpt>
<trkpt lat="45.9170030" lon="10.3368170">
	<ele>1133.40</ele>
	<time>2025-04-29T06:34:44.000Z</time>
</trkpt>
<trkpt lat="45.9170000" lon="10.3368220">
	<ele>1133.60</ele>
	<time>2025-04-29T06:34:45.000Z</time>
</trkpt>
<trkpt lat="45.9170000" lon="10.3368260">
	<ele>1133.80</ele>
	<time>2025-04-29T06:34:46.000Z</time>
</trkpt>
<trkpt lat="45.9169970" lon="10.3368350">
	<ele>1134.00</ele>
	<time>2025-04-29T06:34:47.000Z</time>
</trkpt>
<trkpt lat="45.9169910" lon="10.3368450">
	<ele>1134.20</ele>
	<time>2025-04-29T06:34:48.000Z</time>
</trkpt>
<trkpt lat="45.9169900" lon="10.3368580">
	<ele>1134.40</ele>
	<time>2025-04-29T06:34:49.000Z</time>
</trkpt>
<trkpt lat="45.9169890" lon="10.3368670">
	<ele>1134.40</ele>
	<time>2025-04-29T06:34:50.000Z</time>
</trkpt>
<trkpt lat="45.9169890" lon="10.3368730">
	<ele>1134.60</ele>
	<time>2025-04-29T06:34:51.000Z</time>
</trkpt>
<trkpt lat="45.9169950" lon="10.3368930">
	<ele>1134.60</ele>
	<time>2025-04-29T06:34:52.000Z</time>
</trkpt>
<trkpt lat="45.9169980" lon="10.3369200">
	<ele>1134.80</ele>
	<time>2025-04-29T06:34:53.000Z</time>
</trkpt>
<trkpt lat="45.9170000" lon="10.3369310">
	<ele>1135.00</ele>
	<time>2025-04-29T06:34:54.000Z</time>
</trkpt>
<trkpt lat="45.9170000" lon="10.3369430">
	<ele>1135.00</ele>
	<time>2025-04-29T06:34:55.000Z</time>
</trkpt>
<trkpt lat="45.9169990" lon="10.3369620">
	<ele>1135.20</ele>
	<time>2025-04-29T06:34:56.000Z</time>
</trkpt>
<trkpt lat="45.9169970" lon="10.3369690">
	<ele>1135.40</ele>
	<time>2025-04-29T06:34:57.000Z</time>
</trkpt>
<trkpt lat="45.9169980" lon="10.3369740">
	<ele>1135.80</ele>
	<time>2025-04-29T06:34:58.000Z</time>
</trkpt>
<trkpt lat="45.9169980" lon="10.3369790">
	<ele>1136.00</ele>
	<time>2025-04-29T06:34:59.000Z</time>
</trkpt>
<trkpt lat="45.9169970" lon="10.3369810">
	<ele>1136.20</ele>
	<time>2025-04-29T06:35:00.000Z</time>
</trkpt>
<trkpt lat="45.9170010" lon="10.3369790">
	<ele>1136.40</ele>
	<time>2025-04-29T06:35:01.000Z</time>
</trkpt>
<trkpt lat="45.9170020" lon="10.3369800">
	<ele>1136.60</ele>
	<time>2025-04-29T06:35:02.000Z</time>
</trkpt>
<trkpt lat="45.9170030" lon="10.3369840">
	<ele>1136.60</ele>
	<time>2025-04-29T06:35:03.000Z</time>
</trkpt>
<trkpt lat="45.9170020" lon="10.3369860">
	<ele>1136.80</ele>
	<time>2025-04-29T06:35:04.000Z</time>
</trkpt>
<trkpt lat="45.9170040" lon="10.3369880">
	<ele>1136.80</ele>
	<time>2025-04-29T06:35:05.000Z</time>
</trkpt>
<trkpt lat="45.9170040" lon="10.3369940">
	<ele>1136.80</ele>
	<time>2025-04-29T06:35:06.000Z</time>
</trkpt>
<trkpt lat="45.9170040" lon="10.3370030">
	<ele>1137.00</ele>
	<time>2025-04-29T06:35:07.000Z</time>
</trkpt>
<trkpt lat="45.9170020" lon="10.3370240">
	<ele>1137.00</ele>
	<time>2025-04-29T06:35:08.000Z</time>
</trkpt>
<trkpt lat="45.9170060" lon="10.3370230">
	<ele>1137.00</ele>
	<time>2025-04-29T06:35:09.000Z</time>
</trkpt>
<trkpt lat="45.9170090" lon="10.3370300">
	<ele>1137.20</ele>
	<time>2025-04-29T06:35:10.000Z</time>
</trkpt>
<trkpt lat="45.9170110" lon="10.3370330">
	<ele>1137.20</ele>
	<time>2025-04-29T06:35:11.000Z</time>
</trkpt>
<trkpt lat="45.9170130" lon="10.3370450">
	<ele>1137.40</ele>
	<time>2025-04-29T06:35:12.000Z</time>
</trkpt>
<trkpt lat="45.9170140" lon="10.3370460">
	<ele>1137.40</ele>
	<time>2025-04-29T06:35:13.000Z</time>
</trkpt>
<trkpt lat="45.9170140" lon="10.3370460">
	<ele>1137.60</ele>
	<time>2025-04-29T06:35:14.000Z</time>
</trkpt>
<trkpt lat="45.9170140" lon="10.3370460">
	<ele>1137.80</ele>
	<time>2025-04-29T06:35:15.000Z</time>
</trkpt>
<trkpt lat="45.9170140" lon="10.3370460">
	<ele>1138.00</ele>
	<time>2025-04-29T06:35:16.000Z</time>
</trkpt>
<trkpt lat="45.9170140" lon="10.3370460">
	<ele>1138.20</ele>
	<time>2025-04-29T06:35:17.000Z</time>
</trkpt>
<trkpt lat="45.9170140" lon="10.3370460">
	<ele>1138.40</ele>
	<time>2025-04-29T06:35:18.000Z</time>
</trkpt>
<trkpt lat="45.9170140" lon="10.3370460">
	<ele>1138.60</ele>
	<time>2025-04-29T06:35:19.000Z</time>
</trkpt>
<trkpt lat="45.9170140" lon="10.3370460">
	<ele>1138.60</ele>
	<time>2025-04-29T06:35:20.000Z</time>
</trkpt>
<trkpt lat="45.9170140" lon="10.3370460">
	<ele>1138.80</ele>
	<time>2025-04-29T06:35:21.000Z</time>
</trkpt>
<trkpt lat="45.9170140" lon="10.3370460">
	<ele>1139.20</ele>
	<time>2025-04-29T06:35:22.000Z</time>
</trkpt>
<trkpt lat="45.9170140" lon="10.3370460">
	<ele>1139.40</ele>
	<time>2025-04-29T06:35:23.000Z</time>
</trkpt>
<trkpt lat="45.9170140" lon="10.3370460">
	<ele>1139.60</ele>
	<time>2025-04-29T06:35:24.000Z</time>
</trkpt>
<trkpt lat="45.9170140" lon="10.3370460">
	<ele>1139.80</ele>
	<time>2025-04-29T06:35:25.000Z</time>
</trkpt>
<trkpt lat="45.9170140" lon="10.3370460">
	<ele>1139.80</ele>
	<time>2025-04-29T06:35:26.000Z</time>
</trkpt>
<trkpt lat="45.9170180" lon="10.3370590">
	<ele>1140.00</ele>
	<time>2025-04-29T06:35:27.000Z</time>
</trkpt>
<trkpt lat="45.9170370" lon="10.3370770">
	<ele>1140.40</ele>
	<time>2025-04-29T06:35:28.000Z</time>
</trkpt>
<trkpt lat="45.9170530" lon="10.3370910">
	<ele>1140.40</ele>
	<time>2025-04-29T06:35:29.000Z</time>
</trkpt>
<trkpt lat="45.9170630" lon="10.3371120">
	<ele>1140.60</ele>
	<time>2025-04-29T06:35:30.000Z</time>
</trkpt>
<trkpt lat="45.9170720" lon="10.3371330">
	<ele>1140.60</ele>
	<time>2025-04-29T06:35:31.000Z</time>
</trkpt>
<trkpt lat="45.9170790" lon="10.3371560">
	<ele>1140.60</ele>
	<time>2025-04-29T06:35:32.000Z</time>
</trkpt>
<trkpt lat="45.9170890" lon="10.3371800">
	<ele>1140.80</ele>
	<time>2025-04-29T06:35:33.000Z</time>
</trkpt>
<trkpt lat="45.9170910" lon="10.3372080">
	<ele>1141.00</ele>
	<time>2025-04-29T06:35:34.000Z</time>
</trkpt>
<trkpt lat="45.9170930" lon="10.3372340">
	<ele>1141.20</ele>
	<time>2025-04-29T06:35:35.000Z</time>
</trkpt>
<trkpt lat="45.9170940" lon="10.3372600">
	<ele>1141.40</ele>
	<time>2025-04-29T06:35:36.000Z</time>
</trkpt>
<trkpt lat="45.9170940" lon="10.3372690">
	<ele>1141.40</ele>
	<time>2025-04-29T06:35:37.000Z</time>
</trkpt>
<trkpt lat="45.9171010" lon="10.3372750">
	<ele>1141.80</ele>
	<time>2025-04-29T06:35:38.000Z</time>
</trkpt>
<trkpt lat="45.9171030" lon="10.3372880">
	<ele>1141.80</ele>
	<time>2025-04-29T06:35:39.000Z</time>
</trkpt>
<trkpt lat="45.9171080" lon="10.3372970">
	<ele>1142.00</ele>
	<time>2025-04-29T06:35:40.000Z</time>
</trkpt>
<trkpt lat="45.9171110" lon="10.3373000">
	<ele>1142.40</ele>
	<time>2025-04-29T06:35:41.000Z</time>
</trkpt>
<trkpt lat="45.9171110" lon="10.3373140">
	<ele>1142.80</ele>
	<time>2025-04-29T06:35:42.000Z</time>
</trkpt>
<trkpt lat="45.9171140" lon="10.3373250">
	<ele>1142.80</ele>
	<time>2025-04-29T06:35:43.000Z</time>
</trkpt>
<trkpt lat="45.9171150" lon="10.3373420">
	<ele>1143.00</ele>
	<time>2025-04-29T06:35:44.000Z</time>
</trkpt>
<trkpt lat="45.9171170" lon="10.3373490">
	<ele>1143.20</ele>
	<time>2025-04-29T06:35:45.000Z</time>
</trkpt>
<trkpt lat="45.9171190" lon="10.3373520">
	<ele>1143.40</ele>
	<time>2025-04-29T06:35:46.000Z</time>
</trkpt>
<trkpt lat="45.9171150" lon="10.3373630">
	<ele>1143.60</ele>
	<time>2025-04-29T06:35:47.000Z</time>
</trkpt>
<trkpt lat="45.9171110" lon="10.3373790">
	<ele>1143.80</ele>
	<time>2025-04-29T06:35:48.000Z</time>
</trkpt>
<trkpt lat="45.9170970" lon="10.3374020">
	<ele>1144.00</ele>
	<time>2025-04-29T06:35:49.000Z</time>
</trkpt>
<trkpt lat="45.9170930" lon="10.3374250">
	<ele>1144.00</ele>
	<time>2025-04-29T06:35:50.000Z</time>
</trkpt>
<trkpt lat="45.9170890" lon="10.3374440">
	<ele>1144.20</ele>
	<time>2025-04-29T06:35:51.000Z</time>
</trkpt>
<trkpt lat="45.9170860" lon="10.3374580">
	<ele>1144.40</ele>
	<time>2025-04-29T06:35:52.000Z</time>
</trkpt>
<trkpt lat="45.9170830" lon="10.3374670">
	<ele>1144.60</ele>
	<time>2025-04-29T06:35:53.000Z</time>
</trkpt>
<trkpt lat="45.9170890" lon="10.3374730">
	<ele>1144.80</ele>
	<time>2025-04-29T06:35:54.000Z</time>
</trkpt>
<trkpt lat="45.9170950" lon="10.3374780">
	<ele>1145.00</ele>
	<time>2025-04-29T06:35:55.000Z</time>
</trkpt>
<trkpt lat="45.9170920" lon="10.3374940">
	<ele>1145.20</ele>
	<time>2025-04-29T06:35:56.000Z</time>
</trkpt>
<trkpt lat="45.9170920" lon="10.3374990">
	<ele>1145.40</ele>
	<time>2025-04-29T06:35:57.000Z</time>
</trkpt>
<trkpt lat="45.9170860" lon="10.3375130">
	<ele>1145.40</ele>
	<time>2025-04-29T06:35:58.000Z</time>
</trkpt>
<trkpt lat="45.9170880" lon="10.3375210">
	<ele>1145.60</ele>
	<time>2025-04-29T06:35:59.000Z</time>
</trkpt>
<trkpt lat="45.9170920" lon="10.3375220">
	<ele>1146.00</ele>
	<time>2025-04-29T06:36:00.000Z</time>
</trkpt>
<trkpt lat="45.9170950" lon="10.3375280">
	<ele>1146.20</ele>
	<time>2025-04-29T06:36:01.000Z</time>
</trkpt>
<trkpt lat="45.9170960" lon="10.3375340">
	<ele>1146.40</ele>
	<time>2025-04-29T06:36:02.000Z</time>
</trkpt>
<trkpt lat="45.9170990" lon="10.3375450">
	<ele>1146.60</ele>
	<time>2025-04-29T06:36:03.000Z</time>
</trkpt>
<trkpt lat="45.9171030" lon="10.3375570">
	<ele>1146.80</ele>
	<time>2025-04-29T06:36:04.000Z</time>
</trkpt>
<trkpt lat="45.9171060" lon="10.3375660">
	<ele>1147.00</ele>
	<time>2025-04-29T06:36:05.000Z</time>
</trkpt>
<trkpt lat="45.9171110" lon="10.3375700">
	<ele>1147.20</ele>
	<time>2025-04-29T06:36:06.000Z</time>
</trkpt>
<trkpt lat="45.9171140" lon="10.3375770">
	<ele>1147.20</ele>
	<time>2025-04-29T06:36:07.000Z</time>
</trkpt>
<trkpt lat="45.9171180" lon="10.3375840">
	<ele>1147.40</ele>
	<time>2025-04-29T06:36:08.000Z</time>
</trkpt>
<trkpt lat="45.9171260" lon="10.3375960">
	<ele>1147.40</ele>
	<time>2025-04-29T06:36:09.000Z</time>
</trkpt>
<trkpt lat="45.9171410" lon="10.3376150">
	<ele>1147.60</ele>
	<time>2025-04-29T06:36:10.000Z</time>
</trkpt>
<trkpt lat="45.9171490" lon="10.3376180">
	<ele>1147.80</ele>
	<time>2025-04-29T06:36:11.000Z</time>
</trkpt>
<trkpt lat="45.9171490" lon="10.3376200">
	<ele>1148.20</ele>
	<time>2025-04-29T06:36:12.000Z</time>
</trkpt>
<trkpt lat="45.9171570" lon="10.3376160">
	<ele>1148.40</ele>
	<time>2025-04-29T06:36:13.000Z</time>
</trkpt>
<trkpt lat="45.9171590" lon="10.3376210">
	<ele>1148.60</ele>
	<time>2025-04-29T06:36:14.000Z</time>
</trkpt>
<trkpt lat="45.9171610" lon="10.3376250">
	<ele>1148.80</ele>
	<time>2025-04-29T06:36:15.000Z</time>
</trkpt>
<trkpt lat="45.9171630" lon="10.3376290">
	<ele>1149.00</ele>
	<time>2025-04-29T06:36:16.000Z</time>
</trkpt>
<trkpt lat="45.9171630" lon="10.3376340">
	<ele>1149.20</ele>
	<time>2025-04-29T06:36:17.000Z</time>
</trkpt>
<trkpt lat="45.9171650" lon="10.3376380">
	<ele>1149.40</ele>
	<time>2025-04-29T06:36:18.000Z</time>
</trkpt>
<trkpt lat="45.9171640" lon="10.3376370">
	<ele>1149.40</ele>
	<time>2025-04-29T06:36:19.000Z</time>
</trkpt>
<trkpt lat="45.9171650" lon="10.3376320">
	<ele>1149.60</ele>
	<time>2025-04-29T06:36:20.000Z</time>
</trkpt>
<trkpt lat="45.9171610" lon="10.3376390">
	<ele>1149.60</ele>
	<time>2025-04-29T06:36:21.000Z</time>
</trkpt>
<trkpt lat="45.9171580" lon="10.3376260">
	<ele>1149.80</ele>
	<time>2025-04-29T06:36:22.000Z</time>
</trkpt>
<trkpt lat="45.9171580" lon="10.3376230">
	<ele>1150.00</ele>
	<time>2025-04-29T06:36:23.000Z</time>
</trkpt>
<trkpt lat="45.9171580" lon="10.3376190">
	<ele>1150.00</ele>
	<time>2025-04-29T06:36:24.000Z</time>
</trkpt>
<trkpt lat="45.9171540" lon="10.3376240">
	<ele>1150.00</ele>
	<time>2025-04-29T06:36:25.000Z</time>
</trkpt>
<trkpt lat="45.9171550" lon="10.3376270">
	<ele>1150.00</ele>
	<time>2025-04-29T06:36:26.000Z</time>
</trkpt>
<trkpt lat="45.9171540" lon="10.3376240">
	<ele>1150.20</ele>
	<time>2025-04-29T06:36:27.000Z</time>
</trkpt>
<trkpt lat="45.9171510" lon="10.3376220">
	<ele>1150.20</ele>
	<time>2025-04-29T06:36:28.000Z</time>
</trkpt>
<trkpt lat="45.9171520" lon="10.3376240">
	<ele>1150.20</ele>
	<time>2025-04-29T06:36:29.000Z</time>
</trkpt>
<trkpt lat="45.9171520" lon="10.3376310">
	<ele>1150.20</ele>
	<time>2025-04-29T06:36:30.000Z</time>
</trkpt>
<trkpt lat="45.9171500" lon="10.3376230">
	<ele>1150.20</ele>
	<time>2025-04-29T06:36:31.000Z</time>
</trkpt>
<trkpt lat="45.9171500" lon="10.3376270">
	<ele>1150.20</ele>
	<time>2025-04-29T06:36:32.000Z</time>
</trkpt>
<trkpt lat="45.9171600" lon="10.3376340">
	<ele>1150.20</ele>
	<time>2025-04-29T06:36:33.000Z</time>
</trkpt>
<trkpt lat="45.9171660" lon="10.3376330">
	<ele>1150.20</ele>
	<time>2025-04-29T06:36:34.000Z</time>
</trkpt>
<trkpt lat="45.9171680" lon="10.3376350">
	<ele>1150.60</ele>
	<time>2025-04-29T06:36:35.000Z</time>
</trkpt>
<trkpt lat="45.9171670" lon="10.3376350">
	<ele>1150.80</ele>
	<time>2025-04-29T06:36:36.000Z</time>
</trkpt>
<trkpt lat="45.9171680" lon="10.3376440">
	<ele>1151.20</ele>
	<time>2025-04-29T06:36:37.000Z</time>
</trkpt>
<trkpt lat="45.9171670" lon="10.3376480">
	<ele>1151.40</ele>
	<time>2025-04-29T06:36:38.000Z</time>
</trkpt>
<trkpt lat="45.9171720" lon="10.3376540">
	<ele>1151.60</ele>
	<time>2025-04-29T06:36:39.000Z</time>
</trkpt>
<trkpt lat="45.9171760" lon="10.3376600">
	<ele>1151.60</ele>
	<time>2025-04-29T06:36:40.000Z</time>
</trkpt>
<trkpt lat="45.9171740" lon="10.3376690">
	<ele>1151.80</ele>
	<time>2025-04-29T06:36:41.000Z</time>
</trkpt>
<trkpt lat="45.9171680" lon="10.3376810">
	<ele>1151.80</ele>
	<time>2025-04-29T06:36:42.000Z</time>
</trkpt>
<trkpt lat="45.9171650" lon="10.3376900">
	<ele>1152.00</ele>
	<time>2025-04-29T06:36:43.000Z</time>
</trkpt>
<trkpt lat="45.9171650" lon="10.3377030">
	<ele>1152.00</ele>
	<time>2025-04-29T06:36:44.000Z</time>
</trkpt>
<trkpt lat="45.9171640" lon="10.3377190">
	<ele>1152.20</ele>
	<time>2025-04-29T06:36:45.000Z</time>
</trkpt>
<trkpt lat="45.9171620" lon="10.3377440">
	<ele>1152.40</ele>
	<time>2025-04-29T06:36:46.000Z</time>
</trkpt>
<trkpt lat="45.9171620" lon="10.3377600">
	<ele>1152.80</ele>
	<time>2025-04-29T06:36:47.000Z</time>
</trkpt>
<trkpt lat="45.9171580" lon="10.3377750">
	<ele>1152.80</ele>
	<time>2025-04-29T06:36:48.000Z</time>
</trkpt>
<trkpt lat="45.9171630" lon="10.3377910">
	<ele>1153.00</ele>
	<time>2025-04-29T06:36:49.000Z</time>
</trkpt>
<trkpt lat="45.9171830" lon="10.3378040">
	<ele>1153.20</ele>
	<time>2025-04-29T06:36:50.000Z</time>
</trkpt>
<trkpt lat="45.9171940" lon="10.3378170">
	<ele>1153.20</ele>
	<time>2025-04-29T06:36:51.000Z</time>
</trkpt>
<trkpt lat="45.9172000" lon="10.3378220">
	<ele>1153.40</ele>
	<time>2025-04-29T06:36:52.000Z</time>
</trkpt>
<trkpt lat="45.9171960" lon="10.3378330">
	<ele>1153.40</ele>
	<time>2025-04-29T06:36:53.000Z</time>
</trkpt>
<trkpt lat="45.9171850" lon="10.3378400">
	<ele>1153.60</ele>
	<time>2025-04-29T06:36:54.000Z</time>
</trkpt>
<trkpt lat="45.9171700" lon="10.3378380">
	<ele>1153.80</ele>
	<time>2025-04-29T06:36:55.000Z</time>
</trkpt>
<trkpt lat="45.9171650" lon="10.3378430">
	<ele>1153.80</ele>
	<time>2025-04-29T06:36:56.000Z</time>
</trkpt>
<trkpt lat="45.9171650" lon="10.3378550">
	<ele>1154.00</ele>
	<time>2025-04-29T06:36:57.000Z</time>
</trkpt>
<trkpt lat="45.9171620" lon="10.3378600">
	<ele>1154.00</ele>
	<time>2025-04-29T06:36:58.000Z</time>
</trkpt>
<trkpt lat="45.9171630" lon="10.3378670">
	<ele>1154.40</ele>
	<time>2025-04-29T06:36:59.000Z</time>
</trkpt>
<trkpt lat="45.9171630" lon="10.3378790">
	<ele>1154.60</ele>
	<time>2025-04-29T06:37:00.000Z</time>
</trkpt>
<trkpt lat="45.9171650" lon="10.3378880">
	<ele>1154.80</ele>
	<time>2025-04-29T06:37:01.000Z</time>
</trkpt>
<trkpt lat="45.9171660" lon="10.3378950">
	<ele>1154.80</ele>
	<time>2025-04-29T06:37:02.000Z</time>
</trkpt>
<trkpt lat="45.9171580" lon="10.3379110">
	<ele>1155.00</ele>
	<time>2025-04-29T06:37:03.000Z</time>
</trkpt>
<trkpt lat="45.9171490" lon="10.3379170">
	<ele>1155.20</ele>
	<time>2025-04-29T06:37:04.000Z</time>
</trkpt>
<trkpt lat="45.9171480" lon="10.3379240">
	<ele>1155.40</ele>
	<time>2025-04-29T06:37:05.000Z</time>
</trkpt>
<trkpt lat="45.9171460" lon="10.3379380">
	<ele>1155.60</ele>
	<time>2025-04-29T06:37:06.000Z</time>
</trkpt>
<trkpt lat="45.9171390" lon="10.3379550">
	<ele>1155.80</ele>
	<time>2025-04-29T06:37:07.000Z</time>
</trkpt>
<trkpt lat="45.9171370" lon="10.3379740">
	<ele>1156.00</ele>
	<time>2025-04-29T06:37:08.000Z</time>
</trkpt>
<trkpt lat="45.9171370" lon="10.3379870">
	<ele>1156.00</ele>
	<time>2025-04-29T06:37:09.000Z</time>
</trkpt>
<trkpt lat="45.9171390" lon="10.3379960">
	<ele>1156.40</ele>
	<time>2025-04-29T06:37:10.000Z</time>
</trkpt>
<trkpt lat="45.9171410" lon="10.3380080">
	<ele>1156.60</ele>
	<time>2025-04-29T06:37:11.000Z</time>
</trkpt>
<trkpt lat="45.9171400" lon="10.3380140">
	<ele>1156.80</ele>
	<time>2025-04-29T06:37:12.000Z</time>
</trkpt>
<trkpt lat="45.9171360" lon="10.3380190">
	<ele>1157.00</ele>
	<time>2025-04-29T06:37:13.000Z</time>
</trkpt>
<trkpt lat="45.9171310" lon="10.3380260">
	<ele>1157.00</ele>
	<time>2025-04-29T06:37:14.000Z</time>
</trkpt>
<trkpt lat="45.9171270" lon="10.3380390">
	<ele>1157.20</ele>
	<time>2025-04-29T06:37:15.000Z</time>
</trkpt>
<trkpt lat="45.9171230" lon="10.3380570">
	<ele>1157.40</ele>
	<time>2025-04-29T06:37:16.000Z</time>
</trkpt>
<trkpt lat="45.9171210" lon="10.3380700">
	<ele>1157.60</ele>
	<time>2025-04-29T06:37:17.000Z</time>
</trkpt>
<trkpt lat="45.9171230" lon="10.3380820">
	<ele>1157.80</ele>
	<time>2025-04-29T06:37:18.000Z</time>
</trkpt>
<trkpt lat="45.9171220" lon="10.3380910">
	<ele>1158.00</ele>
	<time>2025-04-29T06:37:19.000Z</time>
</trkpt>
<trkpt lat="45.9171280" lon="10.3380890">
	<ele>1158.20</ele>
	<time>2025-04-29T06:37:20.000Z</time>
</trkpt>
<trkpt lat="45.9171290" lon="10.3380870">
	<ele>1158.40</ele>
	<time>2025-04-29T06:37:21.000Z</time>
</trkpt>
<trkpt lat="45.9171320" lon="10.3380930">
	<ele>1158.80</ele>
	<time>2025-04-29T06:37:22.000Z</time>
</trkpt>
<trkpt lat="45.9171350" lon="10.3381080">
	<ele>1159.00</ele>
	<time>2025-04-29T06:37:23.000Z</time>
</trkpt>
<trkpt lat="45.9171390" lon="10.3381230">
	<ele>1159.40</ele>
	<time>2025-04-29T06:37:24.000Z</time>
</trkpt>
<trkpt lat="45.9171470" lon="10.3381350">
	<ele>1159.60</ele>
	<time>2025-04-29T06:37:25.000Z</time>
</trkpt>
<trkpt lat="45.9171470" lon="10.3381490">
	<ele>1159.60</ele>
	<time>2025-04-29T06:37:26.000Z</time>
</trkpt>
<trkpt lat="45.9171490" lon="10.3381540">
	<ele>1159.80</ele>
	<time>2025-04-29T06:37:27.000Z</time>
</trkpt>
<trkpt lat="45.9171460" lon="10.3381550">
	<ele>1159.80</ele>
	<time>2025-04-29T06:37:28.000Z</time>
</trkpt>
<trkpt lat="45.9171440" lon="10.3381620">
	<ele>1159.80</ele>
	<time>2025-04-29T06:37:29.000Z</time>
</trkpt>
<trkpt lat="45.9171450" lon="10.3381710">
	<ele>1160.00</ele>
	<time>2025-04-29T06:37:30.000Z</time>
</trkpt>
<trkpt lat="45.9171400" lon="10.3381800">
	<ele>1160.20</ele>
	<time>2025-04-29T06:37:31.000Z</time>
</trkpt>
<trkpt lat="45.9171370" lon="10.3381890">
	<ele>1160.40</ele>
	<time>2025-04-29T06:37:32.000Z</time>
</trkpt>
<trkpt lat="45.9171300" lon="10.3381990">
	<ele>1160.60</ele>
	<time>2025-04-29T06:37:33.000Z</time>
</trkpt>
<trkpt lat="45.9171210" lon="10.3382110">
	<ele>1160.80</ele>
	<time>2025-04-29T06:37:34.000Z</time>
</trkpt>
<trkpt lat="45.9171210" lon="10.3382240">
	<ele>1161.00</ele>
	<time>2025-04-29T06:37:35.000Z</time>
</trkpt>
<trkpt lat="45.9171210" lon="10.3382370">
	<ele>1161.20</ele>
	<time>2025-04-29T06:37:36.000Z</time>
</trkpt>
<trkpt lat="45.9171310" lon="10.3382520">
	<ele>1161.20</ele>
	<time>2025-04-29T06:37:37.000Z</time>
</trkpt>
<trkpt lat="45.9171400" lon="10.3382670">
	<ele>1161.40</ele>
	<time>2025-04-29T06:37:38.000Z</time>
</trkpt>
<trkpt lat="45.9171440" lon="10.3382770">
	<ele>1161.60</ele>
	<time>2025-04-29T06:37:39.000Z</time>
</trkpt>
<trkpt lat="45.9171460" lon="10.3382850">
	<ele>1161.80</ele>
	<time>2025-04-29T06:37:40.000Z</time>
</trkpt>
<trkpt lat="45.9171490" lon="10.3382950">
	<ele>1162.00</ele>
	<time>2025-04-29T06:37:41.000Z</time>
</trkpt>
<trkpt lat="45.9171560" lon="10.3383120">
	<ele>1162.20</ele>
	<time>2025-04-29T06:37:42.000Z</time>
</trkpt>
<trkpt lat="45.9171590" lon="10.3383270">
	<ele>1162.60</ele>
	<time>2025-04-29T06:37:43.000Z</time>
</trkpt>
<trkpt lat="45.9171600" lon="10.3383430">
	<ele>1162.80</ele>
	<time>2025-04-29T06:37:44.000Z</time>
</trkpt>
<trkpt lat="45.9171580" lon="10.3383540">
	<ele>1163.00</ele>
	<time>2025-04-29T06:37:45.000Z</time>
</trkpt>
<trkpt lat="45.9171570" lon="10.3383710">
	<ele>1163.00</ele>
	<time>2025-04-29T06:37:46.000Z</time>
</trkpt>
<trkpt lat="45.9171490" lon="10.3383940">
	<ele>1163.20</ele>
	<time>2025-04-29T06:37:47.000Z</time>
</trkpt>
<trkpt lat="45.9171380" lon="10.3384150">
	<ele>1163.40</ele>
	<time>2025-04-29T06:37:48.000Z</time>
</trkpt>
<trkpt lat="45.9171260" lon="10.3384270">
	<ele>1163.60</ele>
	<time>2025-04-29T06:37:49.000Z</time>
</trkpt>
<trkpt lat="45.9171190" lon="10.3384340">
	<ele>1163.80</ele>
	<time>2025-04-29T06:37:50.000Z</time>
</trkpt>
<trkpt lat="45.9171210" lon="10.3384420">
	<ele>1164.00</ele>
	<time>2025-04-29T06:37:51.000Z</time>
</trkpt>
<trkpt lat="45.9171240" lon="10.3384640">
	<ele>1164.20</ele>
	<time>2025-04-29T06:37:52.000Z</time>
</trkpt>
<trkpt lat="45.9171110" lon="10.3384780">
	<ele>1164.20</ele>
	<time>2025-04-29T06:37:53.000Z</time>
</trkpt>
<trkpt lat="45.9171090" lon="10.3384850">
	<ele>1164.40</ele>
	<time>2025-04-29T06:37:54.000Z</time>
</trkpt>
<trkpt lat="45.9170980" lon="10.3385000">
	<ele>1164.60</ele>
	<time>2025-04-29T06:37:55.000Z</time>
</trkpt>
<trkpt lat="45.9170890" lon="10.3385200">
	<ele>1164.60</ele>
	<time>2025-04-29T06:37:56.000Z</time>
</trkpt>
<trkpt lat="45.9170620" lon="10.3385360">
	<ele>1164.80</ele>
	<time>2025-04-29T06:37:57.000Z</time>
</trkpt>
<trkpt lat="45.9170390" lon="10.3385480">
	<ele>1165.00</ele>
	<time>2025-04-29T06:37:58.000Z</time>
</trkpt>
<trkpt lat="45.9170270" lon="10.3385610">
	<ele>1165.20</ele>
	<time>2025-04-29T06:37:59.000Z</time>
</trkpt>
<trkpt lat="45.9170140" lon="10.3385750">
	<ele>1165.60</ele>
	<time>2025-04-29T06:38:00.000Z</time>
</trkpt>
<trkpt lat="45.9170040" lon="10.3385910">
	<ele>1165.80</ele>
	<time>2025-04-29T06:38:01.000Z</time>
</trkpt>
<trkpt lat="45.9169990" lon="10.3385970">
	<ele>1166.00</ele>
	<time>2025-04-29T06:38:02.000Z</time>
</trkpt>
<trkpt lat="45.9169890" lon="10.3386050">
	<ele>1166.20</ele>
	<time>2025-04-29T06:38:03.000Z</time>
</trkpt>
<trkpt lat="45.9169860" lon="10.3386150">
	<ele>1166.40</ele>
	<time>2025-04-29T06:38:04.000Z</time>
</trkpt>
<trkpt lat="45.9169800" lon="10.3386220">
	<ele>1166.40</ele>
	<time>2025-04-29T06:38:05.000Z</time>
</trkpt>
<trkpt lat="45.9169830" lon="10.3386200">
	<ele>1166.80</ele>
	<time>2025-04-29T06:38:06.000Z</time>
</trkpt>
<trkpt lat="45.9169870" lon="10.3386290">
	<ele>1166.80</ele>
	<time>2025-04-29T06:38:07.000Z</time>
</trkpt>
<trkpt lat="45.9169980" lon="10.3386390">
	<ele>1167.00</ele>
	<time>2025-04-29T06:38:08.000Z</time>
</trkpt>
<trkpt lat="45.9170140" lon="10.3386460">
	<ele>1167.20</ele>
	<time>2025-04-29T06:38:09.000Z</time>
</trkpt>
<trkpt lat="45.9170210" lon="10.3386490">
	<ele>1167.40</ele>
	<time>2025-04-29T06:38:10.000Z</time>
</trkpt>
<trkpt lat="45.9170230" lon="10.3386590">
	<ele>1167.60</ele>
	<time>2025-04-29T06:38:11.000Z</time>
</trkpt>
<trkpt lat="45.9170260" lon="10.3386760">
	<ele>1167.80</ele>
	<time>2025-04-29T06:38:12.000Z</time>
</trkpt>
<trkpt lat="45.9170250" lon="10.3386930">
	<ele>1168.00</ele>
	<time>2025-04-29T06:38:13.000Z</time>
</trkpt>
<trkpt lat="45.9170270" lon="10.3387010">
	<ele>1168.40</ele>
	<time>2025-04-29T06:38:14.000Z</time>
</trkpt>
<trkpt lat="45.9170130" lon="10.3387210">
	<ele>1168.60</ele>
	<time>2025-04-29T06:38:15.000Z</time>
</trkpt>
<trkpt lat="45.9170200" lon="10.3387350">
	<ele>1168.80</ele>
	<time>2025-04-29T06:38:16.000Z</time>
</trkpt>
<trkpt lat="45.9170100" lon="10.3387440">
	<ele>1169.00</ele>
	<time>2025-04-29T06:38:17.000Z</time>
</trkpt>
<trkpt lat="45.9170100" lon="10.3387510">
	<ele>1169.00</ele>
	<time>2025-04-29T06:38:18.000Z</time>
</trkpt>
<trkpt lat="45.9170030" lon="10.3387740">
	<ele>1169.20</ele>
	<time>2025-04-29T06:38:19.000Z</time>
</trkpt>
<trkpt lat="45.9170160" lon="10.3387860">
	<ele>1169.20</ele>
	<time>2025-04-29T06:38:20.000Z</time>
</trkpt>
<trkpt lat="45.9170190" lon="10.3387850">
	<ele>1169.40</ele>
	<time>2025-04-29T06:38:21.000Z</time>
</trkpt>
<trkpt lat="45.9170220" lon="10.3387820">
	<ele>1169.80</ele>
	<time>2025-04-29T06:38:22.000Z</time>
</trkpt>
<trkpt lat="45.9170340" lon="10.3387670">
	<ele>1170.20</ele>
	<time>2025-04-29T06:38:23.000Z</time>
</trkpt>
<trkpt lat="45.9170340" lon="10.3387460">
	<ele>1170.40</ele>
	<time>2025-04-29T06:38:24.000Z</time>
</trkpt>
<trkpt lat="45.9170350" lon="10.3387390">
	<ele>1170.40</ele>
	<time>2025-04-29T06:38:25.000Z</time>
</trkpt>
<trkpt lat="45.9170450" lon="10.3387420">
	<ele>1170.40</ele>
	<time>2025-04-29T06:38:26.000Z</time>
</trkpt>
<trkpt lat="45.9170490" lon="10.3387450">
	<ele>1170.40</ele>
	<time>2025-04-29T06:38:27.000Z</time>
</trkpt>
<trkpt lat="45.9170510" lon="10.3387480">
	<ele>1170.60</ele>
	<time>2025-04-29T06:38:28.000Z</time>
</trkpt>
<trkpt lat="45.9170480" lon="10.3387640">
	<ele>1170.60</ele>
	<time>2025-04-29T06:38:29.000Z</time>
</trkpt>
<trkpt lat="45.9170460" lon="10.3387700">
	<ele>1170.80</ele>
	<time>2025-04-29T06:38:30.000Z</time>
</trkpt>
<trkpt lat="45.9170420" lon="10.3387770">
	<ele>1170.80</ele>
	<time>2025-04-29T06:38:31.000Z</time>
</trkpt>
<trkpt lat="45.9170390" lon="10.3387770">
	<ele>1171.00</ele>
	<time>2025-04-29T06:38:32.000Z</time>
</trkpt>
<trkpt lat="45.9170380" lon="10.3387760">
	<ele>1171.20</ele>
	<time>2025-04-29T06:38:33.000Z</time>
</trkpt>
<trkpt lat="45.9170390" lon="10.3387770">
	<ele>1171.20</ele>
	<time>2025-04-29T06:38:34.000Z</time>
</trkpt>
<trkpt lat="45.9170420" lon="10.3387820">
	<ele>1171.40</ele>
	<time>2025-04-29T06:38:35.000Z</time>
</trkpt>
<trkpt lat="45.9170570" lon="10.3387800">
	<ele>1171.40</ele>
	<time>2025-04-29T06:38:36.000Z</time>
</trkpt>
<trkpt lat="45.9170650" lon="10.3387790">
	<ele>1171.40</ele>
	<time>2025-04-29T06:38:37.000Z</time>
</trkpt>
<trkpt lat="45.9170740" lon="10.3387760">
	<ele>1171.60</ele>
	<time>2025-04-29T06:38:38.000Z</time>
</trkpt>
<trkpt lat="45.9170760" lon="10.3387800">
	<ele>1171.60</ele>
	<time>2025-04-29T06:38:39.000Z</time>
</trkpt>
<trkpt lat="45.9170740" lon="10.3387860">
	<ele>1171.60</ele>
	<time>2025-04-29T06:38:40.000Z</time>
</trkpt>
<trkpt lat="45.9170720" lon="10.3387950">
	<ele>1171.60</ele>
	<time>2025-04-29T06:38:41.000Z</time>
</trkpt>
<trkpt lat="45.9170690" lon="10.3388030">
	<ele>1171.60</ele>
	<time>2025-04-29T06:38:42.000Z</time>
</trkpt>
<trkpt lat="45.9170700" lon="10.3388140">
	<ele>1171.60</ele>
	<time>2025-04-29T06:38:43.000Z</time>
</trkpt>
<trkpt lat="45.9170780" lon="10.3388170">
	<ele>1171.60</ele>
	<time>2025-04-29T06:38:44.000Z</time>
</trkpt>
<trkpt lat="45.9170900" lon="10.3388160">
	<ele>1171.40</ele>
	<time>2025-04-29T06:38:45.000Z</time>
</trkpt>
<trkpt lat="45.9171000" lon="10.3388100">
	<ele>1171.40</ele>
	<time>2025-04-29T06:38:46.000Z</time>
</trkpt>
<trkpt lat="45.9171070" lon="10.3388090">
	<ele>1171.40</ele>
	<time>2025-04-29T06:38:47.000Z</time>
</trkpt>
<trkpt lat="45.9171120" lon="10.3388130">
	<ele>1171.40</ele>
	<time>2025-04-29T06:38:48.000Z</time>
</trkpt>
<trkpt lat="45.9171110" lon="10.3388260">
	<ele>1171.40</ele>
	<time>2025-04-29T06:38:49.000Z</time>
</trkpt>
<trkpt lat="45.9171120" lon="10.3388340">
	<ele>1171.20</ele>
	<time>2025-04-29T06:38:50.000Z</time>
</trkpt>
<trkpt lat="45.9171130" lon="10.3388420">
	<ele>1171.20</ele>
	<time>2025-04-29T06:38:51.000Z</time>
</trkpt>
<trkpt lat="45.9171120" lon="10.3388520">
	<ele>1171.40</ele>
	<time>2025-04-29T06:38:52.000Z</time>
</trkpt>
<trkpt lat="45.9171130" lon="10.3388620">
	<ele>1171.40</ele>
	<time>2025-04-29T06:38:53.000Z</time>
</trkpt>
<trkpt lat="45.9171120" lon="10.3388740">
	<ele>1171.40</ele>
	<time>2025-04-29T06:38:54.000Z</time>
</trkpt>
<trkpt lat="45.9171150" lon="10.3388780">
	<ele>1171.40</ele>
	<time>2025-04-29T06:38:55.000Z</time>
</trkpt>
<trkpt lat="45.9171140" lon="10.3388820">
	<ele>1171.40</ele>
	<time>2025-04-29T06:38:56.000Z</time>
</trkpt>
<trkpt lat="45.9171160" lon="10.3388830">
	<ele>1171.60</ele>
	<time>2025-04-29T06:38:57.000Z</time>
</trkpt>
<trkpt lat="45.9171160" lon="10.3388810">
	<ele>1171.80</ele>
	<time>2025-04-29T06:38:58.000Z</time>
</trkpt>
<trkpt lat="45.9171170" lon="10.3388840">
	<ele>1171.80</ele>
	<time>2025-04-29T06:38:59.000Z</time>
</trkpt>
<trkpt lat="45.9171120" lon="10.3388950">
	<ele>1172.00</ele>
	<time>2025-04-29T06:39:00.000Z</time>
</trkpt>
<trkpt lat="45.9171110" lon="10.3388980">
	<ele>1172.00</ele>
	<time>2025-04-29T06:39:01.000Z</time>
</trkpt>
<trkpt lat="45.9171060" lon="10.3389110">
	<ele>1172.20</ele>
	<time>2025-04-29T06:39:02.000Z</time>
</trkpt>
<trkpt lat="45.9171010" lon="10.3389210">
	<ele>1172.40</ele>
	<time>2025-04-29T06:39:03.000Z</time>
</trkpt>
<trkpt lat="45.9170970" lon="10.3389300">
	<ele>1172.80</ele>
	<time>2025-04-29T06:39:04.000Z</time>
</trkpt>
<trkpt lat="45.9170950" lon="10.3389330">
	<ele>1173.00</ele>
	<time>2025-04-29T06:39:05.000Z</time>
</trkpt>
<trkpt lat="45.9170950" lon="10.3389460">
	<ele>1173.20</ele>
	<time>2025-04-29T06:39:06.000Z</time>
</trkpt>
<trkpt lat="45.9170950" lon="10.3389620">
	<ele>1173.60</ele>
	<time>2025-04-29T06:39:07.000Z</time>
</trkpt>
<trkpt lat="45.9170810" lon="10.3389710">
	<ele>1173.60</ele>
	<time>2025-04-29T06:39:08.000Z</time>
</trkpt>
<trkpt lat="45.9170840" lon="10.3389840">
	<ele>1173.80</ele>
	<time>2025-04-29T06:39:09.000Z</time>
</trkpt>
<trkpt lat="45.9170870" lon="10.3389940">
	<ele>1174.00</ele>
	<time>2025-04-29T06:39:10.000Z</time>
</trkpt>
<trkpt lat="45.9170920" lon="10.3389980">
	<ele>1174.20</ele>
	<time>2025-04-29T06:39:11.000Z</time>
</trkpt>
<trkpt lat="45.9171000" lon="10.3390020">
	<ele>1174.40</ele>
	<time>2025-04-29T06:39:12.000Z</time>
</trkpt>
<trkpt lat="45.9171060" lon="10.3390110">
	<ele>1174.40</ele>
	<time>2025-04-29T06:39:13.000Z</time>
</trkpt>
<trkpt lat="45.9170950" lon="10.3390200">
	<ele>1174.60</ele>
	<time>2025-04-29T06:39:14.000Z</time>
</trkpt>
<trkpt lat="45.9170940" lon="10.3390240">
	<ele>1174.80</ele>
	<time>2025-04-29T06:39:15.000Z</time>
</trkpt>
<trkpt lat="45.9170910" lon="10.3390310">
	<ele>1175.00</ele>
	<time>2025-04-29T06:39:16.000Z</time>
</trkpt>
<trkpt lat="45.9170870" lon="10.3390410">
	<ele>1175.20</ele>
	<time>2025-04-29T06:39:17.000Z</time>
</trkpt>
<trkpt lat="45.9170790" lon="10.3390460">
	<ele>1175.40</ele>
	<time>2025-04-29T06:39:18.000Z</time>
</trkpt>
<trkpt lat="45.9170820" lon="10.3390540">
	<ele>1175.60</ele>
	<time>2025-04-29T06:39:19.000Z</time>
</trkpt>
<trkpt lat="45.9170850" lon="10.3390650">
	<ele>1175.60</ele>
	<time>2025-04-29T06:39:20.000Z</time>
</trkpt>
<trkpt lat="45.9170890" lon="10.3390680">
	<ele>1176.00</ele>
	<time>2025-04-29T06:39:21.000Z</time>
</trkpt>
<trkpt lat="45.9170890" lon="10.3390690">
	<ele>1176.20</ele>
	<time>2025-04-29T06:39:22.000Z</time>
</trkpt>
<trkpt lat="45.9170790" lon="10.3390720">
	<ele>1176.40</ele>
	<time>2025-04-29T06:39:23.000Z</time>
</trkpt>
<trkpt lat="45.9170670" lon="10.3390760">
	<ele>1176.40</ele>
	<time>2025-04-29T06:39:24.000Z</time>
</trkpt>
<trkpt lat="45.9170650" lon="10.3390890">
	<ele>1176.60</ele>
	<time>2025-04-29T06:39:25.000Z</time>
</trkpt>
<trkpt lat="45.9170700" lon="10.3391070">
	<ele>1176.80</ele>
	<time>2025-04-29T06:39:26.000Z</time>
</trkpt>
<trkpt lat="45.9170790" lon="10.3391250">
	<ele>1176.80</ele>
	<time>2025-04-29T06:39:27.000Z</time>
</trkpt>
<trkpt lat="45.9170880" lon="10.3391400">
	<ele>1177.00</ele>
	<time>2025-04-29T06:39:28.000Z</time>
</trkpt>
<trkpt lat="45.9170970" lon="10.3391370">
	<ele>1177.20</ele>
	<time>2025-04-29T06:39:29.000Z</time>
</trkpt>
<trkpt lat="45.9171060" lon="10.3391410">
	<ele>1177.40</ele>
	<time>2025-04-29T06:39:30.000Z</time>
</trkpt>
<trkpt lat="45.9171070" lon="10.3391500">
	<ele>1177.60</ele>
	<time>2025-04-29T06:39:31.000Z</time>
</trkpt>
<trkpt lat="45.9171080" lon="10.3391560">
	<ele>1177.80</ele>
	<time>2025-04-29T06:39:32.000Z</time>
</trkpt>
<trkpt lat="45.9171000" lon="10.3391600">
	<ele>1178.00</ele>
	<time>2025-04-29T06:39:33.000Z</time>
</trkpt>
<trkpt lat="45.9170910" lon="10.3391640">
	<ele>1178.20</ele>
	<time>2025-04-29T06:39:34.000Z</time>
</trkpt>
<trkpt lat="45.9170840" lon="10.3391700">
	<ele>1178.40</ele>
	<time>2025-04-29T06:39:35.000Z</time>
</trkpt>
<trkpt lat="45.9170760" lon="10.3391770">
	<ele>1178.60</ele>
	<time>2025-04-29T06:39:36.000Z</time>
</trkpt>
<trkpt lat="45.9170740" lon="10.3391830">
	<ele>1178.60</ele>
	<time>2025-04-29T06:39:37.000Z</time>
</trkpt>
<trkpt lat="45.9170760" lon="10.3391730">
	<ele>1179.00</ele>
	<time>2025-04-29T06:39:38.000Z</time>
</trkpt>
<trkpt lat="45.9170780" lon="10.3391730">
	<ele>1179.20</ele>
	<time>2025-04-29T06:39:39.000Z</time>
</trkpt>
<trkpt lat="45.9170840" lon="10.3391820">
	<ele>1179.40</ele>
	<time>2025-04-29T06:39:40.000Z</time>
</trkpt>
<trkpt lat="45.9170810" lon="10.3391900">
	<ele>1179.60</ele>
	<time>2025-04-29T06:39:41.000Z</time>
</trkpt>
<trkpt lat="45.9170870" lon="10.3392020">
	<ele>1179.60</ele>
	<time>2025-04-29T06:39:42.000Z</time>
</trkpt>
<trkpt lat="45.9170810" lon="10.3392150">
	<ele>1180.00</ele>
	<time>2025-04-29T06:39:43.000Z</time>
</trkpt>
<trkpt lat="45.9170870" lon="10.3392260">
	<ele>1180.20</ele>
	<time>2025-04-29T06:39:44.000Z</time>
</trkpt>
<trkpt lat="45.9170910" lon="10.3392340">
	<ele>1180.40</ele>
	<time>2025-04-29T06:39:45.000Z</time>
</trkpt>
<trkpt lat="45.9170930" lon="10.3392360">
	<ele>1180.60</ele>
	<time>2025-04-29T06:39:46.000Z</time>
</trkpt>
<trkpt lat="45.9170970" lon="10.3392450">
	<ele>1180.80</ele>
	<time>2025-04-29T06:39:47.000Z</time>
</trkpt>
<trkpt lat="45.9171030" lon="10.3392530">
	<ele>1181.00</ele>
	<time>2025-04-29T06:39:48.000Z</time>
</trkpt>
<trkpt lat="45.9170950" lon="10.3392600">
	<ele>1181.20</ele>
	<time>2025-04-29T06:39:49.000Z</time>
</trkpt>
<trkpt lat="45.9170840" lon="10.3392660">
	<ele>1181.40</ele>
	<time>2025-04-29T06:39:50.000Z</time>
</trkpt>
<trkpt lat="45.9170690" lon="10.3392760">
	<ele>1181.60</ele>
	<time>2025-04-29T06:39:51.000Z</time>
</trkpt>
<trkpt lat="45.9170560" lon="10.3392790">
	<ele>1181.80</ele>
	<time>2025-04-29T06:39:52.000Z</time>
</trkpt>
<trkpt lat="45.9170510" lon="10.3392780">
	<ele>1182.00</ele>
	<time>2025-04-29T06:39:53.000Z</time>
</trkpt>
<trkpt lat="45.9170480" lon="10.3392870">
	<ele>1182.20</ele>
	<time>2025-04-29T06:39:54.000Z</time>
</trkpt>
<trkpt lat="45.9170450" lon="10.3392980">
	<ele>1182.40</ele>
	<time>2025-04-29T06:39:55.000Z</time>
</trkpt>
<trkpt lat="45.9170420" lon="10.3393090">
	<ele>1182.40</ele>
	<time>2025-04-29T06:39:56.000Z</time>
</trkpt>
<trkpt lat="45.9170560" lon="10.3393330">
	<ele>1182.60</ele>
	<time>2025-04-29T06:39:57.000Z</time>
</trkpt>
<trkpt lat="45.9170790" lon="10.3393640">
	<ele>1182.80</ele>
	<time>2025-04-29T06:39:58.000Z</time>
</trkpt>
<trkpt lat="45.9170880" lon="10.3393870">
	<ele>1183.00</ele>
	<time>2025-04-29T06:39:59.000Z</time>
</trkpt>
<trkpt lat="45.9170900" lon="10.3393980">
	<ele>1183.20</ele>
	<time>2025-04-29T06:40:00.000Z</time>
</trkpt>
<trkpt lat="45.9170920" lon="10.3394060">
	<ele>1183.40</ele>
	<time>2025-04-29T06:40:01.000Z</time>
</trkpt>
<trkpt lat="45.9170880" lon="10.3394200">
	<ele>1183.60</ele>
	<time>2025-04-29T06:40:02.000Z</time>
</trkpt>
<trkpt lat="45.9170850" lon="10.3394240">
	<ele>1183.80</ele>
	<time>2025-04-29T06:40:03.000Z</time>
</trkpt>
<trkpt lat="45.9170870" lon="10.3394370">
	<ele>1184.00</ele>
	<time>2025-04-29T06:40:04.000Z</time>
</trkpt>
<trkpt lat="45.9170830" lon="10.3394450">
	<ele>1184.20</ele>
	<time>2025-04-29T06:40:05.000Z</time>
</trkpt>
<trkpt lat="45.9170840" lon="10.3394540">
	<ele>1184.40</ele>
	<time>2025-04-29T06:40:06.000Z</time>
</trkpt>
<trkpt lat="45.9170830" lon="10.3394640">
	<ele>1184.60</ele>
	<time>2025-04-29T06:40:07.000Z</time>
</trkpt>
<trkpt lat="45.9170800" lon="10.3394720">
	<ele>1184.80</ele>
	<time>2025-04-29T06:40:08.000Z</time>
</trkpt>
<trkpt lat="45.9170790" lon="10.3394810">
	<ele>1184.80</ele>
	<time>2025-04-29T06:40:09.000Z</time>
</trkpt>
<trkpt lat="45.9170810" lon="10.3394970">
	<ele>1185.00</ele>
	<time>2025-04-29T06:40:10.000Z</time>
</trkpt>
<trkpt lat="45.9170840" lon="10.3395060">
	<ele>1185.00</ele>
	<time>2025-04-29T06:40:11.000Z</time>
</trkpt>
<trkpt lat="45.9170770" lon="10.3395120">
	<ele>1185.20</ele>
	<time>2025-04-29T06:40:12.000Z</time>
</trkpt>
<trkpt lat="45.9170690" lon="10.3395130">
	<ele>1185.40</ele>
	<time>2025-04-29T06:40:13.000Z</time>
</trkpt>
<trkpt lat="45.9170560" lon="10.3395160">
	<ele>1185.60</ele>
	<time>2025-04-29T06:40:14.000Z</time>
</trkpt>
<trkpt lat="45.9170470" lon="10.3395270">
	<ele>1185.80</ele>
	<time>2025-04-29T06:40:15.000Z</time>
</trkpt>
<trkpt lat="45.9170400" lon="10.3395290">
	<ele>1186.00</ele>
	<time>2025-04-29T06:40:16.000Z</time>
</trkpt>
<trkpt lat="45.9170300" lon="10.3395330">
	<ele>1186.20</ele>
	<time>2025-04-29T06:40:17.000Z</time>
</trkpt>
<trkpt lat="45.9170240" lon="10.3395440">
	<ele>1186.20</ele>
	<time>2025-04-29T06:40:18.000Z</time>
</trkpt>
<trkpt lat="45.9170150" lon="10.3395580">
	<ele>1186.40</ele>
	<time>2025-04-29T06:40:19.000Z</time>
</trkpt>
<trkpt lat="45.9170040" lon="10.3395690">
	<ele>1186.60</ele>
	<time>2025-04-29T06:40:20.000Z</time>
</trkpt>
<trkpt lat="45.9169910" lon="10.3395810">
	<ele>1186.60</ele>
	<time>2025-04-29T06:40:21.000Z</time>
</trkpt>
<trkpt lat="45.9169780" lon="10.3395850">
	<ele>1186.80</ele>
	<time>2025-04-29T06:40:22.000Z</time>
</trkpt>
<trkpt lat="45.9169670" lon="10.3395940">
	<ele>1186.80</ele>
	<time>2025-04-29T06:40:23.000Z</time>
</trkpt>
<trkpt lat="45.9169540" lon="10.3396000">
	<ele>1187.00</ele>
	<time>2025-04-29T06:40:24.000Z</time>
</trkpt>
<trkpt lat="45.9169440" lon="10.3396070">
	<ele>1187.20</ele>
	<time>2025-04-29T06:40:25.000Z</time>
</trkpt>
<trkpt lat="45.9169350" lon="10.3396130">
	<ele>1187.40</ele>
	<time>2025-04-29T06:40:26.000Z</time>
</trkpt>
<trkpt lat="45.9169270" lon="10.3396070">
	<ele>1187.40</ele>
	<time>2025-04-29T06:40:27.000Z</time>
</trkpt>
<trkpt lat="45.9169080" lon="10.3395910">
	<ele>1187.60</ele>
	<time>2025-04-29T06:40:28.000Z</time>
</trkpt>
<trkpt lat="45.9168950" lon="10.3395780">
	<ele>1187.80</ele>
	<time>2025-04-29T06:40:29.000Z</time>
</trkpt>
<trkpt lat="45.9168810" lon="10.3395740">
	<ele>1187.80</ele>
	<time>2025-04-29T06:40:30.000Z</time>
</trkpt>
<trkpt lat="45.9168670" lon="10.3395820">
	<ele>1188.00</ele>
	<time>2025-04-29T06:40:31.000Z</time>
</trkpt>
<trkpt lat="45.9168520" lon="10.3395910">
	<ele>1188.20</ele>
	<time>2025-04-29T06:40:32.000Z</time>
</trkpt>
<trkpt lat="45.9168460" lon="10.3396100">
	<ele>1188.20</ele>
	<time>2025-04-29T06:40:33.000Z</time>
</trkpt>
<trkpt lat="45.9168400" lon="10.3396300">
	<ele>1188.40</ele>
	<time>2025-04-29T06:40:34.000Z</time>
</trkpt>
<trkpt lat="45.9168340" lon="10.3396520">
	<ele>1188.60</ele>
	<time>2025-04-29T06:40:35.000Z</time>
</trkpt>
<trkpt lat="45.9168320" lon="10.3396710">
	<ele>1188.80</ele>
	<time>2025-04-29T06:40:36.000Z</time>
</trkpt>
<trkpt lat="45.9168290" lon="10.3396890">
	<ele>1188.80</ele>
	<time>2025-04-29T06:40:37.000Z</time>
</trkpt>
<trkpt lat="45.9168210" lon="10.3396970">
	<ele>1189.00</ele>
	<time>2025-04-29T06:40:38.000Z</time>
</trkpt>
<trkpt lat="45.9168180" lon="10.3397090">
	<ele>1189.20</ele>
	<time>2025-04-29T06:40:39.000Z</time>
</trkpt>
<trkpt lat="45.9168160" lon="10.3397290">
	<ele>1189.20</ele>
	<time>2025-04-29T06:40:40.000Z</time>
</trkpt>
<trkpt lat="45.9168120" lon="10.3397460">
	<ele>1189.40</ele>
	<time>2025-04-29T06:40:41.000Z</time>
</trkpt>
<trkpt lat="45.9168120" lon="10.3397620">
	<ele>1189.60</ele>
	<time>2025-04-29T06:40:42.000Z</time>
</trkpt>
<trkpt lat="45.9168130" lon="10.3397740">
	<ele>1189.60</ele>
	<time>2025-04-29T06:40:43.000Z</time>
</trkpt>
<trkpt lat="45.9168070" lon="10.3397930">
	<ele>1189.80</ele>
	<time>2025-04-29T06:40:44.000Z</time>
</trkpt>
<trkpt lat="45.9167970" lon="10.3398110">
	<ele>1189.80</ele>
	<time>2025-04-29T06:40:45.000Z</time>
</trkpt>
<trkpt lat="45.9167880" lon="10.3398210">
	<ele>1190.00</ele>
	<time>2025-04-29T06:40:46.000Z</time>
</trkpt>
<trkpt lat="45.9167850" lon="10.3398320">
	<ele>1190.20</ele>
	<time>2025-04-29T06:40:47.000Z</time>
</trkpt>
<trkpt lat="45.9167860" lon="10.3398350">
	<ele>1190.40</ele>
	<time>2025-04-29T06:40:48.000Z</time>
</trkpt>
<trkpt lat="45.9167820" lon="10.3398500">
	<ele>1190.40</ele>
	<time>2025-04-29T06:40:49.000Z</time>
</trkpt>
<trkpt lat="45.9167880" lon="10.3398570">
	<ele>1190.60</ele>
	<time>2025-04-29T06:40:50.000Z</time>
</trkpt>
<trkpt lat="45.9167960" lon="10.3398710">
	<ele>1190.60</ele>
	<time>2025-04-29T06:40:51.000Z</time>
</trkpt>
<trkpt lat="45.9168000" lon="10.3398870">
	<ele>1190.60</ele>
	<time>2025-04-29T06:40:52.000Z</time>
</trkpt>
<trkpt lat="45.9168020" lon="10.3399000">
	<ele>1190.80</ele>
	<time>2025-04-29T06:40:53.000Z</time>
</trkpt>
<trkpt lat="45.9168030" lon="10.3399030">
	<ele>1190.80</ele>
	<time>2025-04-29T06:40:54.000Z</time>
</trkpt>
<trkpt lat="45.9168030" lon="10.3399050">
	<ele>1191.00</ele>
	<time>2025-04-29T06:40:55.000Z</time>
</trkpt>
<trkpt lat="45.9168040" lon="10.3399080">
	<ele>1191.00</ele>
	<time>2025-04-29T06:40:56.000Z</time>
</trkpt>
<trkpt lat="45.9168020" lon="10.3399190">
	<ele>1191.40</ele>
	<time>2025-04-29T06:40:57.000Z</time>
</trkpt>
<trkpt lat="45.9168160" lon="10.3398980">
	<ele>1191.60</ele>
	<time>2025-04-29T06:40:58.000Z</time>
</trkpt>
<trkpt lat="45.9168270" lon="10.3398900">
	<ele>1191.80</ele>
	<time>2025-04-29T06:40:59.000Z</time>
</trkpt>
<trkpt lat="45.9168360" lon="10.3398900">
	<ele>1191.80</ele>
	<time>2025-04-29T06:41:00.000Z</time>
</trkpt>
<trkpt lat="45.9168250" lon="10.3398870">
	<ele>1192.00</ele>
	<time>2025-04-29T06:41:01.000Z</time>
</trkpt>
<trkpt lat="45.9168240" lon="10.3398840">
	<ele>1192.00</ele>
	<time>2025-04-29T06:41:02.000Z</time>
</trkpt>
<trkpt lat="45.9168270" lon="10.3398850">
	<ele>1192.00</ele>
	<time>2025-04-29T06:41:03.000Z</time>
</trkpt>
<trkpt lat="45.9168230" lon="10.3398980">
	<ele>1192.20</ele>
	<time>2025-04-29T06:41:04.000Z</time>
</trkpt>
<trkpt lat="45.9168250" lon="10.3399070">
	<ele>1192.40</ele>
	<time>2025-04-29T06:41:05.000Z</time>
</trkpt>
<trkpt lat="45.9168210" lon="10.3399150">
	<ele>1192.60</ele>
	<time>2025-04-29T06:41:06.000Z</time>
</trkpt>
<trkpt lat="45.9168190" lon="10.3399320">
	<ele>1192.80</ele>
	<time>2025-04-29T06:41:07.000Z</time>
</trkpt>
<trkpt lat="45.9168140" lon="10.3399600">
	<ele>1193.00</ele>
	<time>2025-04-29T06:41:08.000Z</time>
</trkpt>
<trkpt lat="45.9168110" lon="10.3399840">
	<ele>1193.20</ele>
	<time>2025-04-29T06:41:09.000Z</time>
</trkpt>
<trkpt lat="45.9168130" lon="10.3399910">
	<ele>1193.20</ele>
	<time>2025-04-29T06:41:10.000Z</time>
</trkpt>
<trkpt lat="45.9168070" lon="10.3400130">
	<ele>1193.40</ele>
	<time>2025-04-29T06:41:11.000Z</time>
</trkpt>
<trkpt lat="45.9168060" lon="10.3400340">
	<ele>1193.60</ele>
	<time>2025-04-29T06:41:12.000Z</time>
</trkpt>
<trkpt lat="45.9168080" lon="10.3400410">
	<ele>1193.80</ele>
	<time>2025-04-29T06:41:13.000Z</time>
</trkpt>
<trkpt lat="45.9168080" lon="10.3400460">
	<ele>1194.00</ele>
	<time>2025-04-29T06:41:14.000Z</time>
</trkpt>
<trkpt lat="45.9168080" lon="10.3400550">
	<ele>1194.20</ele>
	<time>2025-04-29T06:41:15.000Z</time>
</trkpt>
<trkpt lat="45.9168100" lon="10.3400670">
	<ele>1194.40</ele>
	<time>2025-04-29T06:41:16.000Z</time>
</trkpt>
<trkpt lat="45.9168060" lon="10.3400780">
	<ele>1194.60</ele>
	<time>2025-04-29T06:41:17.000Z</time>
</trkpt>
<trkpt lat="45.9168040" lon="10.3400860">
	<ele>1194.80</ele>
	<time>2025-04-29T06:41:18.000Z</time>
</trkpt>
<trkpt lat="45.9168060" lon="10.3400890">
	<ele>1194.80</ele>
	<time>2025-04-29T06:41:19.000Z</time>
</trkpt>
<trkpt lat="45.9168120" lon="10.3400940">
	<ele>1195.20</ele>
	<time>2025-04-29T06:41:20.000Z</time>
</trkpt>
<trkpt lat="45.9168180" lon="10.3400990">
	<ele>1195.40</ele>
	<time>2025-04-29T06:41:21.000Z</time>
</trkpt>
<trkpt lat="45.9168200" lon="10.3401030">
	<ele>1195.40</ele>
	<time>2025-04-29T06:41:22.000Z</time>
</trkpt>
<trkpt lat="45.9168180" lon="10.3401150">
	<ele>1195.80</ele>
	<time>2025-04-29T06:41:23.000Z</time>
</trkpt>
<trkpt lat="45.9168130" lon="10.3401260">
	<ele>1195.80</ele>
	<time>2025-04-29T06:41:24.000Z</time>
</trkpt>
<trkpt lat="45.9168120" lon="10.3401320">
	<ele>1196.00</ele>
	<time>2025-04-29T06:41:25.000Z</time>
</trkpt>
<trkpt lat="45.9168110" lon="10.3401410">
	<ele>1196.20</ele>
	<time>2025-04-29T06:41:26.000Z</time>
</trkpt>
<trkpt lat="45.9168160" lon="10.3401560">
	<ele>1196.40</ele>
	<time>2025-04-29T06:41:27.000Z</time>
</trkpt>
<trkpt lat="45.9168140" lon="10.3401690">
	<ele>1196.60</ele>
	<time>2025-04-29T06:41:28.000Z</time>
</trkpt>
<trkpt lat="45.9168130" lon="10.3401810">
	<ele>1196.60</ele>
	<time>2025-04-29T06:41:29.000Z</time>
</trkpt>
<trkpt lat="45.9168110" lon="10.3401920">
	<ele>1196.80</ele>
	<time>2025-04-29T06:41:30.000Z</time>
</trkpt>
<trkpt lat="45.9168080" lon="10.3401960">
	<ele>1197.00</ele>
	<time>2025-04-29T06:41:31.000Z</time>
</trkpt>
<trkpt lat="45.9168030" lon="10.3402040">
	<ele>1197.40</ele>
	<time>2025-04-29T06:41:32.000Z</time>
</trkpt>
<trkpt lat="45.9168010" lon="10.3402120">
	<ele>1197.60</ele>
	<time>2025-04-29T06:41:33.000Z</time>
</trkpt>
<trkpt lat="45.9167990" lon="10.3402260">
	<ele>1197.80</ele>
	<time>2025-04-29T06:41:34.000Z</time>
</trkpt>
<trkpt lat="45.9167900" lon="10.3402210">
	<ele>1198.00</ele>
	<time>2025-04-29T06:41:35.000Z</time>
</trkpt>
<trkpt lat="45.9167890" lon="10.3402270">
	<ele>1198.20</ele>
	<time>2025-04-29T06:41:36.000Z</time>
</trkpt>
<trkpt lat="45.9167880" lon="10.3402330">
	<ele>1198.20</ele>
	<time>2025-04-29T06:41:37.000Z</time>
</trkpt>
<trkpt lat="45.9167890" lon="10.3402410">
	<ele>1198.40</ele>
	<time>2025-04-29T06:41:38.000Z</time>
</trkpt>
<trkpt lat="45.9167890" lon="10.3402450">
	<ele>1198.60</ele>
	<time>2025-04-29T06:41:39.000Z</time>
</trkpt>
<trkpt lat="45.9167860" lon="10.3402560">
	<ele>1198.80</ele>
	<time>2025-04-29T06:41:40.000Z</time>
</trkpt>
<trkpt lat="45.9167890" lon="10.3402670">
	<ele>1199.00</ele>
	<time>2025-04-29T06:41:41.000Z</time>
</trkpt>
<trkpt lat="45.9167910" lon="10.3402760">
	<ele>1199.20</ele>
	<time>2025-04-29T06:41:42.000Z</time>
</trkpt>
<trkpt lat="45.9167880" lon="10.3402850">
	<ele>1199.20</ele>
	<time>2025-04-29T06:41:43.000Z</time>
</trkpt>
<trkpt lat="45.9167870" lon="10.3402970">
	<ele>1199.40</ele>
	<time>2025-04-29T06:41:44.000Z</time>
</trkpt>
<trkpt lat="45.9167890" lon="10.3403150">
	<ele>1199.60</ele>
	<time>2025-04-29T06:41:45.000Z</time>
</trkpt>
<trkpt lat="45.9167850" lon="10.3403170">
	<ele>1199.80</ele>
	<time>2025-04-29T06:41:46.000Z</time>
</trkpt>
<trkpt lat="45.9167780" lon="10.3403280">
	<ele>1199.80</ele>
	<time>2025-04-29T06:41:47.000Z</time>
</trkpt>
<trkpt lat="45.9167730" lon="10.3403360">
	<ele>1200.00</ele>
	<time>2025-04-29T06:41:48.000Z</time>
</trkpt>
<trkpt lat="45.9167620" lon="10.3403370">
	<ele>1200.20</ele>
	<time>2025-04-29T06:41:49.000Z</time>
</trkpt>
<trkpt lat="45.9167520" lon="10.3403320">
	<ele>1200.40</ele>
	<time>2025-04-29T06:41:50.000Z</time>
</trkpt>
<trkpt lat="45.9167460" lon="10.3403300">
	<ele>1200.60</ele>
	<time>2025-04-29T06:41:51.000Z</time>
</trkpt>
<trkpt lat="45.9167430" lon="10.3403340">
	<ele>1200.80</ele>
	<time>2025-04-29T06:41:52.000Z</time>
</trkpt>
<trkpt lat="45.9167490" lon="10.3403510">
	<ele>1201.00</ele>
	<time>2025-04-29T06:41:53.000Z</time>
</trkpt>
<trkpt lat="45.9167610" lon="10.3403690">
	<ele>1201.20</ele>
	<time>2025-04-29T06:41:54.000Z</time>
</trkpt>
<trkpt lat="45.9167570" lon="10.3403710">
	<ele>1201.40</ele>
	<time>2025-04-29T06:41:55.000Z</time>
</trkpt>
<trkpt lat="45.9167550" lon="10.3403740">
	<ele>1201.60</ele>
	<time>2025-04-29T06:41:56.000Z</time>
</trkpt>
<trkpt lat="45.9167570" lon="10.3403770">
	<ele>1201.60</ele>
	<time>2025-04-29T06:41:57.000Z</time>
</trkpt>
<trkpt lat="45.9167520" lon="10.3403770">
	<ele>1201.80</ele>
	<time>2025-04-29T06:41:58.000Z</time>
</trkpt>
<trkpt lat="45.9167460" lon="10.3403790">
	<ele>1202.00</ele>
	<time>2025-04-29T06:41:59.000Z</time>
</trkpt>
<trkpt lat="45.9167650" lon="10.3403880">
	<ele>1202.20</ele>
	<time>2025-04-29T06:42:00.000Z</time>
</trkpt>
<trkpt lat="45.9167730" lon="10.3404010">
	<ele>1202.20</ele>
	<time>2025-04-29T06:42:01.000Z</time>
</trkpt>
<trkpt lat="45.9167850" lon="10.3404160">
	<ele>1202.40</ele>
	<time>2025-04-29T06:42:02.000Z</time>
</trkpt>
<trkpt lat="45.9167920" lon="10.3404240">
	<ele>1202.60</ele>
	<time>2025-04-29T06:42:03.000Z</time>
</trkpt>
<trkpt lat="45.9167900" lon="10.3404370">
	<ele>1202.80</ele>
	<time>2025-04-29T06:42:04.000Z</time>
</trkpt>
<trkpt lat="45.9167840" lon="10.3404440">
	<ele>1203.00</ele>
	<time>2025-04-29T06:42:05.000Z</time>
</trkpt>
<trkpt lat="45.9167750" lon="10.3404410">
	<ele>1203.20</ele>
	<time>2025-04-29T06:42:06.000Z</time>
</trkpt>
<trkpt lat="45.9167730" lon="10.3404490">
	<ele>1203.40</ele>
	<time>2025-04-29T06:42:07.000Z</time>
</trkpt>
<trkpt lat="45.9167640" lon="10.3404460">
	<ele>1203.60</ele>
	<time>2025-04-29T06:42:08.000Z</time>
</trkpt>
<trkpt lat="45.9167600" lon="10.3404480">
	<ele>1203.80</ele>
	<time>2025-04-29T06:42:09.000Z</time>
</trkpt>
<trkpt lat="45.9167510" lon="10.3404510">
	<ele>1203.80</ele>
	<time>2025-04-29T06:42:10.000Z</time>
</trkpt>
<trkpt lat="45.9167440" lon="10.3404580">
	<ele>1204.00</ele>
	<time>2025-04-29T06:42:11.000Z</time>
</trkpt>
<trkpt lat="45.9167400" lon="10.3404650">
	<ele>1204.20</ele>
	<time>2025-04-29T06:42:12.000Z</time>
</trkpt>
<trkpt lat="45.9167360" lon="10.3404700">
	<ele>1204.20</ele>
	<time>2025-04-29T06:42:13.000Z</time>
</trkpt>
<trkpt lat="45.9167380" lon="10.3404820">
	<ele>1204.40</ele>
	<time>2025-04-29T06:42:14.000Z</time>
</trkpt>
<trkpt lat="45.9167410" lon="10.3404880">
	<ele>1204.40</ele>
	<time>2025-04-29T06:42:15.000Z</time>
</trkpt>
<trkpt lat="45.9167330" lon="10.3404830">
	<ele>1204.80</ele>
	<time>2025-04-29T06:42:16.000Z</time>
</trkpt>
<trkpt lat="45.9167240" lon="10.3404780">
	<ele>1205.00</ele>
	<time>2025-04-29T06:42:17.000Z</time>
</trkpt>
<trkpt lat="45.9167110" lon="10.3404760">
	<ele>1205.20</ele>
	<time>2025-04-29T06:42:18.000Z</time>
</trkpt>
<trkpt lat="45.9167020" lon="10.3404750">
	<ele>1205.40</ele>
	<time>2025-04-29T06:42:19.000Z</time>
</trkpt>
<trkpt lat="45.9166920" lon="10.3404780">
	<ele>1205.40</ele>
	<time>2025-04-29T06:42:20.000Z</time>
</trkpt>
<trkpt lat="45.9166770" lon="10.3404620">
	<ele>1205.60</ele>
	<time>2025-04-29T06:42:21.000Z</time>
</trkpt>
<trkpt lat="45.9166600" lon="10.3404520">
	<ele>1205.80</ele>
	<time>2025-04-29T06:42:22.000Z</time>
</trkpt>
<trkpt lat="45.9166420" lon="10.3404500">
	<ele>1206.00</ele>
	<time>2025-04-29T06:42:23.000Z</time>
</trkpt>
<trkpt lat="45.9166260" lon="10.3404500">
	<ele>1206.00</ele>
	<time>2025-04-29T06:42:24.000Z</time>
</trkpt>
<trkpt lat="45.9166190" lon="10.3404520">
	<ele>1206.40</ele>
	<time>2025-04-29T06:42:25.000Z</time>
</trkpt>
<trkpt lat="45.9166100" lon="10.3404510">
	<ele>1206.60</ele>
	<time>2025-04-29T06:42:26.000Z</time>
</trkpt>
<trkpt lat="45.9166020" lon="10.3404550">
	<ele>1206.80</ele>
	<time>2025-04-29T06:42:27.000Z</time>
</trkpt>
<trkpt lat="45.9166030" lon="10.3404480">
	<ele>1207.00</ele>
	<time>2025-04-29T06:42:28.000Z</time>
</trkpt>
<trkpt lat="45.9165980" lon="10.3404470">
	<ele>1207.20</ele>
	<time>2025-04-29T06:42:29.000Z</time>
</trkpt>
<trkpt lat="45.9165880" lon="10.3404550">
	<ele>1207.20</ele>
	<time>2025-04-29T06:42:30.000Z</time>
</trkpt>
<trkpt lat="45.9165840" lon="10.3404630">
	<ele>1207.40</ele>
	<time>2025-04-29T06:42:31.000Z</time>
</trkpt>
<trkpt lat="45.9165760" lon="10.3404710">
	<ele>1207.60</ele>
	<time>2025-04-29T06:42:32.000Z</time>
</trkpt>
<trkpt lat="45.9165670" lon="10.3404800">
	<ele>1207.80</ele>
	<time>2025-04-29T06:42:33.000Z</time>
</trkpt>
<trkpt lat="45.9165550" lon="10.3404890">
	<ele>1207.80</ele>
	<time>2025-04-29T06:42:34.000Z</time>
</trkpt>
<trkpt lat="45.9165360" lon="10.3404950">
	<ele>1208.00</ele>
	<time>2025-04-29T06:42:35.000Z</time>
</trkpt>
<trkpt lat="45.9165290" lon="10.3405060">
	<ele>1208.20</ele>
	<time>2025-04-29T06:42:36.000Z</time>
</trkpt>
<trkpt lat="45.9165320" lon="10.3405140">
	<ele>1208.40</ele>
	<time>2025-04-29T06:42:37.000Z</time>
</trkpt>
<trkpt lat="45.9165290" lon="10.3405220">
	<ele>1208.60</ele>
	<time>2025-04-29T06:42:38.000Z</time>
</trkpt>
<trkpt lat="45.9165190" lon="10.3405320">
	<ele>1208.80</ele>
	<time>2025-04-29T06:42:39.000Z</time>
</trkpt>
<trkpt lat="45.9165130" lon="10.3405430">
	<ele>1209.00</ele>
	<time>2025-04-29T06:42:40.000Z</time>
</trkpt>
<trkpt lat="45.9165020" lon="10.3405540">
	<ele>1209.20</ele>
	<time>2025-04-29T06:42:41.000Z</time>
</trkpt>
<trkpt lat="45.9164940" lon="10.3405670">
	<ele>1209.20</ele>
	<time>2025-04-29T06:42:42.000Z</time>
</trkpt>
<trkpt lat="45.9164860" lon="10.3405740">
	<ele>1209.40</ele>
	<time>2025-04-29T06:42:43.000Z</time>
</trkpt>
<trkpt lat="45.9164820" lon="10.3405940">
	<ele>1209.60</ele>
	<time>2025-04-29T06:42:44.000Z</time>
</trkpt>
<trkpt lat="45.9164860" lon="10.3406060">
	<ele>1209.80</ele>
	<time>2025-04-29T06:42:45.000Z</time>
</trkpt>
<trkpt lat="45.9164870" lon="10.3406130">
	<ele>1210.00</ele>
	<time>2025-04-29T06:42:46.000Z</time>
</trkpt>
<trkpt lat="45.9164870" lon="10.3406220">
	<ele>1210.00</ele>
	<time>2025-04-29T06:42:47.000Z</time>
</trkpt>
<trkpt lat="45.9164850" lon="10.3406320">
	<ele>1210.20</ele>
	<time>2025-04-29T06:42:48.000Z</time>
</trkpt>
<trkpt lat="45.9164900" lon="10.3406410">
	<ele>1210.20</ele>
	<time>2025-04-29T06:42:49.000Z</time>
</trkpt>
<trkpt lat="45.9164890" lon="10.3406460">
	<ele>1210.40</ele>
	<time>2025-04-29T06:42:50.000Z</time>
</trkpt>
<trkpt lat="45.9164820" lon="10.3406560">
	<ele>1210.80</ele>
	<time>2025-04-29T06:42:51.000Z</time>
</trkpt>
<trkpt lat="45.9164750" lon="10.3406640">
	<ele>1211.00</ele>
	<time>2025-04-29T06:42:52.000Z</time>
</trkpt>
<trkpt lat="45.9164550" lon="10.3406820">
	<ele>1211.40</ele>
	<time>2025-04-29T06:42:53.000Z</time>
</trkpt>
<trkpt lat="45.9164380" lon="10.3406950">
	<ele>1211.40</ele>
	<time>2025-04-29T06:42:54.000Z</time>
</trkpt>
<trkpt lat="45.9164150" lon="10.3406920">
	<ele>1211.60</ele>
	<time>2025-04-29T06:42:55.000Z</time>
</trkpt>
<trkpt lat="45.9164010" lon="10.3406930">
	<ele>1211.60</ele>
	<time>2025-04-29T06:42:56.000Z</time>
</trkpt>
<trkpt lat="45.9163860" lon="10.3406960">
	<ele>1211.80</ele>
	<time>2025-04-29T06:42:57.000Z</time>
</trkpt>
<trkpt lat="45.9163790" lon="10.3406970">
	<ele>1211.80</ele>
	<time>2025-04-29T06:42:58.000Z</time>
</trkpt>
<trkpt lat="45.9163740" lon="10.3406990">
	<ele>1212.00</ele>
	<time>2025-04-29T06:42:59.000Z</time>
</trkpt>
<trkpt lat="45.9163690" lon="10.3406890">
	<ele>1212.00</ele>
	<time>2025-04-29T06:43:00.000Z</time>
</trkpt>
<trkpt lat="45.9163580" lon="10.3406810">
	<ele>1212.20</ele>
	<time>2025-04-29T06:43:01.000Z</time>
</trkpt>
<trkpt lat="45.9163510" lon="10.3406810">
	<ele>1212.60</ele>
	<time>2025-04-29T06:43:02.000Z</time>
</trkpt>
<trkpt lat="45.9163560" lon="10.3406820">
	<ele>1212.60</ele>
	<time>2025-04-29T06:43:03.000Z</time>
</trkpt>
<trkpt lat="45.9163780" lon="10.3406920">
	<ele>1212.80</ele>
	<time>2025-04-29T06:43:04.000Z</time>
</trkpt>
<trkpt lat="45.9163860" lon="10.3407020">
	<ele>1213.00</ele>
	<time>2025-04-29T06:43:05.000Z</time>
</trkpt>
<trkpt lat="45.9163910" lon="10.3407110">
	<ele>1213.20</ele>
	<time>2025-04-29T06:43:06.000Z</time>
</trkpt>
<trkpt lat="45.9163940" lon="10.3407120">
	<ele>1213.20</ele>
	<time>2025-04-29T06:43:07.000Z</time>
</trkpt>
<trkpt lat="45.9163970" lon="10.3407070">
	<ele>1213.40</ele>
	<time>2025-04-29T06:43:08.000Z</time>
</trkpt>
<trkpt lat="45.9164000" lon="10.3406980">
	<ele>1213.60</ele>
	<time>2025-04-29T06:43:09.000Z</time>
</trkpt>
<trkpt lat="45.9163910" lon="10.3407020">
	<ele>1213.80</ele>
	<time>2025-04-29T06:43:10.000Z</time>
</trkpt>
<trkpt lat="45.9163820" lon="10.3407050">
	<ele>1214.00</ele>
	<time>2025-04-29T06:43:11.000Z</time>
</trkpt>
<trkpt lat="45.9163790" lon="10.3406960">
	<ele>1214.20</ele>
	<time>2025-04-29T06:43:12.000Z</time>
</trkpt>
<trkpt lat="45.9163770" lon="10.3406930">
	<ele>1214.20</ele>
	<time>2025-04-29T06:43:13.000Z</time>
</trkpt>
<trkpt lat="45.9163750" lon="10.3406950">
	<ele>1214.40</ele>
	<time>2025-04-29T06:43:14.000Z</time>
</trkpt>
<trkpt lat="45.9163680" lon="10.3406930">
	<ele>1214.40</ele>
	<time>2025-04-29T06:43:15.000Z</time>
</trkpt>
<trkpt lat="45.9163680" lon="10.3406910">
	<ele>1214.60</ele>
	<time>2025-04-29T06:43:16.000Z</time>
</trkpt>
<trkpt lat="45.9163680" lon="10.3406910">
	<ele>1214.60</ele>
	<time>2025-04-29T06:43:17.000Z</time>
</trkpt>
<trkpt lat="45.9163650" lon="10.3406930">
	<ele>1214.80</ele>
	<time>2025-04-29T06:43:18.000Z</time>
</trkpt>
<trkpt lat="45.9163590" lon="10.3406910">
	<ele>1215.00</ele>
	<time>2025-04-29T06:43:19.000Z</time>
</trkpt>
<trkpt lat="45.9163500" lon="10.3406860">
	<ele>1215.00</ele>
	<time>2025-04-29T06:43:20.000Z</time>
</trkpt>
<trkpt lat="45.9163410" lon="10.3406850">
	<ele>1215.40</ele>
	<time>2025-04-29T06:43:21.000Z</time>
</trkpt>
<trkpt lat="45.9163250" lon="10.3406580">
	<ele>1215.40</ele>
	<time>2025-04-29T06:43:22.000Z</time>
</trkpt>
<trkpt lat="45.9163190" lon="10.3406510">
	<ele>1215.60</ele>
	<time>2025-04-29T06:43:23.000Z</time>
</trkpt>
<trkpt lat="45.9163200" lon="10.3406510">
	<ele>1215.60</ele>
	<time>2025-04-29T06:43:24.000Z</time>
</trkpt>
<trkpt lat="45.9163190" lon="10.3406500">
	<ele>1215.60</ele>
	<time>2025-04-29T06:43:25.000Z</time>
</trkpt>
<trkpt lat="45.9163190" lon="10.3406520">
	<ele>1215.80</ele>
	<time>2025-04-29T06:43:26.000Z</time>
</trkpt>
<trkpt lat="45.9163240" lon="10.3406550">
	<ele>1215.80</ele>
	<time>2025-04-29T06:43:27.000Z</time>
</trkpt>
<trkpt lat="45.9163310" lon="10.3406610">
	<ele>1215.80</ele>
	<time>2025-04-29T06:43:28.000Z</time>
</trkpt>
<trkpt lat="45.9163360" lon="10.3406700">
	<ele>1215.80</ele>
	<time>2025-04-29T06:43:29.000Z</time>
</trkpt>
<trkpt lat="45.9163380" lon="10.3406830">
	<ele>1215.60</ele>
	<time>2025-04-29T06:43:30.000Z</time>
</trkpt>
<trkpt lat="45.9163450" lon="10.3406910">
	<ele>1215.80</ele>
	<time>2025-04-29T06:43:31.000Z</time>
</trkpt>
<trkpt lat="45.9163530" lon="10.3407020">
	<ele>1215.80</ele>
	<time>2025-04-29T06:43:32.000Z</time>
</trkpt>
<trkpt lat="45.9163610" lon="10.3407100">
	<ele>1215.80</ele>
	<time>2025-04-29T06:43:33.000Z</time>
</trkpt>
<trkpt lat="45.9163680" lon="10.3407190">
	<ele>1216.00</ele>
	<time>2025-04-29T06:43:34.000Z</time>
</trkpt>
<trkpt lat="45.9163750" lon="10.3407350">
	<ele>1216.00</ele>
	<time>2025-04-29T06:43:35.000Z</time>
</trkpt>
<trkpt lat="45.9163760" lon="10.3407470">
	<ele>1216.00</ele>
	<time>2025-04-29T06:43:36.000Z</time>
</trkpt>
<trkpt lat="45.9163790" lon="10.3407610">
	<ele>1216.20</ele>
	<time>2025-04-29T06:43:37.000Z</time>
</trkpt>
<trkpt lat="45.9163910" lon="10.3407760">
	<ele>1216.20</ele>
	<time>2025-04-29T06:43:38.000Z</time>
</trkpt>
<trkpt lat="45.9163930" lon="10.3407830">
	<ele>1216.20</ele>
	<time>2025-04-29T06:43:39.000Z</time>
</trkpt>
<trkpt lat="45.9163950" lon="10.3407930">
	<ele>1216.20</ele>
	<time>2025-04-29T06:43:40.000Z</time>
</trkpt>
<trkpt lat="45.9163980" lon="10.3408040">
	<ele>1216.20</ele>
	<time>2025-04-29T06:43:41.000Z</time>
</trkpt>
<trkpt lat="45.9163990" lon="10.3408160">
	<ele>1216.40</ele>
	<time>2025-04-29T06:43:42.000Z</time>
</trkpt>
<trkpt lat="45.9163970" lon="10.3408170">
	<ele>1216.60</ele>
	<time>2025-04-29T06:43:43.000Z</time>
</trkpt>
<trkpt lat="45.9164050" lon="10.3408240">
	<ele>1216.80</ele>
	<time>2025-04-29T06:43:44.000Z</time>
</trkpt>
<trkpt lat="45.9164050" lon="10.3408290">
	<ele>1217.00</ele>
	<time>2025-04-29T06:43:45.000Z</time>
</trkpt>
<trkpt lat="45.9164110" lon="10.3408340">
	<ele>1217.00</ele>
	<time>2025-04-29T06:43:46.000Z</time>
</trkpt>
<trkpt lat="45.9164180" lon="10.3408480">
	<ele>1217.20</ele>
	<time>2025-04-29T06:43:47.000Z</time>
</trkpt>
<trkpt lat="45.9164170" lon="10.3408610">
	<ele>1217.20</ele>
	<time>2025-04-29T06:43:48.000Z</time>
</trkpt>
<trkpt lat="45.9164170" lon="10.3408750">
	<ele>1217.40</ele>
	<time>2025-04-29T06:43:49.000Z</time>
</trkpt>
<trkpt lat="45.9164210" lon="10.3408810">
	<ele>1217.60</ele>
	<time>2025-04-29T06:43:50.000Z</time>
</trkpt>
<trkpt lat="45.9164290" lon="10.3408840">
	<ele>1217.60</ele>
	<time>2025-04-29T06:43:51.000Z</time>
</trkpt>
<trkpt lat="45.9164360" lon="10.3408870">
	<ele>1217.80</ele>
	<time>2025-04-29T06:43:52.000Z</time>
</trkpt>
<trkpt lat="45.9164500" lon="10.3408970">
	<ele>1217.80</ele>
	<time>2025-04-29T06:43:53.000Z</time>
</trkpt>
<trkpt lat="45.9164580" lon="10.3409110">
	<ele>1218.00</ele>
	<time>2025-04-29T06:43:54.000Z</time>
</trkpt>
<trkpt lat="45.9164750" lon="10.3409300">
	<ele>1218.20</ele>
	<time>2025-04-29T06:43:55.000Z</time>
</trkpt>
<trkpt lat="45.9164830" lon="10.3409510">
	<ele>1218.20</ele>
	<time>2025-04-29T06:43:56.000Z</time>
</trkpt>
<trkpt lat="45.9164880" lon="10.3409840">
	<ele>1218.40</ele>
	<time>2025-04-29T06:43:57.000Z</time>
</trkpt>
<trkpt lat="45.9164950" lon="10.3410080">
	<ele>1218.60</ele>
	<time>2025-04-29T06:43:58.000Z</time>
</trkpt>
<trkpt lat="45.9165060" lon="10.3410350">
	<ele>1218.80</ele>
	<time>2025-04-29T06:43:59.000Z</time>
</trkpt>
<trkpt lat="45.9165040" lon="10.3410520">
	<ele>1219.00</ele>
	<time>2025-04-29T06:44:00.000Z</time>
</trkpt>
<trkpt lat="45.9165090" lon="10.3410690">
	<ele>1219.00</ele>
	<time>2025-04-29T06:44:01.000Z</time>
</trkpt>
<trkpt lat="45.9165090" lon="10.3410850">
	<ele>1219.00</ele>
	<time>2025-04-29T06:44:02.000Z</time>
</trkpt>
<trkpt lat="45.9165130" lon="10.3410950">
	<ele>1219.20</ele>
	<time>2025-04-29T06:44:03.000Z</time>
</trkpt>
<trkpt lat="45.9165190" lon="10.3411060">
	<ele>1219.20</ele>
	<time>2025-04-29T06:44:04.000Z</time>
</trkpt>
<trkpt lat="45.9165250" lon="10.3411110">
	<ele>1219.40</ele>
	<time>2025-04-29T06:44:05.000Z</time>
</trkpt>
<trkpt lat="45.9165270" lon="10.3411270">
	<ele>1219.60</ele>
	<time>2025-04-29T06:44:06.000Z</time>
</trkpt>
<trkpt lat="45.9165250" lon="10.3411540">
	<ele>1219.80</ele>
	<time>2025-04-29T06:44:07.000Z</time>
</trkpt>
<trkpt lat="45.9165300" lon="10.3411700">
	<ele>1220.00</ele>
	<time>2025-04-29T06:44:08.000Z</time>
</trkpt>
<trkpt lat="45.9165390" lon="10.3411820">
	<ele>1220.00</ele>
	<time>2025-04-29T06:44:09.000Z</time>
</trkpt>
<trkpt lat="45.9165400" lon="10.3411930">
	<ele>1220.20</ele>
	<time>2025-04-29T06:44:10.000Z</time>
</trkpt>
<trkpt lat="45.9165420" lon="10.3412040">
	<ele>1220.20</ele>
	<time>2025-04-29T06:44:11.000Z</time>
</trkpt>
<trkpt lat="45.9165380" lon="10.3412160">
	<ele>1220.40</ele>
	<time>2025-04-29T06:44:12.000Z</time>
</trkpt>
<trkpt lat="45.9165310" lon="10.3412350">
	<ele>1220.60</ele>
	<time>2025-04-29T06:44:13.000Z</time>
</trkpt>
<trkpt lat="45.9165240" lon="10.3412560">
	<ele>1220.80</ele>
	<time>2025-04-29T06:44:14.000Z</time>
</trkpt>
<trkpt lat="45.9165190" lon="10.3412780">
	<ele>1220.80</ele>
	<time>2025-04-29T06:44:15.000Z</time>
</trkpt>
<trkpt lat="45.9165150" lon="10.3413010">
	<ele>1221.20</ele>
	<time>2025-04-29T06:44:16.000Z</time>
</trkpt>
<trkpt lat="45.9165200" lon="10.3413120">
	<ele>1221.40</ele>
	<time>2025-04-29T06:44:17.000Z</time>
</trkpt>
<trkpt lat="45.9165260" lon="10.3413210">
	<ele>1221.60</ele>
	<time>2025-04-29T06:44:18.000Z</time>
</trkpt>
<trkpt lat="45.9165290" lon="10.3413350">
	<ele>1221.80</ele>
	<time>2025-04-29T06:44:19.000Z</time>
</trkpt>
<trkpt lat="45.9165320" lon="10.3413460">
	<ele>1221.80</ele>
	<time>2025-04-29T06:44:20.000Z</time>
</trkpt>
<trkpt lat="45.9165350" lon="10.3413580">
	<ele>1222.00</ele>
	<time>2025-04-29T06:44:21.000Z</time>
</trkpt>
<trkpt lat="45.9165390" lon="10.3413710">
	<ele>1222.00</ele>
	<time>2025-04-29T06:44:22.000Z</time>
</trkpt>
<trkpt lat="45.9165420" lon="10.3413770">
	<ele>1222.40</ele>
	<time>2025-04-29T06:44:23.000Z</time>
</trkpt>
<trkpt lat="45.9165420" lon="10.3413860">
	<ele>1222.60</ele>
	<time>2025-04-29T06:44:24.000Z</time>
</trkpt>
<trkpt lat="45.9165440" lon="10.3413950">
	<ele>1222.60</ele>
	<time>2025-04-29T06:44:25.000Z</time>
</trkpt>
<trkpt lat="45.9165460" lon="10.3414040">
	<ele>1222.80</ele>
	<time>2025-04-29T06:44:26.000Z</time>
</trkpt>
<trkpt lat="45.9165470" lon="10.3414090">
	<ele>1222.80</ele>
	<time>2025-04-29T06:44:27.000Z</time>
</trkpt>
<trkpt lat="45.9165470" lon="10.3414150">
	<ele>1223.00</ele>
	<time>2025-04-29T06:44:28.000Z</time>
</trkpt>
<trkpt lat="45.9165480" lon="10.3414240">
	<ele>1223.20</ele>
	<time>2025-04-29T06:44:29.000Z</time>
</trkpt>
<trkpt lat="45.9165440" lon="10.3414330">
	<ele>1223.40</ele>
	<time>2025-04-29T06:44:30.000Z</time>
</trkpt>
<trkpt lat="45.9165490" lon="10.3414350">
	<ele>1223.60</ele>
	<time>2025-04-29T06:44:31.000Z</time>
</trkpt>
<trkpt lat="45.9165550" lon="10.3414460">
	<ele>1223.80</ele>
	<time>2025-04-29T06:44:32.000Z</time>
</trkpt>
<trkpt lat="45.9165580" lon="10.3414570">
	<ele>1224.00</ele>
	<time>2025-04-29T06:44:33.000Z</time>
</trkpt>
<trkpt lat="45.9165620" lon="10.3414760">
	<ele>1224.00</ele>
	<time>2025-04-29T06:44:34.000Z</time>
</trkpt>
<trkpt lat="45.9165630" lon="10.3414860">
	<ele>1224.20</ele>
	<time>2025-04-29T06:44:35.000Z</time>
</trkpt>
<trkpt lat="45.9165620" lon="10.3414930">
	<ele>1224.40</ele>
	<time>2025-04-29T06:44:36.000Z</time>
</trkpt>
<trkpt lat="45.9165590" lon="10.3414990">
	<ele>1224.60</ele>
	<time>2025-04-29T06:44:37.000Z</time>
</trkpt>
<trkpt lat="45.9165560" lon="10.3415050">
	<ele>1224.60</ele>
	<time>2025-04-29T06:44:38.000Z</time>
</trkpt>
<trkpt lat="45.9165590" lon="10.3415080">
	<ele>1224.80</ele>
	<time>2025-04-29T06:44:39.000Z</time>
</trkpt>
<trkpt lat="45.9165590" lon="10.3415130">
	<ele>1225.00</ele>
	<time>2025-04-29T06:44:40.000Z</time>
</trkpt>
<trkpt lat="45.9165640" lon="10.3415210">
	<ele>1225.20</ele>
	<time>2025-04-29T06:44:41.000Z</time>
</trkpt>
<trkpt lat="45.9165780" lon="10.3415350">
	<ele>1225.20</ele>
	<time>2025-04-29T06:44:42.000Z</time>
</trkpt>
<trkpt lat="45.9165810" lon="10.3415450">
	<ele>1225.40</ele>
	<time>2025-04-29T06:44:43.000Z</time>
</trkpt>
<trkpt lat="45.9165840" lon="10.3415520">
	<ele>1225.60</ele>
	<time>2025-04-29T06:44:44.000Z</time>
</trkpt>
<trkpt lat="45.9165820" lon="10.3415650">
	<ele>1225.80</ele>
	<time>2025-04-29T06:44:45.000Z</time>
</trkpt>
<trkpt lat="45.9165820" lon="10.3415710">
	<ele>1225.80</ele>
	<time>2025-04-29T06:44:46.000Z</time>
</trkpt>
<trkpt lat="45.9165910" lon="10.3415820">
	<ele>1226.00</ele>
	<time>2025-04-29T06:44:47.000Z</time>
</trkpt>
<trkpt lat="45.9165980" lon="10.3415940">
	<ele>1226.20</ele>
	<time>2025-04-29T06:44:48.000Z</time>
</trkpt>
<trkpt lat="45.9165970" lon="10.3416080">
	<ele>1226.20</ele>
	<time>2025-04-29T06:44:49.000Z</time>
</trkpt>
<trkpt lat="45.9165940" lon="10.3416180">
	<ele>1226.60</ele>
	<time>2025-04-29T06:44:50.000Z</time>
</trkpt>
<trkpt lat="45.9165940" lon="10.3416250">
	<ele>1226.60</ele>
	<time>2025-04-29T06:44:51.000Z</time>
</trkpt>
<trkpt lat="45.9165890" lon="10.3416400">
	<ele>1226.80</ele>
	<time>2025-04-29T06:44:52.000Z</time>
</trkpt>
<trkpt lat="45.9165820" lon="10.3416580">
	<ele>1227.00</ele>
	<time>2025-04-29T06:44:53.000Z</time>
</trkpt>
<trkpt lat="45.9165770" lon="10.3416600">
	<ele>1227.20</ele>
	<time>2025-04-29T06:44:54.000Z</time>
</trkpt>
<trkpt lat="45.9165740" lon="10.3416640">
	<ele>1227.40</ele>
	<time>2025-04-29T06:44:55.000Z</time>
</trkpt>
<trkpt lat="45.9165730" lon="10.3416760">
	<ele>1227.60</ele>
	<time>2025-04-29T06:44:56.000Z</time>
</trkpt>
<trkpt lat="45.9165730" lon="10.3416760">
	<ele>1227.80</ele>
	<time>2025-04-29T06:44:57.000Z</time>
</trkpt>
<trkpt lat="45.9165740" lon="10.3416910">
	<ele>1228.00</ele>
	<time>2025-04-29T06:44:58.000Z</time>
</trkpt>
<trkpt lat="45.9165760" lon="10.3417110">
	<ele>1228.20</ele>
	<time>2025-04-29T06:44:59.000Z</time>
</trkpt>
<trkpt lat="45.9165800" lon="10.3417280">
	<ele>1228.40</ele>
	<time>2025-04-29T06:45:00.000Z</time>
</trkpt>
<trkpt lat="45.9165820" lon="10.3417330">
	<ele>1228.40</ele>
	<time>2025-04-29T06:45:01.000Z</time>
</trkpt>
<trkpt lat="45.9165810" lon="10.3417460">
	<ele>1228.60</ele>
	<time>2025-04-29T06:45:02.000Z</time>
</trkpt>
<trkpt lat="45.9165850" lon="10.3417600">
	<ele>1228.60</ele>
	<time>2025-04-29T06:45:03.000Z</time>
</trkpt>
<trkpt lat="45.9165800" lon="10.3417740">
	<ele>1228.80</ele>
	<time>2025-04-29T06:45:04.000Z</time>
</trkpt>
<trkpt lat="45.9165750" lon="10.3417850">
	<ele>1229.00</ele>
	<time>2025-04-29T06:45:05.000Z</time>
</trkpt>
<trkpt lat="45.9165760" lon="10.3417920">
	<ele>1229.20</ele>
	<time>2025-04-29T06:45:06.000Z</time>
</trkpt>
<trkpt lat="45.9165750" lon="10.3418010">
	<ele>1229.40</ele>
	<time>2025-04-29T06:45:07.000Z</time>
</trkpt>
<trkpt lat="45.9165770" lon="10.3418090">
	<ele>1229.60</ele>
	<time>2025-04-29T06:45:08.000Z</time>
</trkpt>
<trkpt lat="45.9165780" lon="10.3418160">
	<ele>1229.80</ele>
	<time>2025-04-29T06:45:09.000Z</time>
</trkpt>
<trkpt lat="45.9165790" lon="10.3418180">
	<ele>1230.20</ele>
	<time>2025-04-29T06:45:10.000Z</time>
</trkpt>
<trkpt lat="45.9165810" lon="10.3418210">
	<ele>1230.40</ele>
	<time>2025-04-29T06:45:11.000Z</time>
</trkpt>
<trkpt lat="45.9165770" lon="10.3418270">
	<ele>1230.60</ele>
	<time>2025-04-29T06:45:12.000Z</time>
</trkpt>
<trkpt lat="45.9165680" lon="10.3418410">
	<ele>1230.80</ele>
	<time>2025-04-29T06:45:13.000Z</time>
</trkpt>
<trkpt lat="45.9165620" lon="10.3418560">
	<ele>1231.00</ele>
	<time>2025-04-29T06:45:14.000Z</time>
</trkpt>
<trkpt lat="45.9165630" lon="10.3418620">
	<ele>1231.00</ele>
	<time>2025-04-29T06:45:15.000Z</time>
</trkpt>
<trkpt lat="45.9165660" lon="10.3418770">
	<ele>1231.00</ele>
	<time>2025-04-29T06:45:16.000Z</time>
</trkpt>
<trkpt lat="45.9165700" lon="10.3418890">
	<ele>1231.20</ele>
	<time>2025-04-29T06:45:17.000Z</time>
</trkpt>
<trkpt lat="45.9165680" lon="10.3419020">
	<ele>1231.20</ele>
	<time>2025-04-29T06:45:18.000Z</time>
</trkpt>
<trkpt lat="45.9165630" lon="10.3419130">
	<ele>1231.40</ele>
	<time>2025-04-29T06:45:19.000Z</time>
</trkpt>
<trkpt lat="45.9165500" lon="10.3419220">
	<ele>1231.40</ele>
	<time>2025-04-29T06:45:20.000Z</time>
</trkpt>
<trkpt lat="45.9165370" lon="10.3419330">
	<ele>1231.60</ele>
	<time>2025-04-29T06:45:21.000Z</time>
</trkpt>
<trkpt lat="45.9165310" lon="10.3419530">
	<ele>1231.80</ele>
	<time>2025-04-29T06:45:22.000Z</time>
</trkpt>
<trkpt lat="45.9165360" lon="10.3419760">
	<ele>1232.00</ele>
	<time>2025-04-29T06:45:23.000Z</time>
</trkpt>
<trkpt lat="45.9165460" lon="10.3419960">
	<ele>1232.40</ele>
	<time>2025-04-29T06:45:24.000Z</time>
</trkpt>
<trkpt lat="45.9165470" lon="10.3420120">
	<ele>1232.60</ele>
	<time>2025-04-29T06:45:25.000Z</time>
</trkpt>
<trkpt lat="45.9165530" lon="10.3420310">
	<ele>1232.60</ele>
	<time>2025-04-29T06:45:26.000Z</time>
</trkpt>
<trkpt lat="45.9165530" lon="10.3420440">
	<ele>1232.80</ele>
	<time>2025-04-29T06:45:27.000Z</time>
</trkpt>
<trkpt lat="45.9165540" lon="10.3420470">
	<ele>1233.00</ele>
	<time>2025-04-29T06:45:28.000Z</time>
</trkpt>
<trkpt lat="45.9165500" lon="10.3420620">
	<ele>1233.20</ele>
	<time>2025-04-29T06:45:29.000Z</time>
</trkpt>
<trkpt lat="45.9165390" lon="10.3420760">
	<ele>1233.20</ele>
	<time>2025-04-29T06:45:30.000Z</time>
</trkpt>
<trkpt lat="45.9165250" lon="10.3420860">
	<ele>1233.40</ele>
	<time>2025-04-29T06:45:31.000Z</time>
</trkpt>
<trkpt lat="45.9165220" lon="10.3420920">
	<ele>1233.40</ele>
	<time>2025-04-29T06:45:32.000Z</time>
</trkpt>
<trkpt lat="45.9165180" lon="10.3421030">
	<ele>1233.60</ele>
	<time>2025-04-29T06:45:33.000Z</time>
</trkpt>
<trkpt lat="45.9165160" lon="10.3421160">
	<ele>1233.80</ele>
	<time>2025-04-29T06:45:34.000Z</time>
</trkpt>
<trkpt lat="45.9165170" lon="10.3421290">
	<ele>1234.00</ele>
	<time>2025-04-29T06:45:35.000Z</time>
</trkpt>
<trkpt lat="45.9165240" lon="10.3421400">
	<ele>1234.00</ele>
	<time>2025-04-29T06:45:36.000Z</time>
</trkpt>
<trkpt lat="45.9165290" lon="10.3421520">
	<ele>1234.20</ele>
	<time>2025-04-29T06:45:37.000Z</time>
</trkpt>
<trkpt lat="45.9165240" lon="10.3421650">
	<ele>1234.40</ele>
	<time>2025-04-29T06:45:38.000Z</time>
</trkpt>
<trkpt lat="45.9165200" lon="10.3421780">
	<ele>1234.40</ele>
	<time>2025-04-29T06:45:39.000Z</time>
</trkpt>
<trkpt lat="45.9165220" lon="10.3421940">
	<ele>1234.60</ele>
	<time>2025-04-29T06:45:40.000Z</time>
</trkpt>
<trkpt lat="45.9165200" lon="10.3422130">
	<ele>1234.60</ele>
	<time>2025-04-29T06:45:41.000Z</time>
</trkpt>
<trkpt lat="45.9165080" lon="10.3422330">
	<ele>1234.60</ele>
	<time>2025-04-29T06:45:42.000Z</time>
</trkpt>
<trkpt lat="45.9165000" lon="10.3422490">
	<ele>1234.80</ele>
	<time>2025-04-29T06:45:43.000Z</time>
</trkpt>
<trkpt lat="45.9164860" lon="10.3422610">
	<ele>1234.80</ele>
	<time>2025-04-29T06:45:44.000Z</time>
</trkpt>
<trkpt lat="45.9164750" lon="10.3422790">
	<ele>1234.80</ele>
	<time>2025-04-29T06:45:45.000Z</time>
</trkpt>
<trkpt lat="45.9164700" lon="10.3422930">
	<ele>1235.20</ele>
	<time>2025-04-29T06:45:46.000Z</time>
</trkpt>
<trkpt lat="45.9164730" lon="10.3423140">
	<ele>1235.20</ele>
	<time>2025-04-29T06:45:47.000Z</time>
</trkpt>
<trkpt lat="45.9164760" lon="10.3423350">
	<ele>1235.40</ele>
	<time>2025-04-29T06:45:48.000Z</time>
</trkpt>
<trkpt lat="45.9164790" lon="10.3423410">
	<ele>1235.60</ele>
	<time>2025-04-29T06:45:49.000Z</time>
</trkpt>
<trkpt lat="45.9164860" lon="10.3423540">
	<ele>1235.60</ele>
	<time>2025-04-29T06:45:50.000Z</time>
</trkpt>
<trkpt lat="45.9164810" lon="10.3423680">
	<ele>1235.80</ele>
	<time>2025-04-29T06:45:51.000Z</time>
</trkpt>
<trkpt lat="45.9164750" lon="10.3423760">
	<ele>1235.80</ele>
	<time>2025-04-29T06:45:52.000Z</time>
</trkpt>
<trkpt lat="45.9164750" lon="10.3423860">
	<ele>1236.00</ele>
	<time>2025-04-29T06:45:53.000Z</time>
</trkpt>
<trkpt lat="45.9164700" lon="10.3423950">
	<ele>1236.20</ele>
	<time>2025-04-29T06:45:54.000Z</time>
</trkpt>
<trkpt lat="45.9164660" lon="10.3424080">
	<ele>1236.20</ele>
	<time>2025-04-29T06:45:55.000Z</time>
</trkpt>
<trkpt lat="45.9164670" lon="10.3424090">
	<ele>1236.20</ele>
	<time>2025-04-29T06:45:56.000Z</time>
</trkpt>
<trkpt lat="45.9164650" lon="10.3424100">
	<ele>1236.40</ele>
	<time>2025-04-29T06:45:57.000Z</time>
</trkpt>
<trkpt lat="45.9164600" lon="10.3424140">
	<ele>1236.60</ele>
	<time>2025-04-29T06:45:58.000Z</time>
</trkpt>
<trkpt lat="45.9164570" lon="10.3424190">
	<ele>1236.60</ele>
	<time>2025-04-29T06:45:59.000Z</time>
</trkpt>
<trkpt lat="45.9164590" lon="10.3424230">
	<ele>1236.60</ele>
	<time>2025-04-29T06:46:00.000Z</time>
</trkpt>
<trkpt lat="45.9164530" lon="10.3424290">
	<ele>1236.80</ele>
	<time>2025-04-29T06:46:01.000Z</time>
</trkpt>
<trkpt lat="45.9164450" lon="10.3424360">
	<ele>1237.00</ele>
	<time>2025-04-29T06:46:02.000Z</time>
</trkpt>
<trkpt lat="45.9164410" lon="10.3424450">
	<ele>1237.20</ele>
	<time>2025-04-29T06:46:03.000Z</time>
</trkpt>
<trkpt lat="45.9164420" lon="10.3424600">
	<ele>1237.40</ele>
	<time>2025-04-29T06:46:04.000Z</time>
</trkpt>
<trkpt lat="45.9164470" lon="10.3424770">
	<ele>1237.60</ele>
	<time>2025-04-29T06:46:05.000Z</time>
</trkpt>
<trkpt lat="45.9164500" lon="10.3424880">
	<ele>1237.80</ele>
	<time>2025-04-29T06:46:06.000Z</time>
</trkpt>
<trkpt lat="45.9164590" lon="10.3425070">
	<ele>1238.00</ele>
	<time>2025-04-29T06:46:07.000Z</time>
</trkpt>
<trkpt lat="45.9164640" lon="10.3425250">
	<ele>1238.20</ele>
	<time>2025-04-29T06:46:08.000Z</time>
</trkpt>
<trkpt lat="45.9164730" lon="10.3425440">
	<ele>1238.20</ele>
	<time>2025-04-29T06:46:09.000Z</time>
</trkpt>
<trkpt lat="45.9164780" lon="10.3425600">
	<ele>1238.40</ele>
	<time>2025-04-29T06:46:10.000Z</time>
</trkpt>
<trkpt lat="45.9164760" lon="10.3425750">
	<ele>1238.40</ele>
	<time>2025-04-29T06:46:11.000Z</time>
</trkpt>
<trkpt lat="45.9164780" lon="10.3425930">
	<ele>1238.40</ele>
	<time>2025-04-29T06:46:12.000Z</time>
</trkpt>
<trkpt lat="45.9164770" lon="10.3426090">
	<ele>1238.40</ele>
	<time>2025-04-29T06:46:13.000Z</time>
</trkpt>
<trkpt lat="45.9164770" lon="10.3426260">
	<ele>1238.60</ele>
	<time>2025-04-29T06:46:14.000Z</time>
</trkpt>
<trkpt lat="45.9164790" lon="10.3426400">
	<ele>1238.80</ele>
	<time>2025-04-29T06:46:15.000Z</time>
</trkpt>
<trkpt lat="45.9164750" lon="10.3426510">
	<ele>1238.80</ele>
	<time>2025-04-29T06:46:16.000Z</time>
</trkpt>
<trkpt lat="45.9164690" lon="10.3426660">
	<ele>1239.00</ele>
	<time>2025-04-29T06:46:17.000Z</time>
</trkpt>
<trkpt lat="45.9164670" lon="10.3426790">
	<ele>1239.00</ele>
	<time>2025-04-29T06:46:18.000Z</time>
</trkpt>
<trkpt lat="45.9164600" lon="10.3426990">
	<ele>1239.00</ele>
	<time>2025-04-29T06:46:19.000Z</time>
</trkpt>
<trkpt lat="45.9164590" lon="10.3427160">
	<ele>1239.20</ele>
	<time>2025-04-29T06:46:20.000Z</time>
</trkpt>
<trkpt lat="45.9164500" lon="10.3427300">
	<ele>1239.40</ele>
	<time>2025-04-29T06:46:21.000Z</time>
</trkpt>
<trkpt lat="45.9164400" lon="10.3427460">
	<ele>1239.80</ele>
	<time>2025-04-29T06:46:22.000Z</time>
</trkpt>
<trkpt lat="45.9164380" lon="10.3427620">
	<ele>1239.80</ele>
	<time>2025-04-29T06:46:23.000Z</time>
</trkpt>
<trkpt lat="45.9164370" lon="10.3427730">
	<ele>1240.00</ele>
	<time>2025-04-29T06:46:24.000Z</time>
</trkpt>
<trkpt lat="45.9164400" lon="10.3427900">
	<ele>1240.00</ele>
	<time>2025-04-29T06:46:25.000Z</time>
</trkpt>
<trkpt lat="45.9164430" lon="10.3428080">
	<ele>1240.00</ele>
	<time>2025-04-29T06:46:26.000Z</time>
</trkpt>
<trkpt lat="45.9164450" lon="10.3428260">
	<ele>1240.00</ele>
	<time>2025-04-29T06:46:27.000Z</time>
</trkpt>
<trkpt lat="45.9164490" lon="10.3428450">
	<ele>1240.20</ele>
	<time>2025-04-29T06:46:28.000Z</time>
</trkpt>
<trkpt lat="45.9164570" lon="10.3428620">
	<ele>1240.20</ele>
	<time>2025-04-29T06:46:29.000Z</time>
</trkpt>
<trkpt lat="45.9164630" lon="10.3428840">
	<ele>1240.40</ele>
	<time>2025-04-29T06:46:30.000Z</time>
</trkpt>
<trkpt lat="45.9164700" lon="10.3429050">
	<ele>1240.40</ele>
	<time>2025-04-29T06:46:31.000Z</time>
</trkpt>
<trkpt lat="45.9164900" lon="10.3429360">
	<ele>1240.60</ele>
	<time>2025-04-29T06:46:32.000Z</time>
</trkpt>
<trkpt lat="45.9165030" lon="10.3429550">
	<ele>1240.80</ele>
	<time>2025-04-29T06:46:33.000Z</time>
</trkpt>
<trkpt lat="45.9165110" lon="10.3429660">
	<ele>1240.80</ele>
	<time>2025-04-29T06:46:34.000Z</time>
</trkpt>
<trkpt lat="45.9165210" lon="10.3429760">
	<ele>1240.80</ele>
	<time>2025-04-29T06:46:35.000Z</time>
</trkpt>
<trkpt lat="45.9165170" lon="10.3429890">
	<ele>1241.00</ele>
	<time>2025-04-29T06:46:36.000Z</time>
</trkpt>
<trkpt lat="45.9165090" lon="10.3429990">
	<ele>1241.20</ele>
	<time>2025-04-29T06:46:37.000Z</time>
</trkpt>
<trkpt lat="45.9165020" lon="10.3430120">
	<ele>1241.40</ele>
	<time>2025-04-29T06:46:38.000Z</time>
</trkpt>
<trkpt lat="45.9165080" lon="10.3430320">
	<ele>1241.40</ele>
	<time>2025-04-29T06:46:39.000Z</time>
</trkpt>
<trkpt lat="45.9165080" lon="10.3430460">
	<ele>1241.80</ele>
	<time>2025-04-29T06:46:40.000Z</time>
</trkpt>
<trkpt lat="45.9165040" lon="10.3430630">
	<ele>1242.00</ele>
	<time>2025-04-29T06:46:41.000Z</time>
</trkpt>
<trkpt lat="45.9165010" lon="10.3430740">
	<ele>1242.00</ele>
	<time>2025-04-29T06:46:42.000Z</time>
</trkpt>
<trkpt lat="45.9164960" lon="10.3430860">
	<ele>1242.20</ele>
	<time>2025-04-29T06:46:43.000Z</time>
</trkpt>
<trkpt lat="45.9164940" lon="10.3431050">
	<ele>1242.20</ele>
	<time>2025-04-29T06:46:44.000Z</time>
</trkpt>
<trkpt lat="45.9164830" lon="10.3431160">
	<ele>1242.40</ele>
	<time>2025-04-29T06:46:45.000Z</time>
</trkpt>
<trkpt lat="45.9164810" lon="10.3431280">
	<ele>1242.40</ele>
	<time>2025-04-29T06:46:46.000Z</time>
</trkpt>
<trkpt lat="45.9164850" lon="10.3431450">
	<ele>1242.40</ele>
	<time>2025-04-29T06:46:47.000Z</time>
</trkpt>
<trkpt lat="45.9164900" lon="10.3431560">
	<ele>1242.60</ele>
	<time>2025-04-29T06:46:48.000Z</time>
</trkpt>
<trkpt lat="45.9164910" lon="10.3431680">
	<ele>1243.00</ele>
	<time>2025-04-29T06:46:49.000Z</time>
</trkpt>
<trkpt lat="45.9164980" lon="10.3431740">
	<ele>1243.00</ele>
	<time>2025-04-29T06:46:50.000Z</time>
</trkpt>
<trkpt lat="45.9165040" lon="10.3431830">
	<ele>1243.20</ele>
	<time>2025-04-29T06:46:51.000Z</time>
</trkpt>
<trkpt lat="45.9165070" lon="10.3431940">
	<ele>1243.40</ele>
	<time>2025-04-29T06:46:52.000Z</time>
</trkpt>
<trkpt lat="45.9165150" lon="10.3432140">
	<ele>1243.60</ele>
	<time>2025-04-29T06:46:53.000Z</time>
</trkpt>
<trkpt lat="45.9165170" lon="10.3432300">
	<ele>1243.60</ele>
	<time>2025-04-29T06:46:54.000Z</time>
</trkpt>
<trkpt lat="45.9165090" lon="10.3432320">
	<ele>1243.80</ele>
	<time>2025-04-29T06:46:55.000Z</time>
</trkpt>
<trkpt lat="45.9164930" lon="10.3432390">
	<ele>1244.00</ele>
	<time>2025-04-29T06:46:56.000Z</time>
</trkpt>
<trkpt lat="45.9164870" lon="10.3432420">
	<ele>1244.00</ele>
	<time>2025-04-29T06:46:57.000Z</time>
</trkpt>
<trkpt lat="45.9164780" lon="10.3432490">
	<ele>1244.00</ele>
	<time>2025-04-29T06:46:58.000Z</time>
</trkpt>
<trkpt lat="45.9164770" lon="10.3432630">
	<ele>1244.20</ele>
	<time>2025-04-29T06:46:59.000Z</time>
</trkpt>
<trkpt lat="45.9164780" lon="10.3432790">
	<ele>1244.40</ele>
	<time>2025-04-29T06:47:00.000Z</time>
</trkpt>
<trkpt lat="45.9164750" lon="10.3432940">
	<ele>1244.40</ele>
	<time>2025-04-29T06:47:01.000Z</time>
</trkpt>
<trkpt lat="45.9164780" lon="10.3433040">
	<ele>1244.60</ele>
	<time>2025-04-29T06:47:02.000Z</time>
</trkpt>
<trkpt lat="45.9164780" lon="10.3433190">
	<ele>1244.60</ele>
	<time>2025-04-29T06:47:03.000Z</time>
</trkpt>
<trkpt lat="45.9164810" lon="10.3433320">
	<ele>1244.80</ele>
	<time>2025-04-29T06:47:04.000Z</time>
</trkpt>
<trkpt lat="45.9164890" lon="10.3433520">
	<ele>1245.00</ele>
	<time>2025-04-29T06:47:05.000Z</time>
</trkpt>
<trkpt lat="45.9164920" lon="10.3433620">
	<ele>1245.20</ele>
	<time>2025-04-29T06:47:06.000Z</time>
</trkpt>
<trkpt lat="45.9165010" lon="10.3433730">
	<ele>1245.20</ele>
	<time>2025-04-29T06:47:07.000Z</time>
</trkpt>
<trkpt lat="45.9165060" lon="10.3433880">
	<ele>1245.40</ele>
	<time>2025-04-29T06:47:08.000Z</time>
</trkpt>
<trkpt lat="45.9165070" lon="10.3433980">
	<ele>1245.40</ele>
	<time>2025-04-29T06:47:09.000Z</time>
</trkpt>
<trkpt lat="45.9165090" lon="10.3434150">
	<ele>1245.60</ele>
	<time>2025-04-29T06:47:10.000Z</time>
</trkpt>
<trkpt lat="45.9165110" lon="10.3434300">
	<ele>1245.60</ele>
	<time>2025-04-29T06:47:11.000Z</time>
</trkpt>
<trkpt lat="45.9165250" lon="10.3434420">
	<ele>1245.60</ele>
	<time>2025-04-29T06:47:12.000Z</time>
</trkpt>
<trkpt lat="45.9165240" lon="10.3434610">
	<ele>1245.80</ele>
	<time>2025-04-29T06:47:13.000Z</time>
</trkpt>
<trkpt lat="45.9165240" lon="10.3434660">
	<ele>1245.80</ele>
	<time>2025-04-29T06:47:14.000Z</time>
</trkpt>
<trkpt lat="45.9165190" lon="10.3434840">
	<ele>1246.00</ele>
	<time>2025-04-29T06:47:15.000Z</time>
</trkpt>
<trkpt lat="45.9165140" lon="10.3434920">
	<ele>1246.20</ele>
	<time>2025-04-29T06:47:16.000Z</time>
</trkpt>
<trkpt lat="45.9165120" lon="10.3435120">
	<ele>1246.20</ele>
	<time>2025-04-29T06:47:17.000Z</time>
</trkpt>
<trkpt lat="45.9165070" lon="10.3435310">
	<ele>1246.40</ele>
	<time>2025-04-29T06:47:18.000Z</time>
</trkpt>
<trkpt lat="45.9165040" lon="10.3435520">
	<ele>1246.40</ele>
	<time>2025-04-29T06:47:19.000Z</time>
</trkpt>
<trkpt lat="45.9165040" lon="10.3435700">
	<ele>1246.60</ele>
	<time>2025-04-29T06:47:20.000Z</time>
</trkpt>
<trkpt lat="45.9165070" lon="10.3435800">
	<ele>1246.60</ele>
	<time>2025-04-29T06:47:21.000Z</time>
</trkpt>
<trkpt lat="45.9165100" lon="10.3435900">
	<ele>1246.80</ele>
	<time>2025-04-29T06:47:22.000Z</time>
</trkpt>
<trkpt lat="45.9165130" lon="10.3436030">
	<ele>1246.80</ele>
	<time>2025-04-29T06:47:23.000Z</time>
</trkpt>
<trkpt lat="45.9165120" lon="10.3436110">
	<ele>1247.00</ele>
	<time>2025-04-29T06:47:24.000Z</time>
</trkpt>
<trkpt lat="45.9165170" lon="10.3436180">
	<ele>1247.00</ele>
	<time>2025-04-29T06:47:25.000Z</time>
</trkpt>
<trkpt lat="45.9165190" lon="10.3436360">
	<ele>1247.20</ele>
	<time>2025-04-29T06:47:26.000Z</time>
</trkpt>
<trkpt lat="45.9165270" lon="10.3436530">
	<ele>1247.40</ele>
	<time>2025-04-29T06:47:27.000Z</time>
</trkpt>
<trkpt lat="45.9165380" lon="10.3436640">
	<ele>1247.60</ele>
	<time>2025-04-29T06:47:28.000Z</time>
</trkpt>
<trkpt lat="45.9165410" lon="10.3436800">
	<ele>1247.80</ele>
	<time>2025-04-29T06:47:29.000Z</time>
</trkpt>
<trkpt lat="45.9165380" lon="10.3436930">
	<ele>1248.00</ele>
	<time>2025-04-29T06:47:30.000Z</time>
</trkpt>
<trkpt lat="45.9165280" lon="10.3437050">
	<ele>1248.20</ele>
	<time>2025-04-29T06:47:31.000Z</time>
</trkpt>
<trkpt lat="45.9165230" lon="10.3437080">
	<ele>1248.40</ele>
	<time>2025-04-29T06:47:32.000Z</time>
</trkpt>
<trkpt lat="45.9165260" lon="10.3437130">
	<ele>1248.40</ele>
	<time>2025-04-29T06:47:33.000Z</time>
</trkpt>
<trkpt lat="45.9165370" lon="10.3437190">
	<ele>1248.60</ele>
	<time>2025-04-29T06:47:34.000Z</time>
</trkpt>
<trkpt lat="45.9165500" lon="10.3437250">
	<ele>1248.80</ele>
	<time>2025-04-29T06:47:35.000Z</time>
</trkpt>
<trkpt lat="45.9165520" lon="10.3437340">
	<ele>1248.80</ele>
	<time>2025-04-29T06:47:36.000Z</time>
</trkpt>
<trkpt lat="45.9165570" lon="10.3437480">
	<ele>1249.00</ele>
	<time>2025-04-29T06:47:37.000Z</time>
</trkpt>
<trkpt lat="45.9165590" lon="10.3437530">
	<ele>1249.20</ele>
	<time>2025-04-29T06:47:38.000Z</time>
</trkpt>
<trkpt lat="45.9165570" lon="10.3437600">
	<ele>1249.40</ele>
	<time>2025-04-29T06:47:39.000Z</time>
</trkpt>
<trkpt lat="45.9165560" lon="10.3437640">
	<ele>1249.60</ele>
	<time>2025-04-29T06:47:40.000Z</time>
</trkpt>
<trkpt lat="45.9165520" lon="10.3437670">
	<ele>1249.80</ele>
	<time>2025-04-29T06:47:41.000Z</time>
</trkpt>
<trkpt lat="45.9165510" lon="10.3437770">
	<ele>1250.00</ele>
	<time>2025-04-29T06:47:42.000Z</time>
</trkpt>
<trkpt lat="45.9165510" lon="10.3437820">
	<ele>1250.20</ele>
	<time>2025-04-29T06:47:43.000Z</time>
</trkpt>
<trkpt lat="45.9165500" lon="10.3437860">
	<ele>1250.40</ele>
	<time>2025-04-29T06:47:44.000Z</time>
</trkpt>
<trkpt lat="45.9165500" lon="10.3437860">
	<ele>1250.60</ele>
	<time>2025-04-29T06:47:45.000Z</time>
</trkpt>
<trkpt lat="45.9165510" lon="10.3437860">
	<ele>1250.80</ele>
	<time>2025-04-29T06:47:46.000Z</time>
</trkpt>
<trkpt lat="45.9165490" lon="10.3437930">
	<ele>1250.80</ele>
	<time>2025-04-29T06:47:47.000Z</time>
</trkpt>
<trkpt lat="45.9165440" lon="10.3438070">
	<ele>1251.00</ele>
	<time>2025-04-29T06:47:48.000Z</time>
</trkpt>
<trkpt lat="45.9165430" lon="10.3438210">
	<ele>1251.20</ele>
	<time>2025-04-29T06:47:49.000Z</time>
</trkpt>
<trkpt lat="45.9165460" lon="10.3438350">
	<ele>1251.40</ele>
	<time>2025-04-29T06:47:50.000Z</time>
</trkpt>
<trkpt lat="45.9165560" lon="10.3438550">
	<ele>1251.60</ele>
	<time>2025-04-29T06:47:51.000Z</time>
</trkpt>
<trkpt lat="45.9165620" lon="10.3438750">
	<ele>1251.80</ele>
	<time>2025-04-29T06:47:52.000Z</time>
</trkpt>
<trkpt lat="45.9165730" lon="10.3438980">
	<ele>1252.00</ele>
	<time>2025-04-29T06:47:53.000Z</time>
</trkpt>
<trkpt lat="45.9165750" lon="10.3439130">
	<ele>1252.20</ele>
	<time>2025-04-29T06:47:54.000Z</time>
</trkpt>
<trkpt lat="45.9165790" lon="10.3439260">
	<ele>1252.40</ele>
	<time>2025-04-29T06:47:55.000Z</time>
</trkpt>
<trkpt lat="45.9165830" lon="10.3439410">
	<ele>1252.60</ele>
	<time>2025-04-29T06:47:56.000Z</time>
</trkpt>
<trkpt lat="45.9165910" lon="10.3439590">
	<ele>1253.00</ele>
	<time>2025-04-29T06:47:57.000Z</time>
</trkpt>
<trkpt lat="45.9165940" lon="10.3439750">
	<ele>1253.00</ele>
	<time>2025-04-29T06:47:58.000Z</time>
</trkpt>
<trkpt lat="45.9165960" lon="10.3439880">
	<ele>1253.20</ele>
	<time>2025-04-29T06:47:59.000Z</time>
</trkpt>
<trkpt lat="45.9166070" lon="10.3440030">
	<ele>1253.20</ele>
	<time>2025-04-29T06:48:00.000Z</time>
</trkpt>
<trkpt lat="45.9166130" lon="10.3440170">
	<ele>1253.20</ele>
	<time>2025-04-29T06:48:01.000Z</time>
</trkpt>
<trkpt lat="45.9166190" lon="10.3440280">
	<ele>1253.40</ele>
	<time>2025-04-29T06:48:02.000Z</time>
</trkpt>
<trkpt lat="45.9166190" lon="10.3440350">
	<ele>1253.60</ele>
	<time>2025-04-29T06:48:03.000Z</time>
</trkpt>
<trkpt lat="45.9166170" lon="10.3440440">
	<ele>1253.80</ele>
	<time>2025-04-29T06:48:04.000Z</time>
</trkpt>
<trkpt lat="45.9166170" lon="10.3440580">
	<ele>1254.00</ele>
	<time>2025-04-29T06:48:05.000Z</time>
</trkpt>
<trkpt lat="45.9166140" lon="10.3440720">
	<ele>1254.20</ele>
	<time>2025-04-29T06:48:06.000Z</time>
</trkpt>
<trkpt lat="45.9166060" lon="10.3440850">
	<ele>1254.40</ele>
	<time>2025-04-29T06:48:07.000Z</time>
</trkpt>
<trkpt lat="45.9165990" lon="10.3440970">
	<ele>1254.40</ele>
	<time>2025-04-29T06:48:08.000Z</time>
</trkpt>
<trkpt lat="45.9165920" lon="10.3441100">
	<ele>1254.60</ele>
	<time>2025-04-29T06:48:09.000Z</time>
</trkpt>
<trkpt lat="45.9165860" lon="10.3441260">
	<ele>1254.80</ele>
	<time>2025-04-29T06:48:10.000Z</time>
</trkpt>
<trkpt lat="45.9165810" lon="10.3441450">
	<ele>1254.80</ele>
	<time>2025-04-29T06:48:11.000Z</time>
</trkpt>
<trkpt lat="45.9165750" lon="10.3441630">
	<ele>1255.00</ele>
	<time>2025-04-29T06:48:12.000Z</time>
</trkpt>
<trkpt lat="45.9165670" lon="10.3441850">
	<ele>1255.20</ele>
	<time>2025-04-29T06:48:13.000Z</time>
</trkpt>
<trkpt lat="45.9165550" lon="10.3442100">
	<ele>1255.40</ele>
	<time>2025-04-29T06:48:14.000Z</time>
</trkpt>
<trkpt lat="45.9165470" lon="10.3442410">
	<ele>1255.60</ele>
	<time>2025-04-29T06:48:15.000Z</time>
</trkpt>
<trkpt lat="45.9165490" lon="10.3442580">
	<ele>1255.60</ele>
	<time>2025-04-29T06:48:16.000Z</time>
</trkpt>
<trkpt lat="45.9165410" lon="10.3442700">
	<ele>1255.80</ele>
	<time>2025-04-29T06:48:17.000Z</time>
</trkpt>
<trkpt lat="45.9165460" lon="10.3442900">
	<ele>1255.80</ele>
	<time>2025-04-29T06:48:18.000Z</time>
</trkpt>
<trkpt lat="45.9165450" lon="10.3442990">
	<ele>1256.00</ele>
	<time>2025-04-29T06:48:19.000Z</time>
</trkpt>
<trkpt lat="45.9165500" lon="10.3443080">
	<ele>1256.00</ele>
	<time>2025-04-29T06:48:20.000Z</time>
</trkpt>
<trkpt lat="45.9165500" lon="10.3443180">
	<ele>1256.20</ele>
	<time>2025-04-29T06:48:21.000Z</time>
</trkpt>
<trkpt lat="45.9165430" lon="10.3443290">
	<ele>1256.20</ele>
	<time>2025-04-29T06:48:22.000Z</time>
</trkpt>
<trkpt lat="45.9165390" lon="10.3443380">
	<ele>1256.40</ele>
	<time>2025-04-29T06:48:23.000Z</time>
</trkpt>
<trkpt lat="45.9165310" lon="10.3443500">
	<ele>1256.40</ele>
	<time>2025-04-29T06:48:24.000Z</time>
</trkpt>
<trkpt lat="45.9165260" lon="10.3443650">
	<ele>1256.60</ele>
	<time>2025-04-29T06:48:25.000Z</time>
</trkpt>
<trkpt lat="45.9165220" lon="10.3443810">
	<ele>1256.80</ele>
	<time>2025-04-29T06:48:26.000Z</time>
</trkpt>
<trkpt lat="45.9165180" lon="10.3443910">
	<ele>1257.00</ele>
	<time>2025-04-29T06:48:27.000Z</time>
</trkpt>
<trkpt lat="45.9165110" lon="10.3444010">
	<ele>1257.00</ele>
	<time>2025-04-29T06:48:28.000Z</time>
</trkpt>
<trkpt lat="45.9165020" lon="10.3444150">
	<ele>1257.20</ele>
	<time>2025-04-29T06:48:29.000Z</time>
</trkpt>
<trkpt lat="45.9164980" lon="10.3444280">
	<ele>1257.40</ele>
	<time>2025-04-29T06:48:30.000Z</time>
</trkpt>
<trkpt lat="45.9165030" lon="10.3444450">
	<ele>1257.60</ele>
	<time>2025-04-29T06:48:31.000Z</time>
</trkpt>
<trkpt lat="45.9164990" lon="10.3444520">
	<ele>1257.80</ele>
	<time>2025-04-29T06:48:32.000Z</time>
</trkpt>
<trkpt lat="45.9164890" lon="10.3444490">
	<ele>1257.80</ele>
	<time>2025-04-29T06:48:33.000Z</time>
</trkpt>
<trkpt lat="45.9164860" lon="10.3444580">
	<ele>1258.00</ele>
	<time>2025-04-29T06:48:34.000Z</time>
</trkpt>
<trkpt lat="45.9164840" lon="10.3444670">
	<ele>1258.20</ele>
	<time>2025-04-29T06:48:35.000Z</time>
</trkpt>
<trkpt lat="45.9164900" lon="10.3444830">
	<ele>1258.20</ele>
	<time>2025-04-29T06:48:36.000Z</time>
</trkpt>
<trkpt lat="45.9165030" lon="10.3445000">
	<ele>1258.40</ele>
	<time>2025-04-29T06:48:37.000Z</time>
</trkpt>
<trkpt lat="45.9165170" lon="10.3445170">
	<ele>1258.80</ele>
	<time>2025-04-29T06:48:38.000Z</time>
</trkpt>
<trkpt lat="45.9165210" lon="10.3445330">
	<ele>1259.00</ele>
	<time>2025-04-29T06:48:39.000Z</time>
</trkpt>
<trkpt lat="45.9165180" lon="10.3445440">
	<ele>1259.20</ele>
	<time>2025-04-29T06:48:40.000Z</time>
</trkpt>
<trkpt lat="45.9165070" lon="10.3445580">
	<ele>1259.20</ele>
	<time>2025-04-29T06:48:41.000Z</time>
</trkpt>
<trkpt lat="45.9165030" lon="10.3445670">
	<ele>1259.60</ele>
	<time>2025-04-29T06:48:42.000Z</time>
</trkpt>
<trkpt lat="45.9164920" lon="10.3445700">
	<ele>1259.60</ele>
	<time>2025-04-29T06:48:43.000Z</time>
</trkpt>
<trkpt lat="45.9164840" lon="10.3445820">
	<ele>1259.80</ele>
	<time>2025-04-29T06:48:44.000Z</time>
</trkpt>
<trkpt lat="45.9164830" lon="10.3445980">
	<ele>1260.00</ele>
	<time>2025-04-29T06:48:45.000Z</time>
</trkpt>
<trkpt lat="45.9164830" lon="10.3446110">
	<ele>1260.20</ele>
	<time>2025-04-29T06:48:46.000Z</time>
</trkpt>
<trkpt lat="45.9164810" lon="10.3446170">
	<ele>1260.20</ele>
	<time>2025-04-29T06:48:47.000Z</time>
</trkpt>
<trkpt lat="45.9164850" lon="10.3446240">
	<ele>1260.40</ele>
	<time>2025-04-29T06:48:48.000Z</time>
</trkpt>
<trkpt lat="45.9164970" lon="10.3446410">
	<ele>1260.60</ele>
	<time>2025-04-29T06:48:49.000Z</time>
</trkpt>
<trkpt lat="45.9164960" lon="10.3446560">
	<ele>1260.80</ele>
	<time>2025-04-29T06:48:50.000Z</time>
</trkpt>
<trkpt lat="45.9165010" lon="10.3446660">
	<ele>1260.80</ele>
	<time>2025-04-29T06:48:51.000Z</time>
</trkpt>
<trkpt lat="45.9165090" lon="10.3446800">
	<ele>1261.20</ele>
	<time>2025-04-29T06:48:52.000Z</time>
</trkpt>
<trkpt lat="45.9165150" lon="10.3446920">
	<ele>1261.40</ele>
	<time>2025-04-29T06:48:53.000Z</time>
</trkpt>
<trkpt lat="45.9165150" lon="10.3446950">
	<ele>1261.80</ele>
	<time>2025-04-29T06:48:54.000Z</time>
</trkpt>
<trkpt lat="45.9165120" lon="10.3446950">
	<ele>1262.00</ele>
	<time>2025-04-29T06:48:55.000Z</time>
</trkpt>
<trkpt lat="45.9165120" lon="10.3447000">
	<ele>1262.00</ele>
	<time>2025-04-29T06:48:56.000Z</time>
</trkpt>
<trkpt lat="45.9165150" lon="10.3447090">
	<ele>1262.20</ele>
	<time>2025-04-29T06:48:57.000Z</time>
</trkpt>
<trkpt lat="45.9165210" lon="10.3447240">
	<ele>1262.40</ele>
	<time>2025-04-29T06:48:58.000Z</time>
</trkpt>
<trkpt lat="45.9165360" lon="10.3447380">
	<ele>1262.40</ele>
	<time>2025-04-29T06:48:59.000Z</time>
</trkpt>
<trkpt lat="45.9165480" lon="10.3447490">
	<ele>1262.80</ele>
	<time>2025-04-29T06:49:00.000Z</time>
</trkpt>
<trkpt lat="45.9165640" lon="10.3447640">
	<ele>1263.00</ele>
	<time>2025-04-29T06:49:01.000Z</time>
</trkpt>
<trkpt lat="45.9165570" lon="10.3447720">
	<ele>1263.00</ele>
	<time>2025-04-29T06:49:02.000Z</time>
</trkpt>
<trkpt lat="45.9165510" lon="10.3447800">
	<ele>1263.20</ele>
	<time>2025-04-29T06:49:03.000Z</time>
</trkpt>
<trkpt lat="45.9165410" lon="10.3447800">
	<ele>1263.60</ele>
	<time>2025-04-29T06:49:04.000Z</time>
</trkpt>
<trkpt lat="45.9165380" lon="10.3447800">
	<ele>1263.80</ele>
	<time>2025-04-29T06:49:05.000Z</time>
</trkpt>
<trkpt lat="45.9165350" lon="10.3447850">
	<ele>1263.80</ele>
	<time>2025-04-29T06:49:06.000Z</time>
</trkpt>
<trkpt lat="45.9165280" lon="10.3447890">
	<ele>1264.20</ele>
	<time>2025-04-29T06:49:07.000Z</time>
</trkpt>
<trkpt lat="45.9165300" lon="10.3447900">
	<ele>1264.20</ele>
	<time>2025-04-29T06:49:08.000Z</time>
</trkpt>
<trkpt lat="45.9165440" lon="10.3448030">
	<ele>1264.40</ele>
	<time>2025-04-29T06:49:09.000Z</time>
</trkpt>
<trkpt lat="45.9165470" lon="10.3448100">
	<ele>1264.40</ele>
	<time>2025-04-29T06:49:10.000Z</time>
</trkpt>
<trkpt lat="45.9165480" lon="10.3448130">
	<ele>1264.60</ele>
	<time>2025-04-29T06:49:11.000Z</time>
</trkpt>
<trkpt lat="45.9165500" lon="10.3448170">
	<ele>1264.80</ele>
	<time>2025-04-29T06:49:12.000Z</time>
</trkpt>
<trkpt lat="45.9165570" lon="10.3448200">
	<ele>1265.20</ele>
	<time>2025-04-29T06:49:13.000Z</time>
</trkpt>
<trkpt lat="45.9165660" lon="10.3448180">
	<ele>1265.40</ele>
	<time>2025-04-29T06:49:14.000Z</time>
</trkpt>
<trkpt lat="45.9165790" lon="10.3448180">
	<ele>1265.60</ele>
	<time>2025-04-29T06:49:15.000Z</time>
</trkpt>
<trkpt lat="45.9165710" lon="10.3448170">
	<ele>1265.80</ele>
	<time>2025-04-29T06:49:16.000Z</time>
</trkpt>
<trkpt lat="45.9165600" lon="10.3448210">
	<ele>1265.80</ele>
	<time>2025-04-29T06:49:17.000Z</time>
</trkpt>
<trkpt lat="45.9165570" lon="10.3448230">
	<ele>1266.00</ele>
	<time>2025-04-29T06:49:18.000Z</time>
</trkpt>
<trkpt lat="45.9165510" lon="10.3448290">
	<ele>1266.00</ele>
	<time>2025-04-29T06:49:19.000Z</time>
</trkpt>
<trkpt lat="45.9165450" lon="10.3448370">
	<ele>1266.20</ele>
	<time>2025-04-29T06:49:20.000Z</time>
</trkpt>
<trkpt lat="45.9165420" lon="10.3448480">
	<ele>1266.40</ele>
	<time>2025-04-29T06:49:21.000Z</time>
</trkpt>
<trkpt lat="45.9165390" lon="10.3448620">
	<ele>1266.60</ele>
	<time>2025-04-29T06:49:22.000Z</time>
</trkpt>
<trkpt lat="45.9165340" lon="10.3448750">
	<ele>1266.80</ele>
	<time>2025-04-29T06:49:23.000Z</time>
</trkpt>
<trkpt lat="45.9165270" lon="10.3448900">
	<ele>1267.00</ele>
	<time>2025-04-29T06:49:24.000Z</time>
</trkpt>
<trkpt lat="45.9165260" lon="10.3448990">
	<ele>1267.20</ele>
	<time>2025-04-29T06:49:25.000Z</time>
</trkpt>
<trkpt lat="45.9165220" lon="10.3449090">
	<ele>1267.40</ele>
	<time>2025-04-29T06:49:26.000Z</time>
</trkpt>
<trkpt lat="45.9165200" lon="10.3449160">
	<ele>1267.60</ele>
	<time>2025-04-29T06:49:27.000Z</time>
</trkpt>
<trkpt lat="45.9165220" lon="10.3449260">
	<ele>1267.80</ele>
	<time>2025-04-29T06:49:28.000Z</time>
</trkpt>
<trkpt lat="45.9165180" lon="10.3449340">
	<ele>1268.00</ele>
	<time>2025-04-29T06:49:29.000Z</time>
</trkpt>
<trkpt lat="45.9165090" lon="10.3449420">
	<ele>1268.20</ele>
	<time>2025-04-29T06:49:30.000Z</time>
</trkpt>
<trkpt lat="45.9164950" lon="10.3449490">
	<ele>1268.40</ele>
	<time>2025-04-29T06:49:31.000Z</time>
</trkpt>
<trkpt lat="45.9164760" lon="10.3449570">
	<ele>1268.40</ele>
	<time>2025-04-29T06:49:32.000Z</time>
</trkpt>
<trkpt lat="45.9164670" lon="10.3449680">
	<ele>1268.60</ele>
	<time>2025-04-29T06:49:33.000Z</time>
</trkpt>
<trkpt lat="45.9164580" lon="10.3449810">
	<ele>1268.80</ele>
	<time>2025-04-29T06:49:34.000Z</time>
</trkpt>
<trkpt lat="45.9164550" lon="10.3449950">
	<ele>1268.80</ele>
	<time>2025-04-29T06:49:35.000Z</time>
</trkpt>
<trkpt lat="45.9164560" lon="10.3450070">
	<ele>1269.00</ele>
	<time>2025-04-29T06:49:36.000Z</time>
</trkpt>
<trkpt lat="45.9164560" lon="10.3450180">
	<ele>1269.00</ele>
	<time>2025-04-29T06:49:37.000Z</time>
</trkpt>
<trkpt lat="45.9164560" lon="10.3450300">
	<ele>1269.40</ele>
	<time>2025-04-29T06:49:38.000Z</time>
</trkpt>
<trkpt lat="45.9164520" lon="10.3450450">
	<ele>1269.60</ele>
	<time>2025-04-29T06:49:39.000Z</time>
</trkpt>
<trkpt lat="45.9164520" lon="10.3450500">
	<ele>1269.80</ele>
	<time>2025-04-29T06:49:40.000Z</time>
</trkpt>
<trkpt lat="45.9164430" lon="10.3450550">
	<ele>1270.00</ele>
	<time>2025-04-29T06:49:41.000Z</time>
</trkpt>
<trkpt lat="45.9164530" lon="10.3450680">
	<ele>1270.20</ele>
	<time>2025-04-29T06:49:42.000Z</time>
</trkpt>
<trkpt lat="45.9164560" lon="10.3450820">
	<ele>1270.40</ele>
	<time>2025-04-29T06:49:43.000Z</time>
</trkpt>
<trkpt lat="45.9164630" lon="10.3450990">
	<ele>1270.60</ele>
	<time>2025-04-29T06:49:44.000Z</time>
</trkpt>
<trkpt lat="45.9164660" lon="10.3451160">
	<ele>1270.80</ele>
	<time>2025-04-29T06:49:45.000Z</time>
</trkpt>
<trkpt lat="45.9164670" lon="10.3451290">
	<ele>1271.00</ele>
	<time>2025-04-29T06:49:46.000Z</time>
</trkpt>
<trkpt lat="45.9164680" lon="10.3451420">
	<ele>1271.00</ele>
	<time>2025-04-29T06:49:47.000Z</time>
</trkpt>
<trkpt lat="45.9164520" lon="10.3451530">
	<ele>1271.20</ele>
	<time>2025-04-29T06:49:48.000Z</time>
</trkpt>
<trkpt lat="45.9164370" lon="10.3451670">
	<ele>1271.40</ele>
	<time>2025-04-29T06:49:49.000Z</time>
</trkpt>
<trkpt lat="45.9164300" lon="10.3451890">
	<ele>1271.60</ele>
	<time>2025-04-29T06:49:50.000Z</time>
</trkpt>
<trkpt lat="45.9164280" lon="10.3452010">
	<ele>1271.80</ele>
	<time>2025-04-29T06:49:51.000Z</time>
</trkpt>
<trkpt lat="45.9164300" lon="10.3452100">
	<ele>1272.00</ele>
	<time>2025-04-29T06:49:52.000Z</time>
</trkpt>
<trkpt lat="45.9164420" lon="10.3452250">
	<ele>1272.00</ele>
	<time>2025-04-29T06:49:53.000Z</time>
</trkpt>
<trkpt lat="45.9164480" lon="10.3452360">
	<ele>1272.20</ele>
	<time>2025-04-29T06:49:54.000Z</time>
</trkpt>
<trkpt lat="45.9164440" lon="10.3452430">
	<ele>1272.40</ele>
	<time>2025-04-29T06:49:55.000Z</time>
</trkpt>
<trkpt lat="45.9164420" lon="10.3452490">
	<ele>1272.60</ele>
	<time>2025-04-29T06:49:56.000Z</time>
</trkpt>
<trkpt lat="45.9164230" lon="10.3452610">
	<ele>1272.60</ele>
	<time>2025-04-29T06:49:57.000Z</time>
</trkpt>
<trkpt lat="45.9164120" lon="10.3452710">
	<ele>1272.80</ele>
	<time>2025-04-29T06:49:58.000Z</time>
</trkpt>
<trkpt lat="45.9164150" lon="10.3452890">
	<ele>1273.00</ele>
	<time>2025-04-29T06:49:59.000Z</time>
</trkpt>
<trkpt lat="45.9164260" lon="10.3453050">
	<ele>1273.00</ele>
	<time>2025-04-29T06:50:00.000Z</time>
</trkpt>
<trkpt lat="45.9164360" lon="10.3453200">
	<ele>1273.20</ele>
	<time>2025-04-29T06:50:01.000Z</time>
</trkpt>
<trkpt lat="45.9164350" lon="10.3453310">
	<ele>1273.60</ele>
	<time>2025-04-29T06:50:02.000Z</time>
</trkpt>
<trkpt lat="45.9164290" lon="10.3453450">
	<ele>1273.80</ele>
	<time>2025-04-29T06:50:03.000Z</time>
</trkpt>
<trkpt lat="45.9164140" lon="10.3453540">
	<ele>1273.80</ele>
	<time>2025-04-29T06:50:04.000Z</time>
</trkpt>
<trkpt lat="45.9163940" lon="10.3453490">
	<ele>1274.00</ele>
	<time>2025-04-29T06:50:05.000Z</time>
</trkpt>
<trkpt lat="45.9163880" lon="10.3453520">
	<ele>1274.20</ele>
	<time>2025-04-29T06:50:06.000Z</time>
</trkpt>
<trkpt lat="45.9163880" lon="10.3453570">
	<ele>1274.40</ele>
	<time>2025-04-29T06:50:07.000Z</time>
</trkpt>
<trkpt lat="45.9163730" lon="10.3453550">
	<ele>1274.40</ele>
	<time>2025-04-29T06:50:08.000Z</time>
</trkpt>
<trkpt lat="45.9163690" lon="10.3453580">
	<ele>1274.60</ele>
	<time>2025-04-29T06:50:09.000Z</time>
</trkpt>
<trkpt lat="45.9163800" lon="10.3453780">
	<ele>1274.80</ele>
	<time>2025-04-29T06:50:10.000Z</time>
</trkpt>
<trkpt lat="45.9163840" lon="10.3453880">
	<ele>1274.80</ele>
	<time>2025-04-29T06:50:11.000Z</time>
</trkpt>
<trkpt lat="45.9164010" lon="10.3453870">
	<ele>1275.00</ele>
	<time>2025-04-29T06:50:12.000Z</time>
</trkpt>
<trkpt lat="45.9164240" lon="10.3454060">
	<ele>1275.20</ele>
	<time>2025-04-29T06:50:13.000Z</time>
</trkpt>
<trkpt lat="45.9164430" lon="10.3454350">
	<ele>1275.40</ele>
	<time>2025-04-29T06:50:14.000Z</time>
</trkpt>
<trkpt lat="45.9164520" lon="10.3454510">
	<ele>1275.60</ele>
	<time>2025-04-29T06:50:15.000Z</time>
</trkpt>
<trkpt lat="45.9164560" lon="10.3454660">
	<ele>1275.80</ele>
	<time>2025-04-29T06:50:16.000Z</time>
</trkpt>
<trkpt lat="45.9164470" lon="10.3454800">
	<ele>1276.00</ele>
	<time>2025-04-29T06:50:17.000Z</time>
</trkpt>
<trkpt lat="45.9164520" lon="10.3454960">
	<ele>1276.20</ele>
	<time>2025-04-29T06:50:18.000Z</time>
</trkpt>
<trkpt lat="45.9164540" lon="10.3455060">
	<ele>1276.40</ele>
	<time>2025-04-29T06:50:19.000Z</time>
</trkpt>
<trkpt lat="45.9164290" lon="10.3455150">
	<ele>1276.60</ele>
	<time>2025-04-29T06:50:20.000Z</time>
</trkpt>
<trkpt lat="45.9164190" lon="10.3455230">
	<ele>1276.60</ele>
	<time>2025-04-29T06:50:21.000Z</time>
</trkpt>
<trkpt lat="45.9164110" lon="10.3455280">
	<ele>1276.80</ele>
	<time>2025-04-29T06:50:22.000Z</time>
</trkpt>
<trkpt lat="45.9164070" lon="10.3455340">
	<ele>1277.00</ele>
	<time>2025-04-29T06:50:23.000Z</time>
</trkpt>
<trkpt lat="45.9164060" lon="10.3455390">
	<ele>1277.00</ele>
	<time>2025-04-29T06:50:24.000Z</time>
</trkpt>
<trkpt lat="45.9164090" lon="10.3455480">
	<ele>1277.20</ele>
	<time>2025-04-29T06:50:25.000Z</time>
</trkpt>
<trkpt lat="45.9164080" lon="10.3455580">
	<ele>1277.20</ele>
	<time>2025-04-29T06:50:26.000Z</time>
</trkpt>
<trkpt lat="45.9164100" lon="10.3455670">
	<ele>1277.20</ele>
	<time>2025-04-29T06:50:27.000Z</time>
</trkpt>
<trkpt lat="45.9164030" lon="10.3455760">
	<ele>1277.60</ele>
	<time>2025-04-29T06:50:28.000Z</time>
</trkpt>
<trkpt lat="45.9164030" lon="10.3455840">
	<ele>1277.80</ele>
	<time>2025-04-29T06:50:29.000Z</time>
</trkpt>
<trkpt lat="45.9163980" lon="10.3455970">
	<ele>1278.00</ele>
	<time>2025-04-29T06:50:30.000Z</time>
</trkpt>
<trkpt lat="45.9163930" lon="10.3456050">
	<ele>1278.40</ele>
	<time>2025-04-29T06:50:31.000Z</time>
</trkpt>
<trkpt lat="45.9163890" lon="10.3456110">
	<ele>1278.40</ele>
	<time>2025-04-29T06:50:32.000Z</time>
</trkpt>
<trkpt lat="45.9163800" lon="10.3456080">
	<ele>1278.80</ele>
	<time>2025-04-29T06:50:33.000Z</time>
</trkpt>
<trkpt lat="45.9163760" lon="10.3456210">
	<ele>1279.00</ele>
	<time>2025-04-29T06:50:34.000Z</time>
</trkpt>
<trkpt lat="45.9163680" lon="10.3456370">
	<ele>1279.00</ele>
	<time>2025-04-29T06:50:35.000Z</time>
</trkpt>
<trkpt lat="45.9163610" lon="10.3456460">
	<ele>1279.20</ele>
	<time>2025-04-29T06:50:36.000Z</time>
</trkpt>
<trkpt lat="45.9163530" lon="10.3456560">
	<ele>1279.40</ele>
	<time>2025-04-29T06:50:37.000Z</time>
</trkpt>
<trkpt lat="45.9163440" lon="10.3456630">
	<ele>1279.60</ele>
	<time>2025-04-29T06:50:38.000Z</time>
</trkpt>
<trkpt lat="45.9163400" lon="10.3456700">
	<ele>1279.80</ele>
	<time>2025-04-29T06:50:39.000Z</time>
</trkpt>
<trkpt lat="45.9163440" lon="10.3456770">
	<ele>1280.00</ele>
	<time>2025-04-29T06:50:40.000Z</time>
</trkpt>
<trkpt lat="45.9163440" lon="10.3456840">
	<ele>1280.20</ele>
	<time>2025-04-29T06:50:41.000Z</time>
</trkpt>
<trkpt lat="45.9163450" lon="10.3456900">
	<ele>1280.40</ele>
	<time>2025-04-29T06:50:42.000Z</time>
</trkpt>
<trkpt lat="45.9163350" lon="10.3457040">
	<ele>1280.40</ele>
	<time>2025-04-29T06:50:43.000Z</time>
</trkpt>
<trkpt lat="45.9163450" lon="10.3457260">
	<ele>1280.60</ele>
	<time>2025-04-29T06:50:44.000Z</time>
</trkpt>
<trkpt lat="45.9163440" lon="10.3457410">
	<ele>1280.60</ele>
	<time>2025-04-29T06:50:45.000Z</time>
</trkpt>
<trkpt lat="45.9163350" lon="10.3457480">
	<ele>1280.80</ele>
	<time>2025-04-29T06:50:46.000Z</time>
</trkpt>
<trkpt lat="45.9163290" lon="10.3457520">
	<ele>1280.80</ele>
	<time>2025-04-29T06:50:47.000Z</time>
</trkpt>
<trkpt lat="45.9163180" lon="10.3457610">
	<ele>1280.80</ele>
	<time>2025-04-29T06:50:48.000Z</time>
</trkpt>
<trkpt lat="45.9163230" lon="10.3457730">
	<ele>1281.00</ele>
	<time>2025-04-29T06:50:49.000Z</time>
</trkpt>
<trkpt lat="45.9163250" lon="10.3457840">
	<ele>1281.20</ele>
	<time>2025-04-29T06:50:50.000Z</time>
</trkpt>
<trkpt lat="45.9163240" lon="10.3457980">
	<ele>1281.40</ele>
	<time>2025-04-29T06:50:51.000Z</time>
</trkpt>
<trkpt lat="45.9163370" lon="10.3458150">
	<ele>1281.40</ele>
	<time>2025-04-29T06:50:52.000Z</time>
</trkpt>
<trkpt lat="45.9163340" lon="10.3458290">
	<ele>1281.60</ele>
	<time>2025-04-29T06:50:53.000Z</time>
</trkpt>
<trkpt lat="45.9163420" lon="10.3458410">
	<ele>1281.80</ele>
	<time>2025-04-29T06:50:54.000Z</time>
</trkpt>
<trkpt lat="45.9163390" lon="10.3458490">
	<ele>1282.00</ele>
	<time>2025-04-29T06:50:55.000Z</time>
</trkpt>
<trkpt lat="45.9163470" lon="10.3458560">
	<ele>1282.40</ele>
	<time>2025-04-29T06:50:56.000Z</time>
</trkpt>
<trkpt lat="45.9163680" lon="10.3458690">
	<ele>1282.40</ele>
	<time>2025-04-29T06:50:57.000Z</time>
</trkpt>
<trkpt lat="45.9163780" lon="10.3458850">
	<ele>1282.60</ele>
	<time>2025-04-29T06:50:58.000Z</time>
</trkpt>
<trkpt lat="45.9163810" lon="10.3458990">
	<ele>1282.80</ele>
	<time>2025-04-29T06:50:59.000Z</time>
</trkpt>
<trkpt lat="45.9163970" lon="10.3459130">
	<ele>1282.80</ele>
	<time>2025-04-29T06:51:00.000Z</time>
</trkpt>
<trkpt lat="45.9163990" lon="10.3459180">
	<ele>1283.00</ele>
	<time>2025-04-29T06:51:01.000Z</time>
</trkpt>
<trkpt lat="45.9164080" lon="10.3459290">
	<ele>1283.20</ele>
	<time>2025-04-29T06:51:02.000Z</time>
</trkpt>
<trkpt lat="45.9164140" lon="10.3459330">
	<ele>1283.40</ele>
	<time>2025-04-29T06:51:03.000Z</time>
</trkpt>
<trkpt lat="45.9164140" lon="10.3459350">
	<ele>1283.60</ele>
	<time>2025-04-29T06:51:04.000Z</time>
</trkpt>
<trkpt lat="45.9164090" lon="10.3459420">
	<ele>1283.60</ele>
	<time>2025-04-29T06:51:05.000Z</time>
</trkpt>
<trkpt lat="45.9164120" lon="10.3459500">
	<ele>1283.80</ele>
	<time>2025-04-29T06:51:06.000Z</time>
</trkpt>
<trkpt lat="45.9164100" lon="10.3459590">
	<ele>1283.80</ele>
	<time>2025-04-29T06:51:07.000Z</time>
</trkpt>
<trkpt lat="45.9164040" lon="10.3459670">
	<ele>1284.20</ele>
	<time>2025-04-29T06:51:08.000Z</time>
</trkpt>
<trkpt lat="45.9164060" lon="10.3459810">
	<ele>1284.40</ele>
	<time>2025-04-29T06:51:09.000Z</time>
</trkpt>
<trkpt lat="45.9164100" lon="10.3459870">
	<ele>1284.40</ele>
	<time>2025-04-29T06:51:10.000Z</time>
</trkpt>
<trkpt lat="45.9164180" lon="10.3459950">
	<ele>1284.60</ele>
	<time>2025-04-29T06:51:11.000Z</time>
</trkpt>
<trkpt lat="45.9164250" lon="10.3460080">
	<ele>1284.60</ele>
	<time>2025-04-29T06:51:12.000Z</time>
</trkpt>
<trkpt lat="45.9164350" lon="10.3460200">
	<ele>1284.80</ele>
	<time>2025-04-29T06:51:13.000Z</time>
</trkpt>
<trkpt lat="45.9164330" lon="10.3460320">
	<ele>1284.80</ele>
	<time>2025-04-29T06:51:14.000Z</time>
</trkpt>
<trkpt lat="45.9164260" lon="10.3460430">
	<ele>1285.00</ele>
	<time>2025-04-29T06:51:15.000Z</time>
</trkpt>
<trkpt lat="45.9164200" lon="10.3460510">
	<ele>1285.20</ele>
	<time>2025-04-29T06:51:16.000Z</time>
</trkpt>
<trkpt lat="45.9164180" lon="10.3460580">
	<ele>1285.40</ele>
	<time>2025-04-29T06:51:17.000Z</time>
</trkpt>
<trkpt lat="45.9164140" lon="10.3460680">
	<ele>1285.40</ele>
	<time>2025-04-29T06:51:18.000Z</time>
</trkpt>
<trkpt lat="45.9164200" lon="10.3460810">
	<ele>1285.60</ele>
	<time>2025-04-29T06:51:19.000Z</time>
</trkpt>
<trkpt lat="45.9164330" lon="10.3460970">
	<ele>1285.80</ele>
	<time>2025-04-29T06:51:20.000Z</time>
</trkpt>
<trkpt lat="45.9164390" lon="10.3461080">
	<ele>1286.00</ele>
	<time>2025-04-29T06:51:21.000Z</time>
</trkpt>
<trkpt lat="45.9164390" lon="10.3461210">
	<ele>1286.20</ele>
	<time>2025-04-29T06:51:22.000Z</time>
</trkpt>
<trkpt lat="45.9164340" lon="10.3461340">
	<ele>1286.40</ele>
	<time>2025-04-29T06:51:23.000Z</time>
</trkpt>
<trkpt lat="45.9164320" lon="10.3461530">
	<ele>1286.80</ele>
	<time>2025-04-29T06:51:24.000Z</time>
</trkpt>
<trkpt lat="45.9164290" lon="10.3461700">
	<ele>1287.00</ele>
	<time>2025-04-29T06:51:25.000Z</time>
</trkpt>
<trkpt lat="45.9164350" lon="10.3461820">
	<ele>1287.20</ele>
	<time>2025-04-29T06:51:26.000Z</time>
</trkpt>
<trkpt lat="45.9164260" lon="10.3461950">
	<ele>1287.20</ele>
	<time>2025-04-29T06:51:27.000Z</time>
</trkpt>
<trkpt lat="45.9164230" lon="10.3462060">
	<ele>1287.40</ele>
	<time>2025-04-29T06:51:28.000Z</time>
</trkpt>
<trkpt lat="45.9164270" lon="10.3462160">
	<ele>1287.60</ele>
	<time>2025-04-29T06:51:29.000Z</time>
</trkpt>
<trkpt lat="45.9164240" lon="10.3462250">
	<ele>1287.80</ele>
	<time>2025-04-29T06:51:30.000Z</time>
</trkpt>
<trkpt lat="45.9164170" lon="10.3462380">
	<ele>1287.80</ele>
	<time>2025-04-29T06:51:31.000Z</time>
</trkpt>
<trkpt lat="45.9164020" lon="10.3462490">
	<ele>1287.80</ele>
	<time>2025-04-29T06:51:32.000Z</time>
</trkpt>
<trkpt lat="45.9163950" lon="10.3462580">
	<ele>1288.00</ele>
	<time>2025-04-29T06:51:33.000Z</time>
</trkpt>
<trkpt lat="45.9163940" lon="10.3462650">
	<ele>1288.20</ele>
	<time>2025-04-29T06:51:34.000Z</time>
</trkpt>
<trkpt lat="45.9163910" lon="10.3462660">
	<ele>1288.20</ele>
	<time>2025-04-29T06:51:35.000Z</time>
</trkpt>
<trkpt lat="45.9163900" lon="10.3462730">
	<ele>1288.20</ele>
	<time>2025-04-29T06:51:36.000Z</time>
</trkpt>
<trkpt lat="45.9163840" lon="10.3462750">
	<ele>1288.60</ele>
	<time>2025-04-29T06:51:37.000Z</time>
</trkpt>
<trkpt lat="45.9163780" lon="10.3462750">
	<ele>1288.60</ele>
	<time>2025-04-29T06:51:38.000Z</time>
</trkpt>
<trkpt lat="45.9163740" lon="10.3462830">
	<ele>1288.80</ele>
	<time>2025-04-29T06:51:39.000Z</time>
</trkpt>
<trkpt lat="45.9163810" lon="10.3462950">
	<ele>1289.00</ele>
	<time>2025-04-29T06:51:40.000Z</time>
</trkpt>
<trkpt lat="45.9163750" lon="10.3463010">
	<ele>1289.20</ele>
	<time>2025-04-29T06:51:41.000Z</time>
</trkpt>
<trkpt lat="45.9163700" lon="10.3463170">
	<ele>1289.20</ele>
	<time>2025-04-29T06:51:42.000Z</time>
</trkpt>
<trkpt lat="45.9163720" lon="10.3463260">
	<ele>1289.20</ele>
	<time>2025-04-29T06:51:43.000Z</time>
</trkpt>
<trkpt lat="45.9163690" lon="10.3463390">
	<ele>1289.40</ele>
	<time>2025-04-29T06:51:44.000Z</time>
</trkpt>
<trkpt lat="45.9163670" lon="10.3463510">
	<ele>1289.40</ele>
	<time>2025-04-29T06:51:45.000Z</time>
</trkpt>
<trkpt lat="45.9163660" lon="10.3463560">
	<ele>1289.60</ele>
	<time>2025-04-29T06:51:46.000Z</time>
</trkpt>
<trkpt lat="45.9163610" lon="10.3463590">
	<ele>1289.80</ele>
	<time>2025-04-29T06:51:47.000Z</time>
</trkpt>
<trkpt lat="45.9163600" lon="10.3463690">
	<ele>1289.80</ele>
	<time>2025-04-29T06:51:48.000Z</time>
</trkpt>
<trkpt lat="45.9163560" lon="10.3463780">
	<ele>1290.20</ele>
	<time>2025-04-29T06:51:49.000Z</time>
</trkpt>
<trkpt lat="45.9163500" lon="10.3463780">
	<ele>1290.40</ele>
	<time>2025-04-29T06:51:50.000Z</time>
</trkpt>
<trkpt lat="45.9163540" lon="10.3463920">
	<ele>1290.60</ele>
	<time>2025-04-29T06:51:51.000Z</time>
</trkpt>
<trkpt lat="45.9163500" lon="10.3464090">
	<ele>1290.80</ele>
	<time>2025-04-29T06:51:52.000Z</time>
</trkpt>
<trkpt lat="45.9163440" lon="10.3464260">
	<ele>1290.80</ele>
	<time>2025-04-29T06:51:53.000Z</time>
</trkpt>
<trkpt lat="45.9163390" lon="10.3464380">
	<ele>1290.80</ele>
	<time>2025-04-29T06:51:54.000Z</time>
</trkpt>
<trkpt lat="45.9163360" lon="10.3464520">
	<ele>1290.80</ele>
	<time>2025-04-29T06:51:55.000Z</time>
</trkpt>
<trkpt lat="45.9163320" lon="10.3464630">
	<ele>1291.00</ele>
	<time>2025-04-29T06:51:56.000Z</time>
</trkpt>
<trkpt lat="45.9163320" lon="10.3464730">
	<ele>1291.00</ele>
	<time>2025-04-29T06:51:57.000Z</time>
</trkpt>
<trkpt lat="45.9163320" lon="10.3464920">
	<ele>1291.20</ele>
	<time>2025-04-29T06:51:58.000Z</time>
</trkpt>
<trkpt lat="45.9163310" lon="10.3465030">
	<ele>1291.20</ele>
	<time>2025-04-29T06:51:59.000Z</time>
</trkpt>
<trkpt lat="45.9163350" lon="10.3465090">
	<ele>1291.40</ele>
	<time>2025-04-29T06:52:00.000Z</time>
</trkpt>
<trkpt lat="45.9163370" lon="10.3465200">
	<ele>1291.40</ele>
	<time>2025-04-29T06:52:01.000Z</time>
</trkpt>
<trkpt lat="45.9163360" lon="10.3465360">
	<ele>1291.60</ele>
	<time>2025-04-29T06:52:02.000Z</time>
</trkpt>
<trkpt lat="45.9163420" lon="10.3465480">
	<ele>1291.80</ele>
	<time>2025-04-29T06:52:03.000Z</time>
</trkpt>
<trkpt lat="45.9163440" lon="10.3465690">
	<ele>1292.00</ele>
	<time>2025-04-29T06:52:04.000Z</time>
</trkpt>
<trkpt lat="45.9163420" lon="10.3465760">
	<ele>1292.20</ele>
	<time>2025-04-29T06:52:05.000Z</time>
</trkpt>
<trkpt lat="45.9163560" lon="10.3465940">
	<ele>1292.40</ele>
	<time>2025-04-29T06:52:06.000Z</time>
</trkpt>
<trkpt lat="45.9163570" lon="10.3466080">
	<ele>1292.40</ele>
	<time>2025-04-29T06:52:07.000Z</time>
</trkpt>
<trkpt lat="45.9163580" lon="10.3466210">
	<ele>1292.60</ele>
	<time>2025-04-29T06:52:08.000Z</time>
</trkpt>
<trkpt lat="45.9163510" lon="10.3466330">
	<ele>1292.60</ele>
	<time>2025-04-29T06:52:09.000Z</time>
</trkpt>
<trkpt lat="45.9163450" lon="10.3466410">
	<ele>1292.80</ele>
	<time>2025-04-29T06:52:10.000Z</time>
</trkpt>
<trkpt lat="45.9163470" lon="10.3466590">
	<ele>1292.80</ele>
	<time>2025-04-29T06:52:11.000Z</time>
</trkpt>
<trkpt lat="45.9163470" lon="10.3466700">
	<ele>1292.80</ele>
	<time>2025-04-29T06:52:12.000Z</time>
</trkpt>
<trkpt lat="45.9163460" lon="10.3466920">
	<ele>1292.80</ele>
	<time>2025-04-29T06:52:13.000Z</time>
</trkpt>
<trkpt lat="45.9163450" lon="10.3466990">
	<ele>1293.00</ele>
	<time>2025-04-29T06:52:14.000Z</time>
</trkpt>
<trkpt lat="45.9163440" lon="10.3467150">
	<ele>1293.00</ele>
	<time>2025-04-29T06:52:15.000Z</time>
</trkpt>
<trkpt lat="45.9163420" lon="10.3467420">
	<ele>1293.00</ele>
	<time>2025-04-29T06:52:16.000Z</time>
</trkpt>
<trkpt lat="45.9163410" lon="10.3467660">
	<ele>1293.00</ele>
	<time>2025-04-29T06:52:17.000Z</time>
</trkpt>
<trkpt lat="45.9163340" lon="10.3467810">
	<ele>1293.00</ele>
	<time>2025-04-29T06:52:18.000Z</time>
</trkpt>
<trkpt lat="45.9163300" lon="10.3467940">
	<ele>1293.20</ele>
	<time>2025-04-29T06:52:19.000Z</time>
</trkpt>
<trkpt lat="45.9163220" lon="10.3468100">
	<ele>1293.20</ele>
	<time>2025-04-29T06:52:20.000Z</time>
</trkpt>
<trkpt lat="45.9163120" lon="10.3468350">
	<ele>1293.20</ele>
	<time>2025-04-29T06:52:21.000Z</time>
</trkpt>
<trkpt lat="45.9163020" lon="10.3468550">
	<ele>1293.20</ele>
	<time>2025-04-29T06:52:22.000Z</time>
</trkpt>
<trkpt lat="45.9163040" lon="10.3468810">
	<ele>1293.20</ele>
	<time>2025-04-29T06:52:23.000Z</time>
</trkpt>
<trkpt lat="45.9163030" lon="10.3469090">
	<ele>1293.40</ele>
	<time>2025-04-29T06:52:24.000Z</time>
</trkpt>
<trkpt lat="45.9163160" lon="10.3469290">
	<ele>1293.40</ele>
	<time>2025-04-29T06:52:25.000Z</time>
</trkpt>
<trkpt lat="45.9163210" lon="10.3469360">
	<ele>1293.40</ele>
	<time>2025-04-29T06:52:26.000Z</time>
</trkpt>
<trkpt lat="45.9163220" lon="10.3469250">
	<ele>1293.60</ele>
	<time>2025-04-29T06:52:27.000Z</time>
</trkpt>
<trkpt lat="45.9163210" lon="10.3469120">
	<ele>1293.60</ele>
	<time>2025-04-29T06:52:28.000Z</time>
</trkpt>
<trkpt lat="45.9163150" lon="10.3469060">
	<ele>1293.60</ele>
	<time>2025-04-29T06:52:29.000Z</time>
</trkpt>
<trkpt lat="45.9163090" lon="10.3469030">
	<ele>1293.60</ele>
	<time>2025-04-29T06:52:30.000Z</time>
</trkpt>
<trkpt lat="45.9163060" lon="10.3469130">
	<ele>1293.80</ele>
	<time>2025-04-29T06:52:31.000Z</time>
</trkpt>
<trkpt lat="45.9163000" lon="10.3469110">
	<ele>1293.80</ele>
	<time>2025-04-29T06:52:32.000Z</time>
</trkpt>
<trkpt lat="45.9162840" lon="10.3469170">
	<ele>1294.00</ele>
	<time>2025-04-29T06:52:33.000Z</time>
</trkpt>
<trkpt lat="45.9162830" lon="10.3469170">
	<ele>1294.00</ele>
	<time>2025-04-29T06:52:34.000Z</time>
</trkpt>
<trkpt lat="45.9162830" lon="10.3469170">
	<ele>1294.00</ele>
	<time>2025-04-29T06:52:35.000Z</time>
</trkpt>
<trkpt lat="45.9162830" lon="10.3469180">
	<ele>1294.00</ele>
	<time>2025-04-29T06:52:36.000Z</time>
</trkpt>
<trkpt lat="45.9162830" lon="10.3469190">
	<ele>1294.00</ele>
	<time>2025-04-29T06:52:37.000Z</time>
</trkpt>
<trkpt lat="45.9162800" lon="10.3469190">
	<ele>1294.00</ele>
	<time>2025-04-29T06:52:38.000Z</time>
</trkpt>
<trkpt lat="45.9162800" lon="10.3469180">
	<ele>1294.00</ele>
	<time>2025-04-29T06:52:39.000Z</time>
</trkpt>
<trkpt lat="45.9162860" lon="10.3469220">
	<ele>1293.80</ele>
	<time>2025-04-29T06:52:40.000Z</time>
</trkpt>
<trkpt lat="45.9162960" lon="10.3469310">
	<ele>1293.80</ele>
	<time>2025-04-29T06:52:41.000Z</time>
</trkpt>
<trkpt lat="45.9163000" lon="10.3469420">
	<ele>1293.60</ele>
	<time>2025-04-29T06:52:42.000Z</time>
</trkpt>
<trkpt lat="45.9162960" lon="10.3469630">
	<ele>1293.60</ele>
	<time>2025-04-29T06:52:43.000Z</time>
</trkpt>
<trkpt lat="45.9162940" lon="10.3469820">
	<ele>1293.60</ele>
	<time>2025-04-29T06:52:44.000Z</time>
</trkpt>
<trkpt lat="45.9162920" lon="10.3469970">
	<ele>1293.60</ele>
	<time>2025-04-29T06:52:45.000Z</time>
</trkpt>
<trkpt lat="45.9162900" lon="10.3470100">
	<ele>1293.60</ele>
	<time>2025-04-29T06:52:46.000Z</time>
</trkpt>
<trkpt lat="45.9162880" lon="10.3470250">
	<ele>1293.60</ele>
	<time>2025-04-29T06:52:47.000Z</time>
</trkpt>
<trkpt lat="45.9162850" lon="10.3470470">
	<ele>1293.60</ele>
	<time>2025-04-29T06:52:48.000Z</time>
</trkpt>
<trkpt lat="45.9162800" lon="10.3470590">
	<ele>1293.80</ele>
	<time>2025-04-29T06:52:49.000Z</time>
</trkpt>
<trkpt lat="45.9162810" lon="10.3470780">
	<ele>1293.80</ele>
	<time>2025-04-29T06:52:50.000Z</time>
</trkpt>
<trkpt lat="45.9162820" lon="10.3470880">
	<ele>1294.00</ele>
	<time>2025-04-29T06:52:51.000Z</time>
</trkpt>
<trkpt lat="45.9162860" lon="10.3470990">
	<ele>1294.00</ele>
	<time>2025-04-29T06:52:52.000Z</time>
</trkpt>
<trkpt lat="45.9162860" lon="10.3471120">
	<ele>1294.20</ele>
	<time>2025-04-29T06:52:53.000Z</time>
</trkpt>
<trkpt lat="45.9162800" lon="10.3471240">
	<ele>1294.20</ele>
	<time>2025-04-29T06:52:54.000Z</time>
</trkpt>
<trkpt lat="45.9162660" lon="10.3471360">
	<ele>1294.20</ele>
	<time>2025-04-29T06:52:55.000Z</time>
</trkpt>
<trkpt lat="45.9162530" lon="10.3471500">
	<ele>1294.20</ele>
	<time>2025-04-29T06:52:56.000Z</time>
</trkpt>
<trkpt lat="45.9162440" lon="10.3471610">
	<ele>1294.20</ele>
	<time>2025-04-29T06:52:57.000Z</time>
</trkpt>
<trkpt lat="45.9162330" lon="10.3471700">
	<ele>1294.20</ele>
	<time>2025-04-29T06:52:58.000Z</time>
</trkpt>
<trkpt lat="45.9162270" lon="10.3471760">
	<ele>1294.20</ele>
	<time>2025-04-29T06:52:59.000Z</time>
</trkpt>
<trkpt lat="45.9162190" lon="10.3471860">
	<ele>1294.20</ele>
	<time>2025-04-29T06:53:00.000Z</time>
</trkpt>
<trkpt lat="45.9162150" lon="10.3471970">
	<ele>1294.40</ele>
	<time>2025-04-29T06:53:01.000Z</time>
</trkpt>
<trkpt lat="45.9162120" lon="10.3472100">
	<ele>1294.40</ele>
	<time>2025-04-29T06:53:02.000Z</time>
</trkpt>
<trkpt lat="45.9161970" lon="10.3472110">
	<ele>1294.60</ele>
	<time>2025-04-29T06:53:03.000Z</time>
</trkpt>
<trkpt lat="45.9161760" lon="10.3472080">
	<ele>1294.60</ele>
	<time>2025-04-29T06:53:04.000Z</time>
</trkpt>
<trkpt lat="45.9161630" lon="10.3472100">
	<ele>1294.60</ele>
	<time>2025-04-29T06:53:05.000Z</time>
</trkpt>
<trkpt lat="45.9161470" lon="10.3472100">
	<ele>1294.80</ele>
	<time>2025-04-29T06:53:06.000Z</time>
</trkpt>
<trkpt lat="45.9161320" lon="10.3472100">
	<ele>1295.00</ele>
	<time>2025-04-29T06:53:07.000Z</time>
</trkpt>
<trkpt lat="45.9161150" lon="10.3472030">
	<ele>1295.00</ele>
	<time>2025-04-29T06:53:08.000Z</time>
</trkpt>
<trkpt lat="45.9161030" lon="10.3471990">
	<ele>1295.20</ele>
	<time>2025-04-29T06:53:09.000Z</time>
</trkpt>
<trkpt lat="45.9160990" lon="10.3472010">
	<ele>1295.20</ele>
	<time>2025-04-29T06:53:10.000Z</time>
</trkpt>
<trkpt lat="45.9160880" lon="10.3472060">
	<ele>1295.40</ele>
	<time>2025-04-29T06:53:11.000Z</time>
</trkpt>
<trkpt lat="45.9160820" lon="10.3472130">
	<ele>1295.40</ele>
	<time>2025-04-29T06:53:12.000Z</time>
</trkpt>
<trkpt lat="45.9160690" lon="10.3472100">
	<ele>1295.80</ele>
	<time>2025-04-29T06:53:13.000Z</time>
</trkpt>
<trkpt lat="45.9160600" lon="10.3472150">
	<ele>1296.00</ele>
	<time>2025-04-29T06:53:14.000Z</time>
</trkpt>
<trkpt lat="45.9160490" lon="10.3472160">
	<ele>1296.20</ele>
	<time>2025-04-29T06:53:15.000Z</time>
</trkpt>
<trkpt lat="45.9160370" lon="10.3472190">
	<ele>1296.40</ele>
	<time>2025-04-29T06:53:16.000Z</time>
</trkpt>
<trkpt lat="45.9160300" lon="10.3472230">
	<ele>1296.60</ele>
	<time>2025-04-29T06:53:17.000Z</time>
</trkpt>
<trkpt lat="45.9160220" lon="10.3472300">
	<ele>1296.60</ele>
	<time>2025-04-29T06:53:18.000Z</time>
</trkpt>
<trkpt lat="45.9160110" lon="10.3472370">
	<ele>1296.80</ele>
	<time>2025-04-29T06:53:19.000Z</time>
</trkpt>
<trkpt lat="45.9160010" lon="10.3472410">
	<ele>1296.80</ele>
	<time>2025-04-29T06:53:20.000Z</time>
</trkpt>
<trkpt lat="45.9159910" lon="10.3472460">
	<ele>1296.80</ele>
	<time>2025-04-29T06:53:21.000Z</time>
</trkpt>
<trkpt lat="45.9159760" lon="10.3472440">
	<ele>1297.00</ele>
	<time>2025-04-29T06:53:22.000Z</time>
</trkpt>
<trkpt lat="45.9159660" lon="10.3472400">
	<ele>1297.00</ele>
	<time>2025-04-29T06:53:23.000Z</time>
</trkpt>
<trkpt lat="45.9159530" lon="10.3472350">
	<ele>1297.00</ele>
	<time>2025-04-29T06:53:24.000Z</time>
</trkpt>
<trkpt lat="45.9159350" lon="10.3472260">
	<ele>1297.20</ele>
	<time>2025-04-29T06:53:25.000Z</time>
</trkpt>
<trkpt lat="45.9159220" lon="10.3472210">
	<ele>1297.20</ele>
	<time>2025-04-29T06:53:26.000Z</time>
</trkpt>
<trkpt lat="45.9159110" lon="10.3472210">
	<ele>1297.20</ele>
	<time>2025-04-29T06:53:27.000Z</time>
</trkpt>
<trkpt lat="45.9158940" lon="10.3472330">
	<ele>1297.40</ele>
	<time>2025-04-29T06:53:28.000Z</time>
</trkpt>
<trkpt lat="45.9158670" lon="10.3472330">
	<ele>1297.60</ele>
	<time>2025-04-29T06:53:29.000Z</time>
</trkpt>
<trkpt lat="45.9158500" lon="10.3472330">
	<ele>1297.60</ele>
	<time>2025-04-29T06:53:30.000Z</time>
</trkpt>
<trkpt lat="45.9158310" lon="10.3472390">
	<ele>1297.60</ele>
	<time>2025-04-29T06:53:31.000Z</time>
</trkpt>
<trkpt lat="45.9157960" lon="10.3472430">
	<ele>1297.60</ele>
	<time>2025-04-29T06:53:32.000Z</time>
</trkpt>
<trkpt lat="45.9157700" lon="10.3472440">
	<ele>1297.60</ele>
	<time>2025-04-29T06:53:33.000Z</time>
</trkpt>
<trkpt lat="45.9157450" lon="10.3472640">
	<ele>1297.60</ele>
	<time>2025-04-29T06:53:34.000Z</time>
</trkpt>
<trkpt lat="45.9157450" lon="10.3472740">
	<ele>1297.60</ele>
	<time>2025-04-29T06:53:35.000Z</time>
</trkpt>
<trkpt lat="45.9157390" lon="10.3472770">
	<ele>1297.80</ele>
	<time>2025-04-29T06:53:36.000Z</time>
</trkpt>
<trkpt lat="45.9157370" lon="10.3472830">
	<ele>1297.80</ele>
	<time>2025-04-29T06:53:37.000Z</time>
</trkpt>
<trkpt lat="45.9157350" lon="10.3472920">
	<ele>1297.80</ele>
	<time>2025-04-29T06:53:38.000Z</time>
</trkpt>
<trkpt lat="45.9157290" lon="10.3472910">
	<ele>1298.00</ele>
	<time>2025-04-29T06:53:39.000Z</time>
</trkpt>
<trkpt lat="45.9157340" lon="10.3472930">
	<ele>1298.00</ele>
	<time>2025-04-29T06:53:40.000Z</time>
</trkpt>
<trkpt lat="45.9157340" lon="10.3472940">
	<ele>1298.00</ele>
	<time>2025-04-29T06:53:41.000Z</time>
</trkpt>
<trkpt lat="45.9157330" lon="10.3472950">
	<ele>1298.00</ele>
	<time>2025-04-29T06:53:42.000Z</time>
</trkpt>
<trkpt lat="45.9157320" lon="10.3472950">
	<ele>1298.00</ele>
	<time>2025-04-29T06:53:43.000Z</time>
</trkpt>
<trkpt lat="45.9157150" lon="10.3472900">
	<ele>1298.00</ele>
	<time>2025-04-29T06:53:44.000Z</time>
</trkpt>
<trkpt lat="45.9156880" lon="10.3472840">
	<ele>1298.00</ele>
	<time>2025-04-29T06:53:45.000Z</time>
</trkpt>
<trkpt lat="45.9156890" lon="10.3472740">
	<ele>1298.00</ele>
	<time>2025-04-29T06:53:46.000Z</time>
</trkpt>
<trkpt lat="45.9156730" lon="10.3472650">
	<ele>1298.00</ele>
	<time>2025-04-29T06:53:47.000Z</time>
</trkpt>
<trkpt lat="45.9156740" lon="10.3472600">
	<ele>1298.00</ele>
	<time>2025-04-29T06:53:48.000Z</time>
</trkpt>
<trkpt lat="45.9156910" lon="10.3472580">
	<ele>1298.20</ele>
	<time>2025-04-29T06:53:49.000Z</time>
</trkpt>
<trkpt lat="45.9156960" lon="10.3472680">
	<ele>1298.20</ele>
	<time>2025-04-29T06:53:50.000Z</time>
</trkpt>
<trkpt lat="45.9157030" lon="10.3472700">
	<ele>1298.20</ele>
	<time>2025-04-29T06:53:51.000Z</time>
</trkpt>
<trkpt lat="45.9156870" lon="10.3472630">
	<ele>1298.20</ele>
	<time>2025-04-29T06:53:52.000Z</time>
</trkpt>
<trkpt lat="45.9156770" lon="10.3472590">
	<ele>1298.20</ele>
	<time>2025-04-29T06:53:53.000Z</time>
</trkpt>
<trkpt lat="45.9156720" lon="10.3472640">
	<ele>1298.20</ele>
	<time>2025-04-29T06:53:54.000Z</time>
</trkpt>
<trkpt lat="45.9156740" lon="10.3472760">
	<ele>1298.20</ele>
	<time>2025-04-29T06:53:55.000Z</time>
</trkpt>
<trkpt lat="45.9156770" lon="10.3472810">
	<ele>1298.40</ele>
	<time>2025-04-29T06:53:56.000Z</time>
</trkpt>
<trkpt lat="45.9156640" lon="10.3472920">
	<ele>1298.40</ele>
	<time>2025-04-29T06:53:57.000Z</time>
</trkpt>
<trkpt lat="45.9156580" lon="10.3473030">
	<ele>1298.40</ele>
	<time>2025-04-29T06:53:58.000Z</time>
</trkpt>
<trkpt lat="45.9156420" lon="10.3473080">
	<ele>1298.40</ele>
	<time>2025-04-29T06:53:59.000Z</time>
</trkpt>
<trkpt lat="45.9156490" lon="10.3473080">
	<ele>1298.40</ele>
	<time>2025-04-29T06:54:00.000Z</time>
</trkpt>
<trkpt lat="45.9156440" lon="10.3473080">
	<ele>1298.60</ele>
	<time>2025-04-29T06:54:01.000Z</time>
</trkpt>
<trkpt lat="45.9156200" lon="10.3473200">
	<ele>1298.60</ele>
	<time>2025-04-29T06:54:02.000Z</time>
</trkpt>
<trkpt lat="45.9156040" lon="10.3473320">
	<ele>1298.60</ele>
	<time>2025-04-29T06:54:03.000Z</time>
</trkpt>
<trkpt lat="45.9155750" lon="10.3473460">
	<ele>1298.60</ele>
	<time>2025-04-29T06:54:04.000Z</time>
</trkpt>
<trkpt lat="45.9155670" lon="10.3473470">
	<ele>1298.60</ele>
	<time>2025-04-29T06:54:05.000Z</time>
</trkpt>
<trkpt lat="45.9155620" lon="10.3473530">
	<ele>1298.60</ele>
	<time>2025-04-29T06:54:06.000Z</time>
</trkpt>
<trkpt lat="45.9155580" lon="10.3473540">
	<ele>1298.60</ele>
	<time>2025-04-29T06:54:07.000Z</time>
</trkpt>
<trkpt lat="45.9155570" lon="10.3473570">
	<ele>1298.60</ele>
	<time>2025-04-29T06:54:08.000Z</time>
</trkpt>
<trkpt lat="45.9155390" lon="10.3473630">
	<ele>1298.60</ele>
	<time>2025-04-29T06:54:09.000Z</time>
</trkpt>
<trkpt lat="45.9155150" lon="10.3473620">
	<ele>1298.60</ele>
	<time>2025-04-29T06:54:10.000Z</time>
</trkpt>
<trkpt lat="45.9154900" lon="10.3473610">
	<ele>1298.60</ele>
	<time>2025-04-29T06:54:11.000Z</time>
</trkpt>
<trkpt lat="45.9154850" lon="10.3473640">
	<ele>1298.60</ele>
	<time>2025-04-29T06:54:12.000Z</time>
</trkpt>
<trkpt lat="45.9154580" lon="10.3473700">
	<ele>1298.80</ele>
	<time>2025-04-29T06:54:13.000Z</time>
</trkpt>
<trkpt lat="45.9154370" lon="10.3473820">
	<ele>1298.80</ele>
	<time>2025-04-29T06:54:14.000Z</time>
</trkpt>
<trkpt lat="45.9154260" lon="10.3473850">
	<ele>1298.80</ele>
	<time>2025-04-29T06:54:15.000Z</time>
</trkpt>
<trkpt lat="45.9154140" lon="10.3473900">
	<ele>1298.80</ele>
	<time>2025-04-29T06:54:16.000Z</time>
</trkpt>
<trkpt lat="45.9154160" lon="10.3473870">
	<ele>1298.80</ele>
	<time>2025-04-29T06:54:17.000Z</time>
</trkpt>
<trkpt lat="45.9154170" lon="10.3473780">
	<ele>1298.80</ele>
	<time>2025-04-29T06:54:18.000Z</time>
</trkpt>
<trkpt lat="45.9154130" lon="10.3473760">
	<ele>1298.80</ele>
	<time>2025-04-29T06:54:19.000Z</time>
</trkpt>
<trkpt lat="45.9153980" lon="10.3473820">
	<ele>1298.80</ele>
	<time>2025-04-29T06:54:20.000Z</time>
</trkpt>
<trkpt lat="45.9153820" lon="10.3473850">
	<ele>1298.80</ele>
	<time>2025-04-29T06:54:21.000Z</time>
</trkpt>
<trkpt lat="45.9153680" lon="10.3473880">
	<ele>1298.80</ele>
	<time>2025-04-29T06:54:22.000Z</time>
</trkpt>
<trkpt lat="45.9153540" lon="10.3473890">
	<ele>1299.00</ele>
	<time>2025-04-29T06:54:23.000Z</time>
</trkpt>
<trkpt lat="45.9153410" lon="10.3473850">
	<ele>1298.80</ele>
	<time>2025-04-29T06:54:24.000Z</time>
</trkpt>
<trkpt lat="45.9153310" lon="10.3473810">
	<ele>1298.80</ele>
	<time>2025-04-29T06:54:25.000Z</time>
</trkpt>
<trkpt lat="45.9153200" lon="10.3473770">
	<ele>1298.80</ele>
	<time>2025-04-29T06:54:26.000Z</time>
</trkpt>
<trkpt lat="45.9153100" lon="10.3473750">
	<ele>1298.80</ele>
	<time>2025-04-29T06:54:27.000Z</time>
</trkpt>
<trkpt lat="45.9153020" lon="10.3473690">
	<ele>1298.80</ele>
	<time>2025-04-29T06:54:28.000Z</time>
</trkpt>
<trkpt lat="45.9152950" lon="10.3473700">
	<ele>1298.80</ele>
	<time>2025-04-29T06:54:29.000Z</time>
</trkpt>
<trkpt lat="45.9152930" lon="10.3473740">
	<ele>1298.80</ele>
	<time>2025-04-29T06:54:30.000Z</time>
</trkpt>
<trkpt lat="45.9152860" lon="10.3473890">
	<ele>1298.80</ele>
	<time>2025-04-29T06:54:31.000Z</time>
</trkpt>
<trkpt lat="45.9152910" lon="10.3474080">
	<ele>1298.80</ele>
	<time>2025-04-29T06:54:32.000Z</time>
</trkpt>
<trkpt lat="45.9152950" lon="10.3474280">
	<ele>1299.00</ele>
	<time>2025-04-29T06:54:33.000Z</time>
</trkpt>
<trkpt lat="45.9152950" lon="10.3474570">
	<ele>1298.80</ele>
	<time>2025-04-29T06:54:34.000Z</time>
</trkpt>
<trkpt lat="45.9152850" lon="10.3474910">
	<ele>1298.60</ele>
	<time>2025-04-29T06:54:35.000Z</time>
</trkpt>
<trkpt lat="45.9153140" lon="10.3475300">
	<ele>1298.60</ele>
	<time>2025-04-29T06:54:36.000Z</time>
</trkpt>
<trkpt lat="45.9153110" lon="10.3475550">
	<ele>1298.40</ele>
	<time>2025-04-29T06:54:37.000Z</time>
</trkpt>
<trkpt lat="45.9152990" lon="10.3475790">
	<ele>1298.40</ele>
	<time>2025-04-29T06:54:38.000Z</time>
</trkpt>
<trkpt lat="45.9152920" lon="10.3476100">
	<ele>1298.40</ele>
	<time>2025-04-29T06:54:39.000Z</time>
</trkpt>
<trkpt lat="45.9152710" lon="10.3476430">
	<ele>1298.40</ele>
	<time>2025-04-29T06:54:40.000Z</time>
</trkpt>
<trkpt lat="45.9152400" lon="10.3476650">
	<ele>1298.40</ele>
	<time>2025-04-29T06:54:41.000Z</time>
</trkpt>
<trkpt lat="45.9152220" lon="10.3476790">
	<ele>1298.40</ele>
	<time>2025-04-29T06:54:42.000Z</time>
</trkpt>
<trkpt lat="45.9152350" lon="10.3477410">
	<ele>1298.20</ele>
	<time>2025-04-29T06:54:43.000Z</time>
</trkpt>
<trkpt lat="45.9152350" lon="10.3477750">
	<ele>1298.20</ele>
	<time>2025-04-29T06:54:44.000Z</time>
</trkpt>
<trkpt lat="45.9152220" lon="10.3478030">
	<ele>1298.20</ele>
	<time>2025-04-29T06:54:45.000Z</time>
</trkpt>
<trkpt lat="45.9151990" lon="10.3478260">
	<ele>1298.20</ele>
	<time>2025-04-29T06:54:46.000Z</time>
</trkpt>
<trkpt lat="45.9151820" lon="10.3478550">
	<ele>1298.00</ele>
	<time>2025-04-29T06:54:47.000Z</time>
</trkpt>
<trkpt lat="45.9151730" lon="10.3478790">
	<ele>1298.00</ele>
	<time>2025-04-29T06:54:48.000Z</time>
</trkpt>
<trkpt lat="45.9151640" lon="10.3478950">
	<ele>1298.00</ele>
	<time>2025-04-29T06:54:49.000Z</time>
</trkpt>
<trkpt lat="45.9151580" lon="10.3479170">
	<ele>1298.00</ele>
	<time>2025-04-29T06:54:50.000Z</time>
</trkpt>
<trkpt lat="45.9151470" lon="10.3479330">
	<ele>1298.00</ele>
	<time>2025-04-29T06:54:51.000Z</time>
</trkpt>
<trkpt lat="45.9151300" lon="10.3479440">
	<ele>1298.20</ele>
	<time>2025-04-29T06:54:52.000Z</time>
</trkpt>
<trkpt lat="45.9151140" lon="10.3479520">
	<ele>1298.20</ele>
	<time>2025-04-29T06:54:53.000Z</time>
</trkpt>
<trkpt lat="45.9151210" lon="10.3479630">
	<ele>1298.20</ele>
	<time>2025-04-29T06:54:54.000Z</time>
</trkpt>
<trkpt lat="45.9151210" lon="10.3479790">
	<ele>1298.40</ele>
	<time>2025-04-29T06:54:55.000Z</time>
</trkpt>
<trkpt lat="45.9151250" lon="10.3480030">
	<ele>1298.40</ele>
	<time>2025-04-29T06:54:56.000Z</time>
</trkpt>
<trkpt lat="45.9151320" lon="10.3480190">
	<ele>1298.40</ele>
	<time>2025-04-29T06:54:57.000Z</time>
</trkpt>
<trkpt lat="45.9151330" lon="10.3480420">
	<ele>1298.40</ele>
	<time>2025-04-29T06:54:58.000Z</time>
</trkpt>
<trkpt lat="45.9151140" lon="10.3480650">
	<ele>1298.60</ele>
	<time>2025-04-29T06:54:59.000Z</time>
</trkpt>
<trkpt lat="45.9151040" lon="10.3480890">
	<ele>1298.60</ele>
	<time>2025-04-29T06:55:00.000Z</time>
</trkpt>
<trkpt lat="45.9150940" lon="10.3481140">
	<ele>1298.60</ele>
	<time>2025-04-29T06:55:01.000Z</time>
</trkpt>
<trkpt lat="45.9150820" lon="10.3481320">
	<ele>1298.80</ele>
	<time>2025-04-29T06:55:02.000Z</time>
</trkpt>
<trkpt lat="45.9150680" lon="10.3481500">
	<ele>1298.80</ele>
	<time>2025-04-29T06:55:03.000Z</time>
</trkpt>
<trkpt lat="45.9150560" lon="10.3481710">
	<ele>1298.80</ele>
	<time>2025-04-29T06:55:04.000Z</time>
</trkpt>
<trkpt lat="45.9150480" lon="10.3481860">
	<ele>1298.80</ele>
	<time>2025-04-29T06:55:05.000Z</time>
</trkpt>
<trkpt lat="45.9150390" lon="10.3482030">
	<ele>1299.00</ele>
	<time>2025-04-29T06:55:06.000Z</time>
</trkpt>
<trkpt lat="45.9150350" lon="10.3482210">
	<ele>1299.00</ele>
	<time>2025-04-29T06:55:07.000Z</time>
</trkpt>
<trkpt lat="45.9150310" lon="10.3482450">
	<ele>1299.20</ele>
	<time>2025-04-29T06:55:08.000Z</time>
</trkpt>
<trkpt lat="45.9150350" lon="10.3482680">
	<ele>1299.20</ele>
	<time>2025-04-29T06:55:09.000Z</time>
</trkpt>
<trkpt lat="45.9150350" lon="10.3482900">
	<ele>1299.40</ele>
	<time>2025-04-29T06:55:10.000Z</time>
</trkpt>
<trkpt lat="45.9150340" lon="10.3483130">
	<ele>1299.40</ele>
	<time>2025-04-29T06:55:11.000Z</time>
</trkpt>
<trkpt lat="45.9150330" lon="10.3483320">
	<ele>1299.60</ele>
	<time>2025-04-29T06:55:12.000Z</time>
</trkpt>
<trkpt lat="45.9150300" lon="10.3483460">
	<ele>1299.80</ele>
	<time>2025-04-29T06:55:13.000Z</time>
</trkpt>
<trkpt lat="45.9150310" lon="10.3483630">
	<ele>1300.00</ele>
	<time>2025-04-29T06:55:14.000Z</time>
</trkpt>
<trkpt lat="45.9150240" lon="10.3483730">
	<ele>1300.00</ele>
	<time>2025-04-29T06:55:15.000Z</time>
</trkpt>
<trkpt lat="45.9150110" lon="10.3483870">
	<ele>1300.20</ele>
	<time>2025-04-29T06:55:16.000Z</time>
</trkpt>
<trkpt lat="45.9150010" lon="10.3484010">
	<ele>1300.20</ele>
	<time>2025-04-29T06:55:17.000Z</time>
</trkpt>
<trkpt lat="45.9149840" lon="10.3484050">
	<ele>1300.20</ele>
	<time>2025-04-29T06:55:18.000Z</time>
</trkpt>
<trkpt lat="45.9149690" lon="10.3484170">
	<ele>1300.20</ele>
	<time>2025-04-29T06:55:19.000Z</time>
</trkpt>
<trkpt lat="45.9149570" lon="10.3484240">
	<ele>1300.20</ele>
	<time>2025-04-29T06:55:20.000Z</time>
</trkpt>
<trkpt lat="45.9149480" lon="10.3484240">
	<ele>1300.40</ele>
	<time>2025-04-29T06:55:21.000Z</time>
</trkpt>
<trkpt lat="45.9149230" lon="10.3484170">
	<ele>1300.40</ele>
	<time>2025-04-29T06:55:22.000Z</time>
</trkpt>
<trkpt lat="45.9149150" lon="10.3484150">
	<ele>1300.40</ele>
	<time>2025-04-29T06:55:23.000Z</time>
</trkpt>
<trkpt lat="45.9149120" lon="10.3484160">
	<ele>1300.40</ele>
	<time>2025-04-29T06:55:24.000Z</time>
</trkpt>
<trkpt lat="45.9149120" lon="10.3484180">
	<ele>1300.40</ele>
	<time>2025-04-29T06:55:25.000Z</time>
</trkpt>
<trkpt lat="45.9149130" lon="10.3484180">
	<ele>1300.40</ele>
	<time>2025-04-29T06:55:26.000Z</time>
</trkpt>
<trkpt lat="45.9149140" lon="10.3484180">
	<ele>1300.40</ele>
	<time>2025-04-29T06:55:27.000Z</time>
</trkpt>
<trkpt lat="45.9149120" lon="10.3484170">
	<ele>1300.40</ele>
	<time>2025-04-29T06:55:28.000Z</time>
</trkpt>
<trkpt lat="45.9149110" lon="10.3484170">
	<ele>1300.40</ele>
	<time>2025-04-29T06:55:29.000Z</time>
</trkpt>
<trkpt lat="45.9149080" lon="10.3484160">
	<ele>1300.40</ele>
	<time>2025-04-29T06:55:30.000Z</time>
</trkpt>
<trkpt lat="45.9148950" lon="10.3484120">
	<ele>1300.40</ele>
	<time>2025-04-29T06:55:31.000Z</time>
</trkpt>
<trkpt lat="45.9148830" lon="10.3484140">
	<ele>1300.40</ele>
	<time>2025-04-29T06:55:32.000Z</time>
</trkpt>
<trkpt lat="45.9148760" lon="10.3484240">
	<ele>1300.40</ele>
	<time>2025-04-29T06:55:33.000Z</time>
</trkpt>
<trkpt lat="45.9148820" lon="10.3484390">
	<ele>1300.40</ele>
	<time>2025-04-29T06:55:34.000Z</time>
</trkpt>
<trkpt lat="45.9148800" lon="10.3484510">
	<ele>1300.40</ele>
	<time>2025-04-29T06:55:35.000Z</time>
</trkpt>
<trkpt lat="45.9148630" lon="10.3484600">
	<ele>1300.20</ele>
	<time>2025-04-29T06:55:36.000Z</time>
</trkpt>
<trkpt lat="45.9148530" lon="10.3484680">
	<ele>1300.20</ele>
	<time>2025-04-29T06:55:37.000Z</time>
</trkpt>
<trkpt lat="45.9148400" lon="10.3484770">
	<ele>1300.20</ele>
	<time>2025-04-29T06:55:38.000Z</time>
</trkpt>
<trkpt lat="45.9148240" lon="10.3484880">
	<ele>1300.20</ele>
	<time>2025-04-29T06:55:39.000Z</time>
</trkpt>
<trkpt lat="45.9148090" lon="10.3484970">
	<ele>1300.20</ele>
	<time>2025-04-29T06:55:40.000Z</time>
</trkpt>
<trkpt lat="45.9147990" lon="10.3485080">
	<ele>1300.20</ele>
	<time>2025-04-29T06:55:41.000Z</time>
</trkpt>
<trkpt lat="45.9147920" lon="10.3485210">
	<ele>1300.40</ele>
	<time>2025-04-29T06:55:42.000Z</time>
</trkpt>
<trkpt lat="45.9147790" lon="10.3485290">
	<ele>1300.40</ele>
	<time>2025-04-29T06:55:43.000Z</time>
</trkpt>
<trkpt lat="45.9147660" lon="10.3485330">
	<ele>1300.60</ele>
	<time>2025-04-29T06:55:44.000Z</time>
</trkpt>
<trkpt lat="45.9147510" lon="10.3485400">
	<ele>1300.60</ele>
	<time>2025-04-29T06:55:45.000Z</time>
</trkpt>
<trkpt lat="45.9147330" lon="10.3485490">
	<ele>1300.60</ele>
	<time>2025-04-29T06:55:46.000Z</time>
</trkpt>
<trkpt lat="45.9147190" lon="10.3485600">
	<ele>1300.60</ele>
	<time>2025-04-29T06:55:47.000Z</time>
</trkpt>
<trkpt lat="45.9147120" lon="10.3485690">
	<ele>1300.80</ele>
	<time>2025-04-29T06:55:48.000Z</time>
</trkpt>
<trkpt lat="45.9147140" lon="10.3485790">
	<ele>1301.00</ele>
	<time>2025-04-29T06:55:49.000Z</time>
</trkpt>
<trkpt lat="45.9147040" lon="10.3485820">
	<ele>1301.20</ele>
	<time>2025-04-29T06:55:50.000Z</time>
</trkpt>
<trkpt lat="45.9146870" lon="10.3485790">
	<ele>1301.40</ele>
	<time>2025-04-29T06:55:51.000Z</time>
</trkpt>
<trkpt lat="45.9146770" lon="10.3485860">
	<ele>1301.40</ele>
	<time>2025-04-29T06:55:52.000Z</time>
</trkpt>
<trkpt lat="45.9146640" lon="10.3485940">
	<ele>1301.60</ele>
	<time>2025-04-29T06:55:53.000Z</time>
</trkpt>
<trkpt lat="45.9146490" lon="10.3486050">
	<ele>1301.60</ele>
	<time>2025-04-29T06:55:54.000Z</time>
</trkpt>
<trkpt lat="45.9146360" lon="10.3486200">
	<ele>1301.80</ele>
	<time>2025-04-29T06:55:55.000Z</time>
</trkpt>
<trkpt lat="45.9146210" lon="10.3486300">
	<ele>1302.00</ele>
	<time>2025-04-29T06:55:56.000Z</time>
</trkpt>
<trkpt lat="45.9146150" lon="10.3486400">
	<ele>1302.20</ele>
	<time>2025-04-29T06:55:57.000Z</time>
</trkpt>
<trkpt lat="45.9146060" lon="10.3486450">
	<ele>1302.40</ele>
	<time>2025-04-29T06:55:58.000Z</time>
</trkpt>
<trkpt lat="45.9146010" lon="10.3486500">
	<ele>1302.60</ele>
	<time>2025-04-29T06:55:59.000Z</time>
</trkpt>
<trkpt lat="45.9145960" lon="10.3486610">
	<ele>1302.80</ele>
	<time>2025-04-29T06:56:00.000Z</time>
</trkpt>
<trkpt lat="45.9145860" lon="10.3486730">
	<ele>1303.00</ele>
	<time>2025-04-29T06:56:01.000Z</time>
</trkpt>
<trkpt lat="45.9145800" lon="10.3486860">
	<ele>1303.20</ele>
	<time>2025-04-29T06:56:02.000Z</time>
</trkpt>
<trkpt lat="45.9145680" lon="10.3487010">
	<ele>1303.20</ele>
	<time>2025-04-29T06:56:03.000Z</time>
</trkpt>
<trkpt lat="45.9145580" lon="10.3487130">
	<ele>1303.40</ele>
	<time>2025-04-29T06:56:04.000Z</time>
</trkpt>
<trkpt lat="45.9145500" lon="10.3487230">
	<ele>1303.40</ele>
	<time>2025-04-29T06:56:05.000Z</time>
</trkpt>
<trkpt lat="45.9145380" lon="10.3487380">
	<ele>1303.60</ele>
	<time>2025-04-29T06:56:06.000Z</time>
</trkpt>
<trkpt lat="45.9145290" lon="10.3487530">
	<ele>1303.60</ele>
	<time>2025-04-29T06:56:07.000Z</time>
</trkpt>
<trkpt lat="45.9145250" lon="10.3487620">
	<ele>1303.60</ele>
	<time>2025-04-29T06:56:08.000Z</time>
</trkpt>
<trkpt lat="45.9145210" lon="10.3487730">
	<ele>1303.60</ele>
	<time>2025-04-29T06:56:09.000Z</time>
</trkpt>
<trkpt lat="45.9145130" lon="10.3487820">
	<ele>1303.80</ele>
	<time>2025-04-29T06:56:10.000Z</time>
</trkpt>
<trkpt lat="45.9145180" lon="10.3487980">
	<ele>1303.80</ele>
	<time>2025-04-29T06:56:11.000Z</time>
</trkpt>
<trkpt lat="45.9145160" lon="10.3488060">
	<ele>1303.80</ele>
	<time>2025-04-29T06:56:12.000Z</time>
</trkpt>
<trkpt lat="45.9145050" lon="10.3488160">
	<ele>1303.80</ele>
	<time>2025-04-29T06:56:13.000Z</time>
</trkpt>
<trkpt lat="45.9144940" lon="10.3488240">
	<ele>1303.80</ele>
	<time>2025-04-29T06:56:14.000Z</time>
</trkpt>
<trkpt lat="45.9144800" lon="10.3488290">
	<ele>1303.80</ele>
	<time>2025-04-29T06:56:15.000Z</time>
</trkpt>
<trkpt lat="45.9144610" lon="10.3488310">
	<ele>1303.80</ele>
	<time>2025-04-29T06:56:16.000Z</time>
</trkpt>
<trkpt lat="45.9144440" lon="10.3488340">
	<ele>1303.60</ele>
	<time>2025-04-29T06:56:17.000Z</time>
</trkpt>
<trkpt lat="45.9144290" lon="10.3488370">
	<ele>1303.60</ele>
	<time>2025-04-29T06:56:18.000Z</time>
</trkpt>
<trkpt lat="45.9144240" lon="10.3488510">
	<ele>1303.60</ele>
	<time>2025-04-29T06:56:19.000Z</time>
</trkpt>
<trkpt lat="45.9144150" lon="10.3488630">
	<ele>1303.80</ele>
	<time>2025-04-29T06:56:20.000Z</time>
</trkpt>
<trkpt lat="45.9144100" lon="10.3488730">
	<ele>1303.80</ele>
	<time>2025-04-29T06:56:21.000Z</time>
</trkpt>
<trkpt lat="45.9143930" lon="10.3488790">
	<ele>1304.00</ele>
	<time>2025-04-29T06:56:22.000Z</time>
</trkpt>
<trkpt lat="45.9143610" lon="10.3488810">
	<ele>1304.00</ele>
	<time>2025-04-29T06:56:23.000Z</time>
</trkpt>
<trkpt lat="45.9143250" lon="10.3488860">
	<ele>1304.00</ele>
	<time>2025-04-29T06:56:24.000Z</time>
</trkpt>
<trkpt lat="45.9143040" lon="10.3488930">
	<ele>1304.00</ele>
	<time>2025-04-29T06:56:25.000Z</time>
</trkpt>
<trkpt lat="45.9142860" lon="10.3488960">
	<ele>1304.00</ele>
	<time>2025-04-29T06:56:26.000Z</time>
</trkpt>
<trkpt lat="45.9142660" lon="10.3489010">
	<ele>1304.00</ele>
	<time>2025-04-29T06:56:27.000Z</time>
</trkpt>
<trkpt lat="45.9142510" lon="10.3489080">
	<ele>1303.80</ele>
	<time>2025-04-29T06:56:28.000Z</time>
</trkpt>
<trkpt lat="45.9142380" lon="10.3489140">
	<ele>1303.80</ele>
	<time>2025-04-29T06:56:29.000Z</time>
</trkpt>
<trkpt lat="45.9142330" lon="10.3489200">
	<ele>1304.00</ele>
	<time>2025-04-29T06:56:30.000Z</time>
</trkpt>
<trkpt lat="45.9142280" lon="10.3489240">
	<ele>1304.00</ele>
	<time>2025-04-29T06:56:31.000Z</time>
</trkpt>
<trkpt lat="45.9142210" lon="10.3489230">
	<ele>1304.00</ele>
	<time>2025-04-29T06:56:32.000Z</time>
</trkpt>
<trkpt lat="45.9142180" lon="10.3489260">
	<ele>1303.80</ele>
	<time>2025-04-29T06:56:33.000Z</time>
</trkpt>
<trkpt lat="45.9142160" lon="10.3489340">
	<ele>1303.80</ele>
	<time>2025-04-29T06:56:34.000Z</time>
</trkpt>
<trkpt lat="45.9142340" lon="10.3489350">
	<ele>1303.80</ele>
	<time>2025-04-29T06:56:35.000Z</time>
</trkpt>
<trkpt lat="45.9142330" lon="10.3489500">
	<ele>1303.80</ele>
	<time>2025-04-29T06:56:36.000Z</time>
</trkpt>
<trkpt lat="45.9142440" lon="10.3489490">
	<ele>1303.80</ele>
	<time>2025-04-29T06:56:37.000Z</time>
</trkpt>
<trkpt lat="45.9142590" lon="10.3489540">
	<ele>1303.80</ele>
	<time>2025-04-29T06:56:38.000Z</time>
</trkpt>
<trkpt lat="45.9142590" lon="10.3489570">
	<ele>1303.80</ele>
	<time>2025-04-29T06:56:39.000Z</time>
</trkpt>
<trkpt lat="45.9142550" lon="10.3489600">
	<ele>1304.00</ele>
	<time>2025-04-29T06:56:40.000Z</time>
</trkpt>
<trkpt lat="45.9142410" lon="10.3489620">
	<ele>1304.00</ele>
	<time>2025-04-29T06:56:41.000Z</time>
</trkpt>
<trkpt lat="45.9142310" lon="10.3489700">
	<ele>1304.00</ele>
	<time>2025-04-29T06:56:42.000Z</time>
</trkpt>
<trkpt lat="45.9142270" lon="10.3489830">
	<ele>1304.00</ele>
	<time>2025-04-29T06:56:43.000Z</time>
</trkpt>
<trkpt lat="45.9142250" lon="10.3490010">
	<ele>1304.00</ele>
	<time>2025-04-29T06:56:44.000Z</time>
</trkpt>
<trkpt lat="45.9142220" lon="10.3490180">
	<ele>1304.00</ele>
	<time>2025-04-29T06:56:45.000Z</time>
</trkpt>
<trkpt lat="45.9142150" lon="10.3490330">
	<ele>1304.20</ele>
	<time>2025-04-29T06:56:46.000Z</time>
</trkpt>
<trkpt lat="45.9141970" lon="10.3490510">
	<ele>1304.20</ele>
	<time>2025-04-29T06:56:47.000Z</time>
</trkpt>
<trkpt lat="45.9141760" lon="10.3490630">
	<ele>1304.40</ele>
	<time>2025-04-29T06:56:48.000Z</time>
</trkpt>
<trkpt lat="45.9141620" lon="10.3490810">
	<ele>1304.40</ele>
	<time>2025-04-29T06:56:49.000Z</time>
</trkpt>
<trkpt lat="45.9141460" lon="10.3491040">
	<ele>1304.40</ele>
	<time>2025-04-29T06:56:50.000Z</time>
</trkpt>
<trkpt lat="45.9141420" lon="10.3491260">
	<ele>1304.60</ele>
	<time>2025-04-29T06:56:51.000Z</time>
</trkpt>
<trkpt lat="45.9141370" lon="10.3491500">
	<ele>1304.60</ele>
	<time>2025-04-29T06:56:52.000Z</time>
</trkpt>
<trkpt lat="45.9141280" lon="10.3491720">
	<ele>1304.60</ele>
	<time>2025-04-29T06:56:53.000Z</time>
</trkpt>
<trkpt lat="45.9141240" lon="10.3491950">
	<ele>1304.60</ele>
	<time>2025-04-29T06:56:54.000Z</time>
</trkpt>
<trkpt lat="45.9141190" lon="10.3492170">
	<ele>1304.60</ele>
	<time>2025-04-29T06:56:55.000Z</time>
</trkpt>
<trkpt lat="45.9141160" lon="10.3492390">
	<ele>1304.80</ele>
	<time>2025-04-29T06:56:56.000Z</time>
</trkpt>
<trkpt lat="45.9141110" lon="10.3492550">
	<ele>1304.80</ele>
	<time>2025-04-29T06:56:57.000Z</time>
</trkpt>
<trkpt lat="45.9141070" lon="10.3492720">
	<ele>1304.80</ele>
	<time>2025-04-29T06:56:58.000Z</time>
</trkpt>
<trkpt lat="45.9140970" lon="10.3492860">
	<ele>1304.80</ele>
	<time>2025-04-29T06:56:59.000Z</time>
</trkpt>
<trkpt lat="45.9140850" lon="10.3493000">
	<ele>1304.80</ele>
	<time>2025-04-29T06:57:00.000Z</time>
</trkpt>
<trkpt lat="45.9140800" lon="10.3493230">
	<ele>1304.80</ele>
	<time>2025-04-29T06:57:01.000Z</time>
</trkpt>
<trkpt lat="45.9140810" lon="10.3493470">
	<ele>1304.80</ele>
	<time>2025-04-29T06:57:02.000Z</time>
</trkpt>
<trkpt lat="45.9140790" lon="10.3493620">
	<ele>1304.80</ele>
	<time>2025-04-29T06:57:03.000Z</time>
</trkpt>
<trkpt lat="45.9140750" lon="10.3493660">
	<ele>1304.80</ele>
	<time>2025-04-29T06:57:04.000Z</time>
</trkpt>
<trkpt lat="45.9140790" lon="10.3493840">
	<ele>1304.80</ele>
	<time>2025-04-29T06:57:05.000Z</time>
</trkpt>
<trkpt lat="45.9140680" lon="10.3494000">
	<ele>1304.80</ele>
	<time>2025-04-29T06:57:06.000Z</time>
</trkpt>
<trkpt lat="45.9140530" lon="10.3494140">
	<ele>1304.80</ele>
	<time>2025-04-29T06:57:07.000Z</time>
</trkpt>
<trkpt lat="45.9140470" lon="10.3494260">
	<ele>1305.00</ele>
	<time>2025-04-29T06:57:08.000Z</time>
</trkpt>
<trkpt lat="45.9140440" lon="10.3494360">
	<ele>1305.00</ele>
	<time>2025-04-29T06:57:09.000Z</time>
</trkpt>
<trkpt lat="45.9140400" lon="10.3494520">
	<ele>1305.00</ele>
	<time>2025-04-29T06:57:10.000Z</time>
</trkpt>
<trkpt lat="45.9140340" lon="10.3494660">
	<ele>1305.20</ele>
	<time>2025-04-29T06:57:11.000Z</time>
</trkpt>
<trkpt lat="45.9140240" lon="10.3494770">
	<ele>1305.40</ele>
	<time>2025-04-29T06:57:12.000Z</time>
</trkpt>
<trkpt lat="45.9140160" lon="10.3494880">
	<ele>1305.40</ele>
	<time>2025-04-29T06:57:13.000Z</time>
</trkpt>
<trkpt lat="45.9140080" lon="10.3495020">
	<ele>1305.60</ele>
	<time>2025-04-29T06:57:14.000Z</time>
</trkpt>
<trkpt lat="45.9140010" lon="10.3495190">
	<ele>1305.60</ele>
	<time>2025-04-29T06:57:15.000Z</time>
</trkpt>
<trkpt lat="45.9139940" lon="10.3495390">
	<ele>1305.60</ele>
	<time>2025-04-29T06:57:16.000Z</time>
</trkpt>
<trkpt lat="45.9139880" lon="10.3495610">
	<ele>1305.60</ele>
	<time>2025-04-29T06:57:17.000Z</time>
</trkpt>
<trkpt lat="45.9139840" lon="10.3495820">
	<ele>1305.60</ele>
	<time>2025-04-29T06:57:18.000Z</time>
</trkpt>
<trkpt lat="45.9139770" lon="10.3495970">
	<ele>1305.60</ele>
	<time>2025-04-29T06:57:19.000Z</time>
</trkpt>
<trkpt lat="45.9139740" lon="10.3496210">
	<ele>1305.60</ele>
	<time>2025-04-29T06:57:20.000Z</time>
</trkpt>
<trkpt lat="45.9139720" lon="10.3496420">
	<ele>1305.60</ele>
	<time>2025-04-29T06:57:21.000Z</time>
</trkpt>
<trkpt lat="45.9139620" lon="10.3496640">
	<ele>1305.60</ele>
	<time>2025-04-29T06:57:22.000Z</time>
</trkpt>
<trkpt lat="45.9139570" lon="10.3496820">
	<ele>1305.60</ele>
	<time>2025-04-29T06:57:23.000Z</time>
</trkpt>
<trkpt lat="45.9139440" lon="10.3497030">
	<ele>1305.60</ele>
	<time>2025-04-29T06:57:24.000Z</time>
</trkpt>
<trkpt lat="45.9139300" lon="10.3497220">
	<ele>1305.40</ele>
	<time>2025-04-29T06:57:25.000Z</time>
</trkpt>
<trkpt lat="45.9139230" lon="10.3497490">
	<ele>1305.40</ele>
	<time>2025-04-29T06:57:26.000Z</time>
</trkpt>
<trkpt lat="45.9139240" lon="10.3497780">
	<ele>1305.60</ele>
	<time>2025-04-29T06:57:27.000Z</time>
</trkpt>
<trkpt lat="45.9139240" lon="10.3498060">
	<ele>1305.60</ele>
	<time>2025-04-29T06:57:28.000Z</time>
</trkpt>
<trkpt lat="45.9139240" lon="10.3498300">
	<ele>1305.60</ele>
	<time>2025-04-29T06:57:29.000Z</time>
</trkpt>
<trkpt lat="45.9139240" lon="10.3498470">
	<ele>1305.60</ele>
	<time>2025-04-29T06:57:30.000Z</time>
</trkpt>
<trkpt lat="45.9139260" lon="10.3498700">
	<ele>1305.60</ele>
	<time>2025-04-29T06:57:31.000Z</time>
</trkpt>
<trkpt lat="45.9139280" lon="10.3498910">
	<ele>1305.60</ele>
	<time>2025-04-29T06:57:32.000Z</time>
</trkpt>
<trkpt lat="45.9139270" lon="10.3499150">
	<ele>1305.60</ele>
	<time>2025-04-29T06:57:33.000Z</time>
</trkpt>
<trkpt lat="45.9139210" lon="10.3499350">
	<ele>1305.60</ele>
	<time>2025-04-29T06:57:34.000Z</time>
</trkpt>
<trkpt lat="45.9139150" lon="10.3499590">
	<ele>1305.60</ele>
	<time>2025-04-29T06:57:35.000Z</time>
</trkpt>
<trkpt lat="45.9139070" lon="10.3499800">
	<ele>1305.60</ele>
	<time>2025-04-29T06:57:36.000Z</time>
</trkpt>
<trkpt lat="45.9139060" lon="10.3500100">
	<ele>1305.60</ele>
	<time>2025-04-29T06:57:37.000Z</time>
</trkpt>
<trkpt lat="45.9139060" lon="10.3500290">
	<ele>1305.60</ele>
	<time>2025-04-29T06:57:38.000Z</time>
</trkpt>
<trkpt lat="45.9139060" lon="10.3500490">
	<ele>1305.60</ele>
	<time>2025-04-29T06:57:39.000Z</time>
</trkpt>
<trkpt lat="45.9139020" lon="10.3500660">
	<ele>1305.60</ele>
	<time>2025-04-29T06:57:40.000Z</time>
</trkpt>
<trkpt lat="45.9138970" lon="10.3500820">
	<ele>1305.60</ele>
	<time>2025-04-29T06:57:41.000Z</time>
</trkpt>
<trkpt lat="45.9138900" lon="10.3500930">
	<ele>1305.60</ele>
	<time>2025-04-29T06:57:42.000Z</time>
</trkpt>
<trkpt lat="45.9138950" lon="10.3501020">
	<ele>1305.60</ele>
	<time>2025-04-29T06:57:43.000Z</time>
</trkpt>
<trkpt lat="45.9139020" lon="10.3501130">
	<ele>1305.60</ele>
	<time>2025-04-29T06:57:44.000Z</time>
</trkpt>
<trkpt lat="45.9139010" lon="10.3501290">
	<ele>1305.60</ele>
	<time>2025-04-29T06:57:45.000Z</time>
</trkpt>
<trkpt lat="45.9138960" lon="10.3501460">
	<ele>1305.60</ele>
	<time>2025-04-29T06:57:46.000Z</time>
</trkpt>
<trkpt lat="45.9138720" lon="10.3501740">
	<ele>1305.60</ele>
	<time>2025-04-29T06:57:47.000Z</time>
</trkpt>
<trkpt lat="45.9138690" lon="10.3501920">
	<ele>1305.60</ele>
	<time>2025-04-29T06:57:48.000Z</time>
</trkpt>
<trkpt lat="45.9138640" lon="10.3502090">
	<ele>1305.60</ele>
	<time>2025-04-29T06:57:49.000Z</time>
</trkpt>
<trkpt lat="45.9138670" lon="10.3502250">
	<ele>1305.80</ele>
	<time>2025-04-29T06:57:50.000Z</time>
</trkpt>
<trkpt lat="45.9138690" lon="10.3502400">
	<ele>1305.80</ele>
	<time>2025-04-29T06:57:51.000Z</time>
</trkpt>
<trkpt lat="45.9138710" lon="10.3502530">
	<ele>1306.00</ele>
	<time>2025-04-29T06:57:52.000Z</time>
</trkpt>
<trkpt lat="45.9138720" lon="10.3502620">
	<ele>1306.00</ele>
	<time>2025-04-29T06:57:53.000Z</time>
</trkpt>
<trkpt lat="45.9138700" lon="10.3502730">
	<ele>1306.00</ele>
	<time>2025-04-29T06:57:54.000Z</time>
</trkpt>
<trkpt lat="45.9138680" lon="10.3502890">
	<ele>1306.00</ele>
	<time>2025-04-29T06:57:55.000Z</time>
</trkpt>
<trkpt lat="45.9138590" lon="10.3503000">
	<ele>1306.20</ele>
	<time>2025-04-29T06:57:56.000Z</time>
</trkpt>
<trkpt lat="45.9138460" lon="10.3503100">
	<ele>1306.20</ele>
	<time>2025-04-29T06:57:57.000Z</time>
</trkpt>
<trkpt lat="45.9138230" lon="10.3503160">
	<ele>1306.40</ele>
	<time>2025-04-29T06:57:58.000Z</time>
</trkpt>
<trkpt lat="45.9138030" lon="10.3503210">
	<ele>1306.40</ele>
	<time>2025-04-29T06:57:59.000Z</time>
</trkpt>
<trkpt lat="45.9137800" lon="10.3503250">
	<ele>1306.40</ele>
	<time>2025-04-29T06:58:00.000Z</time>
</trkpt>
<trkpt lat="45.9137660" lon="10.3503330">
	<ele>1306.60</ele>
	<time>2025-04-29T06:58:01.000Z</time>
</trkpt>
<trkpt lat="45.9137530" lon="10.3503450">
	<ele>1306.60</ele>
	<time>2025-04-29T06:58:02.000Z</time>
</trkpt>
<trkpt lat="45.9137480" lon="10.3503660">
	<ele>1306.80</ele>
	<time>2025-04-29T06:58:03.000Z</time>
</trkpt>
<trkpt lat="45.9137400" lon="10.3503870">
	<ele>1306.80</ele>
	<time>2025-04-29T06:58:04.000Z</time>
</trkpt>
<trkpt lat="45.9137250" lon="10.3504020">
	<ele>1306.80</ele>
	<time>2025-04-29T06:58:05.000Z</time>
</trkpt>
<trkpt lat="45.9137200" lon="10.3504180">
	<ele>1307.00</ele>
	<time>2025-04-29T06:58:06.000Z</time>
</trkpt>
<trkpt lat="45.9137230" lon="10.3504320">
	<ele>1307.00</ele>
	<time>2025-04-29T06:58:07.000Z</time>
</trkpt>
<trkpt lat="45.9137270" lon="10.3504510">
	<ele>1307.00</ele>
	<time>2025-04-29T06:58:08.000Z</time>
</trkpt>
<trkpt lat="45.9137400" lon="10.3504660">
	<ele>1307.00</ele>
	<time>2025-04-29T06:58:09.000Z</time>
</trkpt>
<trkpt lat="45.9137430" lon="10.3504830">
	<ele>1307.00</ele>
	<time>2025-04-29T06:58:10.000Z</time>
</trkpt>
<trkpt lat="45.9137450" lon="10.3505020">
	<ele>1307.00</ele>
	<time>2025-04-29T06:58:11.000Z</time>
</trkpt>
<trkpt lat="45.9137510" lon="10.3505260">
	<ele>1307.20</ele>
	<time>2025-04-29T06:58:12.000Z</time>
</trkpt>
<trkpt lat="45.9137600" lon="10.3505490">
	<ele>1307.20</ele>
	<time>2025-04-29T06:58:13.000Z</time>
</trkpt>
<trkpt lat="45.9137690" lon="10.3505710">
	<ele>1307.20</ele>
	<time>2025-04-29T06:58:14.000Z</time>
</trkpt>
<trkpt lat="45.9137780" lon="10.3505960">
	<ele>1307.40</ele>
	<time>2025-04-29T06:58:15.000Z</time>
</trkpt>
<trkpt lat="45.9137830" lon="10.3506160">
	<ele>1307.40</ele>
	<time>2025-04-29T06:58:16.000Z</time>
</trkpt>
<trkpt lat="45.9137830" lon="10.3506300">
	<ele>1307.40</ele>
	<time>2025-04-29T06:58:17.000Z</time>
</trkpt>
<trkpt lat="45.9137860" lon="10.3506490">
	<ele>1307.60</ele>
	<time>2025-04-29T06:58:18.000Z</time>
</trkpt>
<trkpt lat="45.9137870" lon="10.3506650">
	<ele>1307.60</ele>
	<time>2025-04-29T06:58:19.000Z</time>
</trkpt>
<trkpt lat="45.9137890" lon="10.3506770">
	<ele>1307.60</ele>
	<time>2025-04-29T06:58:20.000Z</time>
</trkpt>
<trkpt lat="45.9137990" lon="10.3506910">
	<ele>1307.60</ele>
	<time>2025-04-29T06:58:21.000Z</time>
</trkpt>
<trkpt lat="45.9138090" lon="10.3507020">
	<ele>1307.80</ele>
	<time>2025-04-29T06:58:22.000Z</time>
</trkpt>
<trkpt lat="45.9138160" lon="10.3507100">
	<ele>1307.80</ele>
	<time>2025-04-29T06:58:23.000Z</time>
</trkpt>
<trkpt lat="45.9138190" lon="10.3507200">
	<ele>1307.80</ele>
	<time>2025-04-29T06:58:24.000Z</time>
</trkpt>
<trkpt lat="45.9138220" lon="10.3507350">
	<ele>1307.80</ele>
	<time>2025-04-29T06:58:25.000Z</time>
</trkpt>
<trkpt lat="45.9138210" lon="10.3507530">
	<ele>1308.00</ele>
	<time>2025-04-29T06:58:26.000Z</time>
</trkpt>
<trkpt lat="45.9138220" lon="10.3507720">
	<ele>1308.00</ele>
	<time>2025-04-29T06:58:27.000Z</time>
</trkpt>
<trkpt lat="45.9138190" lon="10.3507940">
	<ele>1308.00</ele>
	<time>2025-04-29T06:58:28.000Z</time>
</trkpt>
<trkpt lat="45.9138240" lon="10.3508120">
	<ele>1308.00</ele>
	<time>2025-04-29T06:58:29.000Z</time>
</trkpt>
<trkpt lat="45.9138250" lon="10.3508240">
	<ele>1308.00</ele>
	<time>2025-04-29T06:58:30.000Z</time>
</trkpt>
<trkpt lat="45.9138280" lon="10.3508400">
	<ele>1308.00</ele>
	<time>2025-04-29T06:58:31.000Z</time>
</trkpt>
<trkpt lat="45.9138360" lon="10.3508570">
	<ele>1308.20</ele>
	<time>2025-04-29T06:58:32.000Z</time>
</trkpt>
<trkpt lat="45.9138370" lon="10.3508770">
	<ele>1308.20</ele>
	<time>2025-04-29T06:58:33.000Z</time>
</trkpt>
<trkpt lat="45.9138310" lon="10.3508950">
	<ele>1308.20</ele>
	<time>2025-04-29T06:58:34.000Z</time>
</trkpt>
<trkpt lat="45.9138270" lon="10.3509070">
	<ele>1308.00</ele>
	<time>2025-04-29T06:58:35.000Z</time>
</trkpt>
<trkpt lat="45.9138180" lon="10.3509220">
	<ele>1308.00</ele>
	<time>2025-04-29T06:58:36.000Z</time>
</trkpt>
<trkpt lat="45.9138170" lon="10.3509390">
	<ele>1307.80</ele>
	<time>2025-04-29T06:58:37.000Z</time>
</trkpt>
<trkpt lat="45.9138180" lon="10.3509570">
	<ele>1307.80</ele>
	<time>2025-04-29T06:58:38.000Z</time>
</trkpt>
<trkpt lat="45.9138200" lon="10.3509700">
	<ele>1307.80</ele>
	<time>2025-04-29T06:58:39.000Z</time>
</trkpt>
<trkpt lat="45.9138220" lon="10.3509850">
	<ele>1307.80</ele>
	<time>2025-04-29T06:58:40.000Z</time>
</trkpt>
<trkpt lat="45.9138150" lon="10.3510230">
	<ele>1307.80</ele>
	<time>2025-04-29T06:58:41.000Z</time>
</trkpt>
<trkpt lat="45.9138110" lon="10.3510450">
	<ele>1307.80</ele>
	<time>2025-04-29T06:58:42.000Z</time>
</trkpt>
<trkpt lat="45.9138100" lon="10.3510600">
	<ele>1307.80</ele>
	<time>2025-04-29T06:58:43.000Z</time>
</trkpt>
<trkpt lat="45.9138070" lon="10.3510800">
	<ele>1307.80</ele>
	<time>2025-04-29T06:58:44.000Z</time>
</trkpt>
<trkpt lat="45.9138090" lon="10.3511020">
	<ele>1307.60</ele>
	<time>2025-04-29T06:58:45.000Z</time>
</trkpt>
<trkpt lat="45.9138100" lon="10.3511240">
	<ele>1307.60</ele>
	<time>2025-04-29T06:58:46.000Z</time>
</trkpt>
<trkpt lat="45.9138110" lon="10.3511480">
	<ele>1307.60</ele>
	<time>2025-04-29T06:58:47.000Z</time>
</trkpt>
<trkpt lat="45.9138150" lon="10.3511750">
	<ele>1307.60</ele>
	<time>2025-04-29T06:58:48.000Z</time>
</trkpt>
<trkpt lat="45.9138230" lon="10.3512000">
	<ele>1307.60</ele>
	<time>2025-04-29T06:58:49.000Z</time>
</trkpt>
<trkpt lat="45.9138230" lon="10.3512210">
	<ele>1307.80</ele>
	<time>2025-04-29T06:58:50.000Z</time>
</trkpt>
<trkpt lat="45.9138180" lon="10.3512510">
	<ele>1307.80</ele>
	<time>2025-04-29T06:58:51.000Z</time>
</trkpt>
<trkpt lat="45.9138160" lon="10.3512730">
	<ele>1307.80</ele>
	<time>2025-04-29T06:58:52.000Z</time>
</trkpt>
<trkpt lat="45.9138210" lon="10.3512920">
	<ele>1307.80</ele>
	<time>2025-04-29T06:58:53.000Z</time>
</trkpt>
<trkpt lat="45.9138380" lon="10.3513110">
	<ele>1307.80</ele>
	<time>2025-04-29T06:58:54.000Z</time>
</trkpt>
<trkpt lat="45.9138550" lon="10.3513150">
	<ele>1307.80</ele>
	<time>2025-04-29T06:58:55.000Z</time>
</trkpt>
<trkpt lat="45.9138720" lon="10.3513240">
	<ele>1308.00</ele>
	<time>2025-04-29T06:58:56.000Z</time>
</trkpt>
<trkpt lat="45.9138840" lon="10.3513390">
	<ele>1308.00</ele>
	<time>2025-04-29T06:58:57.000Z</time>
</trkpt>
<trkpt lat="45.9139000" lon="10.3513490">
	<ele>1308.00</ele>
	<time>2025-04-29T06:58:58.000Z</time>
</trkpt>
<trkpt lat="45.9139130" lon="10.3513630">
	<ele>1308.00</ele>
	<time>2025-04-29T06:58:59.000Z</time>
</trkpt>
<trkpt lat="45.9139200" lon="10.3513750">
	<ele>1308.00</ele>
	<time>2025-04-29T06:59:00.000Z</time>
</trkpt>
<trkpt lat="45.9139330" lon="10.3513890">
	<ele>1308.20</ele>
	<time>2025-04-29T06:59:01.000Z</time>
</trkpt>
<trkpt lat="45.9139430" lon="10.3514020">
	<ele>1308.00</ele>
	<time>2025-04-29T06:59:02.000Z</time>
</trkpt>
<trkpt lat="45.9139490" lon="10.3514090">
	<ele>1308.20</ele>
	<time>2025-04-29T06:59:03.000Z</time>
</trkpt>
<trkpt lat="45.9139560" lon="10.3514130">
	<ele>1308.20</ele>
	<time>2025-04-29T06:59:04.000Z</time>
</trkpt>
<trkpt lat="45.9139610" lon="10.3514140">
	<ele>1308.20</ele>
	<time>2025-04-29T06:59:05.000Z</time>
</trkpt>
<trkpt lat="45.9139640" lon="10.3514220">
	<ele>1308.20</ele>
	<time>2025-04-29T06:59:06.000Z</time>
</trkpt>
<trkpt lat="45.9139720" lon="10.3514360">
	<ele>1308.20</ele>
	<time>2025-04-29T06:59:07.000Z</time>
</trkpt>
<trkpt lat="45.9139770" lon="10.3514420">
	<ele>1308.20</ele>
	<time>2025-04-29T06:59:08.000Z</time>
</trkpt>
<trkpt lat="45.9139750" lon="10.3514490">
	<ele>1308.20</ele>
	<time>2025-04-29T06:59:09.000Z</time>
</trkpt>
<trkpt lat="45.9139750" lon="10.3514610">
	<ele>1308.20</ele>
	<time>2025-04-29T06:59:10.000Z</time>
</trkpt>
<trkpt lat="45.9139790" lon="10.3514730">
	<ele>1308.40</ele>
	<time>2025-04-29T06:59:11.000Z</time>
</trkpt>
<trkpt lat="45.9139850" lon="10.3514770">
	<ele>1308.40</ele>
	<time>2025-04-29T06:59:12.000Z</time>
</trkpt>
<trkpt lat="45.9139940" lon="10.3514750">
	<ele>1308.40</ele>
	<time>2025-04-29T06:59:13.000Z</time>
</trkpt>
<trkpt lat="45.9140140" lon="10.3514900">
	<ele>1308.60</ele>
	<time>2025-04-29T06:59:14.000Z</time>
</trkpt>
<trkpt lat="45.9140270" lon="10.3515000">
	<ele>1308.60</ele>
	<time>2025-04-29T06:59:15.000Z</time>
</trkpt>
<trkpt lat="45.9140510" lon="10.3515090">
	<ele>1308.80</ele>
	<time>2025-04-29T06:59:16.000Z</time>
</trkpt>
<trkpt lat="45.9140630" lon="10.3515150">
	<ele>1308.80</ele>
	<time>2025-04-29T06:59:17.000Z</time>
</trkpt>
<trkpt lat="45.9140750" lon="10.3515260">
	<ele>1309.00</ele>
	<time>2025-04-29T06:59:18.000Z</time>
</trkpt>
<trkpt lat="45.9140800" lon="10.3515340">
	<ele>1309.00</ele>
	<time>2025-04-29T06:59:19.000Z</time>
</trkpt>
<trkpt lat="45.9140890" lon="10.3515450">
	<ele>1309.00</ele>
	<time>2025-04-29T06:59:20.000Z</time>
</trkpt>
<trkpt lat="45.9141050" lon="10.3515540">
	<ele>1309.20</ele>
	<time>2025-04-29T06:59:21.000Z</time>
</trkpt>
<trkpt lat="45.9141260" lon="10.3515680">
	<ele>1309.20</ele>
	<time>2025-04-29T06:59:22.000Z</time>
</trkpt>
<trkpt lat="45.9141360" lon="10.3515840">
	<ele>1309.40</ele>
	<time>2025-04-29T06:59:23.000Z</time>
</trkpt>
<trkpt lat="45.9141420" lon="10.3516000">
	<ele>1309.60</ele>
	<time>2025-04-29T06:59:24.000Z</time>
</trkpt>
<trkpt lat="45.9141430" lon="10.3516170">
	<ele>1309.60</ele>
	<time>2025-04-29T06:59:25.000Z</time>
</trkpt>
<trkpt lat="45.9141440" lon="10.3516350">
	<ele>1309.80</ele>
	<time>2025-04-29T06:59:26.000Z</time>
</trkpt>
<trkpt lat="45.9141480" lon="10.3516520">
	<ele>1309.80</ele>
	<time>2025-04-29T06:59:27.000Z</time>
</trkpt>
<trkpt lat="45.9141520" lon="10.3516680">
	<ele>1309.80</ele>
	<time>2025-04-29T06:59:28.000Z</time>
</trkpt>
<trkpt lat="45.9141540" lon="10.3516850">
	<ele>1310.00</ele>
	<time>2025-04-29T06:59:29.000Z</time>
</trkpt>
<trkpt lat="45.9141570" lon="10.3517020">
	<ele>1310.00</ele>
	<time>2025-04-29T06:59:30.000Z</time>
</trkpt>
<trkpt lat="45.9141580" lon="10.3517220">
	<ele>1310.00</ele>
	<time>2025-04-29T06:59:31.000Z</time>
</trkpt>
<trkpt lat="45.9141590" lon="10.3517430">
	<ele>1310.20</ele>
	<time>2025-04-29T06:59:32.000Z</time>
</trkpt>
<trkpt lat="45.9141580" lon="10.3517610">
	<ele>1310.20</ele>
	<time>2025-04-29T06:59:33.000Z</time>
</trkpt>
<trkpt lat="45.9141560" lon="10.3517810">
	<ele>1310.20</ele>
	<time>2025-04-29T06:59:34.000Z</time>
</trkpt>
<trkpt lat="45.9141620" lon="10.3517940">
	<ele>1310.20</ele>
	<time>2025-04-29T06:59:35.000Z</time>
</trkpt>
<trkpt lat="45.9141690" lon="10.3518060">
	<ele>1310.20</ele>
	<time>2025-04-29T06:59:36.000Z</time>
</trkpt>
<trkpt lat="45.9141590" lon="10.3518110">
	<ele>1310.40</ele>
	<time>2025-04-29T06:59:37.000Z</time>
</trkpt>
<trkpt lat="45.9141540" lon="10.3518270">
	<ele>1310.40</ele>
	<time>2025-04-29T06:59:38.000Z</time>
</trkpt>
<trkpt lat="45.9141510" lon="10.3518480">
	<ele>1310.60</ele>
	<time>2025-04-29T06:59:39.000Z</time>
</trkpt>
<trkpt lat="45.9141560" lon="10.3518700">
	<ele>1310.80</ele>
	<time>2025-04-29T06:59:40.000Z</time>
</trkpt>
<trkpt lat="45.9141550" lon="10.3518810">
	<ele>1310.80</ele>
	<time>2025-04-29T06:59:41.000Z</time>
</trkpt>
<trkpt lat="45.9141400" lon="10.3518910">
	<ele>1311.00</ele>
	<time>2025-04-29T06:59:42.000Z</time>
</trkpt>
<trkpt lat="45.9141290" lon="10.3519020">
	<ele>1311.00</ele>
	<time>2025-04-29T06:59:43.000Z</time>
</trkpt>
<trkpt lat="45.9141110" lon="10.3519040">
	<ele>1311.00</ele>
	<time>2025-04-29T06:59:44.000Z</time>
</trkpt>
<trkpt lat="45.9141000" lon="10.3519100">
	<ele>1311.00</ele>
	<time>2025-04-29T06:59:45.000Z</time>
</trkpt>
<trkpt lat="45.9140930" lon="10.3519190">
	<ele>1311.20</ele>
	<time>2025-04-29T06:59:46.000Z</time>
</trkpt>
<trkpt lat="45.9140860" lon="10.3519310">
	<ele>1311.20</ele>
	<time>2025-04-29T06:59:47.000Z</time>
</trkpt>
<trkpt lat="45.9140760" lon="10.3519430">
	<ele>1311.20</ele>
	<time>2025-04-29T06:59:48.000Z</time>
</trkpt>
<trkpt lat="45.9140740" lon="10.3519570">
	<ele>1311.40</ele>
	<time>2025-04-29T06:59:49.000Z</time>
</trkpt>
<trkpt lat="45.9140700" lon="10.3519660">
	<ele>1311.40</ele>
	<time>2025-04-29T06:59:50.000Z</time>
</trkpt>
<trkpt lat="45.9140640" lon="10.3519790">
	<ele>1311.40</ele>
	<time>2025-04-29T06:59:51.000Z</time>
</trkpt>
<trkpt lat="45.9140660" lon="10.3519990">
	<ele>1311.40</ele>
	<time>2025-04-29T06:59:52.000Z</time>
</trkpt>
<trkpt lat="45.9140630" lon="10.3520150">
	<ele>1311.60</ele>
	<time>2025-04-29T06:59:53.000Z</time>
</trkpt>
<trkpt lat="45.9140520" lon="10.3520300">
	<ele>1311.60</ele>
	<time>2025-04-29T06:59:54.000Z</time>
</trkpt>
<trkpt lat="45.9140410" lon="10.3520460">
	<ele>1311.60</ele>
	<time>2025-04-29T06:59:55.000Z</time>
</trkpt>
<trkpt lat="45.9140280" lon="10.3520580">
	<ele>1311.80</ele>
	<time>2025-04-29T06:59:56.000Z</time>
</trkpt>
<trkpt lat="45.9140200" lon="10.3520750">
	<ele>1311.80</ele>
	<time>2025-04-29T06:59:57.000Z</time>
</trkpt>
<trkpt lat="45.9140060" lon="10.3520870">
	<ele>1311.80</ele>
	<time>2025-04-29T06:59:58.000Z</time>
</trkpt>
<trkpt lat="45.9139980" lon="10.3520980">
	<ele>1312.00</ele>
	<time>2025-04-29T06:59:59.000Z</time>
</trkpt>
<trkpt lat="45.9139930" lon="10.3521200">
	<ele>1312.00</ele>
	<time>2025-04-29T07:00:00.000Z</time>
</trkpt>
<trkpt lat="45.9139900" lon="10.3521410">
	<ele>1312.20</ele>
	<time>2025-04-29T07:00:01.000Z</time>
</trkpt>
<trkpt lat="45.9139850" lon="10.3521600">
	<ele>1312.20</ele>
	<time>2025-04-29T07:00:02.000Z</time>
</trkpt>
<trkpt lat="45.9139750" lon="10.3521710">
	<ele>1312.20</ele>
	<time>2025-04-29T07:00:03.000Z</time>
</trkpt>
<trkpt lat="45.9139710" lon="10.3521830">
	<ele>1312.20</ele>
	<time>2025-04-29T07:00:04.000Z</time>
</trkpt>
<trkpt lat="45.9139690" lon="10.3522010">
	<ele>1312.20</ele>
	<time>2025-04-29T07:00:05.000Z</time>
</trkpt>
<trkpt lat="45.9139590" lon="10.3522180">
	<ele>1312.20</ele>
	<time>2025-04-29T07:00:06.000Z</time>
</trkpt>
<trkpt lat="45.9139480" lon="10.3522390">
	<ele>1312.40</ele>
	<time>2025-04-29T07:00:07.000Z</time>
</trkpt>
<trkpt lat="45.9139360" lon="10.3522540">
	<ele>1312.40</ele>
	<time>2025-04-29T07:00:08.000Z</time>
</trkpt>
<trkpt lat="45.9139340" lon="10.3522750">
	<ele>1312.40</ele>
	<time>2025-04-29T07:00:09.000Z</time>
</trkpt>
<trkpt lat="45.9139350" lon="10.3522940">
	<ele>1312.40</ele>
	<time>2025-04-29T07:00:10.000Z</time>
</trkpt>
<trkpt lat="45.9139350" lon="10.3523060">
	<ele>1312.60</ele>
	<time>2025-04-29T07:00:11.000Z</time>
</trkpt>
<trkpt lat="45.9139340" lon="10.3523220">
	<ele>1312.60</ele>
	<time>2025-04-29T07:00:12.000Z</time>
</trkpt>
<trkpt lat="45.9139410" lon="10.3523420">
	<ele>1312.60</ele>
	<time>2025-04-29T07:00:13.000Z</time>
</trkpt>
<trkpt lat="45.9139530" lon="10.3523610">
	<ele>1312.80</ele>
	<time>2025-04-29T07:00:14.000Z</time>
</trkpt>
<trkpt lat="45.9139670" lon="10.3523790">
	<ele>1312.80</ele>
	<time>2025-04-29T07:00:15.000Z</time>
</trkpt>
<trkpt lat="45.9139790" lon="10.3524000">
	<ele>1312.80</ele>
	<time>2025-04-29T07:00:16.000Z</time>
</trkpt>
<trkpt lat="45.9139830" lon="10.3524240">
	<ele>1312.80</ele>
	<time>2025-04-29T07:00:17.000Z</time>
</trkpt>
<trkpt lat="45.9139730" lon="10.3524420">
	<ele>1313.00</ele>
	<time>2025-04-29T07:00:18.000Z</time>
</trkpt>
<trkpt lat="45.9139730" lon="10.3524610">
	<ele>1313.00</ele>
	<time>2025-04-29T07:00:19.000Z</time>
</trkpt>
<trkpt lat="45.9139760" lon="10.3524790">
	<ele>1313.00</ele>
	<time>2025-04-29T07:00:20.000Z</time>
</trkpt>
<trkpt lat="45.9139810" lon="10.3524960">
	<ele>1313.00</ele>
	<time>2025-04-29T07:00:21.000Z</time>
</trkpt>
<trkpt lat="45.9139810" lon="10.3525110">
	<ele>1313.20</ele>
	<time>2025-04-29T07:00:22.000Z</time>
</trkpt>
<trkpt lat="45.9139790" lon="10.3525290">
	<ele>1313.20</ele>
	<time>2025-04-29T07:00:23.000Z</time>
</trkpt>
<trkpt lat="45.9139780" lon="10.3525450">
	<ele>1313.20</ele>
	<time>2025-04-29T07:00:24.000Z</time>
</trkpt>
<trkpt lat="45.9139780" lon="10.3525560">
	<ele>1313.20</ele>
	<time>2025-04-29T07:00:25.000Z</time>
</trkpt>
<trkpt lat="45.9139780" lon="10.3525690">
	<ele>1313.40</ele>
	<time>2025-04-29T07:00:26.000Z</time>
</trkpt>
<trkpt lat="45.9139630" lon="10.3525750">
	<ele>1313.40</ele>
	<time>2025-04-29T07:00:27.000Z</time>
</trkpt>
<trkpt lat="45.9139700" lon="10.3525840">
	<ele>1313.60</ele>
	<time>2025-04-29T07:00:28.000Z</time>
</trkpt>
<trkpt lat="45.9139730" lon="10.3525930">
	<ele>1313.60</ele>
	<time>2025-04-29T07:00:29.000Z</time>
</trkpt>
<trkpt lat="45.9139450" lon="10.3526060">
	<ele>1313.60</ele>
	<time>2025-04-29T07:00:30.000Z</time>
</trkpt>
<trkpt lat="45.9139280" lon="10.3526240">
	<ele>1313.60</ele>
	<time>2025-04-29T07:00:31.000Z</time>
</trkpt>
<trkpt lat="45.9139160" lon="10.3526470">
	<ele>1313.80</ele>
	<time>2025-04-29T07:00:32.000Z</time>
</trkpt>
<trkpt lat="45.9139030" lon="10.3526730">
	<ele>1313.80</ele>
	<time>2025-04-29T07:00:33.000Z</time>
</trkpt>
<trkpt lat="45.9138840" lon="10.3526940">
	<ele>1313.80</ele>
	<time>2025-04-29T07:00:34.000Z</time>
</trkpt>
<trkpt lat="45.9138690" lon="10.3527100">
	<ele>1313.80</ele>
	<time>2025-04-29T07:00:35.000Z</time>
</trkpt>
<trkpt lat="45.9138650" lon="10.3527190">
	<ele>1313.80</ele>
	<time>2025-04-29T07:00:36.000Z</time>
</trkpt>
<trkpt lat="45.9138620" lon="10.3527250">
	<ele>1314.00</ele>
	<time>2025-04-29T07:00:37.000Z</time>
</trkpt>
<trkpt lat="45.9138530" lon="10.3527300">
	<ele>1314.00</ele>
	<time>2025-04-29T07:00:38.000Z</time>
</trkpt>
<trkpt lat="45.9138490" lon="10.3527350">
	<ele>1314.20</ele>
	<time>2025-04-29T07:00:39.000Z</time>
</trkpt>
<trkpt lat="45.9138560" lon="10.3527440">
	<ele>1314.20</ele>
	<time>2025-04-29T07:00:40.000Z</time>
</trkpt>
<trkpt lat="45.9138680" lon="10.3527610">
	<ele>1314.40</ele>
	<time>2025-04-29T07:00:41.000Z</time>
</trkpt>
<trkpt lat="45.9138750" lon="10.3527810">
	<ele>1314.40</ele>
	<time>2025-04-29T07:00:42.000Z</time>
</trkpt>
<trkpt lat="45.9138710" lon="10.3528040">
	<ele>1314.40</ele>
	<time>2025-04-29T07:00:43.000Z</time>
</trkpt>
<trkpt lat="45.9138740" lon="10.3528210">
	<ele>1314.40</ele>
	<time>2025-04-29T07:00:44.000Z</time>
</trkpt>
<trkpt lat="45.9138720" lon="10.3528360">
	<ele>1314.40</ele>
	<time>2025-04-29T07:00:45.000Z</time>
</trkpt>
<trkpt lat="45.9138700" lon="10.3528530">
	<ele>1314.40</ele>
	<time>2025-04-29T07:00:46.000Z</time>
</trkpt>
<trkpt lat="45.9138660" lon="10.3528680">
	<ele>1314.40</ele>
	<time>2025-04-29T07:00:47.000Z</time>
</trkpt>
<trkpt lat="45.9138610" lon="10.3528820">
	<ele>1314.60</ele>
	<time>2025-04-29T07:00:48.000Z</time>
</trkpt>
<trkpt lat="45.9138550" lon="10.3528990">
	<ele>1314.60</ele>
	<time>2025-04-29T07:00:49.000Z</time>
</trkpt>
<trkpt lat="45.9138510" lon="10.3529160">
	<ele>1314.80</ele>
	<time>2025-04-29T07:00:50.000Z</time>
</trkpt>
<trkpt lat="45.9138490" lon="10.3529340">
	<ele>1314.80</ele>
	<time>2025-04-29T07:00:51.000Z</time>
</trkpt>
<trkpt lat="45.9138480" lon="10.3529520">
	<ele>1314.80</ele>
	<time>2025-04-29T07:00:52.000Z</time>
</trkpt>
<trkpt lat="45.9138420" lon="10.3529690">
	<ele>1314.80</ele>
	<time>2025-04-29T07:00:53.000Z</time>
</trkpt>
<trkpt lat="45.9138350" lon="10.3529840">
	<ele>1314.80</ele>
	<time>2025-04-29T07:00:54.000Z</time>
</trkpt>
<trkpt lat="45.9138250" lon="10.3529980">
	<ele>1314.80</ele>
	<time>2025-04-29T07:00:55.000Z</time>
</trkpt>
<trkpt lat="45.9138120" lon="10.3530090">
	<ele>1314.80</ele>
	<time>2025-04-29T07:00:56.000Z</time>
</trkpt>
<trkpt lat="45.9138020" lon="10.3530220">
	<ele>1315.00</ele>
	<time>2025-04-29T07:00:57.000Z</time>
</trkpt>
<trkpt lat="45.9137940" lon="10.3530340">
	<ele>1315.00</ele>
	<time>2025-04-29T07:00:58.000Z</time>
</trkpt>
<trkpt lat="45.9137880" lon="10.3530460">
	<ele>1315.00</ele>
	<time>2025-04-29T07:00:59.000Z</time>
</trkpt>
<trkpt lat="45.9137820" lon="10.3530590">
	<ele>1315.20</ele>
	<time>2025-04-29T07:01:00.000Z</time>
</trkpt>
<trkpt lat="45.9137840" lon="10.3530810">
	<ele>1315.20</ele>
	<time>2025-04-29T07:01:01.000Z</time>
</trkpt>
<trkpt lat="45.9137900" lon="10.3531030">
	<ele>1315.20</ele>
	<time>2025-04-29T07:01:02.000Z</time>
</trkpt>
<trkpt lat="45.9138000" lon="10.3531290">
	<ele>1315.40</ele>
	<time>2025-04-29T07:01:03.000Z</time>
</trkpt>
<trkpt lat="45.9138100" lon="10.3531550">
	<ele>1315.40</ele>
	<time>2025-04-29T07:01:04.000Z</time>
</trkpt>
<trkpt lat="45.9138200" lon="10.3531780">
	<ele>1315.60</ele>
	<time>2025-04-29T07:01:05.000Z</time>
</trkpt>
<trkpt lat="45.9138220" lon="10.3531980">
	<ele>1315.60</ele>
	<time>2025-04-29T07:01:06.000Z</time>
</trkpt>
<trkpt lat="45.9138180" lon="10.3532110">
	<ele>1315.60</ele>
	<time>2025-04-29T07:01:07.000Z</time>
</trkpt>
<trkpt lat="45.9138190" lon="10.3532270">
	<ele>1315.60</ele>
	<time>2025-04-29T07:01:08.000Z</time>
</trkpt>
<trkpt lat="45.9138240" lon="10.3532420">
	<ele>1315.80</ele>
	<time>2025-04-29T07:01:09.000Z</time>
</trkpt>
<trkpt lat="45.9138420" lon="10.3532640">
	<ele>1316.00</ele>
	<time>2025-04-29T07:01:10.000Z</time>
</trkpt>
<trkpt lat="45.9138450" lon="10.3532790">
	<ele>1316.00</ele>
	<time>2025-04-29T07:01:11.000Z</time>
</trkpt>
<trkpt lat="45.9138360" lon="10.3532900">
	<ele>1316.00</ele>
	<time>2025-04-29T07:01:12.000Z</time>
</trkpt>
<trkpt lat="45.9138070" lon="10.3532970">
	<ele>1316.20</ele>
	<time>2025-04-29T07:01:13.000Z</time>
</trkpt>
<trkpt lat="45.9137830" lon="10.3533020">
	<ele>1316.40</ele>
	<time>2025-04-29T07:01:14.000Z</time>
</trkpt>
<trkpt lat="45.9137710" lon="10.3533150">
	<ele>1316.40</ele>
	<time>2025-04-29T07:01:15.000Z</time>
</trkpt>
<trkpt lat="45.9137600" lon="10.3533250">
	<ele>1316.60</ele>
	<time>2025-04-29T07:01:16.000Z</time>
</trkpt>
<trkpt lat="45.9137550" lon="10.3533400">
	<ele>1316.80</ele>
	<time>2025-04-29T07:01:17.000Z</time>
</trkpt>
<trkpt lat="45.9137470" lon="10.3533580">
	<ele>1316.80</ele>
	<time>2025-04-29T07:01:18.000Z</time>
</trkpt>
<trkpt lat="45.9137440" lon="10.3533750">
	<ele>1317.00</ele>
	<time>2025-04-29T07:01:19.000Z</time>
</trkpt>
<trkpt lat="45.9137420" lon="10.3533860">
	<ele>1317.20</ele>
	<time>2025-04-29T07:01:20.000Z</time>
</trkpt>
<trkpt lat="45.9137370" lon="10.3533990">
	<ele>1317.40</ele>
	<time>2025-04-29T07:01:21.000Z</time>
</trkpt>
<trkpt lat="45.9137330" lon="10.3534100">
	<ele>1317.40</ele>
	<time>2025-04-29T07:01:22.000Z</time>
</trkpt>
<trkpt lat="45.9137310" lon="10.3534200">
	<ele>1317.60</ele>
	<time>2025-04-29T07:01:23.000Z</time>
</trkpt>
<trkpt lat="45.9137260" lon="10.3534270">
	<ele>1317.60</ele>
	<time>2025-04-29T07:01:24.000Z</time>
</trkpt>
<trkpt lat="45.9137240" lon="10.3534390">
	<ele>1317.80</ele>
	<time>2025-04-29T07:01:25.000Z</time>
</trkpt>
<trkpt lat="45.9137260" lon="10.3534560">
	<ele>1317.80</ele>
	<time>2025-04-29T07:01:26.000Z</time>
</trkpt>
<trkpt lat="45.9137280" lon="10.3534670">
	<ele>1317.80</ele>
	<time>2025-04-29T07:01:27.000Z</time>
</trkpt>
<trkpt lat="45.9137280" lon="10.3534750">
	<ele>1318.00</ele>
	<time>2025-04-29T07:01:28.000Z</time>
</trkpt>
<trkpt lat="45.9137270" lon="10.3534760">
	<ele>1318.00</ele>
	<time>2025-04-29T07:01:29.000Z</time>
</trkpt>
<trkpt lat="45.9137510" lon="10.3534690">
	<ele>1318.00</ele>
	<time>2025-04-29T07:01:30.000Z</time>
</trkpt>
<trkpt lat="45.9137530" lon="10.3534660">
	<ele>1318.00</ele>
	<time>2025-04-29T07:01:31.000Z</time>
</trkpt>
<trkpt lat="45.9137490" lon="10.3534650">
	<ele>1318.00</ele>
	<time>2025-04-29T07:01:32.000Z</time>
</trkpt>
<trkpt lat="45.9137530" lon="10.3534730">
	<ele>1318.00</ele>
	<time>2025-04-29T07:01:33.000Z</time>
</trkpt>
<trkpt lat="45.9137560" lon="10.3534790">
	<ele>1318.20</ele>
	<time>2025-04-29T07:01:34.000Z</time>
</trkpt>
<trkpt lat="45.9137590" lon="10.3534850">
	<ele>1318.20</ele>
	<time>2025-04-29T07:01:35.000Z</time>
</trkpt>
<trkpt lat="45.9137600" lon="10.3534910">
	<ele>1318.40</ele>
	<time>2025-04-29T07:01:36.000Z</time>
</trkpt>
<trkpt lat="45.9137630" lon="10.3535000">
	<ele>1318.40</ele>
	<time>2025-04-29T07:01:37.000Z</time>
</trkpt>
<trkpt lat="45.9137940" lon="10.3535020">
	<ele>1318.40</ele>
	<time>2025-04-29T07:01:38.000Z</time>
</trkpt>
<trkpt lat="45.9138130" lon="10.3534970">
	<ele>1318.40</ele>
	<time>2025-04-29T07:01:39.000Z</time>
</trkpt>
<trkpt lat="45.9138100" lon="10.3534940">
	<ele>1318.20</ele>
	<time>2025-04-29T07:01:40.000Z</time>
</trkpt>
<trkpt lat="45.9138040" lon="10.3534950">
	<ele>1318.20</ele>
	<time>2025-04-29T07:01:41.000Z</time>
</trkpt>
<trkpt lat="45.9137990" lon="10.3534940">
	<ele>1318.40</ele>
	<time>2025-04-29T07:01:42.000Z</time>
</trkpt>
<trkpt lat="45.9137960" lon="10.3534940">
	<ele>1318.40</ele>
	<time>2025-04-29T07:01:43.000Z</time>
</trkpt>
<trkpt lat="45.9137950" lon="10.3534940">
	<ele>1318.40</ele>
	<time>2025-04-29T07:01:44.000Z</time>
</trkpt>
<trkpt lat="45.9137970" lon="10.3535060">
	<ele>1318.40</ele>
	<time>2025-04-29T07:01:45.000Z</time>
</trkpt>
<trkpt lat="45.9137960" lon="10.3535110">
	<ele>1318.40</ele>
	<time>2025-04-29T07:01:46.000Z</time>
</trkpt>
<trkpt lat="45.9137730" lon="10.3535030">
	<ele>1318.40</ele>
	<time>2025-04-29T07:01:47.000Z</time>
</trkpt>
<trkpt lat="45.9137560" lon="10.3534840">
	<ele>1318.40</ele>
	<time>2025-04-29T07:01:48.000Z</time>
</trkpt>
<trkpt lat="45.9137410" lon="10.3534730">
	<ele>1318.20</ele>
	<time>2025-04-29T07:01:49.000Z</time>
</trkpt>
<trkpt lat="45.9137360" lon="10.3534710">
	<ele>1318.20</ele>
	<time>2025-04-29T07:01:50.000Z</time>
</trkpt>
<trkpt lat="45.9137410" lon="10.3534780">
	<ele>1318.20</ele>
	<time>2025-04-29T07:01:51.000Z</time>
</trkpt>
<trkpt lat="45.9137400" lon="10.3534890">
	<ele>1318.20</ele>
	<time>2025-04-29T07:01:52.000Z</time>
</trkpt>
<trkpt lat="45.9137360" lon="10.3534920">
	<ele>1318.20</ele>
	<time>2025-04-29T07:01:53.000Z</time>
</trkpt>
<trkpt lat="45.9137370" lon="10.3535120">
	<ele>1318.40</ele>
	<time>2025-04-29T07:01:54.000Z</time>
</trkpt>
<trkpt lat="45.9137350" lon="10.3535260">
	<ele>1318.40</ele>
	<time>2025-04-29T07:01:55.000Z</time>
</trkpt>
<trkpt lat="45.9137320" lon="10.3535390">
	<ele>1318.60</ele>
	<time>2025-04-29T07:01:56.000Z</time>
</trkpt>
<trkpt lat="45.9137310" lon="10.3535480">
	<ele>1318.60</ele>
	<time>2025-04-29T07:01:57.000Z</time>
</trkpt>
<trkpt lat="45.9137240" lon="10.3535600">
	<ele>1318.80</ele>
	<time>2025-04-29T07:01:58.000Z</time>
</trkpt>
<trkpt lat="45.9137140" lon="10.3535760">
	<ele>1319.00</ele>
	<time>2025-04-29T07:01:59.000Z</time>
</trkpt>
<trkpt lat="45.9137020" lon="10.3535830">
	<ele>1319.00</ele>
	<time>2025-04-29T07:02:00.000Z</time>
</trkpt>
<trkpt lat="45.9136910" lon="10.3535940">
	<ele>1319.00</ele>
	<time>2025-04-29T07:02:01.000Z</time>
</trkpt>
<trkpt lat="45.9136860" lon="10.3536070">
	<ele>1319.00</ele>
	<time>2025-04-29T07:02:02.000Z</time>
</trkpt>
<trkpt lat="45.9136800" lon="10.3536200">
	<ele>1319.00</ele>
	<time>2025-04-29T07:02:03.000Z</time>
</trkpt>
<trkpt lat="45.9136730" lon="10.3536310">
	<ele>1319.20</ele>
	<time>2025-04-29T07:02:04.000Z</time>
</trkpt>
<trkpt lat="45.9136720" lon="10.3536360">
	<ele>1319.40</ele>
	<time>2025-04-29T07:02:05.000Z</time>
</trkpt>
<trkpt lat="45.9136860" lon="10.3536380">
	<ele>1319.40</ele>
	<time>2025-04-29T07:02:06.000Z</time>
</trkpt>
<trkpt lat="45.9136930" lon="10.3536410">
	<ele>1319.40</ele>
	<time>2025-04-29T07:02:07.000Z</time>
</trkpt>
<trkpt lat="45.9136990" lon="10.3536520">
	<ele>1319.40</ele>
	<time>2025-04-29T07:02:08.000Z</time>
</trkpt>
<trkpt lat="45.9136980" lon="10.3536600">
	<ele>1319.60</ele>
	<time>2025-04-29T07:02:09.000Z</time>
</trkpt>
<trkpt lat="45.9136980" lon="10.3536650">
	<ele>1319.60</ele>
	<time>2025-04-29T07:02:10.000Z</time>
</trkpt>
<trkpt lat="45.9136970" lon="10.3536600">
	<ele>1319.60</ele>
	<time>2025-04-29T07:02:11.000Z</time>
</trkpt>
<trkpt lat="45.9137030" lon="10.3536660">
	<ele>1319.60</ele>
	<time>2025-04-29T07:02:12.000Z</time>
</trkpt>
<trkpt lat="45.9136970" lon="10.3536810">
	<ele>1319.60</ele>
	<time>2025-04-29T07:02:13.000Z</time>
</trkpt>
<trkpt lat="45.9136840" lon="10.3536960">
	<ele>1319.80</ele>
	<time>2025-04-29T07:02:14.000Z</time>
</trkpt>
<trkpt lat="45.9136720" lon="10.3537110">
	<ele>1320.00</ele>
	<time>2025-04-29T07:02:15.000Z</time>
</trkpt>
<trkpt lat="45.9136700" lon="10.3537160">
	<ele>1320.20</ele>
	<time>2025-04-29T07:02:16.000Z</time>
</trkpt>
<trkpt lat="45.9136660" lon="10.3537370">
	<ele>1320.40</ele>
	<time>2025-04-29T07:02:17.000Z</time>
</trkpt>
<trkpt lat="45.9136580" lon="10.3537580">
	<ele>1320.40</ele>
	<time>2025-04-29T07:02:18.000Z</time>
</trkpt>
<trkpt lat="45.9136430" lon="10.3537790">
	<ele>1320.60</ele>
	<time>2025-04-29T07:02:19.000Z</time>
</trkpt>
<trkpt lat="45.9136360" lon="10.3537980">
	<ele>1320.60</ele>
	<time>2025-04-29T07:02:20.000Z</time>
</trkpt>
<trkpt lat="45.9136120" lon="10.3538040">
	<ele>1320.80</ele>
	<time>2025-04-29T07:02:21.000Z</time>
</trkpt>
<trkpt lat="45.9135820" lon="10.3538020">
	<ele>1320.80</ele>
	<time>2025-04-29T07:02:22.000Z</time>
</trkpt>
<trkpt lat="45.9135500" lon="10.3538100">
	<ele>1321.00</ele>
	<time>2025-04-29T07:02:23.000Z</time>
</trkpt>
<trkpt lat="45.9135390" lon="10.3538290">
	<ele>1321.20</ele>
	<time>2025-04-29T07:02:24.000Z</time>
</trkpt>
<trkpt lat="45.9135230" lon="10.3538410">
	<ele>1321.20</ele>
	<time>2025-04-29T07:02:25.000Z</time>
</trkpt>
<trkpt lat="45.9134990" lon="10.3538500">
	<ele>1321.40</ele>
	<time>2025-04-29T07:02:26.000Z</time>
</trkpt>
<trkpt lat="45.9134790" lon="10.3538590">
	<ele>1321.40</ele>
	<time>2025-04-29T07:02:27.000Z</time>
</trkpt>
<trkpt lat="45.9134710" lon="10.3538770">
	<ele>1321.60</ele>
	<time>2025-04-29T07:02:28.000Z</time>
</trkpt>
<trkpt lat="45.9134690" lon="10.3538950">
	<ele>1321.60</ele>
	<time>2025-04-29T07:02:29.000Z</time>
</trkpt>
<trkpt lat="45.9134570" lon="10.3539070">
	<ele>1321.60</ele>
	<time>2025-04-29T07:02:30.000Z</time>
</trkpt>
<trkpt lat="45.9134540" lon="10.3539220">
	<ele>1321.80</ele>
	<time>2025-04-29T07:02:31.000Z</time>
</trkpt>
<trkpt lat="45.9134550" lon="10.3539440">
	<ele>1322.00</ele>
	<time>2025-04-29T07:02:32.000Z</time>
</trkpt>
<trkpt lat="45.9134510" lon="10.3539650">
	<ele>1322.20</ele>
	<time>2025-04-29T07:02:33.000Z</time>
</trkpt>
<trkpt lat="45.9134580" lon="10.3539920">
	<ele>1322.20</ele>
	<time>2025-04-29T07:02:34.000Z</time>
</trkpt>
<trkpt lat="45.9134580" lon="10.3540180">
	<ele>1322.20</ele>
	<time>2025-04-29T07:02:35.000Z</time>
</trkpt>
<trkpt lat="45.9134580" lon="10.3540440">
	<ele>1322.20</ele>
	<time>2025-04-29T07:02:36.000Z</time>
</trkpt>
<trkpt lat="45.9134560" lon="10.3540670">
	<ele>1322.40</ele>
	<time>2025-04-29T07:02:37.000Z</time>
</trkpt>
<trkpt lat="45.9134530" lon="10.3540800">
	<ele>1322.60</ele>
	<time>2025-04-29T07:02:38.000Z</time>
</trkpt>
<trkpt lat="45.9134580" lon="10.3540990">
	<ele>1322.80</ele>
	<time>2025-04-29T07:02:39.000Z</time>
</trkpt>
<trkpt lat="45.9134670" lon="10.3541240">
	<ele>1322.80</ele>
	<time>2025-04-29T07:02:40.000Z</time>
</trkpt>
<trkpt lat="45.9134850" lon="10.3541580">
	<ele>1322.80</ele>
	<time>2025-04-29T07:02:41.000Z</time>
</trkpt>
<trkpt lat="45.9134940" lon="10.3541860">
	<ele>1322.80</ele>
	<time>2025-04-29T07:02:42.000Z</time>
</trkpt>
<trkpt lat="45.9134880" lon="10.3542060">
	<ele>1323.00</ele>
	<time>2025-04-29T07:02:43.000Z</time>
</trkpt>
<trkpt lat="45.9134660" lon="10.3542090">
	<ele>1323.00</ele>
	<time>2025-04-29T07:02:44.000Z</time>
</trkpt>
<trkpt lat="45.9134460" lon="10.3542110">
	<ele>1323.20</ele>
	<time>2025-04-29T07:02:45.000Z</time>
</trkpt>
<trkpt lat="45.9134370" lon="10.3542140">
	<ele>1323.40</ele>
	<time>2025-04-29T07:02:46.000Z</time>
</trkpt>
<trkpt lat="45.9134330" lon="10.3542290">
	<ele>1323.60</ele>
	<time>2025-04-29T07:02:47.000Z</time>
</trkpt>
<trkpt lat="45.9134240" lon="10.3542390">
	<ele>1323.80</ele>
	<time>2025-04-29T07:02:48.000Z</time>
</trkpt>
<trkpt lat="45.9134190" lon="10.3542450">
	<ele>1324.00</ele>
	<time>2025-04-29T07:02:49.000Z</time>
</trkpt>
<trkpt lat="45.9134170" lon="10.3542560">
	<ele>1324.00</ele>
	<time>2025-04-29T07:02:50.000Z</time>
</trkpt>
<trkpt lat="45.9134070" lon="10.3542710">
	<ele>1324.40</ele>
	<time>2025-04-29T07:02:51.000Z</time>
</trkpt>
<trkpt lat="45.9133980" lon="10.3542830">
	<ele>1324.40</ele>
	<time>2025-04-29T07:02:52.000Z</time>
</trkpt>
<trkpt lat="45.9133960" lon="10.3542940">
	<ele>1324.60</ele>
	<time>2025-04-29T07:02:53.000Z</time>
</trkpt>
<trkpt lat="45.9133930" lon="10.3543060">
	<ele>1324.60</ele>
	<time>2025-04-29T07:02:54.000Z</time>
</trkpt>
<trkpt lat="45.9133940" lon="10.3543180">
	<ele>1324.80</ele>
	<time>2025-04-29T07:02:55.000Z</time>
</trkpt>
<trkpt lat="45.9133960" lon="10.3543280">
	<ele>1324.80</ele>
	<time>2025-04-29T07:02:56.000Z</time>
</trkpt>
<trkpt lat="45.9133940" lon="10.3543390">
	<ele>1325.20</ele>
	<time>2025-04-29T07:02:57.000Z</time>
</trkpt>
<trkpt lat="45.9133900" lon="10.3543510">
	<ele>1325.40</ele>
	<time>2025-04-29T07:02:58.000Z</time>
</trkpt>
<trkpt lat="45.9133890" lon="10.3543660">
	<ele>1325.40</ele>
	<time>2025-04-29T07:02:59.000Z</time>
</trkpt>
<trkpt lat="45.9133920" lon="10.3543800">
	<ele>1325.60</ele>
	<time>2025-04-29T07:03:00.000Z</time>
</trkpt>
<trkpt lat="45.9133890" lon="10.3543920">
	<ele>1325.80</ele>
	<time>2025-04-29T07:03:01.000Z</time>
</trkpt>
<trkpt lat="45.9133810" lon="10.3544040">
	<ele>1325.80</ele>
	<time>2025-04-29T07:03:02.000Z</time>
</trkpt>
<trkpt lat="45.9133710" lon="10.3544120">
	<ele>1326.00</ele>
	<time>2025-04-29T07:03:03.000Z</time>
</trkpt>
<trkpt lat="45.9133600" lon="10.3544170">
	<ele>1326.20</ele>
	<time>2025-04-29T07:03:04.000Z</time>
</trkpt>
<trkpt lat="45.9133510" lon="10.3544240">
	<ele>1326.20</ele>
	<time>2025-04-29T07:03:05.000Z</time>
</trkpt>
<trkpt lat="45.9133440" lon="10.3544300">
	<ele>1326.40</ele>
	<time>2025-04-29T07:03:06.000Z</time>
</trkpt>
<trkpt lat="45.9133330" lon="10.3544380">
	<ele>1326.60</ele>
	<time>2025-04-29T07:03:07.000Z</time>
</trkpt>
<trkpt lat="45.9133300" lon="10.3544440">
	<ele>1326.80</ele>
	<time>2025-04-29T07:03:08.000Z</time>
</trkpt>
<trkpt lat="45.9133210" lon="10.3544500">
	<ele>1326.80</ele>
	<time>2025-04-29T07:03:09.000Z</time>
</trkpt>
<trkpt lat="45.9133060" lon="10.3544570">
	<ele>1327.00</ele>
	<time>2025-04-29T07:03:10.000Z</time>
</trkpt>
<trkpt lat="45.9132930" lon="10.3544610">
	<ele>1327.00</ele>
	<time>2025-04-29T07:03:11.000Z</time>
</trkpt>
<trkpt lat="45.9132790" lon="10.3544650">
	<ele>1327.20</ele>
	<time>2025-04-29T07:03:12.000Z</time>
</trkpt>
<trkpt lat="45.9132700" lon="10.3544760">
	<ele>1327.40</ele>
	<time>2025-04-29T07:03:13.000Z</time>
</trkpt>
<trkpt lat="45.9132650" lon="10.3544920">
	<ele>1327.60</ele>
	<time>2025-04-29T07:03:14.000Z</time>
</trkpt>
<trkpt lat="45.9132630" lon="10.3545100">
	<ele>1327.60</ele>
	<time>2025-04-29T07:03:15.000Z</time>
</trkpt>
<trkpt lat="45.9132590" lon="10.3545310">
	<ele>1327.80</ele>
	<time>2025-04-29T07:03:16.000Z</time>
</trkpt>
<trkpt lat="45.9132540" lon="10.3545460">
	<ele>1328.00</ele>
	<time>2025-04-29T07:03:17.000Z</time>
</trkpt>
<trkpt lat="45.9132450" lon="10.3545560">
	<ele>1328.20</ele>
	<time>2025-04-29T07:03:18.000Z</time>
</trkpt>
<trkpt lat="45.9132380" lon="10.3545610">
	<ele>1328.40</ele>
	<time>2025-04-29T07:03:19.000Z</time>
</trkpt>
<trkpt lat="45.9132350" lon="10.3545780">
	<ele>1328.40</ele>
	<time>2025-04-29T07:03:20.000Z</time>
</trkpt>
<trkpt lat="45.9132270" lon="10.3545910">
	<ele>1328.60</ele>
	<time>2025-04-29T07:03:21.000Z</time>
</trkpt>
<trkpt lat="45.9132280" lon="10.3546080">
	<ele>1328.60</ele>
	<time>2025-04-29T07:03:22.000Z</time>
</trkpt>
<trkpt lat="45.9132280" lon="10.3546190">
	<ele>1328.80</ele>
	<time>2025-04-29T07:03:23.000Z</time>
</trkpt>
<trkpt lat="45.9132230" lon="10.3546240">
	<ele>1329.20</ele>
	<time>2025-04-29T07:03:24.000Z</time>
</trkpt>
<trkpt lat="45.9132080" lon="10.3546350">
	<ele>1329.20</ele>
	<time>2025-04-29T07:03:25.000Z</time>
</trkpt>
<trkpt lat="45.9131980" lon="10.3546540">
	<ele>1329.40</ele>
	<time>2025-04-29T07:03:26.000Z</time>
</trkpt>
<trkpt lat="45.9131840" lon="10.3546670">
	<ele>1329.60</ele>
	<time>2025-04-29T07:03:27.000Z</time>
</trkpt>
<trkpt lat="45.9131660" lon="10.3546760">
	<ele>1329.80</ele>
	<time>2025-04-29T07:03:28.000Z</time>
</trkpt>
<trkpt lat="45.9131550" lon="10.3546860">
	<ele>1329.80</ele>
	<time>2025-04-29T07:03:29.000Z</time>
</trkpt>
<trkpt lat="45.9131520" lon="10.3547000">
	<ele>1330.00</ele>
	<time>2025-04-29T07:03:30.000Z</time>
</trkpt>
<trkpt lat="45.9131400" lon="10.3547070">
	<ele>1330.00</ele>
	<time>2025-04-29T07:03:31.000Z</time>
</trkpt>
<trkpt lat="45.9131340" lon="10.3547140">
	<ele>1330.00</ele>
	<time>2025-04-29T07:03:32.000Z</time>
</trkpt>
<trkpt lat="45.9131330" lon="10.3547270">
	<ele>1330.20</ele>
	<time>2025-04-29T07:03:33.000Z</time>
</trkpt>
<trkpt lat="45.9131380" lon="10.3547450">
	<ele>1330.20</ele>
	<time>2025-04-29T07:03:34.000Z</time>
</trkpt>
<trkpt lat="45.9131400" lon="10.3547570">
	<ele>1330.20</ele>
	<time>2025-04-29T07:03:35.000Z</time>
</trkpt>
<trkpt lat="45.9131300" lon="10.3547740">
	<ele>1330.40</ele>
	<time>2025-04-29T07:03:36.000Z</time>
</trkpt>
<trkpt lat="45.9131210" lon="10.3547760">
	<ele>1330.40</ele>
	<time>2025-04-29T07:03:37.000Z</time>
</trkpt>
<trkpt lat="45.9131090" lon="10.3547870">
	<ele>1330.60</ele>
	<time>2025-04-29T07:03:38.000Z</time>
</trkpt>
<trkpt lat="45.9131050" lon="10.3547990">
	<ele>1330.80</ele>
	<time>2025-04-29T07:03:39.000Z</time>
</trkpt>
<trkpt lat="45.9131000" lon="10.3548100">
	<ele>1330.80</ele>
	<time>2025-04-29T07:03:40.000Z</time>
</trkpt>
<trkpt lat="45.9130910" lon="10.3548160">
	<ele>1331.00</ele>
	<time>2025-04-29T07:03:41.000Z</time>
</trkpt>
<trkpt lat="45.9130760" lon="10.3548170">
	<ele>1331.20</ele>
	<time>2025-04-29T07:03:42.000Z</time>
</trkpt>
<trkpt lat="45.9130600" lon="10.3548180">
	<ele>1331.20</ele>
	<time>2025-04-29T07:03:43.000Z</time>
</trkpt>
<trkpt lat="45.9130400" lon="10.3548280">
	<ele>1331.40</ele>
	<time>2025-04-29T07:03:44.000Z</time>
</trkpt>
<trkpt lat="45.9130270" lon="10.3548320">
	<ele>1331.40</ele>
	<time>2025-04-29T07:03:45.000Z</time>
</trkpt>
<trkpt lat="45.9130130" lon="10.3548340">
	<ele>1331.60</ele>
	<time>2025-04-29T07:03:46.000Z</time>
</trkpt>
<trkpt lat="45.9130030" lon="10.3548410">
	<ele>1331.60</ele>
	<time>2025-04-29T07:03:47.000Z</time>
</trkpt>
<trkpt lat="45.9129980" lon="10.3548560">
	<ele>1331.80</ele>
	<time>2025-04-29T07:03:48.000Z</time>
</trkpt>
<trkpt lat="45.9129890" lon="10.3548680">
	<ele>1331.80</ele>
	<time>2025-04-29T07:03:49.000Z</time>
</trkpt>
<trkpt lat="45.9129790" lon="10.3548730">
	<ele>1332.00</ele>
	<time>2025-04-29T07:03:50.000Z</time>
</trkpt>
<trkpt lat="45.9129660" lon="10.3548770">
	<ele>1332.00</ele>
	<time>2025-04-29T07:03:51.000Z</time>
</trkpt>
<trkpt lat="45.9129560" lon="10.3548830">
	<ele>1332.00</ele>
	<time>2025-04-29T07:03:52.000Z</time>
</trkpt>
<trkpt lat="45.9129440" lon="10.3548820">
	<ele>1332.00</ele>
	<time>2025-04-29T07:03:53.000Z</time>
</trkpt>
<trkpt lat="45.9129210" lon="10.3548810">
	<ele>1332.20</ele>
	<time>2025-04-29T07:03:54.000Z</time>
</trkpt>
<trkpt lat="45.9129020" lon="10.3548840">
	<ele>1332.20</ele>
	<time>2025-04-29T07:03:55.000Z</time>
</trkpt>
<trkpt lat="45.9129000" lon="10.3549000">
	<ele>1332.20</ele>
	<time>2025-04-29T07:03:56.000Z</time>
</trkpt>
<trkpt lat="45.9129000" lon="10.3549210">
	<ele>1332.40</ele>
	<time>2025-04-29T07:03:57.000Z</time>
</trkpt>
<trkpt lat="45.9128930" lon="10.3549390">
	<ele>1332.60</ele>
	<time>2025-04-29T07:03:58.000Z</time>
</trkpt>
<trkpt lat="45.9128890" lon="10.3549690">
	<ele>1332.80</ele>
	<time>2025-04-29T07:03:59.000Z</time>
</trkpt>
<trkpt lat="45.9128860" lon="10.3549950">
	<ele>1332.80</ele>
	<time>2025-04-29T07:04:00.000Z</time>
</trkpt>
<trkpt lat="45.9128800" lon="10.3550160">
	<ele>1333.00</ele>
	<time>2025-04-29T07:04:01.000Z</time>
</trkpt>
<trkpt lat="45.9128650" lon="10.3550240">
	<ele>1333.00</ele>
	<time>2025-04-29T07:04:02.000Z</time>
</trkpt>
<trkpt lat="45.9128520" lon="10.3550340">
	<ele>1333.20</ele>
	<time>2025-04-29T07:04:03.000Z</time>
</trkpt>
<trkpt lat="45.9128400" lon="10.3550450">
	<ele>1333.20</ele>
	<time>2025-04-29T07:04:04.000Z</time>
</trkpt>
<trkpt lat="45.9128290" lon="10.3550580">
	<ele>1333.40</ele>
	<time>2025-04-29T07:04:05.000Z</time>
</trkpt>
<trkpt lat="45.9128230" lon="10.3550710">
	<ele>1333.40</ele>
	<time>2025-04-29T07:04:06.000Z</time>
</trkpt>
<trkpt lat="45.9128220" lon="10.3550800">
	<ele>1333.60</ele>
	<time>2025-04-29T07:04:07.000Z</time>
</trkpt>
<trkpt lat="45.9128130" lon="10.3550840">
	<ele>1333.60</ele>
	<time>2025-04-29T07:04:08.000Z</time>
</trkpt>
<trkpt lat="45.9128060" lon="10.3550920">
	<ele>1333.60</ele>
	<time>2025-04-29T07:04:09.000Z</time>
</trkpt>
<trkpt lat="45.9127970" lon="10.3550990">
	<ele>1333.80</ele>
	<time>2025-04-29T07:04:10.000Z</time>
</trkpt>
<trkpt lat="45.9127850" lon="10.3551000">
	<ele>1334.00</ele>
	<time>2025-04-29T07:04:11.000Z</time>
</trkpt>
<trkpt lat="45.9127800" lon="10.3551020">
	<ele>1334.00</ele>
	<time>2025-04-29T07:04:12.000Z</time>
</trkpt>
<trkpt lat="45.9127730" lon="10.3551120">
	<ele>1334.20</ele>
	<time>2025-04-29T07:04:13.000Z</time>
</trkpt>
<trkpt lat="45.9127650" lon="10.3551230">
	<ele>1334.20</ele>
	<time>2025-04-29T07:04:14.000Z</time>
</trkpt>
<trkpt lat="45.9127580" lon="10.3551360">
	<ele>1334.20</ele>
	<time>2025-04-29T07:04:15.000Z</time>
</trkpt>
<trkpt lat="45.9127470" lon="10.3551500">
	<ele>1334.20</ele>
	<time>2025-04-29T07:04:16.000Z</time>
</trkpt>
<trkpt lat="45.9127360" lon="10.3551550">
	<ele>1334.40</ele>
	<time>2025-04-29T07:04:17.000Z</time>
</trkpt>
<trkpt lat="45.9127300" lon="10.3551610">
	<ele>1334.60</ele>
	<time>2025-04-29T07:04:18.000Z</time>
</trkpt>
<trkpt lat="45.9127220" lon="10.3551740">
	<ele>1334.60</ele>
	<time>2025-04-29T07:04:19.000Z</time>
</trkpt>
<trkpt lat="45.9127110" lon="10.3551850">
	<ele>1334.80</ele>
	<time>2025-04-29T07:04:20.000Z</time>
</trkpt>
<trkpt lat="45.9127060" lon="10.3551860">
	<ele>1334.80</ele>
	<time>2025-04-29T07:04:21.000Z</time>
</trkpt>
<trkpt lat="45.9126870" lon="10.3551850">
	<ele>1335.20</ele>
	<time>2025-04-29T07:04:22.000Z</time>
</trkpt>
<trkpt lat="45.9126770" lon="10.3551910">
	<ele>1335.20</ele>
	<time>2025-04-29T07:04:23.000Z</time>
</trkpt>
<trkpt lat="45.9126610" lon="10.3551980">
	<ele>1335.40</ele>
	<time>2025-04-29T07:04:24.000Z</time>
</trkpt>
<trkpt lat="45.9126410" lon="10.3552080">
	<ele>1335.60</ele>
	<time>2025-04-29T07:04:25.000Z</time>
</trkpt>
<trkpt lat="45.9126350" lon="10.3552300">
	<ele>1335.80</ele>
	<time>2025-04-29T07:04:26.000Z</time>
</trkpt>
<trkpt lat="45.9126350" lon="10.3552420">
	<ele>1336.00</ele>
	<time>2025-04-29T07:04:27.000Z</time>
</trkpt>
<trkpt lat="45.9126300" lon="10.3552470">
	<ele>1336.00</ele>
	<time>2025-04-29T07:04:28.000Z</time>
</trkpt>
<trkpt lat="45.9126210" lon="10.3552520">
	<ele>1336.00</ele>
	<time>2025-04-29T07:04:29.000Z</time>
</trkpt>
<trkpt lat="45.9126070" lon="10.3552570">
	<ele>1336.20</ele>
	<time>2025-04-29T07:04:30.000Z</time>
</trkpt>
<trkpt lat="45.9125840" lon="10.3552620">
	<ele>1336.40</ele>
	<time>2025-04-29T07:04:31.000Z</time>
</trkpt>
<trkpt lat="45.9125740" lon="10.3552720">
	<ele>1336.60</ele>
	<time>2025-04-29T07:04:32.000Z</time>
</trkpt>
<trkpt lat="45.9125650" lon="10.3552840">
	<ele>1336.60</ele>
	<time>2025-04-29T07:04:33.000Z</time>
</trkpt>
<trkpt lat="45.9125530" lon="10.3552910">
	<ele>1336.80</ele>
	<time>2025-04-29T07:04:34.000Z</time>
</trkpt>
<trkpt lat="45.9125360" lon="10.3552960">
	<ele>1337.00</ele>
	<time>2025-04-29T07:04:35.000Z</time>
</trkpt>
<trkpt lat="45.9125230" lon="10.3553020">
	<ele>1337.00</ele>
	<time>2025-04-29T07:04:36.000Z</time>
</trkpt>
<trkpt lat="45.9125080" lon="10.3552860">
	<ele>1337.20</ele>
	<time>2025-04-29T07:04:37.000Z</time>
</trkpt>
<trkpt lat="45.9124950" lon="10.3552850">
	<ele>1337.60</ele>
	<time>2025-04-29T07:04:38.000Z</time>
</trkpt>
<trkpt lat="45.9124850" lon="10.3552900">
	<ele>1337.80</ele>
	<time>2025-04-29T07:04:39.000Z</time>
</trkpt>
<trkpt lat="45.9124730" lon="10.3552950">
	<ele>1338.00</ele>
	<time>2025-04-29T07:04:40.000Z</time>
</trkpt>
<trkpt lat="45.9124670" lon="10.3553080">
	<ele>1338.20</ele>
	<time>2025-04-29T07:04:41.000Z</time>
</trkpt>
<trkpt lat="45.9124610" lon="10.3553230">
	<ele>1338.40</ele>
	<time>2025-04-29T07:04:42.000Z</time>
</trkpt>
<trkpt lat="45.9124520" lon="10.3553290">
	<ele>1338.60</ele>
	<time>2025-04-29T07:04:43.000Z</time>
</trkpt>
<trkpt lat="45.9124440" lon="10.3553320">
	<ele>1338.80</ele>
	<time>2025-04-29T07:04:44.000Z</time>
</trkpt>
<trkpt lat="45.9124380" lon="10.3553360">
	<ele>1339.00</ele>
	<time>2025-04-29T07:04:45.000Z</time>
</trkpt>
<trkpt lat="45.9124230" lon="10.3553360">
	<ele>1339.00</ele>
	<time>2025-04-29T07:04:46.000Z</time>
</trkpt>
<trkpt lat="45.9124130" lon="10.3553390">
	<ele>1339.20</ele>
	<time>2025-04-29T07:04:47.000Z</time>
</trkpt>
<trkpt lat="45.9124050" lon="10.3553490">
	<ele>1339.20</ele>
	<time>2025-04-29T07:04:48.000Z</time>
</trkpt>
<trkpt lat="45.9123950" lon="10.3553570">
	<ele>1339.40</ele>
	<time>2025-04-29T07:04:49.000Z</time>
</trkpt>
<trkpt lat="45.9123890" lon="10.3553720">
	<ele>1339.40</ele>
	<time>2025-04-29T07:04:50.000Z</time>
</trkpt>
<trkpt lat="45.9123880" lon="10.3553910">
	<ele>1339.60</ele>
	<time>2025-04-29T07:04:51.000Z</time>
</trkpt>
<trkpt lat="45.9123870" lon="10.3554050">
	<ele>1340.00</ele>
	<time>2025-04-29T07:04:52.000Z</time>
</trkpt>
<trkpt lat="45.9123780" lon="10.3554110">
	<ele>1340.00</ele>
	<time>2025-04-29T07:04:53.000Z</time>
</trkpt>
<trkpt lat="45.9123770" lon="10.3554240">
	<ele>1340.20</ele>
	<time>2025-04-29T07:04:54.000Z</time>
</trkpt>
<trkpt lat="45.9123770" lon="10.3554320">
	<ele>1340.20</ele>
	<time>2025-04-29T07:04:55.000Z</time>
</trkpt>
<trkpt lat="45.9123780" lon="10.3554440">
	<ele>1340.40</ele>
	<time>2025-04-29T07:04:56.000Z</time>
</trkpt>
<trkpt lat="45.9123890" lon="10.3554550">
	<ele>1340.80</ele>
	<time>2025-04-29T07:04:57.000Z</time>
</trkpt>
<trkpt lat="45.9123910" lon="10.3554640">
	<ele>1341.00</ele>
	<time>2025-04-29T07:04:58.000Z</time>
</trkpt>
<trkpt lat="45.9123810" lon="10.3554690">
	<ele>1341.20</ele>
	<time>2025-04-29T07:04:59.000Z</time>
</trkpt>
<trkpt lat="45.9123650" lon="10.3554750">
	<ele>1341.40</ele>
	<time>2025-04-29T07:05:00.000Z</time>
</trkpt>
<trkpt lat="45.9123930" lon="10.3554600">
	<ele>1341.80</ele>
	<time>2025-04-29T07:05:01.000Z</time>
</trkpt>
<trkpt lat="45.9123910" lon="10.3554590">
	<ele>1341.80</ele>
	<time>2025-04-29T07:05:02.000Z</time>
</trkpt>
<trkpt lat="45.9123860" lon="10.3554650">
	<ele>1342.00</ele>
	<time>2025-04-29T07:05:03.000Z</time>
</trkpt>
<trkpt lat="45.9123850" lon="10.3554750">
	<ele>1342.00</ele>
	<time>2025-04-29T07:05:04.000Z</time>
</trkpt>
<trkpt lat="45.9123810" lon="10.3554840">
	<ele>1342.20</ele>
	<time>2025-04-29T07:05:05.000Z</time>
</trkpt>
<trkpt lat="45.9123830" lon="10.3554910">
	<ele>1342.40</ele>
	<time>2025-04-29T07:05:06.000Z</time>
</trkpt>
<trkpt lat="45.9123800" lon="10.3554970">
	<ele>1342.60</ele>
	<time>2025-04-29T07:05:07.000Z</time>
</trkpt>
<trkpt lat="45.9123720" lon="10.3555030">
	<ele>1342.80</ele>
	<time>2025-04-29T07:05:08.000Z</time>
</trkpt>
<trkpt lat="45.9123660" lon="10.3555130">
	<ele>1342.80</ele>
	<time>2025-04-29T07:05:09.000Z</time>
</trkpt>
<trkpt lat="45.9123620" lon="10.3555220">
	<ele>1343.00</ele>
	<time>2025-04-29T07:05:10.000Z</time>
</trkpt>
<trkpt lat="45.9123550" lon="10.3555310">
	<ele>1343.20</ele>
	<time>2025-04-29T07:05:11.000Z</time>
</trkpt>
<trkpt lat="45.9123440" lon="10.3555380">
	<ele>1343.20</ele>
	<time>2025-04-29T07:05:12.000Z</time>
</trkpt>
<trkpt lat="45.9123370" lon="10.3555400">
	<ele>1343.40</ele>
	<time>2025-04-29T07:05:13.000Z</time>
</trkpt>
<trkpt lat="45.9123280" lon="10.3555420">
	<ele>1343.40</ele>
	<time>2025-04-29T07:05:14.000Z</time>
</trkpt>
<trkpt lat="45.9123200" lon="10.3555490">
	<ele>1343.60</ele>
	<time>2025-04-29T07:05:15.000Z</time>
</trkpt>
<trkpt lat="45.9123140" lon="10.3555580">
	<ele>1343.80</ele>
	<time>2025-04-29T07:05:16.000Z</time>
</trkpt>
<trkpt lat="45.9122950" lon="10.3555650">
	<ele>1344.00</ele>
	<time>2025-04-29T07:05:17.000Z</time>
</trkpt>
<trkpt lat="45.9122800" lon="10.3555750">
	<ele>1344.20</ele>
	<time>2025-04-29T07:05:18.000Z</time>
</trkpt>
<trkpt lat="45.9122710" lon="10.3555880">
	<ele>1344.20</ele>
	<time>2025-04-29T07:05:19.000Z</time>
</trkpt>
<trkpt lat="45.9122730" lon="10.3556120">
	<ele>1344.40</ele>
	<time>2025-04-29T07:05:20.000Z</time>
</trkpt>
<trkpt lat="45.9122760" lon="10.3556330">
	<ele>1344.60</ele>
	<time>2025-04-29T07:05:21.000Z</time>
</trkpt>
<trkpt lat="45.9122730" lon="10.3556550">
	<ele>1344.80</ele>
	<time>2025-04-29T07:05:22.000Z</time>
</trkpt>
<trkpt lat="45.9122670" lon="10.3556720">
	<ele>1345.00</ele>
	<time>2025-04-29T07:05:23.000Z</time>
</trkpt>
<trkpt lat="45.9122610" lon="10.3556770">
	<ele>1345.20</ele>
	<time>2025-04-29T07:05:24.000Z</time>
</trkpt>
<trkpt lat="45.9122470" lon="10.3556820">
	<ele>1345.40</ele>
	<time>2025-04-29T07:05:25.000Z</time>
</trkpt>
<trkpt lat="45.9122350" lon="10.3556870">
	<ele>1345.40</ele>
	<time>2025-04-29T07:05:26.000Z</time>
</trkpt>
<trkpt lat="45.9122250" lon="10.3556930">
	<ele>1345.60</ele>
	<time>2025-04-29T07:05:27.000Z</time>
</trkpt>
<trkpt lat="45.9122150" lon="10.3557040">
	<ele>1345.60</ele>
	<time>2025-04-29T07:05:28.000Z</time>
</trkpt>
<trkpt lat="45.9122100" lon="10.3557170">
	<ele>1345.60</ele>
	<time>2025-04-29T07:05:29.000Z</time>
</trkpt>
<trkpt lat="45.9122000" lon="10.3557260">
	<ele>1345.80</ele>
	<time>2025-04-29T07:05:30.000Z</time>
</trkpt>
<trkpt lat="45.9121910" lon="10.3557350">
	<ele>1346.00</ele>
	<time>2025-04-29T07:05:31.000Z</time>
</trkpt>
<trkpt lat="45.9121820" lon="10.3557430">
	<ele>1346.20</ele>
	<time>2025-04-29T07:05:32.000Z</time>
</trkpt>
<trkpt lat="45.9121800" lon="10.3557490">
	<ele>1346.40</ele>
	<time>2025-04-29T07:05:33.000Z</time>
</trkpt>
<trkpt lat="45.9121790" lon="10.3557640">
	<ele>1346.40</ele>
	<time>2025-04-29T07:05:34.000Z</time>
</trkpt>
<trkpt lat="45.9121620" lon="10.3557730">
	<ele>1346.60</ele>
	<time>2025-04-29T07:05:35.000Z</time>
</trkpt>
<trkpt lat="45.9121530" lon="10.3557800">
	<ele>1346.80</ele>
	<time>2025-04-29T07:05:36.000Z</time>
</trkpt>
<trkpt lat="45.9121390" lon="10.3557840">
	<ele>1347.00</ele>
	<time>2025-04-29T07:05:37.000Z</time>
</trkpt>
<trkpt lat="45.9121330" lon="10.3557900">
	<ele>1347.20</ele>
	<time>2025-04-29T07:05:38.000Z</time>
</trkpt>
<trkpt lat="45.9121320" lon="10.3558000">
	<ele>1347.40</ele>
	<time>2025-04-29T07:05:39.000Z</time>
</trkpt>
<trkpt lat="45.9121240" lon="10.3558100">
	<ele>1347.60</ele>
	<time>2025-04-29T07:05:40.000Z</time>
</trkpt>
<trkpt lat="45.9121060" lon="10.3558140">
	<ele>1347.80</ele>
	<time>2025-04-29T07:05:41.000Z</time>
</trkpt>
<trkpt lat="45.9120950" lon="10.3558270">
	<ele>1348.20</ele>
	<time>2025-04-29T07:05:42.000Z</time>
</trkpt>
<trkpt lat="45.9120870" lon="10.3558430">
	<ele>1348.40</ele>
	<time>2025-04-29T07:05:43.000Z</time>
</trkpt>
<trkpt lat="45.9120710" lon="10.3558580">
	<ele>1348.60</ele>
	<time>2025-04-29T07:05:44.000Z</time>
</trkpt>
<trkpt lat="45.9120620" lon="10.3558810">
	<ele>1348.80</ele>
	<time>2025-04-29T07:05:45.000Z</time>
</trkpt>
<trkpt lat="45.9120640" lon="10.3559060">
	<ele>1349.00</ele>
	<time>2025-04-29T07:05:46.000Z</time>
</trkpt>
<trkpt lat="45.9120720" lon="10.3559360">
	<ele>1349.20</ele>
	<time>2025-04-29T07:05:47.000Z</time>
</trkpt>
<trkpt lat="45.9120650" lon="10.3559520">
	<ele>1349.40</ele>
	<time>2025-04-29T07:05:48.000Z</time>
</trkpt>
<trkpt lat="45.9120580" lon="10.3559590">
	<ele>1349.40</ele>
	<time>2025-04-29T07:05:49.000Z</time>
</trkpt>
<trkpt lat="45.9120540" lon="10.3559690">
	<ele>1349.60</ele>
	<time>2025-04-29T07:05:50.000Z</time>
</trkpt>
<trkpt lat="45.9120500" lon="10.3559770">
	<ele>1349.80</ele>
	<time>2025-04-29T07:05:51.000Z</time>
</trkpt>
<trkpt lat="45.9120560" lon="10.3559940">
	<ele>1349.80</ele>
	<time>2025-04-29T07:05:52.000Z</time>
</trkpt>
<trkpt lat="45.9120530" lon="10.3560090">
	<ele>1350.00</ele>
	<time>2025-04-29T07:05:53.000Z</time>
</trkpt>
<trkpt lat="45.9120510" lon="10.3560170">
	<ele>1350.20</ele>
	<time>2025-04-29T07:05:54.000Z</time>
</trkpt>
<trkpt lat="45.9120380" lon="10.3560240">
	<ele>1350.40</ele>
	<time>2025-04-29T07:05:55.000Z</time>
</trkpt>
<trkpt lat="45.9120340" lon="10.3560350">
	<ele>1350.60</ele>
	<time>2025-04-29T07:05:56.000Z</time>
</trkpt>
<trkpt lat="45.9120270" lon="10.3560420">
	<ele>1351.00</ele>
	<time>2025-04-29T07:05:57.000Z</time>
</trkpt>
<trkpt lat="45.9120060" lon="10.3560360">
	<ele>1351.00</ele>
	<time>2025-04-29T07:05:58.000Z</time>
</trkpt>
<trkpt lat="45.9119660" lon="10.3560210">
	<ele>1351.20</ele>
	<time>2025-04-29T07:05:59.000Z</time>
</trkpt>
<trkpt lat="45.9119470" lon="10.3560210">
	<ele>1351.40</ele>
	<time>2025-04-29T07:06:00.000Z</time>
</trkpt>
<trkpt lat="45.9119460" lon="10.3560340">
	<ele>1351.60</ele>
	<time>2025-04-29T07:06:01.000Z</time>
</trkpt>
<trkpt lat="45.9119480" lon="10.3560550">
	<ele>1351.60</ele>
	<time>2025-04-29T07:06:02.000Z</time>
</trkpt>
<trkpt lat="45.9119500" lon="10.3560660">
	<ele>1351.80</ele>
	<time>2025-04-29T07:06:03.000Z</time>
</trkpt>
<trkpt lat="45.9119380" lon="10.3560660">
	<ele>1352.00</ele>
	<time>2025-04-29T07:06:04.000Z</time>
</trkpt>
<trkpt lat="45.9119290" lon="10.3560780">
	<ele>1352.20</ele>
	<time>2025-04-29T07:06:05.000Z</time>
</trkpt>
<trkpt lat="45.9119230" lon="10.3560920">
	<ele>1352.40</ele>
	<time>2025-04-29T07:06:06.000Z</time>
</trkpt>
<trkpt lat="45.9119160" lon="10.3561050">
	<ele>1352.60</ele>
	<time>2025-04-29T07:06:07.000Z</time>
</trkpt>
<trkpt lat="45.9119210" lon="10.3561180">
	<ele>1352.80</ele>
	<time>2025-04-29T07:06:08.000Z</time>
</trkpt>
<trkpt lat="45.9119230" lon="10.3561290">
	<ele>1353.00</ele>
	<time>2025-04-29T07:06:09.000Z</time>
</trkpt>
<trkpt lat="45.9119360" lon="10.3561420">
	<ele>1353.00</ele>
	<time>2025-04-29T07:06:10.000Z</time>
</trkpt>
<trkpt lat="45.9119290" lon="10.3561460">
	<ele>1353.20</ele>
	<time>2025-04-29T07:06:11.000Z</time>
</trkpt>
<trkpt lat="45.9119150" lon="10.3561460">
	<ele>1353.40</ele>
	<time>2025-04-29T07:06:12.000Z</time>
</trkpt>
<trkpt lat="45.9119120" lon="10.3561490">
	<ele>1353.60</ele>
	<time>2025-04-29T07:06:13.000Z</time>
</trkpt>
<trkpt lat="45.9118940" lon="10.3561500">
	<ele>1353.80</ele>
	<time>2025-04-29T07:06:14.000Z</time>
</trkpt>
<trkpt lat="45.9118810" lon="10.3561530">
	<ele>1353.80</ele>
	<time>2025-04-29T07:06:15.000Z</time>
</trkpt>
<trkpt lat="45.9118720" lon="10.3561550">
	<ele>1354.00</ele>
	<time>2025-04-29T07:06:16.000Z</time>
</trkpt>
<trkpt lat="45.9118580" lon="10.3561600">
	<ele>1354.20</ele>
	<time>2025-04-29T07:06:17.000Z</time>
</trkpt>
<trkpt lat="45.9118550" lon="10.3561720">
	<ele>1354.40</ele>
	<time>2025-04-29T07:06:18.000Z</time>
</trkpt>
<trkpt lat="45.9118520" lon="10.3561800">
	<ele>1354.60</ele>
	<time>2025-04-29T07:06:19.000Z</time>
</trkpt>
<trkpt lat="45.9118470" lon="10.3561900">
	<ele>1354.80</ele>
	<time>2025-04-29T07:06:20.000Z</time>
</trkpt>
<trkpt lat="45.9118420" lon="10.3561970">
	<ele>1355.00</ele>
	<time>2025-04-29T07:06:21.000Z</time>
</trkpt>
<trkpt lat="45.9118340" lon="10.3562060">
	<ele>1355.20</ele>
	<time>2025-04-29T07:06:22.000Z</time>
</trkpt>
<trkpt lat="45.9118300" lon="10.3562160">
	<ele>1355.40</ele>
	<time>2025-04-29T07:06:23.000Z</time>
</trkpt>
<trkpt lat="45.9118320" lon="10.3562300">
	<ele>1355.60</ele>
	<time>2025-04-29T07:06:24.000Z</time>
</trkpt>
<trkpt lat="45.9118330" lon="10.3562430">
	<ele>1355.80</ele>
	<time>2025-04-29T07:06:25.000Z</time>
</trkpt>
<trkpt lat="45.9118370" lon="10.3562590">
	<ele>1355.80</ele>
	<time>2025-04-29T07:06:26.000Z</time>
</trkpt>
<trkpt lat="45.9118380" lon="10.3562750">
	<ele>1355.80</ele>
	<time>2025-04-29T07:06:27.000Z</time>
</trkpt>
<trkpt lat="45.9118380" lon="10.3562870">
	<ele>1356.20</ele>
	<time>2025-04-29T07:06:28.000Z</time>
</trkpt>
<trkpt lat="45.9118260" lon="10.3562900">
	<ele>1356.40</ele>
	<time>2025-04-29T07:06:29.000Z</time>
</trkpt>
<trkpt lat="45.9118180" lon="10.3562910">
	<ele>1356.40</ele>
	<time>2025-04-29T07:06:30.000Z</time>
</trkpt>
<trkpt lat="45.9118070" lon="10.3562910">
	<ele>1356.60</ele>
	<time>2025-04-29T07:06:31.000Z</time>
</trkpt>
<trkpt lat="45.9118030" lon="10.3562990">
	<ele>1356.80</ele>
	<time>2025-04-29T07:06:32.000Z</time>
</trkpt>
<trkpt lat="45.9118080" lon="10.3563110">
	<ele>1357.00</ele>
	<time>2025-04-29T07:06:33.000Z</time>
</trkpt>
<trkpt lat="45.9118000" lon="10.3563210">
	<ele>1357.00</ele>
	<time>2025-04-29T07:06:34.000Z</time>
</trkpt>
<trkpt lat="45.9117950" lon="10.3563210">
	<ele>1357.00</ele>
	<time>2025-04-29T07:06:35.000Z</time>
</trkpt>
<trkpt lat="45.9117950" lon="10.3563240">
	<ele>1357.20</ele>
	<time>2025-04-29T07:06:36.000Z</time>
</trkpt>
<trkpt lat="45.9118030" lon="10.3563270">
	<ele>1357.20</ele>
	<time>2025-04-29T07:06:37.000Z</time>
</trkpt>
<trkpt lat="45.9118110" lon="10.3563320">
	<ele>1357.40</ele>
	<time>2025-04-29T07:06:38.000Z</time>
</trkpt>
<trkpt lat="45.9118130" lon="10.3563340">
	<ele>1357.40</ele>
	<time>2025-04-29T07:06:39.000Z</time>
</trkpt>
<trkpt lat="45.9118160" lon="10.3563360">
	<ele>1357.60</ele>
	<time>2025-04-29T07:06:40.000Z</time>
</trkpt>
<trkpt lat="45.9118190" lon="10.3563390">
	<ele>1357.60</ele>
	<time>2025-04-29T07:06:41.000Z</time>
</trkpt>
<trkpt lat="45.9118190" lon="10.3563390">
	<ele>1357.60</ele>
	<time>2025-04-29T07:06:42.000Z</time>
</trkpt>
<trkpt lat="45.9118210" lon="10.3563390">
	<ele>1357.60</ele>
	<time>2025-04-29T07:06:43.000Z</time>
</trkpt>
<trkpt lat="45.9118290" lon="10.3563480">
	<ele>1357.60</ele>
	<time>2025-04-29T07:06:44.000Z</time>
</trkpt>
<trkpt lat="45.9118300" lon="10.3563520">
	<ele>1357.60</ele>
	<time>2025-04-29T07:06:45.000Z</time>
</trkpt>
<trkpt lat="45.9118340" lon="10.3563540">
	<ele>1357.60</ele>
	<time>2025-04-29T07:06:46.000Z</time>
</trkpt>
<trkpt lat="45.9118320" lon="10.3563560">
	<ele>1357.60</ele>
	<time>2025-04-29T07:06:47.000Z</time>
</trkpt>
<trkpt lat="45.9118330" lon="10.3563570">
	<ele>1357.60</ele>
	<time>2025-04-29T07:06:48.000Z</time>
</trkpt>
<trkpt lat="45.9118280" lon="10.3563580">
	<ele>1357.60</ele>
	<time>2025-04-29T07:06:49.000Z</time>
</trkpt>
<trkpt lat="45.9118310" lon="10.3563650">
	<ele>1357.60</ele>
	<time>2025-04-29T07:06:50.000Z</time>
</trkpt>
<trkpt lat="45.9118320" lon="10.3563630">
	<ele>1357.80</ele>
	<time>2025-04-29T07:06:51.000Z</time>
</trkpt>
<trkpt lat="45.9118340" lon="10.3563620">
	<ele>1357.80</ele>
	<time>2025-04-29T07:06:52.000Z</time>
</trkpt>
<trkpt lat="45.9118360" lon="10.3563600">
	<ele>1357.80</ele>
	<time>2025-04-29T07:06:53.000Z</time>
</trkpt>
<trkpt lat="45.9118380" lon="10.3563600">
	<ele>1357.80</ele>
	<time>2025-04-29T07:06:54.000Z</time>
</trkpt>
<trkpt lat="45.9118410" lon="10.3563610">
	<ele>1357.80</ele>
	<time>2025-04-29T07:06:55.000Z</time>
</trkpt>
<trkpt lat="45.9118400" lon="10.3563640">
	<ele>1357.80</ele>
	<time>2025-04-29T07:06:56.000Z</time>
</trkpt>
<trkpt lat="45.9118380" lon="10.3563640">
	<ele>1357.80</ele>
	<time>2025-04-29T07:06:57.000Z</time>
</trkpt>
<trkpt lat="45.9118390" lon="10.3563630">
	<ele>1357.80</ele>
	<time>2025-04-29T07:06:58.000Z</time>
</trkpt>
<trkpt lat="45.9118400" lon="10.3563630">
	<ele>1357.80</ele>
	<time>2025-04-29T07:06:59.000Z</time>
</trkpt>
<trkpt lat="45.9118400" lon="10.3563630">
	<ele>1357.60</ele>
	<time>2025-04-29T07:07:00.000Z</time>
</trkpt>
<trkpt lat="45.9118400" lon="10.3563630">
	<ele>1357.60</ele>
	<time>2025-04-29T07:07:01.000Z</time>
</trkpt>
<trkpt lat="45.9118380" lon="10.3563650">
	<ele>1357.60</ele>
	<time>2025-04-29T07:07:02.000Z</time>
</trkpt>
<trkpt lat="45.9118300" lon="10.3563770">
	<ele>1357.60</ele>
	<time>2025-04-29T07:07:03.000Z</time>
</trkpt>
<trkpt lat="45.9118210" lon="10.3563880">
	<ele>1357.60</ele>
	<time>2025-04-29T07:07:04.000Z</time>
</trkpt>
<trkpt lat="45.9118060" lon="10.3563980">
	<ele>1357.80</ele>
	<time>2025-04-29T07:07:05.000Z</time>
</trkpt>
<trkpt lat="45.9117860" lon="10.3564060">
	<ele>1358.00</ele>
	<time>2025-04-29T07:07:06.000Z</time>
</trkpt>
<trkpt lat="45.9117690" lon="10.3564140">
	<ele>1358.00</ele>
	<time>2025-04-29T07:07:07.000Z</time>
</trkpt>
<trkpt lat="45.9117560" lon="10.3564240">
	<ele>1358.20</ele>
	<time>2025-04-29T07:07:08.000Z</time>
</trkpt>
<trkpt lat="45.9117430" lon="10.3564320">
	<ele>1358.40</ele>
	<time>2025-04-29T07:07:09.000Z</time>
</trkpt>
<trkpt lat="45.9117280" lon="10.3564370">
	<ele>1358.60</ele>
	<time>2025-04-29T07:07:10.000Z</time>
</trkpt>
<trkpt lat="45.9117140" lon="10.3564430">
	<ele>1358.80</ele>
	<time>2025-04-29T07:07:11.000Z</time>
</trkpt>
<trkpt lat="45.9117140" lon="10.3564560">
	<ele>1358.80</ele>
	<time>2025-04-29T07:07:12.000Z</time>
</trkpt>
<trkpt lat="45.9117010" lon="10.3564630">
	<ele>1359.00</ele>
	<time>2025-04-29T07:07:13.000Z</time>
</trkpt>
<trkpt lat="45.9116970" lon="10.3564770">
	<ele>1359.00</ele>
	<time>2025-04-29T07:07:14.000Z</time>
</trkpt>
<trkpt lat="45.9116790" lon="10.3564810">
	<ele>1359.20</ele>
	<time>2025-04-29T07:07:15.000Z</time>
</trkpt>
<trkpt lat="45.9116640" lon="10.3564880">
	<ele>1359.40</ele>
	<time>2025-04-29T07:07:16.000Z</time>
</trkpt>
<trkpt lat="45.9116570" lon="10.3564870">
	<ele>1359.40</ele>
	<time>2025-04-29T07:07:17.000Z</time>
</trkpt>
<trkpt lat="45.9116490" lon="10.3564880">
	<ele>1359.60</ele>
	<time>2025-04-29T07:07:18.000Z</time>
</trkpt>
<trkpt lat="45.9116390" lon="10.3564920">
	<ele>1359.60</ele>
	<time>2025-04-29T07:07:19.000Z</time>
</trkpt>
<trkpt lat="45.9116350" lon="10.3565040">
	<ele>1359.80</ele>
	<time>2025-04-29T07:07:20.000Z</time>
</trkpt>
<trkpt lat="45.9116290" lon="10.3565140">
	<ele>1359.80</ele>
	<time>2025-04-29T07:07:21.000Z</time>
</trkpt>
<trkpt lat="45.9116160" lon="10.3565230">
	<ele>1360.00</ele>
	<time>2025-04-29T07:07:22.000Z</time>
</trkpt>
<trkpt lat="45.9116020" lon="10.3565290">
	<ele>1360.20</ele>
	<time>2025-04-29T07:07:23.000Z</time>
</trkpt>
<trkpt lat="45.9115910" lon="10.3565420">
	<ele>1360.40</ele>
	<time>2025-04-29T07:07:24.000Z</time>
</trkpt>
<trkpt lat="45.9115810" lon="10.3565580">
	<ele>1360.60</ele>
	<time>2025-04-29T07:07:25.000Z</time>
</trkpt>
<trkpt lat="45.9115620" lon="10.3565600">
	<ele>1360.80</ele>
	<time>2025-04-29T07:07:26.000Z</time>
</trkpt>
<trkpt lat="45.9115540" lon="10.3565640">
	<ele>1360.80</ele>
	<time>2025-04-29T07:07:27.000Z</time>
</trkpt>
<trkpt lat="45.9115460" lon="10.3565690">
	<ele>1361.00</ele>
	<time>2025-04-29T07:07:28.000Z</time>
</trkpt>
<trkpt lat="45.9115400" lon="10.3565770">
	<ele>1361.20</ele>
	<time>2025-04-29T07:07:29.000Z</time>
</trkpt>
<trkpt lat="45.9115320" lon="10.3565890">
	<ele>1361.20</ele>
	<time>2025-04-29T07:07:30.000Z</time>
</trkpt>
<trkpt lat="45.9115230" lon="10.3566020">
	<ele>1361.40</ele>
	<time>2025-04-29T07:07:31.000Z</time>
</trkpt>
<trkpt lat="45.9115080" lon="10.3566050">
	<ele>1361.60</ele>
	<time>2025-04-29T07:07:32.000Z</time>
</trkpt>
<trkpt lat="45.9114910" lon="10.3566040">
	<ele>1361.80</ele>
	<time>2025-04-29T07:07:33.000Z</time>
</trkpt>
<trkpt lat="45.9114860" lon="10.3566160">
	<ele>1362.00</ele>
	<time>2025-04-29T07:07:34.000Z</time>
</trkpt>
<trkpt lat="45.9114750" lon="10.3566180">
	<ele>1362.20</ele>
	<time>2025-04-29T07:07:35.000Z</time>
</trkpt>
<trkpt lat="45.9114580" lon="10.3566130">
	<ele>1362.40</ele>
	<time>2025-04-29T07:07:36.000Z</time>
</trkpt>
<trkpt lat="45.9114450" lon="10.3566110">
	<ele>1362.60</ele>
	<time>2025-04-29T07:07:37.000Z</time>
</trkpt>
<trkpt lat="45.9114370" lon="10.3566140">
	<ele>1362.80</ele>
	<time>2025-04-29T07:07:38.000Z</time>
</trkpt>
<trkpt lat="45.9114410" lon="10.3566270">
	<ele>1362.80</ele>
	<time>2025-04-29T07:07:39.000Z</time>
</trkpt>
<trkpt lat="45.9114420" lon="10.3566400">
	<ele>1363.00</ele>
	<time>2025-04-29T07:07:40.000Z</time>
</trkpt>
<trkpt lat="45.9114370" lon="10.3566480">
	<ele>1363.20</ele>
	<time>2025-04-29T07:07:41.000Z</time>
</trkpt>
<trkpt lat="45.9114280" lon="10.3566530">
	<ele>1363.40</ele>
	<time>2025-04-29T07:07:42.000Z</time>
</trkpt>
<trkpt lat="45.9114160" lon="10.3566560">
	<ele>1363.60</ele>
	<time>2025-04-29T07:07:43.000Z</time>
</trkpt>
<trkpt lat="45.9114070" lon="10.3566570">
	<ele>1363.60</ele>
	<time>2025-04-29T07:07:44.000Z</time>
</trkpt>
<trkpt lat="45.9113960" lon="10.3566570">
	<ele>1363.80</ele>
	<time>2025-04-29T07:07:45.000Z</time>
</trkpt>
<trkpt lat="45.9113860" lon="10.3566600">
	<ele>1363.80</ele>
	<time>2025-04-29T07:07:46.000Z</time>
</trkpt>
<trkpt lat="45.9113790" lon="10.3566680">
	<ele>1364.00</ele>
	<time>2025-04-29T07:07:47.000Z</time>
</trkpt>
<trkpt lat="45.9113730" lon="10.3566700">
	<ele>1364.20</ele>
	<time>2025-04-29T07:07:48.000Z</time>
</trkpt>
<trkpt lat="45.9113650" lon="10.3566670">
	<ele>1364.40</ele>
	<time>2025-04-29T07:07:49.000Z</time>
</trkpt>
<trkpt lat="45.9113510" lon="10.3566650">
	<ele>1364.60</ele>
	<time>2025-04-29T07:07:50.000Z</time>
</trkpt>
<trkpt lat="45.9113470" lon="10.3566670">
	<ele>1364.60</ele>
	<time>2025-04-29T07:07:51.000Z</time>
</trkpt>
<trkpt lat="45.9113410" lon="10.3566750">
	<ele>1364.80</ele>
	<time>2025-04-29T07:07:52.000Z</time>
</trkpt>
<trkpt lat="45.9113390" lon="10.3566830">
	<ele>1365.00</ele>
	<time>2025-04-29T07:07:53.000Z</time>
</trkpt>
<trkpt lat="45.9113380" lon="10.3566880">
	<ele>1365.20</ele>
	<time>2025-04-29T07:07:54.000Z</time>
</trkpt>
<trkpt lat="45.9113270" lon="10.3566840">
	<ele>1365.40</ele>
	<time>2025-04-29T07:07:55.000Z</time>
</trkpt>
<trkpt lat="45.9113230" lon="10.3566760">
	<ele>1365.40</ele>
	<time>2025-04-29T07:07:56.000Z</time>
</trkpt>
<trkpt lat="45.9113210" lon="10.3566660">
	<ele>1365.60</ele>
	<time>2025-04-29T07:07:57.000Z</time>
</trkpt>
<trkpt lat="45.9113140" lon="10.3566540">
	<ele>1365.80</ele>
	<time>2025-04-29T07:07:58.000Z</time>
</trkpt>
<trkpt lat="45.9113140" lon="10.3566500">
	<ele>1365.80</ele>
	<time>2025-04-29T07:07:59.000Z</time>
</trkpt>
<trkpt lat="45.9113130" lon="10.3566460">
	<ele>1366.20</ele>
	<time>2025-04-29T07:08:00.000Z</time>
</trkpt>
<trkpt lat="45.9113180" lon="10.3566520">
	<ele>1366.20</ele>
	<time>2025-04-29T07:08:01.000Z</time>
</trkpt>
<trkpt lat="45.9113180" lon="10.3566500">
	<ele>1366.40</ele>
	<time>2025-04-29T07:08:02.000Z</time>
</trkpt>
<trkpt lat="45.9113240" lon="10.3566590">
	<ele>1366.40</ele>
	<time>2025-04-29T07:08:03.000Z</time>
</trkpt>
<trkpt lat="45.9113260" lon="10.3566700">
	<ele>1366.40</ele>
	<time>2025-04-29T07:08:04.000Z</time>
</trkpt>
<trkpt lat="45.9113240" lon="10.3566710">
	<ele>1366.60</ele>
	<time>2025-04-29T07:08:05.000Z</time>
</trkpt>
<trkpt lat="45.9113230" lon="10.3566700">
	<ele>1366.60</ele>
	<time>2025-04-29T07:08:06.000Z</time>
</trkpt>
<trkpt lat="45.9113230" lon="10.3566720">
	<ele>1366.80</ele>
	<time>2025-04-29T07:08:07.000Z</time>
</trkpt>
<trkpt lat="45.9113260" lon="10.3566730">
	<ele>1366.80</ele>
	<time>2025-04-29T07:08:08.000Z</time>
</trkpt>
<trkpt lat="45.9113280" lon="10.3566720">
	<ele>1366.80</ele>
	<time>2025-04-29T07:08:09.000Z</time>
</trkpt>
<trkpt lat="45.9113320" lon="10.3566620">
	<ele>1366.80</ele>
	<time>2025-04-29T07:08:10.000Z</time>
</trkpt>
<trkpt lat="45.9113420" lon="10.3566520">
	<ele>1366.80</ele>
	<time>2025-04-29T07:08:11.000Z</time>
</trkpt>
<trkpt lat="45.9113550" lon="10.3566520">
	<ele>1366.80</ele>
	<time>2025-04-29T07:08:12.000Z</time>
</trkpt>
<trkpt lat="45.9113690" lon="10.3566560">
	<ele>1367.00</ele>
	<time>2025-04-29T07:08:13.000Z</time>
</trkpt>
<trkpt lat="45.9113830" lon="10.3566590">
	<ele>1367.00</ele>
	<time>2025-04-29T07:08:14.000Z</time>
</trkpt>
<trkpt lat="45.9113860" lon="10.3566580">
	<ele>1367.00</ele>
	<time>2025-04-29T07:08:15.000Z</time>
</trkpt>
<trkpt lat="45.9113990" lon="10.3566600">
	<ele>1367.00</ele>
	<time>2025-04-29T07:08:16.000Z</time>
</trkpt>
<trkpt lat="45.9114030" lon="10.3566540">
	<ele>1367.00</ele>
	<time>2025-04-29T07:08:17.000Z</time>
</trkpt>
<trkpt lat="45.9114060" lon="10.3566470">
	<ele>1366.80</ele>
	<time>2025-04-29T07:08:18.000Z</time>
</trkpt>
<trkpt lat="45.9114050" lon="10.3566440">
	<ele>1366.60</ele>
	<time>2025-04-29T07:08:19.000Z</time>
</trkpt>
<trkpt lat="45.9114100" lon="10.3566490">
	<ele>1366.60</ele>
	<time>2025-04-29T07:08:20.000Z</time>
</trkpt>
<trkpt lat="45.9114130" lon="10.3566550">
	<ele>1366.60</ele>
	<time>2025-04-29T07:08:21.000Z</time>
</trkpt>
<trkpt lat="45.9114140" lon="10.3566580">
	<ele>1366.60</ele>
	<time>2025-04-29T07:08:22.000Z</time>
</trkpt>
<trkpt lat="45.9114150" lon="10.3566590">
	<ele>1366.60</ele>
	<time>2025-04-29T07:08:23.000Z</time>
</trkpt>
<trkpt lat="45.9114150" lon="10.3566590">
	<ele>1366.60</ele>
	<time>2025-04-29T07:08:24.000Z</time>
</trkpt>
<trkpt lat="45.9114160" lon="10.3566560">
	<ele>1366.60</ele>
	<time>2025-04-29T07:08:25.000Z</time>
</trkpt>
<trkpt lat="45.9114220" lon="10.3566550">
	<ele>1366.80</ele>
	<time>2025-04-29T07:08:26.000Z</time>
</trkpt>
<trkpt lat="45.9114240" lon="10.3566540">
	<ele>1366.80</ele>
	<time>2025-04-29T07:08:27.000Z</time>
</trkpt>
<trkpt lat="45.9114230" lon="10.3566530">
	<ele>1366.80</ele>
	<time>2025-04-29T07:08:28.000Z</time>
</trkpt>
<trkpt lat="45.9114240" lon="10.3566540">
	<ele>1366.80</ele>
	<time>2025-04-29T07:08:29.000Z</time>
</trkpt>
<trkpt lat="45.9114240" lon="10.3566540">
	<ele>1366.80</ele>
	<time>2025-04-29T07:08:30.000Z</time>
</trkpt>
<trkpt lat="45.9114240" lon="10.3566540">
	<ele>1366.80</ele>
	<time>2025-04-29T07:08:31.000Z</time>
</trkpt>
<trkpt lat="45.9114240" lon="10.3566540">
	<ele>1366.80</ele>
	<time>2025-04-29T07:08:32.000Z</time>
</trkpt>
<trkpt lat="45.9114240" lon="10.3566540">
	<ele>1366.80</ele>
	<time>2025-04-29T07:08:33.000Z</time>
</trkpt>
<trkpt lat="45.9114240" lon="10.3566540">
	<ele>1366.80</ele>
	<time>2025-04-29T07:08:34.000Z</time>
</trkpt>
<trkpt lat="45.9114240" lon="10.3566540">
	<ele>1366.80</ele>
	<time>2025-04-29T07:08:35.000Z</time>
</trkpt>
<trkpt lat="45.9114240" lon="10.3566540">
	<ele>1366.80</ele>
	<time>2025-04-29T07:08:36.000Z</time>
</trkpt>
<trkpt lat="45.9114240" lon="10.3566540">
	<ele>1366.80</ele>
	<time>2025-04-29T07:08:37.000Z</time>
</trkpt>
<trkpt lat="45.9114230" lon="10.3566540">
	<ele>1366.80</ele>
	<time>2025-04-29T07:08:38.000Z</time>
</trkpt>
<trkpt lat="45.9114230" lon="10.3566550">
	<ele>1366.80</ele>
	<time>2025-04-29T07:08:39.000Z</time>
</trkpt>
<trkpt lat="45.9114230" lon="10.3566550">
	<ele>1366.80</ele>
	<time>2025-04-29T07:08:40.000Z</time>
</trkpt>
<trkpt lat="45.9114230" lon="10.3566560">
	<ele>1366.80</ele>
	<time>2025-04-29T07:08:41.000Z</time>
</trkpt>
<trkpt lat="45.9114230" lon="10.3566570">
	<ele>1366.80</ele>
	<time>2025-04-29T07:08:42.000Z</time>
</trkpt>
<trkpt lat="45.9114230" lon="10.3566570">
	<ele>1366.80</ele>
	<time>2025-04-29T07:08:43.000Z</time>
</trkpt>
<trkpt lat="45.9114220" lon="10.3566580">
	<ele>1366.80</ele>
	<time>2025-04-29T07:08:44.000Z</time>
</trkpt>
<trkpt lat="45.9114210" lon="10.3566580">
	<ele>1366.80</ele>
	<time>2025-04-29T07:08:45.000Z</time>
</trkpt>
<trkpt lat="45.9114190" lon="10.3566580">
	<ele>1366.80</ele>
	<time>2025-04-29T07:08:46.000Z</time>
</trkpt>
<trkpt lat="45.9114170" lon="10.3566570">
	<ele>1366.80</ele>
	<time>2025-04-29T07:08:47.000Z</time>
</trkpt>
<trkpt lat="45.9114150" lon="10.3566550">
	<ele>1366.80</ele>
	<time>2025-04-29T07:08:48.000Z</time>
</trkpt>
<trkpt lat="45.9114100" lon="10.3566520">
	<ele>1366.80</ele>
	<time>2025-04-29T07:08:49.000Z</time>
</trkpt>
<trkpt lat="45.9114100" lon="10.3566520">
	<ele>1366.80</ele>
	<time>2025-04-29T07:08:50.000Z</time>
</trkpt>
<trkpt lat="45.9114100" lon="10.3566530">
	<ele>1366.80</ele>
	<time>2025-04-29T07:08:51.000Z</time>
</trkpt>
<trkpt lat="45.9114100" lon="10.3566530">
	<ele>1366.80</ele>
	<time>2025-04-29T07:08:52.000Z</time>
</trkpt>
<trkpt lat="45.9114040" lon="10.3566550">
	<ele>1366.80</ele>
	<time>2025-04-29T07:08:53.000Z</time>
</trkpt>
<trkpt lat="45.9114000" lon="10.3566550">
	<ele>1367.00</ele>
	<time>2025-04-29T07:08:54.000Z</time>
</trkpt>
<trkpt lat="45.9114040" lon="10.3566640">
	<ele>1367.00</ele>
	<time>2025-04-29T07:08:55.000Z</time>
</trkpt>
<trkpt lat="45.9114050" lon="10.3566640">
	<ele>1367.00</ele>
	<time>2025-04-29T07:08:56.000Z</time>
</trkpt>
<trkpt lat="45.9114040" lon="10.3566670">
	<ele>1367.00</ele>
	<time>2025-04-29T07:08:57.000Z</time>
</trkpt>
<trkpt lat="45.9113940" lon="10.3566660">
	<ele>1367.00</ele>
	<time>2025-04-29T07:08:58.000Z</time>
</trkpt>
<trkpt lat="45.9113840" lon="10.3566660">
	<ele>1367.00</ele>
	<time>2025-04-29T07:08:59.000Z</time>
</trkpt>
<trkpt lat="45.9113830" lon="10.3566660">
	<ele>1367.00</ele>
	<time>2025-04-29T07:09:00.000Z</time>
</trkpt>
<trkpt lat="45.9113850" lon="10.3566680">
	<ele>1367.00</ele>
	<time>2025-04-29T07:09:01.000Z</time>
</trkpt>
<trkpt lat="45.9113840" lon="10.3566680">
	<ele>1367.00</ele>
	<time>2025-04-29T07:09:02.000Z</time>
</trkpt>
<trkpt lat="45.9113850" lon="10.3566700">
	<ele>1367.00</ele>
	<time>2025-04-29T07:09:03.000Z</time>
</trkpt>
<trkpt lat="45.9113850" lon="10.3566700">
	<ele>1367.00</ele>
	<time>2025-04-29T07:09:04.000Z</time>
</trkpt>
<trkpt lat="45.9113850" lon="10.3566700">
	<ele>1366.80</ele>
	<time>2025-04-29T07:09:05.000Z</time>
</trkpt>
<trkpt lat="45.9113850" lon="10.3566700">
	<ele>1366.80</ele>
	<time>2025-04-29T07:09:06.000Z</time>
</trkpt>
<trkpt lat="45.9113850" lon="10.3566700">
	<ele>1366.80</ele>
	<time>2025-04-29T07:09:07.000Z</time>
</trkpt>
<trkpt lat="45.9113850" lon="10.3566700">
	<ele>1366.80</ele>
	<time>2025-04-29T07:09:08.000Z</time>
</trkpt>
<trkpt lat="45.9113850" lon="10.3566700">
	<ele>1366.80</ele>
	<time>2025-04-29T07:09:09.000Z</time>
</trkpt>
<trkpt lat="45.9113850" lon="10.3566700">
	<ele>1366.80</ele>
	<time>2025-04-29T07:09:10.000Z</time>
</trkpt>
<trkpt lat="45.9113850" lon="10.3566700">
	<ele>1366.80</ele>
	<time>2025-04-29T07:09:11.000Z</time>
</trkpt>
<trkpt lat="45.9113850" lon="10.3566700">
	<ele>1366.80</ele>
	<time>2025-04-29T07:09:12.000Z</time>
</trkpt>
<trkpt lat="45.9113850" lon="10.3566700">
	<ele>1366.80</ele>
	<time>2025-04-29T07:09:13.000Z</time>
</trkpt>
<trkpt lat="45.9113850" lon="10.3566700">
	<ele>1367.00</ele>
	<time>2025-04-29T07:09:14.000Z</time>
</trkpt>
<trkpt lat="45.9113820" lon="10.3566750">
	<ele>1367.00</ele>
	<time>2025-04-29T07:09:15.000Z</time>
</trkpt>
<trkpt lat="45.9113770" lon="10.3566800">
	<ele>1367.00</ele>
	<time>2025-04-29T07:09:16.000Z</time>
</trkpt>
<trkpt lat="45.9113740" lon="10.3566860">
	<ele>1367.20</ele>
	<time>2025-04-29T07:09:17.000Z</time>
</trkpt>
<trkpt lat="45.9113740" lon="10.3566860">
	<ele>1367.20</ele>
	<time>2025-04-29T07:09:18.000Z</time>
</trkpt>
<trkpt lat="45.9113740" lon="10.3566860">
	<ele>1367.20</ele>
	<time>2025-04-29T07:09:19.000Z</time>
</trkpt>
<trkpt lat="45.9113740" lon="10.3566860">
	<ele>1367.20</ele>
	<time>2025-04-29T07:09:20.000Z</time>
</trkpt>
<trkpt lat="45.9113740" lon="10.3566860">
	<ele>1367.20</ele>
	<time>2025-04-29T07:09:21.000Z</time>
</trkpt>
<trkpt lat="45.9113740" lon="10.3566860">
	<ele>1367.20</ele>
	<time>2025-04-29T07:09:22.000Z</time>
</trkpt>
<trkpt lat="45.9113740" lon="10.3566860">
	<ele>1367.20</ele>
	<time>2025-04-29T07:09:23.000Z</time>
</trkpt>
<trkpt lat="45.9113740" lon="10.3566860">
	<ele>1367.20</ele>
	<time>2025-04-29T07:09:24.000Z</time>
</trkpt>
<trkpt lat="45.9113720" lon="10.3566920">
	<ele>1367.20</ele>
	<time>2025-04-29T07:09:25.000Z</time>
</trkpt>
<trkpt lat="45.9113720" lon="10.3566970">
	<ele>1367.20</ele>
	<time>2025-04-29T07:09:26.000Z</time>
</trkpt>
<trkpt lat="45.9113700" lon="10.3566990">
	<ele>1367.20</ele>
	<time>2025-04-29T07:09:27.000Z</time>
</trkpt>
<trkpt lat="45.9113700" lon="10.3567100">
	<ele>1367.20</ele>
	<time>2025-04-29T07:09:28.000Z</time>
</trkpt>
<trkpt lat="45.9113650" lon="10.3567190">
	<ele>1367.20</ele>
	<time>2025-04-29T07:09:29.000Z</time>
</trkpt>
<trkpt lat="45.9113570" lon="10.3567210">
	<ele>1367.20</ele>
	<time>2025-04-29T07:09:30.000Z</time>
</trkpt>
<trkpt lat="45.9113560" lon="10.3567210">
	<ele>1367.20</ele>
	<time>2025-04-29T07:09:31.000Z</time>
</trkpt>
<trkpt lat="45.9113560" lon="10.3567210">
	<ele>1367.20</ele>
	<time>2025-04-29T07:09:32.000Z</time>
</trkpt>
<trkpt lat="45.9113560" lon="10.3567210">
	<ele>1367.20</ele>
	<time>2025-04-29T07:09:33.000Z</time>
</trkpt>
<trkpt lat="45.9113550" lon="10.3567210">
	<ele>1367.20</ele>
	<time>2025-04-29T07:09:34.000Z</time>
</trkpt>
<trkpt lat="45.9113540" lon="10.3567220">
	<ele>1367.20</ele>
	<time>2025-04-29T07:09:35.000Z</time>
</trkpt>
<trkpt lat="45.9113530" lon="10.3567220">
	<ele>1367.20</ele>
	<time>2025-04-29T07:09:36.000Z</time>
</trkpt>
<trkpt lat="45.9113530" lon="10.3567220">
	<ele>1367.20</ele>
	<time>2025-04-29T07:09:37.000Z</time>
</trkpt>
<trkpt lat="45.9113530" lon="10.3567220">
	<ele>1367.20</ele>
	<time>2025-04-29T07:09:38.000Z</time>
</trkpt>
<trkpt lat="45.9113510" lon="10.3567220">
	<ele>1367.20</ele>
	<time>2025-04-29T07:09:39.000Z</time>
</trkpt>
<trkpt lat="45.9113490" lon="10.3567230">
	<ele>1367.20</ele>
	<time>2025-04-29T07:09:40.000Z</time>
</trkpt>
<trkpt lat="45.9113490" lon="10.3567230">
	<ele>1367.20</ele>
	<time>2025-04-29T07:09:41.000Z</time>
</trkpt>
<trkpt lat="45.9113470" lon="10.3567230">
	<ele>1367.20</ele>
	<time>2025-04-29T07:09:42.000Z</time>
</trkpt>
<trkpt lat="45.9113450" lon="10.3567230">
	<ele>1367.20</ele>
	<time>2025-04-29T07:09:43.000Z</time>
</trkpt>
<trkpt lat="45.9113440" lon="10.3567240">
	<ele>1367.20</ele>
	<time>2025-04-29T07:09:44.000Z</time>
</trkpt>
<trkpt lat="45.9113440" lon="10.3567240">
	<ele>1367.20</ele>
	<time>2025-04-29T07:09:45.000Z</time>
</trkpt>
<trkpt lat="45.9113430" lon="10.3567240">
	<ele>1367.20</ele>
	<time>2025-04-29T07:09:46.000Z</time>
</trkpt>
<trkpt lat="45.9113400" lon="10.3567260">
	<ele>1367.20</ele>
	<time>2025-04-29T07:09:47.000Z</time>
</trkpt>
<trkpt lat="45.9113300" lon="10.3567330">
	<ele>1367.20</ele>
	<time>2025-04-29T07:09:48.000Z</time>
</trkpt>
<trkpt lat="45.9113180" lon="10.3567380">
	<ele>1367.20</ele>
	<time>2025-04-29T07:09:49.000Z</time>
</trkpt>
<trkpt lat="45.9113120" lon="10.3567420">
	<ele>1367.40</ele>
	<time>2025-04-29T07:09:50.000Z</time>
</trkpt>
<trkpt lat="45.9113080" lon="10.3567530">
	<ele>1367.40</ele>
	<time>2025-04-29T07:09:51.000Z</time>
</trkpt>
<trkpt lat="45.9113020" lon="10.3567670">
	<ele>1367.40</ele>
	<time>2025-04-29T07:09:52.000Z</time>
</trkpt>
<trkpt lat="45.9112980" lon="10.3567820">
	<ele>1367.40</ele>
	<time>2025-04-29T07:09:53.000Z</time>
</trkpt>
<trkpt lat="45.9112940" lon="10.3567990">
	<ele>1367.60</ele>
	<time>2025-04-29T07:09:54.000Z</time>
</trkpt>
<trkpt lat="45.9112810" lon="10.3568070">
	<ele>1367.80</ele>
	<time>2025-04-29T07:09:55.000Z</time>
</trkpt>
<trkpt lat="45.9112820" lon="10.3568240">
	<ele>1368.00</ele>
	<time>2025-04-29T07:09:56.000Z</time>
</trkpt>
<trkpt lat="45.9112810" lon="10.3568410">
	<ele>1368.00</ele>
	<time>2025-04-29T07:09:57.000Z</time>
</trkpt>
<trkpt lat="45.9112740" lon="10.3568620">
	<ele>1368.20</ele>
	<time>2025-04-29T07:09:58.000Z</time>
</trkpt>
<trkpt lat="45.9112650" lon="10.3568720">
	<ele>1368.40</ele>
	<time>2025-04-29T07:09:59.000Z</time>
</trkpt>
<trkpt lat="45.9112560" lon="10.3568790">
	<ele>1368.60</ele>
	<time>2025-04-29T07:10:00.000Z</time>
</trkpt>
<trkpt lat="45.9112420" lon="10.3568790">
	<ele>1368.60</ele>
	<time>2025-04-29T07:10:01.000Z</time>
</trkpt>
<trkpt lat="45.9112300" lon="10.3568810">
	<ele>1368.60</ele>
	<time>2025-04-29T07:10:02.000Z</time>
</trkpt>
<trkpt lat="45.9112240" lon="10.3568830">
	<ele>1368.80</ele>
	<time>2025-04-29T07:10:03.000Z</time>
</trkpt>
<trkpt lat="45.9112170" lon="10.3568880">
	<ele>1369.00</ele>
	<time>2025-04-29T07:10:04.000Z</time>
</trkpt>
<trkpt lat="45.9112160" lon="10.3569020">
	<ele>1369.00</ele>
	<time>2025-04-29T07:10:05.000Z</time>
</trkpt>
<trkpt lat="45.9112170" lon="10.3569190">
	<ele>1369.40</ele>
	<time>2025-04-29T07:10:06.000Z</time>
</trkpt>
<trkpt lat="45.9112170" lon="10.3569350">
	<ele>1369.40</ele>
	<time>2025-04-29T07:10:07.000Z</time>
</trkpt>
<trkpt lat="45.9112150" lon="10.3569440">
	<ele>1369.80</ele>
	<time>2025-04-29T07:10:08.000Z</time>
</trkpt>
<trkpt lat="45.9112040" lon="10.3569510">
	<ele>1369.80</ele>
	<time>2025-04-29T07:10:09.000Z</time>
</trkpt>
<trkpt lat="45.9111990" lon="10.3569570">
	<ele>1370.00</ele>
	<time>2025-04-29T07:10:10.000Z</time>
</trkpt>
<trkpt lat="45.9111890" lon="10.3569630">
	<ele>1370.00</ele>
	<time>2025-04-29T07:10:11.000Z</time>
</trkpt>
<trkpt lat="45.9111820" lon="10.3569710">
	<ele>1370.20</ele>
	<time>2025-04-29T07:10:12.000Z</time>
</trkpt>
<trkpt lat="45.9111770" lon="10.3569790">
	<ele>1370.40</ele>
	<time>2025-04-29T07:10:13.000Z</time>
</trkpt>
<trkpt lat="45.9111680" lon="10.3569880">
	<ele>1370.60</ele>
	<time>2025-04-29T07:10:14.000Z</time>
</trkpt>
<trkpt lat="45.9111620" lon="10.3569940">
	<ele>1370.80</ele>
	<time>2025-04-29T07:10:15.000Z</time>
</trkpt>
<trkpt lat="45.9111570" lon="10.3570060">
	<ele>1371.00</ele>
	<time>2025-04-29T07:10:16.000Z</time>
</trkpt>
<trkpt lat="45.9111540" lon="10.3570190">
	<ele>1371.00</ele>
	<time>2025-04-29T07:10:17.000Z</time>
</trkpt>
<trkpt lat="45.9111310" lon="10.3570200">
	<ele>1371.20</ele>
	<time>2025-04-29T07:10:18.000Z</time>
</trkpt>
<trkpt lat="45.9111240" lon="10.3570280">
	<ele>1371.40</ele>
	<time>2025-04-29T07:10:19.000Z</time>
</trkpt>
<trkpt lat="45.9111200" lon="10.3570370">
	<ele>1371.60</ele>
	<time>2025-04-29T07:10:20.000Z</time>
</trkpt>
<trkpt lat="45.9111130" lon="10.3570400">
	<ele>1371.60</ele>
	<time>2025-04-29T07:10:21.000Z</time>
</trkpt>
<trkpt lat="45.9111040" lon="10.3570440">
	<ele>1371.80</ele>
	<time>2025-04-29T07:10:22.000Z</time>
</trkpt>
<trkpt lat="45.9110940" lon="10.3570460">
	<ele>1372.00</ele>
	<time>2025-04-29T07:10:23.000Z</time>
</trkpt>
<trkpt lat="45.9110920" lon="10.3570480">
	<ele>1372.20</ele>
	<time>2025-04-29T07:10:24.000Z</time>
</trkpt>
<trkpt lat="45.9110910" lon="10.3570520">
	<ele>1372.40</ele>
	<time>2025-04-29T07:10:25.000Z</time>
</trkpt>
<trkpt lat="45.9110860" lon="10.3570600">
	<ele>1372.40</ele>
	<time>2025-04-29T07:10:26.000Z</time>
</trkpt>
<trkpt lat="45.9110780" lon="10.3570670">
	<ele>1372.80</ele>
	<time>2025-04-29T07:10:27.000Z</time>
</trkpt>
<trkpt lat="45.9110680" lon="10.3570720">
	<ele>1373.00</ele>
	<time>2025-04-29T07:10:28.000Z</time>
</trkpt>
<trkpt lat="45.9110640" lon="10.3570790">
	<ele>1373.20</ele>
	<time>2025-04-29T07:10:29.000Z</time>
</trkpt>
<trkpt lat="45.9110560" lon="10.3570870">
	<ele>1373.40</ele>
	<time>2025-04-29T07:10:30.000Z</time>
</trkpt>
<trkpt lat="45.9110520" lon="10.3571000">
	<ele>1373.60</ele>
	<time>2025-04-29T07:10:31.000Z</time>
</trkpt>
<trkpt lat="45.9110470" lon="10.3571160">
	<ele>1373.80</ele>
	<time>2025-04-29T07:10:32.000Z</time>
</trkpt>
<trkpt lat="45.9110390" lon="10.3571260">
	<ele>1374.00</ele>
	<time>2025-04-29T07:10:33.000Z</time>
</trkpt>
<trkpt lat="45.9110330" lon="10.3571380">
	<ele>1374.00</ele>
	<time>2025-04-29T07:10:34.000Z</time>
</trkpt>
<trkpt lat="45.9110310" lon="10.3571540">
	<ele>1374.20</ele>
	<time>2025-04-29T07:10:35.000Z</time>
</trkpt>
<trkpt lat="45.9110310" lon="10.3571700">
	<ele>1374.40</ele>
	<time>2025-04-29T07:10:36.000Z</time>
</trkpt>
<trkpt lat="45.9110310" lon="10.3571870">
	<ele>1374.60</ele>
	<time>2025-04-29T07:10:37.000Z</time>
</trkpt>
<trkpt lat="45.9110310" lon="10.3572070">
	<ele>1374.80</ele>
	<time>2025-04-29T07:10:38.000Z</time>
</trkpt>
<trkpt lat="45.9110200" lon="10.3572170">
	<ele>1375.20</ele>
	<time>2025-04-29T07:10:39.000Z</time>
</trkpt>
<trkpt lat="45.9110230" lon="10.3572320">
	<ele>1375.40</ele>
	<time>2025-04-29T07:10:40.000Z</time>
</trkpt>
<trkpt lat="45.9110110" lon="10.3572410">
	<ele>1375.40</ele>
	<time>2025-04-29T07:10:41.000Z</time>
</trkpt>
<trkpt lat="45.9109970" lon="10.3572510">
	<ele>1375.60</ele>
	<time>2025-04-29T07:10:42.000Z</time>
</trkpt>
<trkpt lat="45.9109850" lon="10.3572500">
	<ele>1375.80</ele>
	<time>2025-04-29T07:10:43.000Z</time>
</trkpt>
<trkpt lat="45.9109750" lon="10.3572550">
	<ele>1375.80</ele>
	<time>2025-04-29T07:10:44.000Z</time>
</trkpt>
<trkpt lat="45.9109710" lon="10.3572640">
	<ele>1376.00</ele>
	<time>2025-04-29T07:10:45.000Z</time>
</trkpt>
<trkpt lat="45.9109680" lon="10.3572730">
	<ele>1376.20</ele>
	<time>2025-04-29T07:10:46.000Z</time>
</trkpt>
<trkpt lat="45.9109680" lon="10.3572830">
	<ele>1376.60</ele>
	<time>2025-04-29T07:10:47.000Z</time>
</trkpt>
<trkpt lat="45.9109800" lon="10.3573100">
	<ele>1376.60</ele>
	<time>2025-04-29T07:10:48.000Z</time>
</trkpt>
<trkpt lat="45.9109870" lon="10.3573270">
	<ele>1377.00</ele>
	<time>2025-04-29T07:10:49.000Z</time>
</trkpt>
<trkpt lat="45.9109770" lon="10.3573300">
	<ele>1377.00</ele>
	<time>2025-04-29T07:10:50.000Z</time>
</trkpt>
<trkpt lat="45.9109710" lon="10.3573360">
	<ele>1377.20</ele>
	<time>2025-04-29T07:10:51.000Z</time>
</trkpt>
<trkpt lat="45.9109730" lon="10.3573510">
	<ele>1377.40</ele>
	<time>2025-04-29T07:10:52.000Z</time>
</trkpt>
<trkpt lat="45.9109690" lon="10.3573620">
	<ele>1377.60</ele>
	<time>2025-04-29T07:10:53.000Z</time>
</trkpt>
<trkpt lat="45.9109570" lon="10.3573630">
	<ele>1378.00</ele>
	<time>2025-04-29T07:10:54.000Z</time>
</trkpt>
<trkpt lat="45.9109400" lon="10.3573710">
	<ele>1378.00</ele>
	<time>2025-04-29T07:10:55.000Z</time>
</trkpt>
<trkpt lat="45.9109200" lon="10.3573750">
	<ele>1378.20</ele>
	<time>2025-04-29T07:10:56.000Z</time>
</trkpt>
<trkpt lat="45.9109090" lon="10.3573810">
	<ele>1378.40</ele>
	<time>2025-04-29T07:10:57.000Z</time>
</trkpt>
<trkpt lat="45.9108950" lon="10.3573770">
	<ele>1378.60</ele>
	<time>2025-04-29T07:10:58.000Z</time>
</trkpt>
<trkpt lat="45.9109000" lon="10.3573820">
	<ele>1378.80</ele>
	<time>2025-04-29T07:10:59.000Z</time>
</trkpt>
<trkpt lat="45.9108830" lon="10.3573710">
	<ele>1379.00</ele>
	<time>2025-04-29T07:11:00.000Z</time>
</trkpt>
<trkpt lat="45.9108890" lon="10.3573770">
	<ele>1379.20</ele>
	<time>2025-04-29T07:11:01.000Z</time>
</trkpt>
<trkpt lat="45.9109040" lon="10.3573920">
	<ele>1379.40</ele>
	<time>2025-04-29T07:11:02.000Z</time>
</trkpt>
<trkpt lat="45.9109070" lon="10.3573920">
	<ele>1379.60</ele>
	<time>2025-04-29T07:11:03.000Z</time>
</trkpt>
<trkpt lat="45.9109050" lon="10.3573990">
	<ele>1379.80</ele>
	<time>2025-04-29T07:11:04.000Z</time>
</trkpt>
<trkpt lat="45.9108800" lon="10.3573930">
	<ele>1379.80</ele>
	<time>2025-04-29T07:11:05.000Z</time>
</trkpt>
<trkpt lat="45.9108720" lon="10.3573990">
	<ele>1380.00</ele>
	<time>2025-04-29T07:11:06.000Z</time>
</trkpt>
<trkpt lat="45.9108610" lon="10.3574000">
	<ele>1380.20</ele>
	<time>2025-04-29T07:11:07.000Z</time>
</trkpt>
<trkpt lat="45.9108650" lon="10.3574000">
	<ele>1380.20</ele>
	<time>2025-04-29T07:11:08.000Z</time>
</trkpt>
<trkpt lat="45.9108700" lon="10.3574050">
	<ele>1380.20</ele>
	<time>2025-04-29T07:11:09.000Z</time>
</trkpt>
<trkpt lat="45.9108720" lon="10.3574080">
	<ele>1380.40</ele>
	<time>2025-04-29T07:11:10.000Z</time>
</trkpt>
<trkpt lat="45.9108730" lon="10.3574090">
	<ele>1380.60</ele>
	<time>2025-04-29T07:11:11.000Z</time>
</trkpt>
<trkpt lat="45.9108750" lon="10.3574000">
	<ele>1380.80</ele>
	<time>2025-04-29T07:11:12.000Z</time>
</trkpt>
<trkpt lat="45.9108800" lon="10.3574000">
	<ele>1381.00</ele>
	<time>2025-04-29T07:11:13.000Z</time>
</trkpt>
<trkpt lat="45.9108830" lon="10.3573920">
	<ele>1381.00</ele>
	<time>2025-04-29T07:11:14.000Z</time>
</trkpt>
<trkpt lat="45.9108850" lon="10.3573900">
	<ele>1381.00</ele>
	<time>2025-04-29T07:11:15.000Z</time>
</trkpt>
<trkpt lat="45.9108730" lon="10.3573820">
	<ele>1381.00</ele>
	<time>2025-04-29T07:11:16.000Z</time>
</trkpt>
<trkpt lat="45.9108610" lon="10.3573740">
	<ele>1380.80</ele>
	<time>2025-04-29T07:11:17.000Z</time>
</trkpt>
<trkpt lat="45.9108500" lon="10.3573740">
	<ele>1380.80</ele>
	<time>2025-04-29T07:11:18.000Z</time>
</trkpt>
<trkpt lat="45.9108430" lon="10.3573770">
	<ele>1380.80</ele>
	<time>2025-04-29T07:11:19.000Z</time>
</trkpt>
<trkpt lat="45.9108420" lon="10.3573850">
	<ele>1380.60</ele>
	<time>2025-04-29T07:11:20.000Z</time>
</trkpt>
<trkpt lat="45.9108390" lon="10.3573940">
	<ele>1380.60</ele>
	<time>2025-04-29T07:11:21.000Z</time>
</trkpt>
<trkpt lat="45.9108240" lon="10.3574020">
	<ele>1380.60</ele>
	<time>2025-04-29T07:11:22.000Z</time>
</trkpt>
<trkpt lat="45.9107960" lon="10.3574000">
	<ele>1380.60</ele>
	<time>2025-04-29T07:11:23.000Z</time>
</trkpt>
<trkpt lat="45.9107660" lon="10.3573980">
	<ele>1380.60</ele>
	<time>2025-04-29T07:11:24.000Z</time>
</trkpt>
<trkpt lat="45.9107470" lon="10.3573990">
	<ele>1380.60</ele>
	<time>2025-04-29T07:11:25.000Z</time>
</trkpt>
<trkpt lat="45.9107310" lon="10.3574010">
	<ele>1380.40</ele>
	<time>2025-04-29T07:11:26.000Z</time>
</trkpt>
<trkpt lat="45.9107090" lon="10.3574050">
	<ele>1380.40</ele>
	<time>2025-04-29T07:11:27.000Z</time>
</trkpt>
<trkpt lat="45.9106870" lon="10.3574070">
	<ele>1380.40</ele>
	<time>2025-04-29T07:11:28.000Z</time>
</trkpt>
<trkpt lat="45.9106900" lon="10.3574150">
	<ele>1380.40</ele>
	<time>2025-04-29T07:11:29.000Z</time>
</trkpt>
<trkpt lat="45.9106920" lon="10.3574160">
	<ele>1380.40</ele>
	<time>2025-04-29T07:11:30.000Z</time>
</trkpt>
<trkpt lat="45.9106810" lon="10.3574150">
	<ele>1380.40</ele>
	<time>2025-04-29T07:11:31.000Z</time>
</trkpt>
<trkpt lat="45.9106630" lon="10.3574160">
	<ele>1380.40</ele>
	<time>2025-04-29T07:11:32.000Z</time>
</trkpt>
<trkpt lat="45.9106540" lon="10.3574170">
	<ele>1380.40</ele>
	<time>2025-04-29T07:11:33.000Z</time>
</trkpt>
<trkpt lat="45.9106420" lon="10.3574170">
	<ele>1380.40</ele>
	<time>2025-04-29T07:11:34.000Z</time>
</trkpt>
<trkpt lat="45.9106380" lon="10.3574220">
	<ele>1380.40</ele>
	<time>2025-04-29T07:11:35.000Z</time>
</trkpt>
<trkpt lat="45.9106470" lon="10.3574310">
	<ele>1380.40</ele>
	<time>2025-04-29T07:11:36.000Z</time>
</trkpt>
<trkpt lat="45.9106340" lon="10.3574270">
	<ele>1380.40</ele>
	<time>2025-04-29T07:11:37.000Z</time>
</trkpt>
<trkpt lat="45.9106180" lon="10.3574220">
	<ele>1380.60</ele>
	<time>2025-04-29T07:11:38.000Z</time>
</trkpt>
<trkpt lat="45.9106270" lon="10.3574200">
	<ele>1380.60</ele>
	<time>2025-04-29T07:11:39.000Z</time>
</trkpt>
<trkpt lat="45.9106320" lon="10.3574180">
	<ele>1380.60</ele>
	<time>2025-04-29T07:11:40.000Z</time>
</trkpt>
<trkpt lat="45.9106280" lon="10.3574190">
	<ele>1380.60</ele>
	<time>2025-04-29T07:11:41.000Z</time>
</trkpt>
<trkpt lat="45.9105970" lon="10.3574190">
	<ele>1380.60</ele>
	<time>2025-04-29T07:11:42.000Z</time>
</trkpt>
<trkpt lat="45.9105780" lon="10.3574140">
	<ele>1380.60</ele>
	<time>2025-04-29T07:11:43.000Z</time>
</trkpt>
<trkpt lat="45.9105550" lon="10.3574120">
	<ele>1380.60</ele>
	<time>2025-04-29T07:11:44.000Z</time>
</trkpt>
<trkpt lat="45.9105650" lon="10.3574230">
	<ele>1380.80</ele>
	<time>2025-04-29T07:11:45.000Z</time>
</trkpt>
<trkpt lat="45.9105880" lon="10.3574340">
	<ele>1380.80</ele>
	<time>2025-04-29T07:11:46.000Z</time>
</trkpt>
<trkpt lat="45.9106100" lon="10.3574440">
	<ele>1381.00</ele>
	<time>2025-04-29T07:11:47.000Z</time>
</trkpt>
<trkpt lat="45.9106320" lon="10.3574550">
	<ele>1381.00</ele>
	<time>2025-04-29T07:11:48.000Z</time>
</trkpt>
<trkpt lat="45.9106370" lon="10.3574500">
	<ele>1381.00</ele>
	<time>2025-04-29T07:11:49.000Z</time>
</trkpt>
<trkpt lat="45.9106350" lon="10.3574330">
	<ele>1381.00</ele>
	<time>2025-04-29T07:11:50.000Z</time>
</trkpt>
<trkpt lat="45.9106450" lon="10.3574110">
	<ele>1380.80</ele>
	<time>2025-04-29T07:11:51.000Z</time>
</trkpt>
<trkpt lat="45.9106690" lon="10.3574060">
	<ele>1380.80</ele>
	<time>2025-04-29T07:11:52.000Z</time>
</trkpt>
<trkpt lat="45.9106620" lon="10.3574180">
	<ele>1380.80</ele>
	<time>2025-04-29T07:11:53.000Z</time>
</trkpt>
<trkpt lat="45.9106770" lon="10.3574250">
	<ele>1380.60</ele>
	<time>2025-04-29T07:11:54.000Z</time>
</trkpt>
<trkpt lat="45.9106720" lon="10.3574240">
	<ele>1380.60</ele>
	<time>2025-04-29T07:11:55.000Z</time>
</trkpt>
<trkpt lat="45.9106760" lon="10.3574250">
	<ele>1380.60</ele>
	<time>2025-04-29T07:11:56.000Z</time>
</trkpt>
<trkpt lat="45.9106830" lon="10.3574260">
	<ele>1380.60</ele>
	<time>2025-04-29T07:11:57.000Z</time>
</trkpt>
<trkpt lat="45.9106650" lon="10.3574290">
	<ele>1380.60</ele>
	<time>2025-04-29T07:11:58.000Z</time>
</trkpt>
<trkpt lat="45.9106520" lon="10.3574320">
	<ele>1380.60</ele>
	<time>2025-04-29T07:11:59.000Z</time>
</trkpt>
<trkpt lat="45.9105950" lon="10.3574210">
	<ele>1380.60</ele>
	<time>2025-04-29T07:12:00.000Z</time>
</trkpt>
<trkpt lat="45.9105560" lon="10.3574070">
	<ele>1380.80</ele>
	<time>2025-04-29T07:12:01.000Z</time>
</trkpt>
<trkpt lat="45.9105260" lon="10.3573730">
	<ele>1380.80</ele>
	<time>2025-04-29T07:12:02.000Z</time>
</trkpt>
<trkpt lat="45.9105460" lon="10.3573680">
	<ele>1380.80</ele>
	<time>2025-04-29T07:12:03.000Z</time>
</trkpt>
<trkpt lat="45.9105390" lon="10.3573600">
	<ele>1380.80</ele>
	<time>2025-04-29T07:12:04.000Z</time>
</trkpt>
<trkpt lat="45.9106450" lon="10.3573430">
	<ele>1380.80</ele>
	<time>2025-04-29T07:12:05.000Z</time>
</trkpt>
<trkpt lat="45.9106610" lon="10.3573370">
	<ele>1380.80</ele>
	<time>2025-04-29T07:12:06.000Z</time>
</trkpt>
<trkpt lat="45.9106700" lon="10.3573300">
	<ele>1380.80</ele>
	<time>2025-04-29T07:12:07.000Z</time>
</trkpt>
<trkpt lat="45.9106710" lon="10.3573200">
	<ele>1380.80</ele>
	<time>2025-04-29T07:12:08.000Z</time>
</trkpt>
<trkpt lat="45.9106390" lon="10.3573230">
	<ele>1380.80</ele>
	<time>2025-04-29T07:12:09.000Z</time>
</trkpt>
<trkpt lat="45.9106170" lon="10.3573310">
	<ele>1380.80</ele>
	<time>2025-04-29T07:12:10.000Z</time>
</trkpt>
<trkpt lat="45.9106100" lon="10.3573340">
	<ele>1380.80</ele>
	<time>2025-04-29T07:12:11.000Z</time>
</trkpt>
<trkpt lat="45.9106100" lon="10.3573400">
	<ele>1380.80</ele>
	<time>2025-04-29T07:12:12.000Z</time>
</trkpt>
<trkpt lat="45.9106080" lon="10.3573440">
	<ele>1380.80</ele>
	<time>2025-04-29T07:12:13.000Z</time>
</trkpt>
<trkpt lat="45.9106070" lon="10.3573480">
	<ele>1380.80</ele>
	<time>2025-04-29T07:12:14.000Z</time>
</trkpt>
<trkpt lat="45.9105940" lon="10.3573610">
	<ele>1381.00</ele>
	<time>2025-04-29T07:12:15.000Z</time>
</trkpt>
<trkpt lat="45.9105860" lon="10.3573630">
	<ele>1381.00</ele>
	<time>2025-04-29T07:12:16.000Z</time>
</trkpt>
<trkpt lat="45.9105770" lon="10.3573690">
	<ele>1381.00</ele>
	<time>2025-04-29T07:12:17.000Z</time>
</trkpt>
<trkpt lat="45.9105790" lon="10.3573700">
	<ele>1381.00</ele>
	<time>2025-04-29T07:12:18.000Z</time>
</trkpt>
<trkpt lat="45.9105430" lon="10.3573820">
	<ele>1381.00</ele>
	<time>2025-04-29T07:12:19.000Z</time>
</trkpt>
<trkpt lat="45.9105120" lon="10.3573890">
	<ele>1381.00</ele>
	<time>2025-04-29T07:12:20.000Z</time>
</trkpt>
<trkpt lat="45.9105090" lon="10.3573930">
	<ele>1381.20</ele>
	<time>2025-04-29T07:12:21.000Z</time>
</trkpt>
<trkpt lat="45.9105050" lon="10.3574010">
	<ele>1381.20</ele>
	<time>2025-04-29T07:12:22.000Z</time>
</trkpt>
<trkpt lat="45.9104820" lon="10.3574060">
	<ele>1381.20</ele>
	<time>2025-04-29T07:12:23.000Z</time>
</trkpt>
<trkpt lat="45.9104700" lon="10.3574000">
	<ele>1381.20</ele>
	<time>2025-04-29T07:12:24.000Z</time>
</trkpt>
<trkpt lat="45.9104640" lon="10.3573990">
	<ele>1381.20</ele>
	<time>2025-04-29T07:12:25.000Z</time>
</trkpt>
<trkpt lat="45.9104620" lon="10.3573950">
	<ele>1381.20</ele>
	<time>2025-04-29T07:12:26.000Z</time>
</trkpt>
<trkpt lat="45.9104570" lon="10.3573950">
	<ele>1381.20</ele>
	<time>2025-04-29T07:12:27.000Z</time>
</trkpt>
<trkpt lat="45.9104440" lon="10.3573980">
	<ele>1381.40</ele>
	<time>2025-04-29T07:12:28.000Z</time>
</trkpt>
<trkpt lat="45.9104320" lon="10.3574010">
	<ele>1381.40</ele>
	<time>2025-04-29T07:12:29.000Z</time>
</trkpt>
<trkpt lat="45.9104230" lon="10.3574030">
	<ele>1381.40</ele>
	<time>2025-04-29T07:12:30.000Z</time>
</trkpt>
<trkpt lat="45.9104230" lon="10.3574030">
	<ele>1381.40</ele>
	<time>2025-04-29T07:12:31.000Z</time>
</trkpt>
<trkpt lat="45.9104260" lon="10.3573990">
	<ele>1381.60</ele>
	<time>2025-04-29T07:12:32.000Z</time>
</trkpt>
<trkpt lat="45.9104070" lon="10.3574010">
	<ele>1381.60</ele>
	<time>2025-04-29T07:12:33.000Z</time>
</trkpt>
<trkpt lat="45.9103960" lon="10.3574060">
	<ele>1381.60</ele>
	<time>2025-04-29T07:12:34.000Z</time>
</trkpt>
<trkpt lat="45.9103800" lon="10.3574130">
	<ele>1381.60</ele>
	<time>2025-04-29T07:12:35.000Z</time>
</trkpt>
<trkpt lat="45.9103590" lon="10.3574230">
	<ele>1381.60</ele>
	<time>2025-04-29T07:12:36.000Z</time>
</trkpt>
<trkpt lat="45.9103420" lon="10.3574340">
	<ele>1381.60</ele>
	<time>2025-04-29T07:12:37.000Z</time>
</trkpt>
<trkpt lat="45.9103190" lon="10.3574460">
	<ele>1381.60</ele>
	<time>2025-04-29T07:12:38.000Z</time>
</trkpt>
<trkpt lat="45.9103120" lon="10.3574510">
	<ele>1381.60</ele>
	<time>2025-04-29T07:12:39.000Z</time>
</trkpt>
<trkpt lat="45.9102670" lon="10.3574670">
	<ele>1381.80</ele>
	<time>2025-04-29T07:12:40.000Z</time>
</trkpt>
<trkpt lat="45.9102330" lon="10.3574850">
	<ele>1381.80</ele>
	<time>2025-04-29T07:12:41.000Z</time>
</trkpt>
<trkpt lat="45.9101930" lon="10.3575080">
	<ele>1381.80</ele>
	<time>2025-04-29T07:12:42.000Z</time>
</trkpt>
<trkpt lat="45.9101640" lon="10.3575260">
	<ele>1381.80</ele>
	<time>2025-04-29T07:12:43.000Z</time>
</trkpt>
<trkpt lat="45.9101320" lon="10.3575370">
	<ele>1381.80</ele>
	<time>2025-04-29T07:12:44.000Z</time>
</trkpt>
<trkpt lat="45.9101310" lon="10.3575410">
	<ele>1381.80</ele>
	<time>2025-04-29T07:12:45.000Z</time>
</trkpt>
<trkpt lat="45.9101050" lon="10.3575460">
	<ele>1381.80</ele>
	<time>2025-04-29T07:12:46.000Z</time>
</trkpt>
<trkpt lat="45.9100850" lon="10.3575500">
	<ele>1381.80</ele>
	<time>2025-04-29T07:12:47.000Z</time>
</trkpt>
<trkpt lat="45.9100630" lon="10.3575540">
	<ele>1381.80</ele>
	<time>2025-04-29T07:12:48.000Z</time>
</trkpt>
<trkpt lat="45.9100640" lon="10.3575530">
	<ele>1381.80</ele>
	<time>2025-04-29T07:12:49.000Z</time>
</trkpt>
<trkpt lat="45.9100520" lon="10.3575530">
	<ele>1381.80</ele>
	<time>2025-04-29T07:12:50.000Z</time>
</trkpt>
<trkpt lat="45.9100630" lon="10.3575540">
	<ele>1381.80</ele>
	<time>2025-04-29T07:12:51.000Z</time>
</trkpt>
<trkpt lat="45.9101020" lon="10.3575600">
	<ele>1381.80</ele>
	<time>2025-04-29T07:12:52.000Z</time>
</trkpt>
<trkpt lat="45.9101020" lon="10.3575630">
	<ele>1381.80</ele>
	<time>2025-04-29T07:12:53.000Z</time>
</trkpt>
<trkpt lat="45.9101170" lon="10.3575630">
	<ele>1381.80</ele>
	<time>2025-04-29T07:12:54.000Z</time>
</trkpt>
<trkpt lat="45.9101120" lon="10.3575650">
	<ele>1381.80</ele>
	<time>2025-04-29T07:12:55.000Z</time>
</trkpt>
<trkpt lat="45.9101280" lon="10.3575680">
	<ele>1381.80</ele>
	<time>2025-04-29T07:12:56.000Z</time>
</trkpt>
<trkpt lat="45.9101400" lon="10.3575730">
	<ele>1381.80</ele>
	<time>2025-04-29T07:12:57.000Z</time>
</trkpt>
<trkpt lat="45.9101630" lon="10.3575830">
	<ele>1381.80</ele>
	<time>2025-04-29T07:12:58.000Z</time>
</trkpt>
<trkpt lat="45.9101500" lon="10.3575970">
	<ele>1381.80</ele>
	<time>2025-04-29T07:12:59.000Z</time>
</trkpt>
<trkpt lat="45.9101410" lon="10.3576010">
	<ele>1381.80</ele>
	<time>2025-04-29T07:13:00.000Z</time>
</trkpt>
<trkpt lat="45.9101340" lon="10.3576180">
	<ele>1381.80</ele>
	<time>2025-04-29T07:13:01.000Z</time>
</trkpt>
<trkpt lat="45.9101190" lon="10.3576290">
	<ele>1381.80</ele>
	<time>2025-04-29T07:13:02.000Z</time>
</trkpt>
<trkpt lat="45.9100910" lon="10.3576430">
	<ele>1381.80</ele>
	<time>2025-04-29T07:13:03.000Z</time>
</trkpt>
<trkpt lat="45.9100630" lon="10.3576670">
	<ele>1381.80</ele>
	<time>2025-04-29T07:13:04.000Z</time>
</trkpt>
<trkpt lat="45.9100470" lon="10.3576830">
	<ele>1381.80</ele>
	<time>2025-04-29T07:13:05.000Z</time>
</trkpt>
<trkpt lat="45.9100520" lon="10.3576860">
	<ele>1381.80</ele>
	<time>2025-04-29T07:13:06.000Z</time>
</trkpt>
<trkpt lat="45.9100630" lon="10.3576850">
	<ele>1381.80</ele>
	<time>2025-04-29T07:13:07.000Z</time>
</trkpt>
<trkpt lat="45.9100610" lon="10.3576940">
	<ele>1381.80</ele>
	<time>2025-04-29T07:13:08.000Z</time>
</trkpt>
<trkpt lat="45.9100400" lon="10.3577000">
	<ele>1381.80</ele>
	<time>2025-04-29T07:13:09.000Z</time>
</trkpt>
<trkpt lat="45.9100410" lon="10.3577040">
	<ele>1382.00</ele>
	<time>2025-04-29T07:13:10.000Z</time>
</trkpt>
<trkpt lat="45.9100350" lon="10.3577070">
	<ele>1382.00</ele>
	<time>2025-04-29T07:13:11.000Z</time>
</trkpt>
<trkpt lat="45.9100350" lon="10.3577170">
	<ele>1382.00</ele>
	<time>2025-04-29T07:13:12.000Z</time>
</trkpt>
<trkpt lat="45.9100340" lon="10.3577170">
	<ele>1382.00</ele>
	<time>2025-04-29T07:13:13.000Z</time>
</trkpt>
<trkpt lat="45.9100270" lon="10.3577180">
	<ele>1382.00</ele>
	<time>2025-04-29T07:13:14.000Z</time>
</trkpt>
<trkpt lat="45.9100120" lon="10.3577240">
	<ele>1382.00</ele>
	<time>2025-04-29T07:13:15.000Z</time>
</trkpt>
<trkpt lat="45.9100050" lon="10.3577350">
	<ele>1382.00</ele>
	<time>2025-04-29T07:13:16.000Z</time>
</trkpt>
<trkpt lat="45.9099740" lon="10.3577440">
	<ele>1382.20</ele>
	<time>2025-04-29T07:13:17.000Z</time>
</trkpt>
<trkpt lat="45.9099610" lon="10.3577580">
	<ele>1382.20</ele>
	<time>2025-04-29T07:13:18.000Z</time>
</trkpt>
<trkpt lat="45.9099490" lon="10.3577680">
	<ele>1382.20</ele>
	<time>2025-04-29T07:13:19.000Z</time>
</trkpt>
<trkpt lat="45.9099340" lon="10.3577770">
	<ele>1382.20</ele>
	<time>2025-04-29T07:13:20.000Z</time>
</trkpt>
<trkpt lat="45.9099170" lon="10.3577850">
	<ele>1382.20</ele>
	<time>2025-04-29T07:13:21.000Z</time>
</trkpt>
<trkpt lat="45.9099040" lon="10.3577970">
	<ele>1382.20</ele>
	<time>2025-04-29T07:13:22.000Z</time>
</trkpt>
<trkpt lat="45.9098860" lon="10.3578090">
	<ele>1382.20</ele>
	<time>2025-04-29T07:13:23.000Z</time>
</trkpt>
<trkpt lat="45.9098780" lon="10.3578230">
	<ele>1382.40</ele>
	<time>2025-04-29T07:13:24.000Z</time>
</trkpt>
<trkpt lat="45.9098730" lon="10.3578380">
	<ele>1382.40</ele>
	<time>2025-04-29T07:13:25.000Z</time>
</trkpt>
<trkpt lat="45.9098670" lon="10.3578480">
	<ele>1382.40</ele>
	<time>2025-04-29T07:13:26.000Z</time>
</trkpt>
<trkpt lat="45.9098560" lon="10.3578650">
	<ele>1382.60</ele>
	<time>2025-04-29T07:13:27.000Z</time>
</trkpt>
<trkpt lat="45.9098450" lon="10.3578790">
	<ele>1382.60</ele>
	<time>2025-04-29T07:13:28.000Z</time>
</trkpt>
<trkpt lat="45.9098280" lon="10.3578930">
	<ele>1382.60</ele>
	<time>2025-04-29T07:13:29.000Z</time>
</trkpt>
<trkpt lat="45.9098100" lon="10.3579070">
	<ele>1382.60</ele>
	<time>2025-04-29T07:13:30.000Z</time>
</trkpt>
<trkpt lat="45.9097790" lon="10.3579140">
	<ele>1382.60</ele>
	<time>2025-04-29T07:13:31.000Z</time>
</trkpt>
<trkpt lat="45.9097660" lon="10.3579290">
	<ele>1382.80</ele>
	<time>2025-04-29T07:13:32.000Z</time>
</trkpt>
<trkpt lat="45.9097420" lon="10.3579370">
	<ele>1382.80</ele>
	<time>2025-04-29T07:13:33.000Z</time>
</trkpt>
<trkpt lat="45.9097290" lon="10.3579460">
	<ele>1382.80</ele>
	<time>2025-04-29T07:13:34.000Z</time>
</trkpt>
<trkpt lat="45.9097030" lon="10.3579580">
	<ele>1382.80</ele>
	<time>2025-04-29T07:13:35.000Z</time>
</trkpt>
<trkpt lat="45.9096840" lon="10.3579670">
	<ele>1382.80</ele>
	<time>2025-04-29T07:13:36.000Z</time>
</trkpt>
<trkpt lat="45.9096630" lon="10.3579770">
	<ele>1382.80</ele>
	<time>2025-04-29T07:13:37.000Z</time>
</trkpt>
<trkpt lat="45.9096400" lon="10.3579850">
	<ele>1382.60</ele>
	<time>2025-04-29T07:13:38.000Z</time>
</trkpt>
<trkpt lat="45.9096160" lon="10.3579900">
	<ele>1382.60</ele>
	<time>2025-04-29T07:13:39.000Z</time>
</trkpt>
<trkpt lat="45.9095960" lon="10.3579870">
	<ele>1382.60</ele>
	<time>2025-04-29T07:13:40.000Z</time>
</trkpt>
<trkpt lat="45.9095740" lon="10.3579920">
	<ele>1382.60</ele>
	<time>2025-04-29T07:13:41.000Z</time>
</trkpt>
<trkpt lat="45.9095690" lon="10.3580080">
	<ele>1382.60</ele>
	<time>2025-04-29T07:13:42.000Z</time>
</trkpt>
<trkpt lat="45.9095550" lon="10.3580170">
	<ele>1382.40</ele>
	<time>2025-04-29T07:13:43.000Z</time>
</trkpt>
<trkpt lat="45.9095220" lon="10.3580200">
	<ele>1382.40</ele>
	<time>2025-04-29T07:13:44.000Z</time>
</trkpt>
<trkpt lat="45.9094940" lon="10.3580260">
	<ele>1382.20</ele>
	<time>2025-04-29T07:13:45.000Z</time>
</trkpt>
<trkpt lat="45.9094700" lon="10.3580360">
	<ele>1382.20</ele>
	<time>2025-04-29T07:13:46.000Z</time>
</trkpt>
<trkpt lat="45.9094380" lon="10.3580510">
	<ele>1382.20</ele>
	<time>2025-04-29T07:13:47.000Z</time>
</trkpt>
<trkpt lat="45.9093950" lon="10.3580720">
	<ele>1382.40</ele>
	<time>2025-04-29T07:13:48.000Z</time>
</trkpt>
<trkpt lat="45.9093700" lon="10.3580960">
	<ele>1382.40</ele>
	<time>2025-04-29T07:13:49.000Z</time>
</trkpt>
<trkpt lat="45.9093470" lon="10.3581350">
	<ele>1382.40</ele>
	<time>2025-04-29T07:13:50.000Z</time>
</trkpt>
<trkpt lat="45.9093370" lon="10.3581670">
	<ele>1382.40</ele>
	<time>2025-04-29T07:13:51.000Z</time>
</trkpt>
<trkpt lat="45.9093520" lon="10.3581820">
	<ele>1382.60</ele>
	<time>2025-04-29T07:13:52.000Z</time>
</trkpt>
<trkpt lat="45.9093390" lon="10.3581920">
	<ele>1382.60</ele>
	<time>2025-04-29T07:13:53.000Z</time>
</trkpt>
<trkpt lat="45.9093540" lon="10.3582030">
	<ele>1382.60</ele>
	<time>2025-04-29T07:13:54.000Z</time>
</trkpt>
<trkpt lat="45.9093750" lon="10.3582230">
	<ele>1382.60</ele>
	<time>2025-04-29T07:13:55.000Z</time>
</trkpt>
<trkpt lat="45.9093840" lon="10.3582420">
	<ele>1382.40</ele>
	<time>2025-04-29T07:13:56.000Z</time>
</trkpt>
<trkpt lat="45.9093810" lon="10.3582560">
	<ele>1382.40</ele>
	<time>2025-04-29T07:13:57.000Z</time>
</trkpt>
<trkpt lat="45.9093800" lon="10.3582670">
	<ele>1382.40</ele>
	<time>2025-04-29T07:13:58.000Z</time>
</trkpt>
<trkpt lat="45.9093770" lon="10.3582750">
	<ele>1382.40</ele>
	<time>2025-04-29T07:13:59.000Z</time>
</trkpt>
<trkpt lat="45.9093760" lon="10.3582890">
	<ele>1382.40</ele>
	<time>2025-04-29T07:14:00.000Z</time>
</trkpt>
<trkpt lat="45.9093790" lon="10.3583020">
	<ele>1382.20</ele>
	<time>2025-04-29T07:14:01.000Z</time>
</trkpt>
<trkpt lat="45.9093810" lon="10.3583160">
	<ele>1382.20</ele>
	<time>2025-04-29T07:14:02.000Z</time>
</trkpt>
<trkpt lat="45.9093640" lon="10.3583250">
	<ele>1382.00</ele>
	<time>2025-04-29T07:14:03.000Z</time>
</trkpt>
<trkpt lat="45.9093530" lon="10.3583320">
	<ele>1382.00</ele>
	<time>2025-04-29T07:14:04.000Z</time>
</trkpt>
<trkpt lat="45.9093370" lon="10.3583410">
	<ele>1381.80</ele>
	<time>2025-04-29T07:14:05.000Z</time>
</trkpt>
<trkpt lat="45.9093300" lon="10.3583500">
	<ele>1381.80</ele>
	<time>2025-04-29T07:14:06.000Z</time>
</trkpt>
<trkpt lat="45.9093170" lon="10.3583630">
	<ele>1381.80</ele>
	<time>2025-04-29T07:14:07.000Z</time>
</trkpt>
<trkpt lat="45.9092850" lon="10.3583760">
	<ele>1381.80</ele>
	<time>2025-04-29T07:14:08.000Z</time>
</trkpt>
<trkpt lat="45.9092720" lon="10.3583870">
	<ele>1381.80</ele>
	<time>2025-04-29T07:14:09.000Z</time>
</trkpt>
<trkpt lat="45.9092470" lon="10.3584050">
	<ele>1381.80</ele>
	<time>2025-04-29T07:14:10.000Z</time>
</trkpt>
<trkpt lat="45.9092350" lon="10.3584210">
	<ele>1381.80</ele>
	<time>2025-04-29T07:14:11.000Z</time>
</trkpt>
<trkpt lat="45.9092270" lon="10.3584380">
	<ele>1381.80</ele>
	<time>2025-04-29T07:14:12.000Z</time>
</trkpt>
<trkpt lat="45.9092300" lon="10.3584550">
	<ele>1381.80</ele>
	<time>2025-04-29T07:14:13.000Z</time>
</trkpt>
<trkpt lat="45.9092150" lon="10.3584660">
	<ele>1381.80</ele>
	<time>2025-04-29T07:14:14.000Z</time>
</trkpt>
<trkpt lat="45.9091990" lon="10.3584760">
	<ele>1382.00</ele>
	<time>2025-04-29T07:14:15.000Z</time>
</trkpt>
<trkpt lat="45.9091950" lon="10.3584790">
	<ele>1382.20</ele>
	<time>2025-04-29T07:14:16.000Z</time>
</trkpt>
<trkpt lat="45.9091910" lon="10.3584840">
	<ele>1382.20</ele>
	<time>2025-04-29T07:14:17.000Z</time>
</trkpt>
<trkpt lat="45.9091920" lon="10.3584830">
	<ele>1382.40</ele>
	<time>2025-04-29T07:14:18.000Z</time>
</trkpt>
<trkpt lat="45.9091730" lon="10.3584830">
	<ele>1382.60</ele>
	<time>2025-04-29T07:14:19.000Z</time>
</trkpt>
<trkpt lat="45.9091570" lon="10.3584900">
	<ele>1382.60</ele>
	<time>2025-04-29T07:14:20.000Z</time>
</trkpt>
<trkpt lat="45.9091480" lon="10.3585030">
	<ele>1382.60</ele>
	<time>2025-04-29T07:14:21.000Z</time>
</trkpt>
<trkpt lat="45.9091620" lon="10.3585170">
	<ele>1382.80</ele>
	<time>2025-04-29T07:14:22.000Z</time>
</trkpt>
<trkpt lat="45.9091720" lon="10.3585160">
	<ele>1382.80</ele>
	<time>2025-04-29T07:14:23.000Z</time>
</trkpt>
<trkpt lat="45.9091790" lon="10.3585140">
	<ele>1382.80</ele>
	<time>2025-04-29T07:14:24.000Z</time>
</trkpt>
<trkpt lat="45.9091780" lon="10.3585130">
	<ele>1382.80</ele>
	<time>2025-04-29T07:14:25.000Z</time>
</trkpt>
<trkpt lat="45.9091730" lon="10.3585120">
	<ele>1382.80</ele>
	<time>2025-04-29T07:14:26.000Z</time>
</trkpt>
<trkpt lat="45.9091680" lon="10.3585150">
	<ele>1382.80</ele>
	<time>2025-04-29T07:14:27.000Z</time>
</trkpt>
<trkpt lat="45.9091570" lon="10.3585180">
	<ele>1382.80</ele>
	<time>2025-04-29T07:14:28.000Z</time>
</trkpt>
<trkpt lat="45.9091460" lon="10.3585260">
	<ele>1382.60</ele>
	<time>2025-04-29T07:14:29.000Z</time>
</trkpt>
<trkpt lat="45.9091290" lon="10.3585330">
	<ele>1382.60</ele>
	<time>2025-04-29T07:14:30.000Z</time>
</trkpt>
<trkpt lat="45.9091180" lon="10.3585360">
	<ele>1382.60</ele>
	<time>2025-04-29T07:14:31.000Z</time>
</trkpt>
<trkpt lat="45.9091130" lon="10.3585330">
	<ele>1382.60</ele>
	<time>2025-04-29T07:14:32.000Z</time>
</trkpt>
<trkpt lat="45.9090940" lon="10.3585300">
	<ele>1382.60</ele>
	<time>2025-04-29T07:14:33.000Z</time>
</trkpt>
<trkpt lat="45.9090810" lon="10.3585300">
	<ele>1382.60</ele>
	<time>2025-04-29T07:14:34.000Z</time>
</trkpt>
<trkpt lat="45.9090660" lon="10.3585300">
	<ele>1382.80</ele>
	<time>2025-04-29T07:14:35.000Z</time>
</trkpt>
<trkpt lat="45.9090370" lon="10.3585260">
	<ele>1382.80</ele>
	<time>2025-04-29T07:14:36.000Z</time>
</trkpt>
<trkpt lat="45.9090380" lon="10.3585300">
	<ele>1383.20</ele>
	<time>2025-04-29T07:14:37.000Z</time>
</trkpt>
<trkpt lat="45.9090330" lon="10.3585330">
	<ele>1383.40</ele>
	<time>2025-04-29T07:14:38.000Z</time>
</trkpt>
<trkpt lat="45.9090400" lon="10.3585380">
	<ele>1383.60</ele>
	<time>2025-04-29T07:14:39.000Z</time>
</trkpt>
<trkpt lat="45.9090440" lon="10.3585390">
	<ele>1383.80</ele>
	<time>2025-04-29T07:14:40.000Z</time>
</trkpt>
<trkpt lat="45.9090430" lon="10.3585330">
	<ele>1384.00</ele>
	<time>2025-04-29T07:14:41.000Z</time>
</trkpt>
<trkpt lat="45.9090430" lon="10.3585320">
	<ele>1384.00</ele>
	<time>2025-04-29T07:14:42.000Z</time>
</trkpt>
<trkpt lat="45.9090310" lon="10.3585270">
	<ele>1384.20</ele>
	<time>2025-04-29T07:14:43.000Z</time>
</trkpt>
<trkpt lat="45.9090180" lon="10.3585250">
	<ele>1384.40</ele>
	<time>2025-04-29T07:14:44.000Z</time>
</trkpt>
<trkpt lat="45.9090110" lon="10.3585290">
	<ele>1384.60</ele>
	<time>2025-04-29T07:14:45.000Z</time>
</trkpt>
<trkpt lat="45.9090070" lon="10.3585360">
	<ele>1385.00</ele>
	<time>2025-04-29T07:14:46.000Z</time>
</trkpt>
<trkpt lat="45.9090030" lon="10.3585450">
	<ele>1385.20</ele>
	<time>2025-04-29T07:14:47.000Z</time>
</trkpt>
<trkpt lat="45.9089910" lon="10.3585460">
	<ele>1385.40</ele>
	<time>2025-04-29T07:14:48.000Z</time>
</trkpt>
<trkpt lat="45.9089840" lon="10.3585480">
	<ele>1385.60</ele>
	<time>2025-04-29T07:14:49.000Z</time>
</trkpt>
<trkpt lat="45.9089780" lon="10.3585500">
	<ele>1385.80</ele>
	<time>2025-04-29T07:14:50.000Z</time>
</trkpt>
<trkpt lat="45.9089750" lon="10.3585490">
	<ele>1386.00</ele>
	<time>2025-04-29T07:14:51.000Z</time>
</trkpt>
<trkpt lat="45.9089660" lon="10.3585490">
	<ele>1386.40</ele>
	<time>2025-04-29T07:14:52.000Z</time>
</trkpt>
<trkpt lat="45.9089660" lon="10.3585510">
	<ele>1386.80</ele>
	<time>2025-04-29T07:14:53.000Z</time>
</trkpt>
<trkpt lat="45.9089680" lon="10.3585530">
	<ele>1386.80</ele>
	<time>2025-04-29T07:14:54.000Z</time>
</trkpt>
<trkpt lat="45.9089490" lon="10.3585480">
	<ele>1387.00</ele>
	<time>2025-04-29T07:14:55.000Z</time>
</trkpt>
<trkpt lat="45.9089310" lon="10.3585480">
	<ele>1387.40</ele>
	<time>2025-04-29T07:14:56.000Z</time>
</trkpt>
<trkpt lat="45.9089080" lon="10.3585520">
	<ele>1387.60</ele>
	<time>2025-04-29T07:14:57.000Z</time>
</trkpt>
<trkpt lat="45.9088810" lon="10.3585520">
	<ele>1387.60</ele>
	<time>2025-04-29T07:14:58.000Z</time>
</trkpt>
<trkpt lat="45.9088520" lon="10.3585550">
	<ele>1388.00</ele>
	<time>2025-04-29T07:14:59.000Z</time>
</trkpt>
<trkpt lat="45.9088290" lon="10.3585580">
	<ele>1388.20</ele>
	<time>2025-04-29T07:15:00.000Z</time>
</trkpt>
<trkpt lat="45.9088070" lon="10.3585590">
	<ele>1388.40</ele>
	<time>2025-04-29T07:15:01.000Z</time>
</trkpt>
<trkpt lat="45.9088200" lon="10.3585620">
	<ele>1388.60</ele>
	<time>2025-04-29T07:15:02.000Z</time>
</trkpt>
<trkpt lat="45.9088050" lon="10.3585630">
	<ele>1388.60</ele>
	<time>2025-04-29T07:15:03.000Z</time>
</trkpt>
<trkpt lat="45.9087920" lon="10.3585640">
	<ele>1389.00</ele>
	<time>2025-04-29T07:15:04.000Z</time>
</trkpt>
<trkpt lat="45.9087950" lon="10.3585770">
	<ele>1389.40</ele>
	<time>2025-04-29T07:15:05.000Z</time>
</trkpt>
<trkpt lat="45.9087820" lon="10.3585780">
	<ele>1389.60</ele>
	<time>2025-04-29T07:15:06.000Z</time>
</trkpt>
<trkpt lat="45.9087690" lon="10.3585810">
	<ele>1389.80</ele>
	<time>2025-04-29T07:15:07.000Z</time>
</trkpt>
<trkpt lat="45.9087560" lon="10.3585790">
	<ele>1390.20</ele>
	<time>2025-04-29T07:15:08.000Z</time>
</trkpt>
<trkpt lat="45.9087340" lon="10.3585750">
	<ele>1390.40</ele>
	<time>2025-04-29T07:15:09.000Z</time>
</trkpt>
<trkpt lat="45.9087250" lon="10.3585750">
	<ele>1390.60</ele>
	<time>2025-04-29T07:15:10.000Z</time>
</trkpt>
<trkpt lat="45.9087220" lon="10.3585750">
	<ele>1390.80</ele>
	<time>2025-04-29T07:15:11.000Z</time>
</trkpt>
<trkpt lat="45.9086990" lon="10.3585770">
	<ele>1391.00</ele>
	<time>2025-04-29T07:15:12.000Z</time>
</trkpt>
<trkpt lat="45.9086920" lon="10.3585790">
	<ele>1391.20</ele>
	<time>2025-04-29T07:15:13.000Z</time>
</trkpt>
<trkpt lat="45.9086540" lon="10.3585830">
	<ele>1391.20</ele>
	<time>2025-04-29T07:15:14.000Z</time>
</trkpt>
<trkpt lat="45.9086400" lon="10.3585930">
	<ele>1391.40</ele>
	<time>2025-04-29T07:15:15.000Z</time>
</trkpt>
<trkpt lat="45.9086340" lon="10.3586060">
	<ele>1391.40</ele>
	<time>2025-04-29T07:15:16.000Z</time>
</trkpt>
<trkpt lat="45.9086280" lon="10.3586280">
	<ele>1391.60</ele>
	<time>2025-04-29T07:15:17.000Z</time>
</trkpt>
<trkpt lat="45.9086230" lon="10.3586480">
	<ele>1391.60</ele>
	<time>2025-04-29T07:15:18.000Z</time>
</trkpt>
<trkpt lat="45.9086290" lon="10.3586600">
	<ele>1391.80</ele>
	<time>2025-04-29T07:15:19.000Z</time>
</trkpt>
<trkpt lat="45.9086380" lon="10.3586730">
	<ele>1392.00</ele>
	<time>2025-04-29T07:15:20.000Z</time>
</trkpt>
<trkpt lat="45.9086500" lon="10.3586940">
	<ele>1392.20</ele>
	<time>2025-04-29T07:15:21.000Z</time>
</trkpt>
<trkpt lat="45.9086530" lon="10.3587060">
	<ele>1392.20</ele>
	<time>2025-04-29T07:15:22.000Z</time>
</trkpt>
<trkpt lat="45.9086590" lon="10.3587240">
	<ele>1392.40</ele>
	<time>2025-04-29T07:15:23.000Z</time>
</trkpt>
<trkpt lat="45.9086510" lon="10.3587370">
	<ele>1392.60</ele>
	<time>2025-04-29T07:15:24.000Z</time>
</trkpt>
<trkpt lat="45.9086520" lon="10.3587600">
	<ele>1392.60</ele>
	<time>2025-04-29T07:15:25.000Z</time>
</trkpt>
<trkpt lat="45.9086470" lon="10.3587790">
	<ele>1392.80</ele>
	<time>2025-04-29T07:15:26.000Z</time>
</trkpt>
<trkpt lat="45.9086610" lon="10.3587980">
	<ele>1392.80</ele>
	<time>2025-04-29T07:15:27.000Z</time>
</trkpt>
<trkpt lat="45.9086610" lon="10.3588050">
	<ele>1393.20</ele>
	<time>2025-04-29T07:15:28.000Z</time>
</trkpt>
<trkpt lat="45.9086600" lon="10.3588060">
	<ele>1393.20</ele>
	<time>2025-04-29T07:15:29.000Z</time>
</trkpt>
<trkpt lat="45.9086230" lon="10.3588080">
	<ele>1393.40</ele>
	<time>2025-04-29T07:15:30.000Z</time>
</trkpt>
<trkpt lat="45.9085900" lon="10.3588170">
	<ele>1393.40</ele>
	<time>2025-04-29T07:15:31.000Z</time>
</trkpt>
<trkpt lat="45.9085640" lon="10.3588260">
	<ele>1393.80</ele>
	<time>2025-04-29T07:15:32.000Z</time>
</trkpt>
<trkpt lat="45.9085560" lon="10.3588390">
	<ele>1394.00</ele>
	<time>2025-04-29T07:15:33.000Z</time>
</trkpt>
<trkpt lat="45.9085540" lon="10.3588490">
	<ele>1394.00</ele>
	<time>2025-04-29T07:15:34.000Z</time>
</trkpt>
<trkpt lat="45.9085520" lon="10.3588640">
	<ele>1394.20</ele>
	<time>2025-04-29T07:15:35.000Z</time>
</trkpt>
<trkpt lat="45.9085620" lon="10.3588800">
	<ele>1394.40</ele>
	<time>2025-04-29T07:15:36.000Z</time>
</trkpt>
<trkpt lat="45.9085650" lon="10.3588990">
	<ele>1394.60</ele>
	<time>2025-04-29T07:15:37.000Z</time>
</trkpt>
<trkpt lat="45.9085680" lon="10.3589180">
	<ele>1394.80</ele>
	<time>2025-04-29T07:15:38.000Z</time>
</trkpt>
<trkpt lat="45.9085660" lon="10.3589290">
	<ele>1395.00</ele>
	<time>2025-04-29T07:15:39.000Z</time>
</trkpt>
<trkpt lat="45.9085670" lon="10.3589340">
	<ele>1395.20</ele>
	<time>2025-04-29T07:15:40.000Z</time>
</trkpt>
<trkpt lat="45.9085650" lon="10.3589390">
	<ele>1395.60</ele>
	<time>2025-04-29T07:15:41.000Z</time>
</trkpt>
<trkpt lat="45.9085590" lon="10.3589470">
	<ele>1395.80</ele>
	<time>2025-04-29T07:15:42.000Z</time>
</trkpt>
<trkpt lat="45.9085560" lon="10.3589570">
	<ele>1396.00</ele>
	<time>2025-04-29T07:15:43.000Z</time>
</trkpt>
<trkpt lat="45.9085490" lon="10.3589600">
	<ele>1396.00</ele>
	<time>2025-04-29T07:15:44.000Z</time>
</trkpt>
<trkpt lat="45.9085330" lon="10.3589650">
	<ele>1396.20</ele>
	<time>2025-04-29T07:15:45.000Z</time>
</trkpt>
<trkpt lat="45.9085100" lon="10.3589710">
	<ele>1396.40</ele>
	<time>2025-04-29T07:15:46.000Z</time>
</trkpt>
<trkpt lat="45.9084990" lon="10.3589790">
	<ele>1396.60</ele>
	<time>2025-04-29T07:15:47.000Z</time>
</trkpt>
<trkpt lat="45.9084930" lon="10.3589960">
	<ele>1396.80</ele>
	<time>2025-04-29T07:15:48.000Z</time>
</trkpt>
<trkpt lat="45.9084940" lon="10.3590120">
	<ele>1397.20</ele>
	<time>2025-04-29T07:15:49.000Z</time>
</trkpt>
<trkpt lat="45.9084890" lon="10.3590280">
	<ele>1397.20</ele>
	<time>2025-04-29T07:15:50.000Z</time>
</trkpt>
<trkpt lat="45.9084770" lon="10.3590400">
	<ele>1397.60</ele>
	<time>2025-04-29T07:15:51.000Z</time>
</trkpt>
<trkpt lat="45.9084690" lon="10.3590600">
	<ele>1397.80</ele>
	<time>2025-04-29T07:15:52.000Z</time>
</trkpt>
<trkpt lat="45.9084690" lon="10.3590650">
	<ele>1398.00</ele>
	<time>2025-04-29T07:15:53.000Z</time>
</trkpt>
<trkpt lat="45.9084710" lon="10.3590880">
	<ele>1398.20</ele>
	<time>2025-04-29T07:15:54.000Z</time>
</trkpt>
<trkpt lat="45.9084740" lon="10.3591120">
	<ele>1398.40</ele>
	<time>2025-04-29T07:15:55.000Z</time>
</trkpt>
<trkpt lat="45.9084790" lon="10.3591300">
	<ele>1398.40</ele>
	<time>2025-04-29T07:15:56.000Z</time>
</trkpt>
<trkpt lat="45.9084770" lon="10.3591460">
	<ele>1398.60</ele>
	<time>2025-04-29T07:15:57.000Z</time>
</trkpt>
<trkpt lat="45.9084800" lon="10.3591570">
	<ele>1398.60</ele>
	<time>2025-04-29T07:15:58.000Z</time>
</trkpt>
<trkpt lat="45.9084750" lon="10.3591690">
	<ele>1398.80</ele>
	<time>2025-04-29T07:15:59.000Z</time>
</trkpt>
<trkpt lat="45.9084620" lon="10.3591750">
	<ele>1399.00</ele>
	<time>2025-04-29T07:16:00.000Z</time>
</trkpt>
<trkpt lat="45.9084460" lon="10.3591780">
	<ele>1399.20</ele>
	<time>2025-04-29T07:16:01.000Z</time>
</trkpt>
<trkpt lat="45.9084420" lon="10.3591830">
	<ele>1399.40</ele>
	<time>2025-04-29T07:16:02.000Z</time>
</trkpt>
<trkpt lat="45.9084360" lon="10.3591870">
	<ele>1399.60</ele>
	<time>2025-04-29T07:16:03.000Z</time>
</trkpt>
<trkpt lat="45.9084290" lon="10.3591980">
	<ele>1399.80</ele>
	<time>2025-04-29T07:16:04.000Z</time>
</trkpt>
<trkpt lat="45.9084260" lon="10.3592140">
	<ele>1400.00</ele>
	<time>2025-04-29T07:16:05.000Z</time>
</trkpt>
<trkpt lat="45.9084270" lon="10.3592250">
	<ele>1400.20</ele>
	<time>2025-04-29T07:16:06.000Z</time>
</trkpt>
<trkpt lat="45.9084230" lon="10.3592320">
	<ele>1400.40</ele>
	<time>2025-04-29T07:16:07.000Z</time>
</trkpt>
<trkpt lat="45.9084190" lon="10.3592370">
	<ele>1400.40</ele>
	<time>2025-04-29T07:16:08.000Z</time>
</trkpt>
<trkpt lat="45.9084260" lon="10.3592440">
	<ele>1400.80</ele>
	<time>2025-04-29T07:16:09.000Z</time>
</trkpt>
<trkpt lat="45.9084190" lon="10.3592490">
	<ele>1400.80</ele>
	<time>2025-04-29T07:16:10.000Z</time>
</trkpt>
<trkpt lat="45.9084160" lon="10.3592570">
	<ele>1401.20</ele>
	<time>2025-04-29T07:16:11.000Z</time>
</trkpt>
<trkpt lat="45.9084120" lon="10.3592710">
	<ele>1401.40</ele>
	<time>2025-04-29T07:16:12.000Z</time>
</trkpt>
<trkpt lat="45.9084060" lon="10.3592820">
	<ele>1401.40</ele>
	<time>2025-04-29T07:16:13.000Z</time>
</trkpt>
<trkpt lat="45.9083880" lon="10.3592840">
	<ele>1401.60</ele>
	<time>2025-04-29T07:16:14.000Z</time>
</trkpt>
<trkpt lat="45.9083840" lon="10.3592910">
	<ele>1402.00</ele>
	<time>2025-04-29T07:16:15.000Z</time>
</trkpt>
<trkpt lat="45.9083820" lon="10.3592950">
	<ele>1402.20</ele>
	<time>2025-04-29T07:16:16.000Z</time>
</trkpt>
<trkpt lat="45.9083730" lon="10.3593030">
	<ele>1402.40</ele>
	<time>2025-04-29T07:16:17.000Z</time>
</trkpt>
<trkpt lat="45.9083680" lon="10.3593110">
	<ele>1402.60</ele>
	<time>2025-04-29T07:16:18.000Z</time>
</trkpt>
<trkpt lat="45.9083580" lon="10.3593200">
	<ele>1403.00</ele>
	<time>2025-04-29T07:16:19.000Z</time>
</trkpt>
<trkpt lat="45.9083460" lon="10.3593270">
	<ele>1403.20</ele>
	<time>2025-04-29T07:16:20.000Z</time>
</trkpt>
<trkpt lat="45.9083440" lon="10.3593320">
	<ele>1403.40</ele>
	<time>2025-04-29T07:16:21.000Z</time>
</trkpt>
<trkpt lat="45.9083450" lon="10.3593380">
	<ele>1403.60</ele>
	<time>2025-04-29T07:16:22.000Z</time>
</trkpt>
<trkpt lat="45.9083470" lon="10.3593530">
	<ele>1403.60</ele>
	<time>2025-04-29T07:16:23.000Z</time>
</trkpt>
<trkpt lat="45.9083450" lon="10.3593660">
	<ele>1403.80</ele>
	<time>2025-04-29T07:16:24.000Z</time>
</trkpt>
<trkpt lat="45.9083370" lon="10.3593740">
	<ele>1404.00</ele>
	<time>2025-04-29T07:16:25.000Z</time>
</trkpt>
<trkpt lat="45.9083300" lon="10.3593870">
	<ele>1404.20</ele>
	<time>2025-04-29T07:16:26.000Z</time>
</trkpt>
<trkpt lat="45.9083220" lon="10.3593950">
	<ele>1404.20</ele>
	<time>2025-04-29T07:16:27.000Z</time>
</trkpt>
<trkpt lat="45.9083160" lon="10.3594070">
	<ele>1404.60</ele>
	<time>2025-04-29T07:16:28.000Z</time>
</trkpt>
<trkpt lat="45.9083170" lon="10.3594180">
	<ele>1404.60</ele>
	<time>2025-04-29T07:16:29.000Z</time>
</trkpt>
<trkpt lat="45.9083120" lon="10.3594230">
	<ele>1404.80</ele>
	<time>2025-04-29T07:16:30.000Z</time>
</trkpt>
<trkpt lat="45.9083160" lon="10.3594370">
	<ele>1405.00</ele>
	<time>2025-04-29T07:16:31.000Z</time>
</trkpt>
<trkpt lat="45.9083120" lon="10.3594500">
	<ele>1405.20</ele>
	<time>2025-04-29T07:16:32.000Z</time>
</trkpt>
<trkpt lat="45.9083060" lon="10.3594530">
	<ele>1405.20</ele>
	<time>2025-04-29T07:16:33.000Z</time>
</trkpt>
<trkpt lat="45.9083030" lon="10.3594560">
	<ele>1405.40</ele>
	<time>2025-04-29T07:16:34.000Z</time>
</trkpt>
<trkpt lat="45.9083000" lon="10.3594670">
	<ele>1405.60</ele>
	<time>2025-04-29T07:16:35.000Z</time>
</trkpt>
<trkpt lat="45.9082870" lon="10.3594680">
	<ele>1405.80</ele>
	<time>2025-04-29T07:16:36.000Z</time>
</trkpt>
<trkpt lat="45.9082820" lon="10.3594770">
	<ele>1406.00</ele>
	<time>2025-04-29T07:16:37.000Z</time>
</trkpt>
<trkpt lat="45.9082780" lon="10.3594870">
	<ele>1406.20</ele>
	<time>2025-04-29T07:16:38.000Z</time>
</trkpt>
<trkpt lat="45.9082810" lon="10.3594960">
	<ele>1406.40</ele>
	<time>2025-04-29T07:16:39.000Z</time>
</trkpt>
<trkpt lat="45.9082740" lon="10.3594970">
	<ele>1406.60</ele>
	<time>2025-04-29T07:16:40.000Z</time>
</trkpt>
<trkpt lat="45.9082700" lon="10.3594990">
	<ele>1406.60</ele>
	<time>2025-04-29T07:16:41.000Z</time>
</trkpt>
<trkpt lat="45.9082710" lon="10.3595060">
	<ele>1407.00</ele>
	<time>2025-04-29T07:16:42.000Z</time>
</trkpt>
<trkpt lat="45.9082680" lon="10.3595110">
	<ele>1407.20</ele>
	<time>2025-04-29T07:16:43.000Z</time>
</trkpt>
<trkpt lat="45.9082610" lon="10.3595200">
	<ele>1407.60</ele>
	<time>2025-04-29T07:16:44.000Z</time>
</trkpt>
<trkpt lat="45.9082550" lon="10.3595250">
	<ele>1407.80</ele>
	<time>2025-04-29T07:16:45.000Z</time>
</trkpt>
<trkpt lat="45.9082480" lon="10.3595300">
	<ele>1407.80</ele>
	<time>2025-04-29T07:16:46.000Z</time>
</trkpt>
<trkpt lat="45.9082380" lon="10.3595310">
	<ele>1408.00</ele>
	<time>2025-04-29T07:16:47.000Z</time>
</trkpt>
<trkpt lat="45.9082320" lon="10.3595310">
	<ele>1408.20</ele>
	<time>2025-04-29T07:16:48.000Z</time>
</trkpt>
<trkpt lat="45.9082250" lon="10.3595260">
	<ele>1408.60</ele>
	<time>2025-04-29T07:16:49.000Z</time>
</trkpt>
<trkpt lat="45.9082020" lon="10.3595120">
	<ele>1408.80</ele>
	<time>2025-04-29T07:16:50.000Z</time>
</trkpt>
<trkpt lat="45.9081870" lon="10.3595110">
	<ele>1409.00</ele>
	<time>2025-04-29T07:16:51.000Z</time>
</trkpt>
<trkpt lat="45.9081860" lon="10.3595180">
	<ele>1409.20</ele>
	<time>2025-04-29T07:16:52.000Z</time>
</trkpt>
<trkpt lat="45.9081850" lon="10.3595320">
	<ele>1409.40</ele>
	<time>2025-04-29T07:16:53.000Z</time>
</trkpt>
<trkpt lat="45.9081860" lon="10.3595430">
	<ele>1409.40</ele>
	<time>2025-04-29T07:16:54.000Z</time>
</trkpt>
<trkpt lat="45.9081820" lon="10.3595530">
	<ele>1409.60</ele>
	<time>2025-04-29T07:16:55.000Z</time>
</trkpt>
<trkpt lat="45.9081830" lon="10.3595620">
	<ele>1409.60</ele>
	<time>2025-04-29T07:16:56.000Z</time>
</trkpt>
<trkpt lat="45.9081930" lon="10.3595750">
	<ele>1409.60</ele>
	<time>2025-04-29T07:16:57.000Z</time>
</trkpt>
<trkpt lat="45.9082000" lon="10.3595830">
	<ele>1409.80</ele>
	<time>2025-04-29T07:16:58.000Z</time>
</trkpt>
<trkpt lat="45.9081980" lon="10.3595820">
	<ele>1410.00</ele>
	<time>2025-04-29T07:16:59.000Z</time>
</trkpt>
<trkpt lat="45.9081910" lon="10.3595840">
	<ele>1410.20</ele>
	<time>2025-04-29T07:17:00.000Z</time>
</trkpt>
<trkpt lat="45.9081900" lon="10.3595830">
	<ele>1410.40</ele>
	<time>2025-04-29T07:17:01.000Z</time>
</trkpt>
<trkpt lat="45.9081900" lon="10.3595980">
	<ele>1410.60</ele>
	<time>2025-04-29T07:17:02.000Z</time>
</trkpt>
<trkpt lat="45.9081880" lon="10.3596160">
	<ele>1410.80</ele>
	<time>2025-04-29T07:17:03.000Z</time>
</trkpt>
<trkpt lat="45.9081830" lon="10.3596280">
	<ele>1411.00</ele>
	<time>2025-04-29T07:17:04.000Z</time>
</trkpt>
<trkpt lat="45.9081780" lon="10.3596350">
	<ele>1411.20</ele>
	<time>2025-04-29T07:17:05.000Z</time>
</trkpt>
<trkpt lat="45.9081780" lon="10.3596390">
	<ele>1411.40</ele>
	<time>2025-04-29T07:17:06.000Z</time>
</trkpt>
<trkpt lat="45.9081690" lon="10.3596480">
	<ele>1411.60</ele>
	<time>2025-04-29T07:17:07.000Z</time>
</trkpt>
<trkpt lat="45.9081600" lon="10.3596610">
	<ele>1411.80</ele>
	<time>2025-04-29T07:17:08.000Z</time>
</trkpt>
<trkpt lat="45.9081500" lon="10.3596690">
	<ele>1412.00</ele>
	<time>2025-04-29T07:17:09.000Z</time>
</trkpt>
<trkpt lat="45.9081460" lon="10.3596780">
	<ele>1412.20</ele>
	<time>2025-04-29T07:17:10.000Z</time>
</trkpt>
<trkpt lat="45.9081380" lon="10.3596880">
	<ele>1412.20</ele>
	<time>2025-04-29T07:17:11.000Z</time>
</trkpt>
<trkpt lat="45.9081300" lon="10.3596970">
	<ele>1412.40</ele>
	<time>2025-04-29T07:17:12.000Z</time>
</trkpt>
<trkpt lat="45.9081140" lon="10.3597010">
	<ele>1412.60</ele>
	<time>2025-04-29T07:17:13.000Z</time>
</trkpt>
<trkpt lat="45.9081020" lon="10.3597000">
	<ele>1412.80</ele>
	<time>2025-04-29T07:17:14.000Z</time>
</trkpt>
<trkpt lat="45.9080920" lon="10.3597060">
	<ele>1413.00</ele>
	<time>2025-04-29T07:17:15.000Z</time>
</trkpt>
<trkpt lat="45.9080820" lon="10.3597110">
	<ele>1413.20</ele>
	<time>2025-04-29T07:17:16.000Z</time>
</trkpt>
<trkpt lat="45.9080730" lon="10.3597180">
	<ele>1413.40</ele>
	<time>2025-04-29T07:17:17.000Z</time>
</trkpt>
<trkpt lat="45.9080830" lon="10.3597220">
	<ele>1413.40</ele>
	<time>2025-04-29T07:17:18.000Z</time>
</trkpt>
<trkpt lat="45.9080760" lon="10.3597160">
	<ele>1413.60</ele>
	<time>2025-04-29T07:17:19.000Z</time>
</trkpt>
<trkpt lat="45.9080620" lon="10.3597090">
	<ele>1413.60</ele>
	<time>2025-04-29T07:17:20.000Z</time>
</trkpt>
<trkpt lat="45.9080500" lon="10.3597080">
	<ele>1413.80</ele>
	<time>2025-04-29T07:17:21.000Z</time>
</trkpt>
<trkpt lat="45.9080520" lon="10.3597140">
	<ele>1414.00</ele>
	<time>2025-04-29T07:17:22.000Z</time>
</trkpt>
<trkpt lat="45.9080390" lon="10.3597140">
	<ele>1414.20</ele>
	<time>2025-04-29T07:17:23.000Z</time>
</trkpt>
<trkpt lat="45.9080390" lon="10.3597180">
	<ele>1414.20</ele>
	<time>2025-04-29T07:17:24.000Z</time>
</trkpt>
<trkpt lat="45.9080370" lon="10.3597200">
	<ele>1414.40</ele>
	<time>2025-04-29T07:17:25.000Z</time>
</trkpt>
<trkpt lat="45.9080340" lon="10.3597290">
	<ele>1414.60</ele>
	<time>2025-04-29T07:17:26.000Z</time>
</trkpt>
<trkpt lat="45.9080320" lon="10.3597400">
	<ele>1414.60</ele>
	<time>2025-04-29T07:17:27.000Z</time>
</trkpt>
<trkpt lat="45.9080300" lon="10.3597530">
	<ele>1414.80</ele>
	<time>2025-04-29T07:17:28.000Z</time>
</trkpt>
<trkpt lat="45.9080200" lon="10.3597620">
	<ele>1414.80</ele>
	<time>2025-04-29T07:17:29.000Z</time>
</trkpt>
<trkpt lat="45.9080170" lon="10.3597660">
	<ele>1415.20</ele>
	<time>2025-04-29T07:17:30.000Z</time>
</trkpt>
<trkpt lat="45.9080090" lon="10.3597680">
	<ele>1415.40</ele>
	<time>2025-04-29T07:17:31.000Z</time>
</trkpt>
<trkpt lat="45.9079940" lon="10.3597700">
	<ele>1415.60</ele>
	<time>2025-04-29T07:17:32.000Z</time>
</trkpt>
<trkpt lat="45.9079930" lon="10.3597780">
	<ele>1415.80</ele>
	<time>2025-04-29T07:17:33.000Z</time>
</trkpt>
<trkpt lat="45.9079900" lon="10.3597840">
	<ele>1415.80</ele>
	<time>2025-04-29T07:17:34.000Z</time>
</trkpt>
<trkpt lat="45.9079870" lon="10.3597830">
	<ele>1416.20</ele>
	<time>2025-04-29T07:17:35.000Z</time>
</trkpt>
<trkpt lat="45.9079810" lon="10.3597830">
	<ele>1416.40</ele>
	<time>2025-04-29T07:17:36.000Z</time>
</trkpt>
<trkpt lat="45.9079820" lon="10.3597850">
	<ele>1416.40</ele>
	<time>2025-04-29T07:17:37.000Z</time>
</trkpt>
<trkpt lat="45.9079790" lon="10.3597840">
	<ele>1416.60</ele>
	<time>2025-04-29T07:17:38.000Z</time>
</trkpt>
<trkpt lat="45.9079780" lon="10.3597870">
	<ele>1416.80</ele>
	<time>2025-04-29T07:17:39.000Z</time>
</trkpt>
<trkpt lat="45.9079790" lon="10.3597980">
	<ele>1416.80</ele>
	<time>2025-04-29T07:17:40.000Z</time>
</trkpt>
<trkpt lat="45.9079840" lon="10.3598070">
	<ele>1417.00</ele>
	<time>2025-04-29T07:17:41.000Z</time>
</trkpt>
<trkpt lat="45.9079840" lon="10.3598180">
	<ele>1417.20</ele>
	<time>2025-04-29T07:17:42.000Z</time>
</trkpt>
<trkpt lat="45.9079780" lon="10.3598190">
	<ele>1417.40</ele>
	<time>2025-04-29T07:17:43.000Z</time>
</trkpt>
<trkpt lat="45.9079740" lon="10.3598250">
	<ele>1417.40</ele>
	<time>2025-04-29T07:17:44.000Z</time>
</trkpt>
<trkpt lat="45.9079660" lon="10.3598250">
	<ele>1417.60</ele>
	<time>2025-04-29T07:17:45.000Z</time>
</trkpt>
<trkpt lat="45.9079590" lon="10.3598270">
	<ele>1417.80</ele>
	<time>2025-04-29T07:17:46.000Z</time>
</trkpt>
<trkpt lat="45.9079570" lon="10.3598310">
	<ele>1417.80</ele>
	<time>2025-04-29T07:17:47.000Z</time>
</trkpt>
<trkpt lat="45.9079600" lon="10.3598370">
	<ele>1418.00</ele>
	<time>2025-04-29T07:17:48.000Z</time>
</trkpt>
<trkpt lat="45.9079590" lon="10.3598440">
	<ele>1418.20</ele>
	<time>2025-04-29T07:17:49.000Z</time>
</trkpt>
<trkpt lat="45.9079540" lon="10.3598460">
	<ele>1418.20</ele>
	<time>2025-04-29T07:17:50.000Z</time>
</trkpt>
<trkpt lat="45.9079460" lon="10.3598410">
	<ele>1418.40</ele>
	<time>2025-04-29T07:17:51.000Z</time>
</trkpt>
<trkpt lat="45.9079410" lon="10.3598360">
	<ele>1418.40</ele>
	<time>2025-04-29T07:17:52.000Z</time>
</trkpt>
<trkpt lat="45.9079400" lon="10.3598320">
	<ele>1418.40</ele>
	<time>2025-04-29T07:17:53.000Z</time>
</trkpt>
<trkpt lat="45.9079410" lon="10.3598320">
	<ele>1418.60</ele>
	<time>2025-04-29T07:17:54.000Z</time>
</trkpt>
<trkpt lat="45.9079550" lon="10.3598370">
	<ele>1418.60</ele>
	<time>2025-04-29T07:17:55.000Z</time>
</trkpt>
<trkpt lat="45.9079670" lon="10.3598440">
	<ele>1418.80</ele>
	<time>2025-04-29T07:17:56.000Z</time>
</trkpt>
<trkpt lat="45.9079580" lon="10.3598370">
	<ele>1418.80</ele>
	<time>2025-04-29T07:17:57.000Z</time>
</trkpt>
<trkpt lat="45.9079380" lon="10.3598280">
	<ele>1419.20</ele>
	<time>2025-04-29T07:17:58.000Z</time>
</trkpt>
<trkpt lat="45.9079190" lon="10.3598200">
	<ele>1419.40</ele>
	<time>2025-04-29T07:17:59.000Z</time>
</trkpt>
<trkpt lat="45.9079070" lon="10.3598120">
	<ele>1419.40</ele>
	<time>2025-04-29T07:18:00.000Z</time>
</trkpt>
<trkpt lat="45.9079070" lon="10.3598070">
	<ele>1419.60</ele>
	<time>2025-04-29T07:18:01.000Z</time>
</trkpt>
<trkpt lat="45.9079080" lon="10.3597980">
	<ele>1419.60</ele>
	<time>2025-04-29T07:18:02.000Z</time>
</trkpt>
<trkpt lat="45.9079030" lon="10.3597880">
	<ele>1419.80</ele>
	<time>2025-04-29T07:18:03.000Z</time>
</trkpt>
<trkpt lat="45.9078940" lon="10.3597790">
	<ele>1419.80</ele>
	<time>2025-04-29T07:18:04.000Z</time>
</trkpt>
<trkpt lat="45.9078910" lon="10.3597720">
	<ele>1420.00</ele>
	<time>2025-04-29T07:18:05.000Z</time>
</trkpt>
<trkpt lat="45.9078780" lon="10.3597620">
	<ele>1420.20</ele>
	<time>2025-04-29T07:18:06.000Z</time>
</trkpt>
<trkpt lat="45.9078710" lon="10.3597490">
	<ele>1420.40</ele>
	<time>2025-04-29T07:18:07.000Z</time>
</trkpt>
<trkpt lat="45.9078640" lon="10.3597330">
	<ele>1420.60</ele>
	<time>2025-04-29T07:18:08.000Z</time>
</trkpt>
<trkpt lat="45.9078460" lon="10.3597240">
	<ele>1420.60</ele>
	<time>2025-04-29T07:18:09.000Z</time>
</trkpt>
<trkpt lat="45.9078540" lon="10.3597200">
	<ele>1421.00</ele>
	<time>2025-04-29T07:18:10.000Z</time>
</trkpt>
<trkpt lat="45.9078530" lon="10.3597180">
	<ele>1421.20</ele>
	<time>2025-04-29T07:18:11.000Z</time>
</trkpt>
<trkpt lat="45.9078510" lon="10.3597150">
	<ele>1421.20</ele>
	<time>2025-04-29T07:18:12.000Z</time>
</trkpt>
<trkpt lat="45.9078550" lon="10.3597140">
	<ele>1421.60</ele>
	<time>2025-04-29T07:18:13.000Z</time>
</trkpt>
<trkpt lat="45.9078780" lon="10.3597140">
	<ele>1421.80</ele>
	<time>2025-04-29T07:18:14.000Z</time>
</trkpt>
<trkpt lat="45.9078950" lon="10.3597110">
	<ele>1421.80</ele>
	<time>2025-04-29T07:18:15.000Z</time>
</trkpt>
<trkpt lat="45.9078980" lon="10.3597080">
	<ele>1422.00</ele>
	<time>2025-04-29T07:18:16.000Z</time>
</trkpt>
<trkpt lat="45.9078970" lon="10.3597030">
	<ele>1422.20</ele>
	<time>2025-04-29T07:18:17.000Z</time>
</trkpt>
<trkpt lat="45.9078950" lon="10.3596930">
	<ele>1422.40</ele>
	<time>2025-04-29T07:18:18.000Z</time>
</trkpt>
<trkpt lat="45.9078990" lon="10.3596860">
	<ele>1422.40</ele>
	<time>2025-04-29T07:18:19.000Z</time>
</trkpt>
<trkpt lat="45.9078960" lon="10.3596790">
	<ele>1422.40</ele>
	<time>2025-04-29T07:18:20.000Z</time>
</trkpt>
<trkpt lat="45.9078760" lon="10.3596700">
	<ele>1422.60</ele>
	<time>2025-04-29T07:18:21.000Z</time>
</trkpt>
<trkpt lat="45.9078520" lon="10.3596540">
	<ele>1422.80</ele>
	<time>2025-04-29T07:18:22.000Z</time>
</trkpt>
<trkpt lat="45.9078310" lon="10.3596340">
	<ele>1423.00</ele>
	<time>2025-04-29T07:18:23.000Z</time>
</trkpt>
<trkpt lat="45.9078190" lon="10.3596160">
	<ele>1423.00</ele>
	<time>2025-04-29T07:18:24.000Z</time>
</trkpt>
<trkpt lat="45.9078140" lon="10.3595990">
	<ele>1423.40</ele>
	<time>2025-04-29T07:18:25.000Z</time>
</trkpt>
<trkpt lat="45.9078080" lon="10.3595860">
	<ele>1423.60</ele>
	<time>2025-04-29T07:18:26.000Z</time>
</trkpt>
<trkpt lat="45.9078030" lon="10.3595740">
	<ele>1423.80</ele>
	<time>2025-04-29T07:18:27.000Z</time>
</trkpt>
<trkpt lat="45.9078000" lon="10.3595610">
	<ele>1424.00</ele>
	<time>2025-04-29T07:18:28.000Z</time>
</trkpt>
<trkpt lat="45.9077890" lon="10.3595470">
	<ele>1424.00</ele>
	<time>2025-04-29T07:18:29.000Z</time>
</trkpt>
<trkpt lat="45.9077890" lon="10.3595360">
	<ele>1424.00</ele>
	<time>2025-04-29T07:18:30.000Z</time>
</trkpt>
<trkpt lat="45.9077910" lon="10.3595260">
	<ele>1424.20</ele>
	<time>2025-04-29T07:18:31.000Z</time>
</trkpt>
<trkpt lat="45.9077940" lon="10.3595170">
	<ele>1424.40</ele>
	<time>2025-04-29T07:18:32.000Z</time>
</trkpt>
<trkpt lat="45.9077970" lon="10.3595090">
	<ele>1424.60</ele>
	<time>2025-04-29T07:18:33.000Z</time>
</trkpt>
<trkpt lat="45.9077980" lon="10.3595010">
	<ele>1424.60</ele>
	<time>2025-04-29T07:18:34.000Z</time>
</trkpt>
<trkpt lat="45.9077930" lon="10.3594940">
	<ele>1425.00</ele>
	<time>2025-04-29T07:18:35.000Z</time>
</trkpt>
<trkpt lat="45.9077850" lon="10.3594900">
	<ele>1425.20</ele>
	<time>2025-04-29T07:18:36.000Z</time>
</trkpt>
<trkpt lat="45.9077820" lon="10.3594870">
	<ele>1425.20</ele>
	<time>2025-04-29T07:18:37.000Z</time>
</trkpt>
<trkpt lat="45.9077730" lon="10.3594820">
	<ele>1425.40</ele>
	<time>2025-04-29T07:18:38.000Z</time>
</trkpt>
<trkpt lat="45.9077580" lon="10.3594750">
	<ele>1425.40</ele>
	<time>2025-04-29T07:18:39.000Z</time>
</trkpt>
<trkpt lat="45.9077450" lon="10.3594690">
	<ele>1425.60</ele>
	<time>2025-04-29T07:18:40.000Z</time>
</trkpt>
<trkpt lat="45.9077330" lon="10.3594640">
	<ele>1426.00</ele>
	<time>2025-04-29T07:18:41.000Z</time>
</trkpt>
<trkpt lat="45.9077290" lon="10.3594570">
	<ele>1426.00</ele>
	<time>2025-04-29T07:18:42.000Z</time>
</trkpt>
<trkpt lat="45.9077200" lon="10.3594540">
	<ele>1426.40</ele>
	<time>2025-04-29T07:18:43.000Z</time>
</trkpt>
<trkpt lat="45.9077180" lon="10.3594500">
	<ele>1426.40</ele>
	<time>2025-04-29T07:18:44.000Z</time>
</trkpt>
<trkpt lat="45.9077170" lon="10.3594460">
	<ele>1426.60</ele>
	<time>2025-04-29T07:18:45.000Z</time>
</trkpt>
<trkpt lat="45.9077130" lon="10.3594350">
	<ele>1426.80</ele>
	<time>2025-04-29T07:18:46.000Z</time>
</trkpt>
<trkpt lat="45.9077000" lon="10.3594220">
	<ele>1427.00</ele>
	<time>2025-04-29T07:18:47.000Z</time>
</trkpt>
<trkpt lat="45.9076900" lon="10.3594090">
	<ele>1427.00</ele>
	<time>2025-04-29T07:18:48.000Z</time>
</trkpt>
<trkpt lat="45.9076880" lon="10.3593980">
	<ele>1427.20</ele>
	<time>2025-04-29T07:18:49.000Z</time>
</trkpt>
<trkpt lat="45.9076960" lon="10.3593880">
	<ele>1427.40</ele>
	<time>2025-04-29T07:18:50.000Z</time>
</trkpt>
<trkpt lat="45.9077070" lon="10.3593870">
	<ele>1427.60</ele>
	<time>2025-04-29T07:18:51.000Z</time>
</trkpt>
<trkpt lat="45.9077070" lon="10.3593830">
	<ele>1427.80</ele>
	<time>2025-04-29T07:18:52.000Z</time>
</trkpt>
<trkpt lat="45.9077000" lon="10.3593720">
	<ele>1428.00</ele>
	<time>2025-04-29T07:18:53.000Z</time>
</trkpt>
<trkpt lat="45.9076870" lon="10.3593630">
	<ele>1428.40</ele>
	<time>2025-04-29T07:18:54.000Z</time>
</trkpt>
<trkpt lat="45.9076720" lon="10.3593560">
	<ele>1428.40</ele>
	<time>2025-04-29T07:18:55.000Z</time>
</trkpt>
<trkpt lat="45.9076660" lon="10.3593520">
	<ele>1428.60</ele>
	<time>2025-04-29T07:18:56.000Z</time>
</trkpt>
<trkpt lat="45.9076640" lon="10.3593470">
	<ele>1428.60</ele>
	<time>2025-04-29T07:18:57.000Z</time>
</trkpt>
<trkpt lat="45.9076580" lon="10.3593390">
	<ele>1428.80</ele>
	<time>2025-04-29T07:18:58.000Z</time>
</trkpt>
<trkpt lat="45.9076560" lon="10.3593290">
	<ele>1429.00</ele>
	<time>2025-04-29T07:18:59.000Z</time>
</trkpt>
<trkpt lat="45.9076650" lon="10.3593250">
	<ele>1429.20</ele>
	<time>2025-04-29T07:19:00.000Z</time>
</trkpt>
<trkpt lat="45.9076690" lon="10.3593150">
	<ele>1429.20</ele>
	<time>2025-04-29T07:19:01.000Z</time>
</trkpt>
<trkpt lat="45.9076670" lon="10.3593050">
	<ele>1429.40</ele>
	<time>2025-04-29T07:19:02.000Z</time>
</trkpt>
<trkpt lat="45.9076760" lon="10.3592980">
	<ele>1429.60</ele>
	<time>2025-04-29T07:19:03.000Z</time>
</trkpt>
<trkpt lat="45.9076790" lon="10.3592900">
	<ele>1429.60</ele>
	<time>2025-04-29T07:19:04.000Z</time>
</trkpt>
<trkpt lat="45.9076750" lon="10.3592800">
	<ele>1430.00</ele>
	<time>2025-04-29T07:19:05.000Z</time>
</trkpt>
<trkpt lat="45.9076660" lon="10.3592680">
	<ele>1430.20</ele>
	<time>2025-04-29T07:19:06.000Z</time>
</trkpt>
<trkpt lat="45.9076520" lon="10.3592530">
	<ele>1430.40</ele>
	<time>2025-04-29T07:19:07.000Z</time>
</trkpt>
<trkpt lat="45.9076430" lon="10.3592380">
	<ele>1430.40</ele>
	<time>2025-04-29T07:19:08.000Z</time>
</trkpt>
<trkpt lat="45.9076390" lon="10.3592300">
	<ele>1430.80</ele>
	<time>2025-04-29T07:19:09.000Z</time>
</trkpt>
<trkpt lat="45.9076370" lon="10.3592210">
	<ele>1430.80</ele>
	<time>2025-04-29T07:19:10.000Z</time>
</trkpt>
<trkpt lat="45.9076280" lon="10.3592090">
	<ele>1431.00</ele>
	<time>2025-04-29T07:19:11.000Z</time>
</trkpt>
<trkpt lat="45.9076240" lon="10.3591990">
	<ele>1431.20</ele>
	<time>2025-04-29T07:19:12.000Z</time>
</trkpt>
<trkpt lat="45.9076300" lon="10.3591910">
	<ele>1431.40</ele>
	<time>2025-04-29T07:19:13.000Z</time>
</trkpt>
<trkpt lat="45.9076280" lon="10.3591820">
	<ele>1431.60</ele>
	<time>2025-04-29T07:19:14.000Z</time>
</trkpt>
<trkpt lat="45.9076170" lon="10.3591730">
	<ele>1431.60</ele>
	<time>2025-04-29T07:19:15.000Z</time>
</trkpt>
<trkpt lat="45.9076160" lon="10.3591680">
	<ele>1431.80</ele>
	<time>2025-04-29T07:19:16.000Z</time>
</trkpt>
<trkpt lat="45.9076240" lon="10.3591620">
	<ele>1432.00</ele>
	<time>2025-04-29T07:19:17.000Z</time>
</trkpt>
<trkpt lat="45.9076300" lon="10.3591500">
	<ele>1432.00</ele>
	<time>2025-04-29T07:19:18.000Z</time>
</trkpt>
<trkpt lat="45.9076350" lon="10.3591360">
	<ele>1432.20</ele>
	<time>2025-04-29T07:19:19.000Z</time>
</trkpt>
<trkpt lat="45.9076400" lon="10.3591280">
	<ele>1432.20</ele>
	<time>2025-04-29T07:19:20.000Z</time>
</trkpt>
<trkpt lat="45.9076330" lon="10.3591200">
	<ele>1432.40</ele>
	<time>2025-04-29T07:19:21.000Z</time>
</trkpt>
<trkpt lat="45.9076290" lon="10.3591160">
	<ele>1432.60</ele>
	<time>2025-04-29T07:19:22.000Z</time>
</trkpt>
<trkpt lat="45.9076180" lon="10.3591170">
	<ele>1432.80</ele>
	<time>2025-04-29T07:19:23.000Z</time>
</trkpt>
<trkpt lat="45.9076080" lon="10.3591150">
	<ele>1433.00</ele>
	<time>2025-04-29T07:19:24.000Z</time>
</trkpt>
<trkpt lat="45.9076010" lon="10.3591120">
	<ele>1433.00</ele>
	<time>2025-04-29T07:19:25.000Z</time>
</trkpt>
<trkpt lat="45.9075890" lon="10.3591040">
	<ele>1433.20</ele>
	<time>2025-04-29T07:19:26.000Z</time>
</trkpt>
<trkpt lat="45.9075830" lon="10.3590990">
	<ele>1433.40</ele>
	<time>2025-04-29T07:19:27.000Z</time>
</trkpt>
<trkpt lat="45.9075840" lon="10.3590980">
	<ele>1433.40</ele>
	<time>2025-04-29T07:19:28.000Z</time>
</trkpt>
<trkpt lat="45.9075810" lon="10.3590990">
	<ele>1433.60</ele>
	<time>2025-04-29T07:19:29.000Z</time>
</trkpt>
<trkpt lat="45.9075790" lon="10.3590990">
	<ele>1433.80</ele>
	<time>2025-04-29T07:19:30.000Z</time>
</trkpt>
<trkpt lat="45.9075690" lon="10.3590840">
	<ele>1434.00</ele>
	<time>2025-04-29T07:19:31.000Z</time>
</trkpt>
<trkpt lat="45.9075640" lon="10.3590820">
	<ele>1434.00</ele>
	<time>2025-04-29T07:19:32.000Z</time>
</trkpt>
<trkpt lat="45.9075610" lon="10.3590790">
	<ele>1434.20</ele>
	<time>2025-04-29T07:19:33.000Z</time>
</trkpt>
<trkpt lat="45.9075410" lon="10.3590640">
	<ele>1434.40</ele>
	<time>2025-04-29T07:19:34.000Z</time>
</trkpt>
<trkpt lat="45.9075380" lon="10.3590560">
	<ele>1434.40</ele>
	<time>2025-04-29T07:19:35.000Z</time>
</trkpt>
<trkpt lat="45.9075320" lon="10.3590460">
	<ele>1434.60</ele>
	<time>2025-04-29T07:19:36.000Z</time>
</trkpt>
<trkpt lat="45.9075280" lon="10.3590460">
	<ele>1434.80</ele>
	<time>2025-04-29T07:19:37.000Z</time>
</trkpt>
<trkpt lat="45.9075210" lon="10.3590430">
	<ele>1435.20</ele>
	<time>2025-04-29T07:19:38.000Z</time>
</trkpt>
<trkpt lat="45.9075330" lon="10.3590450">
	<ele>1435.40</ele>
	<time>2025-04-29T07:19:39.000Z</time>
</trkpt>
<trkpt lat="45.9075320" lon="10.3590430">
	<ele>1435.40</ele>
	<time>2025-04-29T07:19:40.000Z</time>
</trkpt>
<trkpt lat="45.9075310" lon="10.3590420">
	<ele>1435.60</ele>
	<time>2025-04-29T07:19:41.000Z</time>
</trkpt>
<trkpt lat="45.9075320" lon="10.3590450">
	<ele>1435.80</ele>
	<time>2025-04-29T07:19:42.000Z</time>
</trkpt>
<trkpt lat="45.9075390" lon="10.3590390">
	<ele>1435.80</ele>
	<time>2025-04-29T07:19:43.000Z</time>
</trkpt>
<trkpt lat="45.9075380" lon="10.3590370">
	<ele>1436.00</ele>
	<time>2025-04-29T07:19:44.000Z</time>
</trkpt>
<trkpt lat="45.9075440" lon="10.3590380">
	<ele>1436.20</ele>
	<time>2025-04-29T07:19:45.000Z</time>
</trkpt>
<trkpt lat="45.9075430" lon="10.3590330">
	<ele>1436.20</ele>
	<time>2025-04-29T07:19:46.000Z</time>
</trkpt>
<trkpt lat="45.9075500" lon="10.3590270">
	<ele>1436.40</ele>
	<time>2025-04-29T07:19:47.000Z</time>
</trkpt>
<trkpt lat="45.9075510" lon="10.3590270">
	<ele>1436.40</ele>
	<time>2025-04-29T07:19:48.000Z</time>
</trkpt>
<trkpt lat="45.9075480" lon="10.3590200">
	<ele>1436.60</ele>
	<time>2025-04-29T07:19:49.000Z</time>
</trkpt>
<trkpt lat="45.9075200" lon="10.3590090">
	<ele>1436.60</ele>
	<time>2025-04-29T07:19:50.000Z</time>
</trkpt>
<trkpt lat="45.9074890" lon="10.3589940">
	<ele>1436.80</ele>
	<time>2025-04-29T07:19:51.000Z</time>
</trkpt>
<trkpt lat="45.9074800" lon="10.3589920">
	<ele>1436.80</ele>
	<time>2025-04-29T07:19:52.000Z</time>
</trkpt>
<trkpt lat="45.9074600" lon="10.3589760">
	<ele>1437.00</ele>
	<time>2025-04-29T07:19:53.000Z</time>
</trkpt>
<trkpt lat="45.9074460" lon="10.3589620">
	<ele>1437.00</ele>
	<time>2025-04-29T07:19:54.000Z</time>
</trkpt>
<trkpt lat="45.9074420" lon="10.3589470">
	<ele>1437.00</ele>
	<time>2025-04-29T07:19:55.000Z</time>
</trkpt>
<trkpt lat="45.9074380" lon="10.3589420">
	<ele>1437.00</ele>
	<time>2025-04-29T07:19:56.000Z</time>
</trkpt>
<trkpt lat="45.9074250" lon="10.3589360">
	<ele>1437.20</ele>
	<time>2025-04-29T07:19:57.000Z</time>
</trkpt>
<trkpt lat="45.9074140" lon="10.3589220">
	<ele>1437.40</ele>
	<time>2025-04-29T07:19:58.000Z</time>
</trkpt>
<trkpt lat="45.9074090" lon="10.3589200">
	<ele>1437.40</ele>
	<time>2025-04-29T07:19:59.000Z</time>
</trkpt>
<trkpt lat="45.9074030" lon="10.3589140">
	<ele>1437.60</ele>
	<time>2025-04-29T07:20:00.000Z</time>
</trkpt>
<trkpt lat="45.9074040" lon="10.3589140">
	<ele>1437.80</ele>
	<time>2025-04-29T07:20:01.000Z</time>
</trkpt>
<trkpt lat="45.9074060" lon="10.3589090">
	<ele>1438.00</ele>
	<time>2025-04-29T07:20:02.000Z</time>
</trkpt>
<trkpt lat="45.9074220" lon="10.3589060">
	<ele>1438.00</ele>
	<time>2025-04-29T07:20:03.000Z</time>
</trkpt>
<trkpt lat="45.9074430" lon="10.3589070">
	<ele>1438.40</ele>
	<time>2025-04-29T07:20:04.000Z</time>
</trkpt>
<trkpt lat="45.9074420" lon="10.3589030">
	<ele>1438.80</ele>
	<time>2025-04-29T07:20:05.000Z</time>
</trkpt>
<trkpt lat="45.9074420" lon="10.3588950">
	<ele>1439.00</ele>
	<time>2025-04-29T07:20:06.000Z</time>
</trkpt>
<trkpt lat="45.9074410" lon="10.3588910">
	<ele>1439.00</ele>
	<time>2025-04-29T07:20:07.000Z</time>
</trkpt>
<trkpt lat="45.9074410" lon="10.3588940">
	<ele>1439.20</ele>
	<time>2025-04-29T07:20:08.000Z</time>
</trkpt>
<trkpt lat="45.9074400" lon="10.3588960">
	<ele>1439.40</ele>
	<time>2025-04-29T07:20:09.000Z</time>
</trkpt>
<trkpt lat="45.9074340" lon="10.3588910">
	<ele>1439.40</ele>
	<time>2025-04-29T07:20:10.000Z</time>
</trkpt>
<trkpt lat="45.9074230" lon="10.3588850">
	<ele>1439.60</ele>
	<time>2025-04-29T07:20:11.000Z</time>
</trkpt>
<trkpt lat="45.9074240" lon="10.3588820">
	<ele>1439.60</ele>
	<time>2025-04-29T07:20:12.000Z</time>
</trkpt>
<trkpt lat="45.9074240" lon="10.3588810">
	<ele>1439.60</ele>
	<time>2025-04-29T07:20:13.000Z</time>
</trkpt>
<trkpt lat="45.9074240" lon="10.3588810">
	<ele>1439.80</ele>
	<time>2025-04-29T07:20:14.000Z</time>
</trkpt>
<trkpt lat="45.9074250" lon="10.3588810">
	<ele>1440.00</ele>
	<time>2025-04-29T07:20:15.000Z</time>
</trkpt>
<trkpt lat="45.9074260" lon="10.3588770">
	<ele>1440.00</ele>
	<time>2025-04-29T07:20:16.000Z</time>
</trkpt>
<trkpt lat="45.9074270" lon="10.3588700">
	<ele>1440.20</ele>
	<time>2025-04-29T07:20:17.000Z</time>
</trkpt>
<trkpt lat="45.9074230" lon="10.3588590">
	<ele>1440.20</ele>
	<time>2025-04-29T07:20:18.000Z</time>
</trkpt>
<trkpt lat="45.9074200" lon="10.3588510">
	<ele>1440.40</ele>
	<time>2025-04-29T07:20:19.000Z</time>
</trkpt>
<trkpt lat="45.9074190" lon="10.3588440">
	<ele>1440.60</ele>
	<time>2025-04-29T07:20:20.000Z</time>
</trkpt>
<trkpt lat="45.9074000" lon="10.3588370">
	<ele>1440.60</ele>
	<time>2025-04-29T07:20:21.000Z</time>
</trkpt>
<trkpt lat="45.9073900" lon="10.3588330">
	<ele>1440.80</ele>
	<time>2025-04-29T07:20:22.000Z</time>
</trkpt>
<trkpt lat="45.9073720" lon="10.3588290">
	<ele>1441.00</ele>
	<time>2025-04-29T07:20:23.000Z</time>
</trkpt>
<trkpt lat="45.9073550" lon="10.3588190">
	<ele>1441.00</ele>
	<time>2025-04-29T07:20:24.000Z</time>
</trkpt>
<trkpt lat="45.9073310" lon="10.3588080">
	<ele>1441.20</ele>
	<time>2025-04-29T07:20:25.000Z</time>
</trkpt>
<trkpt lat="45.9072970" lon="10.3587910">
	<ele>1441.40</ele>
	<time>2025-04-29T07:20:26.000Z</time>
</trkpt>
<trkpt lat="45.9072740" lon="10.3587810">
	<ele>1441.60</ele>
	<time>2025-04-29T07:20:27.000Z</time>
</trkpt>
<trkpt lat="45.9072630" lon="10.3587770">
	<ele>1441.60</ele>
	<time>2025-04-29T07:20:28.000Z</time>
</trkpt>
<trkpt lat="45.9072620" lon="10.3587710">
	<ele>1441.80</ele>
	<time>2025-04-29T07:20:29.000Z</time>
</trkpt>
<trkpt lat="45.9072600" lon="10.3587610">
	<ele>1442.00</ele>
	<time>2025-04-29T07:20:30.000Z</time>
</trkpt>
<trkpt lat="45.9072560" lon="10.3587500">
	<ele>1442.00</ele>
	<time>2025-04-29T07:20:31.000Z</time>
</trkpt>
<trkpt lat="45.9072520" lon="10.3587380">
	<ele>1442.20</ele>
	<time>2025-04-29T07:20:32.000Z</time>
</trkpt>
<trkpt lat="45.9072540" lon="10.3587290">
	<ele>1442.40</ele>
	<time>2025-04-29T07:20:33.000Z</time>
</trkpt>
<trkpt lat="45.9072500" lon="10.3587110">
	<ele>1442.40</ele>
	<time>2025-04-29T07:20:34.000Z</time>
</trkpt>
<trkpt lat="45.9072410" lon="10.3586890">
	<ele>1442.60</ele>
	<time>2025-04-29T07:20:35.000Z</time>
</trkpt>
<trkpt lat="45.9072350" lon="10.3586740">
	<ele>1442.80</ele>
	<time>2025-04-29T07:20:36.000Z</time>
</trkpt>
<trkpt lat="45.9072200" lon="10.3586690">
	<ele>1443.00</ele>
	<time>2025-04-29T07:20:37.000Z</time>
</trkpt>
<trkpt lat="45.9072140" lon="10.3586640">
	<ele>1443.00</ele>
	<time>2025-04-29T07:20:38.000Z</time>
</trkpt>
<trkpt lat="45.9072030" lon="10.3586550">
	<ele>1443.20</ele>
	<time>2025-04-29T07:20:39.000Z</time>
</trkpt>
<trkpt lat="45.9072000" lon="10.3586440">
	<ele>1443.40</ele>
	<time>2025-04-29T07:20:40.000Z</time>
</trkpt>
<trkpt lat="45.9071900" lon="10.3586250">
	<ele>1443.40</ele>
	<time>2025-04-29T07:20:41.000Z</time>
</trkpt>
<trkpt lat="45.9071870" lon="10.3586140">
	<ele>1443.40</ele>
	<time>2025-04-29T07:20:42.000Z</time>
</trkpt>
<trkpt lat="45.9071780" lon="10.3586060">
	<ele>1443.40</ele>
	<time>2025-04-29T07:20:43.000Z</time>
</trkpt>
<trkpt lat="45.9071850" lon="10.3586000">
	<ele>1443.60</ele>
	<time>2025-04-29T07:20:44.000Z</time>
</trkpt>
<trkpt lat="45.9071820" lon="10.3585980">
	<ele>1443.60</ele>
	<time>2025-04-29T07:20:45.000Z</time>
</trkpt>
<trkpt lat="45.9072000" lon="10.3586100">
	<ele>1443.60</ele>
	<time>2025-04-29T07:20:46.000Z</time>
</trkpt>
<trkpt lat="45.9071920" lon="10.3586090">
	<ele>1443.60</ele>
	<time>2025-04-29T07:20:47.000Z</time>
</trkpt>
<trkpt lat="45.9071770" lon="10.3585840">
	<ele>1443.80</ele>
	<time>2025-04-29T07:20:48.000Z</time>
</trkpt>
<trkpt lat="45.9071700" lon="10.3585680">
	<ele>1443.80</ele>
	<time>2025-04-29T07:20:49.000Z</time>
</trkpt>
<trkpt lat="45.9071570" lon="10.3585550">
	<ele>1444.00</ele>
	<time>2025-04-29T07:20:50.000Z</time>
</trkpt>
<trkpt lat="45.9071450" lon="10.3585370">
	<ele>1444.00</ele>
	<time>2025-04-29T07:20:51.000Z</time>
</trkpt>
<trkpt lat="45.9071600" lon="10.3585330">
	<ele>1444.00</ele>
	<time>2025-04-29T07:20:52.000Z</time>
</trkpt>
<trkpt lat="45.9071680" lon="10.3585260">
	<ele>1444.00</ele>
	<time>2025-04-29T07:20:53.000Z</time>
</trkpt>
<trkpt lat="45.9071710" lon="10.3585110">
	<ele>1444.00</ele>
	<time>2025-04-29T07:20:54.000Z</time>
</trkpt>
<trkpt lat="45.9071670" lon="10.3585000">
	<ele>1444.20</ele>
	<time>2025-04-29T07:20:55.000Z</time>
</trkpt>
<trkpt lat="45.9071690" lon="10.3584920">
	<ele>1444.20</ele>
	<time>2025-04-29T07:20:56.000Z</time>
</trkpt>
<trkpt lat="45.9071620" lon="10.3584820">
	<ele>1444.20</ele>
	<time>2025-04-29T07:20:57.000Z</time>
</trkpt>
<trkpt lat="45.9071520" lon="10.3584670">
	<ele>1444.40</ele>
	<time>2025-04-29T07:20:58.000Z</time>
</trkpt>
<trkpt lat="45.9071390" lon="10.3584470">
	<ele>1444.60</ele>
	<time>2025-04-29T07:20:59.000Z</time>
</trkpt>
<trkpt lat="45.9071160" lon="10.3584320">
	<ele>1444.80</ele>
	<time>2025-04-29T07:21:00.000Z</time>
</trkpt>
<trkpt lat="45.9071120" lon="10.3584280">
	<ele>1444.80</ele>
	<time>2025-04-29T07:21:01.000Z</time>
</trkpt>
<trkpt lat="45.9071100" lon="10.3584370">
	<ele>1444.80</ele>
	<time>2025-04-29T07:21:02.000Z</time>
</trkpt>
<trkpt lat="45.9071070" lon="10.3584400">
	<ele>1445.00</ele>
	<time>2025-04-29T07:21:03.000Z</time>
</trkpt>
<trkpt lat="45.9071110" lon="10.3584380">
	<ele>1445.00</ele>
	<time>2025-04-29T07:21:04.000Z</time>
</trkpt>
<trkpt lat="45.9070990" lon="10.3584290">
	<ele>1445.20</ele>
	<time>2025-04-29T07:21:05.000Z</time>
</trkpt>
<trkpt lat="45.9070910" lon="10.3584150">
	<ele>1445.20</ele>
	<time>2025-04-29T07:21:06.000Z</time>
</trkpt>
<trkpt lat="45.9070890" lon="10.3584070">
	<ele>1445.40</ele>
	<time>2025-04-29T07:21:07.000Z</time>
</trkpt>
<trkpt lat="45.9070880" lon="10.3583970">
	<ele>1445.40</ele>
	<time>2025-04-29T07:21:08.000Z</time>
</trkpt>
<trkpt lat="45.9070890" lon="10.3583890">
	<ele>1445.60</ele>
	<time>2025-04-29T07:21:09.000Z</time>
</trkpt>
<trkpt lat="45.9070810" lon="10.3583710">
	<ele>1445.60</ele>
	<time>2025-04-29T07:21:10.000Z</time>
</trkpt>
<trkpt lat="45.9070760" lon="10.3583590">
	<ele>1445.80</ele>
	<time>2025-04-29T07:21:11.000Z</time>
</trkpt>
<trkpt lat="45.9070700" lon="10.3583390">
	<ele>1446.00</ele>
	<time>2025-04-29T07:21:12.000Z</time>
</trkpt>
<trkpt lat="45.9070580" lon="10.3583200">
	<ele>1446.00</ele>
	<time>2025-04-29T07:21:13.000Z</time>
</trkpt>
<trkpt lat="45.9070500" lon="10.3583060">
	<ele>1446.00</ele>
	<time>2025-04-29T07:21:14.000Z</time>
</trkpt>
<trkpt lat="45.9070440" lon="10.3582960">
	<ele>1446.20</ele>
	<time>2025-04-29T07:21:15.000Z</time>
</trkpt>
<trkpt lat="45.9070340" lon="10.3582900">
	<ele>1446.20</ele>
	<time>2025-04-29T07:21:16.000Z</time>
</trkpt>
<trkpt lat="45.9070230" lon="10.3582870">
	<ele>1446.60</ele>
	<time>2025-04-29T07:21:17.000Z</time>
</trkpt>
<trkpt lat="45.9070200" lon="10.3582820">
	<ele>1446.80</ele>
	<time>2025-04-29T07:21:18.000Z</time>
</trkpt>
<trkpt lat="45.9070220" lon="10.3582860">
	<ele>1446.80</ele>
	<time>2025-04-29T07:21:19.000Z</time>
</trkpt>
<trkpt lat="45.9070170" lon="10.3582810">
	<ele>1447.00</ele>
	<time>2025-04-29T07:21:20.000Z</time>
</trkpt>
<trkpt lat="45.9070110" lon="10.3582730">
	<ele>1447.00</ele>
	<time>2025-04-29T07:21:21.000Z</time>
</trkpt>
<trkpt lat="45.9070090" lon="10.3582660">
	<ele>1447.20</ele>
	<time>2025-04-29T07:21:22.000Z</time>
</trkpt>
<trkpt lat="45.9070130" lon="10.3582640">
	<ele>1447.40</ele>
	<time>2025-04-29T07:21:23.000Z</time>
</trkpt>
<trkpt lat="45.9070110" lon="10.3582580">
	<ele>1447.60</ele>
	<time>2025-04-29T07:21:24.000Z</time>
</trkpt>
<trkpt lat="45.9070040" lon="10.3582640">
	<ele>1447.60</ele>
	<time>2025-04-29T07:21:25.000Z</time>
</trkpt>
<trkpt lat="45.9069970" lon="10.3582600">
	<ele>1447.80</ele>
	<time>2025-04-29T07:21:26.000Z</time>
</trkpt>
<trkpt lat="45.9069880" lon="10.3582490">
	<ele>1447.80</ele>
	<time>2025-04-29T07:21:27.000Z</time>
</trkpt>
<trkpt lat="45.9069790" lon="10.3582390">
	<ele>1448.00</ele>
	<time>2025-04-29T07:21:28.000Z</time>
</trkpt>
<trkpt lat="45.9069740" lon="10.3582300">
	<ele>1448.00</ele>
	<time>2025-04-29T07:21:29.000Z</time>
</trkpt>
<trkpt lat="45.9069690" lon="10.3582200">
	<ele>1448.00</ele>
	<time>2025-04-29T07:21:30.000Z</time>
</trkpt>
<trkpt lat="45.9069650" lon="10.3582090">
	<ele>1448.20</ele>
	<time>2025-04-29T07:21:31.000Z</time>
</trkpt>
<trkpt lat="45.9069570" lon="10.3581890">
	<ele>1448.20</ele>
	<time>2025-04-29T07:21:32.000Z</time>
</trkpt>
<trkpt lat="45.9069490" lon="10.3581680">
	<ele>1448.20</ele>
	<time>2025-04-29T07:21:33.000Z</time>
</trkpt>
<trkpt lat="45.9069440" lon="10.3581580">
	<ele>1448.40</ele>
	<time>2025-04-29T07:21:34.000Z</time>
</trkpt>
<trkpt lat="45.9069420" lon="10.3581470">
	<ele>1448.40</ele>
	<time>2025-04-29T07:21:35.000Z</time>
</trkpt>
<trkpt lat="45.9069430" lon="10.3581390">
	<ele>1448.40</ele>
	<time>2025-04-29T07:21:36.000Z</time>
</trkpt>
<trkpt lat="45.9069410" lon="10.3581270">
	<ele>1448.60</ele>
	<time>2025-04-29T07:21:37.000Z</time>
</trkpt>
<trkpt lat="45.9069280" lon="10.3581130">
	<ele>1448.80</ele>
	<time>2025-04-29T07:21:38.000Z</time>
</trkpt>
<trkpt lat="45.9069230" lon="10.3581100">
	<ele>1449.00</ele>
	<time>2025-04-29T07:21:39.000Z</time>
</trkpt>
<trkpt lat="45.9069180" lon="10.3581010">
	<ele>1449.20</ele>
	<time>2025-04-29T07:21:40.000Z</time>
</trkpt>
<trkpt lat="45.9069170" lon="10.3580850">
	<ele>1449.20</ele>
	<time>2025-04-29T07:21:41.000Z</time>
</trkpt>
<trkpt lat="45.9069110" lon="10.3580680">
	<ele>1449.40</ele>
	<time>2025-04-29T07:21:42.000Z</time>
</trkpt>
<trkpt lat="45.9069020" lon="10.3580500">
	<ele>1449.60</ele>
	<time>2025-04-29T07:21:43.000Z</time>
</trkpt>
<trkpt lat="45.9068920" lon="10.3580310">
	<ele>1449.80</ele>
	<time>2025-04-29T07:21:44.000Z</time>
</trkpt>
<trkpt lat="45.9068910" lon="10.3580220">
	<ele>1449.80</ele>
	<time>2025-04-29T07:21:45.000Z</time>
</trkpt>
<trkpt lat="45.9068930" lon="10.3580080">
	<ele>1450.00</ele>
	<time>2025-04-29T07:21:46.000Z</time>
</trkpt>
<trkpt lat="45.9069000" lon="10.3579940">
	<ele>1450.20</ele>
	<time>2025-04-29T07:21:47.000Z</time>
</trkpt>
<trkpt lat="45.9068950" lon="10.3579740">
	<ele>1450.40</ele>
	<time>2025-04-29T07:21:48.000Z</time>
</trkpt>
<trkpt lat="45.9068940" lon="10.3579640">
	<ele>1450.40</ele>
	<time>2025-04-29T07:21:49.000Z</time>
</trkpt>
<trkpt lat="45.9069070" lon="10.3579620">
	<ele>1450.60</ele>
	<time>2025-04-29T07:21:50.000Z</time>
</trkpt>
<trkpt lat="45.9069170" lon="10.3579560">
	<ele>1450.80</ele>
	<time>2025-04-29T07:21:51.000Z</time>
</trkpt>
<trkpt lat="45.9069080" lon="10.3579500">
	<ele>1451.20</ele>
	<time>2025-04-29T07:21:52.000Z</time>
</trkpt>
<trkpt lat="45.9068990" lon="10.3579360">
	<ele>1451.40</ele>
	<time>2025-04-29T07:21:53.000Z</time>
</trkpt>
<trkpt lat="45.9068950" lon="10.3579250">
	<ele>1451.40</ele>
	<time>2025-04-29T07:21:54.000Z</time>
</trkpt>
<trkpt lat="45.9068910" lon="10.3579140">
	<ele>1451.60</ele>
	<time>2025-04-29T07:21:55.000Z</time>
</trkpt>
<trkpt lat="45.9068910" lon="10.3579070">
	<ele>1451.80</ele>
	<time>2025-04-29T07:21:56.000Z</time>
</trkpt>
<trkpt lat="45.9068830" lon="10.3578960">
	<ele>1452.00</ele>
	<time>2025-04-29T07:21:57.000Z</time>
</trkpt>
<trkpt lat="45.9068670" lon="10.3578840">
	<ele>1452.20</ele>
	<time>2025-04-29T07:21:58.000Z</time>
</trkpt>
<trkpt lat="45.9068580" lon="10.3578760">
	<ele>1452.20</ele>
	<time>2025-04-29T07:21:59.000Z</time>
</trkpt>
<trkpt lat="45.9068520" lon="10.3578670">
	<ele>1452.40</ele>
	<time>2025-04-29T07:22:00.000Z</time>
</trkpt>
<trkpt lat="45.9068380" lon="10.3578550">
	<ele>1452.60</ele>
	<time>2025-04-29T07:22:01.000Z</time>
</trkpt>
<trkpt lat="45.9068300" lon="10.3578510">
	<ele>1452.80</ele>
	<time>2025-04-29T07:22:02.000Z</time>
</trkpt>
<trkpt lat="45.9068180" lon="10.3578450">
	<ele>1453.00</ele>
	<time>2025-04-29T07:22:03.000Z</time>
</trkpt>
<trkpt lat="45.9068160" lon="10.3578410">
	<ele>1453.20</ele>
	<time>2025-04-29T07:22:04.000Z</time>
</trkpt>
<trkpt lat="45.9068060" lon="10.3578330">
	<ele>1453.40</ele>
	<time>2025-04-29T07:22:05.000Z</time>
</trkpt>
<trkpt lat="45.9068020" lon="10.3578310">
	<ele>1453.40</ele>
	<time>2025-04-29T07:22:06.000Z</time>
</trkpt>
<trkpt lat="45.9067960" lon="10.3578380">
	<ele>1453.60</ele>
	<time>2025-04-29T07:22:07.000Z</time>
</trkpt>
<trkpt lat="45.9067890" lon="10.3578480">
	<ele>1453.60</ele>
	<time>2025-04-29T07:22:08.000Z</time>
</trkpt>
<trkpt lat="45.9067860" lon="10.3578540">
	<ele>1453.60</ele>
	<time>2025-04-29T07:22:09.000Z</time>
</trkpt>
<trkpt lat="45.9067770" lon="10.3578570">
	<ele>1453.60</ele>
	<time>2025-04-29T07:22:10.000Z</time>
</trkpt>
<trkpt lat="45.9067670" lon="10.3578640">
	<ele>1453.60</ele>
	<time>2025-04-29T07:22:11.000Z</time>
</trkpt>
<trkpt lat="45.9067670" lon="10.3578780">
	<ele>1453.60</ele>
	<time>2025-04-29T07:22:12.000Z</time>
</trkpt>
<trkpt lat="45.9067690" lon="10.3578900">
	<ele>1453.80</ele>
	<time>2025-04-29T07:22:13.000Z</time>
</trkpt>
<trkpt lat="45.9067670" lon="10.3579010">
	<ele>1453.80</ele>
	<time>2025-04-29T07:22:14.000Z</time>
</trkpt>
<trkpt lat="45.9067620" lon="10.3579100">
	<ele>1454.00</ele>
	<time>2025-04-29T07:22:15.000Z</time>
</trkpt>
<trkpt lat="45.9067480" lon="10.3579150">
	<ele>1454.00</ele>
	<time>2025-04-29T07:22:16.000Z</time>
</trkpt>
<trkpt lat="45.9067440" lon="10.3579320">
	<ele>1454.00</ele>
	<time>2025-04-29T07:22:17.000Z</time>
</trkpt>
<trkpt lat="45.9067450" lon="10.3579510">
	<ele>1454.20</ele>
	<time>2025-04-29T07:22:18.000Z</time>
</trkpt>
<trkpt lat="45.9067420" lon="10.3579650">
	<ele>1454.20</ele>
	<time>2025-04-29T07:22:19.000Z</time>
</trkpt>
<trkpt lat="45.9067370" lon="10.3579790">
	<ele>1454.20</ele>
	<time>2025-04-29T07:22:20.000Z</time>
</trkpt>
<trkpt lat="45.9067310" lon="10.3579910">
	<ele>1454.40</ele>
	<time>2025-04-29T07:22:21.000Z</time>
</trkpt>
<trkpt lat="45.9067220" lon="10.3580030">
	<ele>1454.40</ele>
	<time>2025-04-29T07:22:22.000Z</time>
</trkpt>
<trkpt lat="45.9067210" lon="10.3580220">
	<ele>1454.60</ele>
	<time>2025-04-29T07:22:23.000Z</time>
</trkpt>
<trkpt lat="45.9067150" lon="10.3580410">
	<ele>1454.80</ele>
	<time>2025-04-29T07:22:24.000Z</time>
</trkpt>
<trkpt lat="45.9067180" lon="10.3580640">
	<ele>1455.00</ele>
	<time>2025-04-29T07:22:25.000Z</time>
</trkpt>
<trkpt lat="45.9067130" lon="10.3580870">
	<ele>1455.00</ele>
	<time>2025-04-29T07:22:26.000Z</time>
</trkpt>
<trkpt lat="45.9066990" lon="10.3580840">
	<ele>1455.00</ele>
	<time>2025-04-29T07:22:27.000Z</time>
</trkpt>
<trkpt lat="45.9066880" lon="10.3580860">
	<ele>1455.00</ele>
	<time>2025-04-29T07:22:28.000Z</time>
</trkpt>
<trkpt lat="45.9066740" lon="10.3580910">
	<ele>1455.00</ele>
	<time>2025-04-29T07:22:29.000Z</time>
</trkpt>
<trkpt lat="45.9066650" lon="10.3580920">
	<ele>1455.00</ele>
	<time>2025-04-29T07:22:30.000Z</time>
</trkpt>
<trkpt lat="45.9066590" lon="10.3580980">
	<ele>1455.20</ele>
	<time>2025-04-29T07:22:31.000Z</time>
</trkpt>
<trkpt lat="45.9066600" lon="10.3581140">
	<ele>1455.20</ele>
	<time>2025-04-29T07:22:32.000Z</time>
</trkpt>
<trkpt lat="45.9066640" lon="10.3581350">
	<ele>1455.40</ele>
	<time>2025-04-29T07:22:33.000Z</time>
</trkpt>
<trkpt lat="45.9066650" lon="10.3581530">
	<ele>1455.40</ele>
	<time>2025-04-29T07:22:34.000Z</time>
</trkpt>
<trkpt lat="45.9066510" lon="10.3581510">
	<ele>1455.60</ele>
	<time>2025-04-29T07:22:35.000Z</time>
</trkpt>
<trkpt lat="45.9066360" lon="10.3581500">
	<ele>1455.80</ele>
	<time>2025-04-29T07:22:36.000Z</time>
</trkpt>
<trkpt lat="45.9066300" lon="10.3581540">
	<ele>1456.00</ele>
	<time>2025-04-29T07:22:37.000Z</time>
</trkpt>
<trkpt lat="45.9066200" lon="10.3581530">
	<ele>1456.20</ele>
	<time>2025-04-29T07:22:38.000Z</time>
</trkpt>
<trkpt lat="45.9066100" lon="10.3581450">
	<ele>1456.40</ele>
	<time>2025-04-29T07:22:39.000Z</time>
</trkpt>
<trkpt lat="45.9065990" lon="10.3581370">
	<ele>1456.60</ele>
	<time>2025-04-29T07:22:40.000Z</time>
</trkpt>
<trkpt lat="45.9065930" lon="10.3581330">
	<ele>1456.80</ele>
	<time>2025-04-29T07:22:41.000Z</time>
</trkpt>
<trkpt lat="45.9065880" lon="10.3581270">
	<ele>1457.20</ele>
	<time>2025-04-29T07:22:42.000Z</time>
</trkpt>
<trkpt lat="45.9065820" lon="10.3581240">
	<ele>1457.40</ele>
	<time>2025-04-29T07:22:43.000Z</time>
</trkpt>
<trkpt lat="45.9065770" lon="10.3581190">
	<ele>1457.60</ele>
	<time>2025-04-29T07:22:44.000Z</time>
</trkpt>
<trkpt lat="45.9065710" lon="10.3581090">
	<ele>1457.80</ele>
	<time>2025-04-29T07:22:45.000Z</time>
</trkpt>
<trkpt lat="45.9065670" lon="10.3581000">
	<ele>1458.00</ele>
	<time>2025-04-29T07:22:46.000Z</time>
</trkpt>
<trkpt lat="45.9065620" lon="10.3580880">
	<ele>1458.20</ele>
	<time>2025-04-29T07:22:47.000Z</time>
</trkpt>
<trkpt lat="45.9065530" lon="10.3580780">
	<ele>1458.40</ele>
	<time>2025-04-29T07:22:48.000Z</time>
</trkpt>
<trkpt lat="45.9065440" lon="10.3580680">
	<ele>1458.60</ele>
	<time>2025-04-29T07:22:49.000Z</time>
</trkpt>
<trkpt lat="45.9065350" lon="10.3580570">
	<ele>1458.80</ele>
	<time>2025-04-29T07:22:50.000Z</time>
</trkpt>
<trkpt lat="45.9065300" lon="10.3580530">
	<ele>1459.00</ele>
	<time>2025-04-29T07:22:51.000Z</time>
</trkpt>
<trkpt lat="45.9065210" lon="10.3580450">
	<ele>1459.00</ele>
	<time>2025-04-29T07:22:52.000Z</time>
</trkpt>
<trkpt lat="45.9065120" lon="10.3580400">
	<ele>1459.20</ele>
	<time>2025-04-29T07:22:53.000Z</time>
</trkpt>
<trkpt lat="45.9065040" lon="10.3580320">
	<ele>1459.40</ele>
	<time>2025-04-29T07:22:54.000Z</time>
</trkpt>
<trkpt lat="45.9064940" lon="10.3580260">
	<ele>1459.40</ele>
	<time>2025-04-29T07:22:55.000Z</time>
</trkpt>
<trkpt lat="45.9064840" lon="10.3580210">
	<ele>1459.60</ele>
	<time>2025-04-29T07:22:56.000Z</time>
</trkpt>
<trkpt lat="45.9064750" lon="10.3580170">
	<ele>1459.60</ele>
	<time>2025-04-29T07:22:57.000Z</time>
</trkpt>
<trkpt lat="45.9064650" lon="10.3580120">
	<ele>1459.80</ele>
	<time>2025-04-29T07:22:58.000Z</time>
</trkpt>
<trkpt lat="45.9064600" lon="10.3580070">
	<ele>1460.00</ele>
	<time>2025-04-29T07:22:59.000Z</time>
</trkpt>
<trkpt lat="45.9064510" lon="10.3580010">
	<ele>1460.00</ele>
	<time>2025-04-29T07:23:00.000Z</time>
</trkpt>
<trkpt lat="45.9064430" lon="10.3579970">
	<ele>1460.40</ele>
	<time>2025-04-29T07:23:01.000Z</time>
</trkpt>
<trkpt lat="45.9064310" lon="10.3579930">
	<ele>1460.60</ele>
	<time>2025-04-29T07:23:02.000Z</time>
</trkpt>
<trkpt lat="45.9064220" lon="10.3579960">
	<ele>1460.80</ele>
	<time>2025-04-29T07:23:03.000Z</time>
</trkpt>
<trkpt lat="45.9064190" lon="10.3579950">
	<ele>1461.00</ele>
	<time>2025-04-29T07:23:04.000Z</time>
</trkpt>
<trkpt lat="45.9064100" lon="10.3579910">
	<ele>1461.20</ele>
	<time>2025-04-29T07:23:05.000Z</time>
</trkpt>
<trkpt lat="45.9063940" lon="10.3579870">
	<ele>1461.40</ele>
	<time>2025-04-29T07:23:06.000Z</time>
</trkpt>
<trkpt lat="45.9063790" lon="10.3579780">
	<ele>1461.40</ele>
	<time>2025-04-29T07:23:07.000Z</time>
</trkpt>
<trkpt lat="45.9063770" lon="10.3579720">
	<ele>1461.60</ele>
	<time>2025-04-29T07:23:08.000Z</time>
</trkpt>
<trkpt lat="45.9063730" lon="10.3579630">
	<ele>1461.80</ele>
	<time>2025-04-29T07:23:09.000Z</time>
</trkpt>
<trkpt lat="45.9063660" lon="10.3579550">
	<ele>1461.80</ele>
	<time>2025-04-29T07:23:10.000Z</time>
</trkpt>
<trkpt lat="45.9063570" lon="10.3579430">
	<ele>1462.00</ele>
	<time>2025-04-29T07:23:11.000Z</time>
</trkpt>
<trkpt lat="45.9063450" lon="10.3579360">
	<ele>1462.20</ele>
	<time>2025-04-29T07:23:12.000Z</time>
</trkpt>
<trkpt lat="45.9063330" lon="10.3579360">
	<ele>1462.40</ele>
	<time>2025-04-29T07:23:13.000Z</time>
</trkpt>
<trkpt lat="45.9063220" lon="10.3579330">
	<ele>1462.80</ele>
	<time>2025-04-29T07:23:14.000Z</time>
</trkpt>
<trkpt lat="45.9063120" lon="10.3579240">
	<ele>1462.80</ele>
	<time>2025-04-29T07:23:15.000Z</time>
</trkpt>
<trkpt lat="45.9062860" lon="10.3579140">
	<ele>1463.00</ele>
	<time>2025-04-29T07:23:16.000Z</time>
</trkpt>
<trkpt lat="45.9062730" lon="10.3579060">
	<ele>1463.20</ele>
	<time>2025-04-29T07:23:17.000Z</time>
</trkpt>
<trkpt lat="45.9062640" lon="10.3579050">
	<ele>1463.60</ele>
	<time>2025-04-29T07:23:18.000Z</time>
</trkpt>
<trkpt lat="45.9062530" lon="10.3578950">
	<ele>1463.80</ele>
	<time>2025-04-29T07:23:19.000Z</time>
</trkpt>
<trkpt lat="45.9062410" lon="10.3578890">
	<ele>1464.00</ele>
	<time>2025-04-29T07:23:20.000Z</time>
</trkpt>
<trkpt lat="45.9062330" lon="10.3578860">
	<ele>1464.00</ele>
	<time>2025-04-29T07:23:21.000Z</time>
</trkpt>
<trkpt lat="45.9062220" lon="10.3578810">
	<ele>1464.00</ele>
	<time>2025-04-29T07:23:22.000Z</time>
</trkpt>
<trkpt lat="45.9062200" lon="10.3578800">
	<ele>1464.00</ele>
	<time>2025-04-29T07:23:23.000Z</time>
</trkpt>
<trkpt lat="45.9062220" lon="10.3578750">
	<ele>1464.20</ele>
	<time>2025-04-29T07:23:24.000Z</time>
</trkpt>
<trkpt lat="45.9062180" lon="10.3578660">
	<ele>1464.20</ele>
	<time>2025-04-29T07:23:25.000Z</time>
</trkpt>
<trkpt lat="45.9062090" lon="10.3578600">
	<ele>1464.20</ele>
	<time>2025-04-29T07:23:26.000Z</time>
</trkpt>
<trkpt lat="45.9062030" lon="10.3578500">
	<ele>1464.20</ele>
	<time>2025-04-29T07:23:27.000Z</time>
</trkpt>
<trkpt lat="45.9061840" lon="10.3578430">
	<ele>1464.20</ele>
	<time>2025-04-29T07:23:28.000Z</time>
</trkpt>
<trkpt lat="45.9061660" lon="10.3578290">
	<ele>1464.20</ele>
	<time>2025-04-29T07:23:29.000Z</time>
</trkpt>
<trkpt lat="45.9061490" lon="10.3578170">
	<ele>1464.20</ele>
	<time>2025-04-29T07:23:30.000Z</time>
</trkpt>
<trkpt lat="45.9061420" lon="10.3578090">
	<ele>1464.20</ele>
	<time>2025-04-29T07:23:31.000Z</time>
</trkpt>
<trkpt lat="45.9061300" lon="10.3577950">
	<ele>1464.40</ele>
	<time>2025-04-29T07:23:32.000Z</time>
</trkpt>
<trkpt lat="45.9061240" lon="10.3577790">
	<ele>1464.60</ele>
	<time>2025-04-29T07:23:33.000Z</time>
</trkpt>
<trkpt lat="45.9061140" lon="10.3577700">
	<ele>1464.60</ele>
	<time>2025-04-29T07:23:34.000Z</time>
</trkpt>
<trkpt lat="45.9061040" lon="10.3577620">
	<ele>1464.80</ele>
	<time>2025-04-29T07:23:35.000Z</time>
</trkpt>
<trkpt lat="45.9060980" lon="10.3577540">
	<ele>1464.80</ele>
	<time>2025-04-29T07:23:36.000Z</time>
</trkpt>
<trkpt lat="45.9060930" lon="10.3577440">
	<ele>1465.00</ele>
	<time>2025-04-29T07:23:37.000Z</time>
</trkpt>
<trkpt lat="45.9060880" lon="10.3577330">
	<ele>1465.20</ele>
	<time>2025-04-29T07:23:38.000Z</time>
</trkpt>
<trkpt lat="45.9060810" lon="10.3577220">
	<ele>1465.20</ele>
	<time>2025-04-29T07:23:39.000Z</time>
</trkpt>
<trkpt lat="45.9060730" lon="10.3577130">
	<ele>1465.40</ele>
	<time>2025-04-29T07:23:40.000Z</time>
</trkpt>
<trkpt lat="45.9060650" lon="10.3577030">
	<ele>1465.40</ele>
	<time>2025-04-29T07:23:41.000Z</time>
</trkpt>
<trkpt lat="45.9060650" lon="10.3576890">
	<ele>1465.60</ele>
	<time>2025-04-29T07:23:42.000Z</time>
</trkpt>
<trkpt lat="45.9060670" lon="10.3576760">
	<ele>1465.60</ele>
	<time>2025-04-29T07:23:43.000Z</time>
</trkpt>
<trkpt lat="45.9060640" lon="10.3576640">
	<ele>1465.80</ele>
	<time>2025-04-29T07:23:44.000Z</time>
</trkpt>
<trkpt lat="45.9060610" lon="10.3576500">
	<ele>1466.00</ele>
	<time>2025-04-29T07:23:45.000Z</time>
</trkpt>
<trkpt lat="45.9060490" lon="10.3576350">
	<ele>1466.20</ele>
	<time>2025-04-29T07:23:46.000Z</time>
</trkpt>
<trkpt lat="45.9060460" lon="10.3576210">
	<ele>1466.20</ele>
	<time>2025-04-29T07:23:47.000Z</time>
</trkpt>
<trkpt lat="45.9060420" lon="10.3576140">
	<ele>1466.40</ele>
	<time>2025-04-29T07:23:48.000Z</time>
</trkpt>
<trkpt lat="45.9060330" lon="10.3576020">
	<ele>1466.60</ele>
	<time>2025-04-29T07:23:49.000Z</time>
</trkpt>
<trkpt lat="45.9060290" lon="10.3575980">
	<ele>1466.80</ele>
	<time>2025-04-29T07:23:50.000Z</time>
</trkpt>
<trkpt lat="45.9060260" lon="10.3575940">
	<ele>1466.80</ele>
	<time>2025-04-29T07:23:51.000Z</time>
</trkpt>
<trkpt lat="45.9060240" lon="10.3575910">
	<ele>1466.80</ele>
	<time>2025-04-29T07:23:52.000Z</time>
</trkpt>
<trkpt lat="45.9060250" lon="10.3575910">
	<ele>1467.00</ele>
	<time>2025-04-29T07:23:53.000Z</time>
</trkpt>
<trkpt lat="45.9060270" lon="10.3575900">
	<ele>1467.00</ele>
	<time>2025-04-29T07:23:54.000Z</time>
</trkpt>
<trkpt lat="45.9060280" lon="10.3575870">
	<ele>1467.00</ele>
	<time>2025-04-29T07:23:55.000Z</time>
</trkpt>
<trkpt lat="45.9060280" lon="10.3575870">
	<ele>1467.20</ele>
	<time>2025-04-29T07:23:56.000Z</time>
</trkpt>
<trkpt lat="45.9060280" lon="10.3575880">
	<ele>1467.20</ele>
	<time>2025-04-29T07:23:57.000Z</time>
</trkpt>
<trkpt lat="45.9060270" lon="10.3575900">
	<ele>1467.40</ele>
	<time>2025-04-29T07:23:58.000Z</time>
</trkpt>
<trkpt lat="45.9060270" lon="10.3575920">
	<ele>1467.40</ele>
	<time>2025-04-29T07:23:59.000Z</time>
</trkpt>
<trkpt lat="45.9060270" lon="10.3575930">
	<ele>1467.40</ele>
	<time>2025-04-29T07:24:00.000Z</time>
</trkpt>
<trkpt lat="45.9060270" lon="10.3575920">
	<ele>1467.40</ele>
	<time>2025-04-29T07:24:01.000Z</time>
</trkpt>
<trkpt lat="45.9060240" lon="10.3575940">
	<ele>1467.40</ele>
	<time>2025-04-29T07:24:02.000Z</time>
</trkpt>
<trkpt lat="45.9060220" lon="10.3575840">
	<ele>1467.20</ele>
	<time>2025-04-29T07:24:03.000Z</time>
</trkpt>
<trkpt lat="45.9060160" lon="10.3575740">
	<ele>1467.00</ele>
	<time>2025-04-29T07:24:04.000Z</time>
</trkpt>
<trkpt lat="45.9060080" lon="10.3575670">
	<ele>1467.00</ele>
	<time>2025-04-29T07:24:05.000Z</time>
</trkpt>
<trkpt lat="45.9059980" lon="10.3575560">
	<ele>1467.00</ele>
	<time>2025-04-29T07:24:06.000Z</time>
</trkpt>
<trkpt lat="45.9059830" lon="10.3575460">
	<ele>1467.00</ele>
	<time>2025-04-29T07:24:07.000Z</time>
</trkpt>
<trkpt lat="45.9059710" lon="10.3575340">
	<ele>1467.00</ele>
	<time>2025-04-29T07:24:08.000Z</time>
</trkpt>
<trkpt lat="45.9059600" lon="10.3575270">
	<ele>1467.00</ele>
	<time>2025-04-29T07:24:09.000Z</time>
</trkpt>
<trkpt lat="45.9059500" lon="10.3575210">
	<ele>1467.20</ele>
	<time>2025-04-29T07:24:10.000Z</time>
</trkpt>
<trkpt lat="45.9059400" lon="10.3575150">
	<ele>1467.20</ele>
	<time>2025-04-29T07:24:11.000Z</time>
</trkpt>
<trkpt lat="45.9059340" lon="10.3575090">
	<ele>1467.40</ele>
	<time>2025-04-29T07:24:12.000Z</time>
</trkpt>
<trkpt lat="45.9059260" lon="10.3575020">
	<ele>1467.40</ele>
	<time>2025-04-29T07:24:13.000Z</time>
</trkpt>
<trkpt lat="45.9059190" lon="10.3574900">
	<ele>1467.40</ele>
	<time>2025-04-29T07:24:14.000Z</time>
</trkpt>
<trkpt lat="45.9059090" lon="10.3574790">
	<ele>1467.60</ele>
	<time>2025-04-29T07:24:15.000Z</time>
</trkpt>
<trkpt lat="45.9059040" lon="10.3574710">
	<ele>1467.60</ele>
	<time>2025-04-29T07:24:16.000Z</time>
</trkpt>
<trkpt lat="45.9059010" lon="10.3574630">
	<ele>1467.80</ele>
	<time>2025-04-29T07:24:17.000Z</time>
</trkpt>
<trkpt lat="45.9058930" lon="10.3574540">
	<ele>1467.80</ele>
	<time>2025-04-29T07:24:18.000Z</time>
</trkpt>
<trkpt lat="45.9058820" lon="10.3574490">
	<ele>1468.00</ele>
	<time>2025-04-29T07:24:19.000Z</time>
</trkpt>
<trkpt lat="45.9058740" lon="10.3574440">
	<ele>1468.20</ele>
	<time>2025-04-29T07:24:20.000Z</time>
</trkpt>
<trkpt lat="45.9058700" lon="10.3574380">
	<ele>1468.40</ele>
	<time>2025-04-29T07:24:21.000Z</time>
</trkpt>
<trkpt lat="45.9058640" lon="10.3574310">
	<ele>1468.40</ele>
	<time>2025-04-29T07:24:22.000Z</time>
</trkpt>
<trkpt lat="45.9058610" lon="10.3574270">
	<ele>1468.60</ele>
	<time>2025-04-29T07:24:23.000Z</time>
</trkpt>
<trkpt lat="45.9058530" lon="10.3574220">
	<ele>1468.80</ele>
	<time>2025-04-29T07:24:24.000Z</time>
</trkpt>
<trkpt lat="45.9058380" lon="10.3574180">
	<ele>1468.80</ele>
	<time>2025-04-29T07:24:25.000Z</time>
</trkpt>
<trkpt lat="45.9058340" lon="10.3574200">
	<ele>1469.00</ele>
	<time>2025-04-29T07:24:26.000Z</time>
</trkpt>
<trkpt lat="45.9058260" lon="10.3574160">
	<ele>1469.00</ele>
	<time>2025-04-29T07:24:27.000Z</time>
</trkpt>
<trkpt lat="45.9058160" lon="10.3574100">
	<ele>1469.20</ele>
	<time>2025-04-29T07:24:28.000Z</time>
</trkpt>
<trkpt lat="45.9058120" lon="10.3574100">
	<ele>1469.20</ele>
	<time>2025-04-29T07:24:29.000Z</time>
</trkpt>
<trkpt lat="45.9058060" lon="10.3574030">
	<ele>1469.40</ele>
	<time>2025-04-29T07:24:30.000Z</time>
</trkpt>
<trkpt lat="45.9057960" lon="10.3573990">
	<ele>1469.40</ele>
	<time>2025-04-29T07:24:31.000Z</time>
</trkpt>
<trkpt lat="45.9057830" lon="10.3573970">
	<ele>1469.60</ele>
	<time>2025-04-29T07:24:32.000Z</time>
</trkpt>
<trkpt lat="45.9057720" lon="10.3573940">
	<ele>1469.60</ele>
	<time>2025-04-29T07:24:33.000Z</time>
</trkpt>
<trkpt lat="45.9057650" lon="10.3573940">
	<ele>1469.80</ele>
	<time>2025-04-29T07:24:34.000Z</time>
</trkpt>
<trkpt lat="45.9057580" lon="10.3573950">
	<ele>1469.80</ele>
	<time>2025-04-29T07:24:35.000Z</time>
</trkpt>
<trkpt lat="45.9057510" lon="10.3573960">
	<ele>1469.80</ele>
	<time>2025-04-29T07:24:36.000Z</time>
</trkpt>
<trkpt lat="45.9057440" lon="10.3573900">
	<ele>1470.00</ele>
	<time>2025-04-29T07:24:37.000Z</time>
</trkpt>
<trkpt lat="45.9057360" lon="10.3573820">
	<ele>1470.00</ele>
	<time>2025-04-29T07:24:38.000Z</time>
</trkpt>
<trkpt lat="45.9057230" lon="10.3573750">
	<ele>1470.00</ele>
	<time>2025-04-29T07:24:39.000Z</time>
</trkpt>
<trkpt lat="45.9057090" lon="10.3573690">
	<ele>1470.00</ele>
	<time>2025-04-29T07:24:40.000Z</time>
</trkpt>
<trkpt lat="45.9057000" lon="10.3573660">
	<ele>1470.20</ele>
	<time>2025-04-29T07:24:41.000Z</time>
</trkpt>
<trkpt lat="45.9056920" lon="10.3573640">
	<ele>1470.40</ele>
	<time>2025-04-29T07:24:42.000Z</time>
</trkpt>
<trkpt lat="45.9056920" lon="10.3573570">
	<ele>1470.40</ele>
	<time>2025-04-29T07:24:43.000Z</time>
</trkpt>
<trkpt lat="45.9056840" lon="10.3573480">
	<ele>1470.60</ele>
	<time>2025-04-29T07:24:44.000Z</time>
</trkpt>
<trkpt lat="45.9056790" lon="10.3573360">
	<ele>1470.80</ele>
	<time>2025-04-29T07:24:45.000Z</time>
</trkpt>
<trkpt lat="45.9056720" lon="10.3573250">
	<ele>1470.80</ele>
	<time>2025-04-29T07:24:46.000Z</time>
</trkpt>
<trkpt lat="45.9056570" lon="10.3573160">
	<ele>1471.00</ele>
	<time>2025-04-29T07:24:47.000Z</time>
</trkpt>
<trkpt lat="45.9056480" lon="10.3573030">
	<ele>1471.00</ele>
	<time>2025-04-29T07:24:48.000Z</time>
</trkpt>
<trkpt lat="45.9056400" lon="10.3573000">
	<ele>1471.20</ele>
	<time>2025-04-29T07:24:49.000Z</time>
</trkpt>
<trkpt lat="45.9056290" lon="10.3572990">
	<ele>1471.20</ele>
	<time>2025-04-29T07:24:50.000Z</time>
</trkpt>
<trkpt lat="45.9056220" lon="10.3572950">
	<ele>1471.40</ele>
	<time>2025-04-29T07:24:51.000Z</time>
</trkpt>
<trkpt lat="45.9056150" lon="10.3572890">
	<ele>1471.40</ele>
	<time>2025-04-29T07:24:52.000Z</time>
</trkpt>
<trkpt lat="45.9056080" lon="10.3572830">
	<ele>1471.40</ele>
	<time>2025-04-29T07:24:53.000Z</time>
</trkpt>
<trkpt lat="45.9056000" lon="10.3572760">
	<ele>1471.60</ele>
	<time>2025-04-29T07:24:54.000Z</time>
</trkpt>
<trkpt lat="45.9055880" lon="10.3572710">
	<ele>1471.60</ele>
	<time>2025-04-29T07:24:55.000Z</time>
</trkpt>
<trkpt lat="45.9055750" lon="10.3572570">
	<ele>1471.80</ele>
	<time>2025-04-29T07:24:56.000Z</time>
</trkpt>
<trkpt lat="45.9055650" lon="10.3572480">
	<ele>1472.00</ele>
	<time>2025-04-29T07:24:57.000Z</time>
</trkpt>
<trkpt lat="45.9055620" lon="10.3572450">
	<ele>1472.20</ele>
	<time>2025-04-29T07:24:58.000Z</time>
</trkpt>
<trkpt lat="45.9055600" lon="10.3572420">
	<ele>1472.40</ele>
	<time>2025-04-29T07:24:59.000Z</time>
</trkpt>
<trkpt lat="45.9055590" lon="10.3572380">
	<ele>1472.40</ele>
	<time>2025-04-29T07:25:00.000Z</time>
</trkpt>
<trkpt lat="45.9055570" lon="10.3572270">
	<ele>1472.60</ele>
	<time>2025-04-29T07:25:01.000Z</time>
</trkpt>
<trkpt lat="45.9055550" lon="10.3572240">
	<ele>1472.60</ele>
	<time>2025-04-29T07:25:02.000Z</time>
</trkpt>
<trkpt lat="45.9055510" lon="10.3572220">
	<ele>1472.80</ele>
	<time>2025-04-29T07:25:03.000Z</time>
</trkpt>
<trkpt lat="45.9055420" lon="10.3572130">
	<ele>1472.80</ele>
	<time>2025-04-29T07:25:04.000Z</time>
</trkpt>
<trkpt lat="45.9055340" lon="10.3572130">
	<ele>1473.00</ele>
	<time>2025-04-29T07:25:05.000Z</time>
</trkpt>
<trkpt lat="45.9055270" lon="10.3572120">
	<ele>1473.20</ele>
	<time>2025-04-29T07:25:06.000Z</time>
</trkpt>
<trkpt lat="45.9055190" lon="10.3572120">
	<ele>1473.20</ele>
	<time>2025-04-29T07:25:07.000Z</time>
</trkpt>
<trkpt lat="45.9055120" lon="10.3572130">
	<ele>1473.40</ele>
	<time>2025-04-29T07:25:08.000Z</time>
</trkpt>
<trkpt lat="45.9055070" lon="10.3572200">
	<ele>1473.40</ele>
	<time>2025-04-29T07:25:09.000Z</time>
</trkpt>
<trkpt lat="45.9055040" lon="10.3572200">
	<ele>1473.60</ele>
	<time>2025-04-29T07:25:10.000Z</time>
</trkpt>
<trkpt lat="45.9054970" lon="10.3572170">
	<ele>1473.60</ele>
	<time>2025-04-29T07:25:11.000Z</time>
</trkpt>
<trkpt lat="45.9054920" lon="10.3572100">
	<ele>1473.80</ele>
	<time>2025-04-29T07:25:12.000Z</time>
</trkpt>
<trkpt lat="45.9054920" lon="10.3572090">
	<ele>1473.80</ele>
	<time>2025-04-29T07:25:13.000Z</time>
</trkpt>
<trkpt lat="45.9054800" lon="10.3572010">
	<ele>1474.00</ele>
	<time>2025-04-29T07:25:14.000Z</time>
</trkpt>
<trkpt lat="45.9054740" lon="10.3572010">
	<ele>1474.00</ele>
	<time>2025-04-29T07:25:15.000Z</time>
</trkpt>
<trkpt lat="45.9054670" lon="10.3571970">
	<ele>1474.00</ele>
	<time>2025-04-29T07:25:16.000Z</time>
</trkpt>
<trkpt lat="45.9054580" lon="10.3571930">
	<ele>1474.00</ele>
	<time>2025-04-29T07:25:17.000Z</time>
</trkpt>
<trkpt lat="45.9054430" lon="10.3571880">
	<ele>1474.00</ele>
	<time>2025-04-29T07:25:18.000Z</time>
</trkpt>
<trkpt lat="45.9054240" lon="10.3571630">
	<ele>1474.00</ele>
	<time>2025-04-29T07:25:19.000Z</time>
</trkpt>
<trkpt lat="45.9054150" lon="10.3571430">
	<ele>1474.00</ele>
	<time>2025-04-29T07:25:20.000Z</time>
</trkpt>
<trkpt lat="45.9054070" lon="10.3571280">
	<ele>1474.00</ele>
	<time>2025-04-29T07:25:21.000Z</time>
</trkpt>
<trkpt lat="45.9053970" lon="10.3571170">
	<ele>1474.20</ele>
	<time>2025-04-29T07:25:22.000Z</time>
</trkpt>
<trkpt lat="45.9053890" lon="10.3571210">
	<ele>1474.20</ele>
	<time>2025-04-29T07:25:23.000Z</time>
</trkpt>
<trkpt lat="45.9053840" lon="10.3571240">
	<ele>1474.20</ele>
	<time>2025-04-29T07:25:24.000Z</time>
</trkpt>
<trkpt lat="45.9053800" lon="10.3571270">
	<ele>1474.40</ele>
	<time>2025-04-29T07:25:25.000Z</time>
</trkpt>
<trkpt lat="45.9053770" lon="10.3571290">
	<ele>1474.40</ele>
	<time>2025-04-29T07:25:26.000Z</time>
</trkpt>
<trkpt lat="45.9053740" lon="10.3571290">
	<ele>1474.40</ele>
	<time>2025-04-29T07:25:27.000Z</time>
</trkpt>
<trkpt lat="45.9053720" lon="10.3571300">
	<ele>1474.60</ele>
	<time>2025-04-29T07:25:28.000Z</time>
</trkpt>
<trkpt lat="45.9053720" lon="10.3571300">
	<ele>1474.60</ele>
	<time>2025-04-29T07:25:29.000Z</time>
</trkpt>
<trkpt lat="45.9053730" lon="10.3571280">
	<ele>1474.60</ele>
	<time>2025-04-29T07:25:30.000Z</time>
</trkpt>
<trkpt lat="45.9053740" lon="10.3571260">
	<ele>1474.60</ele>
	<time>2025-04-29T07:25:31.000Z</time>
</trkpt>
<trkpt lat="45.9053750" lon="10.3571240">
	<ele>1474.60</ele>
	<time>2025-04-29T07:25:32.000Z</time>
</trkpt>
<trkpt lat="45.9053760" lon="10.3571230">
	<ele>1474.80</ele>
	<time>2025-04-29T07:25:33.000Z</time>
</trkpt>
<trkpt lat="45.9053800" lon="10.3571160">
	<ele>1474.60</ele>
	<time>2025-04-29T07:25:34.000Z</time>
</trkpt>
<trkpt lat="45.9053890" lon="10.3571340">
	<ele>1474.60</ele>
	<time>2025-04-29T07:25:35.000Z</time>
</trkpt>
<trkpt lat="45.9053920" lon="10.3571530">
	<ele>1474.60</ele>
	<time>2025-04-29T07:25:36.000Z</time>
</trkpt>
<trkpt lat="45.9053880" lon="10.3571700">
	<ele>1474.40</ele>
	<time>2025-04-29T07:25:37.000Z</time>
</trkpt>
<trkpt lat="45.9053800" lon="10.3571860">
	<ele>1474.40</ele>
	<time>2025-04-29T07:25:38.000Z</time>
</trkpt>
<trkpt lat="45.9053710" lon="10.3572030">
	<ele>1474.40</ele>
	<time>2025-04-29T07:25:39.000Z</time>
</trkpt>
<trkpt lat="45.9053660" lon="10.3572190">
	<ele>1474.40</ele>
	<time>2025-04-29T07:25:40.000Z</time>
</trkpt>
<trkpt lat="45.9053620" lon="10.3572330">
	<ele>1474.40</ele>
	<time>2025-04-29T07:25:41.000Z</time>
</trkpt>
<trkpt lat="45.9053570" lon="10.3572520">
	<ele>1474.40</ele>
	<time>2025-04-29T07:25:42.000Z</time>
</trkpt>
<trkpt lat="45.9053490" lon="10.3572770">
	<ele>1474.40</ele>
	<time>2025-04-29T07:25:43.000Z</time>
</trkpt>
<trkpt lat="45.9053420" lon="10.3572950">
	<ele>1474.40</ele>
	<time>2025-04-29T07:25:44.000Z</time>
</trkpt>
<trkpt lat="45.9053330" lon="10.3573130">
	<ele>1474.60</ele>
	<time>2025-04-29T07:25:45.000Z</time>
</trkpt>
<trkpt lat="45.9053260" lon="10.3573290">
	<ele>1474.60</ele>
	<time>2025-04-29T07:25:46.000Z</time>
</trkpt>
<trkpt lat="45.9053200" lon="10.3573450">
	<ele>1474.60</ele>
	<time>2025-04-29T07:25:47.000Z</time>
</trkpt>
<trkpt lat="45.9053150" lon="10.3573570">
	<ele>1474.80</ele>
	<time>2025-04-29T07:25:48.000Z</time>
</trkpt>
<trkpt lat="45.9053100" lon="10.3573710">
	<ele>1474.80</ele>
	<time>2025-04-29T07:25:49.000Z</time>
</trkpt>
<trkpt lat="45.9053030" lon="10.3573810">
	<ele>1475.00</ele>
	<time>2025-04-29T07:25:50.000Z</time>
</trkpt>
<trkpt lat="45.9052960" lon="10.3573930">
	<ele>1475.00</ele>
	<time>2025-04-29T07:25:51.000Z</time>
</trkpt>
<trkpt lat="45.9052870" lon="10.3574060">
	<ele>1475.20</ele>
	<time>2025-04-29T07:25:52.000Z</time>
</trkpt>
<trkpt lat="45.9052780" lon="10.3574200">
	<ele>1475.20</ele>
	<time>2025-04-29T07:25:53.000Z</time>
</trkpt>
<trkpt lat="45.9052700" lon="10.3574300">
	<ele>1475.40</ele>
	<time>2025-04-29T07:25:54.000Z</time>
</trkpt>
<trkpt lat="45.9052620" lon="10.3574390">
	<ele>1475.60</ele>
	<time>2025-04-29T07:25:55.000Z</time>
</trkpt>
<trkpt lat="45.9052580" lon="10.3574460">
	<ele>1475.60</ele>
	<time>2025-04-29T07:25:56.000Z</time>
</trkpt>
<trkpt lat="45.9052500" lon="10.3574510">
	<ele>1475.80</ele>
	<time>2025-04-29T07:25:57.000Z</time>
</trkpt>
<trkpt lat="45.9052480" lon="10.3574580">
	<ele>1475.80</ele>
	<time>2025-04-29T07:25:58.000Z</time>
</trkpt>
<trkpt lat="45.9052440" lon="10.3574740">
	<ele>1476.00</ele>
	<time>2025-04-29T07:25:59.000Z</time>
</trkpt>
<trkpt lat="45.9052360" lon="10.3574890">
	<ele>1476.00</ele>
	<time>2025-04-29T07:26:00.000Z</time>
</trkpt>
<trkpt lat="45.9052240" lon="10.3575000">
	<ele>1476.20</ele>
	<time>2025-04-29T07:26:01.000Z</time>
</trkpt>
<trkpt lat="45.9052140" lon="10.3575100">
	<ele>1476.40</ele>
	<time>2025-04-29T07:26:02.000Z</time>
</trkpt>
<trkpt lat="45.9052070" lon="10.3575240">
	<ele>1476.40</ele>
	<time>2025-04-29T07:26:03.000Z</time>
</trkpt>
<trkpt lat="45.9052000" lon="10.3575340">
	<ele>1476.60</ele>
	<time>2025-04-29T07:26:04.000Z</time>
</trkpt>
<trkpt lat="45.9051930" lon="10.3575380">
	<ele>1476.80</ele>
	<time>2025-04-29T07:26:05.000Z</time>
</trkpt>
<trkpt lat="45.9051850" lon="10.3575440">
	<ele>1477.00</ele>
	<time>2025-04-29T07:26:06.000Z</time>
</trkpt>
<trkpt lat="45.9051790" lon="10.3575570">
	<ele>1477.00</ele>
	<time>2025-04-29T07:26:07.000Z</time>
</trkpt>
<trkpt lat="45.9051710" lon="10.3575690">
	<ele>1477.00</ele>
	<time>2025-04-29T07:26:08.000Z</time>
</trkpt>
<trkpt lat="45.9051660" lon="10.3575790">
	<ele>1477.20</ele>
	<time>2025-04-29T07:26:09.000Z</time>
</trkpt>
<trkpt lat="45.9051610" lon="10.3575930">
	<ele>1477.40</ele>
	<time>2025-04-29T07:26:10.000Z</time>
</trkpt>
<trkpt lat="45.9051560" lon="10.3576110">
	<ele>1477.40</ele>
	<time>2025-04-29T07:26:11.000Z</time>
</trkpt>
<trkpt lat="45.9051510" lon="10.3576250">
	<ele>1477.60</ele>
	<time>2025-04-29T07:26:12.000Z</time>
</trkpt>
<trkpt lat="45.9051460" lon="10.3576380">
	<ele>1477.80</ele>
	<time>2025-04-29T07:26:13.000Z</time>
</trkpt>
<trkpt lat="45.9051380" lon="10.3576470">
	<ele>1477.80</ele>
	<time>2025-04-29T07:26:14.000Z</time>
</trkpt>
<trkpt lat="45.9051270" lon="10.3576610">
	<ele>1478.00</ele>
	<time>2025-04-29T07:26:15.000Z</time>
</trkpt>
<trkpt lat="45.9051200" lon="10.3576740">
	<ele>1478.20</ele>
	<time>2025-04-29T07:26:16.000Z</time>
</trkpt>
<trkpt lat="45.9051170" lon="10.3576820">
	<ele>1478.40</ele>
	<time>2025-04-29T07:26:17.000Z</time>
</trkpt>
<trkpt lat="45.9051150" lon="10.3576900">
	<ele>1478.60</ele>
	<time>2025-04-29T07:26:18.000Z</time>
</trkpt>
<trkpt lat="45.9051120" lon="10.3577060">
	<ele>1478.60</ele>
	<time>2025-04-29T07:26:19.000Z</time>
</trkpt>
<trkpt lat="45.9051070" lon="10.3577230">
	<ele>1478.80</ele>
	<time>2025-04-29T07:26:20.000Z</time>
</trkpt>
<trkpt lat="45.9051020" lon="10.3577380">
	<ele>1479.00</ele>
	<time>2025-04-29T07:26:21.000Z</time>
</trkpt>
<trkpt lat="45.9050980" lon="10.3577560">
	<ele>1479.00</ele>
	<time>2025-04-29T07:26:22.000Z</time>
</trkpt>
<trkpt lat="45.9050980" lon="10.3577710">
	<ele>1479.20</ele>
	<time>2025-04-29T07:26:23.000Z</time>
</trkpt>
<trkpt lat="45.9050990" lon="10.3577900">
	<ele>1479.40</ele>
	<time>2025-04-29T07:26:24.000Z</time>
</trkpt>
<trkpt lat="45.9050980" lon="10.3578100">
	<ele>1479.40</ele>
	<time>2025-04-29T07:26:25.000Z</time>
</trkpt>
<trkpt lat="45.9050940" lon="10.3578330">
	<ele>1479.60</ele>
	<time>2025-04-29T07:26:26.000Z</time>
</trkpt>
<trkpt lat="45.9050910" lon="10.3578480">
	<ele>1479.80</ele>
	<time>2025-04-29T07:26:27.000Z</time>
</trkpt>
<trkpt lat="45.9050870" lon="10.3578630">
	<ele>1480.00</ele>
	<time>2025-04-29T07:26:28.000Z</time>
</trkpt>
<trkpt lat="45.9050840" lon="10.3578790">
	<ele>1480.00</ele>
	<time>2025-04-29T07:26:29.000Z</time>
</trkpt>
<trkpt lat="45.9050800" lon="10.3578990">
	<ele>1480.00</ele>
	<time>2025-04-29T07:26:30.000Z</time>
</trkpt>
<trkpt lat="45.9050750" lon="10.3579230">
	<ele>1480.20</ele>
	<time>2025-04-29T07:26:31.000Z</time>
</trkpt>
<trkpt lat="45.9050750" lon="10.3579390">
	<ele>1480.40</ele>
	<time>2025-04-29T07:26:32.000Z</time>
</trkpt>
<trkpt lat="45.9050790" lon="10.3579530">
	<ele>1480.40</ele>
	<time>2025-04-29T07:26:33.000Z</time>
</trkpt>
<trkpt lat="45.9050850" lon="10.3579690">
	<ele>1480.60</ele>
	<time>2025-04-29T07:26:34.000Z</time>
</trkpt>
<trkpt lat="45.9050930" lon="10.3579820">
	<ele>1480.80</ele>
	<time>2025-04-29T07:26:35.000Z</time>
</trkpt>
<trkpt lat="45.9051000" lon="10.3579930">
	<ele>1480.80</ele>
	<time>2025-04-29T07:26:36.000Z</time>
</trkpt>
<trkpt lat="45.9051040" lon="10.3580030">
	<ele>1480.80</ele>
	<time>2025-04-29T07:26:37.000Z</time>
</trkpt>
<trkpt lat="45.9051080" lon="10.3580160">
	<ele>1480.80</ele>
	<time>2025-04-29T07:26:38.000Z</time>
</trkpt>
<trkpt lat="45.9051110" lon="10.3580290">
	<ele>1481.00</ele>
	<time>2025-04-29T07:26:39.000Z</time>
</trkpt>
<trkpt lat="45.9051160" lon="10.3580460">
	<ele>1481.00</ele>
	<time>2025-04-29T07:26:40.000Z</time>
</trkpt>
<trkpt lat="45.9051190" lon="10.3580580">
	<ele>1481.20</ele>
	<time>2025-04-29T07:26:41.000Z</time>
</trkpt>
<trkpt lat="45.9051190" lon="10.3580700">
	<ele>1481.40</ele>
	<time>2025-04-29T07:26:42.000Z</time>
</trkpt>
<trkpt lat="45.9051210" lon="10.3580860">
	<ele>1481.40</ele>
	<time>2025-04-29T07:26:43.000Z</time>
</trkpt>
<trkpt lat="45.9051210" lon="10.3581040">
	<ele>1481.60</ele>
	<time>2025-04-29T07:26:44.000Z</time>
</trkpt>
<trkpt lat="45.9051240" lon="10.3581210">
	<ele>1481.60</ele>
	<time>2025-04-29T07:26:45.000Z</time>
</trkpt>
<trkpt lat="45.9051250" lon="10.3581430">
	<ele>1481.80</ele>
	<time>2025-04-29T07:26:46.000Z</time>
</trkpt>
<trkpt lat="45.9051280" lon="10.3581630">
	<ele>1481.80</ele>
	<time>2025-04-29T07:26:47.000Z</time>
</trkpt>
<trkpt lat="45.9051310" lon="10.3581830">
	<ele>1482.00</ele>
	<time>2025-04-29T07:26:48.000Z</time>
</trkpt>
<trkpt lat="45.9051320" lon="10.3582080">
	<ele>1482.00</ele>
	<time>2025-04-29T07:26:49.000Z</time>
</trkpt>
<trkpt lat="45.9051320" lon="10.3582280">
	<ele>1482.20</ele>
	<time>2025-04-29T07:26:50.000Z</time>
</trkpt>
<trkpt lat="45.9051340" lon="10.3582460">
	<ele>1482.20</ele>
	<time>2025-04-29T07:26:51.000Z</time>
</trkpt>
<trkpt lat="45.9051390" lon="10.3582560">
	<ele>1482.40</ele>
	<time>2025-04-29T07:26:52.000Z</time>
</trkpt>
<trkpt lat="45.9051440" lon="10.3582690">
	<ele>1482.40</ele>
	<time>2025-04-29T07:26:53.000Z</time>
</trkpt>
<trkpt lat="45.9051490" lon="10.3582810">
	<ele>1482.60</ele>
	<time>2025-04-29T07:26:54.000Z</time>
</trkpt>
<trkpt lat="45.9051540" lon="10.3582920">
	<ele>1482.60</ele>
	<time>2025-04-29T07:26:55.000Z</time>
</trkpt>
<trkpt lat="45.9051580" lon="10.3583070">
	<ele>1482.60</ele>
	<time>2025-04-29T07:26:56.000Z</time>
</trkpt>
<trkpt lat="45.9051620" lon="10.3583200">
	<ele>1482.60</ele>
	<time>2025-04-29T07:26:57.000Z</time>
</trkpt>
<trkpt lat="45.9051690" lon="10.3583350">
	<ele>1482.60</ele>
	<time>2025-04-29T07:26:58.000Z</time>
</trkpt>
<trkpt lat="45.9051750" lon="10.3583470">
	<ele>1482.60</ele>
	<time>2025-04-29T07:26:59.000Z</time>
</trkpt>
<trkpt lat="45.9051800" lon="10.3583620">
	<ele>1482.60</ele>
	<time>2025-04-29T07:27:00.000Z</time>
</trkpt>
<trkpt lat="45.9051840" lon="10.3583720">
	<ele>1482.60</ele>
	<time>2025-04-29T07:27:01.000Z</time>
</trkpt>
<trkpt lat="45.9051860" lon="10.3583810">
	<ele>1482.60</ele>
	<time>2025-04-29T07:27:02.000Z</time>
</trkpt>
<trkpt lat="45.9051890" lon="10.3583890">
	<ele>1482.80</ele>
	<time>2025-04-29T07:27:03.000Z</time>
</trkpt>
<trkpt lat="45.9051910" lon="10.3583910">
	<ele>1482.80</ele>
	<time>2025-04-29T07:27:04.000Z</time>
</trkpt>
<trkpt lat="45.9051930" lon="10.3583930">
	<ele>1483.00</ele>
	<time>2025-04-29T07:27:05.000Z</time>
</trkpt>
<trkpt lat="45.9051940" lon="10.3583940">
	<ele>1483.00</ele>
	<time>2025-04-29T07:27:06.000Z</time>
</trkpt>
<trkpt lat="45.9051940" lon="10.3584020">
	<ele>1483.00</ele>
	<time>2025-04-29T07:27:07.000Z</time>
</trkpt>
<trkpt lat="45.9051920" lon="10.3584120">
	<ele>1483.00</ele>
	<time>2025-04-29T07:27:08.000Z</time>
</trkpt>
<trkpt lat="45.9051910" lon="10.3584280">
	<ele>1482.80</ele>
	<time>2025-04-29T07:27:09.000Z</time>
</trkpt>
<trkpt lat="45.9051920" lon="10.3584430">
	<ele>1482.80</ele>
	<time>2025-04-29T07:27:10.000Z</time>
</trkpt>
<trkpt lat="45.9051930" lon="10.3584590">
	<ele>1482.80</ele>
	<time>2025-04-29T07:27:11.000Z</time>
</trkpt>
<trkpt lat="45.9051940" lon="10.3584740">
	<ele>1482.60</ele>
	<time>2025-04-29T07:27:12.000Z</time>
</trkpt>
<trkpt lat="45.9051960" lon="10.3584910">
	<ele>1482.60</ele>
	<time>2025-04-29T07:27:13.000Z</time>
</trkpt>
<trkpt lat="45.9051960" lon="10.3585080">
	<ele>1482.60</ele>
	<time>2025-04-29T07:27:14.000Z</time>
</trkpt>
<trkpt lat="45.9051970" lon="10.3585250">
	<ele>1482.60</ele>
	<time>2025-04-29T07:27:15.000Z</time>
</trkpt>
<trkpt lat="45.9051990" lon="10.3585410">
	<ele>1482.60</ele>
	<time>2025-04-29T07:27:16.000Z</time>
</trkpt>
<trkpt lat="45.9052010" lon="10.3585580">
	<ele>1482.60</ele>
	<time>2025-04-29T07:27:17.000Z</time>
</trkpt>
<trkpt lat="45.9052020" lon="10.3585730">
	<ele>1482.60</ele>
	<time>2025-04-29T07:27:18.000Z</time>
</trkpt>
<trkpt lat="45.9052030" lon="10.3585910">
	<ele>1482.40</ele>
	<time>2025-04-29T07:27:19.000Z</time>
</trkpt>
<trkpt lat="45.9052010" lon="10.3586090">
	<ele>1482.40</ele>
	<time>2025-04-29T07:27:20.000Z</time>
</trkpt>
<trkpt lat="45.9052000" lon="10.3586270">
	<ele>1482.40</ele>
	<time>2025-04-29T07:27:21.000Z</time>
</trkpt>
<trkpt lat="45.9051980" lon="10.3586440">
	<ele>1482.40</ele>
	<time>2025-04-29T07:27:22.000Z</time>
</trkpt>
<trkpt lat="45.9051960" lon="10.3586630">
	<ele>1482.40</ele>
	<time>2025-04-29T07:27:23.000Z</time>
</trkpt>
<trkpt lat="45.9051950" lon="10.3586830">
	<ele>1482.40</ele>
	<time>2025-04-29T07:27:24.000Z</time>
</trkpt>
<trkpt lat="45.9051940" lon="10.3587040">
	<ele>1482.20</ele>
	<time>2025-04-29T07:27:25.000Z</time>
</trkpt>
<trkpt lat="45.9051940" lon="10.3587240">
	<ele>1482.20</ele>
	<time>2025-04-29T07:27:26.000Z</time>
</trkpt>
<trkpt lat="45.9051950" lon="10.3587450">
	<ele>1482.20</ele>
	<time>2025-04-29T07:27:27.000Z</time>
</trkpt>
<trkpt lat="45.9051950" lon="10.3587620">
	<ele>1482.20</ele>
	<time>2025-04-29T07:27:28.000Z</time>
</trkpt>
<trkpt lat="45.9051950" lon="10.3587790">
	<ele>1482.20</ele>
	<time>2025-04-29T07:27:29.000Z</time>
</trkpt>
<trkpt lat="45.9051960" lon="10.3587970">
	<ele>1482.00</ele>
	<time>2025-04-29T07:27:30.000Z</time>
</trkpt>
<trkpt lat="45.9051980" lon="10.3588110">
	<ele>1482.00</ele>
	<time>2025-04-29T07:27:31.000Z</time>
</trkpt>
<trkpt lat="45.9052010" lon="10.3588240">
	<ele>1481.80</ele>
	<time>2025-04-29T07:27:32.000Z</time>
</trkpt>
<trkpt lat="45.9052010" lon="10.3588390">
	<ele>1481.80</ele>
	<time>2025-04-29T07:27:33.000Z</time>
</trkpt>
<trkpt lat="45.9052000" lon="10.3588600">
	<ele>1481.80</ele>
	<time>2025-04-29T07:27:34.000Z</time>
</trkpt>
<trkpt lat="45.9051980" lon="10.3588790">
	<ele>1481.60</ele>
	<time>2025-04-29T07:27:35.000Z</time>
</trkpt>
<trkpt lat="45.9051950" lon="10.3589000">
	<ele>1481.60</ele>
	<time>2025-04-29T07:27:36.000Z</time>
</trkpt>
<trkpt lat="45.9051950" lon="10.3589250">
	<ele>1481.60</ele>
	<time>2025-04-29T07:27:37.000Z</time>
</trkpt>
<trkpt lat="45.9051930" lon="10.3589410">
	<ele>1481.60</ele>
	<time>2025-04-29T07:27:38.000Z</time>
</trkpt>
<trkpt lat="45.9051940" lon="10.3589590">
	<ele>1481.60</ele>
	<time>2025-04-29T07:27:39.000Z</time>
</trkpt>
<trkpt lat="45.9051960" lon="10.3589810">
	<ele>1481.60</ele>
	<time>2025-04-29T07:27:40.000Z</time>
</trkpt>
<trkpt lat="45.9051970" lon="10.3590070">
	<ele>1481.60</ele>
	<time>2025-04-29T07:27:41.000Z</time>
</trkpt>
<trkpt lat="45.9051970" lon="10.3590340">
	<ele>1481.40</ele>
	<time>2025-04-29T07:27:42.000Z</time>
</trkpt>
<trkpt lat="45.9051930" lon="10.3590650">
	<ele>1481.40</ele>
	<time>2025-04-29T07:27:43.000Z</time>
</trkpt>
<trkpt lat="45.9051850" lon="10.3590830">
	<ele>1481.20</ele>
	<time>2025-04-29T07:27:44.000Z</time>
</trkpt>
<trkpt lat="45.9051820" lon="10.3591030">
	<ele>1481.20</ele>
	<time>2025-04-29T07:27:45.000Z</time>
</trkpt>
<trkpt lat="45.9051810" lon="10.3591220">
	<ele>1480.80</ele>
	<time>2025-04-29T07:27:46.000Z</time>
</trkpt>
<trkpt lat="45.9051800" lon="10.3591290">
	<ele>1480.60</ele>
	<time>2025-04-29T07:27:47.000Z</time>
</trkpt>
<trkpt lat="45.9051830" lon="10.3591470">
	<ele>1480.40</ele>
	<time>2025-04-29T07:27:48.000Z</time>
</trkpt>
<trkpt lat="45.9051870" lon="10.3591650">
	<ele>1480.40</ele>
	<time>2025-04-29T07:27:49.000Z</time>
</trkpt>
<trkpt lat="45.9051890" lon="10.3591780">
	<ele>1480.20</ele>
	<time>2025-04-29T07:27:50.000Z</time>
</trkpt>
<trkpt lat="45.9051890" lon="10.3591890">
	<ele>1479.80</ele>
	<time>2025-04-29T07:27:51.000Z</time>
</trkpt>
<trkpt lat="45.9051920" lon="10.3591980">
	<ele>1479.60</ele>
	<time>2025-04-29T07:27:52.000Z</time>
</trkpt>
<trkpt lat="45.9051920" lon="10.3592160">
	<ele>1479.40</ele>
	<time>2025-04-29T07:27:53.000Z</time>
</trkpt>
<trkpt lat="45.9052000" lon="10.3592310">
	<ele>1479.20</ele>
	<time>2025-04-29T07:27:54.000Z</time>
</trkpt>
<trkpt lat="45.9052100" lon="10.3592460">
	<ele>1479.00</ele>
	<time>2025-04-29T07:27:55.000Z</time>
</trkpt>
<trkpt lat="45.9052190" lon="10.3592690">
	<ele>1479.00</ele>
	<time>2025-04-29T07:27:56.000Z</time>
</trkpt>
<trkpt lat="45.9052260" lon="10.3592980">
	<ele>1478.80</ele>
	<time>2025-04-29T07:27:57.000Z</time>
</trkpt>
<trkpt lat="45.9052290" lon="10.3593270">
	<ele>1478.80</ele>
	<time>2025-04-29T07:27:58.000Z</time>
</trkpt>
<trkpt lat="45.9052340" lon="10.3593540">
	<ele>1478.60</ele>
	<time>2025-04-29T07:27:59.000Z</time>
</trkpt>
<trkpt lat="45.9052350" lon="10.3593730">
	<ele>1478.40</ele>
	<time>2025-04-29T07:28:00.000Z</time>
</trkpt>
<trkpt lat="45.9052360" lon="10.3593840">
	<ele>1478.40</ele>
	<time>2025-04-29T07:28:01.000Z</time>
</trkpt>
<trkpt lat="45.9052340" lon="10.3593910">
	<ele>1478.00</ele>
	<time>2025-04-29T07:28:02.000Z</time>
</trkpt>
<trkpt lat="45.9052350" lon="10.3594010">
	<ele>1477.80</ele>
	<time>2025-04-29T07:28:03.000Z</time>
</trkpt>
<trkpt lat="45.9052430" lon="10.3594110">
	<ele>1477.80</ele>
	<time>2025-04-29T07:28:04.000Z</time>
</trkpt>
<trkpt lat="45.9052470" lon="10.3594220">
	<ele>1477.60</ele>
	<time>2025-04-29T07:28:05.000Z</time>
</trkpt>
<trkpt lat="45.9052530" lon="10.3594420">
	<ele>1477.40</ele>
	<time>2025-04-29T07:28:06.000Z</time>
</trkpt>
<trkpt lat="45.9052570" lon="10.3594610">
	<ele>1477.40</ele>
	<time>2025-04-29T07:28:07.000Z</time>
</trkpt>
<trkpt lat="45.9052600" lon="10.3594880">
	<ele>1477.20</ele>
	<time>2025-04-29T07:28:08.000Z</time>
</trkpt>
<trkpt lat="45.9052620" lon="10.3595050">
	<ele>1477.00</ele>
	<time>2025-04-29T07:28:09.000Z</time>
</trkpt>
<trkpt lat="45.9052630" lon="10.3595250">
	<ele>1476.80</ele>
	<time>2025-04-29T07:28:10.000Z</time>
</trkpt>
<trkpt lat="45.9052650" lon="10.3595430">
	<ele>1476.60</ele>
	<time>2025-04-29T07:28:11.000Z</time>
</trkpt>
<trkpt lat="45.9052670" lon="10.3595600">
	<ele>1476.40</ele>
	<time>2025-04-29T07:28:12.000Z</time>
</trkpt>
<trkpt lat="45.9052660" lon="10.3595760">
	<ele>1476.40</ele>
	<time>2025-04-29T07:28:13.000Z</time>
</trkpt>
<trkpt lat="45.9052670" lon="10.3595930">
	<ele>1476.20</ele>
	<time>2025-04-29T07:28:14.000Z</time>
</trkpt>
<trkpt lat="45.9052660" lon="10.3596230">
	<ele>1476.20</ele>
	<time>2025-04-29T07:28:15.000Z</time>
</trkpt>
<trkpt lat="45.9052650" lon="10.3596500">
	<ele>1476.20</ele>
	<time>2025-04-29T07:28:16.000Z</time>
</trkpt>
<trkpt lat="45.9052680" lon="10.3596740">
	<ele>1476.20</ele>
	<time>2025-04-29T07:28:17.000Z</time>
</trkpt>
<trkpt lat="45.9052720" lon="10.3596970">
	<ele>1476.00</ele>
	<time>2025-04-29T07:28:18.000Z</time>
</trkpt>
<trkpt lat="45.9052770" lon="10.3597150">
	<ele>1475.80</ele>
	<time>2025-04-29T07:28:19.000Z</time>
</trkpt>
<trkpt lat="45.9052860" lon="10.3597310">
	<ele>1475.80</ele>
	<time>2025-04-29T07:28:20.000Z</time>
</trkpt>
<trkpt lat="45.9052900" lon="10.3597480">
	<ele>1475.40</ele>
	<time>2025-04-29T07:28:21.000Z</time>
</trkpt>
<trkpt lat="45.9052940" lon="10.3597590">
	<ele>1475.20</ele>
	<time>2025-04-29T07:28:22.000Z</time>
</trkpt>
<trkpt lat="45.9052920" lon="10.3597710">
	<ele>1475.20</ele>
	<time>2025-04-29T07:28:23.000Z</time>
</trkpt>
<trkpt lat="45.9052900" lon="10.3597850">
	<ele>1475.00</ele>
	<time>2025-04-29T07:28:24.000Z</time>
</trkpt>
<trkpt lat="45.9052990" lon="10.3598040">
	<ele>1474.80</ele>
	<time>2025-04-29T07:28:25.000Z</time>
</trkpt>
<trkpt lat="45.9053120" lon="10.3598200">
	<ele>1474.60</ele>
	<time>2025-04-29T07:28:26.000Z</time>
</trkpt>
<trkpt lat="45.9053300" lon="10.3598370">
	<ele>1474.40</ele>
	<time>2025-04-29T07:28:27.000Z</time>
</trkpt>
<trkpt lat="45.9053390" lon="10.3598520">
	<ele>1474.40</ele>
	<time>2025-04-29T07:28:28.000Z</time>
</trkpt>
<trkpt lat="45.9053450" lon="10.3598650">
	<ele>1474.20</ele>
	<time>2025-04-29T07:28:29.000Z</time>
</trkpt>
<trkpt lat="45.9053540" lon="10.3598830">
	<ele>1474.00</ele>
	<time>2025-04-29T07:28:30.000Z</time>
</trkpt>
<trkpt lat="45.9053740" lon="10.3599030">
	<ele>1474.00</ele>
	<time>2025-04-29T07:28:31.000Z</time>
</trkpt>
<trkpt lat="45.9053910" lon="10.3599200">
	<ele>1473.80</ele>
	<time>2025-04-29T07:28:32.000Z</time>
</trkpt>
<trkpt lat="45.9053980" lon="10.3599310">
	<ele>1473.60</ele>
	<time>2025-04-29T07:28:33.000Z</time>
</trkpt>
<trkpt lat="45.9053900" lon="10.3599380">
	<ele>1473.40</ele>
	<time>2025-04-29T07:28:34.000Z</time>
</trkpt>
<trkpt lat="45.9053920" lon="10.3599490">
	<ele>1473.20</ele>
	<time>2025-04-29T07:28:35.000Z</time>
</trkpt>
<trkpt lat="45.9053890" lon="10.3599600">
	<ele>1473.20</ele>
	<time>2025-04-29T07:28:36.000Z</time>
</trkpt>
<trkpt lat="45.9053980" lon="10.3599730">
	<ele>1473.20</ele>
	<time>2025-04-29T07:28:37.000Z</time>
</trkpt>
<trkpt lat="45.9053990" lon="10.3599840">
	<ele>1472.80</ele>
	<time>2025-04-29T07:28:38.000Z</time>
</trkpt>
<trkpt lat="45.9054060" lon="10.3599910">
	<ele>1472.60</ele>
	<time>2025-04-29T07:28:39.000Z</time>
</trkpt>
<trkpt lat="45.9054220" lon="10.3600040">
	<ele>1472.40</ele>
	<time>2025-04-29T07:28:40.000Z</time>
</trkpt>
<trkpt lat="45.9054340" lon="10.3600190">
	<ele>1472.40</ele>
	<time>2025-04-29T07:28:41.000Z</time>
</trkpt>
<trkpt lat="45.9054480" lon="10.3600310">
	<ele>1472.20</ele>
	<time>2025-04-29T07:28:42.000Z</time>
</trkpt>
<trkpt lat="45.9054500" lon="10.3600400">
	<ele>1472.20</ele>
	<time>2025-04-29T07:28:43.000Z</time>
</trkpt>
<trkpt lat="45.9054560" lon="10.3600550">
	<ele>1472.00</ele>
	<time>2025-04-29T07:28:44.000Z</time>
</trkpt>
<trkpt lat="45.9054620" lon="10.3600740">
	<ele>1472.00</ele>
	<time>2025-04-29T07:28:45.000Z</time>
</trkpt>
<trkpt lat="45.9054700" lon="10.3600910">
	<ele>1471.80</ele>
	<time>2025-04-29T07:28:46.000Z</time>
</trkpt>
<trkpt lat="45.9054840" lon="10.3601090">
	<ele>1471.60</ele>
	<time>2025-04-29T07:28:47.000Z</time>
</trkpt>
<trkpt lat="45.9054920" lon="10.3601250">
	<ele>1471.40</ele>
	<time>2025-04-29T07:28:48.000Z</time>
</trkpt>
<trkpt lat="45.9054980" lon="10.3601280">
	<ele>1471.20</ele>
	<time>2025-04-29T07:28:49.000Z</time>
</trkpt>
<trkpt lat="45.9054840" lon="10.3601390">
	<ele>1471.20</ele>
	<time>2025-04-29T07:28:50.000Z</time>
</trkpt>
<trkpt lat="45.9054910" lon="10.3601550">
	<ele>1471.00</ele>
	<time>2025-04-29T07:28:51.000Z</time>
</trkpt>
<trkpt lat="45.9055260" lon="10.3601740">
	<ele>1471.00</ele>
	<time>2025-04-29T07:28:52.000Z</time>
</trkpt>
<trkpt lat="45.9055510" lon="10.3601900">
	<ele>1470.80</ele>
	<time>2025-04-29T07:28:53.000Z</time>
</trkpt>
<trkpt lat="45.9056040" lon="10.3602170">
	<ele>1470.80</ele>
	<time>2025-04-29T07:28:54.000Z</time>
</trkpt>
<trkpt lat="45.9056400" lon="10.3602380">
	<ele>1470.60</ele>
	<time>2025-04-29T07:28:55.000Z</time>
</trkpt>
<trkpt lat="45.9056870" lon="10.3602590">
	<ele>1470.60</ele>
	<time>2025-04-29T07:28:56.000Z</time>
</trkpt>
<trkpt lat="45.9056980" lon="10.3602760">
	<ele>1470.60</ele>
	<time>2025-04-29T07:28:57.000Z</time>
</trkpt>
<trkpt lat="45.9056800" lon="10.3602950">
	<ele>1470.40</ele>
	<time>2025-04-29T07:28:58.000Z</time>
</trkpt>
<trkpt lat="45.9056800" lon="10.3603140">
	<ele>1470.40</ele>
	<time>2025-04-29T07:28:59.000Z</time>
</trkpt>
<trkpt lat="45.9056820" lon="10.3603360">
	<ele>1470.40</ele>
	<time>2025-04-29T07:29:00.000Z</time>
</trkpt>
<trkpt lat="45.9056820" lon="10.3603550">
	<ele>1470.40</ele>
	<time>2025-04-29T07:29:01.000Z</time>
</trkpt>
<trkpt lat="45.9056780" lon="10.3603680">
	<ele>1470.40</ele>
	<time>2025-04-29T07:29:02.000Z</time>
</trkpt>
<trkpt lat="45.9056830" lon="10.3603740">
	<ele>1470.40</ele>
	<time>2025-04-29T07:29:03.000Z</time>
</trkpt>
<trkpt lat="45.9056710" lon="10.3603810">
	<ele>1470.40</ele>
	<time>2025-04-29T07:29:04.000Z</time>
</trkpt>
<trkpt lat="45.9056620" lon="10.3603780">
	<ele>1470.60</ele>
	<time>2025-04-29T07:29:05.000Z</time>
</trkpt>
<trkpt lat="45.9056570" lon="10.3603710">
	<ele>1470.60</ele>
	<time>2025-04-29T07:29:06.000Z</time>
</trkpt>
<trkpt lat="45.9056510" lon="10.3603630">
	<ele>1470.60</ele>
	<time>2025-04-29T07:29:07.000Z</time>
</trkpt>
<trkpt lat="45.9056450" lon="10.3603490">
	<ele>1470.60</ele>
	<time>2025-04-29T07:29:08.000Z</time>
</trkpt>
<trkpt lat="45.9056390" lon="10.3603400">
	<ele>1470.60</ele>
	<time>2025-04-29T07:29:09.000Z</time>
</trkpt>
<trkpt lat="45.9056290" lon="10.3603340">
	<ele>1470.60</ele>
	<time>2025-04-29T07:29:10.000Z</time>
</trkpt>
<trkpt lat="45.9056220" lon="10.3603430">
	<ele>1470.60</ele>
	<time>2025-04-29T07:29:11.000Z</time>
</trkpt>
<trkpt lat="45.9056150" lon="10.3603410">
	<ele>1470.60</ele>
	<time>2025-04-29T07:29:12.000Z</time>
</trkpt>
<trkpt lat="45.9056160" lon="10.3603150">
	<ele>1470.60</ele>
	<time>2025-04-29T07:29:13.000Z</time>
</trkpt>
<trkpt lat="45.9056140" lon="10.3603030">
	<ele>1470.60</ele>
	<time>2025-04-29T07:29:14.000Z</time>
</trkpt>
<trkpt lat="45.9056110" lon="10.3603010">
	<ele>1470.60</ele>
	<time>2025-04-29T07:29:15.000Z</time>
</trkpt>
<trkpt lat="45.9056060" lon="10.3603060">
	<ele>1470.40</ele>
	<time>2025-04-29T07:29:16.000Z</time>
</trkpt>
<trkpt lat="45.9056020" lon="10.3603190">
	<ele>1470.20</ele>
	<time>2025-04-29T07:29:17.000Z</time>
</trkpt>
<trkpt lat="45.9055950" lon="10.3603380">
	<ele>1470.20</ele>
	<time>2025-04-29T07:29:18.000Z</time>
</trkpt>
<trkpt lat="45.9055900" lon="10.3603570">
	<ele>1470.20</ele>
	<time>2025-04-29T07:29:19.000Z</time>
</trkpt>
<trkpt lat="45.9055900" lon="10.3603750">
	<ele>1470.00</ele>
	<time>2025-04-29T07:29:20.000Z</time>
</trkpt>
<trkpt lat="45.9055910" lon="10.3603910">
	<ele>1470.00</ele>
	<time>2025-04-29T07:29:21.000Z</time>
</trkpt>
<trkpt lat="45.9055800" lon="10.3604020">
	<ele>1470.00</ele>
	<time>2025-04-29T07:29:22.000Z</time>
</trkpt>
<trkpt lat="45.9055670" lon="10.3604150">
	<ele>1470.00</ele>
	<time>2025-04-29T07:29:23.000Z</time>
</trkpt>
<trkpt lat="45.9055490" lon="10.3604290">
	<ele>1470.00</ele>
	<time>2025-04-29T07:29:24.000Z</time>
</trkpt>
<trkpt lat="45.9055300" lon="10.3604450">
	<ele>1470.00</ele>
	<time>2025-04-29T07:29:25.000Z</time>
</trkpt>
<trkpt lat="45.9055050" lon="10.3604590">
	<ele>1470.00</ele>
	<time>2025-04-29T07:29:26.000Z</time>
</trkpt>
<trkpt lat="45.9054780" lon="10.3604720">
	<ele>1470.20</ele>
	<time>2025-04-29T07:29:27.000Z</time>
</trkpt>
<trkpt lat="45.9054580" lon="10.3604900">
	<ele>1470.20</ele>
	<time>2025-04-29T07:29:28.000Z</time>
</trkpt>
<trkpt lat="45.9054590" lon="10.3605160">
	<ele>1470.20</ele>
	<time>2025-04-29T07:29:29.000Z</time>
</trkpt>
<trkpt lat="45.9054570" lon="10.3605440">
	<ele>1470.20</ele>
	<time>2025-04-29T07:29:30.000Z</time>
</trkpt>
<trkpt lat="45.9054600" lon="10.3605700">
	<ele>1470.20</ele>
	<time>2025-04-29T07:29:31.000Z</time>
</trkpt>
<trkpt lat="45.9054720" lon="10.3605980">
	<ele>1470.20</ele>
	<time>2025-04-29T07:29:32.000Z</time>
</trkpt>
<trkpt lat="45.9054880" lon="10.3606170">
	<ele>1470.40</ele>
	<time>2025-04-29T07:29:33.000Z</time>
</trkpt>
<trkpt lat="45.9055020" lon="10.3606380">
	<ele>1470.40</ele>
	<time>2025-04-29T07:29:34.000Z</time>
</trkpt>
<trkpt lat="45.9054900" lon="10.3606590">
	<ele>1470.60</ele>
	<time>2025-04-29T07:29:35.000Z</time>
</trkpt>
<trkpt lat="45.9054660" lon="10.3606720">
	<ele>1470.80</ele>
	<time>2025-04-29T07:29:36.000Z</time>
</trkpt>
<trkpt lat="45.9054450" lon="10.3606820">
	<ele>1471.00</ele>
	<time>2025-04-29T07:29:37.000Z</time>
</trkpt>
<trkpt lat="45.9054370" lon="10.3606910">
	<ele>1471.20</ele>
	<time>2025-04-29T07:29:38.000Z</time>
</trkpt>
<trkpt lat="45.9054420" lon="10.3607080">
	<ele>1471.40</ele>
	<time>2025-04-29T07:29:39.000Z</time>
</trkpt>
<trkpt lat="45.9054600" lon="10.3607330">
	<ele>1471.40</ele>
	<time>2025-04-29T07:29:40.000Z</time>
</trkpt>
<trkpt lat="45.9054740" lon="10.3607630">
	<ele>1471.60</ele>
	<time>2025-04-29T07:29:41.000Z</time>
</trkpt>
<trkpt lat="45.9054810" lon="10.3607920">
	<ele>1471.60</ele>
	<time>2025-04-29T07:29:42.000Z</time>
</trkpt>
<trkpt lat="45.9054960" lon="10.3608160">
	<ele>1471.80</ele>
	<time>2025-04-29T07:29:43.000Z</time>
</trkpt>
<trkpt lat="45.9054950" lon="10.3608340">
	<ele>1471.80</ele>
	<time>2025-04-29T07:29:44.000Z</time>
</trkpt>
<trkpt lat="45.9054920" lon="10.3608550">
	<ele>1471.80</ele>
	<time>2025-04-29T07:29:45.000Z</time>
</trkpt>
<trkpt lat="45.9054720" lon="10.3608660">
	<ele>1471.80</ele>
	<time>2025-04-29T07:29:46.000Z</time>
</trkpt>
<trkpt lat="45.9054540" lon="10.3608820">
	<ele>1472.00</ele>
	<time>2025-04-29T07:29:47.000Z</time>
</trkpt>
<trkpt lat="45.9054370" lon="10.3608940">
	<ele>1472.00</ele>
	<time>2025-04-29T07:29:48.000Z</time>
</trkpt>
<trkpt lat="45.9054380" lon="10.3609140">
	<ele>1472.20</ele>
	<time>2025-04-29T07:29:49.000Z</time>
</trkpt>
<trkpt lat="45.9054290" lon="10.3609360">
	<ele>1472.40</ele>
	<time>2025-04-29T07:29:50.000Z</time>
</trkpt>
<trkpt lat="45.9054350" lon="10.3609570">
	<ele>1472.60</ele>
	<time>2025-04-29T07:29:51.000Z</time>
</trkpt>
<trkpt lat="45.9054390" lon="10.3609740">
	<ele>1472.60</ele>
	<time>2025-04-29T07:29:52.000Z</time>
</trkpt>
<trkpt lat="45.9054350" lon="10.3609950">
	<ele>1472.60</ele>
	<time>2025-04-29T07:29:53.000Z</time>
</trkpt>
<trkpt lat="45.9054280" lon="10.3610140">
	<ele>1473.00</ele>
	<time>2025-04-29T07:29:54.000Z</time>
</trkpt>
<trkpt lat="45.9054210" lon="10.3610290">
	<ele>1473.00</ele>
	<time>2025-04-29T07:29:55.000Z</time>
</trkpt>
<trkpt lat="45.9054180" lon="10.3610430">
	<ele>1473.20</ele>
	<time>2025-04-29T07:29:56.000Z</time>
</trkpt>
<trkpt lat="45.9054150" lon="10.3610600">
	<ele>1473.40</ele>
	<time>2025-04-29T07:29:57.000Z</time>
</trkpt>
<trkpt lat="45.9054110" lon="10.3610770">
	<ele>1473.40</ele>
	<time>2025-04-29T07:29:58.000Z</time>
</trkpt>
<trkpt lat="45.9054000" lon="10.3610990">
	<ele>1473.60</ele>
	<time>2025-04-29T07:29:59.000Z</time>
</trkpt>
<trkpt lat="45.9053870" lon="10.3611160">
	<ele>1473.80</ele>
	<time>2025-04-29T07:30:00.000Z</time>
</trkpt>
<trkpt lat="45.9053840" lon="10.3611360">
	<ele>1474.00</ele>
	<time>2025-04-29T07:30:01.000Z</time>
</trkpt>
<trkpt lat="45.9053730" lon="10.3611470">
	<ele>1474.20</ele>
	<time>2025-04-29T07:30:02.000Z</time>
</trkpt>
<trkpt lat="45.9053580" lon="10.3611540">
	<ele>1474.20</ele>
	<time>2025-04-29T07:30:03.000Z</time>
</trkpt>
<trkpt lat="45.9053430" lon="10.3611640">
	<ele>1474.40</ele>
	<time>2025-04-29T07:30:04.000Z</time>
</trkpt>
<trkpt lat="45.9053250" lon="10.3611740">
	<ele>1474.40</ele>
	<time>2025-04-29T07:30:05.000Z</time>
</trkpt>
<trkpt lat="45.9053150" lon="10.3611850">
	<ele>1474.60</ele>
	<time>2025-04-29T07:30:06.000Z</time>
</trkpt>
<trkpt lat="45.9053140" lon="10.3612010">
	<ele>1474.60</ele>
	<time>2025-04-29T07:30:07.000Z</time>
</trkpt>
<trkpt lat="45.9053060" lon="10.3612150">
	<ele>1474.60</ele>
	<time>2025-04-29T07:30:08.000Z</time>
</trkpt>
<trkpt lat="45.9052980" lon="10.3612200">
	<ele>1474.80</ele>
	<time>2025-04-29T07:30:09.000Z</time>
</trkpt>
<trkpt lat="45.9052830" lon="10.3612300">
	<ele>1474.80</ele>
	<time>2025-04-29T07:30:10.000Z</time>
</trkpt>
<trkpt lat="45.9052730" lon="10.3612400">
	<ele>1475.00</ele>
	<time>2025-04-29T07:30:11.000Z</time>
</trkpt>
<trkpt lat="45.9052620" lon="10.3612580">
	<ele>1475.00</ele>
	<time>2025-04-29T07:30:12.000Z</time>
</trkpt>
<trkpt lat="45.9052510" lon="10.3612670">
	<ele>1475.00</ele>
	<time>2025-04-29T07:30:13.000Z</time>
</trkpt>
<trkpt lat="45.9052310" lon="10.3612870">
	<ele>1475.20</ele>
	<time>2025-04-29T07:30:14.000Z</time>
</trkpt>
<trkpt lat="45.9052280" lon="10.3613170">
	<ele>1475.20</ele>
	<time>2025-04-29T07:30:15.000Z</time>
</trkpt>
<trkpt lat="45.9052250" lon="10.3613430">
	<ele>1475.20</ele>
	<time>2025-04-29T07:30:16.000Z</time>
</trkpt>
<trkpt lat="45.9052160" lon="10.3613680">
	<ele>1475.40</ele>
	<time>2025-04-29T07:30:17.000Z</time>
</trkpt>
<trkpt lat="45.9052100" lon="10.3613870">
	<ele>1475.60</ele>
	<time>2025-04-29T07:30:18.000Z</time>
</trkpt>
<trkpt lat="45.9052020" lon="10.3613970">
	<ele>1475.60</ele>
	<time>2025-04-29T07:30:19.000Z</time>
</trkpt>
<trkpt lat="45.9051980" lon="10.3614150">
	<ele>1475.60</ele>
	<time>2025-04-29T07:30:20.000Z</time>
</trkpt>
<trkpt lat="45.9051970" lon="10.3614380">
	<ele>1475.80</ele>
	<time>2025-04-29T07:30:21.000Z</time>
</trkpt>
<trkpt lat="45.9051900" lon="10.3614490">
	<ele>1476.00</ele>
	<time>2025-04-29T07:30:22.000Z</time>
</trkpt>
<trkpt lat="45.9051880" lon="10.3614650">
	<ele>1476.00</ele>
	<time>2025-04-29T07:30:23.000Z</time>
</trkpt>
<trkpt lat="45.9051810" lon="10.3614790">
	<ele>1476.00</ele>
	<time>2025-04-29T07:30:24.000Z</time>
</trkpt>
<trkpt lat="45.9051690" lon="10.3614950">
	<ele>1476.20</ele>
	<time>2025-04-29T07:30:25.000Z</time>
</trkpt>
<trkpt lat="45.9051580" lon="10.3615110">
	<ele>1476.20</ele>
	<time>2025-04-29T07:30:26.000Z</time>
</trkpt>
<trkpt lat="45.9051560" lon="10.3615270">
	<ele>1476.40</ele>
	<time>2025-04-29T07:30:27.000Z</time>
</trkpt>
<trkpt lat="45.9051450" lon="10.3615380">
	<ele>1476.40</ele>
	<time>2025-04-29T07:30:28.000Z</time>
</trkpt>
<trkpt lat="45.9051400" lon="10.3615580">
	<ele>1476.60</ele>
	<time>2025-04-29T07:30:29.000Z</time>
</trkpt>
<trkpt lat="45.9051350" lon="10.3615750">
	<ele>1476.80</ele>
	<time>2025-04-29T07:30:30.000Z</time>
</trkpt>
<trkpt lat="45.9051300" lon="10.3615960">
	<ele>1476.80</ele>
	<time>2025-04-29T07:30:31.000Z</time>
</trkpt>
<trkpt lat="45.9051210" lon="10.3616120">
	<ele>1477.00</ele>
	<time>2025-04-29T07:30:32.000Z</time>
</trkpt>
<trkpt lat="45.9051130" lon="10.3616200">
	<ele>1477.00</ele>
	<time>2025-04-29T07:30:33.000Z</time>
</trkpt>
<trkpt lat="45.9051160" lon="10.3616400">
	<ele>1477.00</ele>
	<time>2025-04-29T07:30:34.000Z</time>
</trkpt>
<trkpt lat="45.9050990" lon="10.3616540">
	<ele>1477.20</ele>
	<time>2025-04-29T07:30:35.000Z</time>
</trkpt>
<trkpt lat="45.9050780" lon="10.3616670">
	<ele>1477.20</ele>
	<time>2025-04-29T07:30:36.000Z</time>
</trkpt>
<trkpt lat="45.9050540" lon="10.3616820">
	<ele>1477.40</ele>
	<time>2025-04-29T07:30:37.000Z</time>
</trkpt>
<trkpt lat="45.9050390" lon="10.3616960">
	<ele>1477.60</ele>
	<time>2025-04-29T07:30:38.000Z</time>
</trkpt>
<trkpt lat="45.9050200" lon="10.3617080">
	<ele>1477.60</ele>
	<time>2025-04-29T07:30:39.000Z</time>
</trkpt>
<trkpt lat="45.9050000" lon="10.3617320">
	<ele>1477.60</ele>
	<time>2025-04-29T07:30:40.000Z</time>
</trkpt>
<trkpt lat="45.9049840" lon="10.3617540">
	<ele>1477.60</ele>
	<time>2025-04-29T07:30:41.000Z</time>
</trkpt>
<trkpt lat="45.9049690" lon="10.3617740">
	<ele>1477.60</ele>
	<time>2025-04-29T07:30:42.000Z</time>
</trkpt>
<trkpt lat="45.9049540" lon="10.3617860">
	<ele>1477.60</ele>
	<time>2025-04-29T07:30:43.000Z</time>
</trkpt>
<trkpt lat="45.9049370" lon="10.3617970">
	<ele>1477.60</ele>
	<time>2025-04-29T07:30:44.000Z</time>
</trkpt>
<trkpt lat="45.9049360" lon="10.3618110">
	<ele>1477.80</ele>
	<time>2025-04-29T07:30:45.000Z</time>
</trkpt>
<trkpt lat="45.9049310" lon="10.3618350">
	<ele>1477.80</ele>
	<time>2025-04-29T07:30:46.000Z</time>
</trkpt>
<trkpt lat="45.9049300" lon="10.3618510">
	<ele>1477.80</ele>
	<time>2025-04-29T07:30:47.000Z</time>
</trkpt>
<trkpt lat="45.9049220" lon="10.3618700">
	<ele>1477.80</ele>
	<time>2025-04-29T07:30:48.000Z</time>
</trkpt>
<trkpt lat="45.9049100" lon="10.3618830">
	<ele>1477.80</ele>
	<time>2025-04-29T07:30:49.000Z</time>
</trkpt>
<trkpt lat="45.9049000" lon="10.3618970">
	<ele>1477.80</ele>
	<time>2025-04-29T07:30:50.000Z</time>
</trkpt>
<trkpt lat="45.9048950" lon="10.3619040">
	<ele>1478.00</ele>
	<time>2025-04-29T07:30:51.000Z</time>
</trkpt>
<trkpt lat="45.9048850" lon="10.3619170">
	<ele>1478.00</ele>
	<time>2025-04-29T07:30:52.000Z</time>
</trkpt>
<trkpt lat="45.9048730" lon="10.3619300">
	<ele>1478.20</ele>
	<time>2025-04-29T07:30:53.000Z</time>
</trkpt>
<trkpt lat="45.9048620" lon="10.3619400">
	<ele>1478.20</ele>
	<time>2025-04-29T07:30:54.000Z</time>
</trkpt>
<trkpt lat="45.9048580" lon="10.3619540">
	<ele>1478.40</ele>
	<time>2025-04-29T07:30:55.000Z</time>
</trkpt>
<trkpt lat="45.9048450" lon="10.3619680">
	<ele>1478.60</ele>
	<time>2025-04-29T07:30:56.000Z</time>
</trkpt>
<trkpt lat="45.9048340" lon="10.3619800">
	<ele>1478.60</ele>
	<time>2025-04-29T07:30:57.000Z</time>
</trkpt>
<trkpt lat="45.9048180" lon="10.3619880">
	<ele>1478.80</ele>
	<time>2025-04-29T07:30:58.000Z</time>
</trkpt>
<trkpt lat="45.9048010" lon="10.3619970">
	<ele>1478.80</ele>
	<time>2025-04-29T07:30:59.000Z</time>
</trkpt>
<trkpt lat="45.9047760" lon="10.3619990">
	<ele>1479.00</ele>
	<time>2025-04-29T07:31:00.000Z</time>
</trkpt>
<trkpt lat="45.9047750" lon="10.3620110">
	<ele>1479.00</ele>
	<time>2025-04-29T07:31:01.000Z</time>
</trkpt>
<trkpt lat="45.9047760" lon="10.3620240">
	<ele>1479.20</ele>
	<time>2025-04-29T07:31:02.000Z</time>
</trkpt>
<trkpt lat="45.9047690" lon="10.3620330">
	<ele>1479.20</ele>
	<time>2025-04-29T07:31:03.000Z</time>
</trkpt>
<trkpt lat="45.9047760" lon="10.3620480">
	<ele>1479.40</ele>
	<time>2025-04-29T07:31:04.000Z</time>
</trkpt>
<trkpt lat="45.9047870" lon="10.3620680">
	<ele>1479.40</ele>
	<time>2025-04-29T07:31:05.000Z</time>
</trkpt>
<trkpt lat="45.9047960" lon="10.3620840">
	<ele>1479.60</ele>
	<time>2025-04-29T07:31:06.000Z</time>
</trkpt>
<trkpt lat="45.9048030" lon="10.3620900">
	<ele>1479.60</ele>
	<time>2025-04-29T07:31:07.000Z</time>
</trkpt>
<trkpt lat="45.9048050" lon="10.3620940">
	<ele>1479.80</ele>
	<time>2025-04-29T07:31:08.000Z</time>
</trkpt>
<trkpt lat="45.9047970" lon="10.3620990">
	<ele>1479.80</ele>
	<time>2025-04-29T07:31:09.000Z</time>
</trkpt>
<trkpt lat="45.9047970" lon="10.3621070">
	<ele>1480.00</ele>
	<time>2025-04-29T07:31:10.000Z</time>
</trkpt>
<trkpt lat="45.9048010" lon="10.3621180">
	<ele>1480.00</ele>
	<time>2025-04-29T07:31:11.000Z</time>
</trkpt>
<trkpt lat="45.9048090" lon="10.3621310">
	<ele>1480.00</ele>
	<time>2025-04-29T07:31:12.000Z</time>
</trkpt>
<trkpt lat="45.9048030" lon="10.3621410">
	<ele>1480.00</ele>
	<time>2025-04-29T07:31:13.000Z</time>
</trkpt>
<trkpt lat="45.9047940" lon="10.3621470">
	<ele>1480.00</ele>
	<time>2025-04-29T07:31:14.000Z</time>
</trkpt>
<trkpt lat="45.9047840" lon="10.3621520">
	<ele>1480.00</ele>
	<time>2025-04-29T07:31:15.000Z</time>
</trkpt>
<trkpt lat="45.9047760" lon="10.3621590">
	<ele>1480.20</ele>
	<time>2025-04-29T07:31:16.000Z</time>
</trkpt>
<trkpt lat="45.9047640" lon="10.3621660">
	<ele>1480.40</ele>
	<time>2025-04-29T07:31:17.000Z</time>
</trkpt>
<trkpt lat="45.9047440" lon="10.3621690">
	<ele>1480.40</ele>
	<time>2025-04-29T07:31:18.000Z</time>
</trkpt>
<trkpt lat="45.9047150" lon="10.3621670">
	<ele>1480.60</ele>
	<time>2025-04-29T07:31:19.000Z</time>
</trkpt>
<trkpt lat="45.9046910" lon="10.3621710">
	<ele>1480.80</ele>
	<time>2025-04-29T07:31:20.000Z</time>
</trkpt>
<trkpt lat="45.9046610" lon="10.3621700">
	<ele>1480.80</ele>
	<time>2025-04-29T07:31:21.000Z</time>
</trkpt>
<trkpt lat="45.9046350" lon="10.3621720">
	<ele>1481.00</ele>
	<time>2025-04-29T07:31:22.000Z</time>
</trkpt>
<trkpt lat="45.9046220" lon="10.3621810">
	<ele>1481.20</ele>
	<time>2025-04-29T07:31:23.000Z</time>
</trkpt>
<trkpt lat="45.9046110" lon="10.3621940">
	<ele>1481.40</ele>
	<time>2025-04-29T07:31:24.000Z</time>
</trkpt>
<trkpt lat="45.9046010" lon="10.3622060">
	<ele>1481.40</ele>
	<time>2025-04-29T07:31:25.000Z</time>
</trkpt>
<trkpt lat="45.9045860" lon="10.3622130">
	<ele>1481.40</ele>
	<time>2025-04-29T07:31:26.000Z</time>
</trkpt>
<trkpt lat="45.9045710" lon="10.3622180">
	<ele>1481.60</ele>
	<time>2025-04-29T07:31:27.000Z</time>
</trkpt>
<trkpt lat="45.9045550" lon="10.3622230">
	<ele>1481.80</ele>
	<time>2025-04-29T07:31:28.000Z</time>
</trkpt>
<trkpt lat="45.9045360" lon="10.3622240">
	<ele>1481.80</ele>
	<time>2025-04-29T07:31:29.000Z</time>
</trkpt>
<trkpt lat="45.9045240" lon="10.3622280">
	<ele>1482.00</ele>
	<time>2025-04-29T07:31:30.000Z</time>
</trkpt>
<trkpt lat="45.9045120" lon="10.3622410">
	<ele>1482.20</ele>
	<time>2025-04-29T07:31:31.000Z</time>
</trkpt>
<trkpt lat="45.9044980" lon="10.3622540">
	<ele>1482.40</ele>
	<time>2025-04-29T07:31:32.000Z</time>
</trkpt>
<trkpt lat="45.9044800" lon="10.3622640">
	<ele>1482.60</ele>
	<time>2025-04-29T07:31:33.000Z</time>
</trkpt>
<trkpt lat="45.9044640" lon="10.3622710">
	<ele>1482.60</ele>
	<time>2025-04-29T07:31:34.000Z</time>
</trkpt>
<trkpt lat="45.9044580" lon="10.3622870">
	<ele>1482.80</ele>
	<time>2025-04-29T07:31:35.000Z</time>
</trkpt>
<trkpt lat="45.9044480" lon="10.3622980">
	<ele>1483.20</ele>
	<time>2025-04-29T07:31:36.000Z</time>
</trkpt>
<trkpt lat="45.9044420" lon="10.3623120">
	<ele>1483.40</ele>
	<time>2025-04-29T07:31:37.000Z</time>
</trkpt>
<trkpt lat="45.9044390" lon="10.3623240">
	<ele>1483.40</ele>
	<time>2025-04-29T07:31:38.000Z</time>
</trkpt>
<trkpt lat="45.9044320" lon="10.3623360">
	<ele>1483.60</ele>
	<time>2025-04-29T07:31:39.000Z</time>
</trkpt>
<trkpt lat="45.9044280" lon="10.3623510">
	<ele>1483.80</ele>
	<time>2025-04-29T07:31:40.000Z</time>
</trkpt>
<trkpt lat="45.9044150" lon="10.3623640">
	<ele>1483.80</ele>
	<time>2025-04-29T07:31:41.000Z</time>
</trkpt>
<trkpt lat="45.9044070" lon="10.3623800">
	<ele>1484.20</ele>
	<time>2025-04-29T07:31:42.000Z</time>
</trkpt>
<trkpt lat="45.9043990" lon="10.3623970">
	<ele>1484.20</ele>
	<time>2025-04-29T07:31:43.000Z</time>
</trkpt>
<trkpt lat="45.9043980" lon="10.3624090">
	<ele>1484.40</ele>
	<time>2025-04-29T07:31:44.000Z</time>
</trkpt>
<trkpt lat="45.9043950" lon="10.3624220">
	<ele>1484.40</ele>
	<time>2025-04-29T07:31:45.000Z</time>
</trkpt>
<trkpt lat="45.9043860" lon="10.3624340">
	<ele>1484.60</ele>
	<time>2025-04-29T07:31:46.000Z</time>
</trkpt>
<trkpt lat="45.9043680" lon="10.3624450">
	<ele>1484.60</ele>
	<time>2025-04-29T07:31:47.000Z</time>
</trkpt>
<trkpt lat="45.9043630" lon="10.3624570">
	<ele>1484.80</ele>
	<time>2025-04-29T07:31:48.000Z</time>
</trkpt>
<trkpt lat="45.9043570" lon="10.3624720">
	<ele>1485.00</ele>
	<time>2025-04-29T07:31:49.000Z</time>
</trkpt>
<trkpt lat="45.9043540" lon="10.3624900">
	<ele>1485.00</ele>
	<time>2025-04-29T07:31:50.000Z</time>
</trkpt>
<trkpt lat="45.9043470" lon="10.3625110">
	<ele>1485.00</ele>
	<time>2025-04-29T07:31:51.000Z</time>
</trkpt>
<trkpt lat="45.9043400" lon="10.3625310">
	<ele>1485.20</ele>
	<time>2025-04-29T07:31:52.000Z</time>
</trkpt>
<trkpt lat="45.9043340" lon="10.3625400">
	<ele>1485.40</ele>
	<time>2025-04-29T07:31:53.000Z</time>
</trkpt>
<trkpt lat="45.9043300" lon="10.3625520">
	<ele>1485.40</ele>
	<time>2025-04-29T07:31:54.000Z</time>
</trkpt>
<trkpt lat="45.9043250" lon="10.3625650">
	<ele>1485.40</ele>
	<time>2025-04-29T07:31:55.000Z</time>
</trkpt>
<trkpt lat="45.9043100" lon="10.3625830">
	<ele>1485.40</ele>
	<time>2025-04-29T07:31:56.000Z</time>
</trkpt>
<trkpt lat="45.9042870" lon="10.3625990">
	<ele>1485.60</ele>
	<time>2025-04-29T07:31:57.000Z</time>
</trkpt>
<trkpt lat="45.9042620" lon="10.3626110">
	<ele>1485.60</ele>
	<time>2025-04-29T07:31:58.000Z</time>
</trkpt>
<trkpt lat="45.9042510" lon="10.3626190">
	<ele>1485.60</ele>
	<time>2025-04-29T07:31:59.000Z</time>
</trkpt>
<trkpt lat="45.9042480" lon="10.3626440">
	<ele>1485.60</ele>
	<time>2025-04-29T07:32:00.000Z</time>
</trkpt>
<trkpt lat="45.9042430" lon="10.3626670">
	<ele>1485.60</ele>
	<time>2025-04-29T07:32:01.000Z</time>
</trkpt>
<trkpt lat="45.9042380" lon="10.3626910">
	<ele>1485.60</ele>
	<time>2025-04-29T07:32:02.000Z</time>
</trkpt>
<trkpt lat="45.9042330" lon="10.3627110">
	<ele>1485.40</ele>
	<time>2025-04-29T07:32:03.000Z</time>
</trkpt>
<trkpt lat="45.9042250" lon="10.3627280">
	<ele>1485.40</ele>
	<time>2025-04-29T07:32:04.000Z</time>
</trkpt>
<trkpt lat="45.9042180" lon="10.3627470">
	<ele>1485.40</ele>
	<time>2025-04-29T07:32:05.000Z</time>
</trkpt>
<trkpt lat="45.9042170" lon="10.3627650">
	<ele>1485.40</ele>
	<time>2025-04-29T07:32:06.000Z</time>
</trkpt>
<trkpt lat="45.9042190" lon="10.3627850">
	<ele>1485.40</ele>
	<time>2025-04-29T07:32:07.000Z</time>
</trkpt>
<trkpt lat="45.9042210" lon="10.3628060">
	<ele>1485.40</ele>
	<time>2025-04-29T07:32:08.000Z</time>
</trkpt>
<trkpt lat="45.9042420" lon="10.3628330">
	<ele>1485.40</ele>
	<time>2025-04-29T07:32:09.000Z</time>
</trkpt>
<trkpt lat="45.9042600" lon="10.3628520">
	<ele>1485.40</ele>
	<time>2025-04-29T07:32:10.000Z</time>
</trkpt>
<trkpt lat="45.9042920" lon="10.3628780">
	<ele>1485.40</ele>
	<time>2025-04-29T07:32:11.000Z</time>
</trkpt>
<trkpt lat="45.9043420" lon="10.3629100">
	<ele>1485.20</ele>
	<time>2025-04-29T07:32:12.000Z</time>
</trkpt>
<trkpt lat="45.9043360" lon="10.3629300">
	<ele>1485.20</ele>
	<time>2025-04-29T07:32:13.000Z</time>
</trkpt>
<trkpt lat="45.9043240" lon="10.3629270">
	<ele>1485.00</ele>
	<time>2025-04-29T07:32:14.000Z</time>
</trkpt>
<trkpt lat="45.9043150" lon="10.3629360">
	<ele>1485.00</ele>
	<time>2025-04-29T07:32:15.000Z</time>
</trkpt>
<trkpt lat="45.9043170" lon="10.3629530">
	<ele>1485.00</ele>
	<time>2025-04-29T07:32:16.000Z</time>
</trkpt>
<trkpt lat="45.9043220" lon="10.3629730">
	<ele>1484.80</ele>
	<time>2025-04-29T07:32:17.000Z</time>
</trkpt>
<trkpt lat="45.9043220" lon="10.3629900">
	<ele>1484.60</ele>
	<time>2025-04-29T07:32:18.000Z</time>
</trkpt>
<trkpt lat="45.9043200" lon="10.3630030">
	<ele>1484.60</ele>
	<time>2025-04-29T07:32:19.000Z</time>
</trkpt>
<trkpt lat="45.9043110" lon="10.3630180">
	<ele>1484.60</ele>
	<time>2025-04-29T07:32:20.000Z</time>
</trkpt>
<trkpt lat="45.9043040" lon="10.3630290">
	<ele>1484.60</ele>
	<time>2025-04-29T07:32:21.000Z</time>
</trkpt>
<trkpt lat="45.9042930" lon="10.3630410">
	<ele>1484.40</ele>
	<time>2025-04-29T07:32:22.000Z</time>
</trkpt>
<trkpt lat="45.9042880" lon="10.3630560">
	<ele>1484.20</ele>
	<time>2025-04-29T07:32:23.000Z</time>
</trkpt>
<trkpt lat="45.9042580" lon="10.3630690">
	<ele>1484.20</ele>
	<time>2025-04-29T07:32:24.000Z</time>
</trkpt>
<trkpt lat="45.9042390" lon="10.3630860">
	<ele>1484.20</ele>
	<time>2025-04-29T07:32:25.000Z</time>
</trkpt>
<trkpt lat="45.9042290" lon="10.3631030">
	<ele>1484.00</ele>
	<time>2025-04-29T07:32:26.000Z</time>
</trkpt>
<trkpt lat="45.9042250" lon="10.3631180">
	<ele>1484.00</ele>
	<time>2025-04-29T07:32:27.000Z</time>
</trkpt>
<trkpt lat="45.9042120" lon="10.3631300">
	<ele>1483.80</ele>
	<time>2025-04-29T07:32:28.000Z</time>
</trkpt>
<trkpt lat="45.9042050" lon="10.3631460">
	<ele>1483.80</ele>
	<time>2025-04-29T07:32:29.000Z</time>
</trkpt>
<trkpt lat="45.9042010" lon="10.3631580">
	<ele>1483.80</ele>
	<time>2025-04-29T07:32:30.000Z</time>
</trkpt>
<trkpt lat="45.9041930" lon="10.3631710">
	<ele>1483.60</ele>
	<time>2025-04-29T07:32:31.000Z</time>
</trkpt>
<trkpt lat="45.9041920" lon="10.3631890">
	<ele>1483.60</ele>
	<time>2025-04-29T07:32:32.000Z</time>
</trkpt>
<trkpt lat="45.9041940" lon="10.3632090">
	<ele>1483.40</ele>
	<time>2025-04-29T07:32:33.000Z</time>
</trkpt>
<trkpt lat="45.9041990" lon="10.3632320">
	<ele>1483.40</ele>
	<time>2025-04-29T07:32:34.000Z</time>
</trkpt>
<trkpt lat="45.9042040" lon="10.3632580">
	<ele>1483.20</ele>
	<time>2025-04-29T07:32:35.000Z</time>
</trkpt>
<trkpt lat="45.9042090" lon="10.3632750">
	<ele>1483.20</ele>
	<time>2025-04-29T07:32:36.000Z</time>
</trkpt>
<trkpt lat="45.9042150" lon="10.3632950">
	<ele>1483.00</ele>
	<time>2025-04-29T07:32:37.000Z</time>
</trkpt>
<trkpt lat="45.9042180" lon="10.3633140">
	<ele>1483.00</ele>
	<time>2025-04-29T07:32:38.000Z</time>
</trkpt>
<trkpt lat="45.9042200" lon="10.3633350">
	<ele>1482.80</ele>
	<time>2025-04-29T07:32:39.000Z</time>
</trkpt>
<trkpt lat="45.9042260" lon="10.3633560">
	<ele>1482.60</ele>
	<time>2025-04-29T07:32:40.000Z</time>
</trkpt>
<trkpt lat="45.9042240" lon="10.3633750">
	<ele>1482.40</ele>
	<time>2025-04-29T07:32:41.000Z</time>
</trkpt>
<trkpt lat="45.9042240" lon="10.3634020">
	<ele>1482.40</ele>
	<time>2025-04-29T07:32:42.000Z</time>
</trkpt>
<trkpt lat="45.9042180" lon="10.3634220">
	<ele>1482.20</ele>
	<time>2025-04-29T07:32:43.000Z</time>
</trkpt>
<trkpt lat="45.9042140" lon="10.3634470">
	<ele>1482.00</ele>
	<time>2025-04-29T07:32:44.000Z</time>
</trkpt>
<trkpt lat="45.9042130" lon="10.3634760">
	<ele>1481.80</ele>
	<time>2025-04-29T07:32:45.000Z</time>
</trkpt>
<trkpt lat="45.9042020" lon="10.3634940">
	<ele>1481.60</ele>
	<time>2025-04-29T07:32:46.000Z</time>
</trkpt>
<trkpt lat="45.9042000" lon="10.3635190">
	<ele>1481.40</ele>
	<time>2025-04-29T07:32:47.000Z</time>
</trkpt>
<trkpt lat="45.9041970" lon="10.3635440">
	<ele>1481.40</ele>
	<time>2025-04-29T07:32:48.000Z</time>
</trkpt>
<trkpt lat="45.9041950" lon="10.3635700">
	<ele>1481.20</ele>
	<time>2025-04-29T07:32:49.000Z</time>
</trkpt>
<trkpt lat="45.9041840" lon="10.3635900">
	<ele>1481.20</ele>
	<time>2025-04-29T07:32:50.000Z</time>
</trkpt>
<trkpt lat="45.9041800" lon="10.3636130">
	<ele>1481.00</ele>
	<time>2025-04-29T07:32:51.000Z</time>
</trkpt>
<trkpt lat="45.9041710" lon="10.3636320">
	<ele>1480.80</ele>
	<time>2025-04-29T07:32:52.000Z</time>
</trkpt>
<trkpt lat="45.9041710" lon="10.3636530">
	<ele>1480.80</ele>
	<time>2025-04-29T07:32:53.000Z</time>
</trkpt>
<trkpt lat="45.9041660" lon="10.3636750">
	<ele>1480.60</ele>
	<time>2025-04-29T07:32:54.000Z</time>
</trkpt>
<trkpt lat="45.9041580" lon="10.3636960">
	<ele>1480.40</ele>
	<time>2025-04-29T07:32:55.000Z</time>
</trkpt>
<trkpt lat="45.9041550" lon="10.3637160">
	<ele>1480.20</ele>
	<time>2025-04-29T07:32:56.000Z</time>
</trkpt>
<trkpt lat="45.9041560" lon="10.3637390">
	<ele>1480.20</ele>
	<time>2025-04-29T07:32:57.000Z</time>
</trkpt>
<trkpt lat="45.9041550" lon="10.3637590">
	<ele>1480.20</ele>
	<time>2025-04-29T07:32:58.000Z</time>
</trkpt>
<trkpt lat="45.9041580" lon="10.3637790">
	<ele>1480.00</ele>
	<time>2025-04-29T07:32:59.000Z</time>
</trkpt>
<trkpt lat="45.9041520" lon="10.3637970">
	<ele>1480.00</ele>
	<time>2025-04-29T07:33:00.000Z</time>
</trkpt>
<trkpt lat="45.9041410" lon="10.3638140">
	<ele>1479.80</ele>
	<time>2025-04-29T07:33:01.000Z</time>
</trkpt>
<trkpt lat="45.9041380" lon="10.3638370">
	<ele>1479.80</ele>
	<time>2025-04-29T07:33:02.000Z</time>
</trkpt>
<trkpt lat="45.9041400" lon="10.3638600">
	<ele>1479.60</ele>
	<time>2025-04-29T07:33:03.000Z</time>
</trkpt>
<trkpt lat="45.9041280" lon="10.3638780">
	<ele>1479.60</ele>
	<time>2025-04-29T07:33:04.000Z</time>
</trkpt>
<trkpt lat="45.9041290" lon="10.3639030">
	<ele>1479.40</ele>
	<time>2025-04-29T07:33:05.000Z</time>
</trkpt>
<trkpt lat="45.9041240" lon="10.3639220">
	<ele>1479.40</ele>
	<time>2025-04-29T07:33:06.000Z</time>
</trkpt>
<trkpt lat="45.9041190" lon="10.3639410">
	<ele>1479.40</ele>
	<time>2025-04-29T07:33:07.000Z</time>
</trkpt>
<trkpt lat="45.9041080" lon="10.3639580">
	<ele>1479.40</ele>
	<time>2025-04-29T07:33:08.000Z</time>
</trkpt>
<trkpt lat="45.9041030" lon="10.3639760">
	<ele>1479.40</ele>
	<time>2025-04-29T07:33:09.000Z</time>
</trkpt>
<trkpt lat="45.9041010" lon="10.3639960">
	<ele>1479.60</ele>
	<time>2025-04-29T07:33:10.000Z</time>
</trkpt>
<trkpt lat="45.9040890" lon="10.3640070">
	<ele>1479.80</ele>
	<time>2025-04-29T07:33:11.000Z</time>
</trkpt>
<trkpt lat="45.9040880" lon="10.3640230">
	<ele>1480.00</ele>
	<time>2025-04-29T07:33:12.000Z</time>
</trkpt>
<trkpt lat="45.9040810" lon="10.3640380">
	<ele>1480.00</ele>
	<time>2025-04-29T07:33:13.000Z</time>
</trkpt>
<trkpt lat="45.9040770" lon="10.3640540">
	<ele>1480.20</ele>
	<time>2025-04-29T07:33:14.000Z</time>
</trkpt>
<trkpt lat="45.9040760" lon="10.3640720">
	<ele>1480.20</ele>
	<time>2025-04-29T07:33:15.000Z</time>
</trkpt>
<trkpt lat="45.9040670" lon="10.3640910">
	<ele>1480.20</ele>
	<time>2025-04-29T07:33:16.000Z</time>
</trkpt>
<trkpt lat="45.9040660" lon="10.3641130">
	<ele>1480.20</ele>
	<time>2025-04-29T07:33:17.000Z</time>
</trkpt>
<trkpt lat="45.9040580" lon="10.3641320">
	<ele>1480.40</ele>
	<time>2025-04-29T07:33:18.000Z</time>
</trkpt>
<trkpt lat="45.9040500" lon="10.3641540">
	<ele>1480.40</ele>
	<time>2025-04-29T07:33:19.000Z</time>
</trkpt>
<trkpt lat="45.9040480" lon="10.3641770">
	<ele>1480.40</ele>
	<time>2025-04-29T07:33:20.000Z</time>
</trkpt>
<trkpt lat="45.9040430" lon="10.3641970">
	<ele>1480.20</ele>
	<time>2025-04-29T07:33:21.000Z</time>
</trkpt>
<trkpt lat="45.9040360" lon="10.3642140">
	<ele>1480.20</ele>
	<time>2025-04-29T07:33:22.000Z</time>
</trkpt>
<trkpt lat="45.9040280" lon="10.3642290">
	<ele>1480.00</ele>
	<time>2025-04-29T07:33:23.000Z</time>
</trkpt>
<trkpt lat="45.9040120" lon="10.3642390">
	<ele>1480.00</ele>
	<time>2025-04-29T07:33:24.000Z</time>
</trkpt>
<trkpt lat="45.9040010" lon="10.3642540">
	<ele>1480.00</ele>
	<time>2025-04-29T07:33:25.000Z</time>
</trkpt>
<trkpt lat="45.9040030" lon="10.3642770">
	<ele>1479.80</ele>
	<time>2025-04-29T07:33:26.000Z</time>
</trkpt>
<trkpt lat="45.9039990" lon="10.3642980">
	<ele>1479.80</ele>
	<time>2025-04-29T07:33:27.000Z</time>
</trkpt>
<trkpt lat="45.9039950" lon="10.3643190">
	<ele>1479.80</ele>
	<time>2025-04-29T07:33:28.000Z</time>
</trkpt>
<trkpt lat="45.9040080" lon="10.3643470">
	<ele>1479.60</ele>
	<time>2025-04-29T07:33:29.000Z</time>
</trkpt>
<trkpt lat="45.9040190" lon="10.3643730">
	<ele>1479.60</ele>
	<time>2025-04-29T07:33:30.000Z</time>
</trkpt>
<trkpt lat="45.9040190" lon="10.3643910">
	<ele>1479.40</ele>
	<time>2025-04-29T07:33:31.000Z</time>
</trkpt>
<trkpt lat="45.9040210" lon="10.3644100">
	<ele>1479.20</ele>
	<time>2025-04-29T07:33:32.000Z</time>
</trkpt>
<trkpt lat="45.9040210" lon="10.3644290">
	<ele>1479.20</ele>
	<time>2025-04-29T07:33:33.000Z</time>
</trkpt>
<trkpt lat="45.9040180" lon="10.3644450">
	<ele>1479.20</ele>
	<time>2025-04-29T07:33:34.000Z</time>
</trkpt>
<trkpt lat="45.9040190" lon="10.3644630">
	<ele>1479.20</ele>
	<time>2025-04-29T07:33:35.000Z</time>
</trkpt>
<trkpt lat="45.9040190" lon="10.3644820">
	<ele>1479.20</ele>
	<time>2025-04-29T07:33:36.000Z</time>
</trkpt>
<trkpt lat="45.9040180" lon="10.3645020">
	<ele>1479.20</ele>
	<time>2025-04-29T07:33:37.000Z</time>
</trkpt>
<trkpt lat="45.9040190" lon="10.3645240">
	<ele>1479.20</ele>
	<time>2025-04-29T07:33:38.000Z</time>
</trkpt>
<trkpt lat="45.9040220" lon="10.3645430">
	<ele>1479.20</ele>
	<time>2025-04-29T07:33:39.000Z</time>
</trkpt>
<trkpt lat="45.9040320" lon="10.3645650">
	<ele>1479.20</ele>
	<time>2025-04-29T07:33:40.000Z</time>
</trkpt>
<trkpt lat="45.9040420" lon="10.3645880">
	<ele>1479.20</ele>
	<time>2025-04-29T07:33:41.000Z</time>
</trkpt>
<trkpt lat="45.9040470" lon="10.3646080">
	<ele>1479.20</ele>
	<time>2025-04-29T07:33:42.000Z</time>
</trkpt>
<trkpt lat="45.9040470" lon="10.3646260">
	<ele>1479.20</ele>
	<time>2025-04-29T07:33:43.000Z</time>
</trkpt>
<trkpt lat="45.9040510" lon="10.3646460">
	<ele>1479.20</ele>
	<time>2025-04-29T07:33:44.000Z</time>
</trkpt>
<trkpt lat="45.9040630" lon="10.3646790">
	<ele>1479.20</ele>
	<time>2025-04-29T07:33:45.000Z</time>
</trkpt>
<trkpt lat="45.9040770" lon="10.3647110">
	<ele>1479.20</ele>
	<time>2025-04-29T07:33:46.000Z</time>
</trkpt>
<trkpt lat="45.9040940" lon="10.3647380">
	<ele>1479.20</ele>
	<time>2025-04-29T07:33:47.000Z</time>
</trkpt>
<trkpt lat="45.9040990" lon="10.3647490">
	<ele>1479.00</ele>
	<time>2025-04-29T07:33:48.000Z</time>
</trkpt>
<trkpt lat="45.9040980" lon="10.3647550">
	<ele>1479.00</ele>
	<time>2025-04-29T07:33:49.000Z</time>
</trkpt>
<trkpt lat="45.9040890" lon="10.3647620">
	<ele>1479.00</ele>
	<time>2025-04-29T07:33:50.000Z</time>
</trkpt>
<trkpt lat="45.9040740" lon="10.3647600">
	<ele>1479.00</ele>
	<time>2025-04-29T07:33:51.000Z</time>
</trkpt>
<trkpt lat="45.9040740" lon="10.3647650">
	<ele>1479.00</ele>
	<time>2025-04-29T07:33:52.000Z</time>
</trkpt>
<trkpt lat="45.9040710" lon="10.3647810">
	<ele>1479.00</ele>
	<time>2025-04-29T07:33:53.000Z</time>
</trkpt>
<trkpt lat="45.9040580" lon="10.3647950">
	<ele>1479.00</ele>
	<time>2025-04-29T07:33:54.000Z</time>
</trkpt>
<trkpt lat="45.9040610" lon="10.3648190">
	<ele>1479.00</ele>
	<time>2025-04-29T07:33:55.000Z</time>
</trkpt>
<trkpt lat="45.9040730" lon="10.3648440">
	<ele>1479.00</ele>
	<time>2025-04-29T07:33:56.000Z</time>
</trkpt>
<trkpt lat="45.9040840" lon="10.3648660">
	<ele>1479.00</ele>
	<time>2025-04-29T07:33:57.000Z</time>
</trkpt>
<trkpt lat="45.9040930" lon="10.3648920">
	<ele>1479.00</ele>
	<time>2025-04-29T07:33:58.000Z</time>
</trkpt>
<trkpt lat="45.9040970" lon="10.3649160">
	<ele>1479.00</ele>
	<time>2025-04-29T07:33:59.000Z</time>
</trkpt>
<trkpt lat="45.9040980" lon="10.3649410">
	<ele>1479.00</ele>
	<time>2025-04-29T07:34:00.000Z</time>
</trkpt>
<trkpt lat="45.9041000" lon="10.3649740">
	<ele>1479.00</ele>
	<time>2025-04-29T07:34:01.000Z</time>
</trkpt>
<trkpt lat="45.9040980" lon="10.3649960">
	<ele>1479.00</ele>
	<time>2025-04-29T07:34:02.000Z</time>
</trkpt>
<trkpt lat="45.9040920" lon="10.3650160">
	<ele>1479.00</ele>
	<time>2025-04-29T07:34:03.000Z</time>
</trkpt>
<trkpt lat="45.9040900" lon="10.3650350">
	<ele>1479.00</ele>
	<time>2025-04-29T07:34:04.000Z</time>
</trkpt>
<trkpt lat="45.9040900" lon="10.3650500">
	<ele>1479.00</ele>
	<time>2025-04-29T07:34:05.000Z</time>
</trkpt>
<trkpt lat="45.9040860" lon="10.3650700">
	<ele>1479.00</ele>
	<time>2025-04-29T07:34:06.000Z</time>
</trkpt>
<trkpt lat="45.9040910" lon="10.3650900">
	<ele>1479.00</ele>
	<time>2025-04-29T07:34:07.000Z</time>
</trkpt>
<trkpt lat="45.9040930" lon="10.3651090">
	<ele>1478.80</ele>
	<time>2025-04-29T07:34:08.000Z</time>
</trkpt>
<trkpt lat="45.9040930" lon="10.3651310">
	<ele>1478.80</ele>
	<time>2025-04-29T07:34:09.000Z</time>
</trkpt>
<trkpt lat="45.9040890" lon="10.3651500">
	<ele>1478.80</ele>
	<time>2025-04-29T07:34:10.000Z</time>
</trkpt>
<trkpt lat="45.9040850" lon="10.3651680">
	<ele>1478.80</ele>
	<time>2025-04-29T07:34:11.000Z</time>
</trkpt>
<trkpt lat="45.9040780" lon="10.3651890">
	<ele>1478.80</ele>
	<time>2025-04-29T07:34:12.000Z</time>
</trkpt>
<trkpt lat="45.9040720" lon="10.3652070">
	<ele>1478.60</ele>
	<time>2025-04-29T07:34:13.000Z</time>
</trkpt>
<trkpt lat="45.9040670" lon="10.3652260">
	<ele>1478.60</ele>
	<time>2025-04-29T07:34:14.000Z</time>
</trkpt>
<trkpt lat="45.9040640" lon="10.3652430">
	<ele>1478.60</ele>
	<time>2025-04-29T07:34:15.000Z</time>
</trkpt>
<trkpt lat="45.9040590" lon="10.3652560">
	<ele>1478.60</ele>
	<time>2025-04-29T07:34:16.000Z</time>
</trkpt>
<trkpt lat="45.9040560" lon="10.3652740">
	<ele>1478.40</ele>
	<time>2025-04-29T07:34:17.000Z</time>
</trkpt>
<trkpt lat="45.9040550" lon="10.3652920">
	<ele>1478.40</ele>
	<time>2025-04-29T07:34:18.000Z</time>
</trkpt>
<trkpt lat="45.9040510" lon="10.3653090">
	<ele>1478.40</ele>
	<time>2025-04-29T07:34:19.000Z</time>
</trkpt>
<trkpt lat="45.9040460" lon="10.3653270">
	<ele>1478.40</ele>
	<time>2025-04-29T07:34:20.000Z</time>
</trkpt>
<trkpt lat="45.9040430" lon="10.3653440">
	<ele>1478.40</ele>
	<time>2025-04-29T07:34:21.000Z</time>
</trkpt>
<trkpt lat="45.9040390" lon="10.3653590">
	<ele>1478.40</ele>
	<time>2025-04-29T07:34:22.000Z</time>
</trkpt>
<trkpt lat="45.9040340" lon="10.3653760">
	<ele>1478.40</ele>
	<time>2025-04-29T07:34:23.000Z</time>
</trkpt>
<trkpt lat="45.9040290" lon="10.3653900">
	<ele>1478.40</ele>
	<time>2025-04-29T07:34:24.000Z</time>
</trkpt>
<trkpt lat="45.9040230" lon="10.3654050">
	<ele>1478.40</ele>
	<time>2025-04-29T07:34:25.000Z</time>
</trkpt>
<trkpt lat="45.9040190" lon="10.3654220">
	<ele>1478.40</ele>
	<time>2025-04-29T07:34:26.000Z</time>
</trkpt>
<trkpt lat="45.9040170" lon="10.3654350">
	<ele>1478.40</ele>
	<time>2025-04-29T07:34:27.000Z</time>
</trkpt>
<trkpt lat="45.9040170" lon="10.3654520">
	<ele>1478.40</ele>
	<time>2025-04-29T07:34:28.000Z</time>
</trkpt>
<trkpt lat="45.9040150" lon="10.3654710">
	<ele>1478.20</ele>
	<time>2025-04-29T07:34:29.000Z</time>
</trkpt>
<trkpt lat="45.9040130" lon="10.3654900">
	<ele>1478.40</ele>
	<time>2025-04-29T07:34:30.000Z</time>
</trkpt>
<trkpt lat="45.9040110" lon="10.3655100">
	<ele>1478.40</ele>
	<time>2025-04-29T07:34:31.000Z</time>
</trkpt>
<trkpt lat="45.9040110" lon="10.3655320">
	<ele>1478.40</ele>
	<time>2025-04-29T07:34:32.000Z</time>
</trkpt>
<trkpt lat="45.9040130" lon="10.3655550">
	<ele>1478.40</ele>
	<time>2025-04-29T07:34:33.000Z</time>
</trkpt>
<trkpt lat="45.9040130" lon="10.3655760">
	<ele>1478.40</ele>
	<time>2025-04-29T07:34:34.000Z</time>
</trkpt>
<trkpt lat="45.9040100" lon="10.3655950">
	<ele>1478.60</ele>
	<time>2025-04-29T07:34:35.000Z</time>
</trkpt>
<trkpt lat="45.9040060" lon="10.3656140">
	<ele>1478.60</ele>
	<time>2025-04-29T07:34:36.000Z</time>
</trkpt>
<trkpt lat="45.9040030" lon="10.3656350">
	<ele>1478.60</ele>
	<time>2025-04-29T07:34:37.000Z</time>
</trkpt>
<trkpt lat="45.9039960" lon="10.3656540">
	<ele>1478.80</ele>
	<time>2025-04-29T07:34:38.000Z</time>
</trkpt>
<trkpt lat="45.9039880" lon="10.3656710">
	<ele>1478.80</ele>
	<time>2025-04-29T07:34:39.000Z</time>
</trkpt>
<trkpt lat="45.9039770" lon="10.3656840">
	<ele>1478.80</ele>
	<time>2025-04-29T07:34:40.000Z</time>
</trkpt>
<trkpt lat="45.9039640" lon="10.3656940">
	<ele>1478.80</ele>
	<time>2025-04-29T07:34:41.000Z</time>
</trkpt>
<trkpt lat="45.9039510" lon="10.3657070">
	<ele>1478.80</ele>
	<time>2025-04-29T07:34:42.000Z</time>
</trkpt>
<trkpt lat="45.9039390" lon="10.3657270">
	<ele>1478.60</ele>
	<time>2025-04-29T07:34:43.000Z</time>
</trkpt>
<trkpt lat="45.9039280" lon="10.3657470">
	<ele>1478.60</ele>
	<time>2025-04-29T07:34:44.000Z</time>
</trkpt>
<trkpt lat="45.9039190" lon="10.3657610">
	<ele>1478.60</ele>
	<time>2025-04-29T07:34:45.000Z</time>
</trkpt>
<trkpt lat="45.9039090" lon="10.3657740">
	<ele>1478.60</ele>
	<time>2025-04-29T07:34:46.000Z</time>
</trkpt>
<trkpt lat="45.9038980" lon="10.3657870">
	<ele>1478.60</ele>
	<time>2025-04-29T07:34:47.000Z</time>
</trkpt>
<trkpt lat="45.9038880" lon="10.3658000">
	<ele>1478.60</ele>
	<time>2025-04-29T07:34:48.000Z</time>
</trkpt>
<trkpt lat="45.9038780" lon="10.3658100">
	<ele>1478.60</ele>
	<time>2025-04-29T07:34:49.000Z</time>
</trkpt>
<trkpt lat="45.9038710" lon="10.3658220">
	<ele>1478.60</ele>
	<time>2025-04-29T07:34:50.000Z</time>
</trkpt>
<trkpt lat="45.9038640" lon="10.3658310">
	<ele>1478.60</ele>
	<time>2025-04-29T07:34:51.000Z</time>
</trkpt>
<trkpt lat="45.9038520" lon="10.3658390">
	<ele>1478.60</ele>
	<time>2025-04-29T07:34:52.000Z</time>
</trkpt>
<trkpt lat="45.9038410" lon="10.3658520">
	<ele>1478.40</ele>
	<time>2025-04-29T07:34:53.000Z</time>
</trkpt>
<trkpt lat="45.9038330" lon="10.3658690">
	<ele>1478.40</ele>
	<time>2025-04-29T07:34:54.000Z</time>
</trkpt>
<trkpt lat="45.9038310" lon="10.3658950">
	<ele>1478.60</ele>
	<time>2025-04-29T07:34:55.000Z</time>
</trkpt>
<trkpt lat="45.9038270" lon="10.3659160">
	<ele>1478.80</ele>
	<time>2025-04-29T07:34:56.000Z</time>
</trkpt>
<trkpt lat="45.9038180" lon="10.3659290">
	<ele>1479.00</ele>
	<time>2025-04-29T07:34:57.000Z</time>
</trkpt>
<trkpt lat="45.9038090" lon="10.3659430">
	<ele>1479.00</ele>
	<time>2025-04-29T07:34:58.000Z</time>
</trkpt>
<trkpt lat="45.9037970" lon="10.3659550">
	<ele>1479.00</ele>
	<time>2025-04-29T07:34:59.000Z</time>
</trkpt>
<trkpt lat="45.9037870" lon="10.3659720">
	<ele>1479.20</ele>
	<time>2025-04-29T07:35:00.000Z</time>
</trkpt>
<trkpt lat="45.9037770" lon="10.3659910">
	<ele>1479.20</ele>
	<time>2025-04-29T07:35:01.000Z</time>
</trkpt>
<trkpt lat="45.9037680" lon="10.3660080">
	<ele>1479.60</ele>
	<time>2025-04-29T07:35:02.000Z</time>
</trkpt>
<trkpt lat="45.9037590" lon="10.3660240">
	<ele>1479.80</ele>
	<time>2025-04-29T07:35:03.000Z</time>
</trkpt>
<trkpt lat="45.9037530" lon="10.3660440">
	<ele>1479.80</ele>
	<time>2025-04-29T07:35:04.000Z</time>
</trkpt>
<trkpt lat="45.9037480" lon="10.3660700">
	<ele>1479.80</ele>
	<time>2025-04-29T07:35:05.000Z</time>
</trkpt>
<trkpt lat="45.9037420" lon="10.3660930">
	<ele>1480.00</ele>
	<time>2025-04-29T07:35:06.000Z</time>
</trkpt>
<trkpt lat="45.9037330" lon="10.3661100">
	<ele>1480.00</ele>
	<time>2025-04-29T07:35:07.000Z</time>
</trkpt>
<trkpt lat="45.9037260" lon="10.3661260">
	<ele>1480.00</ele>
	<time>2025-04-29T07:35:08.000Z</time>
</trkpt>
<trkpt lat="45.9037200" lon="10.3661430">
	<ele>1480.20</ele>
	<time>2025-04-29T07:35:09.000Z</time>
</trkpt>
<trkpt lat="45.9037150" lon="10.3661630">
	<ele>1480.20</ele>
	<time>2025-04-29T07:35:10.000Z</time>
</trkpt>
<trkpt lat="45.9037100" lon="10.3661800">
	<ele>1480.20</ele>
	<time>2025-04-29T07:35:11.000Z</time>
</trkpt>
<trkpt lat="45.9037060" lon="10.3661980">
	<ele>1480.00</ele>
	<time>2025-04-29T07:35:12.000Z</time>
</trkpt>
<trkpt lat="45.9037000" lon="10.3662160">
	<ele>1480.00</ele>
	<time>2025-04-29T07:35:13.000Z</time>
</trkpt>
<trkpt lat="45.9036920" lon="10.3662340">
	<ele>1479.80</ele>
	<time>2025-04-29T07:35:14.000Z</time>
</trkpt>
<trkpt lat="45.9036830" lon="10.3662530">
	<ele>1479.80</ele>
	<time>2025-04-29T07:35:15.000Z</time>
</trkpt>
<trkpt lat="45.9036750" lon="10.3662690">
	<ele>1479.60</ele>
	<time>2025-04-29T07:35:16.000Z</time>
</trkpt>
<trkpt lat="45.9036690" lon="10.3662830">
	<ele>1479.60</ele>
	<time>2025-04-29T07:35:17.000Z</time>
</trkpt>
<trkpt lat="45.9036680" lon="10.3663000">
	<ele>1479.40</ele>
	<time>2025-04-29T07:35:18.000Z</time>
</trkpt>
<trkpt lat="45.9036680" lon="10.3663170">
	<ele>1479.40</ele>
	<time>2025-04-29T07:35:19.000Z</time>
</trkpt>
<trkpt lat="45.9036620" lon="10.3663370">
	<ele>1479.40</ele>
	<time>2025-04-29T07:35:20.000Z</time>
</trkpt>
<trkpt lat="45.9036590" lon="10.3663570">
	<ele>1479.40</ele>
	<time>2025-04-29T07:35:21.000Z</time>
</trkpt>
<trkpt lat="45.9036570" lon="10.3663760">
	<ele>1479.40</ele>
	<time>2025-04-29T07:35:22.000Z</time>
</trkpt>
<trkpt lat="45.9036530" lon="10.3663980">
	<ele>1479.40</ele>
	<time>2025-04-29T07:35:23.000Z</time>
</trkpt>
<trkpt lat="45.9036470" lon="10.3664220">
	<ele>1479.60</ele>
	<time>2025-04-29T07:35:24.000Z</time>
</trkpt>
<trkpt lat="45.9036420" lon="10.3664480">
	<ele>1479.60</ele>
	<time>2025-04-29T07:35:25.000Z</time>
</trkpt>
<trkpt lat="45.9036320" lon="10.3664670">
	<ele>1479.60</ele>
	<time>2025-04-29T07:35:26.000Z</time>
</trkpt>
<trkpt lat="45.9036230" lon="10.3664860">
	<ele>1479.60</ele>
	<time>2025-04-29T07:35:27.000Z</time>
</trkpt>
<trkpt lat="45.9036180" lon="10.3665110">
	<ele>1479.60</ele>
	<time>2025-04-29T07:35:28.000Z</time>
</trkpt>
<trkpt lat="45.9035990" lon="10.3665350">
	<ele>1479.60</ele>
	<time>2025-04-29T07:35:29.000Z</time>
</trkpt>
<trkpt lat="45.9035810" lon="10.3665540">
	<ele>1479.60</ele>
	<time>2025-04-29T07:35:30.000Z</time>
</trkpt>
<trkpt lat="45.9035810" lon="10.3665750">
	<ele>1479.60</ele>
	<time>2025-04-29T07:35:31.000Z</time>
</trkpt>
<trkpt lat="45.9035780" lon="10.3665940">
	<ele>1479.60</ele>
	<time>2025-04-29T07:35:32.000Z</time>
</trkpt>
<trkpt lat="45.9035780" lon="10.3666090">
	<ele>1479.80</ele>
	<time>2025-04-29T07:35:33.000Z</time>
</trkpt>
<trkpt lat="45.9035830" lon="10.3666260">
	<ele>1479.80</ele>
	<time>2025-04-29T07:35:34.000Z</time>
</trkpt>
<trkpt lat="45.9035930" lon="10.3666510">
	<ele>1480.00</ele>
	<time>2025-04-29T07:35:35.000Z</time>
</trkpt>
<trkpt lat="45.9036020" lon="10.3666720">
	<ele>1480.00</ele>
	<time>2025-04-29T07:35:36.000Z</time>
</trkpt>
<trkpt lat="45.9036070" lon="10.3666930">
	<ele>1480.20</ele>
	<time>2025-04-29T07:35:37.000Z</time>
</trkpt>
<trkpt lat="45.9036040" lon="10.3667090">
	<ele>1480.20</ele>
	<time>2025-04-29T07:35:38.000Z</time>
</trkpt>
<trkpt lat="45.9035900" lon="10.3667210">
	<ele>1480.20</ele>
	<time>2025-04-29T07:35:39.000Z</time>
</trkpt>
<trkpt lat="45.9035840" lon="10.3667360">
	<ele>1480.40</ele>
	<time>2025-04-29T07:35:40.000Z</time>
</trkpt>
<trkpt lat="45.9035870" lon="10.3667520">
	<ele>1480.40</ele>
	<time>2025-04-29T07:35:41.000Z</time>
</trkpt>
<trkpt lat="45.9035940" lon="10.3667670">
	<ele>1480.40</ele>
	<time>2025-04-29T07:35:42.000Z</time>
</trkpt>
<trkpt lat="45.9036090" lon="10.3667830">
	<ele>1480.60</ele>
	<time>2025-04-29T07:35:43.000Z</time>
</trkpt>
<trkpt lat="45.9036210" lon="10.3668000">
	<ele>1480.60</ele>
	<time>2025-04-29T07:35:44.000Z</time>
</trkpt>
<trkpt lat="45.9036240" lon="10.3668150">
	<ele>1480.80</ele>
	<time>2025-04-29T07:35:45.000Z</time>
</trkpt>
<trkpt lat="45.9036230" lon="10.3668290">
	<ele>1480.80</ele>
	<time>2025-04-29T07:35:46.000Z</time>
</trkpt>
<trkpt lat="45.9036310" lon="10.3668490">
	<ele>1481.00</ele>
	<time>2025-04-29T07:35:47.000Z</time>
</trkpt>
<trkpt lat="45.9036390" lon="10.3668660">
	<ele>1481.20</ele>
	<time>2025-04-29T07:35:48.000Z</time>
</trkpt>
<trkpt lat="45.9036430" lon="10.3668820">
	<ele>1481.60</ele>
	<time>2025-04-29T07:35:49.000Z</time>
</trkpt>
<trkpt lat="45.9036490" lon="10.3668960">
	<ele>1481.60</ele>
	<time>2025-04-29T07:35:50.000Z</time>
</trkpt>
<trkpt lat="45.9036530" lon="10.3669010">
	<ele>1481.80</ele>
	<time>2025-04-29T07:35:51.000Z</time>
</trkpt>
<trkpt lat="45.9036470" lon="10.3669040">
	<ele>1481.80</ele>
	<time>2025-04-29T07:35:52.000Z</time>
</trkpt>
<trkpt lat="45.9036320" lon="10.3669010">
	<ele>1481.80</ele>
	<time>2025-04-29T07:35:53.000Z</time>
</trkpt>
<trkpt lat="45.9036230" lon="10.3669010">
	<ele>1481.80</ele>
	<time>2025-04-29T07:35:54.000Z</time>
</trkpt>
<trkpt lat="45.9036210" lon="10.3669080">
	<ele>1482.00</ele>
	<time>2025-04-29T07:35:55.000Z</time>
</trkpt>
<trkpt lat="45.9036310" lon="10.3669230">
	<ele>1482.00</ele>
	<time>2025-04-29T07:35:56.000Z</time>
</trkpt>
<trkpt lat="45.9036370" lon="10.3669240">
	<ele>1482.00</ele>
	<time>2025-04-29T07:35:57.000Z</time>
</trkpt>
<trkpt lat="45.9036650" lon="10.3669420">
	<ele>1482.00</ele>
	<time>2025-04-29T07:35:58.000Z</time>
</trkpt>
<trkpt lat="45.9036860" lon="10.3669600">
	<ele>1482.00</ele>
	<time>2025-04-29T07:35:59.000Z</time>
</trkpt>
<trkpt lat="45.9036990" lon="10.3669850">
	<ele>1482.00</ele>
	<time>2025-04-29T07:36:00.000Z</time>
</trkpt>
<trkpt lat="45.9037060" lon="10.3670080">
	<ele>1482.20</ele>
	<time>2025-04-29T07:36:01.000Z</time>
</trkpt>
<trkpt lat="45.9037020" lon="10.3670280">
	<ele>1482.40</ele>
	<time>2025-04-29T07:36:02.000Z</time>
</trkpt>
<trkpt lat="45.9037000" lon="10.3670450">
	<ele>1482.40</ele>
	<time>2025-04-29T07:36:03.000Z</time>
</trkpt>
<trkpt lat="45.9036940" lon="10.3670560">
	<ele>1482.60</ele>
	<time>2025-04-29T07:36:04.000Z</time>
</trkpt>
<trkpt lat="45.9036970" lon="10.3670720">
	<ele>1482.80</ele>
	<time>2025-04-29T07:36:05.000Z</time>
</trkpt>
<trkpt lat="45.9037050" lon="10.3670920">
	<ele>1483.00</ele>
	<time>2025-04-29T07:36:06.000Z</time>
</trkpt>
<trkpt lat="45.9037100" lon="10.3671120">
	<ele>1483.00</ele>
	<time>2025-04-29T07:36:07.000Z</time>
</trkpt>
<trkpt lat="45.9037080" lon="10.3671320">
	<ele>1483.20</ele>
	<time>2025-04-29T07:36:08.000Z</time>
</trkpt>
<trkpt lat="45.9036910" lon="10.3671420">
	<ele>1483.40</ele>
	<time>2025-04-29T07:36:09.000Z</time>
</trkpt>
<trkpt lat="45.9036830" lon="10.3671640">
	<ele>1483.60</ele>
	<time>2025-04-29T07:36:10.000Z</time>
</trkpt>
<trkpt lat="45.9036760" lon="10.3671880">
	<ele>1483.60</ele>
	<time>2025-04-29T07:36:11.000Z</time>
</trkpt>
<trkpt lat="45.9036800" lon="10.3672140">
	<ele>1484.00</ele>
	<time>2025-04-29T07:36:12.000Z</time>
</trkpt>
<trkpt lat="45.9036750" lon="10.3672320">
	<ele>1484.20</ele>
	<time>2025-04-29T07:36:13.000Z</time>
</trkpt>
<trkpt lat="45.9036610" lon="10.3672360">
	<ele>1484.40</ele>
	<time>2025-04-29T07:36:14.000Z</time>
</trkpt>
<trkpt lat="45.9036540" lon="10.3672450">
	<ele>1484.80</ele>
	<time>2025-04-29T07:36:15.000Z</time>
</trkpt>
<trkpt lat="45.9036440" lon="10.3672420">
	<ele>1485.00</ele>
	<time>2025-04-29T07:36:16.000Z</time>
</trkpt>
<trkpt lat="45.9036370" lon="10.3672400">
	<ele>1485.40</ele>
	<time>2025-04-29T07:36:17.000Z</time>
</trkpt>
<trkpt lat="45.9036270" lon="10.3672350">
	<ele>1485.40</ele>
	<time>2025-04-29T07:36:18.000Z</time>
</trkpt>
<trkpt lat="45.9036360" lon="10.3672400">
	<ele>1485.60</ele>
	<time>2025-04-29T07:36:19.000Z</time>
</trkpt>
<trkpt lat="45.9036490" lon="10.3672480">
	<ele>1485.40</ele>
	<time>2025-04-29T07:36:20.000Z</time>
</trkpt>
<trkpt lat="45.9036530" lon="10.3672590">
	<ele>1485.40</ele>
	<time>2025-04-29T07:36:21.000Z</time>
</trkpt>
<trkpt lat="45.9036500" lon="10.3672700">
	<ele>1485.60</ele>
	<time>2025-04-29T07:36:22.000Z</time>
</trkpt>
<trkpt lat="45.9036400" lon="10.3672780">
	<ele>1485.60</ele>
	<time>2025-04-29T07:36:23.000Z</time>
</trkpt>
<trkpt lat="45.9036270" lon="10.3672860">
	<ele>1485.60</ele>
	<time>2025-04-29T07:36:24.000Z</time>
</trkpt>
<trkpt lat="45.9036120" lon="10.3672860">
	<ele>1485.60</ele>
	<time>2025-04-29T07:36:25.000Z</time>
</trkpt>
<trkpt lat="45.9035990" lon="10.3672820">
	<ele>1485.60</ele>
	<time>2025-04-29T07:36:26.000Z</time>
</trkpt>
<trkpt lat="45.9035860" lon="10.3672780">
	<ele>1485.60</ele>
	<time>2025-04-29T07:36:27.000Z</time>
</trkpt>
<trkpt lat="45.9035820" lon="10.3672760">
	<ele>1485.60</ele>
	<time>2025-04-29T07:36:28.000Z</time>
</trkpt>
<trkpt lat="45.9035780" lon="10.3672760">
	<ele>1485.60</ele>
	<time>2025-04-29T07:36:29.000Z</time>
</trkpt>
<trkpt lat="45.9035750" lon="10.3672780">
	<ele>1485.60</ele>
	<time>2025-04-29T07:36:30.000Z</time>
</trkpt>
<trkpt lat="45.9035620" lon="10.3672760">
	<ele>1485.60</ele>
	<time>2025-04-29T07:36:31.000Z</time>
</trkpt>
<trkpt lat="45.9035560" lon="10.3672770">
	<ele>1485.60</ele>
	<time>2025-04-29T07:36:32.000Z</time>
</trkpt>
<trkpt lat="45.9035560" lon="10.3672830">
	<ele>1485.60</ele>
	<time>2025-04-29T07:36:33.000Z</time>
</trkpt>
<trkpt lat="45.9035520" lon="10.3672820">
	<ele>1485.60</ele>
	<time>2025-04-29T07:36:34.000Z</time>
</trkpt>
<trkpt lat="45.9035390" lon="10.3672780">
	<ele>1485.60</ele>
	<time>2025-04-29T07:36:35.000Z</time>
</trkpt>
<trkpt lat="45.9035340" lon="10.3672730">
	<ele>1485.60</ele>
	<time>2025-04-29T07:36:36.000Z</time>
</trkpt>
<trkpt lat="45.9035280" lon="10.3672650">
	<ele>1485.80</ele>
	<time>2025-04-29T07:36:37.000Z</time>
</trkpt>
<trkpt lat="45.9035260" lon="10.3672780">
	<ele>1485.80</ele>
	<time>2025-04-29T07:36:38.000Z</time>
</trkpt>
<trkpt lat="45.9035130" lon="10.3672740">
	<ele>1486.00</ele>
	<time>2025-04-29T07:36:39.000Z</time>
</trkpt>
<trkpt lat="45.9035140" lon="10.3672740">
	<ele>1486.00</ele>
	<time>2025-04-29T07:36:40.000Z</time>
</trkpt>
<trkpt lat="45.9035130" lon="10.3672720">
	<ele>1486.20</ele>
	<time>2025-04-29T07:36:41.000Z</time>
</trkpt>
<trkpt lat="45.9035320" lon="10.3672860">
	<ele>1486.20</ele>
	<time>2025-04-29T07:36:42.000Z</time>
</trkpt>
<trkpt lat="45.9035340" lon="10.3672890">
	<ele>1486.40</ele>
	<time>2025-04-29T07:36:43.000Z</time>
</trkpt>
<trkpt lat="45.9035360" lon="10.3672900">
	<ele>1486.40</ele>
	<time>2025-04-29T07:36:44.000Z</time>
</trkpt>
<trkpt lat="45.9035390" lon="10.3672910">
	<ele>1486.40</ele>
	<time>2025-04-29T07:36:45.000Z</time>
</trkpt>
<trkpt lat="45.9035310" lon="10.3672870">
	<ele>1486.60</ele>
	<time>2025-04-29T07:36:46.000Z</time>
</trkpt>
<trkpt lat="45.9035120" lon="10.3672800">
	<ele>1486.60</ele>
	<time>2025-04-29T07:36:47.000Z</time>
</trkpt>
<trkpt lat="45.9034980" lon="10.3672740">
	<ele>1486.60</ele>
	<time>2025-04-29T07:36:48.000Z</time>
</trkpt>
<trkpt lat="45.9034900" lon="10.3672660">
	<ele>1486.60</ele>
	<time>2025-04-29T07:36:49.000Z</time>
</trkpt>
<trkpt lat="45.9034860" lon="10.3672640">
	<ele>1486.60</ele>
	<time>2025-04-29T07:36:50.000Z</time>
</trkpt>
<trkpt lat="45.9034800" lon="10.3672620">
	<ele>1486.60</ele>
	<time>2025-04-29T07:36:51.000Z</time>
</trkpt>
<trkpt lat="45.9034710" lon="10.3672620">
	<ele>1486.60</ele>
	<time>2025-04-29T07:36:52.000Z</time>
</trkpt>
<trkpt lat="45.9034670" lon="10.3672570">
	<ele>1486.60</ele>
	<time>2025-04-29T07:36:53.000Z</time>
</trkpt>
<trkpt lat="45.9034640" lon="10.3672650">
	<ele>1486.60</ele>
	<time>2025-04-29T07:36:54.000Z</time>
</trkpt>
<trkpt lat="45.9034590" lon="10.3672670">
	<ele>1486.60</ele>
	<time>2025-04-29T07:36:55.000Z</time>
</trkpt>
<trkpt lat="45.9034620" lon="10.3672710">
	<ele>1486.60</ele>
	<time>2025-04-29T07:36:56.000Z</time>
</trkpt>
<trkpt lat="45.9034620" lon="10.3672810">
	<ele>1486.60</ele>
	<time>2025-04-29T07:36:57.000Z</time>
</trkpt>
<trkpt lat="45.9034610" lon="10.3672890">
	<ele>1486.60</ele>
	<time>2025-04-29T07:36:58.000Z</time>
</trkpt>
<trkpt lat="45.9034520" lon="10.3672990">
	<ele>1486.60</ele>
	<time>2025-04-29T07:36:59.000Z</time>
</trkpt>
<trkpt lat="45.9034440" lon="10.3673000">
	<ele>1486.60</ele>
	<time>2025-04-29T07:37:00.000Z</time>
</trkpt>
<trkpt lat="45.9034490" lon="10.3672970">
	<ele>1486.60</ele>
	<time>2025-04-29T07:37:01.000Z</time>
</trkpt>
<trkpt lat="45.9034500" lon="10.3672950">
	<ele>1486.60</ele>
	<time>2025-04-29T07:37:02.000Z</time>
</trkpt>
<trkpt lat="45.9034500" lon="10.3672960">
	<ele>1486.40</ele>
	<time>2025-04-29T07:37:03.000Z</time>
</trkpt>
<trkpt lat="45.9034520" lon="10.3672980">
	<ele>1486.40</ele>
	<time>2025-04-29T07:37:04.000Z</time>
</trkpt>
<trkpt lat="45.9034450" lon="10.3672920">
	<ele>1486.40</ele>
	<time>2025-04-29T07:37:05.000Z</time>
</trkpt>
<trkpt lat="45.9034510" lon="10.3672910">
	<ele>1486.40</ele>
	<time>2025-04-29T07:37:06.000Z</time>
</trkpt>
<trkpt lat="45.9034520" lon="10.3672890">
	<ele>1486.40</ele>
	<time>2025-04-29T07:37:07.000Z</time>
</trkpt>
<trkpt lat="45.9034460" lon="10.3672870">
	<ele>1486.40</ele>
	<time>2025-04-29T07:37:08.000Z</time>
</trkpt>
<trkpt lat="45.9034360" lon="10.3672850">
	<ele>1486.40</ele>
	<time>2025-04-29T07:37:09.000Z</time>
</trkpt>
<trkpt lat="45.9034240" lon="10.3672800">
	<ele>1486.40</ele>
	<time>2025-04-29T07:37:10.000Z</time>
</trkpt>
<trkpt lat="45.9034110" lon="10.3672760">
	<ele>1486.40</ele>
	<time>2025-04-29T07:37:11.000Z</time>
</trkpt>
<trkpt lat="45.9034050" lon="10.3672710">
	<ele>1486.40</ele>
	<time>2025-04-29T07:37:12.000Z</time>
</trkpt>
<trkpt lat="45.9034120" lon="10.3672790">
	<ele>1486.40</ele>
	<time>2025-04-29T07:37:13.000Z</time>
</trkpt>
<trkpt lat="45.9034260" lon="10.3672910">
	<ele>1486.40</ele>
	<time>2025-04-29T07:37:14.000Z</time>
</trkpt>
<trkpt lat="45.9034310" lon="10.3672960">
	<ele>1486.60</ele>
	<time>2025-04-29T07:37:15.000Z</time>
</trkpt>
<trkpt lat="45.9034340" lon="10.3672950">
	<ele>1486.60</ele>
	<time>2025-04-29T07:37:16.000Z</time>
</trkpt>
<trkpt lat="45.9034380" lon="10.3672950">
	<ele>1486.60</ele>
	<time>2025-04-29T07:37:17.000Z</time>
</trkpt>
<trkpt lat="45.9034370" lon="10.3672970">
	<ele>1486.60</ele>
	<time>2025-04-29T07:37:18.000Z</time>
</trkpt>
<trkpt lat="45.9034370" lon="10.3672970">
	<ele>1486.60</ele>
	<time>2025-04-29T07:37:19.000Z</time>
</trkpt>
<trkpt lat="45.9034370" lon="10.3672970">
	<ele>1486.60</ele>
	<time>2025-04-29T07:37:20.000Z</time>
</trkpt>
<trkpt lat="45.9034370" lon="10.3672970">
	<ele>1486.60</ele>
	<time>2025-04-29T07:37:21.000Z</time>
</trkpt>
<trkpt lat="45.9034320" lon="10.3672950">
	<ele>1486.60</ele>
	<time>2025-04-29T07:37:22.000Z</time>
</trkpt>
<trkpt lat="45.9034280" lon="10.3672940">
	<ele>1486.40</ele>
	<time>2025-04-29T07:37:23.000Z</time>
</trkpt>
<trkpt lat="45.9034110" lon="10.3672820">
	<ele>1486.40</ele>
	<time>2025-04-29T07:37:24.000Z</time>
</trkpt>
<trkpt lat="45.9034050" lon="10.3672720">
	<ele>1486.40</ele>
	<time>2025-04-29T07:37:25.000Z</time>
</trkpt>
<trkpt lat="45.9034000" lon="10.3672670">
	<ele>1486.60</ele>
	<time>2025-04-29T07:37:26.000Z</time>
</trkpt>
<trkpt lat="45.9033980" lon="10.3672630">
	<ele>1486.80</ele>
	<time>2025-04-29T07:37:27.000Z</time>
</trkpt>
<trkpt lat="45.9033820" lon="10.3672520">
	<ele>1487.00</ele>
	<time>2025-04-29T07:37:28.000Z</time>
</trkpt>
<trkpt lat="45.9033660" lon="10.3672460">
	<ele>1487.20</ele>
	<time>2025-04-29T07:37:29.000Z</time>
</trkpt>
<trkpt lat="45.9033530" lon="10.3672370">
	<ele>1487.40</ele>
	<time>2025-04-29T07:37:30.000Z</time>
</trkpt>
<trkpt lat="45.9033420" lon="10.3672200">
	<ele>1487.40</ele>
	<time>2025-04-29T07:37:31.000Z</time>
</trkpt>
<trkpt lat="45.9033320" lon="10.3671990">
	<ele>1487.60</ele>
	<time>2025-04-29T07:37:32.000Z</time>
</trkpt>
<trkpt lat="45.9033230" lon="10.3671830">
	<ele>1487.60</ele>
	<time>2025-04-29T07:37:33.000Z</time>
</trkpt>
<trkpt lat="45.9033080" lon="10.3671680">
	<ele>1487.80</ele>
	<time>2025-04-29T07:37:34.000Z</time>
</trkpt>
<trkpt lat="45.9033000" lon="10.3671530">
	<ele>1487.80</ele>
	<time>2025-04-29T07:37:35.000Z</time>
</trkpt>
<trkpt lat="45.9032860" lon="10.3671340">
	<ele>1487.80</ele>
	<time>2025-04-29T07:37:36.000Z</time>
</trkpt>
<trkpt lat="45.9032750" lon="10.3671220">
	<ele>1487.80</ele>
	<time>2025-04-29T07:37:37.000Z</time>
</trkpt>
<trkpt lat="45.9032740" lon="10.3671110">
	<ele>1488.00</ele>
	<time>2025-04-29T07:37:38.000Z</time>
</trkpt>
<trkpt lat="45.9032760" lon="10.3671080">
	<ele>1488.00</ele>
	<time>2025-04-29T07:37:39.000Z</time>
</trkpt>
<trkpt lat="45.9032790" lon="10.3671100">
	<ele>1488.20</ele>
	<time>2025-04-29T07:37:40.000Z</time>
</trkpt>
<trkpt lat="45.9032740" lon="10.3671040">
	<ele>1488.40</ele>
	<time>2025-04-29T07:37:41.000Z</time>
</trkpt>
<trkpt lat="45.9032810" lon="10.3671000">
	<ele>1488.40</ele>
	<time>2025-04-29T07:37:42.000Z</time>
</trkpt>
<trkpt lat="45.9032960" lon="10.3670960">
	<ele>1488.60</ele>
	<time>2025-04-29T07:37:43.000Z</time>
</trkpt>
<trkpt lat="45.9033010" lon="10.3670920">
	<ele>1488.80</ele>
	<time>2025-04-29T07:37:44.000Z</time>
</trkpt>
<trkpt lat="45.9033060" lon="10.3670870">
	<ele>1488.80</ele>
	<time>2025-04-29T07:37:45.000Z</time>
</trkpt>
<trkpt lat="45.9032980" lon="10.3670740">
	<ele>1489.00</ele>
	<time>2025-04-29T07:37:46.000Z</time>
</trkpt>
<trkpt lat="45.9032540" lon="10.3670440">
	<ele>1489.00</ele>
	<time>2025-04-29T07:37:47.000Z</time>
</trkpt>
<trkpt lat="45.9032200" lon="10.3670280">
	<ele>1489.20</ele>
	<time>2025-04-29T07:37:48.000Z</time>
</trkpt>
<trkpt lat="45.9032050" lon="10.3670240">
	<ele>1489.40</ele>
	<time>2025-04-29T07:37:49.000Z</time>
</trkpt>
<trkpt lat="45.9032060" lon="10.3670280">
	<ele>1489.60</ele>
	<time>2025-04-29T07:37:50.000Z</time>
</trkpt>
<trkpt lat="45.9031970" lon="10.3670180">
	<ele>1489.60</ele>
	<time>2025-04-29T07:37:51.000Z</time>
</trkpt>
<trkpt lat="45.9031950" lon="10.3670160">
	<ele>1489.80</ele>
	<time>2025-04-29T07:37:52.000Z</time>
</trkpt>
<trkpt lat="45.9032100" lon="10.3670180">
	<ele>1490.00</ele>
	<time>2025-04-29T07:37:53.000Z</time>
</trkpt>
<trkpt lat="45.9032210" lon="10.3670180">
	<ele>1490.20</ele>
	<time>2025-04-29T07:37:54.000Z</time>
</trkpt>
<trkpt lat="45.9032260" lon="10.3670230">
	<ele>1490.40</ele>
	<time>2025-04-29T07:37:55.000Z</time>
</trkpt>
<trkpt lat="45.9032220" lon="10.3670250">
	<ele>1490.60</ele>
	<time>2025-04-29T07:37:56.000Z</time>
</trkpt>
<trkpt lat="45.9032220" lon="10.3670290">
	<ele>1490.80</ele>
	<time>2025-04-29T07:37:57.000Z</time>
</trkpt>
<trkpt lat="45.9032130" lon="10.3670300">
	<ele>1490.80</ele>
	<time>2025-04-29T07:37:58.000Z</time>
</trkpt>
<trkpt lat="45.9032070" lon="10.3670320">
	<ele>1491.00</ele>
	<time>2025-04-29T07:37:59.000Z</time>
</trkpt>
<trkpt lat="45.9031980" lon="10.3670280">
	<ele>1491.20</ele>
	<time>2025-04-29T07:38:00.000Z</time>
</trkpt>
<trkpt lat="45.9031880" lon="10.3670260">
	<ele>1491.40</ele>
	<time>2025-04-29T07:38:01.000Z</time>
</trkpt>
<trkpt lat="45.9031860" lon="10.3670240">
	<ele>1491.60</ele>
	<time>2025-04-29T07:38:02.000Z</time>
</trkpt>
<trkpt lat="45.9031850" lon="10.3670270">
	<ele>1491.80</ele>
	<time>2025-04-29T07:38:03.000Z</time>
</trkpt>
<trkpt lat="45.9031820" lon="10.3670310">
	<ele>1492.00</ele>
	<time>2025-04-29T07:38:04.000Z</time>
</trkpt>
<trkpt lat="45.9031730" lon="10.3670360">
	<ele>1492.20</ele>
	<time>2025-04-29T07:38:05.000Z</time>
</trkpt>
<trkpt lat="45.9031660" lon="10.3670410">
	<ele>1492.60</ele>
	<time>2025-04-29T07:38:06.000Z</time>
</trkpt>
<trkpt lat="45.9031640" lon="10.3670440">
	<ele>1492.80</ele>
	<time>2025-04-29T07:38:07.000Z</time>
</trkpt>
<trkpt lat="45.9031550" lon="10.3670410">
	<ele>1492.80</ele>
	<time>2025-04-29T07:38:08.000Z</time>
</trkpt>
<trkpt lat="45.9031480" lon="10.3670360">
	<ele>1493.00</ele>
	<time>2025-04-29T07:38:09.000Z</time>
</trkpt>
<trkpt lat="45.9031390" lon="10.3670310">
	<ele>1493.20</ele>
	<time>2025-04-29T07:38:10.000Z</time>
</trkpt>
<trkpt lat="45.9031370" lon="10.3670310">
	<ele>1493.20</ele>
	<time>2025-04-29T07:38:11.000Z</time>
</trkpt>
<trkpt lat="45.9031390" lon="10.3670300">
	<ele>1493.40</ele>
	<time>2025-04-29T07:38:12.000Z</time>
</trkpt>
<trkpt lat="45.9031280" lon="10.3670250">
	<ele>1493.60</ele>
	<time>2025-04-29T07:38:13.000Z</time>
</trkpt>
<trkpt lat="45.9031110" lon="10.3670220">
	<ele>1493.60</ele>
	<time>2025-04-29T07:38:14.000Z</time>
</trkpt>
<trkpt lat="45.9030960" lon="10.3670190">
	<ele>1493.80</ele>
	<time>2025-04-29T07:38:15.000Z</time>
</trkpt>
<trkpt lat="45.9030840" lon="10.3670080">
	<ele>1493.80</ele>
	<time>2025-04-29T07:38:16.000Z</time>
</trkpt>
<trkpt lat="45.9030770" lon="10.3669960">
	<ele>1494.00</ele>
	<time>2025-04-29T07:38:17.000Z</time>
</trkpt>
<trkpt lat="45.9030700" lon="10.3669900">
	<ele>1494.20</ele>
	<time>2025-04-29T07:38:18.000Z</time>
</trkpt>
<trkpt lat="45.9030570" lon="10.3669880">
	<ele>1494.40</ele>
	<time>2025-04-29T07:38:19.000Z</time>
</trkpt>
<trkpt lat="45.9030420" lon="10.3669900">
	<ele>1494.60</ele>
	<time>2025-04-29T07:38:20.000Z</time>
</trkpt>
<trkpt lat="45.9030340" lon="10.3669890">
	<ele>1494.80</ele>
	<time>2025-04-29T07:38:21.000Z</time>
</trkpt>
<trkpt lat="45.9030310" lon="10.3669900">
	<ele>1495.00</ele>
	<time>2025-04-29T07:38:22.000Z</time>
</trkpt>
<trkpt lat="45.9030220" lon="10.3669670">
	<ele>1495.40</ele>
	<time>2025-04-29T07:38:23.000Z</time>
</trkpt>
<trkpt lat="45.9030140" lon="10.3669570">
	<ele>1495.60</ele>
	<time>2025-04-29T07:38:24.000Z</time>
</trkpt>
<trkpt lat="45.9030090" lon="10.3669530">
	<ele>1495.80</ele>
	<time>2025-04-29T07:38:25.000Z</time>
</trkpt>
<trkpt lat="45.9030090" lon="10.3669470">
	<ele>1496.00</ele>
	<time>2025-04-29T07:38:26.000Z</time>
</trkpt>
<trkpt lat="45.9030060" lon="10.3669480">
	<ele>1496.20</ele>
	<time>2025-04-29T07:38:27.000Z</time>
</trkpt>
<trkpt lat="45.9030020" lon="10.3669530">
	<ele>1496.40</ele>
	<time>2025-04-29T07:38:28.000Z</time>
</trkpt>
<trkpt lat="45.9030010" lon="10.3669580">
	<ele>1496.40</ele>
	<time>2025-04-29T07:38:29.000Z</time>
</trkpt>
<trkpt lat="45.9030000" lon="10.3669540">
	<ele>1496.60</ele>
	<time>2025-04-29T07:38:30.000Z</time>
</trkpt>
<trkpt lat="45.9030050" lon="10.3669470">
	<ele>1496.60</ele>
	<time>2025-04-29T07:38:31.000Z</time>
</trkpt>
<trkpt lat="45.9030070" lon="10.3669440">
	<ele>1496.80</ele>
	<time>2025-04-29T07:38:32.000Z</time>
</trkpt>
<trkpt lat="45.9030020" lon="10.3669340">
	<ele>1497.20</ele>
	<time>2025-04-29T07:38:33.000Z</time>
</trkpt>
<trkpt lat="45.9030180" lon="10.3669390">
	<ele>1497.40</ele>
	<time>2025-04-29T07:38:34.000Z</time>
</trkpt>
<trkpt lat="45.9030210" lon="10.3669370">
	<ele>1497.80</ele>
	<time>2025-04-29T07:38:35.000Z</time>
</trkpt>
<trkpt lat="45.9030160" lon="10.3669330">
	<ele>1497.80</ele>
	<time>2025-04-29T07:38:36.000Z</time>
</trkpt>
<trkpt lat="45.9030260" lon="10.3669320">
	<ele>1498.00</ele>
	<time>2025-04-29T07:38:37.000Z</time>
</trkpt>
<trkpt lat="45.9030190" lon="10.3669330">
	<ele>1498.00</ele>
	<time>2025-04-29T07:38:38.000Z</time>
</trkpt>
<trkpt lat="45.9030010" lon="10.3669280">
	<ele>1498.20</ele>
	<time>2025-04-29T07:38:39.000Z</time>
</trkpt>
<trkpt lat="45.9029750" lon="10.3669190">
	<ele>1498.40</ele>
	<time>2025-04-29T07:38:40.000Z</time>
</trkpt>
<trkpt lat="45.9029540" lon="10.3669150">
	<ele>1498.60</ele>
	<time>2025-04-29T07:38:41.000Z</time>
</trkpt>
<trkpt lat="45.9029440" lon="10.3669130">
	<ele>1498.60</ele>
	<time>2025-04-29T07:38:42.000Z</time>
</trkpt>
<trkpt lat="45.9029420" lon="10.3669140">
	<ele>1499.00</ele>
	<time>2025-04-29T07:38:43.000Z</time>
</trkpt>
<trkpt lat="45.9029150" lon="10.3669000">
	<ele>1499.20</ele>
	<time>2025-04-29T07:38:44.000Z</time>
</trkpt>
<trkpt lat="45.9029070" lon="10.3668840">
	<ele>1499.40</ele>
	<time>2025-04-29T07:38:45.000Z</time>
</trkpt>
<trkpt lat="45.9029030" lon="10.3668700">
	<ele>1499.60</ele>
	<time>2025-04-29T07:38:46.000Z</time>
</trkpt>
<trkpt lat="45.9028910" lon="10.3668530">
	<ele>1499.80</ele>
	<time>2025-04-29T07:38:47.000Z</time>
</trkpt>
<trkpt lat="45.9028810" lon="10.3668390">
	<ele>1500.00</ele>
	<time>2025-04-29T07:38:48.000Z</time>
</trkpt>
<trkpt lat="45.9028810" lon="10.3668400">
	<ele>1500.20</ele>
	<time>2025-04-29T07:38:49.000Z</time>
</trkpt>
<trkpt lat="45.9028810" lon="10.3668420">
	<ele>1500.20</ele>
	<time>2025-04-29T07:38:50.000Z</time>
</trkpt>
<trkpt lat="45.9028820" lon="10.3668450">
	<ele>1500.40</ele>
	<time>2025-04-29T07:38:51.000Z</time>
</trkpt>
<trkpt lat="45.9028750" lon="10.3668470">
	<ele>1500.60</ele>
	<time>2025-04-29T07:38:52.000Z</time>
</trkpt>
<trkpt lat="45.9028670" lon="10.3668420">
	<ele>1500.60</ele>
	<time>2025-04-29T07:38:53.000Z</time>
</trkpt>
<trkpt lat="45.9028640" lon="10.3668410">
	<ele>1500.80</ele>
	<time>2025-04-29T07:38:54.000Z</time>
</trkpt>
<trkpt lat="45.9028620" lon="10.3668390">
	<ele>1500.80</ele>
	<time>2025-04-29T07:38:55.000Z</time>
</trkpt>
<trkpt lat="45.9028500" lon="10.3668310">
	<ele>1500.80</ele>
	<time>2025-04-29T07:38:56.000Z</time>
</trkpt>
<trkpt lat="45.9028350" lon="10.3668250">
	<ele>1500.80</ele>
	<time>2025-04-29T07:38:57.000Z</time>
</trkpt>
<trkpt lat="45.9028280" lon="10.3668190">
	<ele>1500.80</ele>
	<time>2025-04-29T07:38:58.000Z</time>
</trkpt>
<trkpt lat="45.9028210" lon="10.3668160">
	<ele>1500.80</ele>
	<time>2025-04-29T07:38:59.000Z</time>
</trkpt>
<trkpt lat="45.9028210" lon="10.3668150">
	<ele>1500.80</ele>
	<time>2025-04-29T07:39:00.000Z</time>
</trkpt>
<trkpt lat="45.9028200" lon="10.3668140">
	<ele>1501.00</ele>
	<time>2025-04-29T07:39:01.000Z</time>
</trkpt>
<trkpt lat="45.9028200" lon="10.3668140">
	<ele>1501.00</ele>
	<time>2025-04-29T07:39:02.000Z</time>
</trkpt>
<trkpt lat="45.9028130" lon="10.3668130">
	<ele>1501.20</ele>
	<time>2025-04-29T07:39:03.000Z</time>
</trkpt>
<trkpt lat="45.9028160" lon="10.3668100">
	<ele>1501.20</ele>
	<time>2025-04-29T07:39:04.000Z</time>
</trkpt>
<trkpt lat="45.9028230" lon="10.3668070">
	<ele>1501.20</ele>
	<time>2025-04-29T07:39:05.000Z</time>
</trkpt>
<trkpt lat="45.9028210" lon="10.3668050">
	<ele>1501.20</ele>
	<time>2025-04-29T07:39:06.000Z</time>
</trkpt>
<trkpt lat="45.9028250" lon="10.3668040">
	<ele>1501.20</ele>
	<time>2025-04-29T07:39:07.000Z</time>
</trkpt>
<trkpt lat="45.9028270" lon="10.3668020">
	<ele>1501.00</ele>
	<time>2025-04-29T07:39:08.000Z</time>
</trkpt>
<trkpt lat="45.9028300" lon="10.3668000">
	<ele>1501.00</ele>
	<time>2025-04-29T07:39:09.000Z</time>
</trkpt>
<trkpt lat="45.9028330" lon="10.3667990">
	<ele>1501.00</ele>
	<time>2025-04-29T07:39:10.000Z</time>
</trkpt>
<trkpt lat="45.9028360" lon="10.3667970">
	<ele>1501.00</ele>
	<time>2025-04-29T07:39:11.000Z</time>
</trkpt>
<trkpt lat="45.9028390" lon="10.3667950">
	<ele>1501.00</ele>
	<time>2025-04-29T07:39:12.000Z</time>
</trkpt>
<trkpt lat="45.9028400" lon="10.3667920">
	<ele>1501.00</ele>
	<time>2025-04-29T07:39:13.000Z</time>
</trkpt>
<trkpt lat="45.9028400" lon="10.3667900">
	<ele>1500.80</ele>
	<time>2025-04-29T07:39:14.000Z</time>
</trkpt>
<trkpt lat="45.9028370" lon="10.3667920">
	<ele>1500.80</ele>
	<time>2025-04-29T07:39:15.000Z</time>
</trkpt>
<trkpt lat="45.9028390" lon="10.3667930">
	<ele>1500.80</ele>
	<time>2025-04-29T07:39:16.000Z</time>
</trkpt>
<trkpt lat="45.9028400" lon="10.3667930">
	<ele>1500.80</ele>
	<time>2025-04-29T07:39:17.000Z</time>
</trkpt>
<trkpt lat="45.9028470" lon="10.3667960">
	<ele>1500.80</ele>
	<time>2025-04-29T07:39:18.000Z</time>
</trkpt>
<trkpt lat="45.9028510" lon="10.3667930">
	<ele>1500.80</ele>
	<time>2025-04-29T07:39:19.000Z</time>
</trkpt>
<trkpt lat="45.9028460" lon="10.3667890">
	<ele>1500.80</ele>
	<time>2025-04-29T07:39:20.000Z</time>
</trkpt>
<trkpt lat="45.9028410" lon="10.3667900">
	<ele>1501.00</ele>
	<time>2025-04-29T07:39:21.000Z</time>
</trkpt>
<trkpt lat="45.9028390" lon="10.3667940">
	<ele>1501.00</ele>
	<time>2025-04-29T07:39:22.000Z</time>
</trkpt>
<trkpt lat="45.9028310" lon="10.3668010">
	<ele>1501.20</ele>
	<time>2025-04-29T07:39:23.000Z</time>
</trkpt>
<trkpt lat="45.9028310" lon="10.3667970">
	<ele>1501.20</ele>
	<time>2025-04-29T07:39:24.000Z</time>
</trkpt>
<trkpt lat="45.9028230" lon="10.3668020">
	<ele>1501.20</ele>
	<time>2025-04-29T07:39:25.000Z</time>
</trkpt>
<trkpt lat="45.9028160" lon="10.3668040">
	<ele>1501.40</ele>
	<time>2025-04-29T07:39:26.000Z</time>
</trkpt>
<trkpt lat="45.9028030" lon="10.3668030">
	<ele>1501.40</ele>
	<time>2025-04-29T07:39:27.000Z</time>
</trkpt>
<trkpt lat="45.9027980" lon="10.3668020">
	<ele>1501.80</ele>
	<time>2025-04-29T07:39:28.000Z</time>
</trkpt>
<trkpt lat="45.9027940" lon="10.3668010">
	<ele>1502.00</ele>
	<time>2025-04-29T07:39:29.000Z</time>
</trkpt>
<trkpt lat="45.9027900" lon="10.3667990">
	<ele>1502.20</ele>
	<time>2025-04-29T07:39:30.000Z</time>
</trkpt>
<trkpt lat="45.9027910" lon="10.3667990">
	<ele>1502.20</ele>
	<time>2025-04-29T07:39:31.000Z</time>
</trkpt>
<trkpt lat="45.9027920" lon="10.3667950">
	<ele>1502.20</ele>
	<time>2025-04-29T07:39:32.000Z</time>
</trkpt>
<trkpt lat="45.9027750" lon="10.3667800">
	<ele>1502.60</ele>
	<time>2025-04-29T07:39:33.000Z</time>
</trkpt>
<trkpt lat="45.9027660" lon="10.3667690">
	<ele>1502.80</ele>
	<time>2025-04-29T07:39:34.000Z</time>
</trkpt>
<trkpt lat="45.9027590" lon="10.3667540">
	<ele>1503.00</ele>
	<time>2025-04-29T07:39:35.000Z</time>
</trkpt>
<trkpt lat="45.9027500" lon="10.3667390">
	<ele>1503.20</ele>
	<time>2025-04-29T07:39:36.000Z</time>
</trkpt>
<trkpt lat="45.9027390" lon="10.3667260">
	<ele>1503.40</ele>
	<time>2025-04-29T07:39:37.000Z</time>
</trkpt>
<trkpt lat="45.9027310" lon="10.3667200">
	<ele>1503.40</ele>
	<time>2025-04-29T07:39:38.000Z</time>
</trkpt>
<trkpt lat="45.9027220" lon="10.3667170">
	<ele>1503.80</ele>
	<time>2025-04-29T07:39:39.000Z</time>
</trkpt>
<trkpt lat="45.9027100" lon="10.3667100">
	<ele>1504.00</ele>
	<time>2025-04-29T07:39:40.000Z</time>
</trkpt>
<trkpt lat="45.9027060" lon="10.3667100">
	<ele>1504.00</ele>
	<time>2025-04-29T07:39:41.000Z</time>
</trkpt>
<trkpt lat="45.9026970" lon="10.3667160">
	<ele>1504.20</ele>
	<time>2025-04-29T07:39:42.000Z</time>
</trkpt>
<trkpt lat="45.9026880" lon="10.3667230">
	<ele>1504.20</ele>
	<time>2025-04-29T07:39:43.000Z</time>
</trkpt>
<trkpt lat="45.9026900" lon="10.3667320">
	<ele>1504.40</ele>
	<time>2025-04-29T07:39:44.000Z</time>
</trkpt>
<trkpt lat="45.9026810" lon="10.3667260">
	<ele>1504.80</ele>
	<time>2025-04-29T07:39:45.000Z</time>
</trkpt>
<trkpt lat="45.9026650" lon="10.3667180">
	<ele>1505.00</ele>
	<time>2025-04-29T07:39:46.000Z</time>
</trkpt>
<trkpt lat="45.9026640" lon="10.3667210">
	<ele>1505.40</ele>
	<time>2025-04-29T07:39:47.000Z</time>
</trkpt>
<trkpt lat="45.9026580" lon="10.3667230">
	<ele>1505.60</ele>
	<time>2025-04-29T07:39:48.000Z</time>
</trkpt>
<trkpt lat="45.9026610" lon="10.3667210">
	<ele>1506.00</ele>
	<time>2025-04-29T07:39:49.000Z</time>
</trkpt>
<trkpt lat="45.9026620" lon="10.3667200">
	<ele>1506.20</ele>
	<time>2025-04-29T07:39:50.000Z</time>
</trkpt>
<trkpt lat="45.9026610" lon="10.3667200">
	<ele>1506.40</ele>
	<time>2025-04-29T07:39:51.000Z</time>
</trkpt>
<trkpt lat="45.9026680" lon="10.3667220">
	<ele>1506.60</ele>
	<time>2025-04-29T07:39:52.000Z</time>
</trkpt>
<trkpt lat="45.9026700" lon="10.3667210">
	<ele>1506.60</ele>
	<time>2025-04-29T07:39:53.000Z</time>
</trkpt>
<trkpt lat="45.9026650" lon="10.3667130">
	<ele>1507.00</ele>
	<time>2025-04-29T07:39:54.000Z</time>
</trkpt>
<trkpt lat="45.9026440" lon="10.3667040">
	<ele>1507.00</ele>
	<time>2025-04-29T07:39:55.000Z</time>
</trkpt>
<trkpt lat="45.9026270" lon="10.3666970">
	<ele>1507.20</ele>
	<time>2025-04-29T07:39:56.000Z</time>
</trkpt>
<trkpt lat="45.9026150" lon="10.3666930">
	<ele>1507.40</ele>
	<time>2025-04-29T07:39:57.000Z</time>
</trkpt>
<trkpt lat="45.9026030" lon="10.3666920">
	<ele>1507.40</ele>
	<time>2025-04-29T07:39:58.000Z</time>
</trkpt>
<trkpt lat="45.9025950" lon="10.3666860">
	<ele>1507.80</ele>
	<time>2025-04-29T07:39:59.000Z</time>
</trkpt>
<trkpt lat="45.9025850" lon="10.3666800">
	<ele>1508.00</ele>
	<time>2025-04-29T07:40:00.000Z</time>
</trkpt>
<trkpt lat="45.9025790" lon="10.3666690">
	<ele>1508.00</ele>
	<time>2025-04-29T07:40:01.000Z</time>
</trkpt>
<trkpt lat="45.9025670" lon="10.3666580">
	<ele>1508.00</ele>
	<time>2025-04-29T07:40:02.000Z</time>
</trkpt>
<trkpt lat="45.9025590" lon="10.3666440">
	<ele>1508.20</ele>
	<time>2025-04-29T07:40:03.000Z</time>
</trkpt>
<trkpt lat="45.9025620" lon="10.3666360">
	<ele>1508.20</ele>
	<time>2025-04-29T07:40:04.000Z</time>
</trkpt>
<trkpt lat="45.9025620" lon="10.3666280">
	<ele>1508.40</ele>
	<time>2025-04-29T07:40:05.000Z</time>
</trkpt>
<trkpt lat="45.9025550" lon="10.3666170">
	<ele>1508.60</ele>
	<time>2025-04-29T07:40:06.000Z</time>
</trkpt>
<trkpt lat="45.9025580" lon="10.3666120">
	<ele>1508.80</ele>
	<time>2025-04-29T07:40:07.000Z</time>
</trkpt>
<trkpt lat="45.9025650" lon="10.3666070">
	<ele>1509.00</ele>
	<time>2025-04-29T07:40:08.000Z</time>
</trkpt>
<trkpt lat="45.9025730" lon="10.3666010">
	<ele>1509.00</ele>
	<time>2025-04-29T07:40:09.000Z</time>
</trkpt>
<trkpt lat="45.9025800" lon="10.3665950">
	<ele>1509.20</ele>
	<time>2025-04-29T07:40:10.000Z</time>
</trkpt>
<trkpt lat="45.9025830" lon="10.3665900">
	<ele>1509.20</ele>
	<time>2025-04-29T07:40:11.000Z</time>
</trkpt>
<trkpt lat="45.9025900" lon="10.3665840">
	<ele>1509.40</ele>
	<time>2025-04-29T07:40:12.000Z</time>
</trkpt>
<trkpt lat="45.9025950" lon="10.3665790">
	<ele>1509.40</ele>
	<time>2025-04-29T07:40:13.000Z</time>
</trkpt>
<trkpt lat="45.9026020" lon="10.3665710">
	<ele>1509.60</ele>
	<time>2025-04-29T07:40:14.000Z</time>
</trkpt>
<trkpt lat="45.9026040" lon="10.3665620">
	<ele>1509.60</ele>
	<time>2025-04-29T07:40:15.000Z</time>
</trkpt>
<trkpt lat="45.9026160" lon="10.3665630">
	<ele>1509.80</ele>
	<time>2025-04-29T07:40:16.000Z</time>
</trkpt>
<trkpt lat="45.9026180" lon="10.3665580">
	<ele>1509.80</ele>
	<time>2025-04-29T07:40:17.000Z</time>
</trkpt>
<trkpt lat="45.9026220" lon="10.3665450">
	<ele>1509.80</ele>
	<time>2025-04-29T07:40:18.000Z</time>
</trkpt>
<trkpt lat="45.9026220" lon="10.3665410">
	<ele>1509.80</ele>
	<time>2025-04-29T07:40:19.000Z</time>
</trkpt>
<trkpt lat="45.9026240" lon="10.3665360">
	<ele>1510.00</ele>
	<time>2025-04-29T07:40:20.000Z</time>
</trkpt>
<trkpt lat="45.9026160" lon="10.3665320">
	<ele>1510.20</ele>
	<time>2025-04-29T07:40:21.000Z</time>
</trkpt>
<trkpt lat="45.9026130" lon="10.3665340">
	<ele>1510.20</ele>
	<time>2025-04-29T07:40:22.000Z</time>
</trkpt>
<trkpt lat="45.9026050" lon="10.3665210">
	<ele>1510.20</ele>
	<time>2025-04-29T07:40:23.000Z</time>
</trkpt>
<trkpt lat="45.9025980" lon="10.3665050">
	<ele>1510.40</ele>
	<time>2025-04-29T07:40:24.000Z</time>
</trkpt>
<trkpt lat="45.9025880" lon="10.3664910">
	<ele>1510.40</ele>
	<time>2025-04-29T07:40:25.000Z</time>
</trkpt>
<trkpt lat="45.9025880" lon="10.3664910">
	<ele>1510.40</ele>
	<time>2025-04-29T07:40:26.000Z</time>
</trkpt>
<trkpt lat="45.9025870" lon="10.3664900">
	<ele>1510.60</ele>
	<time>2025-04-29T07:40:27.000Z</time>
</trkpt>
<trkpt lat="45.9025870" lon="10.3664900">
	<ele>1510.60</ele>
	<time>2025-04-29T07:40:28.000Z</time>
</trkpt>
<trkpt lat="45.9025860" lon="10.3664870">
	<ele>1511.00</ele>
	<time>2025-04-29T07:40:29.000Z</time>
</trkpt>
<trkpt lat="45.9025790" lon="10.3664760">
	<ele>1511.00</ele>
	<time>2025-04-29T07:40:30.000Z</time>
</trkpt>
<trkpt lat="45.9025780" lon="10.3664660">
	<ele>1511.20</ele>
	<time>2025-04-29T07:40:31.000Z</time>
</trkpt>
<trkpt lat="45.9025780" lon="10.3664630">
	<ele>1511.40</ele>
	<time>2025-04-29T07:40:32.000Z</time>
</trkpt>
<trkpt lat="45.9025650" lon="10.3664400">
	<ele>1511.40</ele>
	<time>2025-04-29T07:40:33.000Z</time>
</trkpt>
<trkpt lat="45.9025620" lon="10.3664340">
	<ele>1511.40</ele>
	<time>2025-04-29T07:40:34.000Z</time>
</trkpt>
<trkpt lat="45.9025600" lon="10.3664230">
	<ele>1511.60</ele>
	<time>2025-04-29T07:40:35.000Z</time>
</trkpt>
<trkpt lat="45.9025550" lon="10.3664100">
	<ele>1511.60</ele>
	<time>2025-04-29T07:40:36.000Z</time>
</trkpt>
<trkpt lat="45.9025510" lon="10.3663970">
	<ele>1511.60</ele>
	<time>2025-04-29T07:40:37.000Z</time>
</trkpt>
<trkpt lat="45.9025550" lon="10.3663830">
	<ele>1511.60</ele>
	<time>2025-04-29T07:40:38.000Z</time>
</trkpt>
<trkpt lat="45.9025520" lon="10.3663690">
	<ele>1511.60</ele>
	<time>2025-04-29T07:40:39.000Z</time>
</trkpt>
<trkpt lat="45.9025480" lon="10.3663500">
	<ele>1511.60</ele>
	<time>2025-04-29T07:40:40.000Z</time>
</trkpt>
<trkpt lat="45.9025330" lon="10.3663270">
	<ele>1511.40</ele>
	<time>2025-04-29T07:40:41.000Z</time>
</trkpt>
<trkpt lat="45.9025210" lon="10.3663120">
	<ele>1511.40</ele>
	<time>2025-04-29T07:40:42.000Z</time>
</trkpt>
<trkpt lat="45.9025120" lon="10.3663000">
	<ele>1511.40</ele>
	<time>2025-04-29T07:40:43.000Z</time>
</trkpt>
<trkpt lat="45.9025000" lon="10.3662870">
	<ele>1511.60</ele>
	<time>2025-04-29T07:40:44.000Z</time>
</trkpt>
<trkpt lat="45.9024870" lon="10.3662780">
	<ele>1511.60</ele>
	<time>2025-04-29T07:40:45.000Z</time>
</trkpt>
<trkpt lat="45.9024780" lon="10.3662660">
	<ele>1511.60</ele>
	<time>2025-04-29T07:40:46.000Z</time>
</trkpt>
<trkpt lat="45.9024760" lon="10.3662650">
	<ele>1511.60</ele>
	<time>2025-04-29T07:40:47.000Z</time>
</trkpt>
<trkpt lat="45.9024800" lon="10.3662670">
	<ele>1512.00</ele>
	<time>2025-04-29T07:40:48.000Z</time>
</trkpt>
<trkpt lat="45.9024740" lon="10.3662690">
	<ele>1512.20</ele>
	<time>2025-04-29T07:40:49.000Z</time>
</trkpt>
<trkpt lat="45.9024610" lon="10.3662590">
	<ele>1512.20</ele>
	<time>2025-04-29T07:40:50.000Z</time>
</trkpt>
<trkpt lat="45.9024540" lon="10.3662610">
	<ele>1512.40</ele>
	<time>2025-04-29T07:40:51.000Z</time>
</trkpt>
<trkpt lat="45.9024530" lon="10.3662650">
	<ele>1512.40</ele>
	<time>2025-04-29T07:40:52.000Z</time>
</trkpt>
<trkpt lat="45.9024510" lon="10.3662670">
	<ele>1512.60</ele>
	<time>2025-04-29T07:40:53.000Z</time>
</trkpt>
<trkpt lat="45.9024420" lon="10.3662620">
	<ele>1512.60</ele>
	<time>2025-04-29T07:40:54.000Z</time>
</trkpt>
<trkpt lat="45.9024320" lon="10.3662580">
	<ele>1512.60</ele>
	<time>2025-04-29T07:40:55.000Z</time>
</trkpt>
<trkpt lat="45.9024230" lon="10.3662490">
	<ele>1512.60</ele>
	<time>2025-04-29T07:40:56.000Z</time>
</trkpt>
<trkpt lat="45.9024110" lon="10.3662330">
	<ele>1512.60</ele>
	<time>2025-04-29T07:40:57.000Z</time>
</trkpt>
<trkpt lat="45.9023990" lon="10.3662170">
	<ele>1512.60</ele>
	<time>2025-04-29T07:40:58.000Z</time>
</trkpt>
<trkpt lat="45.9023960" lon="10.3662120">
	<ele>1512.60</ele>
	<time>2025-04-29T07:40:59.000Z</time>
</trkpt>
<trkpt lat="45.9023940" lon="10.3662030">
	<ele>1512.60</ele>
	<time>2025-04-29T07:41:00.000Z</time>
</trkpt>
<trkpt lat="45.9023960" lon="10.3661950">
	<ele>1512.60</ele>
	<time>2025-04-29T07:41:01.000Z</time>
</trkpt>
<trkpt lat="45.9023970" lon="10.3661830">
	<ele>1512.60</ele>
	<time>2025-04-29T07:41:02.000Z</time>
</trkpt>
<trkpt lat="45.9024000" lon="10.3661770">
	<ele>1512.60</ele>
	<time>2025-04-29T07:41:03.000Z</time>
</trkpt>
<trkpt lat="45.9024100" lon="10.3661700">
	<ele>1512.60</ele>
	<time>2025-04-29T07:41:04.000Z</time>
</trkpt>
<trkpt lat="45.9024280" lon="10.3661620">
	<ele>1512.60</ele>
	<time>2025-04-29T07:41:05.000Z</time>
</trkpt>
<trkpt lat="45.9024420" lon="10.3661520">
	<ele>1512.60</ele>
	<time>2025-04-29T07:41:06.000Z</time>
</trkpt>
<trkpt lat="45.9024440" lon="10.3661460">
	<ele>1512.60</ele>
	<time>2025-04-29T07:41:07.000Z</time>
</trkpt>
<trkpt lat="45.9024420" lon="10.3661420">
	<ele>1512.60</ele>
	<time>2025-04-29T07:41:08.000Z</time>
</trkpt>
<trkpt lat="45.9024300" lon="10.3661300">
	<ele>1512.60</ele>
	<time>2025-04-29T07:41:09.000Z</time>
</trkpt>
<trkpt lat="45.9024180" lon="10.3661140">
	<ele>1512.40</ele>
	<time>2025-04-29T07:41:10.000Z</time>
</trkpt>
<trkpt lat="45.9024050" lon="10.3660980">
	<ele>1512.20</ele>
	<time>2025-04-29T07:41:11.000Z</time>
</trkpt>
<trkpt lat="45.9023980" lon="10.3660790">
	<ele>1512.20</ele>
	<time>2025-04-29T07:41:12.000Z</time>
</trkpt>
<trkpt lat="45.9023890" lon="10.3660550">
	<ele>1512.20</ele>
	<time>2025-04-29T07:41:13.000Z</time>
</trkpt>
<trkpt lat="45.9023770" lon="10.3660480">
	<ele>1512.40</ele>
	<time>2025-04-29T07:41:14.000Z</time>
</trkpt>
<trkpt lat="45.9023730" lon="10.3660370">
	<ele>1512.40</ele>
	<time>2025-04-29T07:41:15.000Z</time>
</trkpt>
<trkpt lat="45.9023790" lon="10.3660180">
	<ele>1512.40</ele>
	<time>2025-04-29T07:41:16.000Z</time>
</trkpt>
<trkpt lat="45.9023730" lon="10.3659970">
	<ele>1512.80</ele>
	<time>2025-04-29T07:41:17.000Z</time>
</trkpt>
<trkpt lat="45.9023680" lon="10.3659820">
	<ele>1513.00</ele>
	<time>2025-04-29T07:41:18.000Z</time>
</trkpt>
<trkpt lat="45.9023630" lon="10.3659630">
	<ele>1513.20</ele>
	<time>2025-04-29T07:41:19.000Z</time>
</trkpt>
<trkpt lat="45.9023640" lon="10.3659430">
	<ele>1513.40</ele>
	<time>2025-04-29T07:41:20.000Z</time>
</trkpt>
<trkpt lat="45.9023570" lon="10.3659210">
	<ele>1513.60</ele>
	<time>2025-04-29T07:41:21.000Z</time>
</trkpt>
<trkpt lat="45.9023500" lon="10.3658960">
	<ele>1513.60</ele>
	<time>2025-04-29T07:41:22.000Z</time>
</trkpt>
<trkpt lat="45.9023460" lon="10.3658710">
	<ele>1513.80</ele>
	<time>2025-04-29T07:41:23.000Z</time>
</trkpt>
<trkpt lat="45.9023520" lon="10.3658480">
	<ele>1513.80</ele>
	<time>2025-04-29T07:41:24.000Z</time>
</trkpt>
<trkpt lat="45.9023570" lon="10.3658330">
	<ele>1513.80</ele>
	<time>2025-04-29T07:41:25.000Z</time>
</trkpt>
<trkpt lat="45.9023580" lon="10.3658180">
	<ele>1513.80</ele>
	<time>2025-04-29T07:41:26.000Z</time>
</trkpt>
<trkpt lat="45.9023580" lon="10.3658100">
	<ele>1513.80</ele>
	<time>2025-04-29T07:41:27.000Z</time>
</trkpt>
<trkpt lat="45.9023600" lon="10.3658030">
	<ele>1513.80</ele>
	<time>2025-04-29T07:41:28.000Z</time>
</trkpt>
<trkpt lat="45.9023390" lon="10.3657930">
	<ele>1514.00</ele>
	<time>2025-04-29T07:41:29.000Z</time>
</trkpt>
<trkpt lat="45.9023210" lon="10.3657910">
	<ele>1514.20</ele>
	<time>2025-04-29T07:41:30.000Z</time>
</trkpt>
<trkpt lat="45.9023080" lon="10.3657960">
	<ele>1514.40</ele>
	<time>2025-04-29T07:41:31.000Z</time>
</trkpt>
<trkpt lat="45.9023020" lon="10.3658050">
	<ele>1514.60</ele>
	<time>2025-04-29T07:41:32.000Z</time>
</trkpt>
<trkpt lat="45.9022960" lon="10.3658060">
	<ele>1514.80</ele>
	<time>2025-04-29T07:41:33.000Z</time>
</trkpt>
<trkpt lat="45.9022910" lon="10.3658050">
	<ele>1515.00</ele>
	<time>2025-04-29T07:41:34.000Z</time>
</trkpt>
<trkpt lat="45.9023020" lon="10.3657870">
	<ele>1515.20</ele>
	<time>2025-04-29T07:41:35.000Z</time>
</trkpt>
<trkpt lat="45.9023060" lon="10.3657670">
	<ele>1515.40</ele>
	<time>2025-04-29T07:41:36.000Z</time>
</trkpt>
<trkpt lat="45.9022970" lon="10.3657540">
	<ele>1515.60</ele>
	<time>2025-04-29T07:41:37.000Z</time>
</trkpt>
<trkpt lat="45.9022990" lon="10.3657460">
	<ele>1515.80</ele>
	<time>2025-04-29T07:41:38.000Z</time>
</trkpt>
<trkpt lat="45.9022860" lon="10.3657460">
	<ele>1515.80</ele>
	<time>2025-04-29T07:41:39.000Z</time>
</trkpt>
<trkpt lat="45.9022740" lon="10.3657440">
	<ele>1516.00</ele>
	<time>2025-04-29T07:41:40.000Z</time>
</trkpt>
<trkpt lat="45.9022620" lon="10.3657450">
	<ele>1516.20</ele>
	<time>2025-04-29T07:41:41.000Z</time>
</trkpt>
<trkpt lat="45.9022490" lon="10.3657450">
	<ele>1516.40</ele>
	<time>2025-04-29T07:41:42.000Z</time>
</trkpt>
<trkpt lat="45.9022460" lon="10.3657460">
	<ele>1517.00</ele>
	<time>2025-04-29T07:41:43.000Z</time>
</trkpt>
<trkpt lat="45.9022350" lon="10.3657380">
	<ele>1517.20</ele>
	<time>2025-04-29T07:41:44.000Z</time>
</trkpt>
<trkpt lat="45.9022250" lon="10.3657280">
	<ele>1517.40</ele>
	<time>2025-04-29T07:41:45.000Z</time>
</trkpt>
<trkpt lat="45.9022220" lon="10.3657270">
	<ele>1517.60</ele>
	<time>2025-04-29T07:41:46.000Z</time>
</trkpt>
<trkpt lat="45.9022190" lon="10.3657280">
	<ele>1517.60</ele>
	<time>2025-04-29T07:41:47.000Z</time>
</trkpt>
<trkpt lat="45.9022180" lon="10.3657270">
	<ele>1517.60</ele>
	<time>2025-04-29T07:41:48.000Z</time>
</trkpt>
<trkpt lat="45.9022210" lon="10.3657180">
	<ele>1517.60</ele>
	<time>2025-04-29T07:41:49.000Z</time>
</trkpt>
<trkpt lat="45.9022220" lon="10.3657100">
	<ele>1517.80</ele>
	<time>2025-04-29T07:41:50.000Z</time>
</trkpt>
<trkpt lat="45.9022220" lon="10.3657020">
	<ele>1518.00</ele>
	<time>2025-04-29T07:41:51.000Z</time>
</trkpt>
<trkpt lat="45.9022190" lon="10.3656990">
	<ele>1518.20</ele>
	<time>2025-04-29T07:41:52.000Z</time>
</trkpt>
<trkpt lat="45.9022170" lon="10.3656990">
	<ele>1518.40</ele>
	<time>2025-04-29T07:41:53.000Z</time>
</trkpt>
<trkpt lat="45.9022090" lon="10.3656920">
	<ele>1518.60</ele>
	<time>2025-04-29T07:41:54.000Z</time>
</trkpt>
<trkpt lat="45.9021990" lon="10.3656880">
	<ele>1518.80</ele>
	<time>2025-04-29T07:41:55.000Z</time>
</trkpt>
<trkpt lat="45.9021900" lon="10.3656850">
	<ele>1518.80</ele>
	<time>2025-04-29T07:41:56.000Z</time>
</trkpt>
<trkpt lat="45.9021790" lon="10.3656820">
	<ele>1519.60</ele>
	<time>2025-04-29T07:41:57.000Z</time>
</trkpt>
<trkpt lat="45.9021510" lon="10.3656680">
	<ele>1520.00</ele>
	<time>2025-04-29T07:41:58.000Z</time>
</trkpt>
<trkpt lat="45.9021230" lon="10.3656540">
	<ele>1520.20</ele>
	<time>2025-04-29T07:41:59.000Z</time>
</trkpt>
<trkpt lat="45.9021140" lon="10.3656460">
	<ele>1520.20</ele>
	<time>2025-04-29T07:42:00.000Z</time>
</trkpt>
<trkpt lat="45.9021090" lon="10.3656420">
	<ele>1520.40</ele>
	<time>2025-04-29T07:42:01.000Z</time>
</trkpt>
<trkpt lat="45.9021000" lon="10.3656350">
	<ele>1520.60</ele>
	<time>2025-04-29T07:42:02.000Z</time>
</trkpt>
<trkpt lat="45.9020930" lon="10.3656290">
	<ele>1520.60</ele>
	<time>2025-04-29T07:42:03.000Z</time>
</trkpt>
<trkpt lat="45.9020870" lon="10.3656230">
	<ele>1520.80</ele>
	<time>2025-04-29T07:42:04.000Z</time>
</trkpt>
<trkpt lat="45.9020810" lon="10.3656240">
	<ele>1521.00</ele>
	<time>2025-04-29T07:42:05.000Z</time>
</trkpt>
<trkpt lat="45.9020820" lon="10.3656230">
	<ele>1521.20</ele>
	<time>2025-04-29T07:42:06.000Z</time>
</trkpt>
<trkpt lat="45.9020820" lon="10.3656170">
	<ele>1521.40</ele>
	<time>2025-04-29T07:42:07.000Z</time>
</trkpt>
<trkpt lat="45.9020780" lon="10.3656040">
	<ele>1521.60</ele>
	<time>2025-04-29T07:42:08.000Z</time>
</trkpt>
<trkpt lat="45.9020710" lon="10.3655870">
	<ele>1521.60</ele>
	<time>2025-04-29T07:42:09.000Z</time>
</trkpt>
<trkpt lat="45.9020720" lon="10.3655740">
	<ele>1522.00</ele>
	<time>2025-04-29T07:42:10.000Z</time>
</trkpt>
<trkpt lat="45.9020700" lon="10.3655690">
	<ele>1522.00</ele>
	<time>2025-04-29T07:42:11.000Z</time>
</trkpt>
<trkpt lat="45.9020680" lon="10.3655660">
	<ele>1522.20</ele>
	<time>2025-04-29T07:42:12.000Z</time>
</trkpt>
<trkpt lat="45.9020650" lon="10.3655590">
	<ele>1522.40</ele>
	<time>2025-04-29T07:42:13.000Z</time>
</trkpt>
<trkpt lat="45.9020650" lon="10.3655520">
	<ele>1522.40</ele>
	<time>2025-04-29T07:42:14.000Z</time>
</trkpt>
<trkpt lat="45.9020660" lon="10.3655450">
	<ele>1522.40</ele>
	<time>2025-04-29T07:42:15.000Z</time>
</trkpt>
<trkpt lat="45.9020630" lon="10.3655380">
	<ele>1522.60</ele>
	<time>2025-04-29T07:42:16.000Z</time>
</trkpt>
<trkpt lat="45.9020590" lon="10.3655350">
	<ele>1522.80</ele>
	<time>2025-04-29T07:42:17.000Z</time>
</trkpt>
<trkpt lat="45.9020570" lon="10.3655350">
	<ele>1523.20</ele>
	<time>2025-04-29T07:42:18.000Z</time>
</trkpt>
<trkpt lat="45.9020560" lon="10.3655350">
	<ele>1523.40</ele>
	<time>2025-04-29T07:42:19.000Z</time>
</trkpt>
<trkpt lat="45.9020580" lon="10.3655290">
	<ele>1523.60</ele>
	<time>2025-04-29T07:42:20.000Z</time>
</trkpt>
<trkpt lat="45.9020580" lon="10.3655300">
	<ele>1523.80</ele>
	<time>2025-04-29T07:42:21.000Z</time>
</trkpt>
<trkpt lat="45.9020610" lon="10.3655330">
	<ele>1523.80</ele>
	<time>2025-04-29T07:42:22.000Z</time>
</trkpt>
<trkpt lat="45.9020640" lon="10.3655370">
	<ele>1523.80</ele>
	<time>2025-04-29T07:42:23.000Z</time>
</trkpt>
<trkpt lat="45.9020620" lon="10.3655320">
	<ele>1524.00</ele>
	<time>2025-04-29T07:42:24.000Z</time>
</trkpt>
<trkpt lat="45.9020500" lon="10.3655240">
	<ele>1524.00</ele>
	<time>2025-04-29T07:42:25.000Z</time>
</trkpt>
<trkpt lat="45.9020500" lon="10.3655130">
	<ele>1524.00</ele>
	<time>2025-04-29T07:42:26.000Z</time>
</trkpt>
<trkpt lat="45.9020540" lon="10.3655030">
	<ele>1524.00</ele>
	<time>2025-04-29T07:42:27.000Z</time>
</trkpt>
<trkpt lat="45.9020520" lon="10.3654940">
	<ele>1524.00</ele>
	<time>2025-04-29T07:42:28.000Z</time>
</trkpt>
<trkpt lat="45.9020470" lon="10.3654840">
	<ele>1524.20</ele>
	<time>2025-04-29T07:42:29.000Z</time>
</trkpt>
<trkpt lat="45.9020480" lon="10.3654830">
	<ele>1524.20</ele>
	<time>2025-04-29T07:42:30.000Z</time>
</trkpt>
<trkpt lat="45.9020490" lon="10.3654850">
	<ele>1524.40</ele>
	<time>2025-04-29T07:42:31.000Z</time>
</trkpt>
<trkpt lat="45.9020500" lon="10.3654850">
	<ele>1524.40</ele>
	<time>2025-04-29T07:42:32.000Z</time>
</trkpt>
<trkpt lat="45.9020470" lon="10.3654850">
	<ele>1524.60</ele>
	<time>2025-04-29T07:42:33.000Z</time>
</trkpt>
<trkpt lat="45.9020410" lon="10.3654750">
	<ele>1524.80</ele>
	<time>2025-04-29T07:42:34.000Z</time>
</trkpt>
<trkpt lat="45.9020410" lon="10.3654650">
	<ele>1524.80</ele>
	<time>2025-04-29T07:42:35.000Z</time>
</trkpt>
<trkpt lat="45.9020400" lon="10.3654610">
	<ele>1524.80</ele>
	<time>2025-04-29T07:42:36.000Z</time>
</trkpt>
<trkpt lat="45.9020400" lon="10.3654580">
	<ele>1525.00</ele>
	<time>2025-04-29T07:42:37.000Z</time>
</trkpt>
<trkpt lat="45.9020390" lon="10.3654410">
	<ele>1525.40</ele>
	<time>2025-04-29T07:42:38.000Z</time>
</trkpt>
<trkpt lat="45.9020410" lon="10.3654250">
	<ele>1525.60</ele>
	<time>2025-04-29T07:42:39.000Z</time>
</trkpt>
<trkpt lat="45.9020370" lon="10.3654110">
	<ele>1525.60</ele>
	<time>2025-04-29T07:42:40.000Z</time>
</trkpt>
<trkpt lat="45.9020400" lon="10.3653990">
	<ele>1525.80</ele>
	<time>2025-04-29T07:42:41.000Z</time>
</trkpt>
<trkpt lat="45.9020390" lon="10.3653860">
	<ele>1525.80</ele>
	<time>2025-04-29T07:42:42.000Z</time>
</trkpt>
<trkpt lat="45.9020390" lon="10.3653780">
	<ele>1525.80</ele>
	<time>2025-04-29T07:42:43.000Z</time>
</trkpt>
<trkpt lat="45.9020390" lon="10.3653720">
	<ele>1525.80</ele>
	<time>2025-04-29T07:42:44.000Z</time>
</trkpt>
<trkpt lat="45.9020390" lon="10.3653610">
	<ele>1525.80</ele>
	<time>2025-04-29T07:42:45.000Z</time>
</trkpt>
<trkpt lat="45.9020400" lon="10.3653470">
	<ele>1525.80</ele>
	<time>2025-04-29T07:42:46.000Z</time>
</trkpt>
<trkpt lat="45.9020490" lon="10.3653240">
	<ele>1525.80</ele>
	<time>2025-04-29T07:42:47.000Z</time>
</trkpt>
<trkpt lat="45.9020570" lon="10.3653090">
	<ele>1525.80</ele>
	<time>2025-04-29T07:42:48.000Z</time>
</trkpt>
<trkpt lat="45.9020590" lon="10.3652960">
	<ele>1525.80</ele>
	<time>2025-04-29T07:42:49.000Z</time>
</trkpt>
<trkpt lat="45.9020500" lon="10.3652850">
	<ele>1525.80</ele>
	<time>2025-04-29T07:42:50.000Z</time>
</trkpt>
<trkpt lat="45.9020360" lon="10.3652740">
	<ele>1525.80</ele>
	<time>2025-04-29T07:42:51.000Z</time>
</trkpt>
<trkpt lat="45.9020270" lon="10.3652700">
	<ele>1525.60</ele>
	<time>2025-04-29T07:42:52.000Z</time>
</trkpt>
<trkpt lat="45.9020150" lon="10.3652570">
	<ele>1525.80</ele>
	<time>2025-04-29T07:42:53.000Z</time>
</trkpt>
<trkpt lat="45.9020100" lon="10.3652480">
	<ele>1525.80</ele>
	<time>2025-04-29T07:42:54.000Z</time>
</trkpt>
<trkpt lat="45.9020050" lon="10.3652360">
	<ele>1526.00</ele>
	<time>2025-04-29T07:42:55.000Z</time>
</trkpt>
<trkpt lat="45.9020040" lon="10.3652210">
	<ele>1526.00</ele>
	<time>2025-04-29T07:42:56.000Z</time>
</trkpt>
<trkpt lat="45.9020030" lon="10.3652010">
	<ele>1526.20</ele>
	<time>2025-04-29T07:42:57.000Z</time>
</trkpt>
<trkpt lat="45.9020100" lon="10.3651870">
	<ele>1526.20</ele>
	<time>2025-04-29T07:42:58.000Z</time>
</trkpt>
<trkpt lat="45.9020200" lon="10.3651770">
	<ele>1526.20</ele>
	<time>2025-04-29T07:42:59.000Z</time>
</trkpt>
<trkpt lat="45.9020340" lon="10.3651660">
	<ele>1526.20</ele>
	<time>2025-04-29T07:43:00.000Z</time>
</trkpt>
<trkpt lat="45.9020480" lon="10.3651550">
	<ele>1526.20</ele>
	<time>2025-04-29T07:43:01.000Z</time>
</trkpt>
<trkpt lat="45.9020670" lon="10.3651330">
	<ele>1526.20</ele>
	<time>2025-04-29T07:43:02.000Z</time>
</trkpt>
<trkpt lat="45.9020790" lon="10.3651170">
	<ele>1526.20</ele>
	<time>2025-04-29T07:43:03.000Z</time>
</trkpt>
<trkpt lat="45.9020900" lon="10.3651030">
	<ele>1526.00</ele>
	<time>2025-04-29T07:43:04.000Z</time>
</trkpt>
<trkpt lat="45.9020950" lon="10.3650860">
	<ele>1525.80</ele>
	<time>2025-04-29T07:43:05.000Z</time>
</trkpt>
<trkpt lat="45.9021000" lon="10.3650660">
	<ele>1525.80</ele>
	<time>2025-04-29T07:43:06.000Z</time>
</trkpt>
<trkpt lat="45.9020960" lon="10.3650550">
	<ele>1525.80</ele>
	<time>2025-04-29T07:43:07.000Z</time>
</trkpt>
<trkpt lat="45.9020920" lon="10.3650500">
	<ele>1525.80</ele>
	<time>2025-04-29T07:43:08.000Z</time>
</trkpt>
<trkpt lat="45.9020910" lon="10.3650470">
	<ele>1526.00</ele>
	<time>2025-04-29T07:43:09.000Z</time>
</trkpt>
<trkpt lat="45.9020860" lon="10.3650410">
	<ele>1526.00</ele>
	<time>2025-04-29T07:43:10.000Z</time>
</trkpt>
<trkpt lat="45.9020830" lon="10.3650370">
	<ele>1526.00</ele>
	<time>2025-04-29T07:43:11.000Z</time>
</trkpt>
<trkpt lat="45.9020800" lon="10.3650300">
	<ele>1526.00</ele>
	<time>2025-04-29T07:43:12.000Z</time>
</trkpt>
<trkpt lat="45.9020850" lon="10.3650150">
	<ele>1526.00</ele>
	<time>2025-04-29T07:43:13.000Z</time>
</trkpt>
<trkpt lat="45.9020890" lon="10.3649970">
	<ele>1526.00</ele>
	<time>2025-04-29T07:43:14.000Z</time>
</trkpt>
<trkpt lat="45.9020840" lon="10.3649870">
	<ele>1525.80</ele>
	<time>2025-04-29T07:43:15.000Z</time>
</trkpt>
<trkpt lat="45.9020780" lon="10.3649750">
	<ele>1525.80</ele>
	<time>2025-04-29T07:43:16.000Z</time>
</trkpt>
<trkpt lat="45.9020650" lon="10.3649680">
	<ele>1525.80</ele>
	<time>2025-04-29T07:43:17.000Z</time>
</trkpt>
<trkpt lat="45.9020630" lon="10.3649620">
	<ele>1526.00</ele>
	<time>2025-04-29T07:43:18.000Z</time>
</trkpt>
<trkpt lat="45.9020550" lon="10.3649530">
	<ele>1526.00</ele>
	<time>2025-04-29T07:43:19.000Z</time>
</trkpt>
<trkpt lat="45.9020450" lon="10.3649450">
	<ele>1526.20</ele>
	<time>2025-04-29T07:43:20.000Z</time>
</trkpt>
<trkpt lat="45.9020410" lon="10.3649360">
	<ele>1526.40</ele>
	<time>2025-04-29T07:43:21.000Z</time>
</trkpt>
<trkpt lat="45.9020350" lon="10.3649270">
	<ele>1526.60</ele>
	<time>2025-04-29T07:43:22.000Z</time>
</trkpt>
<trkpt lat="45.9020300" lon="10.3649160">
	<ele>1527.00</ele>
	<time>2025-04-29T07:43:23.000Z</time>
</trkpt>
<trkpt lat="45.9020240" lon="10.3649040">
	<ele>1527.00</ele>
	<time>2025-04-29T07:43:24.000Z</time>
</trkpt>
<trkpt lat="45.9020170" lon="10.3648900">
	<ele>1527.20</ele>
	<time>2025-04-29T07:43:25.000Z</time>
</trkpt>
<trkpt lat="45.9020110" lon="10.3648730">
	<ele>1527.40</ele>
	<time>2025-04-29T07:43:26.000Z</time>
</trkpt>
<trkpt lat="45.9020050" lon="10.3648580">
	<ele>1527.40</ele>
	<time>2025-04-29T07:43:27.000Z</time>
</trkpt>
<trkpt lat="45.9019990" lon="10.3648460">
	<ele>1527.40</ele>
	<time>2025-04-29T07:43:28.000Z</time>
</trkpt>
<trkpt lat="45.9019990" lon="10.3648400">
	<ele>1527.40</ele>
	<time>2025-04-29T07:43:29.000Z</time>
</trkpt>
<trkpt lat="45.9019990" lon="10.3648300">
	<ele>1527.40</ele>
	<time>2025-04-29T07:43:30.000Z</time>
</trkpt>
<trkpt lat="45.9020000" lon="10.3648210">
	<ele>1527.40</ele>
	<time>2025-04-29T07:43:31.000Z</time>
</trkpt>
<trkpt lat="45.9020000" lon="10.3648120">
	<ele>1527.20</ele>
	<time>2025-04-29T07:43:32.000Z</time>
</trkpt>
<trkpt lat="45.9019900" lon="10.3648030">
	<ele>1527.20</ele>
	<time>2025-04-29T07:43:33.000Z</time>
</trkpt>
<trkpt lat="45.9019910" lon="10.3647930">
	<ele>1527.20</ele>
	<time>2025-04-29T07:43:34.000Z</time>
</trkpt>
<trkpt lat="45.9019940" lon="10.3647780">
	<ele>1527.20</ele>
	<time>2025-04-29T07:43:35.000Z</time>
</trkpt>
<trkpt lat="45.9019840" lon="10.3647680">
	<ele>1527.20</ele>
	<time>2025-04-29T07:43:36.000Z</time>
</trkpt>
<trkpt lat="45.9019660" lon="10.3647590">
	<ele>1527.40</ele>
	<time>2025-04-29T07:43:37.000Z</time>
</trkpt>
<trkpt lat="45.9019470" lon="10.3647400">
	<ele>1527.40</ele>
	<time>2025-04-29T07:43:38.000Z</time>
</trkpt>
<trkpt lat="45.9019350" lon="10.3647190">
	<ele>1527.40</ele>
	<time>2025-04-29T07:43:39.000Z</time>
</trkpt>
<trkpt lat="45.9019280" lon="10.3647010">
	<ele>1527.40</ele>
	<time>2025-04-29T07:43:40.000Z</time>
</trkpt>
<trkpt lat="45.9019280" lon="10.3646840">
	<ele>1527.40</ele>
	<time>2025-04-29T07:43:41.000Z</time>
</trkpt>
<trkpt lat="45.9019280" lon="10.3646790">
	<ele>1527.40</ele>
	<time>2025-04-29T07:43:42.000Z</time>
</trkpt>
<trkpt lat="45.9019310" lon="10.3646770">
	<ele>1527.40</ele>
	<time>2025-04-29T07:43:43.000Z</time>
</trkpt>
<trkpt lat="45.9019350" lon="10.3646610">
	<ele>1527.60</ele>
	<time>2025-04-29T07:43:44.000Z</time>
</trkpt>
<trkpt lat="45.9019370" lon="10.3646610">
	<ele>1527.60</ele>
	<time>2025-04-29T07:43:45.000Z</time>
</trkpt>
<trkpt lat="45.9019310" lon="10.3646630">
	<ele>1527.80</ele>
	<time>2025-04-29T07:43:46.000Z</time>
</trkpt>
<trkpt lat="45.9019240" lon="10.3646680">
	<ele>1527.80</ele>
	<time>2025-04-29T07:43:47.000Z</time>
</trkpt>
<trkpt lat="45.9019150" lon="10.3646680">
	<ele>1527.80</ele>
	<time>2025-04-29T07:43:48.000Z</time>
</trkpt>
<trkpt lat="45.9019160" lon="10.3646620">
	<ele>1527.80</ele>
	<time>2025-04-29T07:43:49.000Z</time>
</trkpt>
<trkpt lat="45.9019110" lon="10.3646520">
	<ele>1527.80</ele>
	<time>2025-04-29T07:43:50.000Z</time>
</trkpt>
<trkpt lat="45.9019100" lon="10.3646420">
	<ele>1527.80</ele>
	<time>2025-04-29T07:43:51.000Z</time>
</trkpt>
<trkpt lat="45.9019070" lon="10.3646340">
	<ele>1527.60</ele>
	<time>2025-04-29T07:43:52.000Z</time>
</trkpt>
<trkpt lat="45.9019050" lon="10.3646250">
	<ele>1527.60</ele>
	<time>2025-04-29T07:43:53.000Z</time>
</trkpt>
<trkpt lat="45.9019050" lon="10.3646200">
	<ele>1527.60</ele>
	<time>2025-04-29T07:43:54.000Z</time>
</trkpt>
<trkpt lat="45.9019100" lon="10.3646130">
	<ele>1527.40</ele>
	<time>2025-04-29T07:43:55.000Z</time>
</trkpt>
<trkpt lat="45.9019160" lon="10.3646010">
	<ele>1527.40</ele>
	<time>2025-04-29T07:43:56.000Z</time>
</trkpt>
<trkpt lat="45.9019190" lon="10.3645900">
	<ele>1527.40</ele>
	<time>2025-04-29T07:43:57.000Z</time>
</trkpt>
<trkpt lat="45.9019210" lon="10.3645820">
	<ele>1527.40</ele>
	<time>2025-04-29T07:43:58.000Z</time>
</trkpt>
<trkpt lat="45.9019190" lon="10.3645740">
	<ele>1527.40</ele>
	<time>2025-04-29T07:43:59.000Z</time>
</trkpt>
<trkpt lat="45.9019170" lon="10.3645690">
	<ele>1527.20</ele>
	<time>2025-04-29T07:44:00.000Z</time>
</trkpt>
<trkpt lat="45.9019160" lon="10.3645640">
	<ele>1527.00</ele>
	<time>2025-04-29T07:44:01.000Z</time>
</trkpt>
<trkpt lat="45.9019170" lon="10.3645570">
	<ele>1527.00</ele>
	<time>2025-04-29T07:44:02.000Z</time>
</trkpt>
<trkpt lat="45.9019140" lon="10.3645510">
	<ele>1526.80</ele>
	<time>2025-04-29T07:44:03.000Z</time>
</trkpt>
<trkpt lat="45.9019160" lon="10.3645460">
	<ele>1526.80</ele>
	<time>2025-04-29T07:44:04.000Z</time>
</trkpt>
<trkpt lat="45.9019240" lon="10.3645340">
	<ele>1526.60</ele>
	<time>2025-04-29T07:44:05.000Z</time>
</trkpt>
<trkpt lat="45.9019320" lon="10.3645190">
	<ele>1526.60</ele>
	<time>2025-04-29T07:44:06.000Z</time>
</trkpt>
<trkpt lat="45.9019440" lon="10.3645040">
	<ele>1526.40</ele>
	<time>2025-04-29T07:44:07.000Z</time>
</trkpt>
<trkpt lat="45.9019620" lon="10.3644960">
	<ele>1526.40</ele>
	<time>2025-04-29T07:44:08.000Z</time>
</trkpt>
<trkpt lat="45.9019670" lon="10.3644920">
	<ele>1526.20</ele>
	<time>2025-04-29T07:44:09.000Z</time>
</trkpt>
<trkpt lat="45.9019720" lon="10.3644860">
	<ele>1526.20</ele>
	<time>2025-04-29T07:44:10.000Z</time>
</trkpt>
<trkpt lat="45.9019760" lon="10.3644840">
	<ele>1526.20</ele>
	<time>2025-04-29T07:44:11.000Z</time>
</trkpt>
<trkpt lat="45.9019770" lon="10.3644810">
	<ele>1526.20</ele>
	<time>2025-04-29T07:44:12.000Z</time>
</trkpt>
<trkpt lat="45.9019830" lon="10.3644730">
	<ele>1526.20</ele>
	<time>2025-04-29T07:44:13.000Z</time>
</trkpt>
<trkpt lat="45.9019960" lon="10.3644640">
	<ele>1526.20</ele>
	<time>2025-04-29T07:44:14.000Z</time>
</trkpt>
<trkpt lat="45.9020040" lon="10.3644540">
	<ele>1526.40</ele>
	<time>2025-04-29T07:44:15.000Z</time>
</trkpt>
<trkpt lat="45.9020040" lon="10.3644480">
	<ele>1526.60</ele>
	<time>2025-04-29T07:44:16.000Z</time>
</trkpt>
<trkpt lat="45.9020080" lon="10.3644420">
	<ele>1526.80</ele>
	<time>2025-04-29T07:44:17.000Z</time>
</trkpt>
<trkpt lat="45.9020120" lon="10.3644380">
	<ele>1526.80</ele>
	<time>2025-04-29T07:44:18.000Z</time>
</trkpt>
<trkpt lat="45.9020090" lon="10.3644300">
	<ele>1526.80</ele>
	<time>2025-04-29T07:44:19.000Z</time>
</trkpt>
<trkpt lat="45.9020200" lon="10.3644110">
	<ele>1526.80</ele>
	<time>2025-04-29T07:44:20.000Z</time>
</trkpt>
<trkpt lat="45.9020290" lon="10.3643900">
	<ele>1526.80</ele>
	<time>2025-04-29T07:44:21.000Z</time>
</trkpt>
<trkpt lat="45.9020240" lon="10.3643570">
	<ele>1526.80</ele>
	<time>2025-04-29T07:44:22.000Z</time>
</trkpt>
<trkpt lat="45.9020110" lon="10.3643220">
	<ele>1527.00</ele>
	<time>2025-04-29T07:44:23.000Z</time>
</trkpt>
<trkpt lat="45.9020010" lon="10.3642980">
	<ele>1527.00</ele>
	<time>2025-04-29T07:44:24.000Z</time>
</trkpt>
<trkpt lat="45.9019910" lon="10.3642850">
	<ele>1527.20</ele>
	<time>2025-04-29T07:44:25.000Z</time>
</trkpt>
<trkpt lat="45.9019940" lon="10.3642730">
	<ele>1527.20</ele>
	<time>2025-04-29T07:44:26.000Z</time>
</trkpt>
<trkpt lat="45.9019960" lon="10.3642670">
	<ele>1527.20</ele>
	<time>2025-04-29T07:44:27.000Z</time>
</trkpt>
<trkpt lat="45.9019990" lon="10.3642580">
	<ele>1527.40</ele>
	<time>2025-04-29T07:44:28.000Z</time>
</trkpt>
<trkpt lat="45.9020020" lon="10.3642510">
	<ele>1527.40</ele>
	<time>2025-04-29T07:44:29.000Z</time>
</trkpt>
<trkpt lat="45.9020090" lon="10.3642410">
	<ele>1527.40</ele>
	<time>2025-04-29T07:44:30.000Z</time>
</trkpt>
<trkpt lat="45.9020080" lon="10.3642300">
	<ele>1527.40</ele>
	<time>2025-04-29T07:44:31.000Z</time>
</trkpt>
<trkpt lat="45.9020020" lon="10.3642130">
	<ele>1527.40</ele>
	<time>2025-04-29T07:44:32.000Z</time>
</trkpt>
<trkpt lat="45.9020030" lon="10.3641980">
	<ele>1527.40</ele>
	<time>2025-04-29T07:44:33.000Z</time>
</trkpt>
<trkpt lat="45.9020070" lon="10.3641850">
	<ele>1527.40</ele>
	<time>2025-04-29T07:44:34.000Z</time>
</trkpt>
<trkpt lat="45.9020090" lon="10.3641790">
	<ele>1527.40</ele>
	<time>2025-04-29T07:44:35.000Z</time>
</trkpt>
<trkpt lat="45.9020080" lon="10.3641690">
	<ele>1527.40</ele>
	<time>2025-04-29T07:44:36.000Z</time>
</trkpt>
<trkpt lat="45.9020080" lon="10.3641550">
	<ele>1527.40</ele>
	<time>2025-04-29T07:44:37.000Z</time>
</trkpt>
<trkpt lat="45.9020010" lon="10.3641350">
	<ele>1527.20</ele>
	<time>2025-04-29T07:44:38.000Z</time>
</trkpt>
<trkpt lat="45.9019970" lon="10.3641140">
	<ele>1527.20</ele>
	<time>2025-04-29T07:44:39.000Z</time>
</trkpt>
<trkpt lat="45.9019920" lon="10.3640910">
	<ele>1527.40</ele>
	<time>2025-04-29T07:44:40.000Z</time>
</trkpt>
<trkpt lat="45.9019970" lon="10.3640650">
	<ele>1527.40</ele>
	<time>2025-04-29T07:44:41.000Z</time>
</trkpt>
<trkpt lat="45.9020030" lon="10.3640420">
	<ele>1527.40</ele>
	<time>2025-04-29T07:44:42.000Z</time>
</trkpt>
<trkpt lat="45.9020100" lon="10.3640270">
	<ele>1527.40</ele>
	<time>2025-04-29T07:44:43.000Z</time>
</trkpt>
<trkpt lat="45.9020140" lon="10.3640110">
	<ele>1527.40</ele>
	<time>2025-04-29T07:44:44.000Z</time>
</trkpt>
<trkpt lat="45.9020010" lon="10.3639950">
	<ele>1527.60</ele>
	<time>2025-04-29T07:44:45.000Z</time>
</trkpt>
<trkpt lat="45.9020030" lon="10.3639760">
	<ele>1527.60</ele>
	<time>2025-04-29T07:44:46.000Z</time>
</trkpt>
<trkpt lat="45.9019900" lon="10.3639500">
	<ele>1527.80</ele>
	<time>2025-04-29T07:44:47.000Z</time>
</trkpt>
<trkpt lat="45.9019800" lon="10.3639280">
	<ele>1527.80</ele>
	<time>2025-04-29T07:44:48.000Z</time>
</trkpt>
<trkpt lat="45.9019770" lon="10.3639130">
	<ele>1527.80</ele>
	<time>2025-04-29T07:44:49.000Z</time>
</trkpt>
<trkpt lat="45.9019790" lon="10.3639040">
	<ele>1527.80</ele>
	<time>2025-04-29T07:44:50.000Z</time>
</trkpt>
<trkpt lat="45.9019800" lon="10.3638940">
	<ele>1528.00</ele>
	<time>2025-04-29T07:44:51.000Z</time>
</trkpt>
<trkpt lat="45.9019800" lon="10.3638860">
	<ele>1528.00</ele>
	<time>2025-04-29T07:44:52.000Z</time>
</trkpt>
<trkpt lat="45.9019790" lon="10.3638790">
	<ele>1528.00</ele>
	<time>2025-04-29T07:44:53.000Z</time>
</trkpt>
<trkpt lat="45.9019800" lon="10.3638730">
	<ele>1528.20</ele>
	<time>2025-04-29T07:44:54.000Z</time>
</trkpt>
<trkpt lat="45.9019810" lon="10.3638820">
	<ele>1528.20</ele>
	<time>2025-04-29T07:44:55.000Z</time>
</trkpt>
<trkpt lat="45.9019890" lon="10.3638880">
	<ele>1528.40</ele>
	<time>2025-04-29T07:44:56.000Z</time>
</trkpt>
<trkpt lat="45.9019860" lon="10.3638830">
	<ele>1528.40</ele>
	<time>2025-04-29T07:44:57.000Z</time>
</trkpt>
<trkpt lat="45.9019700" lon="10.3638700">
	<ele>1528.40</ele>
	<time>2025-04-29T07:44:58.000Z</time>
</trkpt>
<trkpt lat="45.9019650" lon="10.3638660">
	<ele>1528.60</ele>
	<time>2025-04-29T07:44:59.000Z</time>
</trkpt>
<trkpt lat="45.9019720" lon="10.3638420">
	<ele>1528.60</ele>
	<time>2025-04-29T07:45:00.000Z</time>
</trkpt>
<trkpt lat="45.9019800" lon="10.3638210">
	<ele>1528.60</ele>
	<time>2025-04-29T07:45:01.000Z</time>
</trkpt>
<trkpt lat="45.9019740" lon="10.3638110">
	<ele>1528.60</ele>
	<time>2025-04-29T07:45:02.000Z</time>
</trkpt>
<trkpt lat="45.9019720" lon="10.3638040">
	<ele>1528.60</ele>
	<time>2025-04-29T07:45:03.000Z</time>
</trkpt>
<trkpt lat="45.9019700" lon="10.3637990">
	<ele>1528.40</ele>
	<time>2025-04-29T07:45:04.000Z</time>
</trkpt>
<trkpt lat="45.9019690" lon="10.3637930">
	<ele>1528.40</ele>
	<time>2025-04-29T07:45:05.000Z</time>
</trkpt>
<trkpt lat="45.9019750" lon="10.3637820">
	<ele>1528.40</ele>
	<time>2025-04-29T07:45:06.000Z</time>
</trkpt>
<trkpt lat="45.9019900" lon="10.3637750">
	<ele>1528.40</ele>
	<time>2025-04-29T07:45:07.000Z</time>
</trkpt>
<trkpt lat="45.9019930" lon="10.3637720">
	<ele>1528.40</ele>
	<time>2025-04-29T07:45:08.000Z</time>
</trkpt>
<trkpt lat="45.9020100" lon="10.3637650">
	<ele>1528.40</ele>
	<time>2025-04-29T07:45:09.000Z</time>
</trkpt>
<trkpt lat="45.9020230" lon="10.3637540">
	<ele>1528.20</ele>
	<time>2025-04-29T07:45:10.000Z</time>
</trkpt>
<trkpt lat="45.9020320" lon="10.3637480">
	<ele>1528.20</ele>
	<time>2025-04-29T07:45:11.000Z</time>
</trkpt>
<trkpt lat="45.9020430" lon="10.3637460">
	<ele>1528.20</ele>
	<time>2025-04-29T07:45:12.000Z</time>
</trkpt>
<trkpt lat="45.9020600" lon="10.3637480">
	<ele>1528.20</ele>
	<time>2025-04-29T07:45:13.000Z</time>
</trkpt>
<trkpt lat="45.9020760" lon="10.3637480">
	<ele>1528.00</ele>
	<time>2025-04-29T07:45:14.000Z</time>
</trkpt>
<trkpt lat="45.9020830" lon="10.3637410">
	<ele>1528.00</ele>
	<time>2025-04-29T07:45:15.000Z</time>
</trkpt>
<trkpt lat="45.9020820" lon="10.3637260">
	<ele>1528.00</ele>
	<time>2025-04-29T07:45:16.000Z</time>
</trkpt>
<trkpt lat="45.9020860" lon="10.3637120">
	<ele>1528.00</ele>
	<time>2025-04-29T07:45:17.000Z</time>
</trkpt>
<trkpt lat="45.9020880" lon="10.3637070">
	<ele>1528.00</ele>
	<time>2025-04-29T07:45:18.000Z</time>
</trkpt>
<trkpt lat="45.9021050" lon="10.3636970">
	<ele>1528.00</ele>
	<time>2025-04-29T07:45:19.000Z</time>
</trkpt>
<trkpt lat="45.9021140" lon="10.3636810">
	<ele>1528.00</ele>
	<time>2025-04-29T07:45:20.000Z</time>
</trkpt>
<trkpt lat="45.9021120" lon="10.3636730">
	<ele>1528.20</ele>
	<time>2025-04-29T07:45:21.000Z</time>
</trkpt>
<trkpt lat="45.9021000" lon="10.3636610">
	<ele>1528.20</ele>
	<time>2025-04-29T07:45:22.000Z</time>
</trkpt>
<trkpt lat="45.9020930" lon="10.3636500">
	<ele>1528.40</ele>
	<time>2025-04-29T07:45:23.000Z</time>
</trkpt>
<trkpt lat="45.9020890" lon="10.3636360">
	<ele>1528.60</ele>
	<time>2025-04-29T07:45:24.000Z</time>
</trkpt>
<trkpt lat="45.9020850" lon="10.3636250">
	<ele>1528.60</ele>
	<time>2025-04-29T07:45:25.000Z</time>
</trkpt>
<trkpt lat="45.9020660" lon="10.3636090">
	<ele>1528.80</ele>
	<time>2025-04-29T07:45:26.000Z</time>
</trkpt>
<trkpt lat="45.9020630" lon="10.3636010">
	<ele>1528.80</ele>
	<time>2025-04-29T07:45:27.000Z</time>
</trkpt>
<trkpt lat="45.9020530" lon="10.3635820">
	<ele>1528.80</ele>
	<time>2025-04-29T07:45:28.000Z</time>
</trkpt>
<trkpt lat="45.9020650" lon="10.3635650">
	<ele>1529.20</ele>
	<time>2025-04-29T07:45:29.000Z</time>
</trkpt>
<trkpt lat="45.9020690" lon="10.3635600">
	<ele>1529.40</ele>
	<time>2025-04-29T07:45:30.000Z</time>
</trkpt>
<trkpt lat="45.9020710" lon="10.3635560">
	<ele>1529.60</ele>
	<time>2025-04-29T07:45:31.000Z</time>
</trkpt>
<trkpt lat="45.9020850" lon="10.3635500">
	<ele>1529.60</ele>
	<time>2025-04-29T07:45:32.000Z</time>
</trkpt>
<trkpt lat="45.9020860" lon="10.3635520">
	<ele>1529.60</ele>
	<time>2025-04-29T07:45:33.000Z</time>
</trkpt>
<trkpt lat="45.9020860" lon="10.3635420">
	<ele>1529.80</ele>
	<time>2025-04-29T07:45:34.000Z</time>
</trkpt>
<trkpt lat="45.9020850" lon="10.3635410">
	<ele>1529.80</ele>
	<time>2025-04-29T07:45:35.000Z</time>
</trkpt>
<trkpt lat="45.9020850" lon="10.3635430">
	<ele>1529.80</ele>
	<time>2025-04-29T07:45:36.000Z</time>
</trkpt>
<trkpt lat="45.9020970" lon="10.3635270">
	<ele>1529.80</ele>
	<time>2025-04-29T07:45:37.000Z</time>
</trkpt>
<trkpt lat="45.9021010" lon="10.3635230">
	<ele>1529.80</ele>
	<time>2025-04-29T07:45:38.000Z</time>
</trkpt>
<trkpt lat="45.9021040" lon="10.3635210">
	<ele>1529.80</ele>
	<time>2025-04-29T07:45:39.000Z</time>
</trkpt>
<trkpt lat="45.9021030" lon="10.3635180">
	<ele>1529.80</ele>
	<time>2025-04-29T07:45:40.000Z</time>
</trkpt>
<trkpt lat="45.9021020" lon="10.3635160">
	<ele>1529.80</ele>
	<time>2025-04-29T07:45:41.000Z</time>
</trkpt>
<trkpt lat="45.9021010" lon="10.3635150">
	<ele>1529.80</ele>
	<time>2025-04-29T07:45:42.000Z</time>
</trkpt>
<trkpt lat="45.9021010" lon="10.3635150">
	<ele>1529.80</ele>
	<time>2025-04-29T07:45:43.000Z</time>
</trkpt>
<trkpt lat="45.9021010" lon="10.3635150">
	<ele>1529.80</ele>
	<time>2025-04-29T07:45:44.000Z</time>
</trkpt>
<trkpt lat="45.9021000" lon="10.3635170">
	<ele>1529.80</ele>
	<time>2025-04-29T07:45:45.000Z</time>
</trkpt>
<trkpt lat="45.9021000" lon="10.3635170">
	<ele>1529.80</ele>
	<time>2025-04-29T07:45:46.000Z</time>
</trkpt>
<trkpt lat="45.9021000" lon="10.3635170">
	<ele>1529.80</ele>
	<time>2025-04-29T07:45:47.000Z</time>
</trkpt>
<trkpt lat="45.9021000" lon="10.3635170">
	<ele>1529.80</ele>
	<time>2025-04-29T07:45:48.000Z</time>
</trkpt>
<trkpt lat="45.9021000" lon="10.3635170">
	<ele>1529.80</ele>
	<time>2025-04-29T07:45:49.000Z</time>
</trkpt>
<trkpt lat="45.9021000" lon="10.3635170">
	<ele>1529.80</ele>
	<time>2025-04-29T07:45:50.000Z</time>
</trkpt>
<trkpt lat="45.9021000" lon="10.3635170">
	<ele>1529.80</ele>
	<time>2025-04-29T07:45:51.000Z</time>
</trkpt>
<trkpt lat="45.9021000" lon="10.3635170">
	<ele>1529.80</ele>
	<time>2025-04-29T07:45:52.000Z</time>
</trkpt>
<trkpt lat="45.9021000" lon="10.3635170">
	<ele>1529.80</ele>
	<time>2025-04-29T07:45:53.000Z</time>
</trkpt>
<trkpt lat="45.9021000" lon="10.3635170">
	<ele>1530.00</ele>
	<time>2025-04-29T07:45:54.000Z</time>
</trkpt>
<trkpt lat="45.9021000" lon="10.3635170">
	<ele>1530.20</ele>
	<time>2025-04-29T07:45:55.000Z</time>
</trkpt>
<trkpt lat="45.9021000" lon="10.3635170">
	<ele>1530.20</ele>
	<time>2025-04-29T07:45:56.000Z</time>
</trkpt>
<trkpt lat="45.9021000" lon="10.3635170">
	<ele>1530.20</ele>
	<time>2025-04-29T07:45:57.000Z</time>
</trkpt>
<trkpt lat="45.9021000" lon="10.3635170">
	<ele>1530.20</ele>
	<time>2025-04-29T07:45:58.000Z</time>
</trkpt>
<trkpt lat="45.9021000" lon="10.3635170">
	<ele>1530.20</ele>
	<time>2025-04-29T07:45:59.000Z</time>
</trkpt>
<trkpt lat="45.9021000" lon="10.3635170">
	<ele>1530.20</ele>
	<time>2025-04-29T07:46:00.000Z</time>
</trkpt>
<trkpt lat="45.9021000" lon="10.3635170">
	<ele>1530.00</ele>
	<time>2025-04-29T07:46:01.000Z</time>
</trkpt>
<trkpt lat="45.9021000" lon="10.3635170">
	<ele>1530.00</ele>
	<time>2025-04-29T07:46:02.000Z</time>
</trkpt>
<trkpt lat="45.9021000" lon="10.3635160">
	<ele>1530.00</ele>
	<time>2025-04-29T07:46:03.000Z</time>
</trkpt>
<trkpt lat="45.9020980" lon="10.3635160">
	<ele>1530.00</ele>
	<time>2025-04-29T07:46:04.000Z</time>
</trkpt>
<trkpt lat="45.9020980" lon="10.3635090">
	<ele>1530.00</ele>
	<time>2025-04-29T07:46:05.000Z</time>
</trkpt>
<trkpt lat="45.9021040" lon="10.3634960">
	<ele>1530.00</ele>
	<time>2025-04-29T07:46:06.000Z</time>
</trkpt>
<trkpt lat="45.9021080" lon="10.3634810">
	<ele>1530.00</ele>
	<time>2025-04-29T07:46:07.000Z</time>
</trkpt>
<trkpt lat="45.9021070" lon="10.3634670">
	<ele>1530.00</ele>
	<time>2025-04-29T07:46:08.000Z</time>
</trkpt>
<trkpt lat="45.9021060" lon="10.3634510">
	<ele>1530.00</ele>
	<time>2025-04-29T07:46:09.000Z</time>
</trkpt>
<trkpt lat="45.9021060" lon="10.3634290">
	<ele>1530.00</ele>
	<time>2025-04-29T07:46:10.000Z</time>
</trkpt>
<trkpt lat="45.9021040" lon="10.3634050">
	<ele>1530.20</ele>
	<time>2025-04-29T07:46:11.000Z</time>
</trkpt>
<trkpt lat="45.9021060" lon="10.3633810">
	<ele>1530.20</ele>
	<time>2025-04-29T07:46:12.000Z</time>
</trkpt>
<trkpt lat="45.9021120" lon="10.3633600">
	<ele>1530.40</ele>
	<time>2025-04-29T07:46:13.000Z</time>
</trkpt>
<trkpt lat="45.9021180" lon="10.3633370">
	<ele>1530.40</ele>
	<time>2025-04-29T07:46:14.000Z</time>
</trkpt>
<trkpt lat="45.9021210" lon="10.3633230">
	<ele>1530.40</ele>
	<time>2025-04-29T07:46:15.000Z</time>
</trkpt>
<trkpt lat="45.9021250" lon="10.3633080">
	<ele>1530.40</ele>
	<time>2025-04-29T07:46:16.000Z</time>
</trkpt>
<trkpt lat="45.9021210" lon="10.3632970">
	<ele>1530.40</ele>
	<time>2025-04-29T07:46:17.000Z</time>
</trkpt>
<trkpt lat="45.9021120" lon="10.3632850">
	<ele>1530.20</ele>
	<time>2025-04-29T07:46:18.000Z</time>
</trkpt>
<trkpt lat="45.9021030" lon="10.3632710">
	<ele>1530.20</ele>
	<time>2025-04-29T07:46:19.000Z</time>
</trkpt>
<trkpt lat="45.9020900" lon="10.3632540">
	<ele>1530.20</ele>
	<time>2025-04-29T07:46:20.000Z</time>
</trkpt>
<trkpt lat="45.9020820" lon="10.3632390">
	<ele>1530.20</ele>
	<time>2025-04-29T07:46:21.000Z</time>
</trkpt>
<trkpt lat="45.9020790" lon="10.3632260">
	<ele>1530.40</ele>
	<time>2025-04-29T07:46:22.000Z</time>
</trkpt>
<trkpt lat="45.9020720" lon="10.3632180">
	<ele>1530.40</ele>
	<time>2025-04-29T07:46:23.000Z</time>
</trkpt>
<trkpt lat="45.9020670" lon="10.3632120">
	<ele>1530.60</ele>
	<time>2025-04-29T07:46:24.000Z</time>
</trkpt>
<trkpt lat="45.9020640" lon="10.3632040">
	<ele>1530.80</ele>
	<time>2025-04-29T07:46:25.000Z</time>
</trkpt>
<trkpt lat="45.9020590" lon="10.3631910">
	<ele>1530.80</ele>
	<time>2025-04-29T07:46:26.000Z</time>
</trkpt>
<trkpt lat="45.9020570" lon="10.3631880">
	<ele>1531.00</ele>
	<time>2025-04-29T07:46:27.000Z</time>
</trkpt>
<trkpt lat="45.9020550" lon="10.3631870">
	<ele>1531.20</ele>
	<time>2025-04-29T07:46:28.000Z</time>
</trkpt>
<trkpt lat="45.9020540" lon="10.3631850">
	<ele>1531.40</ele>
	<time>2025-04-29T07:46:29.000Z</time>
</trkpt>
<trkpt lat="45.9020530" lon="10.3631840">
	<ele>1531.40</ele>
	<time>2025-04-29T07:46:30.000Z</time>
</trkpt>
<trkpt lat="45.9020560" lon="10.3631650">
	<ele>1531.40</ele>
	<time>2025-04-29T07:46:31.000Z</time>
</trkpt>
<trkpt lat="45.9020620" lon="10.3631520">
	<ele>1531.40</ele>
	<time>2025-04-29T07:46:32.000Z</time>
</trkpt>
<trkpt lat="45.9020670" lon="10.3631430">
	<ele>1531.40</ele>
	<time>2025-04-29T07:46:33.000Z</time>
</trkpt>
<trkpt lat="45.9020530" lon="10.3631280">
	<ele>1531.20</ele>
	<time>2025-04-29T07:46:34.000Z</time>
</trkpt>
<trkpt lat="45.9020340" lon="10.3631150">
	<ele>1531.20</ele>
	<time>2025-04-29T07:46:35.000Z</time>
</trkpt>
<trkpt lat="45.9020190" lon="10.3631070">
	<ele>1531.20</ele>
	<time>2025-04-29T07:46:36.000Z</time>
</trkpt>
<trkpt lat="45.9020040" lon="10.3630950">
	<ele>1531.20</ele>
	<time>2025-04-29T07:46:37.000Z</time>
</trkpt>
<trkpt lat="45.9019940" lon="10.3630790">
	<ele>1531.00</ele>
	<time>2025-04-29T07:46:38.000Z</time>
</trkpt>
<trkpt lat="45.9019860" lon="10.3630630">
	<ele>1531.00</ele>
	<time>2025-04-29T07:46:39.000Z</time>
</trkpt>
<trkpt lat="45.9019810" lon="10.3630490">
	<ele>1531.00</ele>
	<time>2025-04-29T07:46:40.000Z</time>
</trkpt>
<trkpt lat="45.9019760" lon="10.3630340">
	<ele>1531.00</ele>
	<time>2025-04-29T07:46:41.000Z</time>
</trkpt>
<trkpt lat="45.9019650" lon="10.3630200">
	<ele>1531.00</ele>
	<time>2025-04-29T07:46:42.000Z</time>
</trkpt>
<trkpt lat="45.9019580" lon="10.3630060">
	<ele>1531.20</ele>
	<time>2025-04-29T07:46:43.000Z</time>
</trkpt>
<trkpt lat="45.9019550" lon="10.3629900">
	<ele>1531.20</ele>
	<time>2025-04-29T07:46:44.000Z</time>
</trkpt>
<trkpt lat="45.9019500" lon="10.3629740">
	<ele>1531.40</ele>
	<time>2025-04-29T07:46:45.000Z</time>
</trkpt>
<trkpt lat="45.9019530" lon="10.3629630">
	<ele>1531.40</ele>
	<time>2025-04-29T07:46:46.000Z</time>
</trkpt>
<trkpt lat="45.9019520" lon="10.3629500">
	<ele>1531.40</ele>
	<time>2025-04-29T07:46:47.000Z</time>
</trkpt>
<trkpt lat="45.9019500" lon="10.3629320">
	<ele>1531.40</ele>
	<time>2025-04-29T07:46:48.000Z</time>
</trkpt>
<trkpt lat="45.9019480" lon="10.3629190">
	<ele>1531.60</ele>
	<time>2025-04-29T07:46:49.000Z</time>
</trkpt>
<trkpt lat="45.9019410" lon="10.3629060">
	<ele>1531.60</ele>
	<time>2025-04-29T07:46:50.000Z</time>
</trkpt>
<trkpt lat="45.9019380" lon="10.3628890">
	<ele>1531.80</ele>
	<time>2025-04-29T07:46:51.000Z</time>
</trkpt>
<trkpt lat="45.9019370" lon="10.3628720">
	<ele>1531.80</ele>
	<time>2025-04-29T07:46:52.000Z</time>
</trkpt>
<trkpt lat="45.9019340" lon="10.3628600">
	<ele>1531.80</ele>
	<time>2025-04-29T07:46:53.000Z</time>
</trkpt>
<trkpt lat="45.9019370" lon="10.3628480">
	<ele>1531.80</ele>
	<time>2025-04-29T07:46:54.000Z</time>
</trkpt>
<trkpt lat="45.9019430" lon="10.3628350">
	<ele>1532.00</ele>
	<time>2025-04-29T07:46:55.000Z</time>
</trkpt>
<trkpt lat="45.9019460" lon="10.3628240">
	<ele>1532.20</ele>
	<time>2025-04-29T07:46:56.000Z</time>
</trkpt>
<trkpt lat="45.9019490" lon="10.3628120">
	<ele>1532.40</ele>
	<time>2025-04-29T07:46:57.000Z</time>
</trkpt>
<trkpt lat="45.9019470" lon="10.3628070">
	<ele>1532.40</ele>
	<time>2025-04-29T07:46:58.000Z</time>
</trkpt>
<trkpt lat="45.9019490" lon="10.3628010">
	<ele>1532.80</ele>
	<time>2025-04-29T07:46:59.000Z</time>
</trkpt>
<trkpt lat="45.9019520" lon="10.3627860">
	<ele>1532.80</ele>
	<time>2025-04-29T07:47:00.000Z</time>
</trkpt>
<trkpt lat="45.9019520" lon="10.3627750">
	<ele>1533.00</ele>
	<time>2025-04-29T07:47:01.000Z</time>
</trkpt>
<trkpt lat="45.9019510" lon="10.3627670">
	<ele>1533.00</ele>
	<time>2025-04-29T07:47:02.000Z</time>
</trkpt>
<trkpt lat="45.9019450" lon="10.3627570">
	<ele>1533.00</ele>
	<time>2025-04-29T07:47:03.000Z</time>
</trkpt>
<trkpt lat="45.9019420" lon="10.3627450">
	<ele>1533.00</ele>
	<time>2025-04-29T07:47:04.000Z</time>
</trkpt>
<trkpt lat="45.9019430" lon="10.3627310">
	<ele>1533.00</ele>
	<time>2025-04-29T07:47:05.000Z</time>
</trkpt>
<trkpt lat="45.9019480" lon="10.3627130">
	<ele>1533.00</ele>
	<time>2025-04-29T07:47:06.000Z</time>
</trkpt>
<trkpt lat="45.9019540" lon="10.3626960">
	<ele>1533.00</ele>
	<time>2025-04-29T07:47:07.000Z</time>
</trkpt>
<trkpt lat="45.9019500" lon="10.3626840">
	<ele>1533.00</ele>
	<time>2025-04-29T07:47:08.000Z</time>
</trkpt>
<trkpt lat="45.9019500" lon="10.3626710">
	<ele>1533.00</ele>
	<time>2025-04-29T07:47:09.000Z</time>
</trkpt>
<trkpt lat="45.9019520" lon="10.3626540">
	<ele>1533.20</ele>
	<time>2025-04-29T07:47:10.000Z</time>
</trkpt>
<trkpt lat="45.9019510" lon="10.3626380">
	<ele>1533.40</ele>
	<time>2025-04-29T07:47:11.000Z</time>
</trkpt>
<trkpt lat="45.9019430" lon="10.3626220">
	<ele>1533.40</ele>
	<time>2025-04-29T07:47:12.000Z</time>
</trkpt>
<trkpt lat="45.9019410" lon="10.3626100">
	<ele>1533.60</ele>
	<time>2025-04-29T07:47:13.000Z</time>
</trkpt>
<trkpt lat="45.9019240" lon="10.3625920">
	<ele>1533.80</ele>
	<time>2025-04-29T07:47:14.000Z</time>
</trkpt>
<trkpt lat="45.9019290" lon="10.3625710">
	<ele>1533.80</ele>
	<time>2025-04-29T07:47:15.000Z</time>
</trkpt>
<trkpt lat="45.9019310" lon="10.3625580">
	<ele>1534.00</ele>
	<time>2025-04-29T07:47:16.000Z</time>
</trkpt>
<trkpt lat="45.9019250" lon="10.3625520">
	<ele>1534.00</ele>
	<time>2025-04-29T07:47:17.000Z</time>
</trkpt>
<trkpt lat="45.9019250" lon="10.3625410">
	<ele>1534.00</ele>
	<time>2025-04-29T07:47:18.000Z</time>
</trkpt>
<trkpt lat="45.9019240" lon="10.3625400">
	<ele>1534.20</ele>
	<time>2025-04-29T07:47:19.000Z</time>
</trkpt>
<trkpt lat="45.9019300" lon="10.3625230">
	<ele>1534.20</ele>
	<time>2025-04-29T07:47:20.000Z</time>
</trkpt>
<trkpt lat="45.9019510" lon="10.3625180">
	<ele>1534.20</ele>
	<time>2025-04-29T07:47:21.000Z</time>
</trkpt>
<trkpt lat="45.9019520" lon="10.3625160">
	<ele>1534.40</ele>
	<time>2025-04-29T07:47:22.000Z</time>
</trkpt>
<trkpt lat="45.9019680" lon="10.3625150">
	<ele>1534.40</ele>
	<time>2025-04-29T07:47:23.000Z</time>
</trkpt>
<trkpt lat="45.9019700" lon="10.3625120">
	<ele>1534.40</ele>
	<time>2025-04-29T07:47:24.000Z</time>
</trkpt>
<trkpt lat="45.9019700" lon="10.3625100">
	<ele>1534.60</ele>
	<time>2025-04-29T07:47:25.000Z</time>
</trkpt>
<trkpt lat="45.9019740" lon="10.3625110">
	<ele>1534.60</ele>
	<time>2025-04-29T07:47:26.000Z</time>
</trkpt>
<trkpt lat="45.9019720" lon="10.3625080">
	<ele>1534.40</ele>
	<time>2025-04-29T07:47:27.000Z</time>
</trkpt>
<trkpt lat="45.9019600" lon="10.3624930">
	<ele>1534.40</ele>
	<time>2025-04-29T07:47:28.000Z</time>
</trkpt>
<trkpt lat="45.9019460" lon="10.3624650">
	<ele>1534.40</ele>
	<time>2025-04-29T07:47:29.000Z</time>
</trkpt>
<trkpt lat="45.9019480" lon="10.3624420">
	<ele>1534.40</ele>
	<time>2025-04-29T07:47:30.000Z</time>
</trkpt>
<trkpt lat="45.9019560" lon="10.3624300">
	<ele>1534.40</ele>
	<time>2025-04-29T07:47:31.000Z</time>
</trkpt>
<trkpt lat="45.9019540" lon="10.3624150">
	<ele>1534.40</ele>
	<time>2025-04-29T07:47:32.000Z</time>
</trkpt>
<trkpt lat="45.9019510" lon="10.3623980">
	<ele>1534.60</ele>
	<time>2025-04-29T07:47:33.000Z</time>
</trkpt>
<trkpt lat="45.9019490" lon="10.3623870">
	<ele>1534.60</ele>
	<time>2025-04-29T07:47:34.000Z</time>
</trkpt>
<trkpt lat="45.9019500" lon="10.3623780">
	<ele>1534.80</ele>
	<time>2025-04-29T07:47:35.000Z</time>
</trkpt>
<trkpt lat="45.9019530" lon="10.3623660">
	<ele>1534.80</ele>
	<time>2025-04-29T07:47:36.000Z</time>
</trkpt>
<trkpt lat="45.9019490" lon="10.3623560">
	<ele>1535.00</ele>
	<time>2025-04-29T07:47:37.000Z</time>
</trkpt>
<trkpt lat="45.9019430" lon="10.3623470">
	<ele>1535.00</ele>
	<time>2025-04-29T07:47:38.000Z</time>
</trkpt>
<trkpt lat="45.9019440" lon="10.3623330">
	<ele>1535.20</ele>
	<time>2025-04-29T07:47:39.000Z</time>
</trkpt>
<trkpt lat="45.9019460" lon="10.3623190">
	<ele>1535.40</ele>
	<time>2025-04-29T07:47:40.000Z</time>
</trkpt>
<trkpt lat="45.9019450" lon="10.3623070">
	<ele>1535.80</ele>
	<time>2025-04-29T07:47:41.000Z</time>
</trkpt>
<trkpt lat="45.9019430" lon="10.3622980">
	<ele>1536.00</ele>
	<time>2025-04-29T07:47:42.000Z</time>
</trkpt>
<trkpt lat="45.9019470" lon="10.3622870">
	<ele>1536.00</ele>
	<time>2025-04-29T07:47:43.000Z</time>
</trkpt>
<trkpt lat="45.9019500" lon="10.3622770">
	<ele>1536.20</ele>
	<time>2025-04-29T07:47:44.000Z</time>
</trkpt>
<trkpt lat="45.9019490" lon="10.3622680">
	<ele>1536.20</ele>
	<time>2025-04-29T07:47:45.000Z</time>
</trkpt>
<trkpt lat="45.9019460" lon="10.3622560">
	<ele>1536.20</ele>
	<time>2025-04-29T07:47:46.000Z</time>
</trkpt>
<trkpt lat="45.9019540" lon="10.3622480">
	<ele>1536.20</ele>
	<time>2025-04-29T07:47:47.000Z</time>
</trkpt>
<trkpt lat="45.9019670" lon="10.3622440">
	<ele>1536.20</ele>
	<time>2025-04-29T07:47:48.000Z</time>
</trkpt>
<trkpt lat="45.9019710" lon="10.3622380">
	<ele>1536.20</ele>
	<time>2025-04-29T07:47:49.000Z</time>
</trkpt>
<trkpt lat="45.9019830" lon="10.3622370">
	<ele>1536.00</ele>
	<time>2025-04-29T07:47:50.000Z</time>
</trkpt>
<trkpt lat="45.9019950" lon="10.3622300">
	<ele>1535.80</ele>
	<time>2025-04-29T07:47:51.000Z</time>
</trkpt>
<trkpt lat="45.9020010" lon="10.3622220">
	<ele>1535.60</ele>
	<time>2025-04-29T07:47:52.000Z</time>
</trkpt>
<trkpt lat="45.9020010" lon="10.3622130">
	<ele>1535.60</ele>
	<time>2025-04-29T07:47:53.000Z</time>
</trkpt>
<trkpt lat="45.9019980" lon="10.3622080">
	<ele>1535.60</ele>
	<time>2025-04-29T07:47:54.000Z</time>
</trkpt>
<trkpt lat="45.9019950" lon="10.3621910">
	<ele>1535.40</ele>
	<time>2025-04-29T07:47:55.000Z</time>
</trkpt>
<trkpt lat="45.9019850" lon="10.3621690">
	<ele>1535.60</ele>
	<time>2025-04-29T07:47:56.000Z</time>
</trkpt>
<trkpt lat="45.9019820" lon="10.3621520">
	<ele>1535.80</ele>
	<time>2025-04-29T07:47:57.000Z</time>
</trkpt>
<trkpt lat="45.9019810" lon="10.3621360">
	<ele>1535.80</ele>
	<time>2025-04-29T07:47:58.000Z</time>
</trkpt>
<trkpt lat="45.9019810" lon="10.3621180">
	<ele>1536.00</ele>
	<time>2025-04-29T07:47:59.000Z</time>
</trkpt>
<trkpt lat="45.9019800" lon="10.3621120">
	<ele>1536.00</ele>
	<time>2025-04-29T07:48:00.000Z</time>
</trkpt>
<trkpt lat="45.9019850" lon="10.3621030">
	<ele>1536.20</ele>
	<time>2025-04-29T07:48:01.000Z</time>
</trkpt>
<trkpt lat="45.9019870" lon="10.3620910">
	<ele>1536.20</ele>
	<time>2025-04-29T07:48:02.000Z</time>
</trkpt>
<trkpt lat="45.9019900" lon="10.3620710">
	<ele>1536.20</ele>
	<time>2025-04-29T07:48:03.000Z</time>
</trkpt>
<trkpt lat="45.9019860" lon="10.3620530">
	<ele>1536.20</ele>
	<time>2025-04-29T07:48:04.000Z</time>
</trkpt>
<trkpt lat="45.9019830" lon="10.3620380">
	<ele>1536.20</ele>
	<time>2025-04-29T07:48:05.000Z</time>
</trkpt>
<trkpt lat="45.9019790" lon="10.3620200">
	<ele>1536.40</ele>
	<time>2025-04-29T07:48:06.000Z</time>
</trkpt>
<trkpt lat="45.9019740" lon="10.3619990">
	<ele>1536.40</ele>
	<time>2025-04-29T07:48:07.000Z</time>
</trkpt>
<trkpt lat="45.9019690" lon="10.3619750">
	<ele>1536.40</ele>
	<time>2025-04-29T07:48:08.000Z</time>
</trkpt>
<trkpt lat="45.9019670" lon="10.3619490">
	<ele>1536.40</ele>
	<time>2025-04-29T07:48:09.000Z</time>
</trkpt>
<trkpt lat="45.9019690" lon="10.3619310">
	<ele>1536.40</ele>
	<time>2025-04-29T07:48:10.000Z</time>
</trkpt>
<trkpt lat="45.9019670" lon="10.3619160">
	<ele>1536.40</ele>
	<time>2025-04-29T07:48:11.000Z</time>
</trkpt>
<trkpt lat="45.9019630" lon="10.3618970">
	<ele>1536.40</ele>
	<time>2025-04-29T07:48:12.000Z</time>
</trkpt>
<trkpt lat="45.9019550" lon="10.3618810">
	<ele>1536.40</ele>
	<time>2025-04-29T07:48:13.000Z</time>
</trkpt>
<trkpt lat="45.9019450" lon="10.3618680">
	<ele>1536.40</ele>
	<time>2025-04-29T07:48:14.000Z</time>
</trkpt>
<trkpt lat="45.9019380" lon="10.3618580">
	<ele>1536.60</ele>
	<time>2025-04-29T07:48:15.000Z</time>
</trkpt>
<trkpt lat="45.9019330" lon="10.3618460">
	<ele>1536.60</ele>
	<time>2025-04-29T07:48:16.000Z</time>
</trkpt>
<trkpt lat="45.9019270" lon="10.3618340">
	<ele>1536.80</ele>
	<time>2025-04-29T07:48:17.000Z</time>
</trkpt>
<trkpt lat="45.9019210" lon="10.3618230">
	<ele>1536.80</ele>
	<time>2025-04-29T07:48:18.000Z</time>
</trkpt>
<trkpt lat="45.9019110" lon="10.3618030">
	<ele>1536.80</ele>
	<time>2025-04-29T07:48:19.000Z</time>
</trkpt>
<trkpt lat="45.9018990" lon="10.3617770">
	<ele>1537.00</ele>
	<time>2025-04-29T07:48:20.000Z</time>
</trkpt>
<trkpt lat="45.9018900" lon="10.3617430">
	<ele>1537.20</ele>
	<time>2025-04-29T07:48:21.000Z</time>
</trkpt>
<trkpt lat="45.9018840" lon="10.3617210">
	<ele>1537.40</ele>
	<time>2025-04-29T07:48:22.000Z</time>
</trkpt>
<trkpt lat="45.9018920" lon="10.3617030">
	<ele>1537.40</ele>
	<time>2025-04-29T07:48:23.000Z</time>
</trkpt>
<trkpt lat="45.9018910" lon="10.3616840">
	<ele>1537.60</ele>
	<time>2025-04-29T07:48:24.000Z</time>
</trkpt>
<trkpt lat="45.9018840" lon="10.3616650">
	<ele>1537.60</ele>
	<time>2025-04-29T07:48:25.000Z</time>
</trkpt>
<trkpt lat="45.9018820" lon="10.3616490">
	<ele>1537.80</ele>
	<time>2025-04-29T07:48:26.000Z</time>
</trkpt>
<trkpt lat="45.9018800" lon="10.3616320">
	<ele>1537.80</ele>
	<time>2025-04-29T07:48:27.000Z</time>
</trkpt>
<trkpt lat="45.9018890" lon="10.3616170">
	<ele>1538.00</ele>
	<time>2025-04-29T07:48:28.000Z</time>
</trkpt>
<trkpt lat="45.9018860" lon="10.3615920">
	<ele>1538.20</ele>
	<time>2025-04-29T07:48:29.000Z</time>
</trkpt>
<trkpt lat="45.9018820" lon="10.3615710">
	<ele>1538.40</ele>
	<time>2025-04-29T07:48:30.000Z</time>
</trkpt>
<trkpt lat="45.9018730" lon="10.3615490">
	<ele>1538.60</ele>
	<time>2025-04-29T07:48:31.000Z</time>
</trkpt>
<trkpt lat="45.9018620" lon="10.3615280">
	<ele>1538.60</ele>
	<time>2025-04-29T07:48:32.000Z</time>
</trkpt>
<trkpt lat="45.9018660" lon="10.3615170">
	<ele>1538.60</ele>
	<time>2025-04-29T07:48:33.000Z</time>
</trkpt>
<trkpt lat="45.9018620" lon="10.3615140">
	<ele>1538.60</ele>
	<time>2025-04-29T07:48:34.000Z</time>
</trkpt>
<trkpt lat="45.9018610" lon="10.3615100">
	<ele>1538.60</ele>
	<time>2025-04-29T07:48:35.000Z</time>
</trkpt>
<trkpt lat="45.9018620" lon="10.3615170">
	<ele>1538.60</ele>
	<time>2025-04-29T07:48:36.000Z</time>
</trkpt>
<trkpt lat="45.9018560" lon="10.3615030">
	<ele>1538.60</ele>
	<time>2025-04-29T07:48:37.000Z</time>
</trkpt>
<trkpt lat="45.9018240" lon="10.3614780">
	<ele>1538.60</ele>
	<time>2025-04-29T07:48:38.000Z</time>
</trkpt>
<trkpt lat="45.9017900" lon="10.3614600">
	<ele>1538.60</ele>
	<time>2025-04-29T07:48:39.000Z</time>
</trkpt>
<trkpt lat="45.9017810" lon="10.3614520">
	<ele>1538.80</ele>
	<time>2025-04-29T07:48:40.000Z</time>
</trkpt>
<trkpt lat="45.9017840" lon="10.3614330">
	<ele>1538.80</ele>
	<time>2025-04-29T07:48:41.000Z</time>
</trkpt>
<trkpt lat="45.9017920" lon="10.3614030">
	<ele>1539.00</ele>
	<time>2025-04-29T07:48:42.000Z</time>
</trkpt>
<trkpt lat="45.9017830" lon="10.3613790">
	<ele>1539.20</ele>
	<time>2025-04-29T07:48:43.000Z</time>
</trkpt>
<trkpt lat="45.9017680" lon="10.3613580">
	<ele>1539.20</ele>
	<time>2025-04-29T07:48:44.000Z</time>
</trkpt>
<trkpt lat="45.9017640" lon="10.3613470">
	<ele>1539.40</ele>
	<time>2025-04-29T07:48:45.000Z</time>
</trkpt>
<trkpt lat="45.9017630" lon="10.3613370">
	<ele>1539.40</ele>
	<time>2025-04-29T07:48:46.000Z</time>
</trkpt>
<trkpt lat="45.9017550" lon="10.3613320">
	<ele>1539.40</ele>
	<time>2025-04-29T07:48:47.000Z</time>
</trkpt>
<trkpt lat="45.9017470" lon="10.3613320">
	<ele>1539.40</ele>
	<time>2025-04-29T07:48:48.000Z</time>
</trkpt>
<trkpt lat="45.9017470" lon="10.3613300">
	<ele>1539.40</ele>
	<time>2025-04-29T07:48:49.000Z</time>
</trkpt>
<trkpt lat="45.9017450" lon="10.3613180">
	<ele>1539.40</ele>
	<time>2025-04-29T07:48:50.000Z</time>
</trkpt>
<trkpt lat="45.9017440" lon="10.3613100">
	<ele>1539.60</ele>
	<time>2025-04-29T07:48:51.000Z</time>
</trkpt>
<trkpt lat="45.9017470" lon="10.3613110">
	<ele>1539.60</ele>
	<time>2025-04-29T07:48:52.000Z</time>
</trkpt>
<trkpt lat="45.9017500" lon="10.3613010">
	<ele>1539.80</ele>
	<time>2025-04-29T07:48:53.000Z</time>
</trkpt>
<trkpt lat="45.9017460" lon="10.3612940">
	<ele>1540.00</ele>
	<time>2025-04-29T07:48:54.000Z</time>
</trkpt>
<trkpt lat="45.9017370" lon="10.3612920">
	<ele>1540.00</ele>
	<time>2025-04-29T07:48:55.000Z</time>
</trkpt>
<trkpt lat="45.9017280" lon="10.3612830">
	<ele>1540.00</ele>
	<time>2025-04-29T07:48:56.000Z</time>
</trkpt>
<trkpt lat="45.9017170" lon="10.3612820">
	<ele>1540.20</ele>
	<time>2025-04-29T07:48:57.000Z</time>
</trkpt>
<trkpt lat="45.9017160" lon="10.3612800">
	<ele>1540.20</ele>
	<time>2025-04-29T07:48:58.000Z</time>
</trkpt>
<trkpt lat="45.9017180" lon="10.3612900">
	<ele>1540.20</ele>
	<time>2025-04-29T07:48:59.000Z</time>
</trkpt>
<trkpt lat="45.9017250" lon="10.3612960">
	<ele>1540.00</ele>
	<time>2025-04-29T07:49:00.000Z</time>
</trkpt>
<trkpt lat="45.9017370" lon="10.3612840">
	<ele>1540.00</ele>
	<time>2025-04-29T07:49:01.000Z</time>
</trkpt>
<trkpt lat="45.9017270" lon="10.3612640">
	<ele>1540.00</ele>
	<time>2025-04-29T07:49:02.000Z</time>
</trkpt>
<trkpt lat="45.9017240" lon="10.3612620">
	<ele>1539.80</ele>
	<time>2025-04-29T07:49:03.000Z</time>
</trkpt>
<trkpt lat="45.9017220" lon="10.3612620">
	<ele>1539.60</ele>
	<time>2025-04-29T07:49:04.000Z</time>
</trkpt>
<trkpt lat="45.9017200" lon="10.3612600">
	<ele>1539.60</ele>
	<time>2025-04-29T07:49:05.000Z</time>
</trkpt>
<trkpt lat="45.9017190" lon="10.3612580">
	<ele>1539.40</ele>
	<time>2025-04-29T07:49:06.000Z</time>
</trkpt>
<trkpt lat="45.9017170" lon="10.3612570">
	<ele>1539.40</ele>
	<time>2025-04-29T07:49:07.000Z</time>
</trkpt>
<trkpt lat="45.9017130" lon="10.3612630">
	<ele>1539.40</ele>
	<time>2025-04-29T07:49:08.000Z</time>
</trkpt>
<trkpt lat="45.9017020" lon="10.3612650">
	<ele>1539.20</ele>
	<time>2025-04-29T07:49:09.000Z</time>
</trkpt>
<trkpt lat="45.9016910" lon="10.3612700">
	<ele>1539.00</ele>
	<time>2025-04-29T07:49:10.000Z</time>
</trkpt>
<trkpt lat="45.9016870" lon="10.3612760">
	<ele>1538.80</ele>
	<time>2025-04-29T07:49:11.000Z</time>
</trkpt>
<trkpt lat="45.9016870" lon="10.3612770">
	<ele>1538.60</ele>
	<time>2025-04-29T07:49:12.000Z</time>
</trkpt>
<trkpt lat="45.9016810" lon="10.3612670">
	<ele>1538.40</ele>
	<time>2025-04-29T07:49:13.000Z</time>
</trkpt>
<trkpt lat="45.9016790" lon="10.3612640">
	<ele>1538.20</ele>
	<time>2025-04-29T07:49:14.000Z</time>
</trkpt>
<trkpt lat="45.9016740" lon="10.3612570">
	<ele>1538.00</ele>
	<time>2025-04-29T07:49:15.000Z</time>
</trkpt>
<trkpt lat="45.9016690" lon="10.3612520">
	<ele>1538.00</ele>
	<time>2025-04-29T07:49:16.000Z</time>
</trkpt>
<trkpt lat="45.9016710" lon="10.3612440">
	<ele>1537.60</ele>
	<time>2025-04-29T07:49:17.000Z</time>
</trkpt>
<trkpt lat="45.9016710" lon="10.3612390">
	<ele>1537.40</ele>
	<time>2025-04-29T07:49:18.000Z</time>
</trkpt>
<trkpt lat="45.9016690" lon="10.3612340">
	<ele>1537.20</ele>
	<time>2025-04-29T07:49:19.000Z</time>
</trkpt>
<trkpt lat="45.9016680" lon="10.3612310">
	<ele>1537.00</ele>
	<time>2025-04-29T07:49:20.000Z</time>
</trkpt>
<trkpt lat="45.9016660" lon="10.3612160">
	<ele>1536.80</ele>
	<time>2025-04-29T07:49:21.000Z</time>
</trkpt>
<trkpt lat="45.9016550" lon="10.3612050">
	<ele>1536.60</ele>
	<time>2025-04-29T07:49:22.000Z</time>
</trkpt>
<trkpt lat="45.9016310" lon="10.3611870">
	<ele>1536.40</ele>
	<time>2025-04-29T07:49:23.000Z</time>
</trkpt>
<trkpt lat="45.9016130" lon="10.3611680">
	<ele>1536.40</ele>
	<time>2025-04-29T07:49:24.000Z</time>
</trkpt>
<trkpt lat="45.9016060" lon="10.3611600">
	<ele>1536.40</ele>
	<time>2025-04-29T07:49:25.000Z</time>
</trkpt>
<trkpt lat="45.9016030" lon="10.3611590">
	<ele>1536.20</ele>
	<time>2025-04-29T07:49:26.000Z</time>
</trkpt>
<trkpt lat="45.9016020" lon="10.3611520">
	<ele>1536.20</ele>
	<time>2025-04-29T07:49:27.000Z</time>
</trkpt>
<trkpt lat="45.9015970" lon="10.3611500">
	<ele>1536.20</ele>
	<time>2025-04-29T07:49:28.000Z</time>
</trkpt>
<trkpt lat="45.9016050" lon="10.3611490">
	<ele>1536.00</ele>
	<time>2025-04-29T07:49:29.000Z</time>
</trkpt>
<trkpt lat="45.9015950" lon="10.3611400">
	<ele>1535.80</ele>
	<time>2025-04-29T07:49:30.000Z</time>
</trkpt>
<trkpt lat="45.9015930" lon="10.3611360">
	<ele>1535.60</ele>
	<time>2025-04-29T07:49:31.000Z</time>
</trkpt>
<trkpt lat="45.9015840" lon="10.3611320">
	<ele>1535.60</ele>
	<time>2025-04-29T07:49:32.000Z</time>
</trkpt>
<trkpt lat="45.9015780" lon="10.3611300">
	<ele>1535.40</ele>
	<time>2025-04-29T07:49:33.000Z</time>
</trkpt>
<trkpt lat="45.9015720" lon="10.3611260">
	<ele>1535.20</ele>
	<time>2025-04-29T07:49:34.000Z</time>
</trkpt>
<trkpt lat="45.9015620" lon="10.3611230">
	<ele>1535.20</ele>
	<time>2025-04-29T07:49:35.000Z</time>
</trkpt>
<trkpt lat="45.9015500" lon="10.3611120">
	<ele>1535.20</ele>
	<time>2025-04-29T07:49:36.000Z</time>
</trkpt>
<trkpt lat="45.9015400" lon="10.3611000">
	<ele>1535.00</ele>
	<time>2025-04-29T07:49:37.000Z</time>
</trkpt>
<trkpt lat="45.9015360" lon="10.3610870">
	<ele>1535.00</ele>
	<time>2025-04-29T07:49:38.000Z</time>
</trkpt>
<trkpt lat="45.9015380" lon="10.3610770">
	<ele>1535.00</ele>
	<time>2025-04-29T07:49:39.000Z</time>
</trkpt>
<trkpt lat="45.9015360" lon="10.3610700">
	<ele>1535.00</ele>
	<time>2025-04-29T07:49:40.000Z</time>
</trkpt>
<trkpt lat="45.9015330" lon="10.3610670">
	<ele>1535.00</ele>
	<time>2025-04-29T07:49:41.000Z</time>
</trkpt>
<trkpt lat="45.9015260" lon="10.3610580">
	<ele>1534.80</ele>
	<time>2025-04-29T07:49:42.000Z</time>
</trkpt>
<trkpt lat="45.9015030" lon="10.3610480">
	<ele>1534.80</ele>
	<time>2025-04-29T07:49:43.000Z</time>
</trkpt>
<trkpt lat="45.9014900" lon="10.3610380">
	<ele>1534.60</ele>
	<time>2025-04-29T07:49:44.000Z</time>
</trkpt>
<trkpt lat="45.9014820" lon="10.3610350">
	<ele>1534.40</ele>
	<time>2025-04-29T07:49:45.000Z</time>
</trkpt>
<trkpt lat="45.9014770" lon="10.3610340">
	<ele>1534.40</ele>
	<time>2025-04-29T07:49:46.000Z</time>
</trkpt>
<trkpt lat="45.9014700" lon="10.3610330">
	<ele>1534.20</ele>
	<time>2025-04-29T07:49:47.000Z</time>
</trkpt>
<trkpt lat="45.9014750" lon="10.3610320">
	<ele>1534.00</ele>
	<time>2025-04-29T07:49:48.000Z</time>
</trkpt>
<trkpt lat="45.9014930" lon="10.3610290">
	<ele>1533.80</ele>
	<time>2025-04-29T07:49:49.000Z</time>
</trkpt>
<trkpt lat="45.9015070" lon="10.3610330">
	<ele>1533.80</ele>
	<time>2025-04-29T07:49:50.000Z</time>
</trkpt>
<trkpt lat="45.9015250" lon="10.3610380">
	<ele>1533.40</ele>
	<time>2025-04-29T07:49:51.000Z</time>
</trkpt>
<trkpt lat="45.9015330" lon="10.3610350">
	<ele>1533.20</ele>
	<time>2025-04-29T07:49:52.000Z</time>
</trkpt>
<trkpt lat="45.9015310" lon="10.3610320">
	<ele>1533.00</ele>
	<time>2025-04-29T07:49:53.000Z</time>
</trkpt>
<trkpt lat="45.9015370" lon="10.3610240">
	<ele>1532.80</ele>
	<time>2025-04-29T07:49:54.000Z</time>
</trkpt>
<trkpt lat="45.9015410" lon="10.3610180">
	<ele>1532.60</ele>
	<time>2025-04-29T07:49:55.000Z</time>
</trkpt>
<trkpt lat="45.9015340" lon="10.3610100">
	<ele>1532.40</ele>
	<time>2025-04-29T07:49:56.000Z</time>
</trkpt>
<trkpt lat="45.9015190" lon="10.3609940">
	<ele>1532.00</ele>
	<time>2025-04-29T07:49:57.000Z</time>
</trkpt>
<trkpt lat="45.9015080" lon="10.3609850">
	<ele>1532.00</ele>
	<time>2025-04-29T07:49:58.000Z</time>
</trkpt>
<trkpt lat="45.9014930" lon="10.3609770">
	<ele>1531.80</ele>
	<time>2025-04-29T07:49:59.000Z</time>
</trkpt>
<trkpt lat="45.9014790" lon="10.3609690">
	<ele>1531.80</ele>
	<time>2025-04-29T07:50:00.000Z</time>
</trkpt>
<trkpt lat="45.9014660" lon="10.3609620">
	<ele>1531.80</ele>
	<time>2025-04-29T07:50:01.000Z</time>
</trkpt>
<trkpt lat="45.9014530" lon="10.3609570">
	<ele>1531.80</ele>
	<time>2025-04-29T07:50:02.000Z</time>
</trkpt>
<trkpt lat="45.9014530" lon="10.3609470">
	<ele>1531.80</ele>
	<time>2025-04-29T07:50:03.000Z</time>
</trkpt>
<trkpt lat="45.9014500" lon="10.3609380">
	<ele>1531.80</ele>
	<time>2025-04-29T07:50:04.000Z</time>
</trkpt>
<trkpt lat="45.9014350" lon="10.3609290">
	<ele>1531.80</ele>
	<time>2025-04-29T07:50:05.000Z</time>
</trkpt>
<trkpt lat="45.9014320" lon="10.3609300">
	<ele>1531.80</ele>
	<time>2025-04-29T07:50:06.000Z</time>
</trkpt>
<trkpt lat="45.9014220" lon="10.3609240">
	<ele>1531.80</ele>
	<time>2025-04-29T07:50:07.000Z</time>
</trkpt>
<trkpt lat="45.9014150" lon="10.3609140">
	<ele>1531.60</ele>
	<time>2025-04-29T07:50:08.000Z</time>
</trkpt>
<trkpt lat="45.9014190" lon="10.3609090">
	<ele>1531.60</ele>
	<time>2025-04-29T07:50:09.000Z</time>
</trkpt>
<trkpt lat="45.9014210" lon="10.3608970">
	<ele>1531.60</ele>
	<time>2025-04-29T07:50:10.000Z</time>
</trkpt>
<trkpt lat="45.9014040" lon="10.3608770">
	<ele>1531.40</ele>
	<time>2025-04-29T07:50:11.000Z</time>
</trkpt>
<trkpt lat="45.9013920" lon="10.3608550">
	<ele>1531.40</ele>
	<time>2025-04-29T07:50:12.000Z</time>
</trkpt>
<trkpt lat="45.9013930" lon="10.3608430">
	<ele>1531.40</ele>
	<time>2025-04-29T07:50:13.000Z</time>
</trkpt>
<trkpt lat="45.9013890" lon="10.3608390">
	<ele>1531.40</ele>
	<time>2025-04-29T07:50:14.000Z</time>
</trkpt>
<trkpt lat="45.9013870" lon="10.3608430">
	<ele>1531.40</ele>
	<time>2025-04-29T07:50:15.000Z</time>
</trkpt>
<trkpt lat="45.9013730" lon="10.3608320">
	<ele>1531.60</ele>
	<time>2025-04-29T07:50:16.000Z</time>
</trkpt>
<trkpt lat="45.9013690" lon="10.3608190">
	<ele>1532.00</ele>
	<time>2025-04-29T07:50:17.000Z</time>
</trkpt>
<trkpt lat="45.9013660" lon="10.3608050">
	<ele>1532.20</ele>
	<time>2025-04-29T07:50:18.000Z</time>
</trkpt>
<trkpt lat="45.9013670" lon="10.3607990">
	<ele>1532.20</ele>
	<time>2025-04-29T07:50:19.000Z</time>
</trkpt>
<trkpt lat="45.9013650" lon="10.3608010">
	<ele>1532.40</ele>
	<time>2025-04-29T07:50:20.000Z</time>
</trkpt>
<trkpt lat="45.9013580" lon="10.3608040">
	<ele>1532.60</ele>
	<time>2025-04-29T07:50:21.000Z</time>
</trkpt>
<trkpt lat="45.9013580" lon="10.3608040">
	<ele>1532.80</ele>
	<time>2025-04-29T07:50:22.000Z</time>
</trkpt>
<trkpt lat="45.9013570" lon="10.3608010">
	<ele>1532.80</ele>
	<time>2025-04-29T07:50:23.000Z</time>
</trkpt>
<trkpt lat="45.9013540" lon="10.3607990">
	<ele>1533.00</ele>
	<time>2025-04-29T07:50:24.000Z</time>
</trkpt>
<trkpt lat="45.9013520" lon="10.3607940">
	<ele>1533.00</ele>
	<time>2025-04-29T07:50:25.000Z</time>
</trkpt>
<trkpt lat="45.9013320" lon="10.3607770">
	<ele>1533.40</ele>
	<time>2025-04-29T07:50:26.000Z</time>
</trkpt>
<trkpt lat="45.9013130" lon="10.3607590">
	<ele>1533.40</ele>
	<time>2025-04-29T07:50:27.000Z</time>
</trkpt>
<trkpt lat="45.9013010" lon="10.3607460">
	<ele>1533.60</ele>
	<time>2025-04-29T07:50:28.000Z</time>
</trkpt>
<trkpt lat="45.9012960" lon="10.3607270">
	<ele>1533.80</ele>
	<time>2025-04-29T07:50:29.000Z</time>
</trkpt>
<trkpt lat="45.9012970" lon="10.3607030">
	<ele>1533.80</ele>
	<time>2025-04-29T07:50:30.000Z</time>
</trkpt>
<trkpt lat="45.9012910" lon="10.3606780">
	<ele>1533.80</ele>
	<time>2025-04-29T07:50:31.000Z</time>
</trkpt>
<trkpt lat="45.9012890" lon="10.3606800">
	<ele>1534.20</ele>
	<time>2025-04-29T07:50:32.000Z</time>
</trkpt>
<trkpt lat="45.9012850" lon="10.3606850">
	<ele>1534.40</ele>
	<time>2025-04-29T07:50:33.000Z</time>
</trkpt>
<trkpt lat="45.9012800" lon="10.3606860">
	<ele>1534.40</ele>
	<time>2025-04-29T07:50:34.000Z</time>
</trkpt>
<trkpt lat="45.9012840" lon="10.3606960">
	<ele>1534.60</ele>
	<time>2025-04-29T07:50:35.000Z</time>
</trkpt>
<trkpt lat="45.9012760" lon="10.3606920">
	<ele>1534.80</ele>
	<time>2025-04-29T07:50:36.000Z</time>
</trkpt>
<trkpt lat="45.9012690" lon="10.3606690">
	<ele>1535.00</ele>
	<time>2025-04-29T07:50:37.000Z</time>
</trkpt>
<trkpt lat="45.9012690" lon="10.3606510">
	<ele>1535.20</ele>
	<time>2025-04-29T07:50:38.000Z</time>
</trkpt>
<trkpt lat="45.9012740" lon="10.3606320">
	<ele>1535.40</ele>
	<time>2025-04-29T07:50:39.000Z</time>
</trkpt>
<trkpt lat="45.9012730" lon="10.3606230">
	<ele>1535.40</ele>
	<time>2025-04-29T07:50:40.000Z</time>
</trkpt>
<trkpt lat="45.9012760" lon="10.3606140">
	<ele>1535.60</ele>
	<time>2025-04-29T07:50:41.000Z</time>
</trkpt>
<trkpt lat="45.9012600" lon="10.3605910">
	<ele>1535.60</ele>
	<time>2025-04-29T07:50:42.000Z</time>
</trkpt>
<trkpt lat="45.9012480" lon="10.3605770">
	<ele>1535.60</ele>
	<time>2025-04-29T07:50:43.000Z</time>
</trkpt>
<trkpt lat="45.9012370" lon="10.3605580">
	<ele>1535.60</ele>
	<time>2025-04-29T07:50:44.000Z</time>
</trkpt>
<trkpt lat="45.9012390" lon="10.3605390">
	<ele>1535.60</ele>
	<time>2025-04-29T07:50:45.000Z</time>
</trkpt>
<trkpt lat="45.9012440" lon="10.3605320">
	<ele>1535.60</ele>
	<time>2025-04-29T07:50:46.000Z</time>
</trkpt>
<trkpt lat="45.9012470" lon="10.3605240">
	<ele>1535.60</ele>
	<time>2025-04-29T07:50:47.000Z</time>
</trkpt>
<trkpt lat="45.9012490" lon="10.3605180">
	<ele>1535.60</ele>
	<time>2025-04-29T07:50:48.000Z</time>
</trkpt>
<trkpt lat="45.9012570" lon="10.3605120">
	<ele>1535.80</ele>
	<time>2025-04-29T07:50:49.000Z</time>
</trkpt>
<trkpt lat="45.9012690" lon="10.3605040">
	<ele>1535.80</ele>
	<time>2025-04-29T07:50:50.000Z</time>
</trkpt>
<trkpt lat="45.9012730" lon="10.3605000">
	<ele>1535.80</ele>
	<time>2025-04-29T07:50:51.000Z</time>
</trkpt>
<trkpt lat="45.9012780" lon="10.3605030">
	<ele>1536.00</ele>
	<time>2025-04-29T07:50:52.000Z</time>
</trkpt>
<trkpt lat="45.9012740" lon="10.3604940">
	<ele>1536.20</ele>
	<time>2025-04-29T07:50:53.000Z</time>
</trkpt>
<trkpt lat="45.9012580" lon="10.3604840">
	<ele>1536.20</ele>
	<time>2025-04-29T07:50:54.000Z</time>
</trkpt>
<trkpt lat="45.9012510" lon="10.3604740">
	<ele>1536.20</ele>
	<time>2025-04-29T07:50:55.000Z</time>
</trkpt>
<trkpt lat="45.9012400" lon="10.3604540">
	<ele>1536.20</ele>
	<time>2025-04-29T07:50:56.000Z</time>
</trkpt>
<trkpt lat="45.9012290" lon="10.3604390">
	<ele>1536.40</ele>
	<time>2025-04-29T07:50:57.000Z</time>
</trkpt>
<trkpt lat="45.9012150" lon="10.3604240">
	<ele>1536.40</ele>
	<time>2025-04-29T07:50:58.000Z</time>
</trkpt>
<trkpt lat="45.9011950" lon="10.3604070">
	<ele>1536.40</ele>
	<time>2025-04-29T07:50:59.000Z</time>
</trkpt>
<trkpt lat="45.9011780" lon="10.3603960">
	<ele>1536.40</ele>
	<time>2025-04-29T07:51:00.000Z</time>
</trkpt>
<trkpt lat="45.9011650" lon="10.3603820">
	<ele>1536.40</ele>
	<time>2025-04-29T07:51:01.000Z</time>
</trkpt>
<trkpt lat="45.9011560" lon="10.3603630">
	<ele>1536.40</ele>
	<time>2025-04-29T07:51:02.000Z</time>
</trkpt>
<trkpt lat="45.9011490" lon="10.3603420">
	<ele>1536.40</ele>
	<time>2025-04-29T07:51:03.000Z</time>
</trkpt>
<trkpt lat="45.9011480" lon="10.3603290">
	<ele>1536.60</ele>
	<time>2025-04-29T07:51:04.000Z</time>
</trkpt>
<trkpt lat="45.9011440" lon="10.3603090">
	<ele>1536.60</ele>
	<time>2025-04-29T07:51:05.000Z</time>
</trkpt>
<trkpt lat="45.9011450" lon="10.3602910">
	<ele>1536.60</ele>
	<time>2025-04-29T07:51:06.000Z</time>
</trkpt>
<trkpt lat="45.9011430" lon="10.3602740">
	<ele>1536.80</ele>
	<time>2025-04-29T07:51:07.000Z</time>
</trkpt>
<trkpt lat="45.9011490" lon="10.3602650">
	<ele>1536.60</ele>
	<time>2025-04-29T07:51:08.000Z</time>
</trkpt>
<trkpt lat="45.9011490" lon="10.3602570">
	<ele>1536.60</ele>
	<time>2025-04-29T07:51:09.000Z</time>
</trkpt>
<trkpt lat="45.9011470" lon="10.3602480">
	<ele>1536.40</ele>
	<time>2025-04-29T07:51:10.000Z</time>
</trkpt>
<trkpt lat="45.9011620" lon="10.3602460">
	<ele>1536.40</ele>
	<time>2025-04-29T07:51:11.000Z</time>
</trkpt>
<trkpt lat="45.9011710" lon="10.3602370">
	<ele>1536.20</ele>
	<time>2025-04-29T07:51:12.000Z</time>
</trkpt>
<trkpt lat="45.9011740" lon="10.3602280">
	<ele>1536.40</ele>
	<time>2025-04-29T07:51:13.000Z</time>
</trkpt>
<trkpt lat="45.9011780" lon="10.3602180">
	<ele>1536.40</ele>
	<time>2025-04-29T07:51:14.000Z</time>
</trkpt>
<trkpt lat="45.9011810" lon="10.3602100">
	<ele>1536.40</ele>
	<time>2025-04-29T07:51:15.000Z</time>
</trkpt>
<trkpt lat="45.9011840" lon="10.3601980">
	<ele>1536.60</ele>
	<time>2025-04-29T07:51:16.000Z</time>
</trkpt>
<trkpt lat="45.9011770" lon="10.3601910">
	<ele>1536.60</ele>
	<time>2025-04-29T07:51:17.000Z</time>
</trkpt>
<trkpt lat="45.9011700" lon="10.3601840">
	<ele>1536.60</ele>
	<time>2025-04-29T07:51:18.000Z</time>
</trkpt>
<trkpt lat="45.9011600" lon="10.3601660">
	<ele>1536.20</ele>
	<time>2025-04-29T07:51:19.000Z</time>
</trkpt>
<trkpt lat="45.9011510" lon="10.3601580">
	<ele>1536.20</ele>
	<time>2025-04-29T07:51:20.000Z</time>
</trkpt>
<trkpt lat="45.9011530" lon="10.3601610">
	<ele>1536.00</ele>
	<time>2025-04-29T07:51:21.000Z</time>
</trkpt>
<trkpt lat="45.9011540" lon="10.3601520">
	<ele>1535.80</ele>
	<time>2025-04-29T07:51:22.000Z</time>
</trkpt>
<trkpt lat="45.9011500" lon="10.3601360">
	<ele>1535.80</ele>
	<time>2025-04-29T07:51:23.000Z</time>
</trkpt>
<trkpt lat="45.9011450" lon="10.3601330">
	<ele>1535.80</ele>
	<time>2025-04-29T07:51:24.000Z</time>
</trkpt>
<trkpt lat="45.9011410" lon="10.3601390">
	<ele>1535.80</ele>
	<time>2025-04-29T07:51:25.000Z</time>
</trkpt>
<trkpt lat="45.9011250" lon="10.3601340">
	<ele>1535.80</ele>
	<time>2025-04-29T07:51:26.000Z</time>
</trkpt>
<trkpt lat="45.9011160" lon="10.3601220">
	<ele>1535.80</ele>
	<time>2025-04-29T07:51:27.000Z</time>
</trkpt>
<trkpt lat="45.9011070" lon="10.3601080">
	<ele>1536.00</ele>
	<time>2025-04-29T07:51:28.000Z</time>
</trkpt>
<trkpt lat="45.9011060" lon="10.3600990">
	<ele>1536.00</ele>
	<time>2025-04-29T07:51:29.000Z</time>
</trkpt>
<trkpt lat="45.9011150" lon="10.3600910">
	<ele>1536.00</ele>
	<time>2025-04-29T07:51:30.000Z</time>
</trkpt>
<trkpt lat="45.9011270" lon="10.3600840">
	<ele>1536.00</ele>
	<time>2025-04-29T07:51:31.000Z</time>
</trkpt>
<trkpt lat="45.9011290" lon="10.3600750">
	<ele>1536.00</ele>
	<time>2025-04-29T07:51:32.000Z</time>
</trkpt>
<trkpt lat="45.9011270" lon="10.3600600">
	<ele>1536.00</ele>
	<time>2025-04-29T07:51:33.000Z</time>
</trkpt>
<trkpt lat="45.9011160" lon="10.3600330">
	<ele>1536.20</ele>
	<time>2025-04-29T07:51:34.000Z</time>
</trkpt>
<trkpt lat="45.9011090" lon="10.3600170">
	<ele>1536.20</ele>
	<time>2025-04-29T07:51:35.000Z</time>
</trkpt>
<trkpt lat="45.9010990" lon="10.3600080">
	<ele>1536.20</ele>
	<time>2025-04-29T07:51:36.000Z</time>
</trkpt>
<trkpt lat="45.9010900" lon="10.3600040">
	<ele>1536.40</ele>
	<time>2025-04-29T07:51:37.000Z</time>
</trkpt>
<trkpt lat="45.9010870" lon="10.3600020">
	<ele>1536.60</ele>
	<time>2025-04-29T07:51:38.000Z</time>
</trkpt>
<trkpt lat="45.9010800" lon="10.3599980">
	<ele>1536.60</ele>
	<time>2025-04-29T07:51:39.000Z</time>
</trkpt>
<trkpt lat="45.9010850" lon="10.3599910">
	<ele>1536.60</ele>
	<time>2025-04-29T07:51:40.000Z</time>
</trkpt>
<trkpt lat="45.9010840" lon="10.3599730">
	<ele>1536.60</ele>
	<time>2025-04-29T07:51:41.000Z</time>
</trkpt>
<trkpt lat="45.9010800" lon="10.3599650">
	<ele>1536.60</ele>
	<time>2025-04-29T07:51:42.000Z</time>
</trkpt>
<trkpt lat="45.9010770" lon="10.3599550">
	<ele>1536.60</ele>
	<time>2025-04-29T07:51:43.000Z</time>
</trkpt>
<trkpt lat="45.9010850" lon="10.3599450">
	<ele>1536.60</ele>
	<time>2025-04-29T07:51:44.000Z</time>
</trkpt>
<trkpt lat="45.9010850" lon="10.3599480">
	<ele>1536.60</ele>
	<time>2025-04-29T07:51:45.000Z</time>
</trkpt>
<trkpt lat="45.9010930" lon="10.3599360">
	<ele>1536.60</ele>
	<time>2025-04-29T07:51:46.000Z</time>
</trkpt>
<trkpt lat="45.9010950" lon="10.3599250">
	<ele>1536.60</ele>
	<time>2025-04-29T07:51:47.000Z</time>
</trkpt>
<trkpt lat="45.9010900" lon="10.3599150">
	<ele>1536.60</ele>
	<time>2025-04-29T07:51:48.000Z</time>
</trkpt>
<trkpt lat="45.9010820" lon="10.3599130">
	<ele>1536.60</ele>
	<time>2025-04-29T07:51:49.000Z</time>
</trkpt>
<trkpt lat="45.9010690" lon="10.3599070">
	<ele>1536.60</ele>
	<time>2025-04-29T07:51:50.000Z</time>
</trkpt>
<trkpt lat="45.9010580" lon="10.3599010">
	<ele>1536.60</ele>
	<time>2025-04-29T07:51:51.000Z</time>
</trkpt>
<trkpt lat="45.9010400" lon="10.3598960">
	<ele>1536.60</ele>
	<time>2025-04-29T07:51:52.000Z</time>
</trkpt>
<trkpt lat="45.9010280" lon="10.3598880">
	<ele>1536.40</ele>
	<time>2025-04-29T07:51:53.000Z</time>
</trkpt>
<trkpt lat="45.9010220" lon="10.3598760">
	<ele>1536.40</ele>
	<time>2025-04-29T07:51:54.000Z</time>
</trkpt>
<trkpt lat="45.9010200" lon="10.3598720">
	<ele>1536.20</ele>
	<time>2025-04-29T07:51:55.000Z</time>
</trkpt>
<trkpt lat="45.9010150" lon="10.3598650">
	<ele>1536.20</ele>
	<time>2025-04-29T07:51:56.000Z</time>
</trkpt>
<trkpt lat="45.9010040" lon="10.3598590">
	<ele>1536.20</ele>
	<time>2025-04-29T07:51:57.000Z</time>
</trkpt>
<trkpt lat="45.9009950" lon="10.3598520">
	<ele>1536.20</ele>
	<time>2025-04-29T07:51:58.000Z</time>
</trkpt>
<trkpt lat="45.9009890" lon="10.3598490">
	<ele>1536.00</ele>
	<time>2025-04-29T07:51:59.000Z</time>
</trkpt>
<trkpt lat="45.9009770" lon="10.3598510">
	<ele>1536.00</ele>
	<time>2025-04-29T07:52:00.000Z</time>
</trkpt>
<trkpt lat="45.9009780" lon="10.3598470">
	<ele>1536.00</ele>
	<time>2025-04-29T07:52:01.000Z</time>
</trkpt>
<trkpt lat="45.9009730" lon="10.3598380">
	<ele>1536.00</ele>
	<time>2025-04-29T07:52:02.000Z</time>
</trkpt>
<trkpt lat="45.9009650" lon="10.3598260">
	<ele>1536.00</ele>
	<time>2025-04-29T07:52:03.000Z</time>
</trkpt>
<trkpt lat="45.9009580" lon="10.3598150">
	<ele>1536.20</ele>
	<time>2025-04-29T07:52:04.000Z</time>
</trkpt>
<trkpt lat="45.9009480" lon="10.3598170">
	<ele>1536.20</ele>
	<time>2025-04-29T07:52:05.000Z</time>
</trkpt>
<trkpt lat="45.9009460" lon="10.3598200">
	<ele>1536.20</ele>
	<time>2025-04-29T07:52:06.000Z</time>
</trkpt>
<trkpt lat="45.9009400" lon="10.3598090">
	<ele>1536.60</ele>
	<time>2025-04-29T07:52:07.000Z</time>
</trkpt>
<trkpt lat="45.9009270" lon="10.3597960">
	<ele>1536.60</ele>
	<time>2025-04-29T07:52:08.000Z</time>
</trkpt>
<trkpt lat="45.9009150" lon="10.3597830">
	<ele>1536.80</ele>
	<time>2025-04-29T07:52:09.000Z</time>
</trkpt>
<trkpt lat="45.9009010" lon="10.3597690">
	<ele>1536.80</ele>
	<time>2025-04-29T07:52:10.000Z</time>
</trkpt>
<trkpt lat="45.9008940" lon="10.3597580">
	<ele>1537.00</ele>
	<time>2025-04-29T07:52:11.000Z</time>
</trkpt>
<trkpt lat="45.9008860" lon="10.3597370">
	<ele>1537.20</ele>
	<time>2025-04-29T07:52:12.000Z</time>
</trkpt>
<trkpt lat="45.9008830" lon="10.3597190">
	<ele>1537.40</ele>
	<time>2025-04-29T07:52:13.000Z</time>
</trkpt>
<trkpt lat="45.9008730" lon="10.3597040">
	<ele>1537.60</ele>
	<time>2025-04-29T07:52:14.000Z</time>
</trkpt>
<trkpt lat="45.9008620" lon="10.3596840">
	<ele>1537.60</ele>
	<time>2025-04-29T07:52:15.000Z</time>
</trkpt>
<trkpt lat="45.9008600" lon="10.3596700">
	<ele>1537.60</ele>
	<time>2025-04-29T07:52:16.000Z</time>
</trkpt>
<trkpt lat="45.9008510" lon="10.3596710">
	<ele>1537.60</ele>
	<time>2025-04-29T07:52:17.000Z</time>
</trkpt>
<trkpt lat="45.9008450" lon="10.3596610">
	<ele>1537.60</ele>
	<time>2025-04-29T07:52:18.000Z</time>
</trkpt>
<trkpt lat="45.9008310" lon="10.3596520">
	<ele>1537.60</ele>
	<time>2025-04-29T07:52:19.000Z</time>
</trkpt>
<trkpt lat="45.9008170" lon="10.3596440">
	<ele>1537.60</ele>
	<time>2025-04-29T07:52:20.000Z</time>
</trkpt>
<trkpt lat="45.9008050" lon="10.3596350">
	<ele>1537.40</ele>
	<time>2025-04-29T07:52:21.000Z</time>
</trkpt>
<trkpt lat="45.9007880" lon="10.3596250">
	<ele>1537.40</ele>
	<time>2025-04-29T07:52:22.000Z</time>
</trkpt>
<trkpt lat="45.9007770" lon="10.3596110">
	<ele>1537.40</ele>
	<time>2025-04-29T07:52:23.000Z</time>
</trkpt>
<trkpt lat="45.9007730" lon="10.3596040">
	<ele>1537.40</ele>
	<time>2025-04-29T07:52:24.000Z</time>
</trkpt>
<trkpt lat="45.9007600" lon="10.3595910">
	<ele>1537.40</ele>
	<time>2025-04-29T07:52:25.000Z</time>
</trkpt>
<trkpt lat="45.9007440" lon="10.3595860">
	<ele>1537.40</ele>
	<time>2025-04-29T07:52:26.000Z</time>
</trkpt>
<trkpt lat="45.9007410" lon="10.3595780">
	<ele>1537.40</ele>
	<time>2025-04-29T07:52:27.000Z</time>
</trkpt>
<trkpt lat="45.9007430" lon="10.3595700">
	<ele>1537.40</ele>
	<time>2025-04-29T07:52:28.000Z</time>
</trkpt>
<trkpt lat="45.9007450" lon="10.3595560">
	<ele>1537.40</ele>
	<time>2025-04-29T07:52:29.000Z</time>
</trkpt>
<trkpt lat="45.9007430" lon="10.3595500">
	<ele>1537.40</ele>
	<time>2025-04-29T07:52:30.000Z</time>
</trkpt>
<trkpt lat="45.9007370" lon="10.3595380">
	<ele>1537.40</ele>
	<time>2025-04-29T07:52:31.000Z</time>
</trkpt>
<trkpt lat="45.9007310" lon="10.3595280">
	<ele>1537.20</ele>
	<time>2025-04-29T07:52:32.000Z</time>
</trkpt>
<trkpt lat="45.9007230" lon="10.3595120">
	<ele>1537.20</ele>
	<time>2025-04-29T07:52:33.000Z</time>
</trkpt>
<trkpt lat="45.9007120" lon="10.3595040">
	<ele>1537.20</ele>
	<time>2025-04-29T07:52:34.000Z</time>
</trkpt>
<trkpt lat="45.9007070" lon="10.3595030">
	<ele>1537.20</ele>
	<time>2025-04-29T07:52:35.000Z</time>
</trkpt>
<trkpt lat="45.9006990" lon="10.3594930">
	<ele>1537.00</ele>
	<time>2025-04-29T07:52:36.000Z</time>
</trkpt>
<trkpt lat="45.9006930" lon="10.3594820">
	<ele>1537.00</ele>
	<time>2025-04-29T07:52:37.000Z</time>
</trkpt>
<trkpt lat="45.9006930" lon="10.3594800">
	<ele>1537.00</ele>
	<time>2025-04-29T07:52:38.000Z</time>
</trkpt>
<trkpt lat="45.9006950" lon="10.3594570">
	<ele>1537.00</ele>
	<time>2025-04-29T07:52:39.000Z</time>
</trkpt>
<trkpt lat="45.9006950" lon="10.3594290">
	<ele>1537.00</ele>
	<time>2025-04-29T07:52:40.000Z</time>
</trkpt>
<trkpt lat="45.9006910" lon="10.3594120">
	<ele>1537.00</ele>
	<time>2025-04-29T07:52:41.000Z</time>
</trkpt>
<trkpt lat="45.9006900" lon="10.3594050">
	<ele>1537.00</ele>
	<time>2025-04-29T07:52:42.000Z</time>
</trkpt>
<trkpt lat="45.9006950" lon="10.3593930">
	<ele>1537.00</ele>
	<time>2025-04-29T07:52:43.000Z</time>
</trkpt>
<trkpt lat="45.9007020" lon="10.3593820">
	<ele>1537.00</ele>
	<time>2025-04-29T07:52:44.000Z</time>
</trkpt>
<trkpt lat="45.9007070" lon="10.3593730">
	<ele>1537.00</ele>
	<time>2025-04-29T07:52:45.000Z</time>
</trkpt>
<trkpt lat="45.9007070" lon="10.3593640">
	<ele>1537.00</ele>
	<time>2025-04-29T07:52:46.000Z</time>
</trkpt>
<trkpt lat="45.9007050" lon="10.3593550">
	<ele>1537.00</ele>
	<time>2025-04-29T07:52:47.000Z</time>
</trkpt>
<trkpt lat="45.9006990" lon="10.3593230">
	<ele>1537.00</ele>
	<time>2025-04-29T07:52:48.000Z</time>
</trkpt>
<trkpt lat="45.9006960" lon="10.3593110">
	<ele>1537.00</ele>
	<time>2025-04-29T07:52:49.000Z</time>
</trkpt>
<trkpt lat="45.9006880" lon="10.3592910">
	<ele>1537.00</ele>
	<time>2025-04-29T07:52:50.000Z</time>
</trkpt>
<trkpt lat="45.9006770" lon="10.3593440">
	<ele>1537.00</ele>
	<time>2025-04-29T07:52:51.000Z</time>
</trkpt>
<trkpt lat="45.9006670" lon="10.3593730">
	<ele>1537.00</ele>
	<time>2025-04-29T07:52:52.000Z</time>
</trkpt>
<trkpt lat="45.9006610" lon="10.3594050">
	<ele>1537.00</ele>
	<time>2025-04-29T07:52:53.000Z</time>
</trkpt>
<trkpt lat="45.9006530" lon="10.3594370">
	<ele>1537.00</ele>
	<time>2025-04-29T07:52:54.000Z</time>
</trkpt>
<trkpt lat="45.9006490" lon="10.3594490">
	<ele>1537.00</ele>
	<time>2025-04-29T07:52:55.000Z</time>
</trkpt>
<trkpt lat="45.9006530" lon="10.3594380">
	<ele>1537.20</ele>
	<time>2025-04-29T07:52:56.000Z</time>
</trkpt>
<trkpt lat="45.9006570" lon="10.3594410">
	<ele>1537.20</ele>
	<time>2025-04-29T07:52:57.000Z</time>
</trkpt>
<trkpt lat="45.9006610" lon="10.3594490">
	<ele>1537.20</ele>
	<time>2025-04-29T07:52:58.000Z</time>
</trkpt>
<trkpt lat="45.9006630" lon="10.3594540">
	<ele>1537.20</ele>
	<time>2025-04-29T07:52:59.000Z</time>
</trkpt>
<trkpt lat="45.9006650" lon="10.3594560">
	<ele>1537.20</ele>
	<time>2025-04-29T07:53:00.000Z</time>
</trkpt>
<trkpt lat="45.9006660" lon="10.3594580">
	<ele>1537.20</ele>
	<time>2025-04-29T07:53:01.000Z</time>
</trkpt>
<trkpt lat="45.9006710" lon="10.3594550">
	<ele>1537.00</ele>
	<time>2025-04-29T07:53:02.000Z</time>
</trkpt>
<trkpt lat="45.9006720" lon="10.3594460">
	<ele>1537.00</ele>
	<time>2025-04-29T07:53:03.000Z</time>
</trkpt>
<trkpt lat="45.9006730" lon="10.3594360">
	<ele>1537.00</ele>
	<time>2025-04-29T07:53:04.000Z</time>
</trkpt>
<trkpt lat="45.9006790" lon="10.3594260">
	<ele>1537.00</ele>
	<time>2025-04-29T07:53:05.000Z</time>
</trkpt>
<trkpt lat="45.9006810" lon="10.3594250">
	<ele>1537.00</ele>
	<time>2025-04-29T07:53:06.000Z</time>
</trkpt>
<trkpt lat="45.9006820" lon="10.3594230">
	<ele>1537.00</ele>
	<time>2025-04-29T07:53:07.000Z</time>
</trkpt>
<trkpt lat="45.9006770" lon="10.3594260">
	<ele>1537.00</ele>
	<time>2025-04-29T07:53:08.000Z</time>
</trkpt>
<trkpt lat="45.9006760" lon="10.3594290">
	<ele>1537.00</ele>
	<time>2025-04-29T07:53:09.000Z</time>
</trkpt>
<trkpt lat="45.9006780" lon="10.3594250">
	<ele>1537.00</ele>
	<time>2025-04-29T07:53:10.000Z</time>
</trkpt>
<trkpt lat="45.9006750" lon="10.3594200">
	<ele>1537.20</ele>
	<time>2025-04-29T07:53:11.000Z</time>
</trkpt>
<trkpt lat="45.9006820" lon="10.3594100">
	<ele>1537.40</ele>
	<time>2025-04-29T07:53:12.000Z</time>
</trkpt>
<trkpt lat="45.9006830" lon="10.3593950">
	<ele>1537.40</ele>
	<time>2025-04-29T07:53:13.000Z</time>
</trkpt>
<trkpt lat="45.9006770" lon="10.3593740">
	<ele>1537.40</ele>
	<time>2025-04-29T07:53:14.000Z</time>
</trkpt>
<trkpt lat="45.9006740" lon="10.3593620">
	<ele>1537.40</ele>
	<time>2025-04-29T07:53:15.000Z</time>
</trkpt>
<trkpt lat="45.9006790" lon="10.3593630">
	<ele>1537.40</ele>
	<time>2025-04-29T07:53:16.000Z</time>
</trkpt>
<trkpt lat="45.9006800" lon="10.3593600">
	<ele>1537.40</ele>
	<time>2025-04-29T07:53:17.000Z</time>
</trkpt>
<trkpt lat="45.9006800" lon="10.3593610">
	<ele>1537.40</ele>
	<time>2025-04-29T07:53:18.000Z</time>
</trkpt>
<trkpt lat="45.9006760" lon="10.3593670">
	<ele>1537.20</ele>
	<time>2025-04-29T07:53:19.000Z</time>
</trkpt>
<trkpt lat="45.9006720" lon="10.3593670">
	<ele>1537.20</ele>
	<time>2025-04-29T07:53:20.000Z</time>
</trkpt>
<trkpt lat="45.9006660" lon="10.3593650">
	<ele>1537.40</ele>
	<time>2025-04-29T07:53:21.000Z</time>
</trkpt>
<trkpt lat="45.9006610" lon="10.3593620">
	<ele>1537.40</ele>
	<time>2025-04-29T07:53:22.000Z</time>
</trkpt>
<trkpt lat="45.9006580" lon="10.3593600">
	<ele>1537.60</ele>
	<time>2025-04-29T07:53:23.000Z</time>
</trkpt>
<trkpt lat="45.9006580" lon="10.3593570">
	<ele>1537.80</ele>
	<time>2025-04-29T07:53:24.000Z</time>
</trkpt>
<trkpt lat="45.9006560" lon="10.3593510">
	<ele>1537.80</ele>
	<time>2025-04-29T07:53:25.000Z</time>
</trkpt>
<trkpt lat="45.9006580" lon="10.3593480">
	<ele>1538.00</ele>
	<time>2025-04-29T07:53:26.000Z</time>
</trkpt>
<trkpt lat="45.9006600" lon="10.3593440">
	<ele>1538.00</ele>
	<time>2025-04-29T07:53:27.000Z</time>
</trkpt>
<trkpt lat="45.9006620" lon="10.3593430">
	<ele>1538.00</ele>
	<time>2025-04-29T07:53:28.000Z</time>
</trkpt>
<trkpt lat="45.9006680" lon="10.3593400">
	<ele>1538.00</ele>
	<time>2025-04-29T07:53:29.000Z</time>
</trkpt>
<trkpt lat="45.9006750" lon="10.3593370">
	<ele>1538.00</ele>
	<time>2025-04-29T07:53:30.000Z</time>
</trkpt>
<trkpt lat="45.9006690" lon="10.3593340">
	<ele>1538.00</ele>
	<time>2025-04-29T07:53:31.000Z</time>
</trkpt>
<trkpt lat="45.9006650" lon="10.3593250">
	<ele>1537.80</ele>
	<time>2025-04-29T07:53:32.000Z</time>
</trkpt>
<trkpt lat="45.9006590" lon="10.3593200">
	<ele>1537.80</ele>
	<time>2025-04-29T07:53:33.000Z</time>
</trkpt>
<trkpt lat="45.9006600" lon="10.3593200">
	<ele>1537.80</ele>
	<time>2025-04-29T07:53:34.000Z</time>
</trkpt>
<trkpt lat="45.9006610" lon="10.3593260">
	<ele>1537.80</ele>
	<time>2025-04-29T07:53:35.000Z</time>
</trkpt>
<trkpt lat="45.9006630" lon="10.3593300">
	<ele>1537.80</ele>
	<time>2025-04-29T07:53:36.000Z</time>
</trkpt>
<trkpt lat="45.9006630" lon="10.3593280">
	<ele>1537.80</ele>
	<time>2025-04-29T07:53:37.000Z</time>
</trkpt>
<trkpt lat="45.9006580" lon="10.3593300">
	<ele>1538.00</ele>
	<time>2025-04-29T07:53:38.000Z</time>
</trkpt>
<trkpt lat="45.9006480" lon="10.3593240">
	<ele>1538.20</ele>
	<time>2025-04-29T07:53:39.000Z</time>
</trkpt>
<trkpt lat="45.9006390" lon="10.3593170">
	<ele>1538.40</ele>
	<time>2025-04-29T07:53:40.000Z</time>
</trkpt>
<trkpt lat="45.9006310" lon="10.3593080">
	<ele>1538.60</ele>
	<time>2025-04-29T07:53:41.000Z</time>
</trkpt>
<trkpt lat="45.9006330" lon="10.3592980">
	<ele>1538.80</ele>
	<time>2025-04-29T07:53:42.000Z</time>
</trkpt>
<trkpt lat="45.9006350" lon="10.3592880">
	<ele>1539.00</ele>
	<time>2025-04-29T07:53:43.000Z</time>
</trkpt>
<trkpt lat="45.9006360" lon="10.3592820">
	<ele>1539.20</ele>
	<time>2025-04-29T07:53:44.000Z</time>
</trkpt>
<trkpt lat="45.9006390" lon="10.3592870">
	<ele>1539.40</ele>
	<time>2025-04-29T07:53:45.000Z</time>
</trkpt>
<trkpt lat="45.9006350" lon="10.3592860">
	<ele>1539.40</ele>
	<time>2025-04-29T07:53:46.000Z</time>
</trkpt>
<trkpt lat="45.9006350" lon="10.3592870">
	<ele>1539.40</ele>
	<time>2025-04-29T07:53:47.000Z</time>
</trkpt>
<trkpt lat="45.9006420" lon="10.3592930">
	<ele>1539.60</ele>
	<time>2025-04-29T07:53:48.000Z</time>
</trkpt>
<trkpt lat="45.9006440" lon="10.3592940">
	<ele>1539.40</ele>
	<time>2025-04-29T07:53:49.000Z</time>
</trkpt>
<trkpt lat="45.9006400" lon="10.3592900">
	<ele>1539.20</ele>
	<time>2025-04-29T07:53:50.000Z</time>
</trkpt>
<trkpt lat="45.9006420" lon="10.3592960">
	<ele>1539.20</ele>
	<time>2025-04-29T07:53:51.000Z</time>
</trkpt>
<trkpt lat="45.9006380" lon="10.3592880">
	<ele>1539.00</ele>
	<time>2025-04-29T07:53:52.000Z</time>
</trkpt>
<trkpt lat="45.9006390" lon="10.3592910">
	<ele>1538.80</ele>
	<time>2025-04-29T07:53:53.000Z</time>
</trkpt>
<trkpt lat="45.9006420" lon="10.3592910">
	<ele>1538.80</ele>
	<time>2025-04-29T07:53:54.000Z</time>
</trkpt>
<trkpt lat="45.9006480" lon="10.3592860">
	<ele>1538.60</ele>
	<time>2025-04-29T07:53:55.000Z</time>
</trkpt>
<trkpt lat="45.9006480" lon="10.3592820">
	<ele>1538.60</ele>
	<time>2025-04-29T07:53:56.000Z</time>
</trkpt>
<trkpt lat="45.9006490" lon="10.3592780">
	<ele>1538.60</ele>
	<time>2025-04-29T07:53:57.000Z</time>
</trkpt>
<trkpt lat="45.9006440" lon="10.3592780">
	<ele>1538.60</ele>
	<time>2025-04-29T07:53:58.000Z</time>
</trkpt>
<trkpt lat="45.9006360" lon="10.3592750">
	<ele>1538.60</ele>
	<time>2025-04-29T07:53:59.000Z</time>
</trkpt>
<trkpt lat="45.9006300" lon="10.3592710">
	<ele>1538.60</ele>
	<time>2025-04-29T07:54:00.000Z</time>
</trkpt>
<trkpt lat="45.9006300" lon="10.3592640">
	<ele>1538.60</ele>
	<time>2025-04-29T07:54:01.000Z</time>
</trkpt>
<trkpt lat="45.9006300" lon="10.3592570">
	<ele>1538.80</ele>
	<time>2025-04-29T07:54:02.000Z</time>
</trkpt>
<trkpt lat="45.9006310" lon="10.3592500">
	<ele>1538.80</ele>
	<time>2025-04-29T07:54:03.000Z</time>
</trkpt>
<trkpt lat="45.9006360" lon="10.3592410">
	<ele>1539.00</ele>
	<time>2025-04-29T07:54:04.000Z</time>
</trkpt>
<trkpt lat="45.9006380" lon="10.3592310">
	<ele>1539.20</ele>
	<time>2025-04-29T07:54:05.000Z</time>
</trkpt>
<trkpt lat="45.9006500" lon="10.3592230">
	<ele>1539.20</ele>
	<time>2025-04-29T07:54:06.000Z</time>
</trkpt>
<trkpt lat="45.9006590" lon="10.3592150">
	<ele>1539.60</ele>
	<time>2025-04-29T07:54:07.000Z</time>
</trkpt>
<trkpt lat="45.9006700" lon="10.3592040">
	<ele>1539.60</ele>
	<time>2025-04-29T07:54:08.000Z</time>
</trkpt>
<trkpt lat="45.9006800" lon="10.3591930">
	<ele>1539.80</ele>
	<time>2025-04-29T07:54:09.000Z</time>
</trkpt>
<trkpt lat="45.9006840" lon="10.3591810">
	<ele>1539.80</ele>
	<time>2025-04-29T07:54:10.000Z</time>
</trkpt>
<trkpt lat="45.9006870" lon="10.3591670">
	<ele>1540.00</ele>
	<time>2025-04-29T07:54:11.000Z</time>
</trkpt>
<trkpt lat="45.9006950" lon="10.3591470">
	<ele>1540.00</ele>
	<time>2025-04-29T07:54:12.000Z</time>
</trkpt>
<trkpt lat="45.9007000" lon="10.3591340">
	<ele>1540.00</ele>
	<time>2025-04-29T07:54:13.000Z</time>
</trkpt>
<trkpt lat="45.9007040" lon="10.3591210">
	<ele>1540.20</ele>
	<time>2025-04-29T07:54:14.000Z</time>
</trkpt>
<trkpt lat="45.9007080" lon="10.3591120">
	<ele>1540.20</ele>
	<time>2025-04-29T07:54:15.000Z</time>
</trkpt>
<trkpt lat="45.9007120" lon="10.3591030">
	<ele>1540.20</ele>
	<time>2025-04-29T07:54:16.000Z</time>
</trkpt>
<trkpt lat="45.9007200" lon="10.3590870">
	<ele>1540.20</ele>
	<time>2025-04-29T07:54:17.000Z</time>
</trkpt>
<trkpt lat="45.9007300" lon="10.3590720">
	<ele>1540.20</ele>
	<time>2025-04-29T07:54:18.000Z</time>
</trkpt>
<trkpt lat="45.9007380" lon="10.3590570">
	<ele>1540.20</ele>
	<time>2025-04-29T07:54:19.000Z</time>
</trkpt>
<trkpt lat="45.9007360" lon="10.3590380">
	<ele>1540.20</ele>
	<time>2025-04-29T07:54:20.000Z</time>
</trkpt>
<trkpt lat="45.9007320" lon="10.3590130">
	<ele>1540.00</ele>
	<time>2025-04-29T07:54:21.000Z</time>
</trkpt>
<trkpt lat="45.9007170" lon="10.3590050">
	<ele>1540.00</ele>
	<time>2025-04-29T07:54:22.000Z</time>
</trkpt>
<trkpt lat="45.9007130" lon="10.3590020">
	<ele>1539.80</ele>
	<time>2025-04-29T07:54:23.000Z</time>
</trkpt>
<trkpt lat="45.9006980" lon="10.3590000">
	<ele>1539.80</ele>
	<time>2025-04-29T07:54:24.000Z</time>
</trkpt>
<trkpt lat="45.9006870" lon="10.3589890">
	<ele>1539.80</ele>
	<time>2025-04-29T07:54:25.000Z</time>
</trkpt>
<trkpt lat="45.9006870" lon="10.3589610">
	<ele>1539.80</ele>
	<time>2025-04-29T07:54:26.000Z</time>
</trkpt>
<trkpt lat="45.9006870" lon="10.3589360">
	<ele>1539.80</ele>
	<time>2025-04-29T07:54:27.000Z</time>
</trkpt>
<trkpt lat="45.9006780" lon="10.3589140">
	<ele>1539.80</ele>
	<time>2025-04-29T07:54:28.000Z</time>
</trkpt>
<trkpt lat="45.9006710" lon="10.3589020">
	<ele>1540.00</ele>
	<time>2025-04-29T07:54:29.000Z</time>
</trkpt>
<trkpt lat="45.9006820" lon="10.3588920">
	<ele>1540.20</ele>
	<time>2025-04-29T07:54:30.000Z</time>
</trkpt>
<trkpt lat="45.9006950" lon="10.3588730">
	<ele>1540.20</ele>
	<time>2025-04-29T07:54:31.000Z</time>
</trkpt>
<trkpt lat="45.9007060" lon="10.3588570">
	<ele>1540.40</ele>
	<time>2025-04-29T07:54:32.000Z</time>
</trkpt>
<trkpt lat="45.9007060" lon="10.3588480">
	<ele>1540.60</ele>
	<time>2025-04-29T07:54:33.000Z</time>
</trkpt>
<trkpt lat="45.9007060" lon="10.3588430">
	<ele>1540.60</ele>
	<time>2025-04-29T07:54:34.000Z</time>
</trkpt>
<trkpt lat="45.9007060" lon="10.3588380">
	<ele>1540.60</ele>
	<time>2025-04-29T07:54:35.000Z</time>
</trkpt>
<trkpt lat="45.9007100" lon="10.3588250">
	<ele>1540.60</ele>
	<time>2025-04-29T07:54:36.000Z</time>
</trkpt>
<trkpt lat="45.9007090" lon="10.3588140">
	<ele>1540.60</ele>
	<time>2025-04-29T07:54:37.000Z</time>
</trkpt>
<trkpt lat="45.9007090" lon="10.3588060">
	<ele>1540.60</ele>
	<time>2025-04-29T07:54:38.000Z</time>
</trkpt>
<trkpt lat="45.9007100" lon="10.3588020">
	<ele>1540.60</ele>
	<time>2025-04-29T07:54:39.000Z</time>
</trkpt>
<trkpt lat="45.9007120" lon="10.3587940">
	<ele>1540.60</ele>
	<time>2025-04-29T07:54:40.000Z</time>
</trkpt>
<trkpt lat="45.9007110" lon="10.3587890">
	<ele>1540.60</ele>
	<time>2025-04-29T07:54:41.000Z</time>
</trkpt>
<trkpt lat="45.9007090" lon="10.3587860">
	<ele>1540.60</ele>
	<time>2025-04-29T07:54:42.000Z</time>
</trkpt>
<trkpt lat="45.9007090" lon="10.3587870">
	<ele>1540.60</ele>
	<time>2025-04-29T07:54:43.000Z</time>
</trkpt>
<trkpt lat="45.9007130" lon="10.3587820">
	<ele>1540.60</ele>
	<time>2025-04-29T07:54:44.000Z</time>
</trkpt>
<trkpt lat="45.9007140" lon="10.3587800">
	<ele>1540.60</ele>
	<time>2025-04-29T07:54:45.000Z</time>
</trkpt>
<trkpt lat="45.9006990" lon="10.3587670">
	<ele>1540.60</ele>
	<time>2025-04-29T07:54:46.000Z</time>
</trkpt>
<trkpt lat="45.9006870" lon="10.3587560">
	<ele>1540.60</ele>
	<time>2025-04-29T07:54:47.000Z</time>
</trkpt>
<trkpt lat="45.9006710" lon="10.3587440">
	<ele>1540.60</ele>
	<time>2025-04-29T07:54:48.000Z</time>
</trkpt>
<trkpt lat="45.9006690" lon="10.3587390">
	<ele>1540.60</ele>
	<time>2025-04-29T07:54:49.000Z</time>
</trkpt>
<trkpt lat="45.9006670" lon="10.3587380">
	<ele>1540.60</ele>
	<time>2025-04-29T07:54:50.000Z</time>
</trkpt>
<trkpt lat="45.9006660" lon="10.3587380">
	<ele>1540.80</ele>
	<time>2025-04-29T07:54:51.000Z</time>
</trkpt>
<trkpt lat="45.9006750" lon="10.3587340">
	<ele>1540.80</ele>
	<time>2025-04-29T07:54:52.000Z</time>
</trkpt>
<trkpt lat="45.9006780" lon="10.3587300">
	<ele>1540.80</ele>
	<time>2025-04-29T07:54:53.000Z</time>
</trkpt>
<trkpt lat="45.9006810" lon="10.3587190">
	<ele>1541.00</ele>
	<time>2025-04-29T07:54:54.000Z</time>
</trkpt>
<trkpt lat="45.9006780" lon="10.3587060">
	<ele>1541.00</ele>
	<time>2025-04-29T07:54:55.000Z</time>
</trkpt>
<trkpt lat="45.9006770" lon="10.3586980">
	<ele>1541.00</ele>
	<time>2025-04-29T07:54:56.000Z</time>
</trkpt>
<trkpt lat="45.9006770" lon="10.3586940">
	<ele>1541.00</ele>
	<time>2025-04-29T07:54:57.000Z</time>
</trkpt>
<trkpt lat="45.9006770" lon="10.3586850">
	<ele>1541.00</ele>
	<time>2025-04-29T07:54:58.000Z</time>
</trkpt>
<trkpt lat="45.9006750" lon="10.3586760">
	<ele>1541.00</ele>
	<time>2025-04-29T07:54:59.000Z</time>
</trkpt>
<trkpt lat="45.9006680" lon="10.3586650">
	<ele>1541.00</ele>
	<time>2025-04-29T07:55:00.000Z</time>
</trkpt>
<trkpt lat="45.9006660" lon="10.3586560">
	<ele>1541.00</ele>
	<time>2025-04-29T07:55:01.000Z</time>
</trkpt>
<trkpt lat="45.9006640" lon="10.3586480">
	<ele>1541.00</ele>
	<time>2025-04-29T07:55:02.000Z</time>
</trkpt>
<trkpt lat="45.9006690" lon="10.3586410">
	<ele>1540.80</ele>
	<time>2025-04-29T07:55:03.000Z</time>
</trkpt>
<trkpt lat="45.9006620" lon="10.3586320">
	<ele>1540.80</ele>
	<time>2025-04-29T07:55:04.000Z</time>
</trkpt>
<trkpt lat="45.9006600" lon="10.3586240">
	<ele>1541.00</ele>
	<time>2025-04-29T07:55:05.000Z</time>
</trkpt>
<trkpt lat="45.9006600" lon="10.3586150">
	<ele>1541.00</ele>
	<time>2025-04-29T07:55:06.000Z</time>
</trkpt>
<trkpt lat="45.9006570" lon="10.3586050">
	<ele>1541.00</ele>
	<time>2025-04-29T07:55:07.000Z</time>
</trkpt>
<trkpt lat="45.9006540" lon="10.3585980">
	<ele>1541.00</ele>
	<time>2025-04-29T07:55:08.000Z</time>
</trkpt>
<trkpt lat="45.9006520" lon="10.3585890">
	<ele>1541.00</ele>
	<time>2025-04-29T07:55:09.000Z</time>
</trkpt>
<trkpt lat="45.9006450" lon="10.3585750">
	<ele>1541.20</ele>
	<time>2025-04-29T07:55:10.000Z</time>
</trkpt>
<trkpt lat="45.9006410" lon="10.3585680">
	<ele>1541.20</ele>
	<time>2025-04-29T07:55:11.000Z</time>
</trkpt>
<trkpt lat="45.9006370" lon="10.3585520">
	<ele>1541.40</ele>
	<time>2025-04-29T07:55:12.000Z</time>
</trkpt>
<trkpt lat="45.9006360" lon="10.3585350">
	<ele>1541.40</ele>
	<time>2025-04-29T07:55:13.000Z</time>
</trkpt>
<trkpt lat="45.9006340" lon="10.3585290">
	<ele>1541.60</ele>
	<time>2025-04-29T07:55:14.000Z</time>
</trkpt>
<trkpt lat="45.9006310" lon="10.3585210">
	<ele>1541.60</ele>
	<time>2025-04-29T07:55:15.000Z</time>
</trkpt>
<trkpt lat="45.9006310" lon="10.3585080">
	<ele>1541.80</ele>
	<time>2025-04-29T07:55:16.000Z</time>
</trkpt>
<trkpt lat="45.9006330" lon="10.3584900">
	<ele>1541.80</ele>
	<time>2025-04-29T07:55:17.000Z</time>
</trkpt>
<trkpt lat="45.9006310" lon="10.3584700">
	<ele>1542.00</ele>
	<time>2025-04-29T07:55:18.000Z</time>
</trkpt>
<trkpt lat="45.9006350" lon="10.3584560">
	<ele>1542.20</ele>
	<time>2025-04-29T07:55:19.000Z</time>
</trkpt>
<trkpt lat="45.9006410" lon="10.3584380">
	<ele>1542.20</ele>
	<time>2025-04-29T07:55:20.000Z</time>
</trkpt>
<trkpt lat="45.9006350" lon="10.3584210">
	<ele>1542.20</ele>
	<time>2025-04-29T07:55:21.000Z</time>
</trkpt>
<trkpt lat="45.9006290" lon="10.3584070">
	<ele>1542.40</ele>
	<time>2025-04-29T07:55:22.000Z</time>
</trkpt>
<trkpt lat="45.9006260" lon="10.3583900">
	<ele>1542.40</ele>
	<time>2025-04-29T07:55:23.000Z</time>
</trkpt>
<trkpt lat="45.9006240" lon="10.3583760">
	<ele>1542.40</ele>
	<time>2025-04-29T07:55:24.000Z</time>
</trkpt>
<trkpt lat="45.9006270" lon="10.3583620">
	<ele>1542.40</ele>
	<time>2025-04-29T07:55:25.000Z</time>
</trkpt>
<trkpt lat="45.9006260" lon="10.3583540">
	<ele>1542.40</ele>
	<time>2025-04-29T07:55:26.000Z</time>
</trkpt>
<trkpt lat="45.9006300" lon="10.3583420">
	<ele>1542.40</ele>
	<time>2025-04-29T07:55:27.000Z</time>
</trkpt>
<trkpt lat="45.9006310" lon="10.3583270">
	<ele>1542.40</ele>
	<time>2025-04-29T07:55:28.000Z</time>
</trkpt>
<trkpt lat="45.9006310" lon="10.3583130">
	<ele>1542.40</ele>
	<time>2025-04-29T07:55:29.000Z</time>
</trkpt>
<trkpt lat="45.9006320" lon="10.3583010">
	<ele>1542.40</ele>
	<time>2025-04-29T07:55:30.000Z</time>
</trkpt>
<trkpt lat="45.9006320" lon="10.3582920">
	<ele>1542.40</ele>
	<time>2025-04-29T07:55:31.000Z</time>
</trkpt>
<trkpt lat="45.9006430" lon="10.3582900">
	<ele>1542.40</ele>
	<time>2025-04-29T07:55:32.000Z</time>
</trkpt>
<trkpt lat="45.9006540" lon="10.3582880">
	<ele>1542.40</ele>
	<time>2025-04-29T07:55:33.000Z</time>
</trkpt>
<trkpt lat="45.9006530" lon="10.3582820">
	<ele>1542.40</ele>
	<time>2025-04-29T07:55:34.000Z</time>
</trkpt>
<trkpt lat="45.9006570" lon="10.3582700">
	<ele>1542.40</ele>
	<time>2025-04-29T07:55:35.000Z</time>
</trkpt>
<trkpt lat="45.9006730" lon="10.3582470">
	<ele>1542.40</ele>
	<time>2025-04-29T07:55:36.000Z</time>
</trkpt>
<trkpt lat="45.9006870" lon="10.3582400">
	<ele>1542.40</ele>
	<time>2025-04-29T07:55:37.000Z</time>
</trkpt>
<trkpt lat="45.9006950" lon="10.3582200">
	<ele>1542.20</ele>
	<time>2025-04-29T07:55:38.000Z</time>
</trkpt>
<trkpt lat="45.9006970" lon="10.3582130">
	<ele>1542.00</ele>
	<time>2025-04-29T07:55:39.000Z</time>
</trkpt>
<trkpt lat="45.9007120" lon="10.3582120">
	<ele>1542.00</ele>
	<time>2025-04-29T07:55:40.000Z</time>
</trkpt>
<trkpt lat="45.9007070" lon="10.3581850">
	<ele>1541.80</ele>
	<time>2025-04-29T07:55:41.000Z</time>
</trkpt>
<trkpt lat="45.9007130" lon="10.3581630">
	<ele>1541.80</ele>
	<time>2025-04-29T07:55:42.000Z</time>
</trkpt>
<trkpt lat="45.9007040" lon="10.3581470">
	<ele>1541.60</ele>
	<time>2025-04-29T07:55:43.000Z</time>
</trkpt>
<trkpt lat="45.9007170" lon="10.3581260">
	<ele>1541.40</ele>
	<time>2025-04-29T07:55:44.000Z</time>
</trkpt>
<trkpt lat="45.9007160" lon="10.3581040">
	<ele>1541.40</ele>
	<time>2025-04-29T07:55:45.000Z</time>
</trkpt>
<trkpt lat="45.9007030" lon="10.3580830">
	<ele>1541.20</ele>
	<time>2025-04-29T07:55:46.000Z</time>
</trkpt>
<trkpt lat="45.9007000" lon="10.3580590">
	<ele>1541.20</ele>
	<time>2025-04-29T07:55:47.000Z</time>
</trkpt>
<trkpt lat="45.9006900" lon="10.3580420">
	<ele>1541.40</ele>
	<time>2025-04-29T07:55:48.000Z</time>
</trkpt>
<trkpt lat="45.9006860" lon="10.3580350">
	<ele>1541.60</ele>
	<time>2025-04-29T07:55:49.000Z</time>
</trkpt>
<trkpt lat="45.9006910" lon="10.3580320">
	<ele>1541.60</ele>
	<time>2025-04-29T07:55:50.000Z</time>
</trkpt>
<trkpt lat="45.9006900" lon="10.3580180">
	<ele>1541.80</ele>
	<time>2025-04-29T07:55:51.000Z</time>
</trkpt>
<trkpt lat="45.9006980" lon="10.3580060">
	<ele>1542.00</ele>
	<time>2025-04-29T07:55:52.000Z</time>
</trkpt>
<trkpt lat="45.9007030" lon="10.3580080">
	<ele>1542.20</ele>
	<time>2025-04-29T07:55:53.000Z</time>
</trkpt>
<trkpt lat="45.9007040" lon="10.3580010">
	<ele>1542.60</ele>
	<time>2025-04-29T07:55:54.000Z</time>
</trkpt>
<trkpt lat="45.9007070" lon="10.3579880">
	<ele>1542.80</ele>
	<time>2025-04-29T07:55:55.000Z</time>
</trkpt>
<trkpt lat="45.9007170" lon="10.3579730">
	<ele>1542.80</ele>
	<time>2025-04-29T07:55:56.000Z</time>
</trkpt>
<trkpt lat="45.9007250" lon="10.3579640">
	<ele>1542.80</ele>
	<time>2025-04-29T07:55:57.000Z</time>
</trkpt>
<trkpt lat="45.9007330" lon="10.3579580">
	<ele>1543.00</ele>
	<time>2025-04-29T07:55:58.000Z</time>
</trkpt>
<trkpt lat="45.9007360" lon="10.3579400">
	<ele>1543.00</ele>
	<time>2025-04-29T07:55:59.000Z</time>
</trkpt>
<trkpt lat="45.9007390" lon="10.3579320">
	<ele>1542.80</ele>
	<time>2025-04-29T07:56:00.000Z</time>
</trkpt>
<trkpt lat="45.9007400" lon="10.3579270">
	<ele>1542.80</ele>
	<time>2025-04-29T07:56:01.000Z</time>
</trkpt>
<trkpt lat="45.9007440" lon="10.3579160">
	<ele>1542.60</ele>
	<time>2025-04-29T07:56:02.000Z</time>
</trkpt>
<trkpt lat="45.9007370" lon="10.3579060">
	<ele>1542.60</ele>
	<time>2025-04-29T07:56:03.000Z</time>
</trkpt>
<trkpt lat="45.9007230" lon="10.3579000">
	<ele>1542.40</ele>
	<time>2025-04-29T07:56:04.000Z</time>
</trkpt>
<trkpt lat="45.9007070" lon="10.3578950">
	<ele>1542.40</ele>
	<time>2025-04-29T07:56:05.000Z</time>
</trkpt>
<trkpt lat="45.9006890" lon="10.3578800">
	<ele>1542.40</ele>
	<time>2025-04-29T07:56:06.000Z</time>
</trkpt>
<trkpt lat="45.9006850" lon="10.3578670">
	<ele>1542.40</ele>
	<time>2025-04-29T07:56:07.000Z</time>
</trkpt>
<trkpt lat="45.9006840" lon="10.3578610">
	<ele>1542.20</ele>
	<time>2025-04-29T07:56:08.000Z</time>
</trkpt>
<trkpt lat="45.9006840" lon="10.3578560">
	<ele>1542.00</ele>
	<time>2025-04-29T07:56:09.000Z</time>
</trkpt>
<trkpt lat="45.9006840" lon="10.3578510">
	<ele>1542.00</ele>
	<time>2025-04-29T07:56:10.000Z</time>
</trkpt>
<trkpt lat="45.9007060" lon="10.3578510">
	<ele>1541.80</ele>
	<time>2025-04-29T07:56:11.000Z</time>
</trkpt>
<trkpt lat="45.9007150" lon="10.3578450">
	<ele>1541.80</ele>
	<time>2025-04-29T07:56:12.000Z</time>
</trkpt>
<trkpt lat="45.9007120" lon="10.3578420">
	<ele>1541.80</ele>
	<time>2025-04-29T07:56:13.000Z</time>
</trkpt>
<trkpt lat="45.9007090" lon="10.3578390">
	<ele>1541.20</ele>
	<time>2025-04-29T07:56:14.000Z</time>
</trkpt>
<trkpt lat="45.9007080" lon="10.3578340">
	<ele>1541.20</ele>
	<time>2025-04-29T07:56:15.000Z</time>
</trkpt>
<trkpt lat="45.9007110" lon="10.3578130">
	<ele>1541.20</ele>
	<time>2025-04-29T07:56:16.000Z</time>
</trkpt>
<trkpt lat="45.9007090" lon="10.3577970">
	<ele>1541.20</ele>
	<time>2025-04-29T07:56:17.000Z</time>
</trkpt>
<trkpt lat="45.9007040" lon="10.3577820">
	<ele>1541.20</ele>
	<time>2025-04-29T07:56:18.000Z</time>
</trkpt>
<trkpt lat="45.9006970" lon="10.3577740">
	<ele>1541.20</ele>
	<time>2025-04-29T07:56:19.000Z</time>
</trkpt>
<trkpt lat="45.9006800" lon="10.3577500">
	<ele>1541.20</ele>
	<time>2025-04-29T07:56:20.000Z</time>
</trkpt>
<trkpt lat="45.9006810" lon="10.3577370">
	<ele>1541.20</ele>
	<time>2025-04-29T07:56:21.000Z</time>
</trkpt>
<trkpt lat="45.9006820" lon="10.3577260">
	<ele>1541.20</ele>
	<time>2025-04-29T07:56:22.000Z</time>
</trkpt>
<trkpt lat="45.9006810" lon="10.3577110">
	<ele>1541.20</ele>
	<time>2025-04-29T07:56:23.000Z</time>
</trkpt>
<trkpt lat="45.9006790" lon="10.3576980">
	<ele>1541.20</ele>
	<time>2025-04-29T07:56:24.000Z</time>
</trkpt>
<trkpt lat="45.9006820" lon="10.3576830">
	<ele>1541.20</ele>
	<time>2025-04-29T07:56:25.000Z</time>
</trkpt>
<trkpt lat="45.9006840" lon="10.3576700">
	<ele>1541.20</ele>
	<time>2025-04-29T07:56:26.000Z</time>
</trkpt>
<trkpt lat="45.9006820" lon="10.3576600">
	<ele>1541.20</ele>
	<time>2025-04-29T07:56:27.000Z</time>
</trkpt>
<trkpt lat="45.9006730" lon="10.3576480">
	<ele>1541.20</ele>
	<time>2025-04-29T07:56:28.000Z</time>
</trkpt>
<trkpt lat="45.9006600" lon="10.3576410">
	<ele>1541.20</ele>
	<time>2025-04-29T07:56:29.000Z</time>
</trkpt>
<trkpt lat="45.9006570" lon="10.3576360">
	<ele>1541.20</ele>
	<time>2025-04-29T07:56:30.000Z</time>
</trkpt>
<trkpt lat="45.9006500" lon="10.3576280">
	<ele>1541.20</ele>
	<time>2025-04-29T07:56:31.000Z</time>
</trkpt>
<trkpt lat="45.9006450" lon="10.3576190">
	<ele>1541.20</ele>
	<time>2025-04-29T07:56:32.000Z</time>
</trkpt>
<trkpt lat="45.9006480" lon="10.3576160">
	<ele>1541.20</ele>
	<time>2025-04-29T07:56:33.000Z</time>
</trkpt>
<trkpt lat="45.9006400" lon="10.3576090">
	<ele>1541.20</ele>
	<time>2025-04-29T07:56:34.000Z</time>
</trkpt>
<trkpt lat="45.9006360" lon="10.3575980">
	<ele>1541.20</ele>
	<time>2025-04-29T07:56:35.000Z</time>
</trkpt>
<trkpt lat="45.9006310" lon="10.3575870">
	<ele>1541.20</ele>
	<time>2025-04-29T07:56:36.000Z</time>
</trkpt>
<trkpt lat="45.9006290" lon="10.3575810">
	<ele>1541.20</ele>
	<time>2025-04-29T07:56:37.000Z</time>
</trkpt>
<trkpt lat="45.9006260" lon="10.3575710">
	<ele>1541.20</ele>
	<time>2025-04-29T07:56:38.000Z</time>
</trkpt>
<trkpt lat="45.9006300" lon="10.3575620">
	<ele>1541.20</ele>
	<time>2025-04-29T07:56:39.000Z</time>
</trkpt>
<trkpt lat="45.9006370" lon="10.3575500">
	<ele>1541.20</ele>
	<time>2025-04-29T07:56:40.000Z</time>
</trkpt>
<trkpt lat="45.9006380" lon="10.3575410">
	<ele>1541.20</ele>
	<time>2025-04-29T07:56:41.000Z</time>
</trkpt>
<trkpt lat="45.9006380" lon="10.3575350">
	<ele>1541.20</ele>
	<time>2025-04-29T07:56:42.000Z</time>
</trkpt>
<trkpt lat="45.9006410" lon="10.3575240">
	<ele>1541.20</ele>
	<time>2025-04-29T07:56:43.000Z</time>
</trkpt>
<trkpt lat="45.9006380" lon="10.3575140">
	<ele>1541.20</ele>
	<time>2025-04-29T07:56:44.000Z</time>
</trkpt>
<trkpt lat="45.9006330" lon="10.3575000">
	<ele>1541.20</ele>
	<time>2025-04-29T07:56:45.000Z</time>
</trkpt>
<trkpt lat="45.9006270" lon="10.3574870">
	<ele>1541.20</ele>
	<time>2025-04-29T07:56:46.000Z</time>
</trkpt>
<trkpt lat="45.9006240" lon="10.3574740">
	<ele>1541.20</ele>
	<time>2025-04-29T07:56:47.000Z</time>
</trkpt>
<trkpt lat="45.9006230" lon="10.3574590">
	<ele>1541.20</ele>
	<time>2025-04-29T07:56:48.000Z</time>
</trkpt>
<trkpt lat="45.9006250" lon="10.3574470">
	<ele>1541.20</ele>
	<time>2025-04-29T07:56:49.000Z</time>
</trkpt>
<trkpt lat="45.9006230" lon="10.3574390">
	<ele>1541.20</ele>
	<time>2025-04-29T07:56:50.000Z</time>
</trkpt>
<trkpt lat="45.9006200" lon="10.3574320">
	<ele>1541.20</ele>
	<time>2025-04-29T07:56:51.000Z</time>
</trkpt>
<trkpt lat="45.9006240" lon="10.3574230">
	<ele>1541.20</ele>
	<time>2025-04-29T07:56:52.000Z</time>
</trkpt>
<trkpt lat="45.9006220" lon="10.3574100">
	<ele>1541.20</ele>
	<time>2025-04-29T07:56:53.000Z</time>
</trkpt>
<trkpt lat="45.9006170" lon="10.3573950">
	<ele>1541.20</ele>
	<time>2025-04-29T07:56:54.000Z</time>
</trkpt>
<trkpt lat="45.9006110" lon="10.3573830">
	<ele>1541.20</ele>
	<time>2025-04-29T07:56:55.000Z</time>
</trkpt>
<trkpt lat="45.9006100" lon="10.3573750">
	<ele>1541.20</ele>
	<time>2025-04-29T07:56:56.000Z</time>
</trkpt>
<trkpt lat="45.9006090" lon="10.3573700">
	<ele>1541.20</ele>
	<time>2025-04-29T07:56:57.000Z</time>
</trkpt>
<trkpt lat="45.9006100" lon="10.3573490">
	<ele>1541.20</ele>
	<time>2025-04-29T07:56:58.000Z</time>
</trkpt>
<trkpt lat="45.9006020" lon="10.3573300">
	<ele>1541.20</ele>
	<time>2025-04-29T07:56:59.000Z</time>
</trkpt>
<trkpt lat="45.9005870" lon="10.3573150">
	<ele>1541.20</ele>
	<time>2025-04-29T07:57:00.000Z</time>
</trkpt>
<trkpt lat="45.9005830" lon="10.3572930">
	<ele>1541.20</ele>
	<time>2025-04-29T07:57:01.000Z</time>
</trkpt>
<trkpt lat="45.9005800" lon="10.3572670">
	<ele>1541.20</ele>
	<time>2025-04-29T07:57:02.000Z</time>
</trkpt>
<trkpt lat="45.9005800" lon="10.3572520">
	<ele>1541.20</ele>
	<time>2025-04-29T07:57:03.000Z</time>
</trkpt>
<trkpt lat="45.9005810" lon="10.3572380">
	<ele>1541.20</ele>
	<time>2025-04-29T07:57:04.000Z</time>
</trkpt>
<trkpt lat="45.9005840" lon="10.3572240">
	<ele>1541.20</ele>
	<time>2025-04-29T07:57:05.000Z</time>
</trkpt>
<trkpt lat="45.9005840" lon="10.3572060">
	<ele>1541.20</ele>
	<time>2025-04-29T07:57:06.000Z</time>
</trkpt>
<trkpt lat="45.9005830" lon="10.3571930">
	<ele>1541.20</ele>
	<time>2025-04-29T07:57:07.000Z</time>
</trkpt>
<trkpt lat="45.9005730" lon="10.3571810">
	<ele>1542.60</ele>
	<time>2025-04-29T07:57:08.000Z</time>
</trkpt>
<trkpt lat="45.9005570" lon="10.3571620">
	<ele>1543.40</ele>
	<time>2025-04-29T07:57:09.000Z</time>
</trkpt>
<trkpt lat="45.9005390" lon="10.3571400">
	<ele>1544.00</ele>
	<time>2025-04-29T07:57:10.000Z</time>
</trkpt>
<trkpt lat="45.9005340" lon="10.3571230">
	<ele>1544.20</ele>
	<time>2025-04-29T07:57:11.000Z</time>
</trkpt>
<trkpt lat="45.9005330" lon="10.3571130">
	<ele>1544.40</ele>
	<time>2025-04-29T07:57:12.000Z</time>
</trkpt>
<trkpt lat="45.9005260" lon="10.3571020">
	<ele>1544.60</ele>
	<time>2025-04-29T07:57:13.000Z</time>
</trkpt>
<trkpt lat="45.9005220" lon="10.3570930">
	<ele>1544.80</ele>
	<time>2025-04-29T07:57:14.000Z</time>
</trkpt>
<trkpt lat="45.9005220" lon="10.3570860">
	<ele>1544.80</ele>
	<time>2025-04-29T07:57:15.000Z</time>
</trkpt>
<trkpt lat="45.9005230" lon="10.3570780">
	<ele>1545.00</ele>
	<time>2025-04-29T07:57:16.000Z</time>
</trkpt>
<trkpt lat="45.9005240" lon="10.3570680">
	<ele>1545.00</ele>
	<time>2025-04-29T07:57:17.000Z</time>
</trkpt>
<trkpt lat="45.9005320" lon="10.3570630">
	<ele>1545.20</ele>
	<time>2025-04-29T07:57:18.000Z</time>
</trkpt>
<trkpt lat="45.9005340" lon="10.3570530">
	<ele>1545.20</ele>
	<time>2025-04-29T07:57:19.000Z</time>
</trkpt>
<trkpt lat="45.9005360" lon="10.3570300">
	<ele>1545.20</ele>
	<time>2025-04-29T07:57:20.000Z</time>
</trkpt>
<trkpt lat="45.9005310" lon="10.3570110">
	<ele>1545.20</ele>
	<time>2025-04-29T07:57:21.000Z</time>
</trkpt>
<trkpt lat="45.9005330" lon="10.3569920">
	<ele>1545.20</ele>
	<time>2025-04-29T07:57:22.000Z</time>
</trkpt>
<trkpt lat="45.9005230" lon="10.3569690">
	<ele>1545.20</ele>
	<time>2025-04-29T07:57:23.000Z</time>
</trkpt>
<trkpt lat="45.9005160" lon="10.3569320">
	<ele>1545.20</ele>
	<time>2025-04-29T07:57:24.000Z</time>
</trkpt>
<trkpt lat="45.9005110" lon="10.3569070">
	<ele>1545.40</ele>
	<time>2025-04-29T07:57:25.000Z</time>
</trkpt>
<trkpt lat="45.9005070" lon="10.3568930">
	<ele>1545.40</ele>
	<time>2025-04-29T07:57:26.000Z</time>
</trkpt>
<trkpt lat="45.9005150" lon="10.3568840">
	<ele>1545.40</ele>
	<time>2025-04-29T07:57:27.000Z</time>
</trkpt>
<trkpt lat="45.9005140" lon="10.3568770">
	<ele>1545.40</ele>
	<time>2025-04-29T07:57:28.000Z</time>
</trkpt>
<trkpt lat="45.9005190" lon="10.3568720">
	<ele>1545.60</ele>
	<time>2025-04-29T07:57:29.000Z</time>
</trkpt>
<trkpt lat="45.9005250" lon="10.3568690">
	<ele>1545.80</ele>
	<time>2025-04-29T07:57:30.000Z</time>
</trkpt>
<trkpt lat="45.9005310" lon="10.3568640">
	<ele>1545.80</ele>
	<time>2025-04-29T07:57:31.000Z</time>
</trkpt>
<trkpt lat="45.9005290" lon="10.3568540">
	<ele>1546.00</ele>
	<time>2025-04-29T07:57:32.000Z</time>
</trkpt>
<trkpt lat="45.9005270" lon="10.3568430">
	<ele>1546.00</ele>
	<time>2025-04-29T07:57:33.000Z</time>
</trkpt>
<trkpt lat="45.9005270" lon="10.3568340">
	<ele>1546.00</ele>
	<time>2025-04-29T07:57:34.000Z</time>
</trkpt>
<trkpt lat="45.9005280" lon="10.3568260">
	<ele>1546.20</ele>
	<time>2025-04-29T07:57:35.000Z</time>
</trkpt>
<trkpt lat="45.9005250" lon="10.3568230">
	<ele>1546.20</ele>
	<time>2025-04-29T07:57:36.000Z</time>
</trkpt>
<trkpt lat="45.9005120" lon="10.3568050">
	<ele>1546.20</ele>
	<time>2025-04-29T07:57:37.000Z</time>
</trkpt>
<trkpt lat="45.9005030" lon="10.3567880">
	<ele>1546.20</ele>
	<time>2025-04-29T07:57:38.000Z</time>
</trkpt>
<trkpt lat="45.9004950" lon="10.3567710">
	<ele>1546.20</ele>
	<time>2025-04-29T07:57:39.000Z</time>
</trkpt>
<trkpt lat="45.9004900" lon="10.3567540">
	<ele>1546.20</ele>
	<time>2025-04-29T07:57:40.000Z</time>
</trkpt>
<trkpt lat="45.9004800" lon="10.3567360">
	<ele>1546.20</ele>
	<time>2025-04-29T07:57:41.000Z</time>
</trkpt>
<trkpt lat="45.9004750" lon="10.3567300">
	<ele>1546.40</ele>
	<time>2025-04-29T07:57:42.000Z</time>
</trkpt>
<trkpt lat="45.9004580" lon="10.3567150">
	<ele>1546.40</ele>
	<time>2025-04-29T07:57:43.000Z</time>
</trkpt>
<trkpt lat="45.9004390" lon="10.3567030">
	<ele>1546.60</ele>
	<time>2025-04-29T07:57:44.000Z</time>
</trkpt>
<trkpt lat="45.9004160" lon="10.3566950">
	<ele>1546.60</ele>
	<time>2025-04-29T07:57:45.000Z</time>
</trkpt>
<trkpt lat="45.9003990" lon="10.3566900">
	<ele>1546.80</ele>
	<time>2025-04-29T07:57:46.000Z</time>
</trkpt>
<trkpt lat="45.9003860" lon="10.3566830">
	<ele>1546.80</ele>
	<time>2025-04-29T07:57:47.000Z</time>
</trkpt>
<trkpt lat="45.9003810" lon="10.3566620">
	<ele>1546.80</ele>
	<time>2025-04-29T07:57:48.000Z</time>
</trkpt>
<trkpt lat="45.9003820" lon="10.3566460">
	<ele>1547.00</ele>
	<time>2025-04-29T07:57:49.000Z</time>
</trkpt>
<trkpt lat="45.9003760" lon="10.3566320">
	<ele>1547.00</ele>
	<time>2025-04-29T07:57:50.000Z</time>
</trkpt>
<trkpt lat="45.9003620" lon="10.3566170">
	<ele>1546.80</ele>
	<time>2025-04-29T07:57:51.000Z</time>
</trkpt>
<trkpt lat="45.9003410" lon="10.3565980">
	<ele>1546.80</ele>
	<time>2025-04-29T07:57:52.000Z</time>
</trkpt>
<trkpt lat="45.9003250" lon="10.3565830">
	<ele>1546.80</ele>
	<time>2025-04-29T07:57:53.000Z</time>
</trkpt>
<trkpt lat="45.9003000" lon="10.3565600">
	<ele>1546.80</ele>
	<time>2025-04-29T07:57:54.000Z</time>
</trkpt>
<trkpt lat="45.9002820" lon="10.3565450">
	<ele>1546.80</ele>
	<time>2025-04-29T07:57:55.000Z</time>
</trkpt>
<trkpt lat="45.9002810" lon="10.3565340">
	<ele>1546.80</ele>
	<time>2025-04-29T07:57:56.000Z</time>
</trkpt>
<trkpt lat="45.9002730" lon="10.3565290">
	<ele>1546.80</ele>
	<time>2025-04-29T07:57:57.000Z</time>
</trkpt>
<trkpt lat="45.9002710" lon="10.3565270">
	<ele>1546.80</ele>
	<time>2025-04-29T07:57:58.000Z</time>
</trkpt>
<trkpt lat="45.9002620" lon="10.3565240">
	<ele>1547.00</ele>
	<time>2025-04-29T07:57:59.000Z</time>
</trkpt>
<trkpt lat="45.9002580" lon="10.3565220">
	<ele>1547.00</ele>
	<time>2025-04-29T07:58:00.000Z</time>
</trkpt>
<trkpt lat="45.9002490" lon="10.3565020">
	<ele>1547.20</ele>
	<time>2025-04-29T07:58:01.000Z</time>
</trkpt>
<trkpt lat="45.9002430" lon="10.3564930">
	<ele>1547.20</ele>
	<time>2025-04-29T07:58:02.000Z</time>
</trkpt>
<trkpt lat="45.9002350" lon="10.3564790">
	<ele>1547.20</ele>
	<time>2025-04-29T07:58:03.000Z</time>
</trkpt>
<trkpt lat="45.9002300" lon="10.3564670">
	<ele>1547.20</ele>
	<time>2025-04-29T07:58:04.000Z</time>
</trkpt>
<trkpt lat="45.9002290" lon="10.3564440">
	<ele>1547.20</ele>
	<time>2025-04-29T07:58:05.000Z</time>
</trkpt>
<trkpt lat="45.9002270" lon="10.3564210">
	<ele>1547.20</ele>
	<time>2025-04-29T07:58:06.000Z</time>
</trkpt>
<trkpt lat="45.9002240" lon="10.3564130">
	<ele>1547.00</ele>
	<time>2025-04-29T07:58:07.000Z</time>
</trkpt>
<trkpt lat="45.9002210" lon="10.3564190">
	<ele>1547.00</ele>
	<time>2025-04-29T07:58:08.000Z</time>
</trkpt>
<trkpt lat="45.9002060" lon="10.3564170">
	<ele>1547.00</ele>
	<time>2025-04-29T07:58:09.000Z</time>
</trkpt>
<trkpt lat="45.9001970" lon="10.3564150">
	<ele>1547.00</ele>
	<time>2025-04-29T07:58:10.000Z</time>
</trkpt>
<trkpt lat="45.9001980" lon="10.3564110">
	<ele>1547.00</ele>
	<time>2025-04-29T07:58:11.000Z</time>
</trkpt>
<trkpt lat="45.9002090" lon="10.3564060">
	<ele>1547.20</ele>
	<time>2025-04-29T07:58:12.000Z</time>
</trkpt>
<trkpt lat="45.9002150" lon="10.3563990">
	<ele>1547.20</ele>
	<time>2025-04-29T07:58:13.000Z</time>
</trkpt>
<trkpt lat="45.9002160" lon="10.3563870">
	<ele>1547.20</ele>
	<time>2025-04-29T07:58:14.000Z</time>
</trkpt>
<trkpt lat="45.9002160" lon="10.3563800">
	<ele>1547.20</ele>
	<time>2025-04-29T07:58:15.000Z</time>
</trkpt>
<trkpt lat="45.9002090" lon="10.3563720">
	<ele>1547.20</ele>
	<time>2025-04-29T07:58:16.000Z</time>
</trkpt>
<trkpt lat="45.9002040" lon="10.3563690">
	<ele>1547.20</ele>
	<time>2025-04-29T07:58:17.000Z</time>
</trkpt>
<trkpt lat="45.9002000" lon="10.3563660">
	<ele>1547.40</ele>
	<time>2025-04-29T07:58:18.000Z</time>
</trkpt>
<trkpt lat="45.9001930" lon="10.3563560">
	<ele>1547.40</ele>
	<time>2025-04-29T07:58:19.000Z</time>
</trkpt>
<trkpt lat="45.9001900" lon="10.3563490">
	<ele>1547.40</ele>
	<time>2025-04-29T07:58:20.000Z</time>
</trkpt>
<trkpt lat="45.9001910" lon="10.3563400">
	<ele>1547.60</ele>
	<time>2025-04-29T07:58:21.000Z</time>
</trkpt>
<trkpt lat="45.9001960" lon="10.3563290">
	<ele>1547.60</ele>
	<time>2025-04-29T07:58:22.000Z</time>
</trkpt>
<trkpt lat="45.9001980" lon="10.3563120">
	<ele>1547.60</ele>
	<time>2025-04-29T07:58:23.000Z</time>
</trkpt>
<trkpt lat="45.9002040" lon="10.3562970">
	<ele>1547.60</ele>
	<time>2025-04-29T07:58:24.000Z</time>
</trkpt>
<trkpt lat="45.9001980" lon="10.3562790">
	<ele>1547.60</ele>
	<time>2025-04-29T07:58:25.000Z</time>
</trkpt>
<trkpt lat="45.9001960" lon="10.3562690">
	<ele>1547.60</ele>
	<time>2025-04-29T07:58:26.000Z</time>
</trkpt>
<trkpt lat="45.9001940" lon="10.3562520">
	<ele>1547.40</ele>
	<time>2025-04-29T07:58:27.000Z</time>
</trkpt>
<trkpt lat="45.9002020" lon="10.3562390">
	<ele>1547.40</ele>
	<time>2025-04-29T07:58:28.000Z</time>
</trkpt>
<trkpt lat="45.9002110" lon="10.3562220">
	<ele>1547.40</ele>
	<time>2025-04-29T07:58:29.000Z</time>
</trkpt>
<trkpt lat="45.9002170" lon="10.3562050">
	<ele>1547.40</ele>
	<time>2025-04-29T07:58:30.000Z</time>
</trkpt>
<trkpt lat="45.9002190" lon="10.3561990">
	<ele>1547.20</ele>
	<time>2025-04-29T07:58:31.000Z</time>
</trkpt>
<trkpt lat="45.9002240" lon="10.3561790">
	<ele>1547.20</ele>
	<time>2025-04-29T07:58:32.000Z</time>
</trkpt>
<trkpt lat="45.9002320" lon="10.3561660">
	<ele>1547.20</ele>
	<time>2025-04-29T07:58:33.000Z</time>
</trkpt>
<trkpt lat="45.9002380" lon="10.3561560">
	<ele>1547.00</ele>
	<time>2025-04-29T07:58:34.000Z</time>
</trkpt>
<trkpt lat="45.9002380" lon="10.3561430">
	<ele>1547.00</ele>
	<time>2025-04-29T07:58:35.000Z</time>
</trkpt>
<trkpt lat="45.9002270" lon="10.3561230">
	<ele>1546.80</ele>
	<time>2025-04-29T07:58:36.000Z</time>
</trkpt>
<trkpt lat="45.9002150" lon="10.3561210">
	<ele>1546.80</ele>
	<time>2025-04-29T07:58:37.000Z</time>
</trkpt>
<trkpt lat="45.9002140" lon="10.3561110">
	<ele>1546.60</ele>
	<time>2025-04-29T07:58:38.000Z</time>
</trkpt>
<trkpt lat="45.9002190" lon="10.3560960">
	<ele>1546.60</ele>
	<time>2025-04-29T07:58:39.000Z</time>
</trkpt>
<trkpt lat="45.9002280" lon="10.3560840">
	<ele>1546.60</ele>
	<time>2025-04-29T07:58:40.000Z</time>
</trkpt>
<trkpt lat="45.9002370" lon="10.3560710">
	<ele>1546.60</ele>
	<time>2025-04-29T07:58:41.000Z</time>
</trkpt>
<trkpt lat="45.9002420" lon="10.3560540">
	<ele>1546.80</ele>
	<time>2025-04-29T07:58:42.000Z</time>
</trkpt>
<trkpt lat="45.9002450" lon="10.3560370">
	<ele>1546.80</ele>
	<time>2025-04-29T07:58:43.000Z</time>
</trkpt>
<trkpt lat="45.9002530" lon="10.3560200">
	<ele>1546.80</ele>
	<time>2025-04-29T07:58:44.000Z</time>
</trkpt>
<trkpt lat="45.9002600" lon="10.3560050">
	<ele>1547.00</ele>
	<time>2025-04-29T07:58:45.000Z</time>
</trkpt>
<trkpt lat="45.9002630" lon="10.3559900">
	<ele>1547.00</ele>
	<time>2025-04-29T07:58:46.000Z</time>
</trkpt>
<trkpt lat="45.9002640" lon="10.3559730">
	<ele>1547.00</ele>
	<time>2025-04-29T07:58:47.000Z</time>
</trkpt>
<trkpt lat="45.9002750" lon="10.3559560">
	<ele>1547.20</ele>
	<time>2025-04-29T07:58:48.000Z</time>
</trkpt>
<trkpt lat="45.9002840" lon="10.3559340">
	<ele>1547.40</ele>
	<time>2025-04-29T07:58:49.000Z</time>
</trkpt>
<trkpt lat="45.9002820" lon="10.3559100">
	<ele>1547.40</ele>
	<time>2025-04-29T07:58:50.000Z</time>
</trkpt>
<trkpt lat="45.9002720" lon="10.3558770">
	<ele>1547.40</ele>
	<time>2025-04-29T07:58:51.000Z</time>
</trkpt>
<trkpt lat="45.9002640" lon="10.3558570">
	<ele>1547.20</ele>
	<time>2025-04-29T07:58:52.000Z</time>
</trkpt>
<trkpt lat="45.9002560" lon="10.3558470">
	<ele>1547.20</ele>
	<time>2025-04-29T07:58:53.000Z</time>
</trkpt>
<trkpt lat="45.9002670" lon="10.3558220">
	<ele>1547.00</ele>
	<time>2025-04-29T07:58:54.000Z</time>
</trkpt>
<trkpt lat="45.9002830" lon="10.3558080">
	<ele>1547.00</ele>
	<time>2025-04-29T07:58:55.000Z</time>
</trkpt>
<trkpt lat="45.9003010" lon="10.3557850">
	<ele>1547.00</ele>
	<time>2025-04-29T07:58:56.000Z</time>
</trkpt>
<trkpt lat="45.9003160" lon="10.3557670">
	<ele>1547.00</ele>
	<time>2025-04-29T07:58:57.000Z</time>
</trkpt>
<trkpt lat="45.9003100" lon="10.3557440">
	<ele>1547.00</ele>
	<time>2025-04-29T07:58:58.000Z</time>
</trkpt>
<trkpt lat="45.9003000" lon="10.3557300">
	<ele>1547.00</ele>
	<time>2025-04-29T07:58:59.000Z</time>
</trkpt>
<trkpt lat="45.9002920" lon="10.3557240">
	<ele>1547.00</ele>
	<time>2025-04-29T07:59:00.000Z</time>
</trkpt>
<trkpt lat="45.9002810" lon="10.3557160">
	<ele>1547.00</ele>
	<time>2025-04-29T07:59:01.000Z</time>
</trkpt>
<trkpt lat="45.9002770" lon="10.3557100">
	<ele>1547.00</ele>
	<time>2025-04-29T07:59:02.000Z</time>
</trkpt>
<trkpt lat="45.9002700" lon="10.3557030">
	<ele>1547.00</ele>
	<time>2025-04-29T07:59:03.000Z</time>
</trkpt>
<trkpt lat="45.9002530" lon="10.3556940">
	<ele>1547.00</ele>
	<time>2025-04-29T07:59:04.000Z</time>
</trkpt>
<trkpt lat="45.9002410" lon="10.3556860">
	<ele>1547.20</ele>
	<time>2025-04-29T07:59:05.000Z</time>
</trkpt>
<trkpt lat="45.9002310" lon="10.3556770">
	<ele>1547.40</ele>
	<time>2025-04-29T07:59:06.000Z</time>
</trkpt>
<trkpt lat="45.9002220" lon="10.3556640">
	<ele>1547.60</ele>
	<time>2025-04-29T07:59:07.000Z</time>
</trkpt>
<trkpt lat="45.9002140" lon="10.3556510">
	<ele>1547.60</ele>
	<time>2025-04-29T07:59:08.000Z</time>
</trkpt>
<trkpt lat="45.9002100" lon="10.3556330">
	<ele>1547.80</ele>
	<time>2025-04-29T07:59:09.000Z</time>
</trkpt>
<trkpt lat="45.9001970" lon="10.3556160">
	<ele>1547.80</ele>
	<time>2025-04-29T07:59:10.000Z</time>
</trkpt>
<trkpt lat="45.9001860" lon="10.3555920">
	<ele>1547.80</ele>
	<time>2025-04-29T07:59:11.000Z</time>
</trkpt>
<trkpt lat="45.9001800" lon="10.3555720">
	<ele>1548.00</ele>
	<time>2025-04-29T07:59:12.000Z</time>
</trkpt>
<trkpt lat="45.9001630" lon="10.3555660">
	<ele>1548.00</ele>
	<time>2025-04-29T07:59:13.000Z</time>
</trkpt>
<trkpt lat="45.9001360" lon="10.3555570">
	<ele>1548.20</ele>
	<time>2025-04-29T07:59:14.000Z</time>
</trkpt>
<trkpt lat="45.9001130" lon="10.3555530">
	<ele>1548.20</ele>
	<time>2025-04-29T07:59:15.000Z</time>
</trkpt>
<trkpt lat="45.9001030" lon="10.3555470">
	<ele>1548.20</ele>
	<time>2025-04-29T07:59:16.000Z</time>
</trkpt>
<trkpt lat="45.9000980" lon="10.3555380">
	<ele>1548.20</ele>
	<time>2025-04-29T07:59:17.000Z</time>
</trkpt>
<trkpt lat="45.9000970" lon="10.3555180">
	<ele>1548.00</ele>
	<time>2025-04-29T07:59:18.000Z</time>
</trkpt>
<trkpt lat="45.9000950" lon="10.3554920">
	<ele>1548.00</ele>
	<time>2025-04-29T07:59:19.000Z</time>
</trkpt>
<trkpt lat="45.9000940" lon="10.3554670">
	<ele>1548.20</ele>
	<time>2025-04-29T07:59:20.000Z</time>
</trkpt>
<trkpt lat="45.9000920" lon="10.3554480">
	<ele>1548.20</ele>
	<time>2025-04-29T07:59:21.000Z</time>
</trkpt>
<trkpt lat="45.9000900" lon="10.3554430">
	<ele>1548.40</ele>
	<time>2025-04-29T07:59:22.000Z</time>
</trkpt>
<trkpt lat="45.9000820" lon="10.3554290">
	<ele>1548.40</ele>
	<time>2025-04-29T07:59:23.000Z</time>
</trkpt>
<trkpt lat="45.9000760" lon="10.3554070">
	<ele>1548.60</ele>
	<time>2025-04-29T07:59:24.000Z</time>
</trkpt>
<trkpt lat="45.9000750" lon="10.3553870">
	<ele>1548.60</ele>
	<time>2025-04-29T07:59:25.000Z</time>
</trkpt>
<trkpt lat="45.9000790" lon="10.3553770">
	<ele>1548.60</ele>
	<time>2025-04-29T07:59:26.000Z</time>
</trkpt>
<trkpt lat="45.9000780" lon="10.3553600">
	<ele>1548.60</ele>
	<time>2025-04-29T07:59:27.000Z</time>
</trkpt>
<trkpt lat="45.9000860" lon="10.3553450">
	<ele>1548.60</ele>
	<time>2025-04-29T07:59:28.000Z</time>
</trkpt>
<trkpt lat="45.9000820" lon="10.3553280">
	<ele>1548.60</ele>
	<time>2025-04-29T07:59:29.000Z</time>
</trkpt>
<trkpt lat="45.9000790" lon="10.3553300">
	<ele>1548.60</ele>
	<time>2025-04-29T07:59:30.000Z</time>
</trkpt>
<trkpt lat="45.9000690" lon="10.3553140">
	<ele>1548.40</ele>
	<time>2025-04-29T07:59:31.000Z</time>
</trkpt>
<trkpt lat="45.9000540" lon="10.3552960">
	<ele>1548.40</ele>
	<time>2025-04-29T07:59:32.000Z</time>
</trkpt>
<trkpt lat="45.9000420" lon="10.3552800">
	<ele>1548.40</ele>
	<time>2025-04-29T07:59:33.000Z</time>
</trkpt>
<trkpt lat="45.9000390" lon="10.3552660">
	<ele>1548.60</ele>
	<time>2025-04-29T07:59:34.000Z</time>
</trkpt>
<trkpt lat="45.9000360" lon="10.3552530">
	<ele>1548.60</ele>
	<time>2025-04-29T07:59:35.000Z</time>
</trkpt>
<trkpt lat="45.9000250" lon="10.3552340">
	<ele>1548.60</ele>
	<time>2025-04-29T07:59:36.000Z</time>
</trkpt>
<trkpt lat="45.9000120" lon="10.3552150">
	<ele>1548.80</ele>
	<time>2025-04-29T07:59:37.000Z</time>
</trkpt>
<trkpt lat="45.9000010" lon="10.3551960">
	<ele>1548.80</ele>
	<time>2025-04-29T07:59:38.000Z</time>
</trkpt>
<trkpt lat="45.8999880" lon="10.3551840">
	<ele>1549.00</ele>
	<time>2025-04-29T07:59:39.000Z</time>
</trkpt>
<trkpt lat="45.8999820" lon="10.3551730">
	<ele>1549.00</ele>
	<time>2025-04-29T07:59:40.000Z</time>
</trkpt>
<trkpt lat="45.8999860" lon="10.3551570">
	<ele>1549.00</ele>
	<time>2025-04-29T07:59:41.000Z</time>
</trkpt>
<trkpt lat="45.8999830" lon="10.3551330">
	<ele>1549.00</ele>
	<time>2025-04-29T07:59:42.000Z</time>
</trkpt>
<trkpt lat="45.8999740" lon="10.3551080">
	<ele>1548.80</ele>
	<time>2025-04-29T07:59:43.000Z</time>
</trkpt>
<trkpt lat="45.8999700" lon="10.3550830">
	<ele>1548.80</ele>
	<time>2025-04-29T07:59:44.000Z</time>
</trkpt>
<trkpt lat="45.8999650" lon="10.3550770">
	<ele>1548.80</ele>
	<time>2025-04-29T07:59:45.000Z</time>
</trkpt>
<trkpt lat="45.8999590" lon="10.3550690">
	<ele>1548.80</ele>
	<time>2025-04-29T07:59:46.000Z</time>
</trkpt>
<trkpt lat="45.8999460" lon="10.3550550">
	<ele>1548.60</ele>
	<time>2025-04-29T07:59:47.000Z</time>
</trkpt>
<trkpt lat="45.8999310" lon="10.3550390">
	<ele>1548.60</ele>
	<time>2025-04-29T07:59:48.000Z</time>
</trkpt>
<trkpt lat="45.8999140" lon="10.3550210">
	<ele>1548.60</ele>
	<time>2025-04-29T07:59:49.000Z</time>
</trkpt>
<trkpt lat="45.8998970" lon="10.3550060">
	<ele>1548.60</ele>
	<time>2025-04-29T07:59:50.000Z</time>
</trkpt>
<trkpt lat="45.8998940" lon="10.3550020">
	<ele>1548.60</ele>
	<time>2025-04-29T07:59:51.000Z</time>
</trkpt>
<trkpt lat="45.8998880" lon="10.3550110">
	<ele>1548.40</ele>
	<time>2025-04-29T07:59:52.000Z</time>
</trkpt>
<trkpt lat="45.8998780" lon="10.3550140">
	<ele>1548.40</ele>
	<time>2025-04-29T07:59:53.000Z</time>
</trkpt>
<trkpt lat="45.8998600" lon="10.3550010">
	<ele>1548.40</ele>
	<time>2025-04-29T07:59:54.000Z</time>
</trkpt>
<trkpt lat="45.8998370" lon="10.3549820">
	<ele>1548.20</ele>
	<time>2025-04-29T07:59:55.000Z</time>
</trkpt>
<trkpt lat="45.8998160" lon="10.3549710">
	<ele>1548.20</ele>
	<time>2025-04-29T07:59:56.000Z</time>
</trkpt>
<trkpt lat="45.8998060" lon="10.3549720">
	<ele>1548.20</ele>
	<time>2025-04-29T07:59:57.000Z</time>
</trkpt>
<trkpt lat="45.8997970" lon="10.3549760">
	<ele>1548.20</ele>
	<time>2025-04-29T07:59:58.000Z</time>
</trkpt>
<trkpt lat="45.8997900" lon="10.3549840">
	<ele>1548.20</ele>
	<time>2025-04-29T07:59:59.000Z</time>
</trkpt>
<trkpt lat="45.8997840" lon="10.3549970">
	<ele>1548.20</ele>
	<time>2025-04-29T08:00:00.000Z</time>
</trkpt>
<trkpt lat="45.8997750" lon="10.3550210">
	<ele>1548.20</ele>
	<time>2025-04-29T08:00:01.000Z</time>
</trkpt>
<trkpt lat="45.8997610" lon="10.3550200">
	<ele>1548.20</ele>
	<time>2025-04-29T08:00:02.000Z</time>
</trkpt>
<trkpt lat="45.8997470" lon="10.3550190">
	<ele>1548.00</ele>
	<time>2025-04-29T08:00:03.000Z</time>
</trkpt>
<trkpt lat="45.8997340" lon="10.3550040">
	<ele>1548.00</ele>
	<time>2025-04-29T08:00:04.000Z</time>
</trkpt>
<trkpt lat="45.8997210" lon="10.3549930">
	<ele>1547.80</ele>
	<time>2025-04-29T08:00:05.000Z</time>
</trkpt>
<trkpt lat="45.8997090" lon="10.3549940">
	<ele>1547.80</ele>
	<time>2025-04-29T08:00:06.000Z</time>
</trkpt>
<trkpt lat="45.8997070" lon="10.3549980">
	<ele>1547.60</ele>
	<time>2025-04-29T08:00:07.000Z</time>
</trkpt>
<trkpt lat="45.8997120" lon="10.3550060">
	<ele>1547.60</ele>
	<time>2025-04-29T08:00:08.000Z</time>
</trkpt>
<trkpt lat="45.8997050" lon="10.3550180">
	<ele>1547.60</ele>
	<time>2025-04-29T08:00:09.000Z</time>
</trkpt>
<trkpt lat="45.8997050" lon="10.3550230">
	<ele>1547.40</ele>
	<time>2025-04-29T08:00:10.000Z</time>
</trkpt>
<trkpt lat="45.8996940" lon="10.3550190">
	<ele>1547.40</ele>
	<time>2025-04-29T08:00:11.000Z</time>
</trkpt>
<trkpt lat="45.8996970" lon="10.3550200">
	<ele>1547.20</ele>
	<time>2025-04-29T08:00:12.000Z</time>
</trkpt>
<trkpt lat="45.8996930" lon="10.3550170">
	<ele>1547.20</ele>
	<time>2025-04-29T08:00:13.000Z</time>
</trkpt>
<trkpt lat="45.8996890" lon="10.3550250">
	<ele>1547.20</ele>
	<time>2025-04-29T08:00:14.000Z</time>
</trkpt>
<trkpt lat="45.8996910" lon="10.3550400">
	<ele>1547.20</ele>
	<time>2025-04-29T08:00:15.000Z</time>
</trkpt>
<trkpt lat="45.8997020" lon="10.3550570">
	<ele>1547.20</ele>
	<time>2025-04-29T08:00:16.000Z</time>
</trkpt>
<trkpt lat="45.8997090" lon="10.3550730">
	<ele>1547.40</ele>
	<time>2025-04-29T08:00:17.000Z</time>
</trkpt>
<trkpt lat="45.8997150" lon="10.3550760">
	<ele>1547.40</ele>
	<time>2025-04-29T08:00:18.000Z</time>
</trkpt>
<trkpt lat="45.8997030" lon="10.3550740">
	<ele>1547.40</ele>
	<time>2025-04-29T08:00:19.000Z</time>
</trkpt>
<trkpt lat="45.8996880" lon="10.3550790">
	<ele>1547.60</ele>
	<time>2025-04-29T08:00:20.000Z</time>
</trkpt>
<trkpt lat="45.8997020" lon="10.3550900">
	<ele>1547.60</ele>
	<time>2025-04-29T08:00:21.000Z</time>
</trkpt>
<trkpt lat="45.8997140" lon="10.3550810">
	<ele>1547.80</ele>
	<time>2025-04-29T08:00:22.000Z</time>
</trkpt>
<trkpt lat="45.8997210" lon="10.3550660">
	<ele>1547.80</ele>
	<time>2025-04-29T08:00:23.000Z</time>
</trkpt>
<trkpt lat="45.8997150" lon="10.3550670">
	<ele>1547.80</ele>
	<time>2025-04-29T08:00:24.000Z</time>
</trkpt>
<trkpt lat="45.8997060" lon="10.3550710">
	<ele>1547.80</ele>
	<time>2025-04-29T08:00:25.000Z</time>
</trkpt>
<trkpt lat="45.8996980" lon="10.3550790">
	<ele>1547.80</ele>
	<time>2025-04-29T08:00:26.000Z</time>
</trkpt>
<trkpt lat="45.8996880" lon="10.3550820">
	<ele>1547.80</ele>
	<time>2025-04-29T08:00:27.000Z</time>
</trkpt>
<trkpt lat="45.8996820" lon="10.3550840">
	<ele>1548.00</ele>
	<time>2025-04-29T08:00:28.000Z</time>
</trkpt>
<trkpt lat="45.8996770" lon="10.3550790">
	<ele>1548.00</ele>
	<time>2025-04-29T08:00:29.000Z</time>
</trkpt>
<trkpt lat="45.8996730" lon="10.3550760">
	<ele>1548.20</ele>
	<time>2025-04-29T08:00:30.000Z</time>
</trkpt>
<trkpt lat="45.8996660" lon="10.3550630">
	<ele>1548.20</ele>
	<time>2025-04-29T08:00:31.000Z</time>
</trkpt>
<trkpt lat="45.8996630" lon="10.3550650">
	<ele>1548.20</ele>
	<time>2025-04-29T08:00:32.000Z</time>
</trkpt>
<trkpt lat="45.8996550" lon="10.3550640">
	<ele>1548.20</ele>
	<time>2025-04-29T08:00:33.000Z</time>
</trkpt>
<trkpt lat="45.8996480" lon="10.3550680">
	<ele>1548.20</ele>
	<time>2025-04-29T08:00:34.000Z</time>
</trkpt>
<trkpt lat="45.8996430" lon="10.3550650">
	<ele>1548.20</ele>
	<time>2025-04-29T08:00:35.000Z</time>
</trkpt>
<trkpt lat="45.8996390" lon="10.3550620">
	<ele>1548.20</ele>
	<time>2025-04-29T08:00:36.000Z</time>
</trkpt>
<trkpt lat="45.8996390" lon="10.3550630">
	<ele>1548.20</ele>
	<time>2025-04-29T08:00:37.000Z</time>
</trkpt>
<trkpt lat="45.8996340" lon="10.3550670">
	<ele>1548.00</ele>
	<time>2025-04-29T08:00:38.000Z</time>
</trkpt>
<trkpt lat="45.8996340" lon="10.3550710">
	<ele>1548.00</ele>
	<time>2025-04-29T08:00:39.000Z</time>
</trkpt>
<trkpt lat="45.8996260" lon="10.3550720">
	<ele>1548.00</ele>
	<time>2025-04-29T08:00:40.000Z</time>
</trkpt>
<trkpt lat="45.8996220" lon="10.3550710">
	<ele>1548.00</ele>
	<time>2025-04-29T08:00:41.000Z</time>
</trkpt>
<trkpt lat="45.8996270" lon="10.3550650">
	<ele>1548.00</ele>
	<time>2025-04-29T08:00:42.000Z</time>
</trkpt>
<trkpt lat="45.8996310" lon="10.3550630">
	<ele>1547.80</ele>
	<time>2025-04-29T08:00:43.000Z</time>
</trkpt>
<trkpt lat="45.8996270" lon="10.3550630">
	<ele>1547.80</ele>
	<time>2025-04-29T08:00:44.000Z</time>
</trkpt>
<trkpt lat="45.8996250" lon="10.3550730">
	<ele>1547.80</ele>
	<time>2025-04-29T08:00:45.000Z</time>
</trkpt>
<trkpt lat="45.8996190" lon="10.3550880">
	<ele>1547.80</ele>
	<time>2025-04-29T08:00:46.000Z</time>
</trkpt>
<trkpt lat="45.8996130" lon="10.3550910">
	<ele>1547.60</ele>
	<time>2025-04-29T08:00:47.000Z</time>
</trkpt>
<trkpt lat="45.8996110" lon="10.3550940">
	<ele>1547.60</ele>
	<time>2025-04-29T08:00:48.000Z</time>
</trkpt>
<trkpt lat="45.8996100" lon="10.3550930">
	<ele>1547.60</ele>
	<time>2025-04-29T08:00:49.000Z</time>
</trkpt>
<trkpt lat="45.8996100" lon="10.3550900">
	<ele>1547.60</ele>
	<time>2025-04-29T08:00:50.000Z</time>
</trkpt>
<trkpt lat="45.8996070" lon="10.3550850">
	<ele>1547.60</ele>
	<time>2025-04-29T08:00:51.000Z</time>
</trkpt>
<trkpt lat="45.8996030" lon="10.3550810">
	<ele>1547.60</ele>
	<time>2025-04-29T08:00:52.000Z</time>
</trkpt>
<trkpt lat="45.8996010" lon="10.3550810">
	<ele>1547.60</ele>
	<time>2025-04-29T08:00:53.000Z</time>
</trkpt>
<trkpt lat="45.8996000" lon="10.3550780">
	<ele>1547.60</ele>
	<time>2025-04-29T08:00:54.000Z</time>
</trkpt>
<trkpt lat="45.8995990" lon="10.3550710">
	<ele>1547.60</ele>
	<time>2025-04-29T08:00:55.000Z</time>
</trkpt>
<trkpt lat="45.8996010" lon="10.3550710">
	<ele>1547.80</ele>
	<time>2025-04-29T08:00:56.000Z</time>
</trkpt>
<trkpt lat="45.8996000" lon="10.3550880">
	<ele>1548.00</ele>
	<time>2025-04-29T08:00:57.000Z</time>
</trkpt>
<trkpt lat="45.8995990" lon="10.3550930">
	<ele>1548.20</ele>
	<time>2025-04-29T08:00:58.000Z</time>
</trkpt>
<trkpt lat="45.8995910" lon="10.3550980">
	<ele>1548.20</ele>
	<time>2025-04-29T08:00:59.000Z</time>
</trkpt>
<trkpt lat="45.8995710" lon="10.3550710">
	<ele>1548.40</ele>
	<time>2025-04-29T08:01:00.000Z</time>
</trkpt>
<trkpt lat="45.8995540" lon="10.3550500">
	<ele>1548.40</ele>
	<time>2025-04-29T08:01:01.000Z</time>
</trkpt>
<trkpt lat="45.8995510" lon="10.3550440">
	<ele>1548.40</ele>
	<time>2025-04-29T08:01:02.000Z</time>
</trkpt>
<trkpt lat="45.8995470" lon="10.3550320">
	<ele>1548.40</ele>
	<time>2025-04-29T08:01:03.000Z</time>
</trkpt>
<trkpt lat="45.8995380" lon="10.3550180">
	<ele>1548.40</ele>
	<time>2025-04-29T08:01:04.000Z</time>
</trkpt>
<trkpt lat="45.8995350" lon="10.3550110">
	<ele>1548.40</ele>
	<time>2025-04-29T08:01:05.000Z</time>
</trkpt>
<trkpt lat="45.8995260" lon="10.3549990">
	<ele>1548.40</ele>
	<time>2025-04-29T08:01:06.000Z</time>
</trkpt>
<trkpt lat="45.8995180" lon="10.3549930">
	<ele>1548.40</ele>
	<time>2025-04-29T08:01:07.000Z</time>
</trkpt>
<trkpt lat="45.8995100" lon="10.3549890">
	<ele>1548.20</ele>
	<time>2025-04-29T08:01:08.000Z</time>
</trkpt>
<trkpt lat="45.8995050" lon="10.3549920">
	<ele>1548.20</ele>
	<time>2025-04-29T08:01:09.000Z</time>
</trkpt>
<trkpt lat="45.8995030" lon="10.3549950">
	<ele>1548.20</ele>
	<time>2025-04-29T08:01:10.000Z</time>
</trkpt>
<trkpt lat="45.8995170" lon="10.3550110">
	<ele>1548.20</ele>
	<time>2025-04-29T08:01:11.000Z</time>
</trkpt>
<trkpt lat="45.8995170" lon="10.3550230">
	<ele>1548.20</ele>
	<time>2025-04-29T08:01:12.000Z</time>
</trkpt>
<trkpt lat="45.8995150" lon="10.3550240">
	<ele>1548.20</ele>
	<time>2025-04-29T08:01:13.000Z</time>
</trkpt>
<trkpt lat="45.8995320" lon="10.3550370">
	<ele>1548.20</ele>
	<time>2025-04-29T08:01:14.000Z</time>
</trkpt>
<trkpt lat="45.8995380" lon="10.3550370">
	<ele>1548.20</ele>
	<time>2025-04-29T08:01:15.000Z</time>
</trkpt>
<trkpt lat="45.8995380" lon="10.3550330">
	<ele>1548.20</ele>
	<time>2025-04-29T08:01:16.000Z</time>
</trkpt>
<trkpt lat="45.8995430" lon="10.3550280">
	<ele>1548.20</ele>
	<time>2025-04-29T08:01:17.000Z</time>
</trkpt>
<trkpt lat="45.8995380" lon="10.3550340">
	<ele>1548.20</ele>
	<time>2025-04-29T08:01:18.000Z</time>
</trkpt>
<trkpt lat="45.8995450" lon="10.3550260">
	<ele>1548.20</ele>
	<time>2025-04-29T08:01:19.000Z</time>
</trkpt>
<trkpt lat="45.8995460" lon="10.3550220">
	<ele>1548.20</ele>
	<time>2025-04-29T08:01:20.000Z</time>
</trkpt>
<trkpt lat="45.8995470" lon="10.3550200">
	<ele>1548.20</ele>
	<time>2025-04-29T08:01:21.000Z</time>
</trkpt>
<trkpt lat="45.8995420" lon="10.3550050">
	<ele>1548.20</ele>
	<time>2025-04-29T08:01:22.000Z</time>
</trkpt>
<trkpt lat="45.8995390" lon="10.3549950">
	<ele>1548.20</ele>
	<time>2025-04-29T08:01:23.000Z</time>
</trkpt>
<trkpt lat="45.8995400" lon="10.3549880">
	<ele>1548.20</ele>
	<time>2025-04-29T08:01:24.000Z</time>
</trkpt>
<trkpt lat="45.8995340" lon="10.3549920">
	<ele>1548.20</ele>
	<time>2025-04-29T08:01:25.000Z</time>
</trkpt>
<trkpt lat="45.8995370" lon="10.3549880">
	<ele>1548.20</ele>
	<time>2025-04-29T08:01:26.000Z</time>
</trkpt>
<trkpt lat="45.8995310" lon="10.3549910">
	<ele>1548.20</ele>
	<time>2025-04-29T08:01:27.000Z</time>
</trkpt>
<trkpt lat="45.8995200" lon="10.3549890">
	<ele>1548.20</ele>
	<time>2025-04-29T08:01:28.000Z</time>
</trkpt>
<trkpt lat="45.8995120" lon="10.3549910">
	<ele>1548.20</ele>
	<time>2025-04-29T08:01:29.000Z</time>
</trkpt>
<trkpt lat="45.8995120" lon="10.3549970">
	<ele>1548.20</ele>
	<time>2025-04-29T08:01:30.000Z</time>
</trkpt>
<trkpt lat="45.8995100" lon="10.3550090">
	<ele>1548.20</ele>
	<time>2025-04-29T08:01:31.000Z</time>
</trkpt>
<trkpt lat="45.8995080" lon="10.3550250">
	<ele>1548.20</ele>
	<time>2025-04-29T08:01:32.000Z</time>
</trkpt>
<trkpt lat="45.8995070" lon="10.3550290">
	<ele>1548.20</ele>
	<time>2025-04-29T08:01:33.000Z</time>
</trkpt>
<trkpt lat="45.8995080" lon="10.3550330">
	<ele>1548.20</ele>
	<time>2025-04-29T08:01:34.000Z</time>
</trkpt>
<trkpt lat="45.8995100" lon="10.3550360">
	<ele>1548.20</ele>
	<time>2025-04-29T08:01:35.000Z</time>
</trkpt>
<trkpt lat="45.8995110" lon="10.3550380">
	<ele>1548.20</ele>
	<time>2025-04-29T08:01:36.000Z</time>
</trkpt>
<trkpt lat="45.8995030" lon="10.3550250">
	<ele>1548.20</ele>
	<time>2025-04-29T08:01:37.000Z</time>
</trkpt>
<trkpt lat="45.8995010" lon="10.3550210">
	<ele>1548.20</ele>
	<time>2025-04-29T08:01:38.000Z</time>
</trkpt>
<trkpt lat="45.8994910" lon="10.3550140">
	<ele>1548.20</ele>
	<time>2025-04-29T08:01:39.000Z</time>
</trkpt>
<trkpt lat="45.8994900" lon="10.3550130">
	<ele>1548.20</ele>
	<time>2025-04-29T08:01:40.000Z</time>
</trkpt>
<trkpt lat="45.8994870" lon="10.3550010">
	<ele>1548.20</ele>
	<time>2025-04-29T08:01:41.000Z</time>
</trkpt>
<trkpt lat="45.8994830" lon="10.3549880">
	<ele>1548.20</ele>
	<time>2025-04-29T08:01:42.000Z</time>
</trkpt>
<trkpt lat="45.8994790" lon="10.3549800">
	<ele>1548.20</ele>
	<time>2025-04-29T08:01:43.000Z</time>
</trkpt>
<trkpt lat="45.8994800" lon="10.3549850">
	<ele>1548.20</ele>
	<time>2025-04-29T08:01:44.000Z</time>
</trkpt>
<trkpt lat="45.8994760" lon="10.3549860">
	<ele>1548.20</ele>
	<time>2025-04-29T08:01:45.000Z</time>
</trkpt>
<trkpt lat="45.8994730" lon="10.3549900">
	<ele>1548.20</ele>
	<time>2025-04-29T08:01:46.000Z</time>
</trkpt>
<trkpt lat="45.8994710" lon="10.3549900">
	<ele>1548.20</ele>
	<time>2025-04-29T08:01:47.000Z</time>
</trkpt>
<trkpt lat="45.8994700" lon="10.3550030">
	<ele>1548.20</ele>
	<time>2025-04-29T08:01:48.000Z</time>
</trkpt>
<trkpt lat="45.8994730" lon="10.3550190">
	<ele>1548.20</ele>
	<time>2025-04-29T08:01:49.000Z</time>
</trkpt>
<trkpt lat="45.8994720" lon="10.3550180">
	<ele>1548.20</ele>
	<time>2025-04-29T08:01:50.000Z</time>
</trkpt>
<trkpt lat="45.8994720" lon="10.3550180">
	<ele>1548.20</ele>
	<time>2025-04-29T08:01:51.000Z</time>
</trkpt>
<trkpt lat="45.8994720" lon="10.3550180">
	<ele>1548.20</ele>
	<time>2025-04-29T08:01:52.000Z</time>
</trkpt>
<trkpt lat="45.8994720" lon="10.3550180">
	<ele>1548.20</ele>
	<time>2025-04-29T08:01:53.000Z</time>
</trkpt>
<trkpt lat="45.8994720" lon="10.3550180">
	<ele>1548.20</ele>
	<time>2025-04-29T08:01:54.000Z</time>
</trkpt>
<trkpt lat="45.8994720" lon="10.3550180">
	<ele>1548.20</ele>
	<time>2025-04-29T08:01:55.000Z</time>
</trkpt>
<trkpt lat="45.8994720" lon="10.3550180">
	<ele>1548.20</ele>
	<time>2025-04-29T08:01:56.000Z</time>
</trkpt>
<trkpt lat="45.8994700" lon="10.3550160">
	<ele>1548.20</ele>
	<time>2025-04-29T08:01:57.000Z</time>
</trkpt>
<trkpt lat="45.8994620" lon="10.3550030">
	<ele>1548.20</ele>
	<time>2025-04-29T08:01:58.000Z</time>
</trkpt>
<trkpt lat="45.8994580" lon="10.3549980">
	<ele>1548.20</ele>
	<time>2025-04-29T08:01:59.000Z</time>
</trkpt>
<trkpt lat="45.8994530" lon="10.3549950">
	<ele>1548.20</ele>
	<time>2025-04-29T08:02:00.000Z</time>
</trkpt>
<trkpt lat="45.8994440" lon="10.3549890">
	<ele>1548.20</ele>
	<time>2025-04-29T08:02:01.000Z</time>
</trkpt>
<trkpt lat="45.8994380" lon="10.3549880">
	<ele>1548.20</ele>
	<time>2025-04-29T08:02:02.000Z</time>
</trkpt>
<trkpt lat="45.8994350" lon="10.3549840">
	<ele>1548.20</ele>
	<time>2025-04-29T08:02:03.000Z</time>
</trkpt>
<trkpt lat="45.8994320" lon="10.3549800">
	<ele>1548.20</ele>
	<time>2025-04-29T08:02:04.000Z</time>
</trkpt>
<trkpt lat="45.8994260" lon="10.3549800">
	<ele>1548.20</ele>
	<time>2025-04-29T08:02:05.000Z</time>
</trkpt>
<trkpt lat="45.8994210" lon="10.3549750">
	<ele>1548.20</ele>
	<time>2025-04-29T08:02:06.000Z</time>
</trkpt>
<trkpt lat="45.8994210" lon="10.3549730">
	<ele>1548.20</ele>
	<time>2025-04-29T08:02:07.000Z</time>
</trkpt>
<trkpt lat="45.8994230" lon="10.3549690">
	<ele>1548.20</ele>
	<time>2025-04-29T08:02:08.000Z</time>
</trkpt>
<trkpt lat="45.8994220" lon="10.3549670">
	<ele>1548.20</ele>
	<time>2025-04-29T08:02:09.000Z</time>
</trkpt>
<trkpt lat="45.8994210" lon="10.3549640">
	<ele>1548.20</ele>
	<time>2025-04-29T08:02:10.000Z</time>
</trkpt>
<trkpt lat="45.8994250" lon="10.3549690">
	<ele>1548.20</ele>
	<time>2025-04-29T08:02:11.000Z</time>
</trkpt>
<trkpt lat="45.8994310" lon="10.3549710">
	<ele>1548.20</ele>
	<time>2025-04-29T08:02:12.000Z</time>
</trkpt>
<trkpt lat="45.8994320" lon="10.3549660">
	<ele>1548.20</ele>
	<time>2025-04-29T08:02:13.000Z</time>
</trkpt>
<trkpt lat="45.8994270" lon="10.3549610">
	<ele>1548.20</ele>
	<time>2025-04-29T08:02:14.000Z</time>
</trkpt>
<trkpt lat="45.8994250" lon="10.3549590">
	<ele>1548.20</ele>
	<time>2025-04-29T08:02:15.000Z</time>
</trkpt>
<trkpt lat="45.8994250" lon="10.3549590">
	<ele>1548.20</ele>
	<time>2025-04-29T08:02:16.000Z</time>
</trkpt>
<trkpt lat="45.8994240" lon="10.3549580">
	<ele>1548.20</ele>
	<time>2025-04-29T08:02:17.000Z</time>
</trkpt>
<trkpt lat="45.8994210" lon="10.3549560">
	<ele>1548.20</ele>
	<time>2025-04-29T08:02:18.000Z</time>
</trkpt>
<trkpt lat="45.8994180" lon="10.3549580">
	<ele>1548.20</ele>
	<time>2025-04-29T08:02:19.000Z</time>
</trkpt>
<trkpt lat="45.8994120" lon="10.3549570">
	<ele>1548.20</ele>
	<time>2025-04-29T08:02:20.000Z</time>
</trkpt>
<trkpt lat="45.8994010" lon="10.3549530">
	<ele>1548.20</ele>
	<time>2025-04-29T08:02:21.000Z</time>
</trkpt>
<trkpt lat="45.8993910" lon="10.3549540">
	<ele>1548.20</ele>
	<time>2025-04-29T08:02:22.000Z</time>
</trkpt>
<trkpt lat="45.8993800" lon="10.3549620">
	<ele>1548.20</ele>
	<time>2025-04-29T08:02:23.000Z</time>
</trkpt>
<trkpt lat="45.8993730" lon="10.3549700">
	<ele>1548.20</ele>
	<time>2025-04-29T08:02:24.000Z</time>
</trkpt>
<trkpt lat="45.8993620" lon="10.3549790">
	<ele>1548.20</ele>
	<time>2025-04-29T08:02:25.000Z</time>
</trkpt>
<trkpt lat="45.8993530" lon="10.3549810">
	<ele>1548.20</ele>
	<time>2025-04-29T08:02:26.000Z</time>
</trkpt>
<trkpt lat="45.8993510" lon="10.3549800">
	<ele>1548.20</ele>
	<time>2025-04-29T08:02:27.000Z</time>
</trkpt>
<trkpt lat="45.8993520" lon="10.3549750">
	<ele>1548.20</ele>
	<time>2025-04-29T08:02:28.000Z</time>
</trkpt>
<trkpt lat="45.8993590" lon="10.3549680">
	<ele>1548.20</ele>
	<time>2025-04-29T08:02:29.000Z</time>
</trkpt>
<trkpt lat="45.8993600" lon="10.3549660">
	<ele>1548.20</ele>
	<time>2025-04-29T08:02:30.000Z</time>
</trkpt>
<trkpt lat="45.8993650" lon="10.3549710">
	<ele>1548.20</ele>
	<time>2025-04-29T08:02:31.000Z</time>
</trkpt>
<trkpt lat="45.8993770" lon="10.3549780">
	<ele>1548.20</ele>
	<time>2025-04-29T08:02:32.000Z</time>
</trkpt>
<trkpt lat="45.8994040" lon="10.3549760">
	<ele>1548.20</ele>
	<time>2025-04-29T08:02:33.000Z</time>
</trkpt>
<trkpt lat="45.8994180" lon="10.3549750">
	<ele>1548.20</ele>
	<time>2025-04-29T08:02:34.000Z</time>
</trkpt>
<trkpt lat="45.8994240" lon="10.3549710">
	<ele>1548.20</ele>
	<time>2025-04-29T08:02:35.000Z</time>
</trkpt>
<trkpt lat="45.8994210" lon="10.3549690">
	<ele>1548.20</ele>
	<time>2025-04-29T08:02:36.000Z</time>
</trkpt>
<trkpt lat="45.8994120" lon="10.3549620">
	<ele>1548.20</ele>
	<time>2025-04-29T08:02:37.000Z</time>
</trkpt>
<trkpt lat="45.8994000" lon="10.3549550">
	<ele>1548.20</ele>
	<time>2025-04-29T08:02:38.000Z</time>
</trkpt>
<trkpt lat="45.8993920" lon="10.3549720">
	<ele>1548.20</ele>
	<time>2025-04-29T08:02:39.000Z</time>
</trkpt>
<trkpt lat="45.8993860" lon="10.3549910">
	<ele>1548.20</ele>
	<time>2025-04-29T08:02:40.000Z</time>
</trkpt>
<trkpt lat="45.8993740" lon="10.3550030">
	<ele>1548.20</ele>
	<time>2025-04-29T08:02:41.000Z</time>
</trkpt>
<trkpt lat="45.8993610" lon="10.3550020">
	<ele>1548.20</ele>
	<time>2025-04-29T08:02:42.000Z</time>
</trkpt>
<trkpt lat="45.8993460" lon="10.3550060">
	<ele>1548.20</ele>
	<time>2025-04-29T08:02:43.000Z</time>
</trkpt>
<trkpt lat="45.8993320" lon="10.3550150">
	<ele>1548.20</ele>
	<time>2025-04-29T08:02:44.000Z</time>
</trkpt>
<trkpt lat="45.8993210" lon="10.3550220">
	<ele>1548.20</ele>
	<time>2025-04-29T08:02:45.000Z</time>
</trkpt>
<trkpt lat="45.8993160" lon="10.3550320">
	<ele>1548.20</ele>
	<time>2025-04-29T08:02:46.000Z</time>
</trkpt>
<trkpt lat="45.8993080" lon="10.3550360">
	<ele>1548.20</ele>
	<time>2025-04-29T08:02:47.000Z</time>
</trkpt>
<trkpt lat="45.8993000" lon="10.3550360">
	<ele>1548.20</ele>
	<time>2025-04-29T08:02:48.000Z</time>
</trkpt>
<trkpt lat="45.8992890" lon="10.3550430">
	<ele>1548.20</ele>
	<time>2025-04-29T08:02:49.000Z</time>
</trkpt>
<trkpt lat="45.8992780" lon="10.3550510">
	<ele>1548.20</ele>
	<time>2025-04-29T08:02:50.000Z</time>
</trkpt>
<trkpt lat="45.8992660" lon="10.3550520">
	<ele>1548.20</ele>
	<time>2025-04-29T08:02:51.000Z</time>
</trkpt>
<trkpt lat="45.8992450" lon="10.3550130">
	<ele>1548.20</ele>
	<time>2025-04-29T08:02:52.000Z</time>
</trkpt>
<trkpt lat="45.8992260" lon="10.3549850">
	<ele>1548.20</ele>
	<time>2025-04-29T08:02:53.000Z</time>
</trkpt>
<trkpt lat="45.8992200" lon="10.3549830">
	<ele>1548.20</ele>
	<time>2025-04-29T08:02:54.000Z</time>
</trkpt>
<trkpt lat="45.8992150" lon="10.3549770">
	<ele>1548.20</ele>
	<time>2025-04-29T08:02:55.000Z</time>
</trkpt>
<trkpt lat="45.8992030" lon="10.3549630">
	<ele>1548.20</ele>
	<time>2025-04-29T08:02:56.000Z</time>
</trkpt>
<trkpt lat="45.8991960" lon="10.3549680">
	<ele>1548.20</ele>
	<time>2025-04-29T08:02:57.000Z</time>
</trkpt>
<trkpt lat="45.8991840" lon="10.3549710">
	<ele>1548.20</ele>
	<time>2025-04-29T08:02:58.000Z</time>
</trkpt>
<trkpt lat="45.8991740" lon="10.3549780">
	<ele>1548.20</ele>
	<time>2025-04-29T08:02:59.000Z</time>
</trkpt>
<trkpt lat="45.8991620" lon="10.3549750">
	<ele>1548.20</ele>
	<time>2025-04-29T08:03:00.000Z</time>
</trkpt>
<trkpt lat="45.8991510" lon="10.3549690">
	<ele>1548.20</ele>
	<time>2025-04-29T08:03:01.000Z</time>
</trkpt>
<trkpt lat="45.8991380" lon="10.3549570">
	<ele>1548.20</ele>
	<time>2025-04-29T08:03:02.000Z</time>
</trkpt>
<trkpt lat="45.8991330" lon="10.3549480">
	<ele>1548.20</ele>
	<time>2025-04-29T08:03:03.000Z</time>
</trkpt>
<trkpt lat="45.8991300" lon="10.3549240">
	<ele>1548.20</ele>
	<time>2025-04-29T08:03:04.000Z</time>
</trkpt>
<trkpt lat="45.8991380" lon="10.3549240">
	<ele>1548.20</ele>
	<time>2025-04-29T08:03:05.000Z</time>
</trkpt>
<trkpt lat="45.8991290" lon="10.3549300">
	<ele>1548.20</ele>
	<time>2025-04-29T08:03:06.000Z</time>
</trkpt>
<trkpt lat="45.8991160" lon="10.3549310">
	<ele>1548.20</ele>
	<time>2025-04-29T08:03:07.000Z</time>
</trkpt>
<trkpt lat="45.8991050" lon="10.3549410">
	<ele>1548.20</ele>
	<time>2025-04-29T08:03:08.000Z</time>
</trkpt>
<trkpt lat="45.8990980" lon="10.3549470">
	<ele>1548.20</ele>
	<time>2025-04-29T08:03:09.000Z</time>
</trkpt>
<trkpt lat="45.8990870" lon="10.3549510">
	<ele>1548.20</ele>
	<time>2025-04-29T08:03:10.000Z</time>
</trkpt>
<trkpt lat="45.8990880" lon="10.3549430">
	<ele>1548.20</ele>
	<time>2025-04-29T08:03:11.000Z</time>
</trkpt>
<trkpt lat="45.8990910" lon="10.3549380">
	<ele>1548.20</ele>
	<time>2025-04-29T08:03:12.000Z</time>
</trkpt>
<trkpt lat="45.8990850" lon="10.3549250">
	<ele>1548.20</ele>
	<time>2025-04-29T08:03:13.000Z</time>
</trkpt>
<trkpt lat="45.8990770" lon="10.3549180">
	<ele>1548.20</ele>
	<time>2025-04-29T08:03:14.000Z</time>
</trkpt>
<trkpt lat="45.8990650" lon="10.3549140">
	<ele>1548.20</ele>
	<time>2025-04-29T08:03:15.000Z</time>
</trkpt>
<trkpt lat="45.8990480" lon="10.3549110">
	<ele>1548.20</ele>
	<time>2025-04-29T08:03:16.000Z</time>
</trkpt>
<trkpt lat="45.8990340" lon="10.3549090">
	<ele>1548.20</ele>
	<time>2025-04-29T08:03:17.000Z</time>
</trkpt>
<trkpt lat="45.8990190" lon="10.3549220">
	<ele>1549.00</ele>
	<time>2025-04-29T08:03:18.000Z</time>
</trkpt>
<trkpt lat="45.8990040" lon="10.3549160">
	<ele>1549.60</ele>
	<time>2025-04-29T08:03:19.000Z</time>
</trkpt>
<trkpt lat="45.8989880" lon="10.3549080">
	<ele>1550.00</ele>
	<time>2025-04-29T08:03:20.000Z</time>
</trkpt>
<trkpt lat="45.8989720" lon="10.3549100">
	<ele>1550.20</ele>
	<time>2025-04-29T08:03:21.000Z</time>
</trkpt>
<trkpt lat="45.8989530" lon="10.3549190">
	<ele>1550.40</ele>
	<time>2025-04-29T08:03:22.000Z</time>
</trkpt>
<trkpt lat="45.8989310" lon="10.3549310">
	<ele>1550.60</ele>
	<time>2025-04-29T08:03:23.000Z</time>
</trkpt>
<trkpt lat="45.8989140" lon="10.3549450">
	<ele>1550.60</ele>
	<time>2025-04-29T08:03:24.000Z</time>
</trkpt>
<trkpt lat="45.8988920" lon="10.3549500">
	<ele>1550.80</ele>
	<time>2025-04-29T08:03:25.000Z</time>
</trkpt>
<trkpt lat="45.8988790" lon="10.3549540">
	<ele>1550.80</ele>
	<time>2025-04-29T08:03:26.000Z</time>
</trkpt>
<trkpt lat="45.8988660" lon="10.3549580">
	<ele>1550.80</ele>
	<time>2025-04-29T08:03:27.000Z</time>
</trkpt>
<trkpt lat="45.8988580" lon="10.3549630">
	<ele>1550.80</ele>
	<time>2025-04-29T08:03:28.000Z</time>
</trkpt>
<trkpt lat="45.8988500" lon="10.3549700">
	<ele>1550.60</ele>
	<time>2025-04-29T08:03:29.000Z</time>
</trkpt>
<trkpt lat="45.8988410" lon="10.3549710">
	<ele>1550.60</ele>
	<time>2025-04-29T08:03:30.000Z</time>
</trkpt>
<trkpt lat="45.8988290" lon="10.3549600">
	<ele>1550.40</ele>
	<time>2025-04-29T08:03:31.000Z</time>
</trkpt>
<trkpt lat="45.8988130" lon="10.3549500">
	<ele>1550.40</ele>
	<time>2025-04-29T08:03:32.000Z</time>
</trkpt>
<trkpt lat="45.8988010" lon="10.3549390">
	<ele>1550.20</ele>
	<time>2025-04-29T08:03:33.000Z</time>
</trkpt>
<trkpt lat="45.8987990" lon="10.3549420">
	<ele>1550.20</ele>
	<time>2025-04-29T08:03:34.000Z</time>
</trkpt>
<trkpt lat="45.8988010" lon="10.3549310">
	<ele>1550.20</ele>
	<time>2025-04-29T08:03:35.000Z</time>
</trkpt>
<trkpt lat="45.8988090" lon="10.3549240">
	<ele>1550.20</ele>
	<time>2025-04-29T08:03:36.000Z</time>
</trkpt>
<trkpt lat="45.8988190" lon="10.3549170">
	<ele>1550.40</ele>
	<time>2025-04-29T08:03:37.000Z</time>
</trkpt>
<trkpt lat="45.8988230" lon="10.3549080">
	<ele>1550.40</ele>
	<time>2025-04-29T08:03:38.000Z</time>
</trkpt>
<trkpt lat="45.8988230" lon="10.3548990">
	<ele>1550.40</ele>
	<time>2025-04-29T08:03:39.000Z</time>
</trkpt>
<trkpt lat="45.8988180" lon="10.3548930">
	<ele>1550.40</ele>
	<time>2025-04-29T08:03:40.000Z</time>
</trkpt>
<trkpt lat="45.8988070" lon="10.3548840">
	<ele>1550.40</ele>
	<time>2025-04-29T08:03:41.000Z</time>
</trkpt>
<trkpt lat="45.8987890" lon="10.3548700">
	<ele>1550.20</ele>
	<time>2025-04-29T08:03:42.000Z</time>
</trkpt>
<trkpt lat="45.8987790" lon="10.3548600">
	<ele>1550.20</ele>
	<time>2025-04-29T08:03:43.000Z</time>
</trkpt>
<trkpt lat="45.8987790" lon="10.3548500">
	<ele>1550.20</ele>
	<time>2025-04-29T08:03:44.000Z</time>
</trkpt>
<trkpt lat="45.8987790" lon="10.3548360">
	<ele>1550.00</ele>
	<time>2025-04-29T08:03:45.000Z</time>
</trkpt>
<trkpt lat="45.8987810" lon="10.3548300">
	<ele>1550.00</ele>
	<time>2025-04-29T08:03:46.000Z</time>
</trkpt>
<trkpt lat="45.8987770" lon="10.3548100">
	<ele>1550.00</ele>
	<time>2025-04-29T08:03:47.000Z</time>
</trkpt>
<trkpt lat="45.8987700" lon="10.3547930">
	<ele>1549.80</ele>
	<time>2025-04-29T08:03:48.000Z</time>
</trkpt>
<trkpt lat="45.8987630" lon="10.3547840">
	<ele>1549.80</ele>
	<time>2025-04-29T08:03:49.000Z</time>
</trkpt>
<trkpt lat="45.8987550" lon="10.3547710">
	<ele>1549.80</ele>
	<time>2025-04-29T08:03:50.000Z</time>
</trkpt>
<trkpt lat="45.8987470" lon="10.3547590">
	<ele>1549.80</ele>
	<time>2025-04-29T08:03:51.000Z</time>
</trkpt>
<trkpt lat="45.8987450" lon="10.3547510">
	<ele>1549.80</ele>
	<time>2025-04-29T08:03:52.000Z</time>
</trkpt>
<trkpt lat="45.8987310" lon="10.3547480">
	<ele>1549.80</ele>
	<time>2025-04-29T08:03:53.000Z</time>
</trkpt>
<trkpt lat="45.8987220" lon="10.3547480">
	<ele>1549.80</ele>
	<time>2025-04-29T08:03:54.000Z</time>
</trkpt>
<trkpt lat="45.8987140" lon="10.3547450">
	<ele>1550.00</ele>
	<time>2025-04-29T08:03:55.000Z</time>
</trkpt>
<trkpt lat="45.8987080" lon="10.3547450">
	<ele>1550.00</ele>
	<time>2025-04-29T08:03:56.000Z</time>
</trkpt>
<trkpt lat="45.8987030" lon="10.3547440">
	<ele>1550.00</ele>
	<time>2025-04-29T08:03:57.000Z</time>
</trkpt>
<trkpt lat="45.8986940" lon="10.3547330">
	<ele>1549.80</ele>
	<time>2025-04-29T08:03:58.000Z</time>
</trkpt>
<trkpt lat="45.8986860" lon="10.3547220">
	<ele>1549.80</ele>
	<time>2025-04-29T08:03:59.000Z</time>
</trkpt>
<trkpt lat="45.8986790" lon="10.3547190">
	<ele>1549.80</ele>
	<time>2025-04-29T08:04:00.000Z</time>
</trkpt>
<trkpt lat="45.8986630" lon="10.3547150">
	<ele>1549.80</ele>
	<time>2025-04-29T08:04:01.000Z</time>
</trkpt>
<trkpt lat="45.8986540" lon="10.3547070">
	<ele>1549.80</ele>
	<time>2025-04-29T08:04:02.000Z</time>
</trkpt>
<trkpt lat="45.8986460" lon="10.3547030">
	<ele>1549.80</ele>
	<time>2025-04-29T08:04:03.000Z</time>
</trkpt>
<trkpt lat="45.8986340" lon="10.3546990">
	<ele>1549.80</ele>
	<time>2025-04-29T08:04:04.000Z</time>
</trkpt>
<trkpt lat="45.8986190" lon="10.3546950">
	<ele>1549.80</ele>
	<time>2025-04-29T08:04:05.000Z</time>
</trkpt>
<trkpt lat="45.8986180" lon="10.3546920">
	<ele>1549.80</ele>
	<time>2025-04-29T08:04:06.000Z</time>
</trkpt>
<trkpt lat="45.8986070" lon="10.3546870">
	<ele>1549.80</ele>
	<time>2025-04-29T08:04:07.000Z</time>
</trkpt>
<trkpt lat="45.8986000" lon="10.3546790">
	<ele>1549.60</ele>
	<time>2025-04-29T08:04:08.000Z</time>
</trkpt>
<trkpt lat="45.8985970" lon="10.3546700">
	<ele>1549.60</ele>
	<time>2025-04-29T08:04:09.000Z</time>
</trkpt>
<trkpt lat="45.8985880" lon="10.3546600">
	<ele>1549.60</ele>
	<time>2025-04-29T08:04:10.000Z</time>
</trkpt>
<trkpt lat="45.8985730" lon="10.3546490">
	<ele>1549.60</ele>
	<time>2025-04-29T08:04:11.000Z</time>
</trkpt>
<trkpt lat="45.8985880" lon="10.3546480">
	<ele>1549.60</ele>
	<time>2025-04-29T08:04:12.000Z</time>
</trkpt>
<trkpt lat="45.8985870" lon="10.3546380">
	<ele>1549.60</ele>
	<time>2025-04-29T08:04:13.000Z</time>
</trkpt>
<trkpt lat="45.8985760" lon="10.3546300">
	<ele>1549.60</ele>
	<time>2025-04-29T08:04:14.000Z</time>
</trkpt>
<trkpt lat="45.8985600" lon="10.3546200">
	<ele>1549.40</ele>
	<time>2025-04-29T08:04:15.000Z</time>
</trkpt>
<trkpt lat="45.8985340" lon="10.3546050">
	<ele>1549.40</ele>
	<time>2025-04-29T08:04:16.000Z</time>
</trkpt>
<trkpt lat="45.8985070" lon="10.3546010">
	<ele>1549.20</ele>
	<time>2025-04-29T08:04:17.000Z</time>
</trkpt>
<trkpt lat="45.8984960" lon="10.3545920">
	<ele>1549.20</ele>
	<time>2025-04-29T08:04:18.000Z</time>
</trkpt>
<trkpt lat="45.8984750" lon="10.3545810">
	<ele>1549.20</ele>
	<time>2025-04-29T08:04:19.000Z</time>
</trkpt>
<trkpt lat="45.8984630" lon="10.3545670">
	<ele>1549.40</ele>
	<time>2025-04-29T08:04:20.000Z</time>
</trkpt>
<trkpt lat="45.8984530" lon="10.3545470">
	<ele>1549.40</ele>
	<time>2025-04-29T08:04:21.000Z</time>
</trkpt>
<trkpt lat="45.8984450" lon="10.3545300">
	<ele>1549.40</ele>
	<time>2025-04-29T08:04:22.000Z</time>
</trkpt>
<trkpt lat="45.8984380" lon="10.3545210">
	<ele>1549.60</ele>
	<time>2025-04-29T08:04:23.000Z</time>
</trkpt>
<trkpt lat="45.8984310" lon="10.3545210">
	<ele>1549.60</ele>
	<time>2025-04-29T08:04:24.000Z</time>
</trkpt>
<trkpt lat="45.8984250" lon="10.3545150">
	<ele>1549.60</ele>
	<time>2025-04-29T08:04:25.000Z</time>
</trkpt>
<trkpt lat="45.8984220" lon="10.3545050">
	<ele>1549.60</ele>
	<time>2025-04-29T08:04:26.000Z</time>
</trkpt>
<trkpt lat="45.8984260" lon="10.3544980">
	<ele>1549.60</ele>
	<time>2025-04-29T08:04:27.000Z</time>
</trkpt>
<trkpt lat="45.8984220" lon="10.3544900">
	<ele>1549.80</ele>
	<time>2025-04-29T08:04:28.000Z</time>
</trkpt>
<trkpt lat="45.8984140" lon="10.3544880">
	<ele>1549.80</ele>
	<time>2025-04-29T08:04:29.000Z</time>
</trkpt>
<trkpt lat="45.8984030" lon="10.3544790">
	<ele>1549.80</ele>
	<time>2025-04-29T08:04:30.000Z</time>
</trkpt>
<trkpt lat="45.8984020" lon="10.3544720">
	<ele>1549.80</ele>
	<time>2025-04-29T08:04:31.000Z</time>
</trkpt>
<trkpt lat="45.8984070" lon="10.3544690">
	<ele>1549.80</ele>
	<time>2025-04-29T08:04:32.000Z</time>
</trkpt>
<trkpt lat="45.8984100" lon="10.3544670">
	<ele>1549.80</ele>
	<time>2025-04-29T08:04:33.000Z</time>
</trkpt>
<trkpt lat="45.8984090" lon="10.3544680">
	<ele>1549.80</ele>
	<time>2025-04-29T08:04:34.000Z</time>
</trkpt>
<trkpt lat="45.8984060" lon="10.3544710">
	<ele>1549.80</ele>
	<time>2025-04-29T08:04:35.000Z</time>
</trkpt>
<trkpt lat="45.8984050" lon="10.3544680">
	<ele>1549.80</ele>
	<time>2025-04-29T08:04:36.000Z</time>
</trkpt>
<trkpt lat="45.8984020" lon="10.3544730">
	<ele>1549.60</ele>
	<time>2025-04-29T08:04:37.000Z</time>
</trkpt>
<trkpt lat="45.8983940" lon="10.3544530">
	<ele>1549.60</ele>
	<time>2025-04-29T08:04:38.000Z</time>
</trkpt>
<trkpt lat="45.8983920" lon="10.3544540">
	<ele>1549.60</ele>
	<time>2025-04-29T08:04:39.000Z</time>
</trkpt>
<trkpt lat="45.8983900" lon="10.3544510">
	<ele>1549.60</ele>
	<time>2025-04-29T08:04:40.000Z</time>
</trkpt>
<trkpt lat="45.8983680" lon="10.3544360">
	<ele>1549.60</ele>
	<time>2025-04-29T08:04:41.000Z</time>
</trkpt>
<trkpt lat="45.8983680" lon="10.3544330">
	<ele>1549.60</ele>
	<time>2025-04-29T08:04:42.000Z</time>
</trkpt>
<trkpt lat="45.8983670" lon="10.3544330">
	<ele>1549.60</ele>
	<time>2025-04-29T08:04:43.000Z</time>
</trkpt>
<trkpt lat="45.8983660" lon="10.3544300">
	<ele>1549.60</ele>
	<time>2025-04-29T08:04:44.000Z</time>
</trkpt>
<trkpt lat="45.8983650" lon="10.3544300">
	<ele>1549.60</ele>
	<time>2025-04-29T08:04:45.000Z</time>
</trkpt>
<trkpt lat="45.8983700" lon="10.3544340">
	<ele>1549.60</ele>
	<time>2025-04-29T08:04:46.000Z</time>
</trkpt>
<trkpt lat="45.8983710" lon="10.3544400">
	<ele>1549.60</ele>
	<time>2025-04-29T08:04:47.000Z</time>
</trkpt>
<trkpt lat="45.8983620" lon="10.3544260">
	<ele>1549.60</ele>
	<time>2025-04-29T08:04:48.000Z</time>
</trkpt>
<trkpt lat="45.8983500" lon="10.3544160">
	<ele>1549.60</ele>
	<time>2025-04-29T08:04:49.000Z</time>
</trkpt>
<trkpt lat="45.8983400" lon="10.3544090">
	<ele>1549.60</ele>
	<time>2025-04-29T08:04:50.000Z</time>
</trkpt>
<trkpt lat="45.8983260" lon="10.3543960">
	<ele>1549.80</ele>
	<time>2025-04-29T08:04:51.000Z</time>
</trkpt>
<trkpt lat="45.8983190" lon="10.3543760">
	<ele>1549.80</ele>
	<time>2025-04-29T08:04:52.000Z</time>
</trkpt>
<trkpt lat="45.8983050" lon="10.3543570">
	<ele>1549.80</ele>
	<time>2025-04-29T08:04:53.000Z</time>
</trkpt>
<trkpt lat="45.8982890" lon="10.3543410">
	<ele>1549.80</ele>
	<time>2025-04-29T08:04:54.000Z</time>
</trkpt>
<trkpt lat="45.8982750" lon="10.3543330">
	<ele>1549.80</ele>
	<time>2025-04-29T08:04:55.000Z</time>
</trkpt>
<trkpt lat="45.8982550" lon="10.3543340">
	<ele>1549.80</ele>
	<time>2025-04-29T08:04:56.000Z</time>
</trkpt>
<trkpt lat="45.8982470" lon="10.3543330">
	<ele>1550.00</ele>
	<time>2025-04-29T08:04:57.000Z</time>
</trkpt>
<trkpt lat="45.8982420" lon="10.3543290">
	<ele>1550.00</ele>
	<time>2025-04-29T08:04:58.000Z</time>
</trkpt>
<trkpt lat="45.8982480" lon="10.3543440">
	<ele>1550.00</ele>
	<time>2025-04-29T08:04:59.000Z</time>
</trkpt>
<trkpt lat="45.8982590" lon="10.3543740">
	<ele>1549.80</ele>
	<time>2025-04-29T08:05:00.000Z</time>
</trkpt>
<trkpt lat="45.8982660" lon="10.3543960">
	<ele>1549.80</ele>
	<time>2025-04-29T08:05:01.000Z</time>
</trkpt>
<trkpt lat="45.8982610" lon="10.3544040">
	<ele>1549.60</ele>
	<time>2025-04-29T08:05:02.000Z</time>
</trkpt>
<trkpt lat="45.8982500" lon="10.3544010">
	<ele>1549.60</ele>
	<time>2025-04-29T08:05:03.000Z</time>
</trkpt>
<trkpt lat="45.8982360" lon="10.3543980">
	<ele>1549.40</ele>
	<time>2025-04-29T08:05:04.000Z</time>
</trkpt>
<trkpt lat="45.8982240" lon="10.3543970">
	<ele>1549.40</ele>
	<time>2025-04-29T08:05:05.000Z</time>
</trkpt>
<trkpt lat="45.8982110" lon="10.3543960">
	<ele>1549.20</ele>
	<time>2025-04-29T08:05:06.000Z</time>
</trkpt>
<trkpt lat="45.8982020" lon="10.3543950">
	<ele>1549.20</ele>
	<time>2025-04-29T08:05:07.000Z</time>
</trkpt>
<trkpt lat="45.8981930" lon="10.3543930">
	<ele>1549.00</ele>
	<time>2025-04-29T08:05:08.000Z</time>
</trkpt>
<trkpt lat="45.8981790" lon="10.3543920">
	<ele>1549.00</ele>
	<time>2025-04-29T08:05:09.000Z</time>
</trkpt>
<trkpt lat="45.8981560" lon="10.3543840">
	<ele>1549.00</ele>
	<time>2025-04-29T08:05:10.000Z</time>
</trkpt>
<trkpt lat="45.8981360" lon="10.3543740">
	<ele>1548.80</ele>
	<time>2025-04-29T08:05:11.000Z</time>
</trkpt>
<trkpt lat="45.8981210" lon="10.3543660">
	<ele>1548.60</ele>
	<time>2025-04-29T08:05:12.000Z</time>
</trkpt>
<trkpt lat="45.8981040" lon="10.3543540">
	<ele>1548.60</ele>
	<time>2025-04-29T08:05:13.000Z</time>
</trkpt>
<trkpt lat="45.8980900" lon="10.3543450">
	<ele>1548.40</ele>
	<time>2025-04-29T08:05:14.000Z</time>
</trkpt>
<trkpt lat="45.8980740" lon="10.3543370">
	<ele>1548.20</ele>
	<time>2025-04-29T08:05:15.000Z</time>
</trkpt>
<trkpt lat="45.8980630" lon="10.3543390">
	<ele>1548.20</ele>
	<time>2025-04-29T08:05:16.000Z</time>
</trkpt>
<trkpt lat="45.8980550" lon="10.3543500">
	<ele>1548.00</ele>
	<time>2025-04-29T08:05:17.000Z</time>
</trkpt>
<trkpt lat="45.8980400" lon="10.3543630">
	<ele>1548.00</ele>
	<time>2025-04-29T08:05:18.000Z</time>
</trkpt>
<trkpt lat="45.8980250" lon="10.3543630">
	<ele>1548.00</ele>
	<time>2025-04-29T08:05:19.000Z</time>
</trkpt>
<trkpt lat="45.8980140" lon="10.3543680">
	<ele>1548.00</ele>
	<time>2025-04-29T08:05:20.000Z</time>
</trkpt>
<trkpt lat="45.8980000" lon="10.3543740">
	<ele>1547.80</ele>
	<time>2025-04-29T08:05:21.000Z</time>
</trkpt>
<trkpt lat="45.8979850" lon="10.3543790">
	<ele>1547.60</ele>
	<time>2025-04-29T08:05:22.000Z</time>
</trkpt>
<trkpt lat="45.8979710" lon="10.3543870">
	<ele>1547.60</ele>
	<time>2025-04-29T08:05:23.000Z</time>
</trkpt>
<trkpt lat="45.8979540" lon="10.3543880">
	<ele>1547.40</ele>
	<time>2025-04-29T08:05:24.000Z</time>
</trkpt>
<trkpt lat="45.8979390" lon="10.3543820">
	<ele>1547.20</ele>
	<time>2025-04-29T08:05:25.000Z</time>
</trkpt>
<trkpt lat="45.8979260" lon="10.3543800">
	<ele>1547.20</ele>
	<time>2025-04-29T08:05:26.000Z</time>
</trkpt>
<trkpt lat="45.8979100" lon="10.3543740">
	<ele>1547.00</ele>
	<time>2025-04-29T08:05:27.000Z</time>
</trkpt>
<trkpt lat="45.8978890" lon="10.3543640">
	<ele>1546.80</ele>
	<time>2025-04-29T08:05:28.000Z</time>
</trkpt>
<trkpt lat="45.8978680" lon="10.3543580">
	<ele>1546.60</ele>
	<time>2025-04-29T08:05:29.000Z</time>
</trkpt>
<trkpt lat="45.8978450" lon="10.3543490">
	<ele>1546.60</ele>
	<time>2025-04-29T08:05:30.000Z</time>
</trkpt>
<trkpt lat="45.8978150" lon="10.3543270">
	<ele>1546.40</ele>
	<time>2025-04-29T08:05:31.000Z</time>
</trkpt>
<trkpt lat="45.8977900" lon="10.3543110">
	<ele>1546.40</ele>
	<time>2025-04-29T08:05:32.000Z</time>
</trkpt>
<trkpt lat="45.8977700" lon="10.3543080">
	<ele>1546.40</ele>
	<time>2025-04-29T08:05:33.000Z</time>
</trkpt>
<trkpt lat="45.8977470" lon="10.3543050">
	<ele>1546.40</ele>
	<time>2025-04-29T08:05:34.000Z</time>
</trkpt>
<trkpt lat="45.8977270" lon="10.3542990">
	<ele>1546.40</ele>
	<time>2025-04-29T08:05:35.000Z</time>
</trkpt>
<trkpt lat="45.8977150" lon="10.3543050">
	<ele>1546.40</ele>
	<time>2025-04-29T08:05:36.000Z</time>
</trkpt>
<trkpt lat="45.8977080" lon="10.3543240">
	<ele>1546.40</ele>
	<time>2025-04-29T08:05:37.000Z</time>
</trkpt>
<trkpt lat="45.8976960" lon="10.3543410">
	<ele>1546.40</ele>
	<time>2025-04-29T08:05:38.000Z</time>
</trkpt>
<trkpt lat="45.8976820" lon="10.3543530">
	<ele>1546.40</ele>
	<time>2025-04-29T08:05:39.000Z</time>
</trkpt>
<trkpt lat="45.8976650" lon="10.3543640">
	<ele>1546.40</ele>
	<time>2025-04-29T08:05:40.000Z</time>
</trkpt>
<trkpt lat="45.8976470" lon="10.3543630">
	<ele>1546.40</ele>
	<time>2025-04-29T08:05:41.000Z</time>
</trkpt>
<trkpt lat="45.8976320" lon="10.3543590">
	<ele>1546.20</ele>
	<time>2025-04-29T08:05:42.000Z</time>
</trkpt>
<trkpt lat="45.8976140" lon="10.3543520">
	<ele>1546.20</ele>
	<time>2025-04-29T08:05:43.000Z</time>
</trkpt>
<trkpt lat="45.8975960" lon="10.3543430">
	<ele>1546.00</ele>
	<time>2025-04-29T08:05:44.000Z</time>
</trkpt>
<trkpt lat="45.8975720" lon="10.3543290">
	<ele>1546.00</ele>
	<time>2025-04-29T08:05:45.000Z</time>
</trkpt>
<trkpt lat="45.8975530" lon="10.3543170">
	<ele>1545.80</ele>
	<time>2025-04-29T08:05:46.000Z</time>
</trkpt>
<trkpt lat="45.8975410" lon="10.3543090">
	<ele>1545.80</ele>
	<time>2025-04-29T08:05:47.000Z</time>
</trkpt>
<trkpt lat="45.8975370" lon="10.3543060">
	<ele>1545.80</ele>
	<time>2025-04-29T08:05:48.000Z</time>
</trkpt>
<trkpt lat="45.8975370" lon="10.3543040">
	<ele>1545.80</ele>
	<time>2025-04-29T08:05:49.000Z</time>
</trkpt>
<trkpt lat="45.8975320" lon="10.3542940">
	<ele>1545.80</ele>
	<time>2025-04-29T08:05:50.000Z</time>
</trkpt>
<trkpt lat="45.8975250" lon="10.3542780">
	<ele>1545.80</ele>
	<time>2025-04-29T08:05:51.000Z</time>
</trkpt>
<trkpt lat="45.8975130" lon="10.3542740">
	<ele>1545.80</ele>
	<time>2025-04-29T08:05:52.000Z</time>
</trkpt>
<trkpt lat="45.8975020" lon="10.3542750">
	<ele>1545.80</ele>
	<time>2025-04-29T08:05:53.000Z</time>
</trkpt>
<trkpt lat="45.8974920" lon="10.3542750">
	<ele>1545.60</ele>
	<time>2025-04-29T08:05:54.000Z</time>
</trkpt>
<trkpt lat="45.8974800" lon="10.3542590">
	<ele>1545.80</ele>
	<time>2025-04-29T08:05:55.000Z</time>
</trkpt>
<trkpt lat="45.8974680" lon="10.3542530">
	<ele>1545.80</ele>
	<time>2025-04-29T08:05:56.000Z</time>
</trkpt>
<trkpt lat="45.8974600" lon="10.3542550">
	<ele>1546.00</ele>
	<time>2025-04-29T08:05:57.000Z</time>
</trkpt>
<trkpt lat="45.8974410" lon="10.3542440">
	<ele>1546.00</ele>
	<time>2025-04-29T08:05:58.000Z</time>
</trkpt>
<trkpt lat="45.8974300" lon="10.3542390">
	<ele>1546.20</ele>
	<time>2025-04-29T08:05:59.000Z</time>
</trkpt>
<trkpt lat="45.8974210" lon="10.3542360">
	<ele>1546.20</ele>
	<time>2025-04-29T08:06:00.000Z</time>
</trkpt>
<trkpt lat="45.8974100" lon="10.3542190">
	<ele>1546.20</ele>
	<time>2025-04-29T08:06:01.000Z</time>
</trkpt>
<trkpt lat="45.8973960" lon="10.3541980">
	<ele>1546.20</ele>
	<time>2025-04-29T08:06:02.000Z</time>
</trkpt>
<trkpt lat="45.8973720" lon="10.3541710">
	<ele>1546.20</ele>
	<time>2025-04-29T08:06:03.000Z</time>
</trkpt>
<trkpt lat="45.8973490" lon="10.3541420">
	<ele>1546.20</ele>
	<time>2025-04-29T08:06:04.000Z</time>
</trkpt>
<trkpt lat="45.8973350" lon="10.3541360">
	<ele>1546.20</ele>
	<time>2025-04-29T08:06:05.000Z</time>
</trkpt>
<trkpt lat="45.8973200" lon="10.3541360">
	<ele>1546.00</ele>
	<time>2025-04-29T08:06:06.000Z</time>
</trkpt>
<trkpt lat="45.8973050" lon="10.3541420">
	<ele>1546.00</ele>
	<time>2025-04-29T08:06:07.000Z</time>
</trkpt>
<trkpt lat="45.8972890" lon="10.3541450">
	<ele>1546.00</ele>
	<time>2025-04-29T08:06:08.000Z</time>
</trkpt>
<trkpt lat="45.8972720" lon="10.3541460">
	<ele>1546.00</ele>
	<time>2025-04-29T08:06:09.000Z</time>
</trkpt>
<trkpt lat="45.8972480" lon="10.3541360">
	<ele>1546.00</ele>
	<time>2025-04-29T08:06:10.000Z</time>
</trkpt>
<trkpt lat="45.8972250" lon="10.3541270">
	<ele>1546.00</ele>
	<time>2025-04-29T08:06:11.000Z</time>
</trkpt>
<trkpt lat="45.8972030" lon="10.3541180">
	<ele>1545.80</ele>
	<time>2025-04-29T08:06:12.000Z</time>
</trkpt>
<trkpt lat="45.8971750" lon="10.3541130">
	<ele>1545.60</ele>
	<time>2025-04-29T08:06:13.000Z</time>
</trkpt>
<trkpt lat="45.8971590" lon="10.3541050">
	<ele>1545.60</ele>
	<time>2025-04-29T08:06:14.000Z</time>
</trkpt>
<trkpt lat="45.8971540" lon="10.3541020">
	<ele>1545.40</ele>
	<time>2025-04-29T08:06:15.000Z</time>
</trkpt>
<trkpt lat="45.8971480" lon="10.3541140">
	<ele>1545.20</ele>
	<time>2025-04-29T08:06:16.000Z</time>
</trkpt>
<trkpt lat="45.8971320" lon="10.3541230">
	<ele>1545.20</ele>
	<time>2025-04-29T08:06:17.000Z</time>
</trkpt>
<trkpt lat="45.8971140" lon="10.3541200">
	<ele>1545.00</ele>
	<time>2025-04-29T08:06:18.000Z</time>
</trkpt>
<trkpt lat="45.8970930" lon="10.3541160">
	<ele>1545.00</ele>
	<time>2025-04-29T08:06:19.000Z</time>
</trkpt>
<trkpt lat="45.8970710" lon="10.3541120">
	<ele>1544.80</ele>
	<time>2025-04-29T08:06:20.000Z</time>
</trkpt>
<trkpt lat="45.8970560" lon="10.3541180">
	<ele>1544.60</ele>
	<time>2025-04-29T08:06:21.000Z</time>
</trkpt>
<trkpt lat="45.8970490" lon="10.3541240">
	<ele>1544.40</ele>
	<time>2025-04-29T08:06:22.000Z</time>
</trkpt>
<trkpt lat="45.8970460" lon="10.3541290">
	<ele>1544.40</ele>
	<time>2025-04-29T08:06:23.000Z</time>
</trkpt>
<trkpt lat="45.8970460" lon="10.3541380">
	<ele>1544.40</ele>
	<time>2025-04-29T08:06:24.000Z</time>
</trkpt>
<trkpt lat="45.8970460" lon="10.3541420">
	<ele>1544.20</ele>
	<time>2025-04-29T08:06:25.000Z</time>
</trkpt>
<trkpt lat="45.8970390" lon="10.3541440">
	<ele>1544.00</ele>
	<time>2025-04-29T08:06:26.000Z</time>
</trkpt>
<trkpt lat="45.8970240" lon="10.3541530">
	<ele>1544.00</ele>
	<time>2025-04-29T08:06:27.000Z</time>
</trkpt>
<trkpt lat="45.8970120" lon="10.3541530">
	<ele>1543.80</ele>
	<time>2025-04-29T08:06:28.000Z</time>
</trkpt>
<trkpt lat="45.8970000" lon="10.3541500">
	<ele>1543.80</ele>
	<time>2025-04-29T08:06:29.000Z</time>
</trkpt>
<trkpt lat="45.8969890" lon="10.3541490">
	<ele>1543.60</ele>
	<time>2025-04-29T08:06:30.000Z</time>
</trkpt>
<trkpt lat="45.8969710" lon="10.3541430">
	<ele>1543.60</ele>
	<time>2025-04-29T08:06:31.000Z</time>
</trkpt>
<trkpt lat="45.8969580" lon="10.3541360">
	<ele>1543.40</ele>
	<time>2025-04-29T08:06:32.000Z</time>
</trkpt>
<trkpt lat="45.8969490" lon="10.3541290">
	<ele>1543.20</ele>
	<time>2025-04-29T08:06:33.000Z</time>
</trkpt>
<trkpt lat="45.8969430" lon="10.3541190">
	<ele>1543.00</ele>
	<time>2025-04-29T08:06:34.000Z</time>
</trkpt>
<trkpt lat="45.8969340" lon="10.3541150">
	<ele>1542.80</ele>
	<time>2025-04-29T08:06:35.000Z</time>
</trkpt>
<trkpt lat="45.8969160" lon="10.3541160">
	<ele>1542.80</ele>
	<time>2025-04-29T08:06:36.000Z</time>
</trkpt>
<trkpt lat="45.8968960" lon="10.3541190">
	<ele>1542.60</ele>
	<time>2025-04-29T08:06:37.000Z</time>
</trkpt>
<trkpt lat="45.8968790" lon="10.3541280">
	<ele>1542.60</ele>
	<time>2025-04-29T08:06:38.000Z</time>
</trkpt>
<trkpt lat="45.8968630" lon="10.3541480">
	<ele>1542.40</ele>
	<time>2025-04-29T08:06:39.000Z</time>
</trkpt>
<trkpt lat="45.8968470" lon="10.3541610">
	<ele>1542.40</ele>
	<time>2025-04-29T08:06:40.000Z</time>
</trkpt>
<trkpt lat="45.8968340" lon="10.3541740">
	<ele>1542.40</ele>
	<time>2025-04-29T08:06:41.000Z</time>
</trkpt>
<trkpt lat="45.8968210" lon="10.3541970">
	<ele>1542.40</ele>
	<time>2025-04-29T08:06:42.000Z</time>
</trkpt>
<trkpt lat="45.8968110" lon="10.3542120">
	<ele>1542.40</ele>
	<time>2025-04-29T08:06:43.000Z</time>
</trkpt>
<trkpt lat="45.8968090" lon="10.3542250">
	<ele>1542.40</ele>
	<time>2025-04-29T08:06:44.000Z</time>
</trkpt>
<trkpt lat="45.8968050" lon="10.3542360">
	<ele>1542.40</ele>
	<time>2025-04-29T08:06:45.000Z</time>
</trkpt>
<trkpt lat="45.8967970" lon="10.3542440">
	<ele>1542.20</ele>
	<time>2025-04-29T08:06:46.000Z</time>
</trkpt>
<trkpt lat="45.8967870" lon="10.3542510">
	<ele>1542.20</ele>
	<time>2025-04-29T08:06:47.000Z</time>
</trkpt>
<trkpt lat="45.8967710" lon="10.3542620">
	<ele>1542.20</ele>
	<time>2025-04-29T08:06:48.000Z</time>
</trkpt>
<trkpt lat="45.8967550" lon="10.3542640">
	<ele>1542.20</ele>
	<time>2025-04-29T08:06:49.000Z</time>
</trkpt>
<trkpt lat="45.8967440" lon="10.3542550">
	<ele>1542.00</ele>
	<time>2025-04-29T08:06:50.000Z</time>
</trkpt>
<trkpt lat="45.8967300" lon="10.3542420">
	<ele>1542.00</ele>
	<time>2025-04-29T08:06:51.000Z</time>
</trkpt>
<trkpt lat="45.8967240" lon="10.3542290">
	<ele>1541.80</ele>
	<time>2025-04-29T08:06:52.000Z</time>
</trkpt>
<trkpt lat="45.8967050" lon="10.3542140">
	<ele>1541.60</ele>
	<time>2025-04-29T08:06:53.000Z</time>
</trkpt>
<trkpt lat="45.8966780" lon="10.3541870">
	<ele>1541.60</ele>
	<time>2025-04-29T08:06:54.000Z</time>
</trkpt>
<trkpt lat="45.8966630" lon="10.3541880">
	<ele>1541.60</ele>
	<time>2025-04-29T08:06:55.000Z</time>
</trkpt>
<trkpt lat="45.8966500" lon="10.3541940">
	<ele>1541.60</ele>
	<time>2025-04-29T08:06:56.000Z</time>
</trkpt>
<trkpt lat="45.8966410" lon="10.3541970">
	<ele>1541.60</ele>
	<time>2025-04-29T08:06:57.000Z</time>
</trkpt>
<trkpt lat="45.8966320" lon="10.3542070">
	<ele>1541.60</ele>
	<time>2025-04-29T08:06:58.000Z</time>
</trkpt>
<trkpt lat="45.8966230" lon="10.3542240">
	<ele>1541.60</ele>
	<time>2025-04-29T08:06:59.000Z</time>
</trkpt>
<trkpt lat="45.8966140" lon="10.3542400">
	<ele>1541.60</ele>
	<time>2025-04-29T08:07:00.000Z</time>
</trkpt>
<trkpt lat="45.8966020" lon="10.3542470">
	<ele>1541.60</ele>
	<time>2025-04-29T08:07:01.000Z</time>
</trkpt>
<trkpt lat="45.8965850" lon="10.3542530">
	<ele>1541.40</ele>
	<time>2025-04-29T08:07:02.000Z</time>
</trkpt>
<trkpt lat="45.8965720" lon="10.3542470">
	<ele>1541.40</ele>
	<time>2025-04-29T08:07:03.000Z</time>
</trkpt>
<trkpt lat="45.8965590" lon="10.3542470">
	<ele>1541.40</ele>
	<time>2025-04-29T08:07:04.000Z</time>
</trkpt>
<trkpt lat="45.8965550" lon="10.3542420">
	<ele>1541.40</ele>
	<time>2025-04-29T08:07:05.000Z</time>
</trkpt>
<trkpt lat="45.8965520" lon="10.3542410">
	<ele>1541.20</ele>
	<time>2025-04-29T08:07:06.000Z</time>
</trkpt>
<trkpt lat="45.8965480" lon="10.3542490">
	<ele>1541.20</ele>
	<time>2025-04-29T08:07:07.000Z</time>
</trkpt>
<trkpt lat="45.8965450" lon="10.3542580">
	<ele>1541.20</ele>
	<time>2025-04-29T08:07:08.000Z</time>
</trkpt>
<trkpt lat="45.8965290" lon="10.3542690">
	<ele>1541.20</ele>
	<time>2025-04-29T08:07:09.000Z</time>
</trkpt>
<trkpt lat="45.8965120" lon="10.3542850">
	<ele>1541.20</ele>
	<time>2025-04-29T08:07:10.000Z</time>
</trkpt>
<trkpt lat="45.8964940" lon="10.3543040">
	<ele>1541.20</ele>
	<time>2025-04-29T08:07:11.000Z</time>
</trkpt>
<trkpt lat="45.8964790" lon="10.3543080">
	<ele>1541.20</ele>
	<time>2025-04-29T08:07:12.000Z</time>
</trkpt>
<trkpt lat="45.8964780" lon="10.3543070">
	<ele>1541.20</ele>
	<time>2025-04-29T08:07:13.000Z</time>
</trkpt>
<trkpt lat="45.8964720" lon="10.3543100">
	<ele>1541.20</ele>
	<time>2025-04-29T08:07:14.000Z</time>
</trkpt>
<trkpt lat="45.8964710" lon="10.3543200">
	<ele>1541.20</ele>
	<time>2025-04-29T08:07:15.000Z</time>
</trkpt>
<trkpt lat="45.8964690" lon="10.3543380">
	<ele>1541.20</ele>
	<time>2025-04-29T08:07:16.000Z</time>
</trkpt>
<trkpt lat="45.8964630" lon="10.3543520">
	<ele>1541.20</ele>
	<time>2025-04-29T08:07:17.000Z</time>
</trkpt>
<trkpt lat="45.8964600" lon="10.3543620">
	<ele>1541.20</ele>
	<time>2025-04-29T08:07:18.000Z</time>
</trkpt>
<trkpt lat="45.8964590" lon="10.3543710">
	<ele>1541.20</ele>
	<time>2025-04-29T08:07:19.000Z</time>
</trkpt>
<trkpt lat="45.8964570" lon="10.3543780">
	<ele>1541.20</ele>
	<time>2025-04-29T08:07:20.000Z</time>
</trkpt>
<trkpt lat="45.8964490" lon="10.3543800">
	<ele>1541.20</ele>
	<time>2025-04-29T08:07:21.000Z</time>
</trkpt>
<trkpt lat="45.8964420" lon="10.3543820">
	<ele>1541.20</ele>
	<time>2025-04-29T08:07:22.000Z</time>
</trkpt>
<trkpt lat="45.8964370" lon="10.3543790">
	<ele>1541.20</ele>
	<time>2025-04-29T08:07:23.000Z</time>
</trkpt>
<trkpt lat="45.8964330" lon="10.3543840">
	<ele>1541.20</ele>
	<time>2025-04-29T08:07:24.000Z</time>
</trkpt>
<trkpt lat="45.8964320" lon="10.3543850">
	<ele>1541.20</ele>
	<time>2025-04-29T08:07:25.000Z</time>
</trkpt>
<trkpt lat="45.8964280" lon="10.3543920">
	<ele>1541.00</ele>
	<time>2025-04-29T08:07:26.000Z</time>
</trkpt>
<trkpt lat="45.8964190" lon="10.3544070">
	<ele>1541.00</ele>
	<time>2025-04-29T08:07:27.000Z</time>
</trkpt>
<trkpt lat="45.8964170" lon="10.3544270">
	<ele>1541.00</ele>
	<time>2025-04-29T08:07:28.000Z</time>
</trkpt>
<trkpt lat="45.8964110" lon="10.3544380">
	<ele>1541.00</ele>
	<time>2025-04-29T08:07:29.000Z</time>
</trkpt>
<trkpt lat="45.8964100" lon="10.3544480">
	<ele>1541.00</ele>
	<time>2025-04-29T08:07:30.000Z</time>
</trkpt>
<trkpt lat="45.8964060" lon="10.3544570">
	<ele>1540.80</ele>
	<time>2025-04-29T08:07:31.000Z</time>
</trkpt>
<trkpt lat="45.8964000" lon="10.3544660">
	<ele>1540.80</ele>
	<time>2025-04-29T08:07:32.000Z</time>
</trkpt>
<trkpt lat="45.8963880" lon="10.3544750">
	<ele>1540.80</ele>
	<time>2025-04-29T08:07:33.000Z</time>
</trkpt>
<trkpt lat="45.8963730" lon="10.3544820">
	<ele>1540.80</ele>
	<time>2025-04-29T08:07:34.000Z</time>
</trkpt>
<trkpt lat="45.8963590" lon="10.3544870">
	<ele>1540.40</ele>
	<time>2025-04-29T08:07:35.000Z</time>
</trkpt>
<trkpt lat="45.8963420" lon="10.3544890">
	<ele>1540.40</ele>
	<time>2025-04-29T08:07:36.000Z</time>
</trkpt>
<trkpt lat="45.8963220" lon="10.3544810">
	<ele>1540.20</ele>
	<time>2025-04-29T08:07:37.000Z</time>
</trkpt>
<trkpt lat="45.8963060" lon="10.3544850">
	<ele>1540.20</ele>
	<time>2025-04-29T08:07:38.000Z</time>
</trkpt>
<trkpt lat="45.8962790" lon="10.3544880">
	<ele>1540.00</ele>
	<time>2025-04-29T08:07:39.000Z</time>
</trkpt>
<trkpt lat="45.8962580" lon="10.3544960">
	<ele>1540.00</ele>
	<time>2025-04-29T08:07:40.000Z</time>
</trkpt>
<trkpt lat="45.8962380" lon="10.3545070">
	<ele>1539.80</ele>
	<time>2025-04-29T08:07:41.000Z</time>
</trkpt>
<trkpt lat="45.8962210" lon="10.3545190">
	<ele>1539.80</ele>
	<time>2025-04-29T08:07:42.000Z</time>
</trkpt>
<trkpt lat="45.8962030" lon="10.3545340">
	<ele>1539.60</ele>
	<time>2025-04-29T08:07:43.000Z</time>
</trkpt>
<trkpt lat="45.8961910" lon="10.3545250">
	<ele>1539.40</ele>
	<time>2025-04-29T08:07:44.000Z</time>
</trkpt>
<trkpt lat="45.8961690" lon="10.3545060">
	<ele>1539.20</ele>
	<time>2025-04-29T08:07:45.000Z</time>
</trkpt>
<trkpt lat="45.8961490" lon="10.3544960">
	<ele>1539.00</ele>
	<time>2025-04-29T08:07:46.000Z</time>
</trkpt>
<trkpt lat="45.8961290" lon="10.3544980">
	<ele>1539.00</ele>
	<time>2025-04-29T08:07:47.000Z</time>
</trkpt>
<trkpt lat="45.8961060" lon="10.3545040">
	<ele>1538.80</ele>
	<time>2025-04-29T08:07:48.000Z</time>
</trkpt>
<trkpt lat="45.8960860" lon="10.3545020">
	<ele>1538.80</ele>
	<time>2025-04-29T08:07:49.000Z</time>
</trkpt>
<trkpt lat="45.8960730" lon="10.3544980">
	<ele>1538.60</ele>
	<time>2025-04-29T08:07:50.000Z</time>
</trkpt>
<trkpt lat="45.8960560" lon="10.3544840">
	<ele>1538.60</ele>
	<time>2025-04-29T08:07:51.000Z</time>
</trkpt>
<trkpt lat="45.8960370" lon="10.3544610">
	<ele>1538.60</ele>
	<time>2025-04-29T08:07:52.000Z</time>
</trkpt>
<trkpt lat="45.8960170" lon="10.3544470">
	<ele>1538.40</ele>
	<time>2025-04-29T08:07:53.000Z</time>
</trkpt>
<trkpt lat="45.8959990" lon="10.3544310">
	<ele>1538.40</ele>
	<time>2025-04-29T08:07:54.000Z</time>
</trkpt>
<trkpt lat="45.8959840" lon="10.3544300">
	<ele>1538.20</ele>
	<time>2025-04-29T08:07:55.000Z</time>
</trkpt>
<trkpt lat="45.8959660" lon="10.3544260">
	<ele>1538.20</ele>
	<time>2025-04-29T08:07:56.000Z</time>
</trkpt>
<trkpt lat="45.8959450" lon="10.3544240">
	<ele>1538.20</ele>
	<time>2025-04-29T08:07:57.000Z</time>
</trkpt>
<trkpt lat="45.8959290" lon="10.3544260">
	<ele>1538.20</ele>
	<time>2025-04-29T08:07:58.000Z</time>
</trkpt>
<trkpt lat="45.8959190" lon="10.3544210">
	<ele>1538.20</ele>
	<time>2025-04-29T08:07:59.000Z</time>
</trkpt>
<trkpt lat="45.8959120" lon="10.3544190">
	<ele>1538.20</ele>
	<time>2025-04-29T08:08:00.000Z</time>
</trkpt>
<trkpt lat="45.8958910" lon="10.3544140">
	<ele>1538.00</ele>
	<time>2025-04-29T08:08:01.000Z</time>
</trkpt>
<trkpt lat="45.8958620" lon="10.3544120">
	<ele>1538.00</ele>
	<time>2025-04-29T08:08:02.000Z</time>
</trkpt>
<trkpt lat="45.8958410" lon="10.3544210">
	<ele>1538.00</ele>
	<time>2025-04-29T08:08:03.000Z</time>
</trkpt>
<trkpt lat="45.8958200" lon="10.3544520">
	<ele>1538.00</ele>
	<time>2025-04-29T08:08:04.000Z</time>
</trkpt>
<trkpt lat="45.8958160" lon="10.3544690">
	<ele>1538.00</ele>
	<time>2025-04-29T08:08:05.000Z</time>
</trkpt>
<trkpt lat="45.8958070" lon="10.3544710">
	<ele>1537.80</ele>
	<time>2025-04-29T08:08:06.000Z</time>
</trkpt>
<trkpt lat="45.8957940" lon="10.3544710">
	<ele>1537.80</ele>
	<time>2025-04-29T08:08:07.000Z</time>
</trkpt>
<trkpt lat="45.8957850" lon="10.3544710">
	<ele>1537.60</ele>
	<time>2025-04-29T08:08:08.000Z</time>
</trkpt>
<trkpt lat="45.8957770" lon="10.3544780">
	<ele>1537.60</ele>
	<time>2025-04-29T08:08:09.000Z</time>
</trkpt>
<trkpt lat="45.8957680" lon="10.3544810">
	<ele>1537.40</ele>
	<time>2025-04-29T08:08:10.000Z</time>
</trkpt>
<trkpt lat="45.8957550" lon="10.3544840">
	<ele>1537.40</ele>
	<time>2025-04-29T08:08:11.000Z</time>
</trkpt>
<trkpt lat="45.8957420" lon="10.3544820">
	<ele>1537.40</ele>
	<time>2025-04-29T08:08:12.000Z</time>
</trkpt>
<trkpt lat="45.8957240" lon="10.3544710">
	<ele>1537.20</ele>
	<time>2025-04-29T08:08:13.000Z</time>
</trkpt>
<trkpt lat="45.8957070" lon="10.3544550">
	<ele>1537.20</ele>
	<time>2025-04-29T08:08:14.000Z</time>
</trkpt>
<trkpt lat="45.8956960" lon="10.3544520">
	<ele>1537.20</ele>
	<time>2025-04-29T08:08:15.000Z</time>
</trkpt>
<trkpt lat="45.8956900" lon="10.3544700">
	<ele>1537.00</ele>
	<time>2025-04-29T08:08:16.000Z</time>
</trkpt>
<trkpt lat="45.8956860" lon="10.3544820">
	<ele>1537.00</ele>
	<time>2025-04-29T08:08:17.000Z</time>
</trkpt>
<trkpt lat="45.8956800" lon="10.3545090">
	<ele>1537.00</ele>
	<time>2025-04-29T08:08:18.000Z</time>
</trkpt>
<trkpt lat="45.8956680" lon="10.3545120">
	<ele>1537.00</ele>
	<time>2025-04-29T08:08:19.000Z</time>
</trkpt>
<trkpt lat="45.8956590" lon="10.3545150">
	<ele>1537.00</ele>
	<time>2025-04-29T08:08:20.000Z</time>
</trkpt>
<trkpt lat="45.8956500" lon="10.3545250">
	<ele>1536.80</ele>
	<time>2025-04-29T08:08:21.000Z</time>
</trkpt>
<trkpt lat="45.8956420" lon="10.3545300">
	<ele>1536.80</ele>
	<time>2025-04-29T08:08:22.000Z</time>
</trkpt>
<trkpt lat="45.8956270" lon="10.3545340">
	<ele>1536.80</ele>
	<time>2025-04-29T08:08:23.000Z</time>
</trkpt>
<trkpt lat="45.8956070" lon="10.3545350">
	<ele>1536.80</ele>
	<time>2025-04-29T08:08:24.000Z</time>
</trkpt>
<trkpt lat="45.8955920" lon="10.3545380">
	<ele>1536.60</ele>
	<time>2025-04-29T08:08:25.000Z</time>
</trkpt>
<trkpt lat="45.8955770" lon="10.3545360">
	<ele>1536.60</ele>
	<time>2025-04-29T08:08:26.000Z</time>
</trkpt>
<trkpt lat="45.8955680" lon="10.3545390">
	<ele>1536.40</ele>
	<time>2025-04-29T08:08:27.000Z</time>
</trkpt>
<trkpt lat="45.8955540" lon="10.3545510">
	<ele>1536.40</ele>
	<time>2025-04-29T08:08:28.000Z</time>
</trkpt>
<trkpt lat="45.8955430" lon="10.3545570">
	<ele>1536.20</ele>
	<time>2025-04-29T08:08:29.000Z</time>
</trkpt>
<trkpt lat="45.8955320" lon="10.3545670">
	<ele>1536.20</ele>
	<time>2025-04-29T08:08:30.000Z</time>
</trkpt>
<trkpt lat="45.8955230" lon="10.3545800">
	<ele>1536.20</ele>
	<time>2025-04-29T08:08:31.000Z</time>
</trkpt>
<trkpt lat="45.8955120" lon="10.3545880">
	<ele>1536.00</ele>
	<time>2025-04-29T08:08:32.000Z</time>
</trkpt>
<trkpt lat="45.8955000" lon="10.3545910">
	<ele>1536.00</ele>
	<time>2025-04-29T08:08:33.000Z</time>
</trkpt>
<trkpt lat="45.8954860" lon="10.3545980">
	<ele>1535.80</ele>
	<time>2025-04-29T08:08:34.000Z</time>
</trkpt>
<trkpt lat="45.8954790" lon="10.3546000">
	<ele>1535.80</ele>
	<time>2025-04-29T08:08:35.000Z</time>
</trkpt>
<trkpt lat="45.8954660" lon="10.3546030">
	<ele>1535.80</ele>
	<time>2025-04-29T08:08:36.000Z</time>
</trkpt>
<trkpt lat="45.8954500" lon="10.3546020">
	<ele>1535.60</ele>
	<time>2025-04-29T08:08:37.000Z</time>
</trkpt>
<trkpt lat="45.8954360" lon="10.3546100">
	<ele>1535.80</ele>
	<time>2025-04-29T08:08:38.000Z</time>
</trkpt>
<trkpt lat="45.8954180" lon="10.3546110">
	<ele>1535.60</ele>
	<time>2025-04-29T08:08:39.000Z</time>
</trkpt>
<trkpt lat="45.8954060" lon="10.3546090">
	<ele>1535.60</ele>
	<time>2025-04-29T08:08:40.000Z</time>
</trkpt>
<trkpt lat="45.8953920" lon="10.3546080">
	<ele>1535.80</ele>
	<time>2025-04-29T08:08:41.000Z</time>
</trkpt>
<trkpt lat="45.8953790" lon="10.3546160">
	<ele>1535.80</ele>
	<time>2025-04-29T08:08:42.000Z</time>
</trkpt>
<trkpt lat="45.8953680" lon="10.3546230">
	<ele>1535.60</ele>
	<time>2025-04-29T08:08:43.000Z</time>
</trkpt>
<trkpt lat="45.8953560" lon="10.3546240">
	<ele>1535.60</ele>
	<time>2025-04-29T08:08:44.000Z</time>
</trkpt>
<trkpt lat="45.8953440" lon="10.3546330">
	<ele>1535.60</ele>
	<time>2025-04-29T08:08:45.000Z</time>
</trkpt>
<trkpt lat="45.8953390" lon="10.3546530">
	<ele>1535.60</ele>
	<time>2025-04-29T08:08:46.000Z</time>
</trkpt>
<trkpt lat="45.8953410" lon="10.3546720">
	<ele>1535.40</ele>
	<time>2025-04-29T08:08:47.000Z</time>
</trkpt>
<trkpt lat="45.8953390" lon="10.3546860">
	<ele>1535.40</ele>
	<time>2025-04-29T08:08:48.000Z</time>
</trkpt>
<trkpt lat="45.8953260" lon="10.3546830">
	<ele>1535.20</ele>
	<time>2025-04-29T08:08:49.000Z</time>
</trkpt>
<trkpt lat="45.8953200" lon="10.3546800">
	<ele>1535.20</ele>
	<time>2025-04-29T08:08:50.000Z</time>
</trkpt>
<trkpt lat="45.8953210" lon="10.3546790">
	<ele>1535.20</ele>
	<time>2025-04-29T08:08:51.000Z</time>
</trkpt>
<trkpt lat="45.8953200" lon="10.3546740">
	<ele>1535.20</ele>
	<time>2025-04-29T08:08:52.000Z</time>
</trkpt>
<trkpt lat="45.8953220" lon="10.3546770">
	<ele>1535.20</ele>
	<time>2025-04-29T08:08:53.000Z</time>
</trkpt>
<trkpt lat="45.8953210" lon="10.3546780">
	<ele>1535.40</ele>
	<time>2025-04-29T08:08:54.000Z</time>
</trkpt>
<trkpt lat="45.8953110" lon="10.3546850">
	<ele>1535.60</ele>
	<time>2025-04-29T08:08:55.000Z</time>
</trkpt>
<trkpt lat="45.8952970" lon="10.3546930">
	<ele>1535.60</ele>
	<time>2025-04-29T08:08:56.000Z</time>
</trkpt>
<trkpt lat="45.8952850" lon="10.3547070">
	<ele>1535.60</ele>
	<time>2025-04-29T08:08:57.000Z</time>
</trkpt>
<trkpt lat="45.8952710" lon="10.3547130">
	<ele>1535.40</ele>
	<time>2025-04-29T08:08:58.000Z</time>
</trkpt>
<trkpt lat="45.8952570" lon="10.3547140">
	<ele>1535.20</ele>
	<time>2025-04-29T08:08:59.000Z</time>
</trkpt>
<trkpt lat="45.8952430" lon="10.3547170">
	<ele>1535.20</ele>
	<time>2025-04-29T08:09:00.000Z</time>
</trkpt>
<trkpt lat="45.8952280" lon="10.3547200">
	<ele>1535.00</ele>
	<time>2025-04-29T08:09:01.000Z</time>
</trkpt>
<trkpt lat="45.8952120" lon="10.3547240">
	<ele>1535.00</ele>
	<time>2025-04-29T08:09:02.000Z</time>
</trkpt>
<trkpt lat="45.8951980" lon="10.3547290">
	<ele>1535.00</ele>
	<time>2025-04-29T08:09:03.000Z</time>
</trkpt>
<trkpt lat="45.8951840" lon="10.3547340">
	<ele>1535.00</ele>
	<time>2025-04-29T08:09:04.000Z</time>
</trkpt>
<trkpt lat="45.8951720" lon="10.3547430">
	<ele>1534.80</ele>
	<time>2025-04-29T08:09:05.000Z</time>
</trkpt>
<trkpt lat="45.8951510" lon="10.3547280">
	<ele>1534.80</ele>
	<time>2025-04-29T08:09:06.000Z</time>
</trkpt>
<trkpt lat="45.8951330" lon="10.3547120">
	<ele>1534.60</ele>
	<time>2025-04-29T08:09:07.000Z</time>
</trkpt>
<trkpt lat="45.8951130" lon="10.3546990">
	<ele>1534.60</ele>
	<time>2025-04-29T08:09:08.000Z</time>
</trkpt>
<trkpt lat="45.8950970" lon="10.3546960">
	<ele>1534.40</ele>
	<time>2025-04-29T08:09:09.000Z</time>
</trkpt>
<trkpt lat="45.8950870" lon="10.3547030">
	<ele>1534.40</ele>
	<time>2025-04-29T08:09:10.000Z</time>
</trkpt>
<trkpt lat="45.8950780" lon="10.3547000">
	<ele>1534.40</ele>
	<time>2025-04-29T08:09:11.000Z</time>
</trkpt>
<trkpt lat="45.8950740" lon="10.3546970">
	<ele>1534.40</ele>
	<time>2025-04-29T08:09:12.000Z</time>
</trkpt>
<trkpt lat="45.8950640" lon="10.3546910">
	<ele>1534.40</ele>
	<time>2025-04-29T08:09:13.000Z</time>
</trkpt>
<trkpt lat="45.8950500" lon="10.3546760">
	<ele>1534.40</ele>
	<time>2025-04-29T08:09:14.000Z</time>
</trkpt>
<trkpt lat="45.8950410" lon="10.3546600">
	<ele>1534.40</ele>
	<time>2025-04-29T08:09:15.000Z</time>
</trkpt>
<trkpt lat="45.8950340" lon="10.3546400">
	<ele>1534.40</ele>
	<time>2025-04-29T08:09:16.000Z</time>
</trkpt>
<trkpt lat="45.8950260" lon="10.3546260">
	<ele>1534.40</ele>
	<time>2025-04-29T08:09:17.000Z</time>
</trkpt>
<trkpt lat="45.8950150" lon="10.3546090">
	<ele>1534.40</ele>
	<time>2025-04-29T08:09:18.000Z</time>
</trkpt>
<trkpt lat="45.8950040" lon="10.3545980">
	<ele>1534.40</ele>
	<time>2025-04-29T08:09:19.000Z</time>
</trkpt>
<trkpt lat="45.8949930" lon="10.3545890">
	<ele>1534.40</ele>
	<time>2025-04-29T08:09:20.000Z</time>
</trkpt>
<trkpt lat="45.8949790" lon="10.3545760">
	<ele>1534.40</ele>
	<time>2025-04-29T08:09:21.000Z</time>
</trkpt>
<trkpt lat="45.8949690" lon="10.3545650">
	<ele>1534.20</ele>
	<time>2025-04-29T08:09:22.000Z</time>
</trkpt>
<trkpt lat="45.8949610" lon="10.3545590">
	<ele>1534.20</ele>
	<time>2025-04-29T08:09:23.000Z</time>
</trkpt>
<trkpt lat="45.8949460" lon="10.3545510">
	<ele>1534.20</ele>
	<time>2025-04-29T08:09:24.000Z</time>
</trkpt>
<trkpt lat="45.8949340" lon="10.3545370">
	<ele>1534.20</ele>
	<time>2025-04-29T08:09:25.000Z</time>
</trkpt>
<trkpt lat="45.8949220" lon="10.3545270">
	<ele>1534.20</ele>
	<time>2025-04-29T08:09:26.000Z</time>
</trkpt>
<trkpt lat="45.8949100" lon="10.3545140">
	<ele>1534.20</ele>
	<time>2025-04-29T08:09:27.000Z</time>
</trkpt>
<trkpt lat="45.8949000" lon="10.3545020">
	<ele>1534.00</ele>
	<time>2025-04-29T08:09:28.000Z</time>
</trkpt>
<trkpt lat="45.8948890" lon="10.3544880">
	<ele>1534.20</ele>
	<time>2025-04-29T08:09:29.000Z</time>
</trkpt>
<trkpt lat="45.8948830" lon="10.3544700">
	<ele>1534.00</ele>
	<time>2025-04-29T08:09:30.000Z</time>
</trkpt>
<trkpt lat="45.8948750" lon="10.3544610">
	<ele>1534.00</ele>
	<time>2025-04-29T08:09:31.000Z</time>
</trkpt>
<trkpt lat="45.8948660" lon="10.3544540">
	<ele>1534.00</ele>
	<time>2025-04-29T08:09:32.000Z</time>
</trkpt>
<trkpt lat="45.8948530" lon="10.3544470">
	<ele>1534.00</ele>
	<time>2025-04-29T08:09:33.000Z</time>
</trkpt>
<trkpt lat="45.8948380" lon="10.3544420">
	<ele>1534.00</ele>
	<time>2025-04-29T08:09:34.000Z</time>
</trkpt>
<trkpt lat="45.8948270" lon="10.3544350">
	<ele>1534.00</ele>
	<time>2025-04-29T08:09:35.000Z</time>
</trkpt>
<trkpt lat="45.8948100" lon="10.3544250">
	<ele>1534.00</ele>
	<time>2025-04-29T08:09:36.000Z</time>
</trkpt>
<trkpt lat="45.8948000" lon="10.3544250">
	<ele>1533.80</ele>
	<time>2025-04-29T08:09:37.000Z</time>
</trkpt>
<trkpt lat="45.8947910" lon="10.3544190">
	<ele>1533.80</ele>
	<time>2025-04-29T08:09:38.000Z</time>
</trkpt>
<trkpt lat="45.8947840" lon="10.3544110">
	<ele>1533.60</ele>
	<time>2025-04-29T08:09:39.000Z</time>
</trkpt>
<trkpt lat="45.8947750" lon="10.3544000">
	<ele>1533.60</ele>
	<time>2025-04-29T08:09:40.000Z</time>
</trkpt>
<trkpt lat="45.8947640" lon="10.3543810">
	<ele>1533.40</ele>
	<time>2025-04-29T08:09:41.000Z</time>
</trkpt>
<trkpt lat="45.8947560" lon="10.3543660">
	<ele>1533.40</ele>
	<time>2025-04-29T08:09:42.000Z</time>
</trkpt>
<trkpt lat="45.8947460" lon="10.3543550">
	<ele>1533.20</ele>
	<time>2025-04-29T08:09:43.000Z</time>
</trkpt>
<trkpt lat="45.8947440" lon="10.3543510">
	<ele>1533.20</ele>
	<time>2025-04-29T08:09:44.000Z</time>
</trkpt>
<trkpt lat="45.8947450" lon="10.3543500">
	<ele>1533.20</ele>
	<time>2025-04-29T08:09:45.000Z</time>
</trkpt>
<trkpt lat="45.8947440" lon="10.3543470">
	<ele>1533.20</ele>
	<time>2025-04-29T08:09:46.000Z</time>
</trkpt>
<trkpt lat="45.8947420" lon="10.3543440">
	<ele>1533.20</ele>
	<time>2025-04-29T08:09:47.000Z</time>
</trkpt>
<trkpt lat="45.8947420" lon="10.3543430">
	<ele>1533.20</ele>
	<time>2025-04-29T08:09:48.000Z</time>
</trkpt>
<trkpt lat="45.8947380" lon="10.3543450">
	<ele>1533.20</ele>
	<time>2025-04-29T08:09:49.000Z</time>
</trkpt>
<trkpt lat="45.8947390" lon="10.3543470">
	<ele>1533.20</ele>
	<time>2025-04-29T08:09:50.000Z</time>
</trkpt>
<trkpt lat="45.8947360" lon="10.3543420">
	<ele>1533.20</ele>
	<time>2025-04-29T08:09:51.000Z</time>
</trkpt>
<trkpt lat="45.8947330" lon="10.3543400">
	<ele>1533.00</ele>
	<time>2025-04-29T08:09:52.000Z</time>
</trkpt>
<trkpt lat="45.8947320" lon="10.3543380">
	<ele>1533.00</ele>
	<time>2025-04-29T08:09:53.000Z</time>
</trkpt>
<trkpt lat="45.8947330" lon="10.3543410">
	<ele>1533.00</ele>
	<time>2025-04-29T08:09:54.000Z</time>
</trkpt>
<trkpt lat="45.8947350" lon="10.3543450">
	<ele>1533.00</ele>
	<time>2025-04-29T08:09:55.000Z</time>
</trkpt>
<trkpt lat="45.8947350" lon="10.3543460">
	<ele>1533.00</ele>
	<time>2025-04-29T08:09:56.000Z</time>
</trkpt>
<trkpt lat="45.8947290" lon="10.3543400">
	<ele>1533.00</ele>
	<time>2025-04-29T08:09:57.000Z</time>
</trkpt>
<trkpt lat="45.8947240" lon="10.3543250">
	<ele>1533.00</ele>
	<time>2025-04-29T08:09:58.000Z</time>
</trkpt>
<trkpt lat="45.8947220" lon="10.3543130">
	<ele>1532.80</ele>
	<time>2025-04-29T08:09:59.000Z</time>
</trkpt>
<trkpt lat="45.8947190" lon="10.3543070">
	<ele>1532.80</ele>
	<time>2025-04-29T08:10:00.000Z</time>
</trkpt>
<trkpt lat="45.8947190" lon="10.3543030">
	<ele>1532.80</ele>
	<time>2025-04-29T08:10:01.000Z</time>
</trkpt>
<trkpt lat="45.8947130" lon="10.3542970">
	<ele>1532.60</ele>
	<time>2025-04-29T08:10:02.000Z</time>
</trkpt>
<trkpt lat="45.8947120" lon="10.3542940">
	<ele>1532.20</ele>
	<time>2025-04-29T08:10:03.000Z</time>
</trkpt>
<trkpt lat="45.8947110" lon="10.3542920">
	<ele>1532.00</ele>
	<time>2025-04-29T08:10:04.000Z</time>
</trkpt>
<trkpt lat="45.8947090" lon="10.3542910">
	<ele>1531.80</ele>
	<time>2025-04-29T08:10:05.000Z</time>
</trkpt>
<trkpt lat="45.8947070" lon="10.3542920">
	<ele>1531.80</ele>
	<time>2025-04-29T08:10:06.000Z</time>
</trkpt>
<trkpt lat="45.8947050" lon="10.3542910">
	<ele>1531.60</ele>
	<time>2025-04-29T08:10:07.000Z</time>
</trkpt>
<trkpt lat="45.8947060" lon="10.3542930">
	<ele>1531.60</ele>
	<time>2025-04-29T08:10:08.000Z</time>
</trkpt>
<trkpt lat="45.8947070" lon="10.3542940">
	<ele>1531.60</ele>
	<time>2025-04-29T08:10:09.000Z</time>
</trkpt>
<trkpt lat="45.8947050" lon="10.3542910">
	<ele>1531.60</ele>
	<time>2025-04-29T08:10:10.000Z</time>
</trkpt>
<trkpt lat="45.8947060" lon="10.3542910">
	<ele>1531.60</ele>
	<time>2025-04-29T08:10:11.000Z</time>
</trkpt>
<trkpt lat="45.8947080" lon="10.3542930">
	<ele>1531.60</ele>
	<time>2025-04-29T08:10:12.000Z</time>
</trkpt>
<trkpt lat="45.8947040" lon="10.3542940">
	<ele>1531.60</ele>
	<time>2025-04-29T08:10:13.000Z</time>
</trkpt>
<trkpt lat="45.8946980" lon="10.3542930">
	<ele>1531.60</ele>
	<time>2025-04-29T08:10:14.000Z</time>
</trkpt>
<trkpt lat="45.8946930" lon="10.3542930">
	<ele>1531.40</ele>
	<time>2025-04-29T08:10:15.000Z</time>
</trkpt>
<trkpt lat="45.8946910" lon="10.3542950">
	<ele>1531.40</ele>
	<time>2025-04-29T08:10:16.000Z</time>
</trkpt>
<trkpt lat="45.8946920" lon="10.3542970">
	<ele>1531.40</ele>
	<time>2025-04-29T08:10:17.000Z</time>
</trkpt>
<trkpt lat="45.8946930" lon="10.3542940">
	<ele>1531.40</ele>
	<time>2025-04-29T08:10:18.000Z</time>
</trkpt>
<trkpt lat="45.8946870" lon="10.3542740">
	<ele>1531.40</ele>
	<time>2025-04-29T08:10:19.000Z</time>
</trkpt>
<trkpt lat="45.8946860" lon="10.3542540">
	<ele>1531.40</ele>
	<time>2025-04-29T08:10:20.000Z</time>
</trkpt>
<trkpt lat="45.8946920" lon="10.3542410">
	<ele>1531.60</ele>
	<time>2025-04-29T08:10:21.000Z</time>
</trkpt>
<trkpt lat="45.8947000" lon="10.3542220">
	<ele>1531.80</ele>
	<time>2025-04-29T08:10:22.000Z</time>
</trkpt>
<trkpt lat="45.8947050" lon="10.3542040">
	<ele>1532.00</ele>
	<time>2025-04-29T08:10:23.000Z</time>
</trkpt>
<trkpt lat="45.8947130" lon="10.3541830">
	<ele>1532.00</ele>
	<time>2025-04-29T08:10:24.000Z</time>
</trkpt>
<trkpt lat="45.8947180" lon="10.3541620">
	<ele>1531.80</ele>
	<time>2025-04-29T08:10:25.000Z</time>
</trkpt>
<trkpt lat="45.8947230" lon="10.3541400">
	<ele>1531.80</ele>
	<time>2025-04-29T08:10:26.000Z</time>
</trkpt>
<trkpt lat="45.8947290" lon="10.3541200">
	<ele>1531.60</ele>
	<time>2025-04-29T08:10:27.000Z</time>
</trkpt>
<trkpt lat="45.8947310" lon="10.3541040">
	<ele>1531.60</ele>
	<time>2025-04-29T08:10:28.000Z</time>
</trkpt>
<trkpt lat="45.8947330" lon="10.3540930">
	<ele>1531.40</ele>
	<time>2025-04-29T08:10:29.000Z</time>
</trkpt>
<trkpt lat="45.8947320" lon="10.3540780">
	<ele>1531.40</ele>
	<time>2025-04-29T08:10:30.000Z</time>
</trkpt>
<trkpt lat="45.8947270" lon="10.3540580">
	<ele>1531.40</ele>
	<time>2025-04-29T08:10:31.000Z</time>
</trkpt>
<trkpt lat="45.8947210" lon="10.3540360">
	<ele>1531.20</ele>
	<time>2025-04-29T08:10:32.000Z</time>
</trkpt>
<trkpt lat="45.8947150" lon="10.3540170">
	<ele>1531.20</ele>
	<time>2025-04-29T08:10:33.000Z</time>
</trkpt>
<trkpt lat="45.8947050" lon="10.3540030">
	<ele>1530.80</ele>
	<time>2025-04-29T08:10:34.000Z</time>
</trkpt>
<trkpt lat="45.8946940" lon="10.3539970">
	<ele>1530.60</ele>
	<time>2025-04-29T08:10:35.000Z</time>
</trkpt>
<trkpt lat="45.8946800" lon="10.3539960">
	<ele>1530.20</ele>
	<time>2025-04-29T08:10:36.000Z</time>
</trkpt>
<trkpt lat="45.8946670" lon="10.3539950">
	<ele>1530.00</ele>
	<time>2025-04-29T08:10:37.000Z</time>
</trkpt>
<trkpt lat="45.8946600" lon="10.3539900">
	<ele>1529.80</ele>
	<time>2025-04-29T08:10:38.000Z</time>
</trkpt>
<trkpt lat="45.8946560" lon="10.3539820">
	<ele>1529.60</ele>
	<time>2025-04-29T08:10:39.000Z</time>
</trkpt>
<trkpt lat="45.8946530" lon="10.3539740">
	<ele>1529.40</ele>
	<time>2025-04-29T08:10:40.000Z</time>
</trkpt>
<trkpt lat="45.8946510" lon="10.3539630">
	<ele>1529.20</ele>
	<time>2025-04-29T08:10:41.000Z</time>
</trkpt>
<trkpt lat="45.8946470" lon="10.3539520">
	<ele>1529.00</ele>
	<time>2025-04-29T08:10:42.000Z</time>
</trkpt>
<trkpt lat="45.8946420" lon="10.3539380">
	<ele>1528.80</ele>
	<time>2025-04-29T08:10:43.000Z</time>
</trkpt>
<trkpt lat="45.8946420" lon="10.3539260">
	<ele>1528.60</ele>
	<time>2025-04-29T08:10:44.000Z</time>
</trkpt>
<trkpt lat="45.8946440" lon="10.3539070">
	<ele>1528.20</ele>
	<time>2025-04-29T08:10:45.000Z</time>
</trkpt>
<trkpt lat="45.8946440" lon="10.3538900">
	<ele>1528.00</ele>
	<time>2025-04-29T08:10:46.000Z</time>
</trkpt>
<trkpt lat="45.8946500" lon="10.3538700">
	<ele>1527.80</ele>
	<time>2025-04-29T08:10:47.000Z</time>
</trkpt>
<trkpt lat="45.8946560" lon="10.3538520">
	<ele>1527.80</ele>
	<time>2025-04-29T08:10:48.000Z</time>
</trkpt>
<trkpt lat="45.8946600" lon="10.3538330">
	<ele>1527.60</ele>
	<time>2025-04-29T08:10:49.000Z</time>
</trkpt>
<trkpt lat="45.8946610" lon="10.3538220">
	<ele>1527.60</ele>
	<time>2025-04-29T08:10:50.000Z</time>
</trkpt>
<trkpt lat="45.8946620" lon="10.3538120">
	<ele>1527.40</ele>
	<time>2025-04-29T08:10:51.000Z</time>
</trkpt>
<trkpt lat="45.8946630" lon="10.3538050">
	<ele>1527.40</ele>
	<time>2025-04-29T08:10:52.000Z</time>
</trkpt>
<trkpt lat="45.8946650" lon="10.3537980">
	<ele>1527.40</ele>
	<time>2025-04-29T08:10:53.000Z</time>
</trkpt>
<trkpt lat="45.8946680" lon="10.3537860">
	<ele>1527.20</ele>
	<time>2025-04-29T08:10:54.000Z</time>
</trkpt>
<trkpt lat="45.8946720" lon="10.3537680">
	<ele>1527.20</ele>
	<time>2025-04-29T08:10:55.000Z</time>
</trkpt>
<trkpt lat="45.8946800" lon="10.3537530">
	<ele>1527.00</ele>
	<time>2025-04-29T08:10:56.000Z</time>
</trkpt>
<trkpt lat="45.8946880" lon="10.3537420">
	<ele>1527.00</ele>
	<time>2025-04-29T08:10:57.000Z</time>
</trkpt>
<trkpt lat="45.8946950" lon="10.3537240">
	<ele>1527.00</ele>
	<time>2025-04-29T08:10:58.000Z</time>
</trkpt>
<trkpt lat="45.8947000" lon="10.3537070">
	<ele>1526.80</ele>
	<time>2025-04-29T08:10:59.000Z</time>
</trkpt>
<trkpt lat="45.8947010" lon="10.3536960">
	<ele>1526.80</ele>
	<time>2025-04-29T08:11:00.000Z</time>
</trkpt>
<trkpt lat="45.8946960" lon="10.3536860">
	<ele>1526.80</ele>
	<time>2025-04-29T08:11:01.000Z</time>
</trkpt>
<trkpt lat="45.8946870" lon="10.3536830">
	<ele>1526.80</ele>
	<time>2025-04-29T08:11:02.000Z</time>
</trkpt>
<trkpt lat="45.8946780" lon="10.3536830">
	<ele>1526.80</ele>
	<time>2025-04-29T08:11:03.000Z</time>
</trkpt>
<trkpt lat="45.8946730" lon="10.3536730">
	<ele>1526.80</ele>
	<time>2025-04-29T08:11:04.000Z</time>
</trkpt>
<trkpt lat="45.8946640" lon="10.3536650">
	<ele>1526.80</ele>
	<time>2025-04-29T08:11:05.000Z</time>
</trkpt>
<trkpt lat="45.8946520" lon="10.3536590">
	<ele>1526.80</ele>
	<time>2025-04-29T08:11:06.000Z</time>
</trkpt>
<trkpt lat="45.8946430" lon="10.3536550">
	<ele>1526.80</ele>
	<time>2025-04-29T08:11:07.000Z</time>
</trkpt>
<trkpt lat="45.8946360" lon="10.3536440">
	<ele>1527.00</ele>
	<time>2025-04-29T08:11:08.000Z</time>
</trkpt>
<trkpt lat="45.8946310" lon="10.3536320">
	<ele>1527.00</ele>
	<time>2025-04-29T08:11:09.000Z</time>
</trkpt>
<trkpt lat="45.8946310" lon="10.3536200">
	<ele>1527.20</ele>
	<time>2025-04-29T08:11:10.000Z</time>
</trkpt>
<trkpt lat="45.8946360" lon="10.3536060">
	<ele>1527.20</ele>
	<time>2025-04-29T08:11:11.000Z</time>
</trkpt>
<trkpt lat="45.8946430" lon="10.3535900">
	<ele>1527.20</ele>
	<time>2025-04-29T08:11:12.000Z</time>
</trkpt>
<trkpt lat="45.8946480" lon="10.3535740">
	<ele>1527.20</ele>
	<time>2025-04-29T08:11:13.000Z</time>
</trkpt>
<trkpt lat="45.8946550" lon="10.3535680">
	<ele>1527.20</ele>
	<time>2025-04-29T08:11:14.000Z</time>
</trkpt>
<trkpt lat="45.8946650" lon="10.3535570">
	<ele>1527.20</ele>
	<time>2025-04-29T08:11:15.000Z</time>
</trkpt>
<trkpt lat="45.8946770" lon="10.3535450">
	<ele>1527.20</ele>
	<time>2025-04-29T08:11:16.000Z</time>
</trkpt>
<trkpt lat="45.8946890" lon="10.3535330">
	<ele>1527.20</ele>
	<time>2025-04-29T08:11:17.000Z</time>
</trkpt>
<trkpt lat="45.8947010" lon="10.3535260">
	<ele>1527.20</ele>
	<time>2025-04-29T08:11:18.000Z</time>
</trkpt>
<trkpt lat="45.8947130" lon="10.3535160">
	<ele>1527.00</ele>
	<time>2025-04-29T08:11:19.000Z</time>
</trkpt>
<trkpt lat="45.8947240" lon="10.3535080">
	<ele>1527.00</ele>
	<time>2025-04-29T08:11:20.000Z</time>
</trkpt>
<trkpt lat="45.8947350" lon="10.3534960">
	<ele>1527.00</ele>
	<time>2025-04-29T08:11:21.000Z</time>
</trkpt>
<trkpt lat="45.8947420" lon="10.3534770">
	<ele>1527.00</ele>
	<time>2025-04-29T08:11:22.000Z</time>
</trkpt>
<trkpt lat="45.8947460" lon="10.3534580">
	<ele>1526.80</ele>
	<time>2025-04-29T08:11:23.000Z</time>
</trkpt>
<trkpt lat="45.8947490" lon="10.3534390">
	<ele>1526.80</ele>
	<time>2025-04-29T08:11:24.000Z</time>
</trkpt>
<trkpt lat="45.8947550" lon="10.3534270">
	<ele>1526.80</ele>
	<time>2025-04-29T08:11:25.000Z</time>
</trkpt>
<trkpt lat="45.8947610" lon="10.3534100">
	<ele>1526.80</ele>
	<time>2025-04-29T08:11:26.000Z</time>
</trkpt>
<trkpt lat="45.8947680" lon="10.3533970">
	<ele>1526.80</ele>
	<time>2025-04-29T08:11:27.000Z</time>
</trkpt>
<trkpt lat="45.8947710" lon="10.3533810">
	<ele>1526.80</ele>
	<time>2025-04-29T08:11:28.000Z</time>
</trkpt>
<trkpt lat="45.8947750" lon="10.3533660">
	<ele>1526.80</ele>
	<time>2025-04-29T08:11:29.000Z</time>
</trkpt>
<trkpt lat="45.8947780" lon="10.3533500">
	<ele>1526.60</ele>
	<time>2025-04-29T08:11:30.000Z</time>
</trkpt>
<trkpt lat="45.8947820" lon="10.3533330">
	<ele>1526.60</ele>
	<time>2025-04-29T08:11:31.000Z</time>
</trkpt>
<trkpt lat="45.8947870" lon="10.3533110">
	<ele>1526.60</ele>
	<time>2025-04-29T08:11:32.000Z</time>
</trkpt>
<trkpt lat="45.8947910" lon="10.3532860">
	<ele>1526.60</ele>
	<time>2025-04-29T08:11:33.000Z</time>
</trkpt>
<trkpt lat="45.8947960" lon="10.3532670">
	<ele>1526.60</ele>
	<time>2025-04-29T08:11:34.000Z</time>
</trkpt>
<trkpt lat="45.8947990" lon="10.3532430">
	<ele>1526.60</ele>
	<time>2025-04-29T08:11:35.000Z</time>
</trkpt>
<trkpt lat="45.8948060" lon="10.3532240">
	<ele>1526.40</ele>
	<time>2025-04-29T08:11:36.000Z</time>
</trkpt>
<trkpt lat="45.8948130" lon="10.3532030">
	<ele>1526.20</ele>
	<time>2025-04-29T08:11:37.000Z</time>
</trkpt>
<trkpt lat="45.8948170" lon="10.3531990">
	<ele>1526.20</ele>
	<time>2025-04-29T08:11:38.000Z</time>
</trkpt>
<trkpt lat="45.8948210" lon="10.3531950">
	<ele>1526.00</ele>
	<time>2025-04-29T08:11:39.000Z</time>
</trkpt>
<trkpt lat="45.8948250" lon="10.3531840">
	<ele>1526.00</ele>
	<time>2025-04-29T08:11:40.000Z</time>
</trkpt>
<trkpt lat="45.8948310" lon="10.3531730">
	<ele>1526.00</ele>
	<time>2025-04-29T08:11:41.000Z</time>
</trkpt>
<trkpt lat="45.8948330" lon="10.3531640">
	<ele>1526.00</ele>
	<time>2025-04-29T08:11:42.000Z</time>
</trkpt>
<trkpt lat="45.8948340" lon="10.3531590">
	<ele>1526.00</ele>
	<time>2025-04-29T08:11:43.000Z</time>
</trkpt>
<trkpt lat="45.8948350" lon="10.3531540">
	<ele>1526.00</ele>
	<time>2025-04-29T08:11:44.000Z</time>
</trkpt>
<trkpt lat="45.8948290" lon="10.3531350">
	<ele>1525.80</ele>
	<time>2025-04-29T08:11:45.000Z</time>
</trkpt>
<trkpt lat="45.8948310" lon="10.3531220">
	<ele>1525.60</ele>
	<time>2025-04-29T08:11:46.000Z</time>
</trkpt>
<trkpt lat="45.8948340" lon="10.3531060">
	<ele>1525.60</ele>
	<time>2025-04-29T08:11:47.000Z</time>
</trkpt>
<trkpt lat="45.8948390" lon="10.3530840">
	<ele>1525.60</ele>
	<time>2025-04-29T08:11:48.000Z</time>
</trkpt>
<trkpt lat="45.8948410" lon="10.3530620">
	<ele>1525.40</ele>
	<time>2025-04-29T08:11:49.000Z</time>
</trkpt>
<trkpt lat="45.8948410" lon="10.3530410">
	<ele>1525.40</ele>
	<time>2025-04-29T08:11:50.000Z</time>
</trkpt>
<trkpt lat="45.8948420" lon="10.3530260">
	<ele>1525.40</ele>
	<time>2025-04-29T08:11:51.000Z</time>
</trkpt>
<trkpt lat="45.8948410" lon="10.3530090">
	<ele>1525.40</ele>
	<time>2025-04-29T08:11:52.000Z</time>
</trkpt>
<trkpt lat="45.8948390" lon="10.3529940">
	<ele>1525.20</ele>
	<time>2025-04-29T08:11:53.000Z</time>
</trkpt>
<trkpt lat="45.8948370" lon="10.3529820">
	<ele>1525.20</ele>
	<time>2025-04-29T08:11:54.000Z</time>
</trkpt>
<trkpt lat="45.8948360" lon="10.3529700">
	<ele>1525.20</ele>
	<time>2025-04-29T08:11:55.000Z</time>
</trkpt>
<trkpt lat="45.8948330" lon="10.3529630">
	<ele>1525.20</ele>
	<time>2025-04-29T08:11:56.000Z</time>
</trkpt>
<trkpt lat="45.8948340" lon="10.3529520">
	<ele>1525.20</ele>
	<time>2025-04-29T08:11:57.000Z</time>
</trkpt>
<trkpt lat="45.8948390" lon="10.3529480">
	<ele>1525.20</ele>
	<time>2025-04-29T08:11:58.000Z</time>
</trkpt>
<trkpt lat="45.8948450" lon="10.3529350">
	<ele>1525.20</ele>
	<time>2025-04-29T08:11:59.000Z</time>
</trkpt>
<trkpt lat="45.8948480" lon="10.3529220">
	<ele>1525.40</ele>
	<time>2025-04-29T08:12:00.000Z</time>
</trkpt>
<trkpt lat="45.8948540" lon="10.3529110">
	<ele>1525.40</ele>
	<time>2025-04-29T08:12:01.000Z</time>
</trkpt>
<trkpt lat="45.8948580" lon="10.3529000">
	<ele>1525.40</ele>
	<time>2025-04-29T08:12:02.000Z</time>
</trkpt>
<trkpt lat="45.8948650" lon="10.3528910">
	<ele>1525.40</ele>
	<time>2025-04-29T08:12:03.000Z</time>
</trkpt>
<trkpt lat="45.8948740" lon="10.3528810">
	<ele>1525.60</ele>
	<time>2025-04-29T08:12:04.000Z</time>
</trkpt>
<trkpt lat="45.8948830" lon="10.3528740">
	<ele>1525.60</ele>
	<time>2025-04-29T08:12:05.000Z</time>
</trkpt>
<trkpt lat="45.8948890" lon="10.3528640">
	<ele>1525.80</ele>
	<time>2025-04-29T08:12:06.000Z</time>
</trkpt>
<trkpt lat="45.8948980" lon="10.3528530">
	<ele>1526.00</ele>
	<time>2025-04-29T08:12:07.000Z</time>
</trkpt>
<trkpt lat="45.8949000" lon="10.3528430">
	<ele>1526.00</ele>
	<time>2025-04-29T08:12:08.000Z</time>
</trkpt>
<trkpt lat="45.8949010" lon="10.3528300">
	<ele>1526.20</ele>
	<time>2025-04-29T08:12:09.000Z</time>
</trkpt>
<trkpt lat="45.8949050" lon="10.3528270">
	<ele>1526.20</ele>
	<time>2025-04-29T08:12:10.000Z</time>
</trkpt>
<trkpt lat="45.8949090" lon="10.3528130">
	<ele>1526.40</ele>
	<time>2025-04-29T08:12:11.000Z</time>
</trkpt>
<trkpt lat="45.8949060" lon="10.3527890">
	<ele>1526.40</ele>
	<time>2025-04-29T08:12:12.000Z</time>
</trkpt>
<trkpt lat="45.8949030" lon="10.3527750">
	<ele>1526.80</ele>
	<time>2025-04-29T08:12:13.000Z</time>
</trkpt>
<trkpt lat="45.8949090" lon="10.3527760">
	<ele>1526.80</ele>
	<time>2025-04-29T08:12:14.000Z</time>
</trkpt>
<trkpt lat="45.8949080" lon="10.3527640">
	<ele>1527.00</ele>
	<time>2025-04-29T08:12:15.000Z</time>
</trkpt>
<trkpt lat="45.8949020" lon="10.3527390">
	<ele>1527.00</ele>
	<time>2025-04-29T08:12:16.000Z</time>
</trkpt>
<trkpt lat="45.8948940" lon="10.3527170">
	<ele>1527.00</ele>
	<time>2025-04-29T08:12:17.000Z</time>
</trkpt>
<trkpt lat="45.8948870" lon="10.3526980">
	<ele>1527.00</ele>
	<time>2025-04-29T08:12:18.000Z</time>
</trkpt>
<trkpt lat="45.8948840" lon="10.3526680">
	<ele>1527.00</ele>
	<time>2025-04-29T08:12:19.000Z</time>
</trkpt>
<trkpt lat="45.8948790" lon="10.3526270">
	<ele>1527.00</ele>
	<time>2025-04-29T08:12:20.000Z</time>
</trkpt>
<trkpt lat="45.8948750" lon="10.3525960">
	<ele>1527.20</ele>
	<time>2025-04-29T08:12:21.000Z</time>
</trkpt>
<trkpt lat="45.8948650" lon="10.3525830">
	<ele>1527.20</ele>
	<time>2025-04-29T08:12:22.000Z</time>
</trkpt>
<trkpt lat="45.8948520" lon="10.3525760">
	<ele>1527.20</ele>
	<time>2025-04-29T08:12:23.000Z</time>
</trkpt>
<trkpt lat="45.8948370" lon="10.3525670">
	<ele>1527.20</ele>
	<time>2025-04-29T08:12:24.000Z</time>
</trkpt>
<trkpt lat="45.8948370" lon="10.3525570">
	<ele>1527.20</ele>
	<time>2025-04-29T08:12:25.000Z</time>
</trkpt>
<trkpt lat="45.8948360" lon="10.3525430">
	<ele>1527.20</ele>
	<time>2025-04-29T08:12:26.000Z</time>
</trkpt>
<trkpt lat="45.8948280" lon="10.3525250">
	<ele>1527.40</ele>
	<time>2025-04-29T08:12:27.000Z</time>
</trkpt>
<trkpt lat="45.8948270" lon="10.3525210">
	<ele>1527.40</ele>
	<time>2025-04-29T08:12:28.000Z</time>
</trkpt>
<trkpt lat="45.8948250" lon="10.3525050">
	<ele>1527.40</ele>
	<time>2025-04-29T08:12:29.000Z</time>
</trkpt>
<trkpt lat="45.8948230" lon="10.3524880">
	<ele>1527.40</ele>
	<time>2025-04-29T08:12:30.000Z</time>
</trkpt>
<trkpt lat="45.8948190" lon="10.3524700">
	<ele>1527.40</ele>
	<time>2025-04-29T08:12:31.000Z</time>
</trkpt>
<trkpt lat="45.8948130" lon="10.3524570">
	<ele>1527.40</ele>
	<time>2025-04-29T08:12:32.000Z</time>
</trkpt>
<trkpt lat="45.8948200" lon="10.3524500">
	<ele>1527.20</ele>
	<time>2025-04-29T08:12:33.000Z</time>
</trkpt>
<trkpt lat="45.8948220" lon="10.3524340">
	<ele>1527.20</ele>
	<time>2025-04-29T08:12:34.000Z</time>
</trkpt>
<trkpt lat="45.8948140" lon="10.3524230">
	<ele>1527.20</ele>
	<time>2025-04-29T08:12:35.000Z</time>
</trkpt>
<trkpt lat="45.8948180" lon="10.3524180">
	<ele>1527.20</ele>
	<time>2025-04-29T08:12:36.000Z</time>
</trkpt>
<trkpt lat="45.8948160" lon="10.3524050">
	<ele>1527.20</ele>
	<time>2025-04-29T08:12:37.000Z</time>
</trkpt>
<trkpt lat="45.8948200" lon="10.3523930">
	<ele>1527.20</ele>
	<time>2025-04-29T08:12:38.000Z</time>
</trkpt>
<trkpt lat="45.8948250" lon="10.3523800">
	<ele>1527.20</ele>
	<time>2025-04-29T08:12:39.000Z</time>
</trkpt>
<trkpt lat="45.8948290" lon="10.3523740">
	<ele>1527.20</ele>
	<time>2025-04-29T08:12:40.000Z</time>
</trkpt>
<trkpt lat="45.8948370" lon="10.3523640">
	<ele>1527.20</ele>
	<time>2025-04-29T08:12:41.000Z</time>
</trkpt>
<trkpt lat="45.8948460" lon="10.3523480">
	<ele>1527.20</ele>
	<time>2025-04-29T08:12:42.000Z</time>
</trkpt>
<trkpt lat="45.8948670" lon="10.3523390">
	<ele>1527.20</ele>
	<time>2025-04-29T08:12:43.000Z</time>
</trkpt>
<trkpt lat="45.8948810" lon="10.3523320">
	<ele>1527.20</ele>
	<time>2025-04-29T08:12:44.000Z</time>
</trkpt>
<trkpt lat="45.8948910" lon="10.3523300">
	<ele>1527.40</ele>
	<time>2025-04-29T08:12:45.000Z</time>
</trkpt>
<trkpt lat="45.8949000" lon="10.3523270">
	<ele>1527.40</ele>
	<time>2025-04-29T08:12:46.000Z</time>
</trkpt>
<trkpt lat="45.8949080" lon="10.3523140">
	<ele>1527.40</ele>
	<time>2025-04-29T08:12:47.000Z</time>
</trkpt>
<trkpt lat="45.8949200" lon="10.3523060">
	<ele>1527.40</ele>
	<time>2025-04-29T08:12:48.000Z</time>
</trkpt>
<trkpt lat="45.8949330" lon="10.3523030">
	<ele>1527.40</ele>
	<time>2025-04-29T08:12:49.000Z</time>
</trkpt>
<trkpt lat="45.8949420" lon="10.3522950">
	<ele>1527.60</ele>
	<time>2025-04-29T08:12:50.000Z</time>
</trkpt>
<trkpt lat="45.8949440" lon="10.3522780">
	<ele>1527.60</ele>
	<time>2025-04-29T08:12:51.000Z</time>
</trkpt>
<trkpt lat="45.8949490" lon="10.3522610">
	<ele>1527.60</ele>
	<time>2025-04-29T08:12:52.000Z</time>
</trkpt>
<trkpt lat="45.8949530" lon="10.3522450">
	<ele>1527.60</ele>
	<time>2025-04-29T08:12:53.000Z</time>
</trkpt>
<trkpt lat="45.8949560" lon="10.3522350">
	<ele>1527.60</ele>
	<time>2025-04-29T08:12:54.000Z</time>
</trkpt>
<trkpt lat="45.8949640" lon="10.3522200">
	<ele>1527.60</ele>
	<time>2025-04-29T08:12:55.000Z</time>
</trkpt>
<trkpt lat="45.8949690" lon="10.3522060">
	<ele>1527.60</ele>
	<time>2025-04-29T08:12:56.000Z</time>
</trkpt>
<trkpt lat="45.8949760" lon="10.3521950">
	<ele>1527.40</ele>
	<time>2025-04-29T08:12:57.000Z</time>
</trkpt>
<trkpt lat="45.8949810" lon="10.3521850">
	<ele>1527.20</ele>
	<time>2025-04-29T08:12:58.000Z</time>
</trkpt>
<trkpt lat="45.8949930" lon="10.3521860">
	<ele>1527.20</ele>
	<time>2025-04-29T08:12:59.000Z</time>
</trkpt>
<trkpt lat="45.8950040" lon="10.3521840">
	<ele>1527.20</ele>
	<time>2025-04-29T08:13:00.000Z</time>
</trkpt>
<trkpt lat="45.8950140" lon="10.3521770">
	<ele>1527.20</ele>
	<time>2025-04-29T08:13:01.000Z</time>
</trkpt>
<trkpt lat="45.8950250" lon="10.3521600">
	<ele>1527.00</ele>
	<time>2025-04-29T08:13:02.000Z</time>
</trkpt>
<trkpt lat="45.8950410" lon="10.3521450">
	<ele>1527.00</ele>
	<time>2025-04-29T08:13:03.000Z</time>
</trkpt>
<trkpt lat="45.8950580" lon="10.3521420">
	<ele>1527.00</ele>
	<time>2025-04-29T08:13:04.000Z</time>
</trkpt>
<trkpt lat="45.8950750" lon="10.3521380">
	<ele>1527.00</ele>
	<time>2025-04-29T08:13:05.000Z</time>
</trkpt>
<trkpt lat="45.8950930" lon="10.3521400">
	<ele>1526.80</ele>
	<time>2025-04-29T08:13:06.000Z</time>
</trkpt>
<trkpt lat="45.8951030" lon="10.3521350">
	<ele>1526.80</ele>
	<time>2025-04-29T08:13:07.000Z</time>
</trkpt>
<trkpt lat="45.8951090" lon="10.3521280">
	<ele>1526.60</ele>
	<time>2025-04-29T08:13:08.000Z</time>
</trkpt>
<trkpt lat="45.8951130" lon="10.3521160">
	<ele>1526.60</ele>
	<time>2025-04-29T08:13:09.000Z</time>
</trkpt>
<trkpt lat="45.8951210" lon="10.3521050">
	<ele>1526.60</ele>
	<time>2025-04-29T08:13:10.000Z</time>
</trkpt>
<trkpt lat="45.8951290" lon="10.3520880">
	<ele>1526.40</ele>
	<time>2025-04-29T08:13:11.000Z</time>
</trkpt>
<trkpt lat="45.8951360" lon="10.3520740">
	<ele>1526.40</ele>
	<time>2025-04-29T08:13:12.000Z</time>
</trkpt>
<trkpt lat="45.8951390" lon="10.3520580">
	<ele>1526.20</ele>
	<time>2025-04-29T08:13:13.000Z</time>
</trkpt>
<trkpt lat="45.8951330" lon="10.3520410">
	<ele>1526.20</ele>
	<time>2025-04-29T08:13:14.000Z</time>
</trkpt>
<trkpt lat="45.8951350" lon="10.3520170">
	<ele>1526.20</ele>
	<time>2025-04-29T08:13:15.000Z</time>
</trkpt>
<trkpt lat="45.8951500" lon="10.3520040">
	<ele>1526.00</ele>
	<time>2025-04-29T08:13:16.000Z</time>
</trkpt>
<trkpt lat="45.8951790" lon="10.3519910">
	<ele>1525.80</ele>
	<time>2025-04-29T08:13:17.000Z</time>
</trkpt>
<trkpt lat="45.8951980" lon="10.3519770">
	<ele>1525.80</ele>
	<time>2025-04-29T08:13:18.000Z</time>
</trkpt>
<trkpt lat="45.8952100" lon="10.3519630">
	<ele>1525.60</ele>
	<time>2025-04-29T08:13:19.000Z</time>
</trkpt>
<trkpt lat="45.8952170" lon="10.3519470">
	<ele>1525.60</ele>
	<time>2025-04-29T08:13:20.000Z</time>
</trkpt>
<trkpt lat="45.8952210" lon="10.3519420">
	<ele>1525.60</ele>
	<time>2025-04-29T08:13:21.000Z</time>
</trkpt>
<trkpt lat="45.8952210" lon="10.3519260">
	<ele>1525.60</ele>
	<time>2025-04-29T08:13:22.000Z</time>
</trkpt>
<trkpt lat="45.8952230" lon="10.3519150">
	<ele>1525.40</ele>
	<time>2025-04-29T08:13:23.000Z</time>
</trkpt>
<trkpt lat="45.8952290" lon="10.3519030">
	<ele>1525.40</ele>
	<time>2025-04-29T08:13:24.000Z</time>
</trkpt>
<trkpt lat="45.8952300" lon="10.3518910">
	<ele>1525.40</ele>
	<time>2025-04-29T08:13:25.000Z</time>
</trkpt>
<trkpt lat="45.8952320" lon="10.3518700">
	<ele>1525.40</ele>
	<time>2025-04-29T08:13:26.000Z</time>
</trkpt>
<trkpt lat="45.8952330" lon="10.3518620">
	<ele>1525.80</ele>
	<time>2025-04-29T08:13:27.000Z</time>
</trkpt>
<trkpt lat="45.8952340" lon="10.3518580">
	<ele>1526.00</ele>
	<time>2025-04-29T08:13:28.000Z</time>
</trkpt>
<trkpt lat="45.8952350" lon="10.3518570">
	<ele>1526.00</ele>
	<time>2025-04-29T08:13:29.000Z</time>
</trkpt>
<trkpt lat="45.8952360" lon="10.3518570">
	<ele>1526.20</ele>
	<time>2025-04-29T08:13:30.000Z</time>
</trkpt>
<trkpt lat="45.8952360" lon="10.3518560">
	<ele>1526.20</ele>
	<time>2025-04-29T08:13:31.000Z</time>
</trkpt>
<trkpt lat="45.8952580" lon="10.3518510">
	<ele>1526.20</ele>
	<time>2025-04-29T08:13:32.000Z</time>
</trkpt>
<trkpt lat="45.8952610" lon="10.3518420">
	<ele>1526.00</ele>
	<time>2025-04-29T08:13:33.000Z</time>
</trkpt>
<trkpt lat="45.8952670" lon="10.3518340">
	<ele>1525.80</ele>
	<time>2025-04-29T08:13:34.000Z</time>
</trkpt>
<trkpt lat="45.8952730" lon="10.3518260">
	<ele>1525.60</ele>
	<time>2025-04-29T08:13:35.000Z</time>
</trkpt>
<trkpt lat="45.8952790" lon="10.3518140">
	<ele>1525.60</ele>
	<time>2025-04-29T08:13:36.000Z</time>
</trkpt>
<trkpt lat="45.8952820" lon="10.3518040">
	<ele>1525.60</ele>
	<time>2025-04-29T08:13:37.000Z</time>
</trkpt>
<trkpt lat="45.8952880" lon="10.3517940">
	<ele>1525.60</ele>
	<time>2025-04-29T08:13:38.000Z</time>
</trkpt>
<trkpt lat="45.8952930" lon="10.3517790">
	<ele>1525.60</ele>
	<time>2025-04-29T08:13:39.000Z</time>
</trkpt>
<trkpt lat="45.8952980" lon="10.3517610">
	<ele>1525.60</ele>
	<time>2025-04-29T08:13:40.000Z</time>
</trkpt>
<trkpt lat="45.8953070" lon="10.3517480">
	<ele>1525.60</ele>
	<time>2025-04-29T08:13:41.000Z</time>
</trkpt>
<trkpt lat="45.8953150" lon="10.3517320">
	<ele>1525.60</ele>
	<time>2025-04-29T08:13:42.000Z</time>
</trkpt>
<trkpt lat="45.8953230" lon="10.3517190">
	<ele>1525.60</ele>
	<time>2025-04-29T08:13:43.000Z</time>
</trkpt>
<trkpt lat="45.8953300" lon="10.3517090">
	<ele>1525.60</ele>
	<time>2025-04-29T08:13:44.000Z</time>
</trkpt>
<trkpt lat="45.8953370" lon="10.3517010">
	<ele>1525.60</ele>
	<time>2025-04-29T08:13:45.000Z</time>
</trkpt>
<trkpt lat="45.8953420" lon="10.3516930">
	<ele>1525.40</ele>
	<time>2025-04-29T08:13:46.000Z</time>
</trkpt>
<trkpt lat="45.8953500" lon="10.3516800">
	<ele>1525.40</ele>
	<time>2025-04-29T08:13:47.000Z</time>
</trkpt>
<trkpt lat="45.8953480" lon="10.3516550">
	<ele>1525.40</ele>
	<time>2025-04-29T08:13:48.000Z</time>
</trkpt>
<trkpt lat="45.8953540" lon="10.3516340">
	<ele>1525.40</ele>
	<time>2025-04-29T08:13:49.000Z</time>
</trkpt>
<trkpt lat="45.8953700" lon="10.3516230">
	<ele>1525.20</ele>
	<time>2025-04-29T08:13:50.000Z</time>
</trkpt>
<trkpt lat="45.8953830" lon="10.3516100">
	<ele>1525.20</ele>
	<time>2025-04-29T08:13:51.000Z</time>
</trkpt>
<trkpt lat="45.8953910" lon="10.3516120">
	<ele>1525.20</ele>
	<time>2025-04-29T08:13:52.000Z</time>
</trkpt>
<trkpt lat="45.8954010" lon="10.3516050">
	<ele>1525.20</ele>
	<time>2025-04-29T08:13:53.000Z</time>
</trkpt>
<trkpt lat="45.8954150" lon="10.3515960">
	<ele>1525.00</ele>
	<time>2025-04-29T08:13:54.000Z</time>
</trkpt>
<trkpt lat="45.8954300" lon="10.3515850">
	<ele>1525.00</ele>
	<time>2025-04-29T08:13:55.000Z</time>
</trkpt>
<trkpt lat="45.8954430" lon="10.3515790">
	<ele>1525.00</ele>
	<time>2025-04-29T08:13:56.000Z</time>
</trkpt>
<trkpt lat="45.8954570" lon="10.3515710">
	<ele>1525.00</ele>
	<time>2025-04-29T08:13:57.000Z</time>
</trkpt>
<trkpt lat="45.8954710" lon="10.3515670">
	<ele>1525.00</ele>
	<time>2025-04-29T08:13:58.000Z</time>
</trkpt>
<trkpt lat="45.8954860" lon="10.3515610">
	<ele>1525.00</ele>
	<time>2025-04-29T08:13:59.000Z</time>
</trkpt>
<trkpt lat="45.8955000" lon="10.3515480">
	<ele>1524.80</ele>
	<time>2025-04-29T08:14:00.000Z</time>
</trkpt>
<trkpt lat="45.8955110" lon="10.3515330">
	<ele>1524.80</ele>
	<time>2025-04-29T08:14:01.000Z</time>
</trkpt>
<trkpt lat="45.8955230" lon="10.3515260">
	<ele>1524.80</ele>
	<time>2025-04-29T08:14:02.000Z</time>
</trkpt>
<trkpt lat="45.8955380" lon="10.3515240">
	<ele>1524.60</ele>
	<time>2025-04-29T08:14:03.000Z</time>
</trkpt>
<trkpt lat="45.8955530" lon="10.3515180">
	<ele>1524.60</ele>
	<time>2025-04-29T08:14:04.000Z</time>
</trkpt>
<trkpt lat="45.8955720" lon="10.3515160">
	<ele>1524.40</ele>
	<time>2025-04-29T08:14:05.000Z</time>
</trkpt>
<trkpt lat="45.8955840" lon="10.3515050">
	<ele>1524.40</ele>
	<time>2025-04-29T08:14:06.000Z</time>
</trkpt>
<trkpt lat="45.8955960" lon="10.3514960">
	<ele>1524.20</ele>
	<time>2025-04-29T08:14:07.000Z</time>
</trkpt>
<trkpt lat="45.8956080" lon="10.3514830">
	<ele>1524.20</ele>
	<time>2025-04-29T08:14:08.000Z</time>
</trkpt>
<trkpt lat="45.8956200" lon="10.3514660">
	<ele>1524.20</ele>
	<time>2025-04-29T08:14:09.000Z</time>
</trkpt>
<trkpt lat="45.8956350" lon="10.3514590">
	<ele>1524.00</ele>
	<time>2025-04-29T08:14:10.000Z</time>
</trkpt>
<trkpt lat="45.8956460" lon="10.3514520">
	<ele>1524.00</ele>
	<time>2025-04-29T08:14:11.000Z</time>
</trkpt>
<trkpt lat="45.8956590" lon="10.3514430">
	<ele>1524.00</ele>
	<time>2025-04-29T08:14:12.000Z</time>
</trkpt>
<trkpt lat="45.8956700" lon="10.3514350">
	<ele>1524.00</ele>
	<time>2025-04-29T08:14:13.000Z</time>
</trkpt>
<trkpt lat="45.8956790" lon="10.3514350">
	<ele>1524.00</ele>
	<time>2025-04-29T08:14:14.000Z</time>
</trkpt>
<trkpt lat="45.8956930" lon="10.3514380">
	<ele>1523.80</ele>
	<time>2025-04-29T08:14:15.000Z</time>
</trkpt>
<trkpt lat="45.8957040" lon="10.3514380">
	<ele>1523.80</ele>
	<time>2025-04-29T08:14:16.000Z</time>
</trkpt>
<trkpt lat="45.8957160" lon="10.3514330">
	<ele>1523.60</ele>
	<time>2025-04-29T08:14:17.000Z</time>
</trkpt>
<trkpt lat="45.8957290" lon="10.3514220">
	<ele>1523.60</ele>
	<time>2025-04-29T08:14:18.000Z</time>
</trkpt>
<trkpt lat="45.8957460" lon="10.3514120">
	<ele>1523.60</ele>
	<time>2025-04-29T08:14:19.000Z</time>
</trkpt>
<trkpt lat="45.8957570" lon="10.3513920">
	<ele>1523.60</ele>
	<time>2025-04-29T08:14:20.000Z</time>
</trkpt>
<trkpt lat="45.8957720" lon="10.3513780">
	<ele>1523.60</ele>
	<time>2025-04-29T08:14:21.000Z</time>
</trkpt>
<trkpt lat="45.8957920" lon="10.3513720">
	<ele>1523.60</ele>
	<time>2025-04-29T08:14:22.000Z</time>
</trkpt>
<trkpt lat="45.8958130" lon="10.3513680">
	<ele>1523.60</ele>
	<time>2025-04-29T08:14:23.000Z</time>
</trkpt>
<trkpt lat="45.8958260" lon="10.3513580">
	<ele>1523.80</ele>
	<time>2025-04-29T08:14:24.000Z</time>
</trkpt>
<trkpt lat="45.8958310" lon="10.3513480">
	<ele>1523.80</ele>
	<time>2025-04-29T08:14:25.000Z</time>
</trkpt>
<trkpt lat="45.8958420" lon="10.3513310">
	<ele>1523.80</ele>
	<time>2025-04-29T08:14:26.000Z</time>
</trkpt>
<trkpt lat="45.8958520" lon="10.3513230">
	<ele>1523.80</ele>
	<time>2025-04-29T08:14:27.000Z</time>
</trkpt>
<trkpt lat="45.8958650" lon="10.3513320">
	<ele>1523.80</ele>
	<time>2025-04-29T08:14:28.000Z</time>
</trkpt>
<trkpt lat="45.8958830" lon="10.3513540">
	<ele>1523.60</ele>
	<time>2025-04-29T08:14:29.000Z</time>
</trkpt>
<trkpt lat="45.8958940" lon="10.3513680">
	<ele>1523.40</ele>
	<time>2025-04-29T08:14:30.000Z</time>
</trkpt>
<trkpt lat="45.8958980" lon="10.3513640">
	<ele>1523.40</ele>
	<time>2025-04-29T08:14:31.000Z</time>
</trkpt>
<trkpt lat="45.8959100" lon="10.3513520">
	<ele>1523.20</ele>
	<time>2025-04-29T08:14:32.000Z</time>
</trkpt>
<trkpt lat="45.8959220" lon="10.3513360">
	<ele>1523.20</ele>
	<time>2025-04-29T08:14:33.000Z</time>
</trkpt>
<trkpt lat="45.8959260" lon="10.3513290">
	<ele>1523.00</ele>
	<time>2025-04-29T08:14:34.000Z</time>
</trkpt>
<trkpt lat="45.8959350" lon="10.3513210">
	<ele>1522.80</ele>
	<time>2025-04-29T08:14:35.000Z</time>
</trkpt>
<trkpt lat="45.8959460" lon="10.3513150">
	<ele>1522.80</ele>
	<time>2025-04-29T08:14:36.000Z</time>
</trkpt>
<trkpt lat="45.8959550" lon="10.3513070">
	<ele>1522.60</ele>
	<time>2025-04-29T08:14:37.000Z</time>
</trkpt>
<trkpt lat="45.8959710" lon="10.3512950">
	<ele>1522.60</ele>
	<time>2025-04-29T08:14:38.000Z</time>
</trkpt>
<trkpt lat="45.8959880" lon="10.3512810">
	<ele>1522.40</ele>
	<time>2025-04-29T08:14:39.000Z</time>
</trkpt>
<trkpt lat="45.8960080" lon="10.3512740">
	<ele>1522.40</ele>
	<time>2025-04-29T08:14:40.000Z</time>
</trkpt>
<trkpt lat="45.8960150" lon="10.3512620">
	<ele>1522.20</ele>
	<time>2025-04-29T08:14:41.000Z</time>
</trkpt>
<trkpt lat="45.8960300" lon="10.3512600">
	<ele>1522.00</ele>
	<time>2025-04-29T08:14:42.000Z</time>
</trkpt>
<trkpt lat="45.8960500" lon="10.3512600">
	<ele>1521.80</ele>
	<time>2025-04-29T08:14:43.000Z</time>
</trkpt>
<trkpt lat="45.8960730" lon="10.3512510">
	<ele>1521.60</ele>
	<time>2025-04-29T08:14:44.000Z</time>
</trkpt>
<trkpt lat="45.8960840" lon="10.3512410">
	<ele>1521.40</ele>
	<time>2025-04-29T08:14:45.000Z</time>
</trkpt>
<trkpt lat="45.8960940" lon="10.3512280">
	<ele>1521.20</ele>
	<time>2025-04-29T08:14:46.000Z</time>
</trkpt>
<trkpt lat="45.8961020" lon="10.3512120">
	<ele>1521.20</ele>
	<time>2025-04-29T08:14:47.000Z</time>
</trkpt>
<trkpt lat="45.8961140" lon="10.3511990">
	<ele>1521.00</ele>
	<time>2025-04-29T08:14:48.000Z</time>
</trkpt>
<trkpt lat="45.8961250" lon="10.3511920">
	<ele>1520.80</ele>
	<time>2025-04-29T08:14:49.000Z</time>
</trkpt>
<trkpt lat="45.8961410" lon="10.3511900">
	<ele>1520.80</ele>
	<time>2025-04-29T08:14:50.000Z</time>
</trkpt>
<trkpt lat="45.8961570" lon="10.3511880">
	<ele>1520.80</ele>
	<time>2025-04-29T08:14:51.000Z</time>
</trkpt>
<trkpt lat="45.8961740" lon="10.3511860">
	<ele>1520.60</ele>
	<time>2025-04-29T08:14:52.000Z</time>
</trkpt>
<trkpt lat="45.8961850" lon="10.3511860">
	<ele>1520.60</ele>
	<time>2025-04-29T08:14:53.000Z</time>
</trkpt>
<trkpt lat="45.8961880" lon="10.3511750">
	<ele>1520.40</ele>
	<time>2025-04-29T08:14:54.000Z</time>
</trkpt>
<trkpt lat="45.8961840" lon="10.3511520">
	<ele>1520.40</ele>
	<time>2025-04-29T08:14:55.000Z</time>
</trkpt>
<trkpt lat="45.8961800" lon="10.3511200">
	<ele>1520.40</ele>
	<time>2025-04-29T08:14:56.000Z</time>
</trkpt>
<trkpt lat="45.8961810" lon="10.3510940">
	<ele>1520.20</ele>
	<time>2025-04-29T08:14:57.000Z</time>
</trkpt>
<trkpt lat="45.8961890" lon="10.3510790">
	<ele>1520.20</ele>
	<time>2025-04-29T08:14:58.000Z</time>
</trkpt>
<trkpt lat="45.8961950" lon="10.3510670">
	<ele>1520.20</ele>
	<time>2025-04-29T08:14:59.000Z</time>
</trkpt>
<trkpt lat="45.8962000" lon="10.3510580">
	<ele>1520.20</ele>
	<time>2025-04-29T08:15:00.000Z</time>
</trkpt>
<trkpt lat="45.8962120" lon="10.3510450">
	<ele>1520.20</ele>
	<time>2025-04-29T08:15:01.000Z</time>
</trkpt>
<trkpt lat="45.8962250" lon="10.3510350">
	<ele>1520.20</ele>
	<time>2025-04-29T08:15:02.000Z</time>
</trkpt>
<trkpt lat="45.8962360" lon="10.3510250">
	<ele>1520.20</ele>
	<time>2025-04-29T08:15:03.000Z</time>
</trkpt>
<trkpt lat="45.8962410" lon="10.3510120">
	<ele>1520.00</ele>
	<time>2025-04-29T08:15:04.000Z</time>
</trkpt>
<trkpt lat="45.8962490" lon="10.3510000">
	<ele>1520.00</ele>
	<time>2025-04-29T08:15:05.000Z</time>
</trkpt>
<trkpt lat="45.8962600" lon="10.3509870">
	<ele>1520.00</ele>
	<time>2025-04-29T08:15:06.000Z</time>
</trkpt>
<trkpt lat="45.8962690" lon="10.3509730">
	<ele>1520.00</ele>
	<time>2025-04-29T08:15:07.000Z</time>
</trkpt>
<trkpt lat="45.8962740" lon="10.3509570">
	<ele>1520.00</ele>
	<time>2025-04-29T08:15:08.000Z</time>
</trkpt>
<trkpt lat="45.8962780" lon="10.3509450">
	<ele>1520.00</ele>
	<time>2025-04-29T08:15:09.000Z</time>
</trkpt>
<trkpt lat="45.8962830" lon="10.3509300">
	<ele>1520.00</ele>
	<time>2025-04-29T08:15:10.000Z</time>
</trkpt>
<trkpt lat="45.8962870" lon="10.3509170">
	<ele>1520.00</ele>
	<time>2025-04-29T08:15:11.000Z</time>
</trkpt>
<trkpt lat="45.8962900" lon="10.3509000">
	<ele>1520.00</ele>
	<time>2025-04-29T08:15:12.000Z</time>
</trkpt>
<trkpt lat="45.8962910" lon="10.3508880">
	<ele>1520.00</ele>
	<time>2025-04-29T08:15:13.000Z</time>
</trkpt>
<trkpt lat="45.8962950" lon="10.3508740">
	<ele>1519.80</ele>
	<time>2025-04-29T08:15:14.000Z</time>
</trkpt>
<trkpt lat="45.8963010" lon="10.3508670">
	<ele>1519.80</ele>
	<time>2025-04-29T08:15:15.000Z</time>
</trkpt>
<trkpt lat="45.8963080" lon="10.3508520">
	<ele>1519.80</ele>
	<time>2025-04-29T08:15:16.000Z</time>
</trkpt>
<trkpt lat="45.8963120" lon="10.3508320">
	<ele>1519.80</ele>
	<time>2025-04-29T08:15:17.000Z</time>
</trkpt>
<trkpt lat="45.8963150" lon="10.3508100">
	<ele>1519.80</ele>
	<time>2025-04-29T08:15:18.000Z</time>
</trkpt>
<trkpt lat="45.8963170" lon="10.3507900">
	<ele>1519.80</ele>
	<time>2025-04-29T08:15:19.000Z</time>
</trkpt>
<trkpt lat="45.8963200" lon="10.3507800">
	<ele>1519.80</ele>
	<time>2025-04-29T08:15:20.000Z</time>
</trkpt>
<trkpt lat="45.8963240" lon="10.3507690">
	<ele>1519.80</ele>
	<time>2025-04-29T08:15:21.000Z</time>
</trkpt>
<trkpt lat="45.8963260" lon="10.3507510">
	<ele>1519.80</ele>
	<time>2025-04-29T08:15:22.000Z</time>
</trkpt>
<trkpt lat="45.8963290" lon="10.3507380">
	<ele>1519.80</ele>
	<time>2025-04-29T08:15:23.000Z</time>
</trkpt>
<trkpt lat="45.8963390" lon="10.3507220">
	<ele>1519.60</ele>
	<time>2025-04-29T08:15:24.000Z</time>
</trkpt>
<trkpt lat="45.8963400" lon="10.3507110">
	<ele>1519.60</ele>
	<time>2025-04-29T08:15:25.000Z</time>
</trkpt>
<trkpt lat="45.8963430" lon="10.3507040">
	<ele>1519.60</ele>
	<time>2025-04-29T08:15:26.000Z</time>
</trkpt>
<trkpt lat="45.8963450" lon="10.3507030">
	<ele>1519.40</ele>
	<time>2025-04-29T08:15:27.000Z</time>
</trkpt>
<trkpt lat="45.8963400" lon="10.3506910">
	<ele>1519.40</ele>
	<time>2025-04-29T08:15:28.000Z</time>
</trkpt>
<trkpt lat="45.8963390" lon="10.3506820">
	<ele>1519.20</ele>
	<time>2025-04-29T08:15:29.000Z</time>
</trkpt>
<trkpt lat="45.8963360" lon="10.3506660">
	<ele>1519.00</ele>
	<time>2025-04-29T08:15:30.000Z</time>
</trkpt>
<trkpt lat="45.8963450" lon="10.3506460">
	<ele>1519.00</ele>
	<time>2025-04-29T08:15:31.000Z</time>
</trkpt>
<trkpt lat="45.8963550" lon="10.3506370">
	<ele>1519.00</ele>
	<time>2025-04-29T08:15:32.000Z</time>
</trkpt>
<trkpt lat="45.8963650" lon="10.3506300">
	<ele>1518.80</ele>
	<time>2025-04-29T08:15:33.000Z</time>
</trkpt>
<trkpt lat="45.8963770" lon="10.3506160">
	<ele>1518.80</ele>
	<time>2025-04-29T08:15:34.000Z</time>
</trkpt>
<trkpt lat="45.8963730" lon="10.3506150">
	<ele>1518.60</ele>
	<time>2025-04-29T08:15:35.000Z</time>
</trkpt>
<trkpt lat="45.8963760" lon="10.3506130">
	<ele>1518.60</ele>
	<time>2025-04-29T08:15:36.000Z</time>
</trkpt>
<trkpt lat="45.8963820" lon="10.3506060">
	<ele>1518.40</ele>
	<time>2025-04-29T08:15:37.000Z</time>
</trkpt>
<trkpt lat="45.8963860" lon="10.3505990">
	<ele>1518.20</ele>
	<time>2025-04-29T08:15:38.000Z</time>
</trkpt>
<trkpt lat="45.8963910" lon="10.3505930">
	<ele>1518.20</ele>
	<time>2025-04-29T08:15:39.000Z</time>
</trkpt>
<trkpt lat="45.8964000" lon="10.3505860">
	<ele>1518.20</ele>
	<time>2025-04-29T08:15:40.000Z</time>
</trkpt>
<trkpt lat="45.8964000" lon="10.3505690">
	<ele>1518.00</ele>
	<time>2025-04-29T08:15:41.000Z</time>
</trkpt>
<trkpt lat="45.8964130" lon="10.3505610">
	<ele>1517.80</ele>
	<time>2025-04-29T08:15:42.000Z</time>
</trkpt>
<trkpt lat="45.8964270" lon="10.3505580">
	<ele>1517.80</ele>
	<time>2025-04-29T08:15:43.000Z</time>
</trkpt>
<trkpt lat="45.8964430" lon="10.3505510">
	<ele>1517.60</ele>
	<time>2025-04-29T08:15:44.000Z</time>
</trkpt>
<trkpt lat="45.8964570" lon="10.3505480">
	<ele>1517.60</ele>
	<time>2025-04-29T08:15:45.000Z</time>
</trkpt>
<trkpt lat="45.8964710" lon="10.3505420">
	<ele>1517.40</ele>
	<time>2025-04-29T08:15:46.000Z</time>
</trkpt>
<trkpt lat="45.8964790" lon="10.3505290">
	<ele>1517.40</ele>
	<time>2025-04-29T08:15:47.000Z</time>
</trkpt>
<trkpt lat="45.8964900" lon="10.3505150">
	<ele>1517.40</ele>
	<time>2025-04-29T08:15:48.000Z</time>
</trkpt>
<trkpt lat="45.8965030" lon="10.3505070">
	<ele>1517.20</ele>
	<time>2025-04-29T08:15:49.000Z</time>
</trkpt>
<trkpt lat="45.8965170" lon="10.3505060">
	<ele>1517.00</ele>
	<time>2025-04-29T08:15:50.000Z</time>
</trkpt>
<trkpt lat="45.8965310" lon="10.3505010">
	<ele>1517.00</ele>
	<time>2025-04-29T08:15:51.000Z</time>
</trkpt>
<trkpt lat="45.8965510" lon="10.3504900">
	<ele>1517.00</ele>
	<time>2025-04-29T08:15:52.000Z</time>
</trkpt>
<trkpt lat="45.8965720" lon="10.3504790">
	<ele>1517.00</ele>
	<time>2025-04-29T08:15:53.000Z</time>
</trkpt>
<trkpt lat="45.8966000" lon="10.3504690">
	<ele>1517.00</ele>
	<time>2025-04-29T08:15:54.000Z</time>
</trkpt>
<trkpt lat="45.8966260" lon="10.3504550">
	<ele>1517.00</ele>
	<time>2025-04-29T08:15:55.000Z</time>
</trkpt>
<trkpt lat="45.8966520" lon="10.3504390">
	<ele>1517.00</ele>
	<time>2025-04-29T08:15:56.000Z</time>
</trkpt>
<trkpt lat="45.8966750" lon="10.3504320">
	<ele>1517.00</ele>
	<time>2025-04-29T08:15:57.000Z</time>
</trkpt>
<trkpt lat="45.8967000" lon="10.3504280">
	<ele>1516.80</ele>
	<time>2025-04-29T08:15:58.000Z</time>
</trkpt>
<trkpt lat="45.8967220" lon="10.3504230">
	<ele>1516.80</ele>
	<time>2025-04-29T08:15:59.000Z</time>
</trkpt>
<trkpt lat="45.8967440" lon="10.3504200">
	<ele>1516.80</ele>
	<time>2025-04-29T08:16:00.000Z</time>
</trkpt>
<trkpt lat="45.8967590" lon="10.3504100">
	<ele>1516.80</ele>
	<time>2025-04-29T08:16:01.000Z</time>
</trkpt>
<trkpt lat="45.8967720" lon="10.3504040">
	<ele>1516.60</ele>
	<time>2025-04-29T08:16:02.000Z</time>
</trkpt>
<trkpt lat="45.8967840" lon="10.3503980">
	<ele>1516.60</ele>
	<time>2025-04-29T08:16:03.000Z</time>
</trkpt>
<trkpt lat="45.8967920" lon="10.3503900">
	<ele>1516.40</ele>
	<time>2025-04-29T08:16:04.000Z</time>
</trkpt>
<trkpt lat="45.8967900" lon="10.3503830">
	<ele>1516.40</ele>
	<time>2025-04-29T08:16:05.000Z</time>
</trkpt>
<trkpt lat="45.8968060" lon="10.3503740">
	<ele>1516.40</ele>
	<time>2025-04-29T08:16:06.000Z</time>
</trkpt>
<trkpt lat="45.8968150" lon="10.3503630">
	<ele>1516.40</ele>
	<time>2025-04-29T08:16:07.000Z</time>
</trkpt>
<trkpt lat="45.8968210" lon="10.3503610">
	<ele>1516.20</ele>
	<time>2025-04-29T08:16:08.000Z</time>
</trkpt>
<trkpt lat="45.8968280" lon="10.3503490">
	<ele>1516.20</ele>
	<time>2025-04-29T08:16:09.000Z</time>
</trkpt>
<trkpt lat="45.8968440" lon="10.3503430">
	<ele>1516.00</ele>
	<time>2025-04-29T08:16:10.000Z</time>
</trkpt>
<trkpt lat="45.8968570" lon="10.3503340">
	<ele>1516.00</ele>
	<time>2025-04-29T08:16:11.000Z</time>
</trkpt>
<trkpt lat="45.8968700" lon="10.3503220">
	<ele>1516.00</ele>
	<time>2025-04-29T08:16:12.000Z</time>
</trkpt>
<trkpt lat="45.8968810" lon="10.3503110">
	<ele>1516.00</ele>
	<time>2025-04-29T08:16:13.000Z</time>
</trkpt>
<trkpt lat="45.8968900" lon="10.3503050">
	<ele>1516.00</ele>
	<time>2025-04-29T08:16:14.000Z</time>
</trkpt>
<trkpt lat="45.8968940" lon="10.3503000">
	<ele>1516.00</ele>
	<time>2025-04-29T08:16:15.000Z</time>
</trkpt>
<trkpt lat="45.8969020" lon="10.3503030">
	<ele>1516.00</ele>
	<time>2025-04-29T08:16:16.000Z</time>
</trkpt>
<trkpt lat="45.8969090" lon="10.3503030">
	<ele>1516.00</ele>
	<time>2025-04-29T08:16:17.000Z</time>
</trkpt>
<trkpt lat="45.8969210" lon="10.3503040">
	<ele>1516.00</ele>
	<time>2025-04-29T08:16:18.000Z</time>
</trkpt>
<trkpt lat="45.8969330" lon="10.3503040">
	<ele>1515.80</ele>
	<time>2025-04-29T08:16:19.000Z</time>
</trkpt>
<trkpt lat="45.8969430" lon="10.3503100">
	<ele>1515.80</ele>
	<time>2025-04-29T08:16:20.000Z</time>
</trkpt>
<trkpt lat="45.8969500" lon="10.3503090">
	<ele>1515.60</ele>
	<time>2025-04-29T08:16:21.000Z</time>
</trkpt>
<trkpt lat="45.8969600" lon="10.3503060">
	<ele>1515.60</ele>
	<time>2025-04-29T08:16:22.000Z</time>
</trkpt>
<trkpt lat="45.8969760" lon="10.3503070">
	<ele>1515.40</ele>
	<time>2025-04-29T08:16:23.000Z</time>
</trkpt>
<trkpt lat="45.8969930" lon="10.3503010">
	<ele>1515.20</ele>
	<time>2025-04-29T08:16:24.000Z</time>
</trkpt>
<trkpt lat="45.8970060" lon="10.3502970">
	<ele>1515.00</ele>
	<time>2025-04-29T08:16:25.000Z</time>
</trkpt>
<trkpt lat="45.8970190" lon="10.3502910">
	<ele>1514.80</ele>
	<time>2025-04-29T08:16:26.000Z</time>
</trkpt>
<trkpt lat="45.8970360" lon="10.3502860">
	<ele>1514.60</ele>
	<time>2025-04-29T08:16:27.000Z</time>
</trkpt>
<trkpt lat="45.8970540" lon="10.3502810">
	<ele>1514.60</ele>
	<time>2025-04-29T08:16:28.000Z</time>
</trkpt>
<trkpt lat="45.8970710" lon="10.3502780">
	<ele>1514.40</ele>
	<time>2025-04-29T08:16:29.000Z</time>
</trkpt>
<trkpt lat="45.8970850" lon="10.3502790">
	<ele>1514.40</ele>
	<time>2025-04-29T08:16:30.000Z</time>
</trkpt>
<trkpt lat="45.8970990" lon="10.3502770">
	<ele>1514.40</ele>
	<time>2025-04-29T08:16:31.000Z</time>
</trkpt>
<trkpt lat="45.8971050" lon="10.3502780">
	<ele>1514.40</ele>
	<time>2025-04-29T08:16:32.000Z</time>
</trkpt>
<trkpt lat="45.8971100" lon="10.3502750">
	<ele>1514.40</ele>
	<time>2025-04-29T08:16:33.000Z</time>
</trkpt>
<trkpt lat="45.8971170" lon="10.3502700">
	<ele>1514.40</ele>
	<time>2025-04-29T08:16:34.000Z</time>
</trkpt>
<trkpt lat="45.8971230" lon="10.3502700">
	<ele>1514.40</ele>
	<time>2025-04-29T08:16:35.000Z</time>
</trkpt>
<trkpt lat="45.8971250" lon="10.3502620">
	<ele>1514.40</ele>
	<time>2025-04-29T08:16:36.000Z</time>
</trkpt>
<trkpt lat="45.8971280" lon="10.3502510">
	<ele>1514.40</ele>
	<time>2025-04-29T08:16:37.000Z</time>
</trkpt>
<trkpt lat="45.8971310" lon="10.3502460">
	<ele>1514.40</ele>
	<time>2025-04-29T08:16:38.000Z</time>
</trkpt>
<trkpt lat="45.8971290" lon="10.3502470">
	<ele>1514.40</ele>
	<time>2025-04-29T08:16:39.000Z</time>
</trkpt>
<trkpt lat="45.8971230" lon="10.3502460">
	<ele>1514.60</ele>
	<time>2025-04-29T08:16:40.000Z</time>
</trkpt>
<trkpt lat="45.8971240" lon="10.3502470">
	<ele>1514.60</ele>
	<time>2025-04-29T08:16:41.000Z</time>
</trkpt>
<trkpt lat="45.8971350" lon="10.3502470">
	<ele>1514.60</ele>
	<time>2025-04-29T08:16:42.000Z</time>
</trkpt>
<trkpt lat="45.8971370" lon="10.3502500">
	<ele>1514.60</ele>
	<time>2025-04-29T08:16:43.000Z</time>
</trkpt>
<trkpt lat="45.8971390" lon="10.3502520">
	<ele>1514.60</ele>
	<time>2025-04-29T08:16:44.000Z</time>
</trkpt>
<trkpt lat="45.8971420" lon="10.3502540">
	<ele>1514.60</ele>
	<time>2025-04-29T08:16:45.000Z</time>
</trkpt>
<trkpt lat="45.8971440" lon="10.3502550">
	<ele>1514.60</ele>
	<time>2025-04-29T08:16:46.000Z</time>
</trkpt>
<trkpt lat="45.8971520" lon="10.3502510">
	<ele>1514.40</ele>
	<time>2025-04-29T08:16:47.000Z</time>
</trkpt>
<trkpt lat="45.8971530" lon="10.3502510">
	<ele>1514.40</ele>
	<time>2025-04-29T08:16:48.000Z</time>
</trkpt>
<trkpt lat="45.8971560" lon="10.3502530">
	<ele>1514.20</ele>
	<time>2025-04-29T08:16:49.000Z</time>
</trkpt>
<trkpt lat="45.8971570" lon="10.3502530">
	<ele>1514.20</ele>
	<time>2025-04-29T08:16:50.000Z</time>
</trkpt>
<trkpt lat="45.8971560" lon="10.3502500">
	<ele>1514.20</ele>
	<time>2025-04-29T08:16:51.000Z</time>
</trkpt>
<trkpt lat="45.8971590" lon="10.3502410">
	<ele>1514.20</ele>
	<time>2025-04-29T08:16:52.000Z</time>
</trkpt>
<trkpt lat="45.8971600" lon="10.3502420">
	<ele>1514.40</ele>
	<time>2025-04-29T08:16:53.000Z</time>
</trkpt>
<trkpt lat="45.8971600" lon="10.3502420">
	<ele>1514.40</ele>
	<time>2025-04-29T08:16:54.000Z</time>
</trkpt>
<trkpt lat="45.8971600" lon="10.3502420">
	<ele>1514.60</ele>
	<time>2025-04-29T08:16:55.000Z</time>
</trkpt>
<trkpt lat="45.8971600" lon="10.3502420">
	<ele>1514.60</ele>
	<time>2025-04-29T08:16:56.000Z</time>
</trkpt>
<trkpt lat="45.8971600" lon="10.3502420">
	<ele>1514.60</ele>
	<time>2025-04-29T08:16:57.000Z</time>
</trkpt>
<trkpt lat="45.8971600" lon="10.3502420">
	<ele>1514.60</ele>
	<time>2025-04-29T08:16:58.000Z</time>
</trkpt>
<trkpt lat="45.8971600" lon="10.3502420">
	<ele>1514.60</ele>
	<time>2025-04-29T08:16:59.000Z</time>
</trkpt>
<trkpt lat="45.8971600" lon="10.3502420">
	<ele>1514.60</ele>
	<time>2025-04-29T08:17:00.000Z</time>
</trkpt>
<trkpt lat="45.8971600" lon="10.3502420">
	<ele>1514.60</ele>
	<time>2025-04-29T08:17:01.000Z</time>
</trkpt>
<trkpt lat="45.8971600" lon="10.3502420">
	<ele>1514.60</ele>
	<time>2025-04-29T08:17:02.000Z</time>
</trkpt>
<trkpt lat="45.8971600" lon="10.3502420">
	<ele>1514.60</ele>
	<time>2025-04-29T08:17:03.000Z</time>
</trkpt>
<trkpt lat="45.8971600" lon="10.3502420">
	<ele>1514.60</ele>
	<time>2025-04-29T08:17:04.000Z</time>
</trkpt>
<trkpt lat="45.8971600" lon="10.3502450">
	<ele>1514.60</ele>
	<time>2025-04-29T08:17:05.000Z</time>
</trkpt>
<trkpt lat="45.8971600" lon="10.3502470">
	<ele>1514.60</ele>
	<time>2025-04-29T08:17:06.000Z</time>
</trkpt>
<trkpt lat="45.8971600" lon="10.3502470">
	<ele>1514.60</ele>
	<time>2025-04-29T08:17:07.000Z</time>
</trkpt>
<trkpt lat="45.8971600" lon="10.3502480">
	<ele>1514.60</ele>
	<time>2025-04-29T08:17:08.000Z</time>
</trkpt>
<trkpt lat="45.8971600" lon="10.3502480">
	<ele>1514.60</ele>
	<time>2025-04-29T08:17:09.000Z</time>
</trkpt>
<trkpt lat="45.8971600" lon="10.3502480">
	<ele>1514.60</ele>
	<time>2025-04-29T08:17:10.000Z</time>
</trkpt>
<trkpt lat="45.8971600" lon="10.3502490">
	<ele>1514.40</ele>
	<time>2025-04-29T08:17:11.000Z</time>
</trkpt>
<trkpt lat="45.8971600" lon="10.3502490">
	<ele>1514.40</ele>
	<time>2025-04-29T08:17:12.000Z</time>
</trkpt>
<trkpt lat="45.8971600" lon="10.3502500">
	<ele>1514.40</ele>
	<time>2025-04-29T08:17:13.000Z</time>
</trkpt>
<trkpt lat="45.8971600" lon="10.3502500">
	<ele>1514.40</ele>
	<time>2025-04-29T08:17:14.000Z</time>
</trkpt>
<trkpt lat="45.8971600" lon="10.3502490">
	<ele>1514.40</ele>
	<time>2025-04-29T08:17:15.000Z</time>
</trkpt>
<trkpt lat="45.8971600" lon="10.3502490">
	<ele>1514.40</ele>
	<time>2025-04-29T08:17:16.000Z</time>
</trkpt>
<trkpt lat="45.8971600" lon="10.3502490">
	<ele>1514.40</ele>
	<time>2025-04-29T08:17:17.000Z</time>
</trkpt>
<trkpt lat="45.8971600" lon="10.3502480">
	<ele>1514.40</ele>
	<time>2025-04-29T08:17:18.000Z</time>
</trkpt>
<trkpt lat="45.8971600" lon="10.3502480">
	<ele>1514.60</ele>
	<time>2025-04-29T08:17:19.000Z</time>
</trkpt>
<trkpt lat="45.8971600" lon="10.3502480">
	<ele>1514.60</ele>
	<time>2025-04-29T08:17:20.000Z</time>
</trkpt>
<trkpt lat="45.8971600" lon="10.3502470">
	<ele>1514.60</ele>
	<time>2025-04-29T08:17:21.000Z</time>
</trkpt>
<trkpt lat="45.8971600" lon="10.3502470">
	<ele>1514.60</ele>
	<time>2025-04-29T08:17:22.000Z</time>
</trkpt>
<trkpt lat="45.8971580" lon="10.3502470">
	<ele>1514.80</ele>
	<time>2025-04-29T08:17:23.000Z</time>
</trkpt>
<trkpt lat="45.8971530" lon="10.3502470">
	<ele>1514.80</ele>
	<time>2025-04-29T08:17:24.000Z</time>
</trkpt>
<trkpt lat="45.8971530" lon="10.3502470">
	<ele>1514.80</ele>
	<time>2025-04-29T08:17:25.000Z</time>
</trkpt>
<trkpt lat="45.8971520" lon="10.3502470">
	<ele>1514.80</ele>
	<time>2025-04-29T08:17:26.000Z</time>
</trkpt>
<trkpt lat="45.8971520" lon="10.3502470">
	<ele>1515.00</ele>
	<time>2025-04-29T08:17:27.000Z</time>
</trkpt>
<trkpt lat="45.8971510" lon="10.3502410">
	<ele>1515.00</ele>
	<time>2025-04-29T08:17:28.000Z</time>
</trkpt>
<trkpt lat="45.8971510" lon="10.3502330">
	<ele>1515.00</ele>
	<time>2025-04-29T08:17:29.000Z</time>
</trkpt>
<trkpt lat="45.8971510" lon="10.3502250">
	<ele>1515.00</ele>
	<time>2025-04-29T08:17:30.000Z</time>
</trkpt>
<trkpt lat="45.8971510" lon="10.3502150">
	<ele>1515.00</ele>
	<time>2025-04-29T08:17:31.000Z</time>
</trkpt>
<trkpt lat="45.8971510" lon="10.3502070">
	<ele>1514.80</ele>
	<time>2025-04-29T08:17:32.000Z</time>
</trkpt>
<trkpt lat="45.8971500" lon="10.3501960">
	<ele>1514.60</ele>
	<time>2025-04-29T08:17:33.000Z</time>
</trkpt>
<trkpt lat="45.8971500" lon="10.3501840">
	<ele>1514.60</ele>
	<time>2025-04-29T08:17:34.000Z</time>
</trkpt>
<trkpt lat="45.8971510" lon="10.3501750">
	<ele>1514.60</ele>
	<time>2025-04-29T08:17:35.000Z</time>
</trkpt>
<trkpt lat="45.8971540" lon="10.3501510">
	<ele>1514.60</ele>
	<time>2025-04-29T08:17:36.000Z</time>
</trkpt>
<trkpt lat="45.8971550" lon="10.3501310">
	<ele>1514.60</ele>
	<time>2025-04-29T08:17:37.000Z</time>
</trkpt>
<trkpt lat="45.8971570" lon="10.3501110">
	<ele>1514.60</ele>
	<time>2025-04-29T08:17:38.000Z</time>
</trkpt>
<trkpt lat="45.8971600" lon="10.3500890">
	<ele>1514.80</ele>
	<time>2025-04-29T08:17:39.000Z</time>
</trkpt>
<trkpt lat="45.8971570" lon="10.3500710">
	<ele>1514.80</ele>
	<time>2025-04-29T08:17:40.000Z</time>
</trkpt>
<trkpt lat="45.8971550" lon="10.3500520">
	<ele>1514.80</ele>
	<time>2025-04-29T08:17:41.000Z</time>
</trkpt>
<trkpt lat="45.8971540" lon="10.3500380">
	<ele>1515.00</ele>
	<time>2025-04-29T08:17:42.000Z</time>
</trkpt>
<trkpt lat="45.8971450" lon="10.3500180">
	<ele>1515.00</ele>
	<time>2025-04-29T08:17:43.000Z</time>
</trkpt>
<trkpt lat="45.8971410" lon="10.3500030">
	<ele>1515.20</ele>
	<time>2025-04-29T08:17:44.000Z</time>
</trkpt>
<trkpt lat="45.8971370" lon="10.3499920">
	<ele>1515.40</ele>
	<time>2025-04-29T08:17:45.000Z</time>
</trkpt>
<trkpt lat="45.8971280" lon="10.3499840">
	<ele>1515.60</ele>
	<time>2025-04-29T08:17:46.000Z</time>
</trkpt>
<trkpt lat="45.8971160" lon="10.3499760">
	<ele>1515.80</ele>
	<time>2025-04-29T08:17:47.000Z</time>
</trkpt>
<trkpt lat="45.8971060" lon="10.3499650">
	<ele>1516.00</ele>
	<time>2025-04-29T08:17:48.000Z</time>
</trkpt>
<trkpt lat="45.8970990" lon="10.3499530">
	<ele>1516.00</ele>
	<time>2025-04-29T08:17:49.000Z</time>
</trkpt>
<trkpt lat="45.8970900" lon="10.3499400">
	<ele>1516.20</ele>
	<time>2025-04-29T08:17:50.000Z</time>
</trkpt>
<trkpt lat="45.8970810" lon="10.3499280">
	<ele>1516.40</ele>
	<time>2025-04-29T08:17:51.000Z</time>
</trkpt>
<trkpt lat="45.8970730" lon="10.3499130">
	<ele>1516.60</ele>
	<time>2025-04-29T08:17:52.000Z</time>
</trkpt>
<trkpt lat="45.8970580" lon="10.3498970">
	<ele>1516.80</ele>
	<time>2025-04-29T08:17:53.000Z</time>
</trkpt>
<trkpt lat="45.8970400" lon="10.3498760">
	<ele>1517.00</ele>
	<time>2025-04-29T08:17:54.000Z</time>
</trkpt>
<trkpt lat="45.8970230" lon="10.3498580">
	<ele>1517.00</ele>
	<time>2025-04-29T08:17:55.000Z</time>
</trkpt>
<trkpt lat="45.8969990" lon="10.3498440">
	<ele>1517.20</ele>
	<time>2025-04-29T08:17:56.000Z</time>
</trkpt>
<trkpt lat="45.8969780" lon="10.3498340">
	<ele>1517.20</ele>
	<time>2025-04-29T08:17:57.000Z</time>
</trkpt>
<trkpt lat="45.8969720" lon="10.3498330">
	<ele>1517.60</ele>
	<time>2025-04-29T08:17:58.000Z</time>
</trkpt>
<trkpt lat="45.8969650" lon="10.3498230">
	<ele>1517.80</ele>
	<time>2025-04-29T08:17:59.000Z</time>
</trkpt>
<trkpt lat="45.8969640" lon="10.3498190">
	<ele>1518.00</ele>
	<time>2025-04-29T08:18:00.000Z</time>
</trkpt>
<trkpt lat="45.8969640" lon="10.3498120">
	<ele>1518.00</ele>
	<time>2025-04-29T08:18:01.000Z</time>
</trkpt>
<trkpt lat="45.8969580" lon="10.3498090">
	<ele>1518.20</ele>
	<time>2025-04-29T08:18:02.000Z</time>
</trkpt>
<trkpt lat="45.8969470" lon="10.3497960">
	<ele>1518.20</ele>
	<time>2025-04-29T08:18:03.000Z</time>
</trkpt>
<trkpt lat="45.8969350" lon="10.3497950">
	<ele>1518.20</ele>
	<time>2025-04-29T08:18:04.000Z</time>
</trkpt>
<trkpt lat="45.8969280" lon="10.3497980">
	<ele>1518.60</ele>
	<time>2025-04-29T08:18:05.000Z</time>
</trkpt>
<trkpt lat="45.8969290" lon="10.3498100">
	<ele>1518.80</ele>
	<time>2025-04-29T08:18:06.000Z</time>
</trkpt>
<trkpt lat="45.8969300" lon="10.3498220">
	<ele>1519.00</ele>
	<time>2025-04-29T08:18:07.000Z</time>
</trkpt>
<trkpt lat="45.8969210" lon="10.3498270">
	<ele>1519.20</ele>
	<time>2025-04-29T08:18:08.000Z</time>
</trkpt>
<trkpt lat="45.8969100" lon="10.3498160">
	<ele>1519.40</ele>
	<time>2025-04-29T08:18:09.000Z</time>
</trkpt>
<trkpt lat="45.8968950" lon="10.3498130">
	<ele>1519.60</ele>
	<time>2025-04-29T08:18:10.000Z</time>
</trkpt>
<trkpt lat="45.8968750" lon="10.3498000">
	<ele>1519.80</ele>
	<time>2025-04-29T08:18:11.000Z</time>
</trkpt>
<trkpt lat="45.8968650" lon="10.3498030">
	<ele>1520.00</ele>
	<time>2025-04-29T08:18:12.000Z</time>
</trkpt>
<trkpt lat="45.8968590" lon="10.3498060">
	<ele>1520.20</ele>
	<time>2025-04-29T08:18:13.000Z</time>
</trkpt>
<trkpt lat="45.8968520" lon="10.3498060">
	<ele>1520.40</ele>
	<time>2025-04-29T08:18:14.000Z</time>
</trkpt>
<trkpt lat="45.8968430" lon="10.3498070">
	<ele>1520.60</ele>
	<time>2025-04-29T08:18:15.000Z</time>
</trkpt>
<trkpt lat="45.8968300" lon="10.3498090">
	<ele>1520.80</ele>
	<time>2025-04-29T08:18:16.000Z</time>
</trkpt>
<trkpt lat="45.8968190" lon="10.3498130">
	<ele>1521.00</ele>
	<time>2025-04-29T08:18:17.000Z</time>
</trkpt>
<trkpt lat="45.8968080" lon="10.3498170">
	<ele>1521.20</ele>
	<time>2025-04-29T08:18:18.000Z</time>
</trkpt>
<trkpt lat="45.8967960" lon="10.3498180">
	<ele>1521.40</ele>
	<time>2025-04-29T08:18:19.000Z</time>
</trkpt>
<trkpt lat="45.8967840" lon="10.3498260">
	<ele>1521.80</ele>
	<time>2025-04-29T08:18:20.000Z</time>
</trkpt>
<trkpt lat="45.8967730" lon="10.3498310">
	<ele>1521.80</ele>
	<time>2025-04-29T08:18:21.000Z</time>
</trkpt>
<trkpt lat="45.8967630" lon="10.3498330">
	<ele>1522.00</ele>
	<time>2025-04-29T08:18:22.000Z</time>
</trkpt>
<trkpt lat="45.8967550" lon="10.3498380">
	<ele>1522.40</ele>
	<time>2025-04-29T08:18:23.000Z</time>
</trkpt>
<trkpt lat="45.8967450" lon="10.3498390">
	<ele>1522.60</ele>
	<time>2025-04-29T08:18:24.000Z</time>
</trkpt>
<trkpt lat="45.8967360" lon="10.3498360">
	<ele>1522.80</ele>
	<time>2025-04-29T08:18:25.000Z</time>
</trkpt>
<trkpt lat="45.8967310" lon="10.3498360">
	<ele>1523.00</ele>
	<time>2025-04-29T08:18:26.000Z</time>
</trkpt>
<trkpt lat="45.8967200" lon="10.3498360">
	<ele>1523.20</ele>
	<time>2025-04-29T08:18:27.000Z</time>
</trkpt>
<trkpt lat="45.8967090" lon="10.3498310">
	<ele>1523.60</ele>
	<time>2025-04-29T08:18:28.000Z</time>
</trkpt>
<trkpt lat="45.8966990" lon="10.3498250">
	<ele>1523.60</ele>
	<time>2025-04-29T08:18:29.000Z</time>
</trkpt>
<trkpt lat="45.8966880" lon="10.3498270">
	<ele>1524.00</ele>
	<time>2025-04-29T08:18:30.000Z</time>
</trkpt>
<trkpt lat="45.8966790" lon="10.3498290">
	<ele>1524.20</ele>
	<time>2025-04-29T08:18:31.000Z</time>
</trkpt>
<trkpt lat="45.8966680" lon="10.3498300">
	<ele>1524.40</ele>
	<time>2025-04-29T08:18:32.000Z</time>
</trkpt>
<trkpt lat="45.8966590" lon="10.3498290">
	<ele>1524.40</ele>
	<time>2025-04-29T08:18:33.000Z</time>
</trkpt>
<trkpt lat="45.8966480" lon="10.3498310">
	<ele>1524.60</ele>
	<time>2025-04-29T08:18:34.000Z</time>
</trkpt>
<trkpt lat="45.8966360" lon="10.3498360">
	<ele>1525.00</ele>
	<time>2025-04-29T08:18:35.000Z</time>
</trkpt>
<trkpt lat="45.8966310" lon="10.3498380">
	<ele>1525.00</ele>
	<time>2025-04-29T08:18:36.000Z</time>
</trkpt>
<trkpt lat="45.8966260" lon="10.3498310">
	<ele>1525.40</ele>
	<time>2025-04-29T08:18:37.000Z</time>
</trkpt>
<trkpt lat="45.8966190" lon="10.3498230">
	<ele>1525.60</ele>
	<time>2025-04-29T08:18:38.000Z</time>
</trkpt>
<trkpt lat="45.8966030" lon="10.3498180">
	<ele>1526.00</ele>
	<time>2025-04-29T08:18:39.000Z</time>
</trkpt>
<trkpt lat="45.8965930" lon="10.3498180">
	<ele>1526.20</ele>
	<time>2025-04-29T08:18:40.000Z</time>
</trkpt>
<trkpt lat="45.8965860" lon="10.3498250">
	<ele>1526.40</ele>
	<time>2025-04-29T08:18:41.000Z</time>
</trkpt>
<trkpt lat="45.8965740" lon="10.3498300">
	<ele>1526.40</ele>
	<time>2025-04-29T08:18:42.000Z</time>
</trkpt>
<trkpt lat="45.8965640" lon="10.3498350">
	<ele>1526.60</ele>
	<time>2025-04-29T08:18:43.000Z</time>
</trkpt>
<trkpt lat="45.8965660" lon="10.3498480">
	<ele>1526.60</ele>
	<time>2025-04-29T08:18:44.000Z</time>
</trkpt>
<trkpt lat="45.8965670" lon="10.3498570">
	<ele>1526.80</ele>
	<time>2025-04-29T08:18:45.000Z</time>
</trkpt>
<trkpt lat="45.8965630" lon="10.3498590">
	<ele>1527.00</ele>
	<time>2025-04-29T08:18:46.000Z</time>
</trkpt>
<trkpt lat="45.8965610" lon="10.3498650">
	<ele>1527.20</ele>
	<time>2025-04-29T08:18:47.000Z</time>
</trkpt>
<trkpt lat="45.8965570" lon="10.3498760">
	<ele>1527.40</ele>
	<time>2025-04-29T08:18:48.000Z</time>
</trkpt>
<trkpt lat="45.8965500" lon="10.3498650">
	<ele>1527.60</ele>
	<time>2025-04-29T08:18:49.000Z</time>
</trkpt>
<trkpt lat="45.8965460" lon="10.3498530">
	<ele>1528.00</ele>
	<time>2025-04-29T08:18:50.000Z</time>
</trkpt>
<trkpt lat="45.8965330" lon="10.3498460">
	<ele>1528.20</ele>
	<time>2025-04-29T08:18:51.000Z</time>
</trkpt>
<trkpt lat="45.8965260" lon="10.3498480">
	<ele>1528.40</ele>
	<time>2025-04-29T08:18:52.000Z</time>
</trkpt>
<trkpt lat="45.8965220" lon="10.3498470">
	<ele>1528.40</ele>
	<time>2025-04-29T08:18:53.000Z</time>
</trkpt>
<trkpt lat="45.8965190" lon="10.3498520">
	<ele>1528.80</ele>
	<time>2025-04-29T08:18:54.000Z</time>
</trkpt>
<trkpt lat="45.8965100" lon="10.3498520">
	<ele>1528.80</ele>
	<time>2025-04-29T08:18:55.000Z</time>
</trkpt>
<trkpt lat="45.8965050" lon="10.3498630">
	<ele>1529.00</ele>
	<time>2025-04-29T08:18:56.000Z</time>
</trkpt>
<trkpt lat="45.8965010" lon="10.3498650">
	<ele>1529.20</ele>
	<time>2025-04-29T08:18:57.000Z</time>
</trkpt>
<trkpt lat="45.8964940" lon="10.3498630">
	<ele>1529.40</ele>
	<time>2025-04-29T08:18:58.000Z</time>
</trkpt>
<trkpt lat="45.8964880" lon="10.3498760">
	<ele>1529.60</ele>
	<time>2025-04-29T08:18:59.000Z</time>
</trkpt>
<trkpt lat="45.8964800" lon="10.3498890">
	<ele>1529.80</ele>
	<time>2025-04-29T08:19:00.000Z</time>
</trkpt>
<trkpt lat="45.8964720" lon="10.3498920">
	<ele>1530.00</ele>
	<time>2025-04-29T08:19:01.000Z</time>
</trkpt>
<trkpt lat="45.8964670" lon="10.3498930">
	<ele>1530.40</ele>
	<time>2025-04-29T08:19:02.000Z</time>
</trkpt>
<trkpt lat="45.8964670" lon="10.3499010">
	<ele>1530.60</ele>
	<time>2025-04-29T08:19:03.000Z</time>
</trkpt>
<trkpt lat="45.8964610" lon="10.3499020">
	<ele>1530.60</ele>
	<time>2025-04-29T08:19:04.000Z</time>
</trkpt>
<trkpt lat="45.8964540" lon="10.3499030">
	<ele>1530.80</ele>
	<time>2025-04-29T08:19:05.000Z</time>
</trkpt>
<trkpt lat="45.8964430" lon="10.3499000">
	<ele>1531.00</ele>
	<time>2025-04-29T08:19:06.000Z</time>
</trkpt>
<trkpt lat="45.8964340" lon="10.3498950">
	<ele>1531.20</ele>
	<time>2025-04-29T08:19:07.000Z</time>
</trkpt>
<trkpt lat="45.8964250" lon="10.3498850">
	<ele>1531.40</ele>
	<time>2025-04-29T08:19:08.000Z</time>
</trkpt>
<trkpt lat="45.8964100" lon="10.3498720">
	<ele>1531.80</ele>
	<time>2025-04-29T08:19:09.000Z</time>
</trkpt>
<trkpt lat="45.8963990" lon="10.3498620">
	<ele>1532.00</ele>
	<time>2025-04-29T08:19:10.000Z</time>
</trkpt>
<trkpt lat="45.8963920" lon="10.3498580">
	<ele>1532.00</ele>
	<time>2025-04-29T08:19:11.000Z</time>
</trkpt>
<trkpt lat="45.8963910" lon="10.3498600">
	<ele>1532.20</ele>
	<time>2025-04-29T08:19:12.000Z</time>
</trkpt>
<trkpt lat="45.8963910" lon="10.3498630">
	<ele>1532.40</ele>
	<time>2025-04-29T08:19:13.000Z</time>
</trkpt>
<trkpt lat="45.8963840" lon="10.3498560">
	<ele>1532.80</ele>
	<time>2025-04-29T08:19:14.000Z</time>
</trkpt>
<trkpt lat="45.8963770" lon="10.3498470">
	<ele>1533.00</ele>
	<time>2025-04-29T08:19:15.000Z</time>
</trkpt>
<trkpt lat="45.8963710" lon="10.3498480">
	<ele>1533.20</ele>
	<time>2025-04-29T08:19:16.000Z</time>
</trkpt>
<trkpt lat="45.8963650" lon="10.3498410">
	<ele>1533.40</ele>
	<time>2025-04-29T08:19:17.000Z</time>
</trkpt>
<trkpt lat="45.8963600" lon="10.3498410">
	<ele>1533.40</ele>
	<time>2025-04-29T08:19:18.000Z</time>
</trkpt>
<trkpt lat="45.8963530" lon="10.3498410">
	<ele>1533.40</ele>
	<time>2025-04-29T08:19:19.000Z</time>
</trkpt>
<trkpt lat="45.8963460" lon="10.3498440">
	<ele>1533.80</ele>
	<time>2025-04-29T08:19:20.000Z</time>
</trkpt>
<trkpt lat="45.8963400" lon="10.3498450">
	<ele>1534.00</ele>
	<time>2025-04-29T08:19:21.000Z</time>
</trkpt>
<trkpt lat="45.8963340" lon="10.3498430">
	<ele>1534.00</ele>
	<time>2025-04-29T08:19:22.000Z</time>
</trkpt>
<trkpt lat="45.8963290" lon="10.3498400">
	<ele>1534.40</ele>
	<time>2025-04-29T08:19:23.000Z</time>
</trkpt>
<trkpt lat="45.8963260" lon="10.3498350">
	<ele>1534.60</ele>
	<time>2025-04-29T08:19:24.000Z</time>
</trkpt>
<trkpt lat="45.8963240" lon="10.3498340">
	<ele>1534.60</ele>
	<time>2025-04-29T08:19:25.000Z</time>
</trkpt>
<trkpt lat="45.8963270" lon="10.3498310">
	<ele>1534.80</ele>
	<time>2025-04-29T08:19:26.000Z</time>
</trkpt>
<trkpt lat="45.8963250" lon="10.3498310">
	<ele>1535.20</ele>
	<time>2025-04-29T08:19:27.000Z</time>
</trkpt>
<trkpt lat="45.8963210" lon="10.3498330">
	<ele>1535.20</ele>
	<time>2025-04-29T08:19:28.000Z</time>
</trkpt>
<trkpt lat="45.8963190" lon="10.3498330">
	<ele>1535.60</ele>
	<time>2025-04-29T08:19:29.000Z</time>
</trkpt>
<trkpt lat="45.8963150" lon="10.3498350">
	<ele>1535.60</ele>
	<time>2025-04-29T08:19:30.000Z</time>
</trkpt>
<trkpt lat="45.8963060" lon="10.3498360">
	<ele>1535.80</ele>
	<time>2025-04-29T08:19:31.000Z</time>
</trkpt>
<trkpt lat="45.8962840" lon="10.3498370">
	<ele>1536.00</ele>
	<time>2025-04-29T08:19:32.000Z</time>
</trkpt>
<trkpt lat="45.8962670" lon="10.3498450">
	<ele>1536.20</ele>
	<time>2025-04-29T08:19:33.000Z</time>
</trkpt>
<trkpt lat="45.8962520" lon="10.3498510">
	<ele>1536.40</ele>
	<time>2025-04-29T08:19:34.000Z</time>
</trkpt>
<trkpt lat="45.8962500" lon="10.3498580">
	<ele>1536.80</ele>
	<time>2025-04-29T08:19:35.000Z</time>
</trkpt>
<trkpt lat="45.8962420" lon="10.3498580">
	<ele>1537.00</ele>
	<time>2025-04-29T08:19:36.000Z</time>
</trkpt>
<trkpt lat="45.8962370" lon="10.3498600">
	<ele>1537.20</ele>
	<time>2025-04-29T08:19:37.000Z</time>
</trkpt>
<trkpt lat="45.8962440" lon="10.3498630">
	<ele>1537.20</ele>
	<time>2025-04-29T08:19:38.000Z</time>
</trkpt>
<trkpt lat="45.8962510" lon="10.3498700">
	<ele>1537.40</ele>
	<time>2025-04-29T08:19:39.000Z</time>
</trkpt>
<trkpt lat="45.8962540" lon="10.3498760">
	<ele>1537.40</ele>
	<time>2025-04-29T08:19:40.000Z</time>
</trkpt>
<trkpt lat="45.8962480" lon="10.3498800">
	<ele>1537.60</ele>
	<time>2025-04-29T08:19:41.000Z</time>
</trkpt>
<trkpt lat="45.8962400" lon="10.3498820">
	<ele>1537.80</ele>
	<time>2025-04-29T08:19:42.000Z</time>
</trkpt>
<trkpt lat="45.8962270" lon="10.3498860">
	<ele>1538.00</ele>
	<time>2025-04-29T08:19:43.000Z</time>
</trkpt>
<trkpt lat="45.8962170" lon="10.3498960">
	<ele>1538.00</ele>
	<time>2025-04-29T08:19:44.000Z</time>
</trkpt>
<trkpt lat="45.8962100" lon="10.3499060">
	<ele>1538.40</ele>
	<time>2025-04-29T08:19:45.000Z</time>
</trkpt>
<trkpt lat="45.8962090" lon="10.3499090">
	<ele>1538.80</ele>
	<time>2025-04-29T08:19:46.000Z</time>
</trkpt>
<trkpt lat="45.8962110" lon="10.3499080">
	<ele>1539.00</ele>
	<time>2025-04-29T08:19:47.000Z</time>
</trkpt>
<trkpt lat="45.8962050" lon="10.3499230">
	<ele>1539.20</ele>
	<time>2025-04-29T08:19:48.000Z</time>
</trkpt>
<trkpt lat="45.8961960" lon="10.3499270">
	<ele>1539.40</ele>
	<time>2025-04-29T08:19:49.000Z</time>
</trkpt>
<trkpt lat="45.8961880" lon="10.3499300">
	<ele>1539.60</ele>
	<time>2025-04-29T08:19:50.000Z</time>
</trkpt>
<trkpt lat="45.8961860" lon="10.3499330">
	<ele>1539.80</ele>
	<time>2025-04-29T08:19:51.000Z</time>
</trkpt>
<trkpt lat="45.8961830" lon="10.3499330">
	<ele>1540.00</ele>
	<time>2025-04-29T08:19:52.000Z</time>
</trkpt>
<trkpt lat="45.8961790" lon="10.3499330">
	<ele>1540.20</ele>
	<time>2025-04-29T08:19:53.000Z</time>
</trkpt>
<trkpt lat="45.8961740" lon="10.3499390">
	<ele>1540.20</ele>
	<time>2025-04-29T08:19:54.000Z</time>
</trkpt>
<trkpt lat="45.8961690" lon="10.3499440">
	<ele>1540.40</ele>
	<time>2025-04-29T08:19:55.000Z</time>
</trkpt>
<trkpt lat="45.8961720" lon="10.3499460">
	<ele>1540.60</ele>
	<time>2025-04-29T08:19:56.000Z</time>
</trkpt>
<trkpt lat="45.8961720" lon="10.3499440">
	<ele>1540.60</ele>
	<time>2025-04-29T08:19:57.000Z</time>
</trkpt>
<trkpt lat="45.8961700" lon="10.3499530">
	<ele>1541.00</ele>
	<time>2025-04-29T08:19:58.000Z</time>
</trkpt>
<trkpt lat="45.8961630" lon="10.3499610">
	<ele>1541.20</ele>
	<time>2025-04-29T08:19:59.000Z</time>
</trkpt>
<trkpt lat="45.8961520" lon="10.3499610">
	<ele>1541.40</ele>
	<time>2025-04-29T08:20:00.000Z</time>
</trkpt>
<trkpt lat="45.8961380" lon="10.3499610">
	<ele>1541.60</ele>
	<time>2025-04-29T08:20:01.000Z</time>
</trkpt>
<trkpt lat="45.8961360" lon="10.3499650">
	<ele>1541.80</ele>
	<time>2025-04-29T08:20:02.000Z</time>
</trkpt>
<trkpt lat="45.8961210" lon="10.3499710">
	<ele>1542.00</ele>
	<time>2025-04-29T08:20:03.000Z</time>
</trkpt>
<trkpt lat="45.8961020" lon="10.3499660">
	<ele>1542.20</ele>
	<time>2025-04-29T08:20:04.000Z</time>
</trkpt>
<trkpt lat="45.8960860" lon="10.3499630">
	<ele>1542.40</ele>
	<time>2025-04-29T08:20:05.000Z</time>
</trkpt>
<trkpt lat="45.8960720" lon="10.3499670">
	<ele>1542.80</ele>
	<time>2025-04-29T08:20:06.000Z</time>
</trkpt>
<trkpt lat="45.8960670" lon="10.3499840">
	<ele>1543.00</ele>
	<time>2025-04-29T08:20:07.000Z</time>
</trkpt>
<trkpt lat="45.8960660" lon="10.3500060">
	<ele>1543.20</ele>
	<time>2025-04-29T08:20:08.000Z</time>
</trkpt>
<trkpt lat="45.8960670" lon="10.3500230">
	<ele>1543.20</ele>
	<time>2025-04-29T08:20:09.000Z</time>
</trkpt>
<trkpt lat="45.8960580" lon="10.3500390">
	<ele>1543.40</ele>
	<time>2025-04-29T08:20:10.000Z</time>
</trkpt>
<trkpt lat="45.8960490" lon="10.3500490">
	<ele>1543.60</ele>
	<time>2025-04-29T08:20:11.000Z</time>
</trkpt>
<trkpt lat="45.8960390" lon="10.3500560">
	<ele>1543.60</ele>
	<time>2025-04-29T08:20:12.000Z</time>
</trkpt>
<trkpt lat="45.8960320" lon="10.3500640">
	<ele>1543.80</ele>
	<time>2025-04-29T08:20:13.000Z</time>
</trkpt>
<trkpt lat="45.8960270" lon="10.3500650">
	<ele>1544.00</ele>
	<time>2025-04-29T08:20:14.000Z</time>
</trkpt>
<trkpt lat="45.8960220" lon="10.3500660">
	<ele>1544.00</ele>
	<time>2025-04-29T08:20:15.000Z</time>
</trkpt>
<trkpt lat="45.8960180" lon="10.3500660">
	<ele>1544.20</ele>
	<time>2025-04-29T08:20:16.000Z</time>
</trkpt>
<trkpt lat="45.8960090" lon="10.3500560">
	<ele>1544.20</ele>
	<time>2025-04-29T08:20:17.000Z</time>
</trkpt>
<trkpt lat="45.8960020" lon="10.3500500">
	<ele>1544.40</ele>
	<time>2025-04-29T08:20:18.000Z</time>
</trkpt>
<trkpt lat="45.8959970" lon="10.3500530">
	<ele>1544.80</ele>
	<time>2025-04-29T08:20:19.000Z</time>
</trkpt>
<trkpt lat="45.8959930" lon="10.3500540">
	<ele>1545.00</ele>
	<time>2025-04-29T08:20:20.000Z</time>
</trkpt>
<trkpt lat="45.8959850" lon="10.3500550">
	<ele>1545.20</ele>
	<time>2025-04-29T08:20:21.000Z</time>
</trkpt>
<trkpt lat="45.8959810" lon="10.3500590">
	<ele>1545.40</ele>
	<time>2025-04-29T08:20:22.000Z</time>
</trkpt>
<trkpt lat="45.8959740" lon="10.3500600">
	<ele>1545.40</ele>
	<time>2025-04-29T08:20:23.000Z</time>
</trkpt>
<trkpt lat="45.8959660" lon="10.3500550">
	<ele>1545.60</ele>
	<time>2025-04-29T08:20:24.000Z</time>
</trkpt>
<trkpt lat="45.8959620" lon="10.3500470">
	<ele>1545.60</ele>
	<time>2025-04-29T08:20:25.000Z</time>
</trkpt>
<trkpt lat="45.8959570" lon="10.3500440">
	<ele>1545.80</ele>
	<time>2025-04-29T08:20:26.000Z</time>
</trkpt>
<trkpt lat="45.8959570" lon="10.3500400">
	<ele>1546.00</ele>
	<time>2025-04-29T08:20:27.000Z</time>
</trkpt>
<trkpt lat="45.8959630" lon="10.3500490">
	<ele>1546.20</ele>
	<time>2025-04-29T08:20:28.000Z</time>
</trkpt>
<trkpt lat="45.8959620" lon="10.3500640">
	<ele>1546.40</ele>
	<time>2025-04-29T08:20:29.000Z</time>
</trkpt>
<trkpt lat="45.8959580" lon="10.3500680">
	<ele>1546.60</ele>
	<time>2025-04-29T08:20:30.000Z</time>
</trkpt>
<trkpt lat="45.8959550" lon="10.3500720">
	<ele>1546.80</ele>
	<time>2025-04-29T08:20:31.000Z</time>
</trkpt>
<trkpt lat="45.8959530" lon="10.3500710">
	<ele>1547.00</ele>
	<time>2025-04-29T08:20:32.000Z</time>
</trkpt>
<trkpt lat="45.8959460" lon="10.3500730">
	<ele>1547.20</ele>
	<time>2025-04-29T08:20:33.000Z</time>
</trkpt>
<trkpt lat="45.8959410" lon="10.3500760">
	<ele>1547.20</ele>
	<time>2025-04-29T08:20:34.000Z</time>
</trkpt>
<trkpt lat="45.8959370" lon="10.3500770">
	<ele>1547.40</ele>
	<time>2025-04-29T08:20:35.000Z</time>
</trkpt>
<trkpt lat="45.8959350" lon="10.3500750">
	<ele>1547.60</ele>
	<time>2025-04-29T08:20:36.000Z</time>
</trkpt>
<trkpt lat="45.8959330" lon="10.3500750">
	<ele>1547.80</ele>
	<time>2025-04-29T08:20:37.000Z</time>
</trkpt>
<trkpt lat="45.8959320" lon="10.3500780">
	<ele>1547.80</ele>
	<time>2025-04-29T08:20:38.000Z</time>
</trkpt>
<trkpt lat="45.8959400" lon="10.3500770">
	<ele>1548.00</ele>
	<time>2025-04-29T08:20:39.000Z</time>
</trkpt>
<trkpt lat="45.8959430" lon="10.3500710">
	<ele>1548.00</ele>
	<time>2025-04-29T08:20:40.000Z</time>
</trkpt>
<trkpt lat="45.8959460" lon="10.3500680">
	<ele>1548.20</ele>
	<time>2025-04-29T08:20:41.000Z</time>
</trkpt>
<trkpt lat="45.8959450" lon="10.3500680">
	<ele>1548.20</ele>
	<time>2025-04-29T08:20:42.000Z</time>
</trkpt>
<trkpt lat="45.8959400" lon="10.3500690">
	<ele>1548.40</ele>
	<time>2025-04-29T08:20:43.000Z</time>
</trkpt>
<trkpt lat="45.8959300" lon="10.3500730">
	<ele>1548.60</ele>
	<time>2025-04-29T08:20:44.000Z</time>
</trkpt>
<trkpt lat="45.8959230" lon="10.3500800">
	<ele>1548.80</ele>
	<time>2025-04-29T08:20:45.000Z</time>
</trkpt>
<trkpt lat="45.8959200" lon="10.3500830">
	<ele>1549.00</ele>
	<time>2025-04-29T08:20:46.000Z</time>
</trkpt>
<trkpt lat="45.8959140" lon="10.3500930">
	<ele>1549.00</ele>
	<time>2025-04-29T08:20:47.000Z</time>
</trkpt>
<trkpt lat="45.8959110" lon="10.3500980">
	<ele>1549.00</ele>
	<time>2025-04-29T08:20:48.000Z</time>
</trkpt>
<trkpt lat="45.8959010" lon="10.3501000">
	<ele>1549.20</ele>
	<time>2025-04-29T08:20:49.000Z</time>
</trkpt>
<trkpt lat="45.8958910" lon="10.3501040">
	<ele>1549.40</ele>
	<time>2025-04-29T08:20:50.000Z</time>
</trkpt>
<trkpt lat="45.8958750" lon="10.3501060">
	<ele>1549.80</ele>
	<time>2025-04-29T08:20:51.000Z</time>
</trkpt>
<trkpt lat="45.8958640" lon="10.3501160">
	<ele>1550.00</ele>
	<time>2025-04-29T08:20:52.000Z</time>
</trkpt>
<trkpt lat="45.8958540" lon="10.3501190">
	<ele>1550.20</ele>
	<time>2025-04-29T08:20:53.000Z</time>
</trkpt>
<trkpt lat="45.8958430" lon="10.3501180">
	<ele>1550.40</ele>
	<time>2025-04-29T08:20:54.000Z</time>
</trkpt>
<trkpt lat="45.8958410" lon="10.3501180">
	<ele>1550.40</ele>
	<time>2025-04-29T08:20:55.000Z</time>
</trkpt>
<trkpt lat="45.8958320" lon="10.3501200">
	<ele>1550.40</ele>
	<time>2025-04-29T08:20:56.000Z</time>
</trkpt>
<trkpt lat="45.8958260" lon="10.3501300">
	<ele>1550.60</ele>
	<time>2025-04-29T08:20:57.000Z</time>
</trkpt>
<trkpt lat="45.8958150" lon="10.3501440">
	<ele>1550.60</ele>
	<time>2025-04-29T08:20:58.000Z</time>
</trkpt>
<trkpt lat="45.8958040" lon="10.3501570">
	<ele>1550.80</ele>
	<time>2025-04-29T08:20:59.000Z</time>
</trkpt>
<trkpt lat="45.8958010" lon="10.3501590">
	<ele>1551.20</ele>
	<time>2025-04-29T08:21:00.000Z</time>
</trkpt>
<trkpt lat="45.8957960" lon="10.3501570">
	<ele>1551.40</ele>
	<time>2025-04-29T08:21:01.000Z</time>
</trkpt>
<trkpt lat="45.8957830" lon="10.3501500">
	<ele>1551.60</ele>
	<time>2025-04-29T08:21:02.000Z</time>
</trkpt>
<trkpt lat="45.8957790" lon="10.3501570">
	<ele>1551.60</ele>
	<time>2025-04-29T08:21:03.000Z</time>
</trkpt>
<trkpt lat="45.8957690" lon="10.3501680">
	<ele>1551.80</ele>
	<time>2025-04-29T08:21:04.000Z</time>
</trkpt>
<trkpt lat="45.8957630" lon="10.3501790">
	<ele>1552.00</ele>
	<time>2025-04-29T08:21:05.000Z</time>
</trkpt>
<trkpt lat="45.8957510" lon="10.3501820">
	<ele>1552.20</ele>
	<time>2025-04-29T08:21:06.000Z</time>
</trkpt>
<trkpt lat="45.8957300" lon="10.3501910">
	<ele>1552.40</ele>
	<time>2025-04-29T08:21:07.000Z</time>
</trkpt>
<trkpt lat="45.8957110" lon="10.3502000">
	<ele>1552.60</ele>
	<time>2025-04-29T08:21:08.000Z</time>
</trkpt>
<trkpt lat="45.8957000" lon="10.3502020">
	<ele>1552.60</ele>
	<time>2025-04-29T08:21:09.000Z</time>
</trkpt>
<trkpt lat="45.8956910" lon="10.3502060">
	<ele>1552.80</ele>
	<time>2025-04-29T08:21:10.000Z</time>
</trkpt>
<trkpt lat="45.8956820" lon="10.3502060">
	<ele>1552.80</ele>
	<time>2025-04-29T08:21:11.000Z</time>
</trkpt>
<trkpt lat="45.8956680" lon="10.3502070">
	<ele>1553.00</ele>
	<time>2025-04-29T08:21:12.000Z</time>
</trkpt>
<trkpt lat="45.8956610" lon="10.3502080">
	<ele>1553.20</ele>
	<time>2025-04-29T08:21:13.000Z</time>
</trkpt>
<trkpt lat="45.8956620" lon="10.3502260">
	<ele>1553.60</ele>
	<time>2025-04-29T08:21:14.000Z</time>
</trkpt>
<trkpt lat="45.8956590" lon="10.3502340">
	<ele>1553.80</ele>
	<time>2025-04-29T08:21:15.000Z</time>
</trkpt>
<trkpt lat="45.8956580" lon="10.3502420">
	<ele>1554.00</ele>
	<time>2025-04-29T08:21:16.000Z</time>
</trkpt>
<trkpt lat="45.8956530" lon="10.3502470">
	<ele>1554.00</ele>
	<time>2025-04-29T08:21:17.000Z</time>
</trkpt>
<trkpt lat="45.8956530" lon="10.3502460">
	<ele>1554.20</ele>
	<time>2025-04-29T08:21:18.000Z</time>
</trkpt>
<trkpt lat="45.8956430" lon="10.3502500">
	<ele>1554.40</ele>
	<time>2025-04-29T08:21:19.000Z</time>
</trkpt>
<trkpt lat="45.8956310" lon="10.3502550">
	<ele>1554.40</ele>
	<time>2025-04-29T08:21:20.000Z</time>
</trkpt>
<trkpt lat="45.8956180" lon="10.3502640">
	<ele>1554.60</ele>
	<time>2025-04-29T08:21:21.000Z</time>
</trkpt>
<trkpt lat="45.8956080" lon="10.3502720">
	<ele>1554.80</ele>
	<time>2025-04-29T08:21:22.000Z</time>
</trkpt>
<trkpt lat="45.8956010" lon="10.3502770">
	<ele>1555.00</ele>
	<time>2025-04-29T08:21:23.000Z</time>
</trkpt>
<trkpt lat="45.8955920" lon="10.3502810">
	<ele>1555.00</ele>
	<time>2025-04-29T08:21:24.000Z</time>
</trkpt>
<trkpt lat="45.8955810" lon="10.3502780">
	<ele>1555.20</ele>
	<time>2025-04-29T08:21:25.000Z</time>
</trkpt>
<trkpt lat="45.8955700" lon="10.3502740">
	<ele>1555.40</ele>
	<time>2025-04-29T08:21:26.000Z</time>
</trkpt>
<trkpt lat="45.8955650" lon="10.3502710">
	<ele>1555.60</ele>
	<time>2025-04-29T08:21:27.000Z</time>
</trkpt>
<trkpt lat="45.8955630" lon="10.3502710">
	<ele>1555.60</ele>
	<time>2025-04-29T08:21:28.000Z</time>
</trkpt>
<trkpt lat="45.8955590" lon="10.3502650">
	<ele>1555.80</ele>
	<time>2025-04-29T08:21:29.000Z</time>
</trkpt>
<trkpt lat="45.8955510" lon="10.3502610">
	<ele>1555.80</ele>
	<time>2025-04-29T08:21:30.000Z</time>
</trkpt>
<trkpt lat="45.8955440" lon="10.3502690">
	<ele>1556.00</ele>
	<time>2025-04-29T08:21:31.000Z</time>
</trkpt>
<trkpt lat="45.8955370" lon="10.3502770">
	<ele>1556.20</ele>
	<time>2025-04-29T08:21:32.000Z</time>
</trkpt>
<trkpt lat="45.8955220" lon="10.3502940">
	<ele>1556.40</ele>
	<time>2025-04-29T08:21:33.000Z</time>
</trkpt>
<trkpt lat="45.8955050" lon="10.3503110">
	<ele>1556.40</ele>
	<time>2025-04-29T08:21:34.000Z</time>
</trkpt>
<trkpt lat="45.8954920" lon="10.3503230">
	<ele>1556.60</ele>
	<time>2025-04-29T08:21:35.000Z</time>
</trkpt>
<trkpt lat="45.8954830" lon="10.3503310">
	<ele>1556.80</ele>
	<time>2025-04-29T08:21:36.000Z</time>
</trkpt>
<trkpt lat="45.8954740" lon="10.3503330">
	<ele>1557.20</ele>
	<time>2025-04-29T08:21:37.000Z</time>
</trkpt>
<trkpt lat="45.8954560" lon="10.3503290">
	<ele>1557.20</ele>
	<time>2025-04-29T08:21:38.000Z</time>
</trkpt>
<trkpt lat="45.8954520" lon="10.3503250">
	<ele>1557.60</ele>
	<time>2025-04-29T08:21:39.000Z</time>
</trkpt>
<trkpt lat="45.8954440" lon="10.3503210">
	<ele>1557.80</ele>
	<time>2025-04-29T08:21:40.000Z</time>
</trkpt>
<trkpt lat="45.8954370" lon="10.3503140">
	<ele>1558.00</ele>
	<time>2025-04-29T08:21:41.000Z</time>
</trkpt>
<trkpt lat="45.8954350" lon="10.3503100">
	<ele>1558.20</ele>
	<time>2025-04-29T08:21:42.000Z</time>
</trkpt>
<trkpt lat="45.8954350" lon="10.3503090">
	<ele>1558.20</ele>
	<time>2025-04-29T08:21:43.000Z</time>
</trkpt>
<trkpt lat="45.8954340" lon="10.3503050">
	<ele>1558.20</ele>
	<time>2025-04-29T08:21:44.000Z</time>
</trkpt>
<trkpt lat="45.8954290" lon="10.3502980">
	<ele>1558.40</ele>
	<time>2025-04-29T08:21:45.000Z</time>
</trkpt>
<trkpt lat="45.8954260" lon="10.3502930">
	<ele>1558.60</ele>
	<time>2025-04-29T08:21:46.000Z</time>
</trkpt>
<trkpt lat="45.8954260" lon="10.3502900">
	<ele>1558.80</ele>
	<time>2025-04-29T08:21:47.000Z</time>
</trkpt>
<trkpt lat="45.8954260" lon="10.3502850">
	<ele>1559.00</ele>
	<time>2025-04-29T08:21:48.000Z</time>
</trkpt>
<trkpt lat="45.8954240" lon="10.3502770">
	<ele>1559.00</ele>
	<time>2025-04-29T08:21:49.000Z</time>
</trkpt>
<trkpt lat="45.8954270" lon="10.3502700">
	<ele>1559.20</ele>
	<time>2025-04-29T08:21:50.000Z</time>
</trkpt>
<trkpt lat="45.8954270" lon="10.3502650">
	<ele>1559.40</ele>
	<time>2025-04-29T08:21:51.000Z</time>
</trkpt>
<trkpt lat="45.8954220" lon="10.3502610">
	<ele>1559.60</ele>
	<time>2025-04-29T08:21:52.000Z</time>
</trkpt>
<trkpt lat="45.8954200" lon="10.3502540">
	<ele>1559.80</ele>
	<time>2025-04-29T08:21:53.000Z</time>
</trkpt>
<trkpt lat="45.8954260" lon="10.3502450">
	<ele>1560.00</ele>
	<time>2025-04-29T08:21:54.000Z</time>
</trkpt>
<trkpt lat="45.8954330" lon="10.3502360">
	<ele>1560.20</ele>
	<time>2025-04-29T08:21:55.000Z</time>
</trkpt>
<trkpt lat="45.8954370" lon="10.3502290">
	<ele>1560.20</ele>
	<time>2025-04-29T08:21:56.000Z</time>
</trkpt>
<trkpt lat="45.8954340" lon="10.3502160">
	<ele>1560.40</ele>
	<time>2025-04-29T08:21:57.000Z</time>
</trkpt>
<trkpt lat="45.8954320" lon="10.3502020">
	<ele>1560.40</ele>
	<time>2025-04-29T08:21:58.000Z</time>
</trkpt>
<trkpt lat="45.8954310" lon="10.3501860">
	<ele>1560.60</ele>
	<time>2025-04-29T08:21:59.000Z</time>
</trkpt>
<trkpt lat="45.8954290" lon="10.3501760">
	<ele>1560.80</ele>
	<time>2025-04-29T08:22:00.000Z</time>
</trkpt>
<trkpt lat="45.8954330" lon="10.3501640">
	<ele>1560.80</ele>
	<time>2025-04-29T08:22:01.000Z</time>
</trkpt>
<trkpt lat="45.8954340" lon="10.3501580">
	<ele>1560.80</ele>
	<time>2025-04-29T08:22:02.000Z</time>
</trkpt>
<trkpt lat="45.8954340" lon="10.3501590">
	<ele>1561.00</ele>
	<time>2025-04-29T08:22:03.000Z</time>
</trkpt>
<trkpt lat="45.8954340" lon="10.3501450">
	<ele>1561.20</ele>
	<time>2025-04-29T08:22:04.000Z</time>
</trkpt>
<trkpt lat="45.8954400" lon="10.3501370">
	<ele>1561.40</ele>
	<time>2025-04-29T08:22:05.000Z</time>
</trkpt>
<trkpt lat="45.8954420" lon="10.3501250">
	<ele>1561.60</ele>
	<time>2025-04-29T08:22:06.000Z</time>
</trkpt>
<trkpt lat="45.8954390" lon="10.3501120">
	<ele>1561.80</ele>
	<time>2025-04-29T08:22:07.000Z</time>
</trkpt>
<trkpt lat="45.8954400" lon="10.3500940">
	<ele>1561.80</ele>
	<time>2025-04-29T08:22:08.000Z</time>
</trkpt>
<trkpt lat="45.8954530" lon="10.3500710">
	<ele>1562.00</ele>
	<time>2025-04-29T08:22:09.000Z</time>
</trkpt>
<trkpt lat="45.8954640" lon="10.3500590">
	<ele>1562.00</ele>
	<time>2025-04-29T08:22:10.000Z</time>
</trkpt>
<trkpt lat="45.8954740" lon="10.3500440">
	<ele>1562.20</ele>
	<time>2025-04-29T08:22:11.000Z</time>
</trkpt>
<trkpt lat="45.8954750" lon="10.3500340">
	<ele>1562.20</ele>
	<time>2025-04-29T08:22:12.000Z</time>
</trkpt>
<trkpt lat="45.8954770" lon="10.3500230">
	<ele>1562.40</ele>
	<time>2025-04-29T08:22:13.000Z</time>
</trkpt>
<trkpt lat="45.8954830" lon="10.3500090">
	<ele>1562.40</ele>
	<time>2025-04-29T08:22:14.000Z</time>
</trkpt>
<trkpt lat="45.8954850" lon="10.3499960">
	<ele>1562.60</ele>
	<time>2025-04-29T08:22:15.000Z</time>
</trkpt>
<trkpt lat="45.8954930" lon="10.3499770">
	<ele>1562.80</ele>
	<time>2025-04-29T08:22:16.000Z</time>
</trkpt>
<trkpt lat="45.8954940" lon="10.3499550">
	<ele>1562.80</ele>
	<time>2025-04-29T08:22:17.000Z</time>
</trkpt>
<trkpt lat="45.8954950" lon="10.3499460">
	<ele>1563.00</ele>
	<time>2025-04-29T08:22:18.000Z</time>
</trkpt>
<trkpt lat="45.8954960" lon="10.3499410">
	<ele>1563.20</ele>
	<time>2025-04-29T08:22:19.000Z</time>
</trkpt>
<trkpt lat="45.8954980" lon="10.3499250">
	<ele>1563.40</ele>
	<time>2025-04-29T08:22:20.000Z</time>
</trkpt>
<trkpt lat="45.8954990" lon="10.3499200">
	<ele>1563.60</ele>
	<time>2025-04-29T08:22:21.000Z</time>
</trkpt>
<trkpt lat="45.8954980" lon="10.3499160">
	<ele>1563.60</ele>
	<time>2025-04-29T08:22:22.000Z</time>
</trkpt>
<trkpt lat="45.8955050" lon="10.3499180">
	<ele>1563.80</ele>
	<time>2025-04-29T08:22:23.000Z</time>
</trkpt>
<trkpt lat="45.8955040" lon="10.3499020">
	<ele>1564.00</ele>
	<time>2025-04-29T08:22:24.000Z</time>
</trkpt>
<trkpt lat="45.8955080" lon="10.3498910">
	<ele>1564.20</ele>
	<time>2025-04-29T08:22:25.000Z</time>
</trkpt>
<trkpt lat="45.8955100" lon="10.3498850">
	<ele>1564.40</ele>
	<time>2025-04-29T08:22:26.000Z</time>
</trkpt>
<trkpt lat="45.8955110" lon="10.3498830">
	<ele>1564.60</ele>
	<time>2025-04-29T08:22:27.000Z</time>
</trkpt>
<trkpt lat="45.8955130" lon="10.3498760">
	<ele>1564.80</ele>
	<time>2025-04-29T08:22:28.000Z</time>
</trkpt>
<trkpt lat="45.8955120" lon="10.3498670">
	<ele>1565.00</ele>
	<time>2025-04-29T08:22:29.000Z</time>
</trkpt>
<trkpt lat="45.8955110" lon="10.3498610">
	<ele>1565.20</ele>
	<time>2025-04-29T08:22:30.000Z</time>
</trkpt>
<trkpt lat="45.8955060" lon="10.3498610">
	<ele>1565.40</ele>
	<time>2025-04-29T08:22:31.000Z</time>
</trkpt>
<trkpt lat="45.8955030" lon="10.3498530">
	<ele>1565.60</ele>
	<time>2025-04-29T08:22:32.000Z</time>
</trkpt>
<trkpt lat="45.8955070" lon="10.3498410">
	<ele>1565.80</ele>
	<time>2025-04-29T08:22:33.000Z</time>
</trkpt>
<trkpt lat="45.8955110" lon="10.3498220">
	<ele>1566.00</ele>
	<time>2025-04-29T08:22:34.000Z</time>
</trkpt>
<trkpt lat="45.8955170" lon="10.3498090">
	<ele>1566.20</ele>
	<time>2025-04-29T08:22:35.000Z</time>
</trkpt>
<trkpt lat="45.8955240" lon="10.3497980">
	<ele>1566.20</ele>
	<time>2025-04-29T08:22:36.000Z</time>
</trkpt>
<trkpt lat="45.8955320" lon="10.3497870">
	<ele>1566.40</ele>
	<time>2025-04-29T08:22:37.000Z</time>
</trkpt>
<trkpt lat="45.8955350" lon="10.3497750">
	<ele>1566.60</ele>
	<time>2025-04-29T08:22:38.000Z</time>
</trkpt>
<trkpt lat="45.8955370" lon="10.3497640">
	<ele>1566.60</ele>
	<time>2025-04-29T08:22:39.000Z</time>
</trkpt>
<trkpt lat="45.8955350" lon="10.3497530">
	<ele>1566.80</ele>
	<time>2025-04-29T08:22:40.000Z</time>
</trkpt>
<trkpt lat="45.8955360" lon="10.3497390">
	<ele>1567.00</ele>
	<time>2025-04-29T08:22:41.000Z</time>
</trkpt>
<trkpt lat="45.8955380" lon="10.3497220">
	<ele>1567.00</ele>
	<time>2025-04-29T08:22:42.000Z</time>
</trkpt>
<trkpt lat="45.8955440" lon="10.3497120">
	<ele>1567.20</ele>
	<time>2025-04-29T08:22:43.000Z</time>
</trkpt>
<trkpt lat="45.8955470" lon="10.3497000">
	<ele>1567.40</ele>
	<time>2025-04-29T08:22:44.000Z</time>
</trkpt>
<trkpt lat="45.8955540" lon="10.3496890">
	<ele>1567.60</ele>
	<time>2025-04-29T08:22:45.000Z</time>
</trkpt>
<trkpt lat="45.8955600" lon="10.3496790">
	<ele>1567.80</ele>
	<time>2025-04-29T08:22:46.000Z</time>
</trkpt>
<trkpt lat="45.8955650" lon="10.3496610">
	<ele>1568.00</ele>
	<time>2025-04-29T08:22:47.000Z</time>
</trkpt>
<trkpt lat="45.8955670" lon="10.3496400">
	<ele>1568.00</ele>
	<time>2025-04-29T08:22:48.000Z</time>
</trkpt>
<trkpt lat="45.8955640" lon="10.3496260">
	<ele>1568.20</ele>
	<time>2025-04-29T08:22:49.000Z</time>
</trkpt>
<trkpt lat="45.8955730" lon="10.3496070">
	<ele>1568.40</ele>
	<time>2025-04-29T08:22:50.000Z</time>
</trkpt>
<trkpt lat="45.8955760" lon="10.3495880">
	<ele>1568.60</ele>
	<time>2025-04-29T08:22:51.000Z</time>
</trkpt>
<trkpt lat="45.8955850" lon="10.3495690">
	<ele>1568.80</ele>
	<time>2025-04-29T08:22:52.000Z</time>
</trkpt>
<trkpt lat="45.8955910" lon="10.3495550">
	<ele>1569.00</ele>
	<time>2025-04-29T08:22:53.000Z</time>
</trkpt>
<trkpt lat="45.8955950" lon="10.3495410">
	<ele>1569.00</ele>
	<time>2025-04-29T08:22:54.000Z</time>
</trkpt>
<trkpt lat="45.8955980" lon="10.3495300">
	<ele>1569.20</ele>
	<time>2025-04-29T08:22:55.000Z</time>
</trkpt>
<trkpt lat="45.8955940" lon="10.3495110">
	<ele>1569.20</ele>
	<time>2025-04-29T08:22:56.000Z</time>
</trkpt>
<trkpt lat="45.8955850" lon="10.3494950">
	<ele>1569.40</ele>
	<time>2025-04-29T08:22:57.000Z</time>
</trkpt>
<trkpt lat="45.8955790" lon="10.3494850">
	<ele>1569.60</ele>
	<time>2025-04-29T08:22:58.000Z</time>
</trkpt>
<trkpt lat="45.8955770" lon="10.3494750">
	<ele>1569.60</ele>
	<time>2025-04-29T08:22:59.000Z</time>
</trkpt>
<trkpt lat="45.8955810" lon="10.3494680">
	<ele>1569.80</ele>
	<time>2025-04-29T08:23:00.000Z</time>
</trkpt>
<trkpt lat="45.8955890" lon="10.3494600">
	<ele>1570.00</ele>
	<time>2025-04-29T08:23:01.000Z</time>
</trkpt>
<trkpt lat="45.8955950" lon="10.3494530">
	<ele>1570.20</ele>
	<time>2025-04-29T08:23:02.000Z</time>
</trkpt>
<trkpt lat="45.8956000" lon="10.3494390">
	<ele>1570.20</ele>
	<time>2025-04-29T08:23:03.000Z</time>
</trkpt>
<trkpt lat="45.8956020" lon="10.3494290">
	<ele>1570.40</ele>
	<time>2025-04-29T08:23:04.000Z</time>
</trkpt>
<trkpt lat="45.8956060" lon="10.3494180">
	<ele>1570.40</ele>
	<time>2025-04-29T08:23:05.000Z</time>
</trkpt>
<trkpt lat="45.8956100" lon="10.3494070">
	<ele>1570.80</ele>
	<time>2025-04-29T08:23:06.000Z</time>
</trkpt>
<trkpt lat="45.8956180" lon="10.3493970">
	<ele>1571.00</ele>
	<time>2025-04-29T08:23:07.000Z</time>
</trkpt>
<trkpt lat="45.8956200" lon="10.3493840">
	<ele>1571.00</ele>
	<time>2025-04-29T08:23:08.000Z</time>
</trkpt>
<trkpt lat="45.8956230" lon="10.3493720">
	<ele>1571.20</ele>
	<time>2025-04-29T08:23:09.000Z</time>
</trkpt>
<trkpt lat="45.8956230" lon="10.3493590">
	<ele>1571.40</ele>
	<time>2025-04-29T08:23:10.000Z</time>
</trkpt>
<trkpt lat="45.8956250" lon="10.3493470">
	<ele>1571.40</ele>
	<time>2025-04-29T08:23:11.000Z</time>
</trkpt>
<trkpt lat="45.8956260" lon="10.3493360">
	<ele>1571.60</ele>
	<time>2025-04-29T08:23:12.000Z</time>
</trkpt>
<trkpt lat="45.8956300" lon="10.3493220">
	<ele>1571.60</ele>
	<time>2025-04-29T08:23:13.000Z</time>
</trkpt>
<trkpt lat="45.8956390" lon="10.3493100">
	<ele>1571.80</ele>
	<time>2025-04-29T08:23:14.000Z</time>
</trkpt>
<trkpt lat="45.8956460" lon="10.3493010">
	<ele>1572.00</ele>
	<time>2025-04-29T08:23:15.000Z</time>
</trkpt>
<trkpt lat="45.8956520" lon="10.3492910">
	<ele>1572.00</ele>
	<time>2025-04-29T08:23:16.000Z</time>
</trkpt>
<trkpt lat="45.8956550" lon="10.3492830">
	<ele>1572.40</ele>
	<time>2025-04-29T08:23:17.000Z</time>
</trkpt>
<trkpt lat="45.8956570" lon="10.3492710">
	<ele>1572.40</ele>
	<time>2025-04-29T08:23:18.000Z</time>
</trkpt>
<trkpt lat="45.8956570" lon="10.3492640">
	<ele>1572.60</ele>
	<time>2025-04-29T08:23:19.000Z</time>
</trkpt>
<trkpt lat="45.8956590" lon="10.3492640">
	<ele>1572.80</ele>
	<time>2025-04-29T08:23:20.000Z</time>
</trkpt>
<trkpt lat="45.8956560" lon="10.3492610">
	<ele>1573.00</ele>
	<time>2025-04-29T08:23:21.000Z</time>
</trkpt>
<trkpt lat="45.8956590" lon="10.3492580">
	<ele>1573.20</ele>
	<time>2025-04-29T08:23:22.000Z</time>
</trkpt>
<trkpt lat="45.8956600" lon="10.3492520">
	<ele>1573.40</ele>
	<time>2025-04-29T08:23:23.000Z</time>
</trkpt>
<trkpt lat="45.8956640" lon="10.3492450">
	<ele>1573.40</ele>
	<time>2025-04-29T08:23:24.000Z</time>
</trkpt>
<trkpt lat="45.8956740" lon="10.3492350">
	<ele>1573.80</ele>
	<time>2025-04-29T08:23:25.000Z</time>
</trkpt>
<trkpt lat="45.8956840" lon="10.3492290">
	<ele>1574.00</ele>
	<time>2025-04-29T08:23:26.000Z</time>
</trkpt>
<trkpt lat="45.8956910" lon="10.3492260">
	<ele>1574.00</ele>
	<time>2025-04-29T08:23:27.000Z</time>
</trkpt>
<trkpt lat="45.8956980" lon="10.3492260">
	<ele>1574.20</ele>
	<time>2025-04-29T08:23:28.000Z</time>
</trkpt>
<trkpt lat="45.8957080" lon="10.3492230">
	<ele>1574.40</ele>
	<time>2025-04-29T08:23:29.000Z</time>
</trkpt>
<trkpt lat="45.8957180" lon="10.3492170">
	<ele>1574.60</ele>
	<time>2025-04-29T08:23:30.000Z</time>
</trkpt>
<trkpt lat="45.8957280" lon="10.3492080">
	<ele>1574.80</ele>
	<time>2025-04-29T08:23:31.000Z</time>
</trkpt>
<trkpt lat="45.8957390" lon="10.3492060">
	<ele>1575.20</ele>
	<time>2025-04-29T08:23:32.000Z</time>
</trkpt>
<trkpt lat="45.8957430" lon="10.3491970">
	<ele>1575.20</ele>
	<time>2025-04-29T08:23:33.000Z</time>
</trkpt>
<trkpt lat="45.8957480" lon="10.3491870">
	<ele>1575.40</ele>
	<time>2025-04-29T08:23:34.000Z</time>
</trkpt>
<trkpt lat="45.8957550" lon="10.3491740">
	<ele>1575.60</ele>
	<time>2025-04-29T08:23:35.000Z</time>
</trkpt>
<trkpt lat="45.8957600" lon="10.3491610">
	<ele>1575.80</ele>
	<time>2025-04-29T08:23:36.000Z</time>
</trkpt>
<trkpt lat="45.8957630" lon="10.3491490">
	<ele>1575.80</ele>
	<time>2025-04-29T08:23:37.000Z</time>
</trkpt>
<trkpt lat="45.8957630" lon="10.3491420">
	<ele>1576.00</ele>
	<time>2025-04-29T08:23:38.000Z</time>
</trkpt>
<trkpt lat="45.8957630" lon="10.3491310">
	<ele>1576.00</ele>
	<time>2025-04-29T08:23:39.000Z</time>
</trkpt>
<trkpt lat="45.8957670" lon="10.3491250">
	<ele>1576.40</ele>
	<time>2025-04-29T08:23:40.000Z</time>
</trkpt>
<trkpt lat="45.8957730" lon="10.3491160">
	<ele>1576.60</ele>
	<time>2025-04-29T08:23:41.000Z</time>
</trkpt>
<trkpt lat="45.8957780" lon="10.3491060">
	<ele>1576.80</ele>
	<time>2025-04-29T08:23:42.000Z</time>
</trkpt>
<trkpt lat="45.8957830" lon="10.3490900">
	<ele>1577.00</ele>
	<time>2025-04-29T08:23:43.000Z</time>
</trkpt>
<trkpt lat="45.8957880" lon="10.3490760">
	<ele>1577.40</ele>
	<time>2025-04-29T08:23:44.000Z</time>
</trkpt>
<trkpt lat="45.8957900" lon="10.3490620">
	<ele>1577.60</ele>
	<time>2025-04-29T08:23:45.000Z</time>
</trkpt>
<trkpt lat="45.8957860" lon="10.3490570">
	<ele>1577.80</ele>
	<time>2025-04-29T08:23:46.000Z</time>
</trkpt>
<trkpt lat="45.8957910" lon="10.3490650">
	<ele>1578.00</ele>
	<time>2025-04-29T08:23:47.000Z</time>
</trkpt>
<trkpt lat="45.8958000" lon="10.3490650">
	<ele>1578.20</ele>
	<time>2025-04-29T08:23:48.000Z</time>
</trkpt>
<trkpt lat="45.8958060" lon="10.3490590">
	<ele>1578.40</ele>
	<time>2025-04-29T08:23:49.000Z</time>
</trkpt>
<trkpt lat="45.8958150" lon="10.3490610">
	<ele>1578.40</ele>
	<time>2025-04-29T08:23:50.000Z</time>
</trkpt>
<trkpt lat="45.8958210" lon="10.3490540">
	<ele>1578.40</ele>
	<time>2025-04-29T08:23:51.000Z</time>
</trkpt>
<trkpt lat="45.8958260" lon="10.3490340">
	<ele>1578.60</ele>
	<time>2025-04-29T08:23:52.000Z</time>
</trkpt>
<trkpt lat="45.8958320" lon="10.3490210">
	<ele>1579.00</ele>
	<time>2025-04-29T08:23:53.000Z</time>
</trkpt>
<trkpt lat="45.8958360" lon="10.3490160">
	<ele>1579.20</ele>
	<time>2025-04-29T08:23:54.000Z</time>
</trkpt>
<trkpt lat="45.8958390" lon="10.3490120">
	<ele>1579.20</ele>
	<time>2025-04-29T08:23:55.000Z</time>
</trkpt>
<trkpt lat="45.8958420" lon="10.3490070">
	<ele>1579.40</ele>
	<time>2025-04-29T08:23:56.000Z</time>
</trkpt>
<trkpt lat="45.8958520" lon="10.3490030">
	<ele>1579.60</ele>
	<time>2025-04-29T08:23:57.000Z</time>
</trkpt>
<trkpt lat="45.8958600" lon="10.3489860">
	<ele>1579.80</ele>
	<time>2025-04-29T08:23:58.000Z</time>
</trkpt>
<trkpt lat="45.8958670" lon="10.3489710">
	<ele>1579.80</ele>
	<time>2025-04-29T08:23:59.000Z</time>
</trkpt>
<trkpt lat="45.8958700" lon="10.3489650">
	<ele>1580.20</ele>
	<time>2025-04-29T08:24:00.000Z</time>
</trkpt>
<trkpt lat="45.8958720" lon="10.3489600">
	<ele>1580.40</ele>
	<time>2025-04-29T08:24:01.000Z</time>
</trkpt>
<trkpt lat="45.8958740" lon="10.3489430">
	<ele>1580.40</ele>
	<time>2025-04-29T08:24:02.000Z</time>
</trkpt>
<trkpt lat="45.8958800" lon="10.3489330">
	<ele>1580.60</ele>
	<time>2025-04-29T08:24:03.000Z</time>
</trkpt>
<trkpt lat="45.8958840" lon="10.3489270">
	<ele>1580.80</ele>
	<time>2025-04-29T08:24:04.000Z</time>
</trkpt>
<trkpt lat="45.8958880" lon="10.3489130">
	<ele>1581.00</ele>
	<time>2025-04-29T08:24:05.000Z</time>
</trkpt>
<trkpt lat="45.8958880" lon="10.3489030">
	<ele>1581.20</ele>
	<time>2025-04-29T08:24:06.000Z</time>
</trkpt>
<trkpt lat="45.8958870" lon="10.3488890">
	<ele>1581.20</ele>
	<time>2025-04-29T08:24:07.000Z</time>
</trkpt>
<trkpt lat="45.8958890" lon="10.3488790">
	<ele>1581.40</ele>
	<time>2025-04-29T08:24:08.000Z</time>
</trkpt>
<trkpt lat="45.8958930" lon="10.3488660">
	<ele>1581.60</ele>
	<time>2025-04-29T08:24:09.000Z</time>
</trkpt>
<trkpt lat="45.8958980" lon="10.3488540">
	<ele>1581.60</ele>
	<time>2025-04-29T08:24:10.000Z</time>
</trkpt>
<trkpt lat="45.8959050" lon="10.3488500">
	<ele>1582.00</ele>
	<time>2025-04-29T08:24:11.000Z</time>
</trkpt>
<trkpt lat="45.8959080" lon="10.3488470">
	<ele>1582.00</ele>
	<time>2025-04-29T08:24:12.000Z</time>
</trkpt>
<trkpt lat="45.8959090" lon="10.3488300">
	<ele>1582.40</ele>
	<time>2025-04-29T08:24:13.000Z</time>
</trkpt>
<trkpt lat="45.8959090" lon="10.3488200">
	<ele>1582.60</ele>
	<time>2025-04-29T08:24:14.000Z</time>
</trkpt>
<trkpt lat="45.8959090" lon="10.3488080">
	<ele>1582.80</ele>
	<time>2025-04-29T08:24:15.000Z</time>
</trkpt>
<trkpt lat="45.8959100" lon="10.3487990">
	<ele>1582.80</ele>
	<time>2025-04-29T08:24:16.000Z</time>
</trkpt>
<trkpt lat="45.8959120" lon="10.3487910">
	<ele>1583.00</ele>
	<time>2025-04-29T08:24:17.000Z</time>
</trkpt>
<trkpt lat="45.8959150" lon="10.3487840">
	<ele>1583.20</ele>
	<time>2025-04-29T08:24:18.000Z</time>
</trkpt>
<trkpt lat="45.8959170" lon="10.3487700">
	<ele>1583.40</ele>
	<time>2025-04-29T08:24:19.000Z</time>
</trkpt>
<trkpt lat="45.8959180" lon="10.3487560">
	<ele>1583.40</ele>
	<time>2025-04-29T08:24:20.000Z</time>
</trkpt>
<trkpt lat="45.8959190" lon="10.3487410">
	<ele>1583.60</ele>
	<time>2025-04-29T08:24:21.000Z</time>
</trkpt>
<trkpt lat="45.8959200" lon="10.3487260">
	<ele>1583.80</ele>
	<time>2025-04-29T08:24:22.000Z</time>
</trkpt>
<trkpt lat="45.8959180" lon="10.3487070">
	<ele>1584.00</ele>
	<time>2025-04-29T08:24:23.000Z</time>
</trkpt>
<trkpt lat="45.8959200" lon="10.3486980">
	<ele>1584.00</ele>
	<time>2025-04-29T08:24:24.000Z</time>
</trkpt>
<trkpt lat="45.8959230" lon="10.3486890">
	<ele>1584.40</ele>
	<time>2025-04-29T08:24:25.000Z</time>
</trkpt>
<trkpt lat="45.8959250" lon="10.3486790">
	<ele>1584.40</ele>
	<time>2025-04-29T08:24:26.000Z</time>
</trkpt>
<trkpt lat="45.8959230" lon="10.3486650">
	<ele>1584.60</ele>
	<time>2025-04-29T08:24:27.000Z</time>
</trkpt>
<trkpt lat="45.8959210" lon="10.3486470">
	<ele>1584.80</ele>
	<time>2025-04-29T08:24:28.000Z</time>
</trkpt>
<trkpt lat="45.8959100" lon="10.3486320">
	<ele>1584.80</ele>
	<time>2025-04-29T08:24:29.000Z</time>
</trkpt>
<trkpt lat="45.8958960" lon="10.3486160">
	<ele>1585.00</ele>
	<time>2025-04-29T08:24:30.000Z</time>
</trkpt>
<trkpt lat="45.8958860" lon="10.3486040">
	<ele>1585.20</ele>
	<time>2025-04-29T08:24:31.000Z</time>
</trkpt>
<trkpt lat="45.8958760" lon="10.3485930">
	<ele>1585.40</ele>
	<time>2025-04-29T08:24:32.000Z</time>
</trkpt>
<trkpt lat="45.8958660" lon="10.3485830">
	<ele>1585.60</ele>
	<time>2025-04-29T08:24:33.000Z</time>
</trkpt>
<trkpt lat="45.8958580" lon="10.3485800">
	<ele>1585.80</ele>
	<time>2025-04-29T08:24:34.000Z</time>
</trkpt>
<trkpt lat="45.8958480" lon="10.3485740">
	<ele>1585.80</ele>
	<time>2025-04-29T08:24:35.000Z</time>
</trkpt>
<trkpt lat="45.8958400" lon="10.3485680">
	<ele>1586.00</ele>
	<time>2025-04-29T08:24:36.000Z</time>
</trkpt>
<trkpt lat="45.8958340" lon="10.3485630">
	<ele>1586.00</ele>
	<time>2025-04-29T08:24:37.000Z</time>
</trkpt>
<trkpt lat="45.8958310" lon="10.3485610">
	<ele>1586.20</ele>
	<time>2025-04-29T08:24:38.000Z</time>
</trkpt>
<trkpt lat="45.8958290" lon="10.3485580">
	<ele>1586.20</ele>
	<time>2025-04-29T08:24:39.000Z</time>
</trkpt>
<trkpt lat="45.8958300" lon="10.3485590">
	<ele>1586.40</ele>
	<time>2025-04-29T08:24:40.000Z</time>
</trkpt>
<trkpt lat="45.8958320" lon="10.3485620">
	<ele>1586.40</ele>
	<time>2025-04-29T08:24:41.000Z</time>
</trkpt>
<trkpt lat="45.8958300" lon="10.3485620">
	<ele>1586.40</ele>
	<time>2025-04-29T08:24:42.000Z</time>
</trkpt>
<trkpt lat="45.8958330" lon="10.3485670">
	<ele>1586.60</ele>
	<time>2025-04-29T08:24:43.000Z</time>
</trkpt>
<trkpt lat="45.8958320" lon="10.3485670">
	<ele>1586.60</ele>
	<time>2025-04-29T08:24:44.000Z</time>
</trkpt>
<trkpt lat="45.8958300" lon="10.3485690">
	<ele>1586.80</ele>
	<time>2025-04-29T08:24:45.000Z</time>
</trkpt>
<trkpt lat="45.8958280" lon="10.3485670">
	<ele>1586.80</ele>
	<time>2025-04-29T08:24:46.000Z</time>
</trkpt>
<trkpt lat="45.8958260" lon="10.3485660">
	<ele>1586.80</ele>
	<time>2025-04-29T08:24:47.000Z</time>
</trkpt>
<trkpt lat="45.8958200" lon="10.3485660">
	<ele>1586.80</ele>
	<time>2025-04-29T08:24:48.000Z</time>
</trkpt>
<trkpt lat="45.8958120" lon="10.3485630">
	<ele>1586.80</ele>
	<time>2025-04-29T08:24:49.000Z</time>
</trkpt>
<trkpt lat="45.8958020" lon="10.3485560">
	<ele>1586.80</ele>
	<time>2025-04-29T08:24:50.000Z</time>
</trkpt>
<trkpt lat="45.8957990" lon="10.3485550">
	<ele>1586.80</ele>
	<time>2025-04-29T08:24:51.000Z</time>
</trkpt>
<trkpt lat="45.8957980" lon="10.3485540">
	<ele>1586.80</ele>
	<time>2025-04-29T08:24:52.000Z</time>
</trkpt>
<trkpt lat="45.8957950" lon="10.3485560">
	<ele>1586.80</ele>
	<time>2025-04-29T08:24:53.000Z</time>
</trkpt>
<trkpt lat="45.8957900" lon="10.3485550">
	<ele>1586.80</ele>
	<time>2025-04-29T08:24:54.000Z</time>
</trkpt>
<trkpt lat="45.8957810" lon="10.3485520">
	<ele>1586.80</ele>
	<time>2025-04-29T08:24:55.000Z</time>
</trkpt>
<trkpt lat="45.8957680" lon="10.3485460">
	<ele>1586.80</ele>
	<time>2025-04-29T08:24:56.000Z</time>
</trkpt>
<trkpt lat="45.8957560" lon="10.3485420">
	<ele>1586.80</ele>
	<time>2025-04-29T08:24:57.000Z</time>
</trkpt>
<trkpt lat="45.8957450" lon="10.3485390">
	<ele>1586.80</ele>
	<time>2025-04-29T08:24:58.000Z</time>
</trkpt>
<trkpt lat="45.8957340" lon="10.3485340">
	<ele>1586.80</ele>
	<time>2025-04-29T08:24:59.000Z</time>
</trkpt>
<trkpt lat="45.8957280" lon="10.3485370">
	<ele>1586.80</ele>
	<time>2025-04-29T08:25:00.000Z</time>
</trkpt>
<trkpt lat="45.8957220" lon="10.3485360">
	<ele>1586.80</ele>
	<time>2025-04-29T08:25:01.000Z</time>
</trkpt>
<trkpt lat="45.8957150" lon="10.3485250">
	<ele>1587.00</ele>
	<time>2025-04-29T08:25:02.000Z</time>
</trkpt>
<trkpt lat="45.8957100" lon="10.3485130">
	<ele>1587.20</ele>
	<time>2025-04-29T08:25:03.000Z</time>
</trkpt>
<trkpt lat="45.8957000" lon="10.3484980">
	<ele>1587.40</ele>
	<time>2025-04-29T08:25:04.000Z</time>
</trkpt>
<trkpt lat="45.8956880" lon="10.3484880">
	<ele>1587.40</ele>
	<time>2025-04-29T08:25:05.000Z</time>
</trkpt>
<trkpt lat="45.8956790" lon="10.3484840">
	<ele>1587.60</ele>
	<time>2025-04-29T08:25:06.000Z</time>
</trkpt>
<trkpt lat="45.8956700" lon="10.3484740">
	<ele>1587.60</ele>
	<time>2025-04-29T08:25:07.000Z</time>
</trkpt>
<trkpt lat="45.8956620" lon="10.3484650">
	<ele>1587.80</ele>
	<time>2025-04-29T08:25:08.000Z</time>
</trkpt>
<trkpt lat="45.8956530" lon="10.3484600">
	<ele>1587.80</ele>
	<time>2025-04-29T08:25:09.000Z</time>
</trkpt>
<trkpt lat="45.8956450" lon="10.3484560">
	<ele>1588.00</ele>
	<time>2025-04-29T08:25:10.000Z</time>
</trkpt>
<trkpt lat="45.8956270" lon="10.3484410">
	<ele>1588.20</ele>
	<time>2025-04-29T08:25:11.000Z</time>
</trkpt>
<trkpt lat="45.8956240" lon="10.3484400">
	<ele>1588.20</ele>
	<time>2025-04-29T08:25:12.000Z</time>
</trkpt>
<trkpt lat="45.8956200" lon="10.3484310">
	<ele>1588.40</ele>
	<time>2025-04-29T08:25:13.000Z</time>
</trkpt>
<trkpt lat="45.8956160" lon="10.3484230">
	<ele>1588.40</ele>
	<time>2025-04-29T08:25:14.000Z</time>
</trkpt>
<trkpt lat="45.8956140" lon="10.3484220">
	<ele>1588.40</ele>
	<time>2025-04-29T08:25:15.000Z</time>
</trkpt>
<trkpt lat="45.8956090" lon="10.3484180">
	<ele>1588.40</ele>
	<time>2025-04-29T08:25:16.000Z</time>
</trkpt>
<trkpt lat="45.8956020" lon="10.3484170">
	<ele>1588.60</ele>
	<time>2025-04-29T08:25:17.000Z</time>
</trkpt>
<trkpt lat="45.8955940" lon="10.3484100">
	<ele>1588.60</ele>
	<time>2025-04-29T08:25:18.000Z</time>
</trkpt>
<trkpt lat="45.8955850" lon="10.3484010">
	<ele>1588.60</ele>
	<time>2025-04-29T08:25:19.000Z</time>
</trkpt>
<trkpt lat="45.8955780" lon="10.3483960">
	<ele>1588.80</ele>
	<time>2025-04-29T08:25:20.000Z</time>
</trkpt>
<trkpt lat="45.8955690" lon="10.3483880">
	<ele>1588.80</ele>
	<time>2025-04-29T08:25:21.000Z</time>
</trkpt>
<trkpt lat="45.8955620" lon="10.3483860">
	<ele>1589.00</ele>
	<time>2025-04-29T08:25:22.000Z</time>
</trkpt>
<trkpt lat="45.8955560" lon="10.3483870">
	<ele>1589.00</ele>
	<time>2025-04-29T08:25:23.000Z</time>
</trkpt>
<trkpt lat="45.8955490" lon="10.3483900">
	<ele>1589.20</ele>
	<time>2025-04-29T08:25:24.000Z</time>
</trkpt>
<trkpt lat="45.8955370" lon="10.3484020">
	<ele>1589.20</ele>
	<time>2025-04-29T08:25:25.000Z</time>
</trkpt>
<trkpt lat="45.8955240" lon="10.3483970">
	<ele>1589.40</ele>
	<time>2025-04-29T08:25:26.000Z</time>
</trkpt>
<trkpt lat="45.8955090" lon="10.3483750">
	<ele>1589.40</ele>
	<time>2025-04-29T08:25:27.000Z</time>
</trkpt>
<trkpt lat="45.8954860" lon="10.3483400">
	<ele>1589.60</ele>
	<time>2025-04-29T08:25:28.000Z</time>
</trkpt>
<trkpt lat="45.8954600" lon="10.3483000">
	<ele>1589.60</ele>
	<time>2025-04-29T08:25:29.000Z</time>
</trkpt>
<trkpt lat="45.8954360" lon="10.3482850">
	<ele>1589.80</ele>
	<time>2025-04-29T08:25:30.000Z</time>
</trkpt>
<trkpt lat="45.8954170" lon="10.3482820">
	<ele>1589.80</ele>
	<time>2025-04-29T08:25:31.000Z</time>
</trkpt>
<trkpt lat="45.8954060" lon="10.3482840">
	<ele>1590.00</ele>
	<time>2025-04-29T08:25:32.000Z</time>
</trkpt>
<trkpt lat="45.8954030" lon="10.3482830">
	<ele>1590.20</ele>
	<time>2025-04-29T08:25:33.000Z</time>
</trkpt>
<trkpt lat="45.8953950" lon="10.3482810">
	<ele>1590.20</ele>
	<time>2025-04-29T08:25:34.000Z</time>
</trkpt>
<trkpt lat="45.8953870" lon="10.3482780">
	<ele>1590.20</ele>
	<time>2025-04-29T08:25:35.000Z</time>
</trkpt>
<trkpt lat="45.8953830" lon="10.3482700">
	<ele>1590.40</ele>
	<time>2025-04-29T08:25:36.000Z</time>
</trkpt>
<trkpt lat="45.8953760" lon="10.3482620">
	<ele>1590.40</ele>
	<time>2025-04-29T08:25:37.000Z</time>
</trkpt>
<trkpt lat="45.8953700" lon="10.3482610">
	<ele>1590.40</ele>
	<time>2025-04-29T08:25:38.000Z</time>
</trkpt>
<trkpt lat="45.8953670" lon="10.3482640">
	<ele>1590.60</ele>
	<time>2025-04-29T08:25:39.000Z</time>
</trkpt>
<trkpt lat="45.8953600" lon="10.3482740">
	<ele>1590.60</ele>
	<time>2025-04-29T08:25:40.000Z</time>
</trkpt>
<trkpt lat="45.8953500" lon="10.3482740">
	<ele>1590.60</ele>
	<time>2025-04-29T08:25:41.000Z</time>
</trkpt>
<trkpt lat="45.8953330" lon="10.3482770">
	<ele>1590.80</ele>
	<time>2025-04-29T08:25:42.000Z</time>
</trkpt>
<trkpt lat="45.8953130" lon="10.3482740">
	<ele>1591.00</ele>
	<time>2025-04-29T08:25:43.000Z</time>
</trkpt>
<trkpt lat="45.8953040" lon="10.3482700">
	<ele>1591.00</ele>
	<time>2025-04-29T08:25:44.000Z</time>
</trkpt>
<trkpt lat="45.8952970" lon="10.3482760">
	<ele>1591.20</ele>
	<time>2025-04-29T08:25:45.000Z</time>
</trkpt>
<trkpt lat="45.8952880" lon="10.3482930">
	<ele>1591.20</ele>
	<time>2025-04-29T08:25:46.000Z</time>
</trkpt>
<trkpt lat="45.8952780" lon="10.3483060">
	<ele>1591.40</ele>
	<time>2025-04-29T08:25:47.000Z</time>
</trkpt>
<trkpt lat="45.8952670" lon="10.3483210">
	<ele>1591.60</ele>
	<time>2025-04-29T08:25:48.000Z</time>
</trkpt>
<trkpt lat="45.8952620" lon="10.3483190">
	<ele>1591.60</ele>
	<time>2025-04-29T08:25:49.000Z</time>
</trkpt>
<trkpt lat="45.8952600" lon="10.3483350">
	<ele>1591.80</ele>
	<time>2025-04-29T08:25:50.000Z</time>
</trkpt>
<trkpt lat="45.8952500" lon="10.3483500">
	<ele>1591.80</ele>
	<time>2025-04-29T08:25:51.000Z</time>
</trkpt>
<trkpt lat="45.8952360" lon="10.3483630">
	<ele>1592.00</ele>
	<time>2025-04-29T08:25:52.000Z</time>
</trkpt>
<trkpt lat="45.8952320" lon="10.3483760">
	<ele>1592.20</ele>
	<time>2025-04-29T08:25:53.000Z</time>
</trkpt>
<trkpt lat="45.8952200" lon="10.3483800">
	<ele>1592.20</ele>
	<time>2025-04-29T08:25:54.000Z</time>
</trkpt>
<trkpt lat="45.8952120" lon="10.3483850">
	<ele>1592.40</ele>
	<time>2025-04-29T08:25:55.000Z</time>
</trkpt>
<trkpt lat="45.8952040" lon="10.3483880">
	<ele>1592.40</ele>
	<time>2025-04-29T08:25:56.000Z</time>
</trkpt>
<trkpt lat="45.8951970" lon="10.3483790">
	<ele>1592.60</ele>
	<time>2025-04-29T08:25:57.000Z</time>
</trkpt>
<trkpt lat="45.8951890" lon="10.3483860">
	<ele>1592.80</ele>
	<time>2025-04-29T08:25:58.000Z</time>
</trkpt>
<trkpt lat="45.8951770" lon="10.3483970">
	<ele>1592.80</ele>
	<time>2025-04-29T08:25:59.000Z</time>
</trkpt>
<trkpt lat="45.8951690" lon="10.3484170">
	<ele>1593.00</ele>
	<time>2025-04-29T08:26:00.000Z</time>
</trkpt>
<trkpt lat="45.8951690" lon="10.3484400">
	<ele>1593.20</ele>
	<time>2025-04-29T08:26:01.000Z</time>
</trkpt>
<trkpt lat="45.8951640" lon="10.3484550">
	<ele>1593.40</ele>
	<time>2025-04-29T08:26:02.000Z</time>
</trkpt>
<trkpt lat="45.8951560" lon="10.3484670">
	<ele>1593.60</ele>
	<time>2025-04-29T08:26:03.000Z</time>
</trkpt>
<trkpt lat="45.8951350" lon="10.3484660">
	<ele>1593.60</ele>
	<time>2025-04-29T08:26:04.000Z</time>
</trkpt>
<trkpt lat="45.8951200" lon="10.3484710">
	<ele>1593.80</ele>
	<time>2025-04-29T08:26:05.000Z</time>
</trkpt>
<trkpt lat="45.8951170" lon="10.3484670">
	<ele>1594.00</ele>
	<time>2025-04-29T08:26:06.000Z</time>
</trkpt>
<trkpt lat="45.8951090" lon="10.3484740">
	<ele>1594.20</ele>
	<time>2025-04-29T08:26:07.000Z</time>
</trkpt>
<trkpt lat="45.8950950" lon="10.3484760">
	<ele>1594.20</ele>
	<time>2025-04-29T08:26:08.000Z</time>
</trkpt>
<trkpt lat="45.8950870" lon="10.3484840">
	<ele>1594.20</ele>
	<time>2025-04-29T08:26:09.000Z</time>
</trkpt>
<trkpt lat="45.8950800" lon="10.3484890">
	<ele>1594.40</ele>
	<time>2025-04-29T08:26:10.000Z</time>
</trkpt>
<trkpt lat="45.8950750" lon="10.3484920">
	<ele>1594.40</ele>
	<time>2025-04-29T08:26:11.000Z</time>
</trkpt>
<trkpt lat="45.8950680" lon="10.3484900">
	<ele>1594.60</ele>
	<time>2025-04-29T08:26:12.000Z</time>
</trkpt>
<trkpt lat="45.8950610" lon="10.3484900">
	<ele>1594.60</ele>
	<time>2025-04-29T08:26:13.000Z</time>
</trkpt>
<trkpt lat="45.8950510" lon="10.3484950">
	<ele>1594.80</ele>
	<time>2025-04-29T08:26:14.000Z</time>
</trkpt>
<trkpt lat="45.8950450" lon="10.3485030">
	<ele>1594.80</ele>
	<time>2025-04-29T08:26:15.000Z</time>
</trkpt>
<trkpt lat="45.8950380" lon="10.3485070">
	<ele>1595.00</ele>
	<time>2025-04-29T08:26:16.000Z</time>
</trkpt>
<trkpt lat="45.8950290" lon="10.3485060">
	<ele>1595.00</ele>
	<time>2025-04-29T08:26:17.000Z</time>
</trkpt>
<trkpt lat="45.8950160" lon="10.3484980">
	<ele>1595.40</ele>
	<time>2025-04-29T08:26:18.000Z</time>
</trkpt>
<trkpt lat="45.8950060" lon="10.3484950">
	<ele>1595.40</ele>
	<time>2025-04-29T08:26:19.000Z</time>
</trkpt>
<trkpt lat="45.8949920" lon="10.3484940">
	<ele>1595.60</ele>
	<time>2025-04-29T08:26:20.000Z</time>
</trkpt>
<trkpt lat="45.8949810" lon="10.3485030">
	<ele>1595.80</ele>
	<time>2025-04-29T08:26:21.000Z</time>
</trkpt>
<trkpt lat="45.8949750" lon="10.3485040">
	<ele>1596.00</ele>
	<time>2025-04-29T08:26:22.000Z</time>
</trkpt>
<trkpt lat="45.8949720" lon="10.3485070">
	<ele>1596.00</ele>
	<time>2025-04-29T08:26:23.000Z</time>
</trkpt>
<trkpt lat="45.8949710" lon="10.3485090">
	<ele>1596.40</ele>
	<time>2025-04-29T08:26:24.000Z</time>
</trkpt>
<trkpt lat="45.8949710" lon="10.3485110">
	<ele>1596.40</ele>
	<time>2025-04-29T08:26:25.000Z</time>
</trkpt>
<trkpt lat="45.8949710" lon="10.3485120">
	<ele>1596.40</ele>
	<time>2025-04-29T08:26:26.000Z</time>
</trkpt>
<trkpt lat="45.8949670" lon="10.3485110">
	<ele>1596.60</ele>
	<time>2025-04-29T08:26:27.000Z</time>
</trkpt>
<trkpt lat="45.8949650" lon="10.3485100">
	<ele>1596.60</ele>
	<time>2025-04-29T08:26:28.000Z</time>
</trkpt>
<trkpt lat="45.8949630" lon="10.3485110">
	<ele>1596.60</ele>
	<time>2025-04-29T08:26:29.000Z</time>
</trkpt>
<trkpt lat="45.8949620" lon="10.3485110">
	<ele>1596.60</ele>
	<time>2025-04-29T08:26:30.000Z</time>
</trkpt>
<trkpt lat="45.8949610" lon="10.3485130">
	<ele>1596.80</ele>
	<time>2025-04-29T08:26:31.000Z</time>
</trkpt>
<trkpt lat="45.8949610" lon="10.3485150">
	<ele>1596.80</ele>
	<time>2025-04-29T08:26:32.000Z</time>
</trkpt>
<trkpt lat="45.8949600" lon="10.3485170">
	<ele>1597.00</ele>
	<time>2025-04-29T08:26:33.000Z</time>
</trkpt>
<trkpt lat="45.8949600" lon="10.3485180">
	<ele>1597.00</ele>
	<time>2025-04-29T08:26:34.000Z</time>
</trkpt>
<trkpt lat="45.8949590" lon="10.3485180">
	<ele>1597.00</ele>
	<time>2025-04-29T08:26:35.000Z</time>
</trkpt>
<trkpt lat="45.8949590" lon="10.3485180">
	<ele>1597.00</ele>
	<time>2025-04-29T08:26:36.000Z</time>
</trkpt>
<trkpt lat="45.8949590" lon="10.3485180">
	<ele>1597.00</ele>
	<time>2025-04-29T08:26:37.000Z</time>
</trkpt>
<trkpt lat="45.8949590" lon="10.3485180">
	<ele>1597.00</ele>
	<time>2025-04-29T08:26:38.000Z</time>
</trkpt>
<trkpt lat="45.8949590" lon="10.3485180">
	<ele>1596.80</ele>
	<time>2025-04-29T08:26:39.000Z</time>
</trkpt>
<trkpt lat="45.8949590" lon="10.3485180">
	<ele>1596.80</ele>
	<time>2025-04-29T08:26:40.000Z</time>
</trkpt>
<trkpt lat="45.8949590" lon="10.3485180">
	<ele>1596.60</ele>
	<time>2025-04-29T08:26:41.000Z</time>
</trkpt>
<trkpt lat="45.8949590" lon="10.3485180">
	<ele>1596.60</ele>
	<time>2025-04-29T08:26:42.000Z</time>
</trkpt>
<trkpt lat="45.8949600" lon="10.3485180">
	<ele>1596.60</ele>
	<time>2025-04-29T08:26:43.000Z</time>
</trkpt>
<trkpt lat="45.8949600" lon="10.3485180">
	<ele>1596.60</ele>
	<time>2025-04-29T08:26:44.000Z</time>
</trkpt>
<trkpt lat="45.8949600" lon="10.3485180">
	<ele>1596.60</ele>
	<time>2025-04-29T08:26:45.000Z</time>
</trkpt>
<trkpt lat="45.8949610" lon="10.3485180">
	<ele>1596.60</ele>
	<time>2025-04-29T08:26:46.000Z</time>
</trkpt>
<trkpt lat="45.8949610" lon="10.3485170">
	<ele>1596.60</ele>
	<time>2025-04-29T08:26:47.000Z</time>
</trkpt>
<trkpt lat="45.8949610" lon="10.3485170">
	<ele>1596.60</ele>
	<time>2025-04-29T08:26:48.000Z</time>
</trkpt>
<trkpt lat="45.8949620" lon="10.3485170">
	<ele>1596.60</ele>
	<time>2025-04-29T08:26:49.000Z</time>
</trkpt>
<trkpt lat="45.8949630" lon="10.3485170">
	<ele>1596.60</ele>
	<time>2025-04-29T08:26:50.000Z</time>
</trkpt>
<trkpt lat="45.8949640" lon="10.3485170">
	<ele>1596.60</ele>
	<time>2025-04-29T08:26:51.000Z</time>
</trkpt>
<trkpt lat="45.8949650" lon="10.3485170">
	<ele>1596.60</ele>
	<time>2025-04-29T08:26:52.000Z</time>
</trkpt>
<trkpt lat="45.8949670" lon="10.3485170">
	<ele>1596.60</ele>
	<time>2025-04-29T08:26:53.000Z</time>
</trkpt>
<trkpt lat="45.8949670" lon="10.3485170">
	<ele>1596.40</ele>
	<time>2025-04-29T08:26:54.000Z</time>
</trkpt>
<trkpt lat="45.8949700" lon="10.3485160">
	<ele>1596.40</ele>
	<time>2025-04-29T08:26:55.000Z</time>
</trkpt>
<trkpt lat="45.8949730" lon="10.3485160">
	<ele>1596.60</ele>
	<time>2025-04-29T08:26:56.000Z</time>
</trkpt>
<trkpt lat="45.8949790" lon="10.3485160">
	<ele>1596.60</ele>
	<time>2025-04-29T08:26:57.000Z</time>
</trkpt>
<trkpt lat="45.8949820" lon="10.3485160">
	<ele>1596.60</ele>
	<time>2025-04-29T08:26:58.000Z</time>
</trkpt>
<trkpt lat="45.8949820" lon="10.3485160">
	<ele>1596.60</ele>
	<time>2025-04-29T08:26:59.000Z</time>
</trkpt>
<trkpt lat="45.8949820" lon="10.3485160">
	<ele>1596.60</ele>
	<time>2025-04-29T08:27:00.000Z</time>
</trkpt>
<trkpt lat="45.8949820" lon="10.3485160">
	<ele>1596.60</ele>
	<time>2025-04-29T08:27:01.000Z</time>
</trkpt>
<trkpt lat="45.8949820" lon="10.3485160">
	<ele>1596.60</ele>
	<time>2025-04-29T08:27:02.000Z</time>
</trkpt>
<trkpt lat="45.8949820" lon="10.3485150">
	<ele>1596.60</ele>
	<time>2025-04-29T08:27:03.000Z</time>
</trkpt>
<trkpt lat="45.8949820" lon="10.3485150">
	<ele>1596.60</ele>
	<time>2025-04-29T08:27:04.000Z</time>
</trkpt>
<trkpt lat="45.8949820" lon="10.3485140">
	<ele>1596.60</ele>
	<time>2025-04-29T08:27:05.000Z</time>
</trkpt>
<trkpt lat="45.8949820" lon="10.3485140">
	<ele>1596.40</ele>
	<time>2025-04-29T08:27:06.000Z</time>
</trkpt>
<trkpt lat="45.8949820" lon="10.3485130">
	<ele>1596.60</ele>
	<time>2025-04-29T08:27:07.000Z</time>
</trkpt>
<trkpt lat="45.8949830" lon="10.3485120">
	<ele>1596.60</ele>
	<time>2025-04-29T08:27:08.000Z</time>
</trkpt>
<trkpt lat="45.8949830" lon="10.3485120">
	<ele>1596.60</ele>
	<time>2025-04-29T08:27:09.000Z</time>
</trkpt>
<trkpt lat="45.8949840" lon="10.3485120">
	<ele>1596.60</ele>
	<time>2025-04-29T08:27:10.000Z</time>
</trkpt>
<trkpt lat="45.8949870" lon="10.3485160">
	<ele>1596.60</ele>
	<time>2025-04-29T08:27:11.000Z</time>
</trkpt>
<trkpt lat="45.8949940" lon="10.3485350">
	<ele>1596.60</ele>
	<time>2025-04-29T08:27:12.000Z</time>
</trkpt>
<trkpt lat="45.8950020" lon="10.3485550">
	<ele>1596.60</ele>
	<time>2025-04-29T08:27:13.000Z</time>
</trkpt>
<trkpt lat="45.8950080" lon="10.3485740">
	<ele>1596.60</ele>
	<time>2025-04-29T08:27:14.000Z</time>
</trkpt>
<trkpt lat="45.8950130" lon="10.3485880">
	<ele>1596.60</ele>
	<time>2025-04-29T08:27:15.000Z</time>
</trkpt>
<trkpt lat="45.8950170" lon="10.3486020">
	<ele>1596.60</ele>
	<time>2025-04-29T08:27:16.000Z</time>
</trkpt>
<trkpt lat="45.8950220" lon="10.3486160">
	<ele>1596.60</ele>
	<time>2025-04-29T08:27:17.000Z</time>
</trkpt>
<trkpt lat="45.8950300" lon="10.3486300">
	<ele>1596.80</ele>
	<time>2025-04-29T08:27:18.000Z</time>
</trkpt>
<trkpt lat="45.8950350" lon="10.3486460">
	<ele>1597.00</ele>
	<time>2025-04-29T08:27:19.000Z</time>
</trkpt>
<trkpt lat="45.8950430" lon="10.3486630">
	<ele>1597.20</ele>
	<time>2025-04-29T08:27:20.000Z</time>
</trkpt>
<trkpt lat="45.8950490" lon="10.3486750">
	<ele>1597.40</ele>
	<time>2025-04-29T08:27:21.000Z</time>
</trkpt>
<trkpt lat="45.8950570" lon="10.3486850">
	<ele>1597.40</ele>
	<time>2025-04-29T08:27:22.000Z</time>
</trkpt>
<trkpt lat="45.8950650" lon="10.3486920">
	<ele>1597.60</ele>
	<time>2025-04-29T08:27:23.000Z</time>
</trkpt>
<trkpt lat="45.8950720" lon="10.3486970">
	<ele>1597.80</ele>
	<time>2025-04-29T08:27:24.000Z</time>
</trkpt>
<trkpt lat="45.8950800" lon="10.3487040">
	<ele>1598.00</ele>
	<time>2025-04-29T08:27:25.000Z</time>
</trkpt>
<trkpt lat="45.8950880" lon="10.3487040">
	<ele>1598.20</ele>
	<time>2025-04-29T08:27:26.000Z</time>
</trkpt>
<trkpt lat="45.8950980" lon="10.3487030">
	<ele>1598.20</ele>
	<time>2025-04-29T08:27:27.000Z</time>
</trkpt>
<trkpt lat="45.8951070" lon="10.3487060">
	<ele>1598.40</ele>
	<time>2025-04-29T08:27:28.000Z</time>
</trkpt>
<trkpt lat="45.8951200" lon="10.3487130">
	<ele>1598.40</ele>
	<time>2025-04-29T08:27:29.000Z</time>
</trkpt>
<trkpt lat="45.8951240" lon="10.3487160">
	<ele>1598.80</ele>
	<time>2025-04-29T08:27:30.000Z</time>
</trkpt>
<trkpt lat="45.8951260" lon="10.3487190">
	<ele>1598.80</ele>
	<time>2025-04-29T08:27:31.000Z</time>
</trkpt>
<trkpt lat="45.8951270" lon="10.3487180">
	<ele>1598.80</ele>
	<time>2025-04-29T08:27:32.000Z</time>
</trkpt>
<trkpt lat="45.8951370" lon="10.3487170">
	<ele>1599.00</ele>
	<time>2025-04-29T08:27:33.000Z</time>
</trkpt>
<trkpt lat="45.8951430" lon="10.3487340">
	<ele>1598.80</ele>
	<time>2025-04-29T08:27:34.000Z</time>
</trkpt>
<trkpt lat="45.8951460" lon="10.3487470">
	<ele>1598.80</ele>
	<time>2025-04-29T08:27:35.000Z</time>
</trkpt>
<trkpt lat="45.8951480" lon="10.3487610">
	<ele>1598.80</ele>
	<time>2025-04-29T08:27:36.000Z</time>
</trkpt>
<trkpt lat="45.8951480" lon="10.3487770">
	<ele>1598.80</ele>
	<time>2025-04-29T08:27:37.000Z</time>
</trkpt>
<trkpt lat="45.8951530" lon="10.3487890">
	<ele>1598.80</ele>
	<time>2025-04-29T08:27:38.000Z</time>
</trkpt>
<trkpt lat="45.8951610" lon="10.3487980">
	<ele>1598.80</ele>
	<time>2025-04-29T08:27:39.000Z</time>
</trkpt>
<trkpt lat="45.8951720" lon="10.3488070">
	<ele>1598.80</ele>
	<time>2025-04-29T08:27:40.000Z</time>
</trkpt>
<trkpt lat="45.8951830" lon="10.3488120">
	<ele>1599.00</ele>
	<time>2025-04-29T08:27:41.000Z</time>
</trkpt>
<trkpt lat="45.8951980" lon="10.3488170">
	<ele>1599.00</ele>
	<time>2025-04-29T08:27:42.000Z</time>
</trkpt>
<trkpt lat="45.8952140" lon="10.3488220">
	<ele>1599.20</ele>
	<time>2025-04-29T08:27:43.000Z</time>
</trkpt>
<trkpt lat="45.8952210" lon="10.3488330">
	<ele>1599.40</ele>
	<time>2025-04-29T08:27:44.000Z</time>
</trkpt>
<trkpt lat="45.8952200" lon="10.3488540">
	<ele>1599.60</ele>
	<time>2025-04-29T08:27:45.000Z</time>
</trkpt>
<trkpt lat="45.8952160" lon="10.3488770">
	<ele>1599.80</ele>
	<time>2025-04-29T08:27:46.000Z</time>
</trkpt>
<trkpt lat="45.8952120" lon="10.3488980">
	<ele>1599.80</ele>
	<time>2025-04-29T08:27:47.000Z</time>
</trkpt>
<trkpt lat="45.8952150" lon="10.3489220">
	<ele>1599.80</ele>
	<time>2025-04-29T08:27:48.000Z</time>
</trkpt>
<trkpt lat="45.8952220" lon="10.3489380">
	<ele>1599.80</ele>
	<time>2025-04-29T08:27:49.000Z</time>
</trkpt>
<trkpt lat="45.8952310" lon="10.3489400">
	<ele>1599.80</ele>
	<time>2025-04-29T08:27:50.000Z</time>
</trkpt>
<trkpt lat="45.8952410" lon="10.3489430">
	<ele>1599.80</ele>
	<time>2025-04-29T08:27:51.000Z</time>
</trkpt>
<trkpt lat="45.8952470" lon="10.3489460">
	<ele>1599.80</ele>
	<time>2025-04-29T08:27:52.000Z</time>
</trkpt>
<trkpt lat="45.8952520" lon="10.3489470">
	<ele>1599.60</ele>
	<time>2025-04-29T08:27:53.000Z</time>
</trkpt>
<trkpt lat="45.8952560" lon="10.3489450">
	<ele>1599.60</ele>
	<time>2025-04-29T08:27:54.000Z</time>
</trkpt>
<trkpt lat="45.8952600" lon="10.3489490">
	<ele>1599.60</ele>
	<time>2025-04-29T08:27:55.000Z</time>
</trkpt>
<trkpt lat="45.8952590" lon="10.3489560">
	<ele>1599.60</ele>
	<time>2025-04-29T08:27:56.000Z</time>
</trkpt>
<trkpt lat="45.8952600" lon="10.3489660">
	<ele>1599.60</ele>
	<time>2025-04-29T08:27:57.000Z</time>
</trkpt>
<trkpt lat="45.8952640" lon="10.3489700">
	<ele>1599.60</ele>
	<time>2025-04-29T08:27:58.000Z</time>
</trkpt>
<trkpt lat="45.8952660" lon="10.3489730">
	<ele>1599.60</ele>
	<time>2025-04-29T08:27:59.000Z</time>
</trkpt>
<trkpt lat="45.8952670" lon="10.3489900">
	<ele>1599.60</ele>
	<time>2025-04-29T08:28:00.000Z</time>
</trkpt>
<trkpt lat="45.8952680" lon="10.3490010">
	<ele>1599.60</ele>
	<time>2025-04-29T08:28:01.000Z</time>
</trkpt>
<trkpt lat="45.8952770" lon="10.3490070">
	<ele>1599.60</ele>
	<time>2025-04-29T08:28:02.000Z</time>
</trkpt>
<trkpt lat="45.8952840" lon="10.3490130">
	<ele>1599.60</ele>
	<time>2025-04-29T08:28:03.000Z</time>
</trkpt>
<trkpt lat="45.8952860" lon="10.3490170">
	<ele>1599.60</ele>
	<time>2025-04-29T08:28:04.000Z</time>
</trkpt>
<trkpt lat="45.8952850" lon="10.3490200">
	<ele>1599.80</ele>
	<time>2025-04-29T08:28:05.000Z</time>
</trkpt>
<trkpt lat="45.8952840" lon="10.3490220">
	<ele>1599.80</ele>
	<time>2025-04-29T08:28:06.000Z</time>
</trkpt>
<trkpt lat="45.8952840" lon="10.3490240">
	<ele>1599.80</ele>
	<time>2025-04-29T08:28:07.000Z</time>
</trkpt>
<trkpt lat="45.8952830" lon="10.3490240">
	<ele>1599.80</ele>
	<time>2025-04-29T08:28:08.000Z</time>
</trkpt>
<trkpt lat="45.8952820" lon="10.3490250">
	<ele>1599.80</ele>
	<time>2025-04-29T08:28:09.000Z</time>
</trkpt>
<trkpt lat="45.8952820" lon="10.3490250">
	<ele>1599.80</ele>
	<time>2025-04-29T08:28:10.000Z</time>
</trkpt>
<trkpt lat="45.8952820" lon="10.3490240">
	<ele>1599.80</ele>
	<time>2025-04-29T08:28:11.000Z</time>
</trkpt>
<trkpt lat="45.8952820" lon="10.3490230">
	<ele>1599.80</ele>
	<time>2025-04-29T08:28:12.000Z</time>
</trkpt>
<trkpt lat="45.8952810" lon="10.3490220">
	<ele>1599.60</ele>
	<time>2025-04-29T08:28:13.000Z</time>
</trkpt>
<trkpt lat="45.8952820" lon="10.3490220">
	<ele>1599.60</ele>
	<time>2025-04-29T08:28:14.000Z</time>
</trkpt>
<trkpt lat="45.8952820" lon="10.3490220">
	<ele>1599.60</ele>
	<time>2025-04-29T08:28:15.000Z</time>
</trkpt>
<trkpt lat="45.8952820" lon="10.3490220">
	<ele>1599.60</ele>
	<time>2025-04-29T08:28:16.000Z</time>
</trkpt>
<trkpt lat="45.8952820" lon="10.3490220">
	<ele>1599.60</ele>
	<time>2025-04-29T08:28:17.000Z</time>
</trkpt>
<trkpt lat="45.8952820" lon="10.3490220">
	<ele>1599.60</ele>
	<time>2025-04-29T08:28:18.000Z</time>
</trkpt>
<trkpt lat="45.8952820" lon="10.3490220">
	<ele>1599.60</ele>
	<time>2025-04-29T08:28:19.000Z</time>
</trkpt>
<trkpt lat="45.8952820" lon="10.3490220">
	<ele>1599.60</ele>
	<time>2025-04-29T08:28:20.000Z</time>
</trkpt>
<trkpt lat="45.8952820" lon="10.3490220">
	<ele>1599.40</ele>
	<time>2025-04-29T08:28:21.000Z</time>
</trkpt>
<trkpt lat="45.8952820" lon="10.3490220">
	<ele>1599.40</ele>
	<time>2025-04-29T08:28:22.000Z</time>
</trkpt>
<trkpt lat="45.8952820" lon="10.3490220">
	<ele>1599.40</ele>
	<time>2025-04-29T08:28:23.000Z</time>
</trkpt>
<trkpt lat="45.8952820" lon="10.3490220">
	<ele>1599.20</ele>
	<time>2025-04-29T08:28:24.000Z</time>
</trkpt>
<trkpt lat="45.8952820" lon="10.3490220">
	<ele>1599.20</ele>
	<time>2025-04-29T08:28:25.000Z</time>
</trkpt>
<trkpt lat="45.8952820" lon="10.3490220">
	<ele>1599.20</ele>
	<time>2025-04-29T08:28:26.000Z</time>
</trkpt>
<trkpt lat="45.8952820" lon="10.3490220">
	<ele>1599.40</ele>
	<time>2025-04-29T08:28:27.000Z</time>
</trkpt>
<trkpt lat="45.8952820" lon="10.3490220">
	<ele>1599.40</ele>
	<time>2025-04-29T08:28:28.000Z</time>
</trkpt>
<trkpt lat="45.8952820" lon="10.3490220">
	<ele>1599.40</ele>
	<time>2025-04-29T08:28:29.000Z</time>
</trkpt>
<trkpt lat="45.8952810" lon="10.3490220">
	<ele>1599.40</ele>
	<time>2025-04-29T08:28:30.000Z</time>
</trkpt>
<trkpt lat="45.8952810" lon="10.3490220">
	<ele>1599.40</ele>
	<time>2025-04-29T08:28:31.000Z</time>
</trkpt>
<trkpt lat="45.8952800" lon="10.3490220">
	<ele>1599.40</ele>
	<time>2025-04-29T08:28:32.000Z</time>
</trkpt>
<trkpt lat="45.8952760" lon="10.3490180">
	<ele>1599.40</ele>
	<time>2025-04-29T08:28:33.000Z</time>
</trkpt>
<trkpt lat="45.8952740" lon="10.3490110">
	<ele>1599.40</ele>
	<time>2025-04-29T08:28:34.000Z</time>
</trkpt>
<trkpt lat="45.8952610" lon="10.3489830">
	<ele>1599.40</ele>
	<time>2025-04-29T08:28:35.000Z</time>
</trkpt>
<trkpt lat="45.8952490" lon="10.3489530">
	<ele>1599.40</ele>
	<time>2025-04-29T08:28:36.000Z</time>
</trkpt>
<trkpt lat="45.8952350" lon="10.3489280">
	<ele>1599.40</ele>
	<time>2025-04-29T08:28:37.000Z</time>
</trkpt>
<trkpt lat="45.8952230" lon="10.3489090">
	<ele>1599.40</ele>
	<time>2025-04-29T08:28:38.000Z</time>
</trkpt>
<trkpt lat="45.8952130" lon="10.3488900">
	<ele>1599.60</ele>
	<time>2025-04-29T08:28:39.000Z</time>
</trkpt>
<trkpt lat="45.8952030" lon="10.3488670">
	<ele>1599.60</ele>
	<time>2025-04-29T08:28:40.000Z</time>
</trkpt>
<trkpt lat="45.8951930" lon="10.3488470">
	<ele>1599.60</ele>
	<time>2025-04-29T08:28:41.000Z</time>
</trkpt>
<trkpt lat="45.8951810" lon="10.3488320">
	<ele>1599.60</ele>
	<time>2025-04-29T08:28:42.000Z</time>
</trkpt>
<trkpt lat="45.8951660" lon="10.3488160">
	<ele>1599.60</ele>
	<time>2025-04-29T08:28:43.000Z</time>
</trkpt>
<trkpt lat="45.8951510" lon="10.3488080">
	<ele>1599.60</ele>
	<time>2025-04-29T08:28:44.000Z</time>
</trkpt>
<trkpt lat="45.8951350" lon="10.3487940">
	<ele>1599.60</ele>
	<time>2025-04-29T08:28:45.000Z</time>
</trkpt>
<trkpt lat="45.8951160" lon="10.3487760">
	<ele>1599.60</ele>
	<time>2025-04-29T08:28:46.000Z</time>
</trkpt>
<trkpt lat="45.8951020" lon="10.3487590">
	<ele>1599.60</ele>
	<time>2025-04-29T08:28:47.000Z</time>
</trkpt>
<trkpt lat="45.8950880" lon="10.3487490">
	<ele>1599.60</ele>
	<time>2025-04-29T08:28:48.000Z</time>
</trkpt>
<trkpt lat="45.8950760" lon="10.3487400">
	<ele>1599.60</ele>
	<time>2025-04-29T08:28:49.000Z</time>
</trkpt>
<trkpt lat="45.8950650" lon="10.3487370">
	<ele>1599.60</ele>
	<time>2025-04-29T08:28:50.000Z</time>
</trkpt>
<trkpt lat="45.8950550" lon="10.3487300">
	<ele>1599.60</ele>
	<time>2025-04-29T08:28:51.000Z</time>
</trkpt>
<trkpt lat="45.8950440" lon="10.3487170">
	<ele>1599.80</ele>
	<time>2025-04-29T08:28:52.000Z</time>
</trkpt>
<trkpt lat="45.8950360" lon="10.3487070">
	<ele>1599.80</ele>
	<time>2025-04-29T08:28:53.000Z</time>
</trkpt>
<trkpt lat="45.8950320" lon="10.3487090">
	<ele>1600.00</ele>
	<time>2025-04-29T08:28:54.000Z</time>
</trkpt>
<trkpt lat="45.8950310" lon="10.3487240">
	<ele>1600.20</ele>
	<time>2025-04-29T08:28:55.000Z</time>
</trkpt>
<trkpt lat="45.8950300" lon="10.3487400">
	<ele>1600.40</ele>
	<time>2025-04-29T08:28:56.000Z</time>
</trkpt>
<trkpt lat="45.8950290" lon="10.3487530">
	<ele>1600.60</ele>
	<time>2025-04-29T08:28:57.000Z</time>
</trkpt>
<trkpt lat="45.8950270" lon="10.3487610">
	<ele>1600.80</ele>
	<time>2025-04-29T08:28:58.000Z</time>
</trkpt>
<trkpt lat="45.8950350" lon="10.3487720">
	<ele>1601.00</ele>
	<time>2025-04-29T08:28:59.000Z</time>
</trkpt>
<trkpt lat="45.8950400" lon="10.3487790">
	<ele>1601.20</ele>
	<time>2025-04-29T08:29:00.000Z</time>
</trkpt>
<trkpt lat="45.8950390" lon="10.3487860">
	<ele>1601.60</ele>
	<time>2025-04-29T08:29:01.000Z</time>
</trkpt>
<trkpt lat="45.8950380" lon="10.3487900">
	<ele>1601.60</ele>
	<time>2025-04-29T08:29:02.000Z</time>
</trkpt>
<trkpt lat="45.8950370" lon="10.3487910">
	<ele>1602.00</ele>
	<time>2025-04-29T08:29:03.000Z</time>
</trkpt>
<trkpt lat="45.8950370" lon="10.3487930">
	<ele>1602.20</ele>
	<time>2025-04-29T08:29:04.000Z</time>
</trkpt>
<trkpt lat="45.8950380" lon="10.3487910">
	<ele>1602.40</ele>
	<time>2025-04-29T08:29:05.000Z</time>
</trkpt>
<trkpt lat="45.8950390" lon="10.3487900">
	<ele>1602.60</ele>
	<time>2025-04-29T08:29:06.000Z</time>
</trkpt>
<trkpt lat="45.8950400" lon="10.3487890">
	<ele>1602.60</ele>
	<time>2025-04-29T08:29:07.000Z</time>
</trkpt>
<trkpt lat="45.8950410" lon="10.3487890">
	<ele>1602.60</ele>
	<time>2025-04-29T08:29:08.000Z</time>
</trkpt>
<trkpt lat="45.8950410" lon="10.3487900">
	<ele>1602.60</ele>
	<time>2025-04-29T08:29:09.000Z</time>
</trkpt>
<trkpt lat="45.8950440" lon="10.3487910">
	<ele>1602.60</ele>
	<time>2025-04-29T08:29:10.000Z</time>
</trkpt>
<trkpt lat="45.8950460" lon="10.3487900">
	<ele>1602.40</ele>
	<time>2025-04-29T08:29:11.000Z</time>
</trkpt>
<trkpt lat="45.8950460" lon="10.3487900">
	<ele>1602.40</ele>
	<time>2025-04-29T08:29:12.000Z</time>
</trkpt>
<trkpt lat="45.8950460" lon="10.3487900">
	<ele>1602.20</ele>
	<time>2025-04-29T08:29:13.000Z</time>
</trkpt>
<trkpt lat="45.8950460" lon="10.3487900">
	<ele>1602.00</ele>
	<time>2025-04-29T08:29:14.000Z</time>
</trkpt>
<trkpt lat="45.8950460" lon="10.3487900">
	<ele>1602.00</ele>
	<time>2025-04-29T08:29:15.000Z</time>
</trkpt>
<trkpt lat="45.8950460" lon="10.3487900">
	<ele>1601.80</ele>
	<time>2025-04-29T08:29:16.000Z</time>
</trkpt>
<trkpt lat="45.8950460" lon="10.3487900">
	<ele>1601.80</ele>
	<time>2025-04-29T08:29:17.000Z</time>
</trkpt>
<trkpt lat="45.8950460" lon="10.3487900">
	<ele>1601.80</ele>
	<time>2025-04-29T08:29:18.000Z</time>
</trkpt>
<trkpt lat="45.8950460" lon="10.3487900">
	<ele>1601.80</ele>
	<time>2025-04-29T08:29:19.000Z</time>
</trkpt>
<trkpt lat="45.8950460" lon="10.3487900">
	<ele>1601.60</ele>
	<time>2025-04-29T08:29:20.000Z</time>
</trkpt>
<trkpt lat="45.8950460" lon="10.3487900">
	<ele>1601.80</ele>
	<time>2025-04-29T08:29:21.000Z</time>
</trkpt>
<trkpt lat="45.8950460" lon="10.3487900">
	<ele>1601.80</ele>
	<time>2025-04-29T08:29:22.000Z</time>
</trkpt>
<trkpt lat="45.8950460" lon="10.3487900">
	<ele>1601.80</ele>
	<time>2025-04-29T08:29:23.000Z</time>
</trkpt>
<trkpt lat="45.8950460" lon="10.3487900">
	<ele>1601.60</ele>
	<time>2025-04-29T08:29:24.000Z</time>
</trkpt>
<trkpt lat="45.8950460" lon="10.3487900">
	<ele>1601.60</ele>
	<time>2025-04-29T08:29:25.000Z</time>
</trkpt>
<trkpt lat="45.8950460" lon="10.3487900">
	<ele>1601.40</ele>
	<time>2025-04-29T08:29:26.000Z</time>
</trkpt>
<trkpt lat="45.8950460" lon="10.3487900">
	<ele>1601.40</ele>
	<time>2025-04-29T08:29:27.000Z</time>
</trkpt>
<trkpt lat="45.8950470" lon="10.3487900">
	<ele>1601.20</ele>
	<time>2025-04-29T08:29:28.000Z</time>
</trkpt>
<trkpt lat="45.8950480" lon="10.3487890">
	<ele>1601.00</ele>
	<time>2025-04-29T08:29:29.000Z</time>
</trkpt>
<trkpt lat="45.8950480" lon="10.3487890">
	<ele>1601.00</ele>
	<time>2025-04-29T08:29:30.000Z</time>
</trkpt>
<trkpt lat="45.8950480" lon="10.3487880">
	<ele>1601.00</ele>
	<time>2025-04-29T08:29:31.000Z</time>
</trkpt>
<trkpt lat="45.8950480" lon="10.3487870">
	<ele>1600.80</ele>
	<time>2025-04-29T08:29:32.000Z</time>
</trkpt>
<trkpt lat="45.8950480" lon="10.3487860">
	<ele>1600.60</ele>
	<time>2025-04-29T08:29:33.000Z</time>
</trkpt>
<trkpt lat="45.8950500" lon="10.3487860">
	<ele>1600.60</ele>
	<time>2025-04-29T08:29:34.000Z</time>
</trkpt>
<trkpt lat="45.8950510" lon="10.3487860">
	<ele>1600.40</ele>
	<time>2025-04-29T08:29:35.000Z</time>
</trkpt>
<trkpt lat="45.8950580" lon="10.3487840">
	<ele>1600.20</ele>
	<time>2025-04-29T08:29:36.000Z</time>
</trkpt>
<trkpt lat="45.8950790" lon="10.3487780">
	<ele>1600.20</ele>
	<time>2025-04-29T08:29:37.000Z</time>
</trkpt>
<trkpt lat="45.8950970" lon="10.3487690">
	<ele>1600.00</ele>
	<time>2025-04-29T08:29:38.000Z</time>
</trkpt>
<trkpt lat="45.8951130" lon="10.3487570">
	<ele>1600.00</ele>
	<time>2025-04-29T08:29:39.000Z</time>
</trkpt>
<trkpt lat="45.8951300" lon="10.3487480">
	<ele>1599.80</ele>
	<time>2025-04-29T08:29:40.000Z</time>
</trkpt>
<trkpt lat="45.8951460" lon="10.3487460">
	<ele>1599.80</ele>
	<time>2025-04-29T08:29:41.000Z</time>
</trkpt>
<trkpt lat="45.8951660" lon="10.3487530">
	<ele>1599.60</ele>
	<time>2025-04-29T08:29:42.000Z</time>
</trkpt>
<trkpt lat="45.8951780" lon="10.3487620">
	<ele>1599.60</ele>
	<time>2025-04-29T08:29:43.000Z</time>
</trkpt>
<trkpt lat="45.8951880" lon="10.3487790">
	<ele>1599.60</ele>
	<time>2025-04-29T08:29:44.000Z</time>
</trkpt>
<trkpt lat="45.8951990" lon="10.3487970">
	<ele>1599.60</ele>
	<time>2025-04-29T08:29:45.000Z</time>
</trkpt>
<trkpt lat="45.8952060" lon="10.3488110">
	<ele>1599.80</ele>
	<time>2025-04-29T08:29:46.000Z</time>
</trkpt>
<trkpt lat="45.8952420" lon="10.3488050">
	<ele>1599.80</ele>
	<time>2025-04-29T08:29:47.000Z</time>
</trkpt>
<trkpt lat="45.8952660" lon="10.3488070">
	<ele>1599.80</ele>
	<time>2025-04-29T08:29:48.000Z</time>
</trkpt>
<trkpt lat="45.8952790" lon="10.3488160">
	<ele>1599.80</ele>
	<time>2025-04-29T08:29:49.000Z</time>
</trkpt>
<trkpt lat="45.8952950" lon="10.3488190">
	<ele>1600.00</ele>
	<time>2025-04-29T08:29:50.000Z</time>
</trkpt>
<trkpt lat="45.8953020" lon="10.3488170">
	<ele>1600.00</ele>
	<time>2025-04-29T08:29:51.000Z</time>
</trkpt>
<trkpt lat="45.8952960" lon="10.3488130">
	<ele>1600.00</ele>
	<time>2025-04-29T08:29:52.000Z</time>
</trkpt>
<trkpt lat="45.8952850" lon="10.3488070">
	<ele>1600.00</ele>
	<time>2025-04-29T08:29:53.000Z</time>
</trkpt>
<trkpt lat="45.8952490" lon="10.3488110">
	<ele>1600.20</ele>
	<time>2025-04-29T08:29:54.000Z</time>
</trkpt>
<trkpt lat="45.8952410" lon="10.3488070">
	<ele>1600.20</ele>
	<time>2025-04-29T08:29:55.000Z</time>
</trkpt>
<trkpt lat="45.8952410" lon="10.3488090">
	<ele>1600.20</ele>
	<time>2025-04-29T08:29:56.000Z</time>
</trkpt>
<trkpt lat="45.8952380" lon="10.3488120">
	<ele>1600.20</ele>
	<time>2025-04-29T08:29:57.000Z</time>
</trkpt>
<trkpt lat="45.8952270" lon="10.3488110">
	<ele>1600.20</ele>
	<time>2025-04-29T08:29:58.000Z</time>
</trkpt>
<trkpt lat="45.8952130" lon="10.3488090">
	<ele>1600.20</ele>
	<time>2025-04-29T08:29:59.000Z</time>
</trkpt>
<trkpt lat="45.8952130" lon="10.3488050">
	<ele>1600.00</ele>
	<time>2025-04-29T08:30:00.000Z</time>
</trkpt>
<trkpt lat="45.8952380" lon="10.3488130">
	<ele>1600.00</ele>
	<time>2025-04-29T08:30:01.000Z</time>
</trkpt>
<trkpt lat="45.8952630" lon="10.3488170">
	<ele>1600.00</ele>
	<time>2025-04-29T08:30:02.000Z</time>
</trkpt>
<trkpt lat="45.8952770" lon="10.3488180">
	<ele>1600.00</ele>
	<time>2025-04-29T08:30:03.000Z</time>
</trkpt>
<trkpt lat="45.8952870" lon="10.3488180">
	<ele>1599.80</ele>
	<time>2025-04-29T08:30:04.000Z</time>
</trkpt>
<trkpt lat="45.8952820" lon="10.3488180">
	<ele>1599.80</ele>
	<time>2025-04-29T08:30:05.000Z</time>
</trkpt>
<trkpt lat="45.8952810" lon="10.3488180">
	<ele>1599.80</ele>
	<time>2025-04-29T08:30:06.000Z</time>
</trkpt>
<trkpt lat="45.8952830" lon="10.3488170">
	<ele>1600.00</ele>
	<time>2025-04-29T08:30:07.000Z</time>
</trkpt>
<trkpt lat="45.8952850" lon="10.3488170">
	<ele>1600.20</ele>
	<time>2025-04-29T08:30:08.000Z</time>
</trkpt>
<trkpt lat="45.8953000" lon="10.3488140">
	<ele>1600.20</ele>
	<time>2025-04-29T08:30:09.000Z</time>
</trkpt>
<trkpt lat="45.8953070" lon="10.3488150">
	<ele>1600.20</ele>
	<time>2025-04-29T08:30:10.000Z</time>
</trkpt>
<trkpt lat="45.8953010" lon="10.3488130">
	<ele>1600.40</ele>
	<time>2025-04-29T08:30:11.000Z</time>
</trkpt>
<trkpt lat="45.8952890" lon="10.3488150">
	<ele>1600.40</ele>
	<time>2025-04-29T08:30:12.000Z</time>
</trkpt>
<trkpt lat="45.8952840" lon="10.3488110">
	<ele>1600.40</ele>
	<time>2025-04-29T08:30:13.000Z</time>
</trkpt>
<trkpt lat="45.8952860" lon="10.3488070">
	<ele>1600.40</ele>
	<time>2025-04-29T08:30:14.000Z</time>
</trkpt>
<trkpt lat="45.8952900" lon="10.3488030">
	<ele>1600.40</ele>
	<time>2025-04-29T08:30:15.000Z</time>
</trkpt>
<trkpt lat="45.8952920" lon="10.3488020">
	<ele>1600.40</ele>
	<time>2025-04-29T08:30:16.000Z</time>
</trkpt>
<trkpt lat="45.8952960" lon="10.3488000">
	<ele>1600.20</ele>
	<time>2025-04-29T08:30:17.000Z</time>
</trkpt>
<trkpt lat="45.8953030" lon="10.3487990">
	<ele>1600.20</ele>
	<time>2025-04-29T08:30:18.000Z</time>
</trkpt>
<trkpt lat="45.8953080" lon="10.3488010">
	<ele>1600.00</ele>
	<time>2025-04-29T08:30:19.000Z</time>
</trkpt>
<trkpt lat="45.8953080" lon="10.3488080">
	<ele>1600.00</ele>
	<time>2025-04-29T08:30:20.000Z</time>
</trkpt>
<trkpt lat="45.8953120" lon="10.3488070">
	<ele>1599.80</ele>
	<time>2025-04-29T08:30:21.000Z</time>
</trkpt>
<trkpt lat="45.8953140" lon="10.3488040">
	<ele>1599.80</ele>
	<time>2025-04-29T08:30:22.000Z</time>
</trkpt>
<trkpt lat="45.8953140" lon="10.3488000">
	<ele>1599.60</ele>
	<time>2025-04-29T08:30:23.000Z</time>
</trkpt>
<trkpt lat="45.8953100" lon="10.3488000">
	<ele>1599.60</ele>
	<time>2025-04-29T08:30:24.000Z</time>
</trkpt>
<trkpt lat="45.8952940" lon="10.3488030">
	<ele>1599.60</ele>
	<time>2025-04-29T08:30:25.000Z</time>
</trkpt>
<trkpt lat="45.8952720" lon="10.3488000">
	<ele>1599.60</ele>
	<time>2025-04-29T08:30:26.000Z</time>
</trkpt>
<trkpt lat="45.8952590" lon="10.3487930">
	<ele>1599.60</ele>
	<time>2025-04-29T08:30:27.000Z</time>
</trkpt>
<trkpt lat="45.8952490" lon="10.3487820">
	<ele>1599.60</ele>
	<time>2025-04-29T08:30:28.000Z</time>
</trkpt>
<trkpt lat="45.8952390" lon="10.3487700">
	<ele>1599.60</ele>
	<time>2025-04-29T08:30:29.000Z</time>
</trkpt>
<trkpt lat="45.8952340" lon="10.3487610">
	<ele>1599.60</ele>
	<time>2025-04-29T08:30:30.000Z</time>
</trkpt>
<trkpt lat="45.8952300" lon="10.3487570">
	<ele>1599.60</ele>
	<time>2025-04-29T08:30:31.000Z</time>
</trkpt>
<trkpt lat="45.8952260" lon="10.3487550">
	<ele>1599.60</ele>
	<time>2025-04-29T08:30:32.000Z</time>
</trkpt>
<trkpt lat="45.8952310" lon="10.3487560">
	<ele>1599.60</ele>
	<time>2025-04-29T08:30:33.000Z</time>
</trkpt>
<trkpt lat="45.8952330" lon="10.3487570">
	<ele>1599.60</ele>
	<time>2025-04-29T08:30:34.000Z</time>
</trkpt>
<trkpt lat="45.8952340" lon="10.3487580">
	<ele>1599.40</ele>
	<time>2025-04-29T08:30:35.000Z</time>
</trkpt>
<trkpt lat="45.8952340" lon="10.3487600">
	<ele>1599.40</ele>
	<time>2025-04-29T08:30:36.000Z</time>
</trkpt>
<trkpt lat="45.8952350" lon="10.3487620">
	<ele>1599.40</ele>
	<time>2025-04-29T08:30:37.000Z</time>
</trkpt>
<trkpt lat="45.8952180" lon="10.3487580">
	<ele>1599.40</ele>
	<time>2025-04-29T08:30:38.000Z</time>
</trkpt>
<trkpt lat="45.8952110" lon="10.3487580">
	<ele>1599.40</ele>
	<time>2025-04-29T08:30:39.000Z</time>
</trkpt>
<trkpt lat="45.8951910" lon="10.3487560">
	<ele>1599.40</ele>
	<time>2025-04-29T08:30:40.000Z</time>
</trkpt>
<trkpt lat="45.8951730" lon="10.3487550">
	<ele>1599.40</ele>
	<time>2025-04-29T08:30:41.000Z</time>
</trkpt>
<trkpt lat="45.8951540" lon="10.3487560">
	<ele>1599.40</ele>
	<time>2025-04-29T08:30:42.000Z</time>
</trkpt>
<trkpt lat="45.8951410" lon="10.3487560">
	<ele>1599.40</ele>
	<time>2025-04-29T08:30:43.000Z</time>
</trkpt>
<trkpt lat="45.8951380" lon="10.3487580">
	<ele>1599.40</ele>
	<time>2025-04-29T08:30:44.000Z</time>
</trkpt>
<trkpt lat="45.8951390" lon="10.3487590">
	<ele>1599.40</ele>
	<time>2025-04-29T08:30:45.000Z</time>
</trkpt>
<trkpt lat="45.8951410" lon="10.3487600">
	<ele>1599.40</ele>
	<time>2025-04-29T08:30:46.000Z</time>
</trkpt>
<trkpt lat="45.8951360" lon="10.3487580">
	<ele>1599.40</ele>
	<time>2025-04-29T08:30:47.000Z</time>
</trkpt>
<trkpt lat="45.8951300" lon="10.3487490">
	<ele>1599.40</ele>
	<time>2025-04-29T08:30:48.000Z</time>
</trkpt>
<trkpt lat="45.8951240" lon="10.3487420">
	<ele>1599.40</ele>
	<time>2025-04-29T08:30:49.000Z</time>
</trkpt>
<trkpt lat="45.8951190" lon="10.3487420">
	<ele>1599.40</ele>
	<time>2025-04-29T08:30:50.000Z</time>
</trkpt>
<trkpt lat="45.8951150" lon="10.3487450">
	<ele>1599.40</ele>
	<time>2025-04-29T08:30:51.000Z</time>
</trkpt>
<trkpt lat="45.8951160" lon="10.3487420">
	<ele>1599.40</ele>
	<time>2025-04-29T08:30:52.000Z</time>
</trkpt>
<trkpt lat="45.8951090" lon="10.3487400">
	<ele>1599.40</ele>
	<time>2025-04-29T08:30:53.000Z</time>
</trkpt>
<trkpt lat="45.8950990" lon="10.3487440">
	<ele>1599.40</ele>
	<time>2025-04-29T08:30:54.000Z</time>
</trkpt>
<trkpt lat="45.8950930" lon="10.3487390">
	<ele>1599.40</ele>
	<time>2025-04-29T08:30:55.000Z</time>
</trkpt>
<trkpt lat="45.8951000" lon="10.3487380">
	<ele>1599.40</ele>
	<time>2025-04-29T08:30:56.000Z</time>
</trkpt>
<trkpt lat="45.8951020" lon="10.3487370">
	<ele>1599.40</ele>
	<time>2025-04-29T08:30:57.000Z</time>
</trkpt>
<trkpt lat="45.8950990" lon="10.3487360">
	<ele>1599.40</ele>
	<time>2025-04-29T08:30:58.000Z</time>
</trkpt>
<trkpt lat="45.8950910" lon="10.3487350">
	<ele>1599.40</ele>
	<time>2025-04-29T08:30:59.000Z</time>
</trkpt>
<trkpt lat="45.8950740" lon="10.3487290">
	<ele>1599.40</ele>
	<time>2025-04-29T08:31:00.000Z</time>
</trkpt>
<trkpt lat="45.8950620" lon="10.3487270">
	<ele>1599.40</ele>
	<time>2025-04-29T08:31:01.000Z</time>
</trkpt>
<trkpt lat="45.8950610" lon="10.3487280">
	<ele>1599.40</ele>
	<time>2025-04-29T08:31:02.000Z</time>
</trkpt>
<trkpt lat="45.8950570" lon="10.3487270">
	<ele>1599.40</ele>
	<time>2025-04-29T08:31:03.000Z</time>
</trkpt>
<trkpt lat="45.8950420" lon="10.3487290">
	<ele>1599.40</ele>
	<time>2025-04-29T08:31:04.000Z</time>
</trkpt>
<trkpt lat="45.8950290" lon="10.3487310">
	<ele>1599.40</ele>
	<time>2025-04-29T08:31:05.000Z</time>
</trkpt>
<trkpt lat="45.8950140" lon="10.3487360">
	<ele>1599.40</ele>
	<time>2025-04-29T08:31:06.000Z</time>
</trkpt>
<trkpt lat="45.8950070" lon="10.3487340">
	<ele>1599.40</ele>
	<time>2025-04-29T08:31:07.000Z</time>
</trkpt>
<trkpt lat="45.8949910" lon="10.3487240">
	<ele>1599.40</ele>
	<time>2025-04-29T08:31:08.000Z</time>
</trkpt>
<trkpt lat="45.8949810" lon="10.3487250">
	<ele>1599.40</ele>
	<time>2025-04-29T08:31:09.000Z</time>
</trkpt>
<trkpt lat="45.8949670" lon="10.3487240">
	<ele>1599.40</ele>
	<time>2025-04-29T08:31:10.000Z</time>
</trkpt>
<trkpt lat="45.8949550" lon="10.3487220">
	<ele>1599.40</ele>
	<time>2025-04-29T08:31:11.000Z</time>
</trkpt>
<trkpt lat="45.8949410" lon="10.3487160">
	<ele>1599.40</ele>
	<time>2025-04-29T08:31:12.000Z</time>
</trkpt>
<trkpt lat="45.8949180" lon="10.3487140">
	<ele>1599.40</ele>
	<time>2025-04-29T08:31:13.000Z</time>
</trkpt>
<trkpt lat="45.8948910" lon="10.3487020">
	<ele>1599.20</ele>
	<time>2025-04-29T08:31:14.000Z</time>
</trkpt>
<trkpt lat="45.8948710" lon="10.3487010">
	<ele>1599.20</ele>
	<time>2025-04-29T08:31:15.000Z</time>
</trkpt>
<trkpt lat="45.8948570" lon="10.3486990">
	<ele>1599.20</ele>
	<time>2025-04-29T08:31:16.000Z</time>
</trkpt>
<trkpt lat="45.8948490" lon="10.3487000">
	<ele>1599.20</ele>
	<time>2025-04-29T08:31:17.000Z</time>
</trkpt>
<trkpt lat="45.8948380" lon="10.3487070">
	<ele>1599.20</ele>
	<time>2025-04-29T08:31:18.000Z</time>
</trkpt>
<trkpt lat="45.8948380" lon="10.3487100">
	<ele>1599.20</ele>
	<time>2025-04-29T08:31:19.000Z</time>
</trkpt>
<trkpt lat="45.8948140" lon="10.3486940">
	<ele>1599.20</ele>
	<time>2025-04-29T08:31:20.000Z</time>
</trkpt>
<trkpt lat="45.8948020" lon="10.3486930">
	<ele>1599.20</ele>
	<time>2025-04-29T08:31:21.000Z</time>
</trkpt>
<trkpt lat="45.8947940" lon="10.3486910">
	<ele>1599.20</ele>
	<time>2025-04-29T08:31:22.000Z</time>
</trkpt>
<trkpt lat="45.8947900" lon="10.3486910">
	<ele>1599.20</ele>
	<time>2025-04-29T08:31:23.000Z</time>
</trkpt>
<trkpt lat="45.8947970" lon="10.3486900">
	<ele>1599.20</ele>
	<time>2025-04-29T08:31:24.000Z</time>
</trkpt>
<trkpt lat="45.8947960" lon="10.3486780">
	<ele>1599.40</ele>
	<time>2025-04-29T08:31:25.000Z</time>
</trkpt>
<trkpt lat="45.8947960" lon="10.3486600">
	<ele>1599.40</ele>
	<time>2025-04-29T08:31:26.000Z</time>
</trkpt>
<trkpt lat="45.8947990" lon="10.3486500">
	<ele>1599.40</ele>
	<time>2025-04-29T08:31:27.000Z</time>
</trkpt>
<trkpt lat="45.8948010" lon="10.3486460">
	<ele>1599.40</ele>
	<time>2025-04-29T08:31:28.000Z</time>
</trkpt>
<trkpt lat="45.8948080" lon="10.3486470">
	<ele>1599.60</ele>
	<time>2025-04-29T08:31:29.000Z</time>
</trkpt>
<trkpt lat="45.8948200" lon="10.3486480">
	<ele>1599.40</ele>
	<time>2025-04-29T08:31:30.000Z</time>
</trkpt>
<trkpt lat="45.8948360" lon="10.3486450">
	<ele>1599.40</ele>
	<time>2025-04-29T08:31:31.000Z</time>
</trkpt>
<trkpt lat="45.8948400" lon="10.3486500">
	<ele>1599.40</ele>
	<time>2025-04-29T08:31:32.000Z</time>
</trkpt>
<trkpt lat="45.8948440" lon="10.3486420">
	<ele>1599.40</ele>
	<time>2025-04-29T08:31:33.000Z</time>
</trkpt>
<trkpt lat="45.8948560" lon="10.3486310">
	<ele>1599.40</ele>
	<time>2025-04-29T08:31:34.000Z</time>
</trkpt>
<trkpt lat="45.8948630" lon="10.3486290">
	<ele>1599.40</ele>
	<time>2025-04-29T08:31:35.000Z</time>
</trkpt>
<trkpt lat="45.8948650" lon="10.3486320">
	<ele>1599.60</ele>
	<time>2025-04-29T08:31:36.000Z</time>
</trkpt>
<trkpt lat="45.8948670" lon="10.3486310">
	<ele>1599.60</ele>
	<time>2025-04-29T08:31:37.000Z</time>
</trkpt>
<trkpt lat="45.8948660" lon="10.3486290">
	<ele>1599.60</ele>
	<time>2025-04-29T08:31:38.000Z</time>
</trkpt>
<trkpt lat="45.8948650" lon="10.3486270">
	<ele>1599.80</ele>
	<time>2025-04-29T08:31:39.000Z</time>
</trkpt>
<trkpt lat="45.8948630" lon="10.3486250">
	<ele>1599.80</ele>
	<time>2025-04-29T08:31:40.000Z</time>
</trkpt>
<trkpt lat="45.8948770" lon="10.3486190">
	<ele>1599.80</ele>
	<time>2025-04-29T08:31:41.000Z</time>
</trkpt>
<trkpt lat="45.8948820" lon="10.3486120">
	<ele>1599.80</ele>
	<time>2025-04-29T08:31:42.000Z</time>
</trkpt>
<trkpt lat="45.8948790" lon="10.3486070">
	<ele>1599.80</ele>
	<time>2025-04-29T08:31:43.000Z</time>
</trkpt>
<trkpt lat="45.8948890" lon="10.3486000">
	<ele>1599.80</ele>
	<time>2025-04-29T08:31:44.000Z</time>
</trkpt>
<trkpt lat="45.8949100" lon="10.3486020">
	<ele>1599.80</ele>
	<time>2025-04-29T08:31:45.000Z</time>
</trkpt>
<trkpt lat="45.8949290" lon="10.3486020">
	<ele>1599.60</ele>
	<time>2025-04-29T08:31:46.000Z</time>
</trkpt>
<trkpt lat="45.8949430" lon="10.3486000">
	<ele>1599.60</ele>
	<time>2025-04-29T08:31:47.000Z</time>
</trkpt>
<trkpt lat="45.8949520" lon="10.3485950">
	<ele>1599.40</ele>
	<time>2025-04-29T08:31:48.000Z</time>
</trkpt>
<trkpt lat="45.8949540" lon="10.3485900">
	<ele>1599.40</ele>
	<time>2025-04-29T08:31:49.000Z</time>
</trkpt>
<trkpt lat="45.8949530" lon="10.3485830">
	<ele>1599.40</ele>
	<time>2025-04-29T08:31:50.000Z</time>
</trkpt>
<trkpt lat="45.8949500" lon="10.3485800">
	<ele>1599.20</ele>
	<time>2025-04-29T08:31:51.000Z</time>
</trkpt>
<trkpt lat="45.8949450" lon="10.3485780">
	<ele>1599.20</ele>
	<time>2025-04-29T08:31:52.000Z</time>
</trkpt>
<trkpt lat="45.8949420" lon="10.3485750">
	<ele>1599.20</ele>
	<time>2025-04-29T08:31:53.000Z</time>
</trkpt>
<trkpt lat="45.8949410" lon="10.3485720">
	<ele>1599.20</ele>
	<time>2025-04-29T08:31:54.000Z</time>
</trkpt>
<trkpt lat="45.8949420" lon="10.3485650">
	<ele>1599.00</ele>
	<time>2025-04-29T08:31:55.000Z</time>
</trkpt>
<trkpt lat="45.8949400" lon="10.3485560">
	<ele>1599.00</ele>
	<time>2025-04-29T08:31:56.000Z</time>
</trkpt>
<trkpt lat="45.8949390" lon="10.3485490">
	<ele>1598.80</ele>
	<time>2025-04-29T08:31:57.000Z</time>
</trkpt>
<trkpt lat="45.8949390" lon="10.3485380">
	<ele>1598.80</ele>
	<time>2025-04-29T08:31:58.000Z</time>
</trkpt>
<trkpt lat="45.8949430" lon="10.3485320">
	<ele>1598.60</ele>
	<time>2025-04-29T08:31:59.000Z</time>
</trkpt>
<trkpt lat="45.8949470" lon="10.3485310">
	<ele>1598.60</ele>
	<time>2025-04-29T08:32:00.000Z</time>
</trkpt>
<trkpt lat="45.8949550" lon="10.3485340">
	<ele>1598.40</ele>
	<time>2025-04-29T08:32:01.000Z</time>
</trkpt>
<trkpt lat="45.8949640" lon="10.3485240">
	<ele>1598.40</ele>
	<time>2025-04-29T08:32:02.000Z</time>
</trkpt>
<trkpt lat="45.8949740" lon="10.3485070">
	<ele>1598.00</ele>
	<time>2025-04-29T08:32:03.000Z</time>
</trkpt>
<trkpt lat="45.8949940" lon="10.3484910">
	<ele>1597.80</ele>
	<time>2025-04-29T08:32:04.000Z</time>
</trkpt>
<trkpt lat="45.8950050" lon="10.3484800">
	<ele>1597.60</ele>
	<time>2025-04-29T08:32:05.000Z</time>
</trkpt>
<trkpt lat="45.8950170" lon="10.3484740">
	<ele>1597.40</ele>
	<time>2025-04-29T08:32:06.000Z</time>
</trkpt>
<trkpt lat="45.8950210" lon="10.3484630">
	<ele>1597.00</ele>
	<time>2025-04-29T08:32:07.000Z</time>
</trkpt>
<trkpt lat="45.8950230" lon="10.3484560">
	<ele>1597.00</ele>
	<time>2025-04-29T08:32:08.000Z</time>
</trkpt>
<trkpt lat="45.8950300" lon="10.3484530">
	<ele>1596.80</ele>
	<time>2025-04-29T08:32:09.000Z</time>
</trkpt>
<trkpt lat="45.8950400" lon="10.3484500">
	<ele>1596.60</ele>
	<time>2025-04-29T08:32:10.000Z</time>
</trkpt>
<trkpt lat="45.8950490" lon="10.3484510">
	<ele>1596.40</ele>
	<time>2025-04-29T08:32:11.000Z</time>
</trkpt>
<trkpt lat="45.8950620" lon="10.3484530">
	<ele>1596.00</ele>
	<time>2025-04-29T08:32:12.000Z</time>
</trkpt>
<trkpt lat="45.8950730" lon="10.3484510">
	<ele>1595.80</ele>
	<time>2025-04-29T08:32:13.000Z</time>
</trkpt>
<trkpt lat="45.8950890" lon="10.3484500">
	<ele>1595.80</ele>
	<time>2025-04-29T08:32:14.000Z</time>
</trkpt>
<trkpt lat="45.8951070" lon="10.3484500">
	<ele>1595.60</ele>
	<time>2025-04-29T08:32:15.000Z</time>
</trkpt>
<trkpt lat="45.8951240" lon="10.3484510">
	<ele>1595.40</ele>
	<time>2025-04-29T08:32:16.000Z</time>
</trkpt>
<trkpt lat="45.8951390" lon="10.3484490">
	<ele>1595.20</ele>
	<time>2025-04-29T08:32:17.000Z</time>
</trkpt>
<trkpt lat="45.8951490" lon="10.3484460">
	<ele>1595.00</ele>
	<time>2025-04-29T08:32:18.000Z</time>
</trkpt>
<trkpt lat="45.8951590" lon="10.3484400">
	<ele>1594.80</ele>
	<time>2025-04-29T08:32:19.000Z</time>
</trkpt>
<trkpt lat="45.8951670" lon="10.3484380">
	<ele>1594.60</ele>
	<time>2025-04-29T08:32:20.000Z</time>
</trkpt>
<trkpt lat="45.8951780" lon="10.3484340">
	<ele>1594.60</ele>
	<time>2025-04-29T08:32:21.000Z</time>
</trkpt>
<trkpt lat="45.8951960" lon="10.3484210">
	<ele>1594.40</ele>
	<time>2025-04-29T08:32:22.000Z</time>
</trkpt>
<trkpt lat="45.8952040" lon="10.3484140">
	<ele>1594.40</ele>
	<time>2025-04-29T08:32:23.000Z</time>
</trkpt>
<trkpt lat="45.8952130" lon="10.3484060">
	<ele>1594.20</ele>
	<time>2025-04-29T08:32:24.000Z</time>
</trkpt>
<trkpt lat="45.8952260" lon="10.3484010">
	<ele>1594.00</ele>
	<time>2025-04-29T08:32:25.000Z</time>
</trkpt>
<trkpt lat="45.8952360" lon="10.3484020">
	<ele>1593.60</ele>
	<time>2025-04-29T08:32:26.000Z</time>
</trkpt>
<trkpt lat="45.8952410" lon="10.3484020">
	<ele>1593.40</ele>
	<time>2025-04-29T08:32:27.000Z</time>
</trkpt>
<trkpt lat="45.8952550" lon="10.3483980">
	<ele>1593.40</ele>
	<time>2025-04-29T08:32:28.000Z</time>
</trkpt>
<trkpt lat="45.8952650" lon="10.3483890">
	<ele>1593.20</ele>
	<time>2025-04-29T08:32:29.000Z</time>
</trkpt>
<trkpt lat="45.8952760" lon="10.3483780">
	<ele>1593.00</ele>
	<time>2025-04-29T08:32:30.000Z</time>
</trkpt>
<trkpt lat="45.8952880" lon="10.3483730">
	<ele>1592.80</ele>
	<time>2025-04-29T08:32:31.000Z</time>
</trkpt>
<trkpt lat="45.8953020" lon="10.3483700">
	<ele>1592.60</ele>
	<time>2025-04-29T08:32:32.000Z</time>
</trkpt>
<trkpt lat="45.8953130" lon="10.3483750">
	<ele>1592.40</ele>
	<time>2025-04-29T08:32:33.000Z</time>
</trkpt>
<trkpt lat="45.8953230" lon="10.3483820">
	<ele>1592.40</ele>
	<time>2025-04-29T08:32:34.000Z</time>
</trkpt>
<trkpt lat="45.8953370" lon="10.3483840">
	<ele>1592.20</ele>
	<time>2025-04-29T08:32:35.000Z</time>
</trkpt>
<trkpt lat="45.8953500" lon="10.3483820">
	<ele>1591.80</ele>
	<time>2025-04-29T08:32:36.000Z</time>
</trkpt>
<trkpt lat="45.8953630" lon="10.3483890">
	<ele>1591.60</ele>
	<time>2025-04-29T08:32:37.000Z</time>
</trkpt>
<trkpt lat="45.8953780" lon="10.3483980">
	<ele>1591.60</ele>
	<time>2025-04-29T08:32:38.000Z</time>
</trkpt>
<trkpt lat="45.8953910" lon="10.3484060">
	<ele>1591.40</ele>
	<time>2025-04-29T08:32:39.000Z</time>
</trkpt>
<trkpt lat="45.8954050" lon="10.3484160">
	<ele>1591.20</ele>
	<time>2025-04-29T08:32:40.000Z</time>
</trkpt>
<trkpt lat="45.8954220" lon="10.3484270">
	<ele>1591.00</ele>
	<time>2025-04-29T08:32:41.000Z</time>
</trkpt>
<trkpt lat="45.8954380" lon="10.3484340">
	<ele>1590.80</ele>
	<time>2025-04-29T08:32:42.000Z</time>
</trkpt>
<trkpt lat="45.8954510" lon="10.3484330">
	<ele>1590.80</ele>
	<time>2025-04-29T08:32:43.000Z</time>
</trkpt>
<trkpt lat="45.8954640" lon="10.3484330">
	<ele>1590.80</ele>
	<time>2025-04-29T08:32:44.000Z</time>
</trkpt>
<trkpt lat="45.8954750" lon="10.3484320">
	<ele>1590.60</ele>
	<time>2025-04-29T08:32:45.000Z</time>
</trkpt>
<trkpt lat="45.8954860" lon="10.3484350">
	<ele>1590.40</ele>
	<time>2025-04-29T08:32:46.000Z</time>
</trkpt>
<trkpt lat="45.8954980" lon="10.3484380">
	<ele>1590.20</ele>
	<time>2025-04-29T08:32:47.000Z</time>
</trkpt>
<trkpt lat="45.8955080" lon="10.3484530">
	<ele>1590.20</ele>
	<time>2025-04-29T08:32:48.000Z</time>
</trkpt>
<trkpt lat="45.8955260" lon="10.3484570">
	<ele>1590.00</ele>
	<time>2025-04-29T08:32:49.000Z</time>
</trkpt>
<trkpt lat="45.8955450" lon="10.3484590">
	<ele>1589.80</ele>
	<time>2025-04-29T08:32:50.000Z</time>
</trkpt>
<trkpt lat="45.8955570" lon="10.3484700">
	<ele>1589.60</ele>
	<time>2025-04-29T08:32:51.000Z</time>
</trkpt>
<trkpt lat="45.8955670" lon="10.3484850">
	<ele>1589.60</ele>
	<time>2025-04-29T08:32:52.000Z</time>
</trkpt>
<trkpt lat="45.8955710" lon="10.3484840">
	<ele>1589.20</ele>
	<time>2025-04-29T08:32:53.000Z</time>
</trkpt>
<trkpt lat="45.8955840" lon="10.3484830">
	<ele>1589.00</ele>
	<time>2025-04-29T08:32:54.000Z</time>
</trkpt>
<trkpt lat="45.8956000" lon="10.3484870">
	<ele>1589.00</ele>
	<time>2025-04-29T08:32:55.000Z</time>
</trkpt>
<trkpt lat="45.8956140" lon="10.3484930">
	<ele>1588.80</ele>
	<time>2025-04-29T08:32:56.000Z</time>
</trkpt>
<trkpt lat="45.8956260" lon="10.3484990">
	<ele>1588.80</ele>
	<time>2025-04-29T08:32:57.000Z</time>
</trkpt>
<trkpt lat="45.8956420" lon="10.3485040">
	<ele>1588.60</ele>
	<time>2025-04-29T08:32:58.000Z</time>
</trkpt>
<trkpt lat="45.8956540" lon="10.3485130">
	<ele>1588.40</ele>
	<time>2025-04-29T08:32:59.000Z</time>
</trkpt>
<trkpt lat="45.8956650" lon="10.3485220">
	<ele>1588.20</ele>
	<time>2025-04-29T08:33:00.000Z</time>
</trkpt>
<trkpt lat="45.8956780" lon="10.3485320">
	<ele>1588.20</ele>
	<time>2025-04-29T08:33:01.000Z</time>
</trkpt>
<trkpt lat="45.8956920" lon="10.3485420">
	<ele>1588.00</ele>
	<time>2025-04-29T08:33:02.000Z</time>
</trkpt>
<trkpt lat="45.8957070" lon="10.3485570">
	<ele>1587.80</ele>
	<time>2025-04-29T08:33:03.000Z</time>
</trkpt>
<trkpt lat="45.8957250" lon="10.3485770">
	<ele>1587.60</ele>
	<time>2025-04-29T08:33:04.000Z</time>
</trkpt>
<trkpt lat="45.8957350" lon="10.3485940">
	<ele>1587.60</ele>
	<time>2025-04-29T08:33:05.000Z</time>
</trkpt>
<trkpt lat="45.8957480" lon="10.3486060">
	<ele>1587.40</ele>
	<time>2025-04-29T08:33:06.000Z</time>
</trkpt>
<trkpt lat="45.8957650" lon="10.3486110">
	<ele>1587.40</ele>
	<time>2025-04-29T08:33:07.000Z</time>
</trkpt>
<trkpt lat="45.8957820" lon="10.3486240">
	<ele>1587.20</ele>
	<time>2025-04-29T08:33:08.000Z</time>
</trkpt>
<trkpt lat="45.8957980" lon="10.3486360">
	<ele>1587.00</ele>
	<time>2025-04-29T08:33:09.000Z</time>
</trkpt>
<trkpt lat="45.8958090" lon="10.3486430">
	<ele>1587.00</ele>
	<time>2025-04-29T08:33:10.000Z</time>
</trkpt>
<trkpt lat="45.8958190" lon="10.3486490">
	<ele>1587.00</ele>
	<time>2025-04-29T08:33:11.000Z</time>
</trkpt>
<trkpt lat="45.8958300" lon="10.3486580">
	<ele>1586.80</ele>
	<time>2025-04-29T08:33:12.000Z</time>
</trkpt>
<trkpt lat="45.8958410" lon="10.3486690">
	<ele>1586.40</ele>
	<time>2025-04-29T08:33:13.000Z</time>
</trkpt>
<trkpt lat="45.8958460" lon="10.3486790">
	<ele>1586.00</ele>
	<time>2025-04-29T08:33:14.000Z</time>
</trkpt>
<trkpt lat="45.8958500" lon="10.3486910">
	<ele>1585.80</ele>
	<time>2025-04-29T08:33:15.000Z</time>
</trkpt>
<trkpt lat="45.8958440" lon="10.3486830">
	<ele>1585.40</ele>
	<time>2025-04-29T08:33:16.000Z</time>
</trkpt>
<trkpt lat="45.8958400" lon="10.3486900">
	<ele>1585.40</ele>
	<time>2025-04-29T08:33:17.000Z</time>
</trkpt>
<trkpt lat="45.8958370" lon="10.3486960">
	<ele>1585.00</ele>
	<time>2025-04-29T08:33:18.000Z</time>
</trkpt>
<trkpt lat="45.8958330" lon="10.3487120">
	<ele>1584.80</ele>
	<time>2025-04-29T08:33:19.000Z</time>
</trkpt>
<trkpt lat="45.8958310" lon="10.3487200">
	<ele>1584.40</ele>
	<time>2025-04-29T08:33:20.000Z</time>
</trkpt>
<trkpt lat="45.8958270" lon="10.3487330">
	<ele>1584.20</ele>
	<time>2025-04-29T08:33:21.000Z</time>
</trkpt>
<trkpt lat="45.8958250" lon="10.3487470">
	<ele>1584.00</ele>
	<time>2025-04-29T08:33:22.000Z</time>
</trkpt>
<trkpt lat="45.8958200" lon="10.3487610">
	<ele>1583.60</ele>
	<time>2025-04-29T08:33:23.000Z</time>
</trkpt>
<trkpt lat="45.8958110" lon="10.3487800">
	<ele>1583.20</ele>
	<time>2025-04-29T08:33:24.000Z</time>
</trkpt>
<trkpt lat="45.8958120" lon="10.3487920">
	<ele>1583.00</ele>
	<time>2025-04-29T08:33:25.000Z</time>
</trkpt>
<trkpt lat="45.8958060" lon="10.3488100">
	<ele>1582.60</ele>
	<time>2025-04-29T08:33:26.000Z</time>
</trkpt>
<trkpt lat="45.8958030" lon="10.3488330">
	<ele>1582.40</ele>
	<time>2025-04-29T08:33:27.000Z</time>
</trkpt>
<trkpt lat="45.8958030" lon="10.3488510">
	<ele>1582.20</ele>
	<time>2025-04-29T08:33:28.000Z</time>
</trkpt>
<trkpt lat="45.8958000" lon="10.3488690">
	<ele>1582.00</ele>
	<time>2025-04-29T08:33:29.000Z</time>
</trkpt>
<trkpt lat="45.8957960" lon="10.3488820">
	<ele>1581.60</ele>
	<time>2025-04-29T08:33:30.000Z</time>
</trkpt>
<trkpt lat="45.8957870" lon="10.3489010">
	<ele>1581.40</ele>
	<time>2025-04-29T08:33:31.000Z</time>
</trkpt>
<trkpt lat="45.8957790" lon="10.3489130">
	<ele>1581.20</ele>
	<time>2025-04-29T08:33:32.000Z</time>
</trkpt>
<trkpt lat="45.8957720" lon="10.3489240">
	<ele>1580.80</ele>
	<time>2025-04-29T08:33:33.000Z</time>
</trkpt>
<trkpt lat="45.8957770" lon="10.3489200">
	<ele>1580.40</ele>
	<time>2025-04-29T08:33:34.000Z</time>
</trkpt>
<trkpt lat="45.8957770" lon="10.3489250">
	<ele>1580.20</ele>
	<time>2025-04-29T08:33:35.000Z</time>
</trkpt>
<trkpt lat="45.8957730" lon="10.3489420">
	<ele>1580.00</ele>
	<time>2025-04-29T08:33:36.000Z</time>
</trkpt>
<trkpt lat="45.8957670" lon="10.3489570">
	<ele>1579.80</ele>
	<time>2025-04-29T08:33:37.000Z</time>
</trkpt>
<trkpt lat="45.8957610" lon="10.3489740">
	<ele>1579.40</ele>
	<time>2025-04-29T08:33:38.000Z</time>
</trkpt>
<trkpt lat="45.8957510" lon="10.3489930">
	<ele>1579.00</ele>
	<time>2025-04-29T08:33:39.000Z</time>
</trkpt>
<trkpt lat="45.8957450" lon="10.3490040">
	<ele>1578.80</ele>
	<time>2025-04-29T08:33:40.000Z</time>
</trkpt>
<trkpt lat="45.8957420" lon="10.3490190">
	<ele>1578.40</ele>
	<time>2025-04-29T08:33:41.000Z</time>
</trkpt>
<trkpt lat="45.8957370" lon="10.3490340">
	<ele>1578.00</ele>
	<time>2025-04-29T08:33:42.000Z</time>
</trkpt>
<trkpt lat="45.8957280" lon="10.3490420">
	<ele>1577.80</ele>
	<time>2025-04-29T08:33:43.000Z</time>
</trkpt>
<trkpt lat="45.8957180" lon="10.3490550">
	<ele>1577.60</ele>
	<time>2025-04-29T08:33:44.000Z</time>
</trkpt>
<trkpt lat="45.8957070" lon="10.3490680">
	<ele>1577.20</ele>
	<time>2025-04-29T08:33:45.000Z</time>
</trkpt>
<trkpt lat="45.8956920" lon="10.3490780">
	<ele>1577.00</ele>
	<time>2025-04-29T08:33:46.000Z</time>
</trkpt>
<trkpt lat="45.8956820" lon="10.3490880">
	<ele>1576.60</ele>
	<time>2025-04-29T08:33:47.000Z</time>
</trkpt>
<trkpt lat="45.8956720" lon="10.3491010">
	<ele>1576.20</ele>
	<time>2025-04-29T08:33:48.000Z</time>
</trkpt>
<trkpt lat="45.8956570" lon="10.3491130">
	<ele>1576.00</ele>
	<time>2025-04-29T08:33:49.000Z</time>
</trkpt>
<trkpt lat="45.8956430" lon="10.3491240">
	<ele>1575.80</ele>
	<time>2025-04-29T08:33:50.000Z</time>
</trkpt>
<trkpt lat="45.8956360" lon="10.3491380">
	<ele>1575.20</ele>
	<time>2025-04-29T08:33:51.000Z</time>
</trkpt>
<trkpt lat="45.8956280" lon="10.3491530">
	<ele>1575.00</ele>
	<time>2025-04-29T08:33:52.000Z</time>
</trkpt>
<trkpt lat="45.8956230" lon="10.3491690">
	<ele>1574.60</ele>
	<time>2025-04-29T08:33:53.000Z</time>
</trkpt>
<trkpt lat="45.8956210" lon="10.3491870">
	<ele>1574.40</ele>
	<time>2025-04-29T08:33:54.000Z</time>
</trkpt>
<trkpt lat="45.8956140" lon="10.3492070">
	<ele>1574.20</ele>
	<time>2025-04-29T08:33:55.000Z</time>
</trkpt>
<trkpt lat="45.8956070" lon="10.3492210">
	<ele>1573.80</ele>
	<time>2025-04-29T08:33:56.000Z</time>
</trkpt>
<trkpt lat="45.8956020" lon="10.3492370">
	<ele>1573.40</ele>
	<time>2025-04-29T08:33:57.000Z</time>
</trkpt>
<trkpt lat="45.8955960" lon="10.3492610">
	<ele>1573.00</ele>
	<time>2025-04-29T08:33:58.000Z</time>
</trkpt>
<trkpt lat="45.8955940" lon="10.3492850">
	<ele>1572.80</ele>
	<time>2025-04-29T08:33:59.000Z</time>
</trkpt>
<trkpt lat="45.8955890" lon="10.3493180">
	<ele>1572.60</ele>
	<time>2025-04-29T08:34:00.000Z</time>
</trkpt>
<trkpt lat="45.8955850" lon="10.3493450">
	<ele>1572.40</ele>
	<time>2025-04-29T08:34:01.000Z</time>
</trkpt>
<trkpt lat="45.8955830" lon="10.3493660">
	<ele>1572.20</ele>
	<time>2025-04-29T08:34:02.000Z</time>
</trkpt>
<trkpt lat="45.8955720" lon="10.3493820">
	<ele>1572.00</ele>
	<time>2025-04-29T08:34:03.000Z</time>
</trkpt>
<trkpt lat="45.8955640" lon="10.3494020">
	<ele>1571.60</ele>
	<time>2025-04-29T08:34:04.000Z</time>
</trkpt>
<trkpt lat="45.8955520" lon="10.3494190">
	<ele>1571.40</ele>
	<time>2025-04-29T08:34:05.000Z</time>
</trkpt>
<trkpt lat="45.8955460" lon="10.3494370">
	<ele>1571.20</ele>
	<time>2025-04-29T08:34:06.000Z</time>
</trkpt>
<trkpt lat="45.8955410" lon="10.3494530">
	<ele>1571.00</ele>
	<time>2025-04-29T08:34:07.000Z</time>
</trkpt>
<trkpt lat="45.8955390" lon="10.3494690">
	<ele>1570.80</ele>
	<time>2025-04-29T08:34:08.000Z</time>
</trkpt>
<trkpt lat="45.8955370" lon="10.3494860">
	<ele>1570.40</ele>
	<time>2025-04-29T08:34:09.000Z</time>
</trkpt>
<trkpt lat="45.8955350" lon="10.3495040">
	<ele>1570.20</ele>
	<time>2025-04-29T08:34:10.000Z</time>
</trkpt>
<trkpt lat="45.8955350" lon="10.3495250">
	<ele>1570.00</ele>
	<time>2025-04-29T08:34:11.000Z</time>
</trkpt>
<trkpt lat="45.8955300" lon="10.3495480">
	<ele>1569.80</ele>
	<time>2025-04-29T08:34:12.000Z</time>
</trkpt>
<trkpt lat="45.8955350" lon="10.3495660">
	<ele>1569.40</ele>
	<time>2025-04-29T08:34:13.000Z</time>
</trkpt>
<trkpt lat="45.8955330" lon="10.3495870">
	<ele>1569.40</ele>
	<time>2025-04-29T08:34:14.000Z</time>
</trkpt>
<trkpt lat="45.8955230" lon="10.3496050">
	<ele>1569.20</ele>
	<time>2025-04-29T08:34:15.000Z</time>
</trkpt>
<trkpt lat="45.8955180" lon="10.3496120">
	<ele>1569.00</ele>
	<time>2025-04-29T08:34:16.000Z</time>
</trkpt>
<trkpt lat="45.8955120" lon="10.3496340">
	<ele>1568.80</ele>
	<time>2025-04-29T08:34:17.000Z</time>
</trkpt>
<trkpt lat="45.8955120" lon="10.3496530">
	<ele>1568.40</ele>
	<time>2025-04-29T08:34:18.000Z</time>
</trkpt>
<trkpt lat="45.8955110" lon="10.3496710">
	<ele>1568.00</ele>
	<time>2025-04-29T08:34:19.000Z</time>
</trkpt>
<trkpt lat="45.8955080" lon="10.3496990">
	<ele>1567.80</ele>
	<time>2025-04-29T08:34:20.000Z</time>
</trkpt>
<trkpt lat="45.8954990" lon="10.3497270">
	<ele>1567.40</ele>
	<time>2025-04-29T08:34:21.000Z</time>
</trkpt>
<trkpt lat="45.8955000" lon="10.3497500">
	<ele>1567.20</ele>
	<time>2025-04-29T08:34:22.000Z</time>
</trkpt>
<trkpt lat="45.8955120" lon="10.3497800">
	<ele>1567.20</ele>
	<time>2025-04-29T08:34:23.000Z</time>
</trkpt>
<trkpt lat="45.8955130" lon="10.3498050">
	<ele>1566.80</ele>
	<time>2025-04-29T08:34:24.000Z</time>
</trkpt>
<trkpt lat="45.8955090" lon="10.3498230">
	<ele>1566.60</ele>
	<time>2025-04-29T08:34:25.000Z</time>
</trkpt>
<trkpt lat="45.8955010" lon="10.3498340">
	<ele>1566.40</ele>
	<time>2025-04-29T08:34:26.000Z</time>
</trkpt>
<trkpt lat="45.8954980" lon="10.3498490">
	<ele>1566.00</ele>
	<time>2025-04-29T08:34:27.000Z</time>
</trkpt>
<trkpt lat="45.8954920" lon="10.3498670">
	<ele>1565.60</ele>
	<time>2025-04-29T08:34:28.000Z</time>
</trkpt>
<trkpt lat="45.8954880" lon="10.3498880">
	<ele>1565.40</ele>
	<time>2025-04-29T08:34:29.000Z</time>
</trkpt>
<trkpt lat="45.8954800" lon="10.3499050">
	<ele>1565.20</ele>
	<time>2025-04-29T08:34:30.000Z</time>
</trkpt>
<trkpt lat="45.8954730" lon="10.3499190">
	<ele>1565.20</ele>
	<time>2025-04-29T08:34:31.000Z</time>
</trkpt>
<trkpt lat="45.8954670" lon="10.3499370">
	<ele>1564.80</ele>
	<time>2025-04-29T08:34:32.000Z</time>
</trkpt>
<trkpt lat="45.8954570" lon="10.3499530">
	<ele>1564.40</ele>
	<time>2025-04-29T08:34:33.000Z</time>
</trkpt>
<trkpt lat="45.8954520" lon="10.3499670">
	<ele>1564.20</ele>
	<time>2025-04-29T08:34:34.000Z</time>
</trkpt>
<trkpt lat="45.8954500" lon="10.3499860">
	<ele>1564.00</ele>
	<time>2025-04-29T08:34:35.000Z</time>
</trkpt>
<trkpt lat="45.8954530" lon="10.3500070">
	<ele>1563.60</ele>
	<time>2025-04-29T08:34:36.000Z</time>
</trkpt>
<trkpt lat="45.8954520" lon="10.3500290">
	<ele>1563.40</ele>
	<time>2025-04-29T08:34:37.000Z</time>
</trkpt>
<trkpt lat="45.8954450" lon="10.3500430">
	<ele>1563.00</ele>
	<time>2025-04-29T08:34:38.000Z</time>
</trkpt>
<trkpt lat="45.8954370" lon="10.3500550">
	<ele>1562.80</ele>
	<time>2025-04-29T08:34:39.000Z</time>
</trkpt>
<trkpt lat="45.8954290" lon="10.3500670">
	<ele>1562.60</ele>
	<time>2025-04-29T08:34:40.000Z</time>
</trkpt>
<trkpt lat="45.8954260" lon="10.3500840">
	<ele>1562.40</ele>
	<time>2025-04-29T08:34:41.000Z</time>
</trkpt>
<trkpt lat="45.8954200" lon="10.3501050">
	<ele>1562.20</ele>
	<time>2025-04-29T08:34:42.000Z</time>
</trkpt>
<trkpt lat="45.8954170" lon="10.3501250">
	<ele>1562.00</ele>
	<time>2025-04-29T08:34:43.000Z</time>
</trkpt>
<trkpt lat="45.8954110" lon="10.3501420">
	<ele>1561.80</ele>
	<time>2025-04-29T08:34:44.000Z</time>
</trkpt>
<trkpt lat="45.8953990" lon="10.3501520">
	<ele>1561.40</ele>
	<time>2025-04-29T08:34:45.000Z</time>
</trkpt>
<trkpt lat="45.8953870" lon="10.3501670">
	<ele>1561.20</ele>
	<time>2025-04-29T08:34:46.000Z</time>
</trkpt>
<trkpt lat="45.8953840" lon="10.3501870">
	<ele>1561.00</ele>
	<time>2025-04-29T08:34:47.000Z</time>
</trkpt>
<trkpt lat="45.8953840" lon="10.3501950">
	<ele>1560.80</ele>
	<time>2025-04-29T08:34:48.000Z</time>
</trkpt>
<trkpt lat="45.8953810" lon="10.3502180">
	<ele>1560.60</ele>
	<time>2025-04-29T08:34:49.000Z</time>
</trkpt>
<trkpt lat="45.8953780" lon="10.3502410">
	<ele>1560.40</ele>
	<time>2025-04-29T08:34:50.000Z</time>
</trkpt>
<trkpt lat="45.8953810" lon="10.3502690">
	<ele>1560.40</ele>
	<time>2025-04-29T08:34:51.000Z</time>
</trkpt>
<trkpt lat="45.8953860" lon="10.3502940">
	<ele>1560.00</ele>
	<time>2025-04-29T08:34:52.000Z</time>
</trkpt>
<trkpt lat="45.8953930" lon="10.3503160">
	<ele>1559.80</ele>
	<time>2025-04-29T08:34:53.000Z</time>
</trkpt>
<trkpt lat="45.8954090" lon="10.3503320">
	<ele>1559.60</ele>
	<time>2025-04-29T08:34:54.000Z</time>
</trkpt>
<trkpt lat="45.8954220" lon="10.3503400">
	<ele>1559.20</ele>
	<time>2025-04-29T08:34:55.000Z</time>
</trkpt>
<trkpt lat="45.8954350" lon="10.3503540">
	<ele>1559.00</ele>
	<time>2025-04-29T08:34:56.000Z</time>
</trkpt>
<trkpt lat="45.8954490" lon="10.3503610">
	<ele>1558.60</ele>
	<time>2025-04-29T08:34:57.000Z</time>
</trkpt>
<trkpt lat="45.8954570" lon="10.3503710">
	<ele>1558.20</ele>
	<time>2025-04-29T08:34:58.000Z</time>
</trkpt>
<trkpt lat="45.8954660" lon="10.3503790">
	<ele>1558.00</ele>
	<time>2025-04-29T08:34:59.000Z</time>
</trkpt>
<trkpt lat="45.8954740" lon="10.3503850">
	<ele>1558.00</ele>
	<time>2025-04-29T08:35:00.000Z</time>
</trkpt>
<trkpt lat="45.8954830" lon="10.3503880">
	<ele>1557.40</ele>
	<time>2025-04-29T08:35:01.000Z</time>
</trkpt>
<trkpt lat="45.8954880" lon="10.3503920">
	<ele>1557.20</ele>
	<time>2025-04-29T08:35:02.000Z</time>
</trkpt>
<trkpt lat="45.8955030" lon="10.3503910">
	<ele>1556.80</ele>
	<time>2025-04-29T08:35:03.000Z</time>
</trkpt>
<trkpt lat="45.8955290" lon="10.3503970">
	<ele>1556.60</ele>
	<time>2025-04-29T08:35:04.000Z</time>
</trkpt>
<trkpt lat="45.8955470" lon="10.3503900">
	<ele>1556.60</ele>
	<time>2025-04-29T08:35:05.000Z</time>
</trkpt>
<trkpt lat="45.8955640" lon="10.3503840">
	<ele>1556.20</ele>
	<time>2025-04-29T08:35:06.000Z</time>
</trkpt>
<trkpt lat="45.8955830" lon="10.3503780">
	<ele>1556.00</ele>
	<time>2025-04-29T08:35:07.000Z</time>
</trkpt>
<trkpt lat="45.8955990" lon="10.3503850">
	<ele>1555.60</ele>
	<time>2025-04-29T08:35:08.000Z</time>
</trkpt>
<trkpt lat="45.8956140" lon="10.3503950">
	<ele>1555.40</ele>
	<time>2025-04-29T08:35:09.000Z</time>
</trkpt>
<trkpt lat="45.8956290" lon="10.3504060">
	<ele>1555.20</ele>
	<time>2025-04-29T08:35:10.000Z</time>
</trkpt>
<trkpt lat="45.8956410" lon="10.3504130">
	<ele>1554.80</ele>
	<time>2025-04-29T08:35:11.000Z</time>
</trkpt>
<trkpt lat="45.8956510" lon="10.3504180">
	<ele>1554.60</ele>
	<time>2025-04-29T08:35:12.000Z</time>
</trkpt>
<trkpt lat="45.8956610" lon="10.3504210">
	<ele>1554.20</ele>
	<time>2025-04-29T08:35:13.000Z</time>
</trkpt>
<trkpt lat="45.8956740" lon="10.3504200">
	<ele>1554.00</ele>
	<time>2025-04-29T08:35:14.000Z</time>
</trkpt>
<trkpt lat="45.8956790" lon="10.3504200">
	<ele>1553.80</ele>
	<time>2025-04-29T08:35:15.000Z</time>
</trkpt>
<trkpt lat="45.8956940" lon="10.3504120">
	<ele>1553.80</ele>
	<time>2025-04-29T08:35:16.000Z</time>
</trkpt>
<trkpt lat="45.8957080" lon="10.3504010">
	<ele>1553.40</ele>
	<time>2025-04-29T08:35:17.000Z</time>
</trkpt>
<trkpt lat="45.8957130" lon="10.3503980">
	<ele>1553.00</ele>
	<time>2025-04-29T08:35:18.000Z</time>
</trkpt>
<trkpt lat="45.8957340" lon="10.3503870">
	<ele>1552.80</ele>
	<time>2025-04-29T08:35:19.000Z</time>
</trkpt>
<trkpt lat="45.8957500" lon="10.3503700">
	<ele>1552.40</ele>
	<time>2025-04-29T08:35:20.000Z</time>
</trkpt>
<trkpt lat="45.8957650" lon="10.3503520">
	<ele>1552.20</ele>
	<time>2025-04-29T08:35:21.000Z</time>
</trkpt>
<trkpt lat="45.8957830" lon="10.3503430">
	<ele>1552.00</ele>
	<time>2025-04-29T08:35:22.000Z</time>
</trkpt>
<trkpt lat="45.8958030" lon="10.3503420">
	<ele>1551.60</ele>
	<time>2025-04-29T08:35:23.000Z</time>
</trkpt>
<trkpt lat="45.8958190" lon="10.3503430">
	<ele>1551.60</ele>
	<time>2025-04-29T08:35:24.000Z</time>
</trkpt>
<trkpt lat="45.8958350" lon="10.3503400">
	<ele>1551.20</ele>
	<time>2025-04-29T08:35:25.000Z</time>
</trkpt>
<trkpt lat="45.8958550" lon="10.3503250">
	<ele>1551.00</ele>
	<time>2025-04-29T08:35:26.000Z</time>
</trkpt>
<trkpt lat="45.8958710" lon="10.3503140">
	<ele>1550.60</ele>
	<time>2025-04-29T08:35:27.000Z</time>
</trkpt>
<trkpt lat="45.8958980" lon="10.3503060">
	<ele>1550.40</ele>
	<time>2025-04-29T08:35:28.000Z</time>
</trkpt>
<trkpt lat="45.8959070" lon="10.3502900">
	<ele>1550.00</ele>
	<time>2025-04-29T08:35:29.000Z</time>
</trkpt>
<trkpt lat="45.8959120" lon="10.3502830">
	<ele>1549.80</ele>
	<time>2025-04-29T08:35:30.000Z</time>
</trkpt>
<trkpt lat="45.8959120" lon="10.3502760">
	<ele>1549.40</ele>
	<time>2025-04-29T08:35:31.000Z</time>
</trkpt>
<trkpt lat="45.8959150" lon="10.3502750">
	<ele>1549.20</ele>
	<time>2025-04-29T08:35:32.000Z</time>
</trkpt>
<trkpt lat="45.8959160" lon="10.3502710">
	<ele>1549.00</ele>
	<time>2025-04-29T08:35:33.000Z</time>
</trkpt>
<trkpt lat="45.8959160" lon="10.3502660">
	<ele>1548.80</ele>
	<time>2025-04-29T08:35:34.000Z</time>
</trkpt>
<trkpt lat="45.8959240" lon="10.3502620">
	<ele>1548.60</ele>
	<time>2025-04-29T08:35:35.000Z</time>
</trkpt>
<trkpt lat="45.8959360" lon="10.3502590">
	<ele>1548.20</ele>
	<time>2025-04-29T08:35:36.000Z</time>
</trkpt>
<trkpt lat="45.8959420" lon="10.3502530">
	<ele>1548.00</ele>
	<time>2025-04-29T08:35:37.000Z</time>
</trkpt>
<trkpt lat="45.8959520" lon="10.3502530">
	<ele>1547.80</ele>
	<time>2025-04-29T08:35:38.000Z</time>
</trkpt>
<trkpt lat="45.8959600" lon="10.3502540">
	<ele>1547.60</ele>
	<time>2025-04-29T08:35:39.000Z</time>
</trkpt>
<trkpt lat="45.8959650" lon="10.3502540">
	<ele>1547.40</ele>
	<time>2025-04-29T08:35:40.000Z</time>
</trkpt>
<trkpt lat="45.8959690" lon="10.3502310">
	<ele>1547.00</ele>
	<time>2025-04-29T08:35:41.000Z</time>
</trkpt>
<trkpt lat="45.8959780" lon="10.3502230">
	<ele>1546.80</ele>
	<time>2025-04-29T08:35:42.000Z</time>
</trkpt>
<trkpt lat="45.8959860" lon="10.3502180">
	<ele>1546.40</ele>
	<time>2025-04-29T08:35:43.000Z</time>
</trkpt>
<trkpt lat="45.8959880" lon="10.3502180">
	<ele>1546.20</ele>
	<time>2025-04-29T08:35:44.000Z</time>
</trkpt>
<trkpt lat="45.8959870" lon="10.3502100">
	<ele>1546.00</ele>
	<time>2025-04-29T08:35:45.000Z</time>
</trkpt>
<trkpt lat="45.8959930" lon="10.3502040">
	<ele>1545.80</ele>
	<time>2025-04-29T08:35:46.000Z</time>
</trkpt>
<trkpt lat="45.8960010" lon="10.3501950">
	<ele>1545.40</ele>
	<time>2025-04-29T08:35:47.000Z</time>
</trkpt>
<trkpt lat="45.8960030" lon="10.3501910">
	<ele>1545.00</ele>
	<time>2025-04-29T08:35:48.000Z</time>
</trkpt>
<trkpt lat="45.8960110" lon="10.3501820">
	<ele>1544.80</ele>
	<time>2025-04-29T08:35:49.000Z</time>
</trkpt>
<trkpt lat="45.8960160" lon="10.3501720">
	<ele>1544.40</ele>
	<time>2025-04-29T08:35:50.000Z</time>
</trkpt>
<trkpt lat="45.8960340" lon="10.3501630">
	<ele>1544.00</ele>
	<time>2025-04-29T08:35:51.000Z</time>
</trkpt>
<trkpt lat="45.8960490" lon="10.3501550">
	<ele>1543.80</ele>
	<time>2025-04-29T08:35:52.000Z</time>
</trkpt>
<trkpt lat="45.8960640" lon="10.3501460">
	<ele>1543.60</ele>
	<time>2025-04-29T08:35:53.000Z</time>
</trkpt>
<trkpt lat="45.8960770" lon="10.3501440">
	<ele>1543.40</ele>
	<time>2025-04-29T08:35:54.000Z</time>
</trkpt>
<trkpt lat="45.8960860" lon="10.3501350">
	<ele>1543.20</ele>
	<time>2025-04-29T08:35:55.000Z</time>
</trkpt>
<trkpt lat="45.8960960" lon="10.3501350">
	<ele>1542.80</ele>
	<time>2025-04-29T08:35:56.000Z</time>
</trkpt>
<trkpt lat="45.8960990" lon="10.3501370">
	<ele>1542.40</ele>
	<time>2025-04-29T08:35:57.000Z</time>
</trkpt>
<trkpt lat="45.8961120" lon="10.3501390">
	<ele>1542.00</ele>
	<time>2025-04-29T08:35:58.000Z</time>
</trkpt>
<trkpt lat="45.8961250" lon="10.3501340">
	<ele>1541.60</ele>
	<time>2025-04-29T08:35:59.000Z</time>
</trkpt>
<trkpt lat="45.8961290" lon="10.3501280">
	<ele>1541.40</ele>
	<time>2025-04-29T08:36:00.000Z</time>
</trkpt>
<trkpt lat="45.8961410" lon="10.3501240">
	<ele>1540.80</ele>
	<time>2025-04-29T08:36:01.000Z</time>
</trkpt>
<trkpt lat="45.8961540" lon="10.3501130">
	<ele>1540.40</ele>
	<time>2025-04-29T08:36:02.000Z</time>
</trkpt>
<trkpt lat="45.8961660" lon="10.3501040">
	<ele>1540.20</ele>
	<time>2025-04-29T08:36:03.000Z</time>
</trkpt>
<trkpt lat="45.8961790" lon="10.3500990">
	<ele>1540.00</ele>
	<time>2025-04-29T08:36:04.000Z</time>
</trkpt>
<trkpt lat="45.8961900" lon="10.3500940">
	<ele>1539.60</ele>
	<time>2025-04-29T08:36:05.000Z</time>
</trkpt>
<trkpt lat="45.8961960" lon="10.3500960">
	<ele>1539.40</ele>
	<time>2025-04-29T08:36:06.000Z</time>
</trkpt>
<trkpt lat="45.8962020" lon="10.3500940">
	<ele>1539.00</ele>
	<time>2025-04-29T08:36:07.000Z</time>
</trkpt>
<trkpt lat="45.8962060" lon="10.3500910">
	<ele>1538.60</ele>
	<time>2025-04-29T08:36:08.000Z</time>
</trkpt>
<trkpt lat="45.8962130" lon="10.3500840">
	<ele>1538.40</ele>
	<time>2025-04-29T08:36:09.000Z</time>
</trkpt>
<trkpt lat="45.8962160" lon="10.3500700">
	<ele>1538.20</ele>
	<time>2025-04-29T08:36:10.000Z</time>
</trkpt>
<trkpt lat="45.8962220" lon="10.3500570">
	<ele>1537.80</ele>
	<time>2025-04-29T08:36:11.000Z</time>
</trkpt>
<trkpt lat="45.8962320" lon="10.3500500">
	<ele>1537.60</ele>
	<time>2025-04-29T08:36:12.000Z</time>
</trkpt>
<trkpt lat="45.8962460" lon="10.3500410">
	<ele>1537.40</ele>
	<time>2025-04-29T08:36:13.000Z</time>
</trkpt>
<trkpt lat="45.8962610" lon="10.3500330">
	<ele>1537.20</ele>
	<time>2025-04-29T08:36:14.000Z</time>
</trkpt>
<trkpt lat="45.8962740" lon="10.3500330">
	<ele>1536.80</ele>
	<time>2025-04-29T08:36:15.000Z</time>
</trkpt>
<trkpt lat="45.8962860" lon="10.3500350">
	<ele>1536.60</ele>
	<time>2025-04-29T08:36:16.000Z</time>
</trkpt>
<trkpt lat="45.8962960" lon="10.3500390">
	<ele>1536.20</ele>
	<time>2025-04-29T08:36:17.000Z</time>
</trkpt>
<trkpt lat="45.8963080" lon="10.3500460">
	<ele>1535.80</ele>
	<time>2025-04-29T08:36:18.000Z</time>
</trkpt>
<trkpt lat="45.8963120" lon="10.3500510">
	<ele>1535.60</ele>
	<time>2025-04-29T08:36:19.000Z</time>
</trkpt>
<trkpt lat="45.8963190" lon="10.3500600">
	<ele>1535.20</ele>
	<time>2025-04-29T08:36:20.000Z</time>
</trkpt>
<trkpt lat="45.8963270" lon="10.3500690">
	<ele>1535.00</ele>
	<time>2025-04-29T08:36:21.000Z</time>
</trkpt>
<trkpt lat="45.8963330" lon="10.3500740">
	<ele>1534.80</ele>
	<time>2025-04-29T08:36:22.000Z</time>
</trkpt>
<trkpt lat="45.8963420" lon="10.3500760">
	<ele>1534.60</ele>
	<time>2025-04-29T08:36:23.000Z</time>
</trkpt>
<trkpt lat="45.8963500" lon="10.3500720">
	<ele>1534.20</ele>
	<time>2025-04-29T08:36:24.000Z</time>
</trkpt>
<trkpt lat="45.8963580" lon="10.3500640">
	<ele>1533.80</ele>
	<time>2025-04-29T08:36:25.000Z</time>
</trkpt>
<trkpt lat="45.8963680" lon="10.3500580">
	<ele>1533.60</ele>
	<time>2025-04-29T08:36:26.000Z</time>
</trkpt>
<trkpt lat="45.8963780" lon="10.3500520">
	<ele>1533.20</ele>
	<time>2025-04-29T08:36:27.000Z</time>
</trkpt>
<trkpt lat="45.8963890" lon="10.3500450">
	<ele>1533.00</ele>
	<time>2025-04-29T08:36:28.000Z</time>
</trkpt>
<trkpt lat="45.8963920" lon="10.3500330">
	<ele>1532.80</ele>
	<time>2025-04-29T08:36:29.000Z</time>
</trkpt>
<trkpt lat="45.8964000" lon="10.3500230">
	<ele>1532.60</ele>
	<time>2025-04-29T08:36:30.000Z</time>
</trkpt>
<trkpt lat="45.8964030" lon="10.3500220">
	<ele>1532.20</ele>
	<time>2025-04-29T08:36:31.000Z</time>
</trkpt>
<trkpt lat="45.8964240" lon="10.3500280">
	<ele>1531.80</ele>
	<time>2025-04-29T08:36:32.000Z</time>
</trkpt>
<trkpt lat="45.8964530" lon="10.3500330">
	<ele>1531.60</ele>
	<time>2025-04-29T08:36:33.000Z</time>
</trkpt>
<trkpt lat="45.8964830" lon="10.3500340">
	<ele>1531.20</ele>
	<time>2025-04-29T08:36:34.000Z</time>
</trkpt>
<trkpt lat="45.8965050" lon="10.3500300">
	<ele>1531.00</ele>
	<time>2025-04-29T08:36:35.000Z</time>
</trkpt>
<trkpt lat="45.8965150" lon="10.3500290">
	<ele>1530.80</ele>
	<time>2025-04-29T08:36:36.000Z</time>
</trkpt>
<trkpt lat="45.8965280" lon="10.3500260">
	<ele>1530.40</ele>
	<time>2025-04-29T08:36:37.000Z</time>
</trkpt>
<trkpt lat="45.8965390" lon="10.3500260">
	<ele>1530.20</ele>
	<time>2025-04-29T08:36:38.000Z</time>
</trkpt>
<trkpt lat="45.8965460" lon="10.3500310">
	<ele>1530.00</ele>
	<time>2025-04-29T08:36:39.000Z</time>
</trkpt>
<trkpt lat="45.8965550" lon="10.3500370">
	<ele>1529.60</ele>
	<time>2025-04-29T08:36:40.000Z</time>
</trkpt>
<trkpt lat="45.8965640" lon="10.3500430">
	<ele>1529.40</ele>
	<time>2025-04-29T08:36:41.000Z</time>
</trkpt>
<trkpt lat="45.8965750" lon="10.3500480">
	<ele>1529.00</ele>
	<time>2025-04-29T08:36:42.000Z</time>
</trkpt>
<trkpt lat="45.8965910" lon="10.3500500">
	<ele>1528.60</ele>
	<time>2025-04-29T08:36:43.000Z</time>
</trkpt>
<trkpt lat="45.8966050" lon="10.3500480">
	<ele>1528.40</ele>
	<time>2025-04-29T08:36:44.000Z</time>
</trkpt>
<trkpt lat="45.8966220" lon="10.3500470">
	<ele>1528.00</ele>
	<time>2025-04-29T08:36:45.000Z</time>
</trkpt>
<trkpt lat="45.8966390" lon="10.3500490">
	<ele>1527.80</ele>
	<time>2025-04-29T08:36:46.000Z</time>
</trkpt>
<trkpt lat="45.8966540" lon="10.3500510">
	<ele>1527.60</ele>
	<time>2025-04-29T08:36:47.000Z</time>
</trkpt>
<trkpt lat="45.8966640" lon="10.3500510">
	<ele>1527.40</ele>
	<time>2025-04-29T08:36:48.000Z</time>
</trkpt>
<trkpt lat="45.8966720" lon="10.3500500">
	<ele>1527.00</ele>
	<time>2025-04-29T08:36:49.000Z</time>
</trkpt>
<trkpt lat="45.8966780" lon="10.3500550">
	<ele>1526.80</ele>
	<time>2025-04-29T08:36:50.000Z</time>
</trkpt>
<trkpt lat="45.8966870" lon="10.3500590">
	<ele>1526.40</ele>
	<time>2025-04-29T08:36:51.000Z</time>
</trkpt>
<trkpt lat="45.8966950" lon="10.3500550">
	<ele>1526.20</ele>
	<time>2025-04-29T08:36:52.000Z</time>
</trkpt>
<trkpt lat="45.8967070" lon="10.3500500">
	<ele>1525.80</ele>
	<time>2025-04-29T08:36:53.000Z</time>
</trkpt>
<trkpt lat="45.8967190" lon="10.3500410">
	<ele>1525.60</ele>
	<time>2025-04-29T08:36:54.000Z</time>
</trkpt>
<trkpt lat="45.8967340" lon="10.3500280">
	<ele>1525.20</ele>
	<time>2025-04-29T08:36:55.000Z</time>
</trkpt>
<trkpt lat="45.8967510" lon="10.3500230">
	<ele>1525.00</ele>
	<time>2025-04-29T08:36:56.000Z</time>
</trkpt>
<trkpt lat="45.8967630" lon="10.3500220">
	<ele>1524.80</ele>
	<time>2025-04-29T08:36:57.000Z</time>
</trkpt>
<trkpt lat="45.8967670" lon="10.3500210">
	<ele>1524.40</ele>
	<time>2025-04-29T08:36:58.000Z</time>
</trkpt>
<trkpt lat="45.8967760" lon="10.3500310">
	<ele>1524.00</ele>
	<time>2025-04-29T08:36:59.000Z</time>
</trkpt>
<trkpt lat="45.8967860" lon="10.3500340">
	<ele>1523.80</ele>
	<time>2025-04-29T08:37:00.000Z</time>
</trkpt>
<trkpt lat="45.8967970" lon="10.3500310">
	<ele>1523.40</ele>
	<time>2025-04-29T08:37:01.000Z</time>
</trkpt>
<trkpt lat="45.8968090" lon="10.3500280">
	<ele>1523.20</ele>
	<time>2025-04-29T08:37:02.000Z</time>
</trkpt>
<trkpt lat="45.8968240" lon="10.3500090">
	<ele>1522.80</ele>
	<time>2025-04-29T08:37:03.000Z</time>
</trkpt>
<trkpt lat="45.8968420" lon="10.3499850">
	<ele>1522.60</ele>
	<time>2025-04-29T08:37:04.000Z</time>
</trkpt>
<trkpt lat="45.8968580" lon="10.3499670">
	<ele>1522.20</ele>
	<time>2025-04-29T08:37:05.000Z</time>
</trkpt>
<trkpt lat="45.8968810" lon="10.3499430">
	<ele>1522.00</ele>
	<time>2025-04-29T08:37:06.000Z</time>
</trkpt>
<trkpt lat="45.8969040" lon="10.3499300">
	<ele>1521.80</ele>
	<time>2025-04-29T08:37:07.000Z</time>
</trkpt>
<trkpt lat="45.8969280" lon="10.3499180">
	<ele>1521.60</ele>
	<time>2025-04-29T08:37:08.000Z</time>
</trkpt>
<trkpt lat="45.8969470" lon="10.3499200">
	<ele>1521.40</ele>
	<time>2025-04-29T08:37:09.000Z</time>
</trkpt>
<trkpt lat="45.8969500" lon="10.3499350">
	<ele>1521.20</ele>
	<time>2025-04-29T08:37:10.000Z</time>
</trkpt>
<trkpt lat="45.8969590" lon="10.3499470">
	<ele>1520.80</ele>
	<time>2025-04-29T08:37:11.000Z</time>
</trkpt>
<trkpt lat="45.8969730" lon="10.3499490">
	<ele>1520.60</ele>
	<time>2025-04-29T08:37:12.000Z</time>
</trkpt>
<trkpt lat="45.8969740" lon="10.3499590">
	<ele>1520.40</ele>
	<time>2025-04-29T08:37:13.000Z</time>
</trkpt>
<trkpt lat="45.8969790" lon="10.3499640">
	<ele>1520.20</ele>
	<time>2025-04-29T08:37:14.000Z</time>
</trkpt>
<trkpt lat="45.8969890" lon="10.3499610">
	<ele>1519.80</ele>
	<time>2025-04-29T08:37:15.000Z</time>
</trkpt>
<trkpt lat="45.8969980" lon="10.3499590">
	<ele>1519.40</ele>
	<time>2025-04-29T08:37:16.000Z</time>
</trkpt>
<trkpt lat="45.8970120" lon="10.3499600">
	<ele>1519.00</ele>
	<time>2025-04-29T08:37:17.000Z</time>
</trkpt>
<trkpt lat="45.8970230" lon="10.3499640">
	<ele>1518.80</ele>
	<time>2025-04-29T08:37:18.000Z</time>
</trkpt>
<trkpt lat="45.8970290" lon="10.3499700">
	<ele>1518.60</ele>
	<time>2025-04-29T08:37:19.000Z</time>
</trkpt>
<trkpt lat="45.8970370" lon="10.3499810">
	<ele>1518.40</ele>
	<time>2025-04-29T08:37:20.000Z</time>
</trkpt>
<trkpt lat="45.8970460" lon="10.3499880">
	<ele>1518.20</ele>
	<time>2025-04-29T08:37:21.000Z</time>
</trkpt>
<trkpt lat="45.8970590" lon="10.3499870">
	<ele>1518.00</ele>
	<time>2025-04-29T08:37:22.000Z</time>
</trkpt>
<trkpt lat="45.8970700" lon="10.3499970">
	<ele>1517.80</ele>
	<time>2025-04-29T08:37:23.000Z</time>
</trkpt>
<trkpt lat="45.8970850" lon="10.3499980">
	<ele>1517.40</ele>
	<time>2025-04-29T08:37:24.000Z</time>
</trkpt>
<trkpt lat="45.8970970" lon="10.3500020">
	<ele>1517.20</ele>
	<time>2025-04-29T08:37:25.000Z</time>
</trkpt>
<trkpt lat="45.8971110" lon="10.3500100">
	<ele>1517.00</ele>
	<time>2025-04-29T08:37:26.000Z</time>
</trkpt>
<trkpt lat="45.8971220" lon="10.3500160">
	<ele>1516.80</ele>
	<time>2025-04-29T08:37:27.000Z</time>
</trkpt>
<trkpt lat="45.8971330" lon="10.3500200">
	<ele>1516.60</ele>
	<time>2025-04-29T08:37:28.000Z</time>
</trkpt>
<trkpt lat="45.8971400" lon="10.3500340">
	<ele>1516.60</ele>
	<time>2025-04-29T08:37:29.000Z</time>
</trkpt>
<trkpt lat="45.8971440" lon="10.3500530">
	<ele>1516.40</ele>
	<time>2025-04-29T08:37:30.000Z</time>
</trkpt>
<trkpt lat="45.8971480" lon="10.3500720">
	<ele>1516.20</ele>
	<time>2025-04-29T08:37:31.000Z</time>
</trkpt>
<trkpt lat="45.8971540" lon="10.3500880">
	<ele>1516.20</ele>
	<time>2025-04-29T08:37:32.000Z</time>
</trkpt>
<trkpt lat="45.8971570" lon="10.3501000">
	<ele>1516.00</ele>
	<time>2025-04-29T08:37:33.000Z</time>
</trkpt>
<trkpt lat="45.8971610" lon="10.3501150">
	<ele>1516.00</ele>
	<time>2025-04-29T08:37:34.000Z</time>
</trkpt>
<trkpt lat="45.8971660" lon="10.3501300">
	<ele>1515.80</ele>
	<time>2025-04-29T08:37:35.000Z</time>
</trkpt>
<trkpt lat="45.8971720" lon="10.3501400">
	<ele>1515.80</ele>
	<time>2025-04-29T08:37:36.000Z</time>
</trkpt>
<trkpt lat="45.8971750" lon="10.3501450">
	<ele>1515.80</ele>
	<time>2025-04-29T08:37:37.000Z</time>
</trkpt>
<trkpt lat="45.8971770" lon="10.3501440">
	<ele>1515.80</ele>
	<time>2025-04-29T08:37:38.000Z</time>
</trkpt>
<trkpt lat="45.8971820" lon="10.3501540">
	<ele>1515.80</ele>
	<time>2025-04-29T08:37:39.000Z</time>
</trkpt>
<trkpt lat="45.8971850" lon="10.3501570">
	<ele>1515.80</ele>
	<time>2025-04-29T08:37:40.000Z</time>
</trkpt>
<trkpt lat="45.8971860" lon="10.3501580">
	<ele>1516.00</ele>
	<time>2025-04-29T08:37:41.000Z</time>
</trkpt>
<trkpt lat="45.8971860" lon="10.3501570">
	<ele>1516.00</ele>
	<time>2025-04-29T08:37:42.000Z</time>
</trkpt>
<trkpt lat="45.8971870" lon="10.3501490">
	<ele>1516.00</ele>
	<time>2025-04-29T08:37:43.000Z</time>
</trkpt>
<trkpt lat="45.8971850" lon="10.3501460">
	<ele>1516.00</ele>
	<time>2025-04-29T08:37:44.000Z</time>
</trkpt>
<trkpt lat="45.8971910" lon="10.3501350">
	<ele>1516.00</ele>
	<time>2025-04-29T08:37:45.000Z</time>
</trkpt>
<trkpt lat="45.8972000" lon="10.3501300">
	<ele>1516.00</ele>
	<time>2025-04-29T08:37:46.000Z</time>
</trkpt>
<trkpt lat="45.8972120" lon="10.3501170">
	<ele>1516.00</ele>
	<time>2025-04-29T08:37:47.000Z</time>
</trkpt>
<trkpt lat="45.8972250" lon="10.3501060">
	<ele>1515.60</ele>
	<time>2025-04-29T08:37:48.000Z</time>
</trkpt>
<trkpt lat="45.8972390" lon="10.3500890">
	<ele>1515.60</ele>
	<time>2025-04-29T08:37:49.000Z</time>
</trkpt>
<trkpt lat="45.8972480" lon="10.3500800">
	<ele>1515.40</ele>
	<time>2025-04-29T08:37:50.000Z</time>
</trkpt>
<trkpt lat="45.8972520" lon="10.3500750">
	<ele>1515.40</ele>
	<time>2025-04-29T08:37:51.000Z</time>
</trkpt>
<trkpt lat="45.8972610" lon="10.3500710">
	<ele>1515.20</ele>
	<time>2025-04-29T08:37:52.000Z</time>
</trkpt>
<trkpt lat="45.8972670" lon="10.3500650">
	<ele>1515.00</ele>
	<time>2025-04-29T08:37:53.000Z</time>
</trkpt>
<trkpt lat="45.8972710" lon="10.3500560">
	<ele>1515.00</ele>
	<time>2025-04-29T08:37:54.000Z</time>
</trkpt>
<trkpt lat="45.8972830" lon="10.3500400">
	<ele>1514.80</ele>
	<time>2025-04-29T08:37:55.000Z</time>
</trkpt>
<trkpt lat="45.8972890" lon="10.3500250">
	<ele>1514.80</ele>
	<time>2025-04-29T08:37:56.000Z</time>
</trkpt>
<trkpt lat="45.8972960" lon="10.3500070">
	<ele>1514.80</ele>
	<time>2025-04-29T08:37:57.000Z</time>
</trkpt>
<trkpt lat="45.8972980" lon="10.3499990">
	<ele>1514.60</ele>
	<time>2025-04-29T08:37:58.000Z</time>
</trkpt>
<trkpt lat="45.8973010" lon="10.3499870">
	<ele>1514.40</ele>
	<time>2025-04-29T08:37:59.000Z</time>
</trkpt>
<trkpt lat="45.8973070" lon="10.3499770">
	<ele>1514.20</ele>
	<time>2025-04-29T08:38:00.000Z</time>
</trkpt>
<trkpt lat="45.8973120" lon="10.3499610">
	<ele>1514.20</ele>
	<time>2025-04-29T08:38:01.000Z</time>
</trkpt>
<trkpt lat="45.8973160" lon="10.3499490">
	<ele>1514.00</ele>
	<time>2025-04-29T08:38:02.000Z</time>
</trkpt>
<trkpt lat="45.8973190" lon="10.3499310">
	<ele>1513.80</ele>
	<time>2025-04-29T08:38:03.000Z</time>
</trkpt>
<trkpt lat="45.8973230" lon="10.3499180">
	<ele>1513.60</ele>
	<time>2025-04-29T08:38:04.000Z</time>
</trkpt>
<trkpt lat="45.8973280" lon="10.3499070">
	<ele>1513.60</ele>
	<time>2025-04-29T08:38:05.000Z</time>
</trkpt>
<trkpt lat="45.8973340" lon="10.3498940">
	<ele>1513.40</ele>
	<time>2025-04-29T08:38:06.000Z</time>
</trkpt>
<trkpt lat="45.8973340" lon="10.3498880">
	<ele>1513.20</ele>
	<time>2025-04-29T08:38:07.000Z</time>
</trkpt>
<trkpt lat="45.8973320" lon="10.3498790">
	<ele>1513.00</ele>
	<time>2025-04-29T08:38:08.000Z</time>
</trkpt>
<trkpt lat="45.8973270" lon="10.3498760">
	<ele>1513.00</ele>
	<time>2025-04-29T08:38:09.000Z</time>
</trkpt>
<trkpt lat="45.8973230" lon="10.3498760">
	<ele>1512.80</ele>
	<time>2025-04-29T08:38:10.000Z</time>
</trkpt>
<trkpt lat="45.8973230" lon="10.3498710">
	<ele>1512.80</ele>
	<time>2025-04-29T08:38:11.000Z</time>
</trkpt>
<trkpt lat="45.8973290" lon="10.3498610">
	<ele>1512.60</ele>
	<time>2025-04-29T08:38:12.000Z</time>
</trkpt>
<trkpt lat="45.8973350" lon="10.3498460">
	<ele>1512.40</ele>
	<time>2025-04-29T08:38:13.000Z</time>
</trkpt>
<trkpt lat="45.8973440" lon="10.3498270">
	<ele>1512.40</ele>
	<time>2025-04-29T08:38:14.000Z</time>
</trkpt>
<trkpt lat="45.8973420" lon="10.3498060">
	<ele>1512.20</ele>
	<time>2025-04-29T08:38:15.000Z</time>
</trkpt>
<trkpt lat="45.8973470" lon="10.3497850">
	<ele>1512.00</ele>
	<time>2025-04-29T08:38:16.000Z</time>
</trkpt>
<trkpt lat="45.8973500" lon="10.3497640">
	<ele>1511.80</ele>
	<time>2025-04-29T08:38:17.000Z</time>
</trkpt>
<trkpt lat="45.8973530" lon="10.3497460">
	<ele>1511.60</ele>
	<time>2025-04-29T08:38:18.000Z</time>
</trkpt>
<trkpt lat="45.8973590" lon="10.3497250">
	<ele>1511.40</ele>
	<time>2025-04-29T08:38:19.000Z</time>
</trkpt>
<trkpt lat="45.8973710" lon="10.3497000">
	<ele>1511.20</ele>
	<time>2025-04-29T08:38:20.000Z</time>
</trkpt>
<trkpt lat="45.8973820" lon="10.3496750">
	<ele>1511.00</ele>
	<time>2025-04-29T08:38:21.000Z</time>
</trkpt>
<trkpt lat="45.8973900" lon="10.3496540">
	<ele>1510.80</ele>
	<time>2025-04-29T08:38:22.000Z</time>
</trkpt>
<trkpt lat="45.8973990" lon="10.3496390">
	<ele>1510.40</ele>
	<time>2025-04-29T08:38:23.000Z</time>
</trkpt>
<trkpt lat="45.8974110" lon="10.3496240">
	<ele>1510.20</ele>
	<time>2025-04-29T08:38:24.000Z</time>
</trkpt>
<trkpt lat="45.8974230" lon="10.3496070">
	<ele>1510.00</ele>
	<time>2025-04-29T08:38:25.000Z</time>
</trkpt>
<trkpt lat="45.8974360" lon="10.3495880">
	<ele>1509.80</ele>
	<time>2025-04-29T08:38:26.000Z</time>
</trkpt>
<trkpt lat="45.8974450" lon="10.3495710">
	<ele>1509.60</ele>
	<time>2025-04-29T08:38:27.000Z</time>
</trkpt>
<trkpt lat="45.8974520" lon="10.3495470">
	<ele>1509.40</ele>
	<time>2025-04-29T08:38:28.000Z</time>
</trkpt>
<trkpt lat="45.8974590" lon="10.3495190">
	<ele>1509.00</ele>
	<time>2025-04-29T08:38:29.000Z</time>
</trkpt>
<trkpt lat="45.8974600" lon="10.3494930">
	<ele>1508.80</ele>
	<time>2025-04-29T08:38:30.000Z</time>
</trkpt>
<trkpt lat="45.8974600" lon="10.3494730">
	<ele>1508.40</ele>
	<time>2025-04-29T08:38:31.000Z</time>
</trkpt>
<trkpt lat="45.8974640" lon="10.3494490">
	<ele>1508.20</ele>
	<time>2025-04-29T08:38:32.000Z</time>
</trkpt>
<trkpt lat="45.8974700" lon="10.3494320">
	<ele>1508.00</ele>
	<time>2025-04-29T08:38:33.000Z</time>
</trkpt>
<trkpt lat="45.8974780" lon="10.3494110">
	<ele>1507.80</ele>
	<time>2025-04-29T08:38:34.000Z</time>
</trkpt>
<trkpt lat="45.8974890" lon="10.3493920">
	<ele>1507.60</ele>
	<time>2025-04-29T08:38:35.000Z</time>
</trkpt>
<trkpt lat="45.8975000" lon="10.3493640">
	<ele>1507.40</ele>
	<time>2025-04-29T08:38:36.000Z</time>
</trkpt>
<trkpt lat="45.8975160" lon="10.3493410">
	<ele>1506.80</ele>
	<time>2025-04-29T08:38:37.000Z</time>
</trkpt>
<trkpt lat="45.8975240" lon="10.3493340">
	<ele>1506.60</ele>
	<time>2025-04-29T08:38:38.000Z</time>
</trkpt>
<trkpt lat="45.8975300" lon="10.3493330">
	<ele>1506.40</ele>
	<time>2025-04-29T08:38:39.000Z</time>
</trkpt>
<trkpt lat="45.8975380" lon="10.3493250">
	<ele>1506.00</ele>
	<time>2025-04-29T08:38:40.000Z</time>
</trkpt>
<trkpt lat="45.8975550" lon="10.3492950">
	<ele>1505.80</ele>
	<time>2025-04-29T08:38:41.000Z</time>
</trkpt>
<trkpt lat="45.8975710" lon="10.3492610">
	<ele>1505.60</ele>
	<time>2025-04-29T08:38:42.000Z</time>
</trkpt>
<trkpt lat="45.8975850" lon="10.3492180">
	<ele>1505.40</ele>
	<time>2025-04-29T08:38:43.000Z</time>
</trkpt>
<trkpt lat="45.8975880" lon="10.3491980">
	<ele>1505.20</ele>
	<time>2025-04-29T08:38:44.000Z</time>
</trkpt>
<trkpt lat="45.8975890" lon="10.3491860">
	<ele>1505.00</ele>
	<time>2025-04-29T08:38:45.000Z</time>
</trkpt>
<trkpt lat="45.8975940" lon="10.3491750">
	<ele>1504.80</ele>
	<time>2025-04-29T08:38:46.000Z</time>
</trkpt>
<trkpt lat="45.8976040" lon="10.3491630">
	<ele>1504.80</ele>
	<time>2025-04-29T08:38:47.000Z</time>
</trkpt>
<trkpt lat="45.8976150" lon="10.3491500">
	<ele>1504.60</ele>
	<time>2025-04-29T08:38:48.000Z</time>
</trkpt>
<trkpt lat="45.8976230" lon="10.3491370">
	<ele>1504.20</ele>
	<time>2025-04-29T08:38:49.000Z</time>
</trkpt>
<trkpt lat="45.8976350" lon="10.3491270">
	<ele>1503.80</ele>
	<time>2025-04-29T08:38:50.000Z</time>
</trkpt>
<trkpt lat="45.8976510" lon="10.3491300">
	<ele>1503.60</ele>
	<time>2025-04-29T08:38:51.000Z</time>
</trkpt>
<trkpt lat="45.8976660" lon="10.3491270">
	<ele>1503.40</ele>
	<time>2025-04-29T08:38:52.000Z</time>
</trkpt>
<trkpt lat="45.8976810" lon="10.3491160">
	<ele>1503.20</ele>
	<time>2025-04-29T08:38:53.000Z</time>
</trkpt>
<trkpt lat="45.8976930" lon="10.3491140">
	<ele>1502.80</ele>
	<time>2025-04-29T08:38:54.000Z</time>
</trkpt>
<trkpt lat="45.8977090" lon="10.3491040">
	<ele>1502.60</ele>
	<time>2025-04-29T08:38:55.000Z</time>
</trkpt>
<trkpt lat="45.8977260" lon="10.3490850">
	<ele>1502.40</ele>
	<time>2025-04-29T08:38:56.000Z</time>
</trkpt>
<trkpt lat="45.8977410" lon="10.3490660">
	<ele>1502.20</ele>
	<time>2025-04-29T08:38:57.000Z</time>
</trkpt>
<trkpt lat="45.8977510" lon="10.3490460">
	<ele>1501.80</ele>
	<time>2025-04-29T08:38:58.000Z</time>
</trkpt>
<trkpt lat="45.8977650" lon="10.3490230">
	<ele>1501.40</ele>
	<time>2025-04-29T08:38:59.000Z</time>
</trkpt>
<trkpt lat="45.8977710" lon="10.3490010">
	<ele>1501.20</ele>
	<time>2025-04-29T08:39:00.000Z</time>
</trkpt>
<trkpt lat="45.8977780" lon="10.3489900">
	<ele>1501.00</ele>
	<time>2025-04-29T08:39:01.000Z</time>
</trkpt>
<trkpt lat="45.8977800" lon="10.3489820">
	<ele>1500.60</ele>
	<time>2025-04-29T08:39:02.000Z</time>
</trkpt>
<trkpt lat="45.8977840" lon="10.3489770">
	<ele>1500.60</ele>
	<time>2025-04-29T08:39:03.000Z</time>
</trkpt>
<trkpt lat="45.8977860" lon="10.3489740">
	<ele>1500.20</ele>
	<time>2025-04-29T08:39:04.000Z</time>
</trkpt>
<trkpt lat="45.8977830" lon="10.3489680">
	<ele>1499.80</ele>
	<time>2025-04-29T08:39:05.000Z</time>
</trkpt>
<trkpt lat="45.8977830" lon="10.3489510">
	<ele>1499.40</ele>
	<time>2025-04-29T08:39:06.000Z</time>
</trkpt>
<trkpt lat="45.8977860" lon="10.3489390">
	<ele>1499.20</ele>
	<time>2025-04-29T08:39:07.000Z</time>
</trkpt>
<trkpt lat="45.8977870" lon="10.3489210">
	<ele>1499.00</ele>
	<time>2025-04-29T08:39:08.000Z</time>
</trkpt>
<trkpt lat="45.8977870" lon="10.3489040">
	<ele>1498.60</ele>
	<time>2025-04-29T08:39:09.000Z</time>
</trkpt>
<trkpt lat="45.8977970" lon="10.3488970">
	<ele>1498.20</ele>
	<time>2025-04-29T08:39:10.000Z</time>
</trkpt>
<trkpt lat="45.8978090" lon="10.3488870">
	<ele>1497.80</ele>
	<time>2025-04-29T08:39:11.000Z</time>
</trkpt>
<trkpt lat="45.8978150" lon="10.3488710">
	<ele>1497.60</ele>
	<time>2025-04-29T08:39:12.000Z</time>
</trkpt>
<trkpt lat="45.8978180" lon="10.3488380">
	<ele>1497.40</ele>
	<time>2025-04-29T08:39:13.000Z</time>
</trkpt>
<trkpt lat="45.8978220" lon="10.3488050">
	<ele>1497.20</ele>
	<time>2025-04-29T08:39:14.000Z</time>
</trkpt>
<trkpt lat="45.8978300" lon="10.3487720">
	<ele>1496.80</ele>
	<time>2025-04-29T08:39:15.000Z</time>
</trkpt>
<trkpt lat="45.8978360" lon="10.3487390">
	<ele>1496.60</ele>
	<time>2025-04-29T08:39:16.000Z</time>
</trkpt>
<trkpt lat="45.8978450" lon="10.3487100">
	<ele>1496.40</ele>
	<time>2025-04-29T08:39:17.000Z</time>
</trkpt>
<trkpt lat="45.8978490" lon="10.3486950">
	<ele>1496.20</ele>
	<time>2025-04-29T08:39:18.000Z</time>
</trkpt>
<trkpt lat="45.8978540" lon="10.3486840">
	<ele>1495.80</ele>
	<time>2025-04-29T08:39:19.000Z</time>
</trkpt>
<trkpt lat="45.8978600" lon="10.3486720">
	<ele>1495.40</ele>
	<time>2025-04-29T08:39:20.000Z</time>
</trkpt>
<trkpt lat="45.8978650" lon="10.3486610">
	<ele>1495.20</ele>
	<time>2025-04-29T08:39:21.000Z</time>
</trkpt>
<trkpt lat="45.8978730" lon="10.3486540">
	<ele>1494.80</ele>
	<time>2025-04-29T08:39:22.000Z</time>
</trkpt>
<trkpt lat="45.8978820" lon="10.3486380">
	<ele>1494.60</ele>
	<time>2025-04-29T08:39:23.000Z</time>
</trkpt>
<trkpt lat="45.8978850" lon="10.3486180">
	<ele>1494.40</ele>
	<time>2025-04-29T08:39:24.000Z</time>
</trkpt>
<trkpt lat="45.8978880" lon="10.3486060">
	<ele>1494.00</ele>
	<time>2025-04-29T08:39:25.000Z</time>
</trkpt>
<trkpt lat="45.8978870" lon="10.3485950">
	<ele>1493.60</ele>
	<time>2025-04-29T08:39:26.000Z</time>
</trkpt>
<trkpt lat="45.8978840" lon="10.3485800">
	<ele>1493.20</ele>
	<time>2025-04-29T08:39:27.000Z</time>
</trkpt>
<trkpt lat="45.8978910" lon="10.3485690">
	<ele>1493.00</ele>
	<time>2025-04-29T08:39:28.000Z</time>
</trkpt>
<trkpt lat="45.8978990" lon="10.3485510">
	<ele>1492.60</ele>
	<time>2025-04-29T08:39:29.000Z</time>
</trkpt>
<trkpt lat="45.8979110" lon="10.3485240">
	<ele>1492.40</ele>
	<time>2025-04-29T08:39:30.000Z</time>
</trkpt>
<trkpt lat="45.8979180" lon="10.3485050">
	<ele>1492.00</ele>
	<time>2025-04-29T08:39:31.000Z</time>
</trkpt>
<trkpt lat="45.8979180" lon="10.3484930">
	<ele>1491.60</ele>
	<time>2025-04-29T08:39:32.000Z</time>
</trkpt>
<trkpt lat="45.8979260" lon="10.3484790">
	<ele>1491.40</ele>
	<time>2025-04-29T08:39:33.000Z</time>
</trkpt>
<trkpt lat="45.8979320" lon="10.3484700">
	<ele>1490.80</ele>
	<time>2025-04-29T08:39:34.000Z</time>
</trkpt>
<trkpt lat="45.8979400" lon="10.3484640">
	<ele>1490.60</ele>
	<time>2025-04-29T08:39:35.000Z</time>
</trkpt>
<trkpt lat="45.8979500" lon="10.3484510">
	<ele>1490.40</ele>
	<time>2025-04-29T08:39:36.000Z</time>
</trkpt>
<trkpt lat="45.8979590" lon="10.3484310">
	<ele>1490.20</ele>
	<time>2025-04-29T08:39:37.000Z</time>
</trkpt>
<trkpt lat="45.8979630" lon="10.3484000">
	<ele>1490.00</ele>
	<time>2025-04-29T08:39:38.000Z</time>
</trkpt>
<trkpt lat="45.8979620" lon="10.3483680">
	<ele>1489.80</ele>
	<time>2025-04-29T08:39:39.000Z</time>
</trkpt>
<trkpt lat="45.8979560" lon="10.3483410">
	<ele>1489.40</ele>
	<time>2025-04-29T08:39:40.000Z</time>
</trkpt>
<trkpt lat="45.8979520" lon="10.3483210">
	<ele>1489.00</ele>
	<time>2025-04-29T08:39:41.000Z</time>
</trkpt>
<trkpt lat="45.8979600" lon="10.3483030">
	<ele>1488.60</ele>
	<time>2025-04-29T08:39:42.000Z</time>
</trkpt>
<trkpt lat="45.8979740" lon="10.3482850">
	<ele>1488.40</ele>
	<time>2025-04-29T08:39:43.000Z</time>
</trkpt>
<trkpt lat="45.8979830" lon="10.3482720">
	<ele>1488.00</ele>
	<time>2025-04-29T08:39:44.000Z</time>
</trkpt>
<trkpt lat="45.8979930" lon="10.3482540">
	<ele>1487.60</ele>
	<time>2025-04-29T08:39:45.000Z</time>
</trkpt>
<trkpt lat="45.8979960" lon="10.3482360">
	<ele>1487.40</ele>
	<time>2025-04-29T08:39:46.000Z</time>
</trkpt>
<trkpt lat="45.8979980" lon="10.3482150">
	<ele>1487.20</ele>
	<time>2025-04-29T08:39:47.000Z</time>
</trkpt>
<trkpt lat="45.8979970" lon="10.3481910">
	<ele>1486.80</ele>
	<time>2025-04-29T08:39:48.000Z</time>
</trkpt>
<trkpt lat="45.8979980" lon="10.3481600">
	<ele>1486.60</ele>
	<time>2025-04-29T08:39:49.000Z</time>
</trkpt>
<trkpt lat="45.8979990" lon="10.3481370">
	<ele>1486.20</ele>
	<time>2025-04-29T08:39:50.000Z</time>
</trkpt>
<trkpt lat="45.8979990" lon="10.3481170">
	<ele>1486.00</ele>
	<time>2025-04-29T08:39:51.000Z</time>
</trkpt>
<trkpt lat="45.8980010" lon="10.3480970">
	<ele>1485.60</ele>
	<time>2025-04-29T08:39:52.000Z</time>
</trkpt>
<trkpt lat="45.8980020" lon="10.3480780">
	<ele>1485.40</ele>
	<time>2025-04-29T08:39:53.000Z</time>
</trkpt>
<trkpt lat="45.8980040" lon="10.3480560">
	<ele>1485.00</ele>
	<time>2025-04-29T08:39:54.000Z</time>
</trkpt>
<trkpt lat="45.8980060" lon="10.3480300">
	<ele>1484.80</ele>
	<time>2025-04-29T08:39:55.000Z</time>
</trkpt>
<trkpt lat="45.8980050" lon="10.3480040">
	<ele>1484.60</ele>
	<time>2025-04-29T08:39:56.000Z</time>
</trkpt>
<trkpt lat="45.8980000" lon="10.3479730">
	<ele>1484.20</ele>
	<time>2025-04-29T08:39:57.000Z</time>
</trkpt>
<trkpt lat="45.8980010" lon="10.3479440">
	<ele>1483.80</ele>
	<time>2025-04-29T08:39:58.000Z</time>
</trkpt>
<trkpt lat="45.8980070" lon="10.3479170">
	<ele>1483.60</ele>
	<time>2025-04-29T08:39:59.000Z</time>
</trkpt>
<trkpt lat="45.8980070" lon="10.3478960">
	<ele>1483.40</ele>
	<time>2025-04-29T08:40:00.000Z</time>
</trkpt>
<trkpt lat="45.8980080" lon="10.3478640">
	<ele>1483.00</ele>
	<time>2025-04-29T08:40:01.000Z</time>
</trkpt>
<trkpt lat="45.8980080" lon="10.3478190">
	<ele>1482.80</ele>
	<time>2025-04-29T08:40:02.000Z</time>
</trkpt>
<trkpt lat="45.8980110" lon="10.3477900">
	<ele>1482.40</ele>
	<time>2025-04-29T08:40:03.000Z</time>
</trkpt>
<trkpt lat="45.8980140" lon="10.3477550">
	<ele>1482.20</ele>
	<time>2025-04-29T08:40:04.000Z</time>
</trkpt>
<trkpt lat="45.8980230" lon="10.3477210">
	<ele>1482.00</ele>
	<time>2025-04-29T08:40:05.000Z</time>
</trkpt>
<trkpt lat="45.8980260" lon="10.3476840">
	<ele>1481.80</ele>
	<time>2025-04-29T08:40:06.000Z</time>
</trkpt>
<trkpt lat="45.8980320" lon="10.3476500">
	<ele>1481.60</ele>
	<time>2025-04-29T08:40:07.000Z</time>
</trkpt>
<trkpt lat="45.8980310" lon="10.3476410">
	<ele>1481.40</ele>
	<time>2025-04-29T08:40:08.000Z</time>
</trkpt>
<trkpt lat="45.8980300" lon="10.3476330">
	<ele>1481.20</ele>
	<time>2025-04-29T08:40:09.000Z</time>
</trkpt>
<trkpt lat="45.8980260" lon="10.3476240">
	<ele>1481.00</ele>
	<time>2025-04-29T08:40:10.000Z</time>
</trkpt>
<trkpt lat="45.8980250" lon="10.3476100">
	<ele>1480.60</ele>
	<time>2025-04-29T08:40:11.000Z</time>
</trkpt>
<trkpt lat="45.8980280" lon="10.3475960">
	<ele>1480.40</ele>
	<time>2025-04-29T08:40:12.000Z</time>
</trkpt>
<trkpt lat="45.8980350" lon="10.3475800">
	<ele>1480.20</ele>
	<time>2025-04-29T08:40:13.000Z</time>
</trkpt>
<trkpt lat="45.8980420" lon="10.3475610">
	<ele>1480.20</ele>
	<time>2025-04-29T08:40:14.000Z</time>
</trkpt>
<trkpt lat="45.8980410" lon="10.3475530">
	<ele>1479.60</ele>
	<time>2025-04-29T08:40:15.000Z</time>
</trkpt>
<trkpt lat="45.8980450" lon="10.3475340">
	<ele>1479.20</ele>
	<time>2025-04-29T08:40:16.000Z</time>
</trkpt>
<trkpt lat="45.8980520" lon="10.3475090">
	<ele>1479.00</ele>
	<time>2025-04-29T08:40:17.000Z</time>
</trkpt>
<trkpt lat="45.8980620" lon="10.3474760">
	<ele>1479.00</ele>
	<time>2025-04-29T08:40:18.000Z</time>
</trkpt>
<trkpt lat="45.8980680" lon="10.3474530">
	<ele>1478.60</ele>
	<time>2025-04-29T08:40:19.000Z</time>
</trkpt>
<trkpt lat="45.8980700" lon="10.3474380">
	<ele>1478.20</ele>
	<time>2025-04-29T08:40:20.000Z</time>
</trkpt>
<trkpt lat="45.8980680" lon="10.3474250">
	<ele>1478.00</ele>
	<time>2025-04-29T08:40:21.000Z</time>
</trkpt>
<trkpt lat="45.8980710" lon="10.3474050">
	<ele>1477.60</ele>
	<time>2025-04-29T08:40:22.000Z</time>
</trkpt>
<trkpt lat="45.8980740" lon="10.3473870">
	<ele>1477.40</ele>
	<time>2025-04-29T08:40:23.000Z</time>
</trkpt>
<trkpt lat="45.8980750" lon="10.3473720">
	<ele>1477.20</ele>
	<time>2025-04-29T08:40:24.000Z</time>
</trkpt>
<trkpt lat="45.8980760" lon="10.3473560">
	<ele>1477.00</ele>
	<time>2025-04-29T08:40:25.000Z</time>
</trkpt>
<trkpt lat="45.8980760" lon="10.3473400">
	<ele>1476.80</ele>
	<time>2025-04-29T08:40:26.000Z</time>
</trkpt>
<trkpt lat="45.8980750" lon="10.3473250">
	<ele>1476.60</ele>
	<time>2025-04-29T08:40:27.000Z</time>
</trkpt>
<trkpt lat="45.8980770" lon="10.3473100">
	<ele>1476.40</ele>
	<time>2025-04-29T08:40:28.000Z</time>
</trkpt>
<trkpt lat="45.8980850" lon="10.3472920">
	<ele>1476.00</ele>
	<time>2025-04-29T08:40:29.000Z</time>
</trkpt>
<trkpt lat="45.8980950" lon="10.3472740">
	<ele>1475.80</ele>
	<time>2025-04-29T08:40:30.000Z</time>
</trkpt>
<trkpt lat="45.8981070" lon="10.3472550">
	<ele>1475.80</ele>
	<time>2025-04-29T08:40:31.000Z</time>
</trkpt>
<trkpt lat="45.8981160" lon="10.3472310">
	<ele>1475.60</ele>
	<time>2025-04-29T08:40:32.000Z</time>
</trkpt>
<trkpt lat="45.8981260" lon="10.3472070">
	<ele>1475.40</ele>
	<time>2025-04-29T08:40:33.000Z</time>
</trkpt>
<trkpt lat="45.8981350" lon="10.3471940">
	<ele>1475.20</ele>
	<time>2025-04-29T08:40:34.000Z</time>
</trkpt>
<trkpt lat="45.8981440" lon="10.3471810">
	<ele>1475.00</ele>
	<time>2025-04-29T08:40:35.000Z</time>
</trkpt>
<trkpt lat="45.8981520" lon="10.3471700">
	<ele>1475.00</ele>
	<time>2025-04-29T08:40:36.000Z</time>
</trkpt>
<trkpt lat="45.8981590" lon="10.3471580">
	<ele>1474.60</ele>
	<time>2025-04-29T08:40:37.000Z</time>
</trkpt>
<trkpt lat="45.8981620" lon="10.3471400">
	<ele>1474.40</ele>
	<time>2025-04-29T08:40:38.000Z</time>
</trkpt>
<trkpt lat="45.8981640" lon="10.3471200">
	<ele>1474.40</ele>
	<time>2025-04-29T08:40:39.000Z</time>
</trkpt>
<trkpt lat="45.8981690" lon="10.3470990">
	<ele>1474.00</ele>
	<time>2025-04-29T08:40:40.000Z</time>
</trkpt>
<trkpt lat="45.8981690" lon="10.3470790">
	<ele>1473.80</ele>
	<time>2025-04-29T08:40:41.000Z</time>
</trkpt>
<trkpt lat="45.8981750" lon="10.3470560">
	<ele>1473.40</ele>
	<time>2025-04-29T08:40:42.000Z</time>
</trkpt>
<trkpt lat="45.8981810" lon="10.3470370">
	<ele>1473.00</ele>
	<time>2025-04-29T08:40:43.000Z</time>
</trkpt>
<trkpt lat="45.8981910" lon="10.3470030">
	<ele>1472.80</ele>
	<time>2025-04-29T08:40:44.000Z</time>
</trkpt>
<trkpt lat="45.8981990" lon="10.3469770">
	<ele>1472.80</ele>
	<time>2025-04-29T08:40:45.000Z</time>
</trkpt>
<trkpt lat="45.8982090" lon="10.3469490">
	<ele>1472.60</ele>
	<time>2025-04-29T08:40:46.000Z</time>
</trkpt>
<trkpt lat="45.8982200" lon="10.3469230">
	<ele>1472.60</ele>
	<time>2025-04-29T08:40:47.000Z</time>
</trkpt>
<trkpt lat="45.8982290" lon="10.3468850">
	<ele>1472.40</ele>
	<time>2025-04-29T08:40:48.000Z</time>
</trkpt>
<trkpt lat="45.8982350" lon="10.3468610">
	<ele>1472.40</ele>
	<time>2025-04-29T08:40:49.000Z</time>
</trkpt>
<trkpt lat="45.8982400" lon="10.3468370">
	<ele>1472.20</ele>
	<time>2025-04-29T08:40:50.000Z</time>
</trkpt>
<trkpt lat="45.8982410" lon="10.3468210">
	<ele>1472.00</ele>
	<time>2025-04-29T08:40:51.000Z</time>
</trkpt>
<trkpt lat="45.8982290" lon="10.3468120">
	<ele>1471.80</ele>
	<time>2025-04-29T08:40:52.000Z</time>
</trkpt>
<trkpt lat="45.8982230" lon="10.3468010">
	<ele>1471.80</ele>
	<time>2025-04-29T08:40:53.000Z</time>
</trkpt>
<trkpt lat="45.8982240" lon="10.3467900">
	<ele>1471.60</ele>
	<time>2025-04-29T08:40:54.000Z</time>
</trkpt>
<trkpt lat="45.8982200" lon="10.3467840">
	<ele>1471.60</ele>
	<time>2025-04-29T08:40:55.000Z</time>
</trkpt>
<trkpt lat="45.8982250" lon="10.3467730">
	<ele>1471.40</ele>
	<time>2025-04-29T08:40:56.000Z</time>
</trkpt>
<trkpt lat="45.8982260" lon="10.3467600">
	<ele>1471.20</ele>
	<time>2025-04-29T08:40:57.000Z</time>
</trkpt>
<trkpt lat="45.8982270" lon="10.3467390">
	<ele>1470.80</ele>
	<time>2025-04-29T08:40:58.000Z</time>
</trkpt>
<trkpt lat="45.8982220" lon="10.3467170">
	<ele>1470.60</ele>
	<time>2025-04-29T08:40:59.000Z</time>
</trkpt>
<trkpt lat="45.8982140" lon="10.3466860">
	<ele>1470.40</ele>
	<time>2025-04-29T08:41:00.000Z</time>
</trkpt>
<trkpt lat="45.8982070" lon="10.3466560">
	<ele>1470.20</ele>
	<time>2025-04-29T08:41:01.000Z</time>
</trkpt>
<trkpt lat="45.8982050" lon="10.3466230">
	<ele>1470.00</ele>
	<time>2025-04-29T08:41:02.000Z</time>
</trkpt>
<trkpt lat="45.8982010" lon="10.3466000">
	<ele>1469.80</ele>
	<time>2025-04-29T08:41:03.000Z</time>
</trkpt>
<trkpt lat="45.8981960" lon="10.3465800">
	<ele>1469.80</ele>
	<time>2025-04-29T08:41:04.000Z</time>
</trkpt>
<trkpt lat="45.8981880" lon="10.3465570">
	<ele>1469.60</ele>
	<time>2025-04-29T08:41:05.000Z</time>
</trkpt>
<trkpt lat="45.8981860" lon="10.3465320">
	<ele>1469.40</ele>
	<time>2025-04-29T08:41:06.000Z</time>
</trkpt>
<trkpt lat="45.8981840" lon="10.3465040">
	<ele>1469.40</ele>
	<time>2025-04-29T08:41:07.000Z</time>
</trkpt>
<trkpt lat="45.8981760" lon="10.3464790">
	<ele>1469.20</ele>
	<time>2025-04-29T08:41:08.000Z</time>
</trkpt>
<trkpt lat="45.8981760" lon="10.3464600">
	<ele>1469.20</ele>
	<time>2025-04-29T08:41:09.000Z</time>
</trkpt>
<trkpt lat="45.8981810" lon="10.3464380">
	<ele>1469.00</ele>
	<time>2025-04-29T08:41:10.000Z</time>
</trkpt>
<trkpt lat="45.8981930" lon="10.3464160">
	<ele>1469.00</ele>
	<time>2025-04-29T08:41:11.000Z</time>
</trkpt>
<trkpt lat="45.8982010" lon="10.3464000">
	<ele>1468.60</ele>
	<time>2025-04-29T08:41:12.000Z</time>
</trkpt>
<trkpt lat="45.8982030" lon="10.3463950">
	<ele>1468.40</ele>
	<time>2025-04-29T08:41:13.000Z</time>
</trkpt>
<trkpt lat="45.8982140" lon="10.3464030">
	<ele>1468.20</ele>
	<time>2025-04-29T08:41:14.000Z</time>
</trkpt>
<trkpt lat="45.8982190" lon="10.3464070">
	<ele>1467.80</ele>
	<time>2025-04-29T08:41:15.000Z</time>
</trkpt>
<trkpt lat="45.8982290" lon="10.3463990">
	<ele>1467.80</ele>
	<time>2025-04-29T08:41:16.000Z</time>
</trkpt>
<trkpt lat="45.8982400" lon="10.3463830">
	<ele>1467.60</ele>
	<time>2025-04-29T08:41:17.000Z</time>
</trkpt>
<trkpt lat="45.8982500" lon="10.3463580">
	<ele>1467.40</ele>
	<time>2025-04-29T08:41:18.000Z</time>
</trkpt>
<trkpt lat="45.8982640" lon="10.3463370">
	<ele>1467.00</ele>
	<time>2025-04-29T08:41:19.000Z</time>
</trkpt>
<trkpt lat="45.8982750" lon="10.3463300">
	<ele>1466.80</ele>
	<time>2025-04-29T08:41:20.000Z</time>
</trkpt>
<trkpt lat="45.8982830" lon="10.3463260">
	<ele>1466.60</ele>
	<time>2025-04-29T08:41:21.000Z</time>
</trkpt>
<trkpt lat="45.8982940" lon="10.3463140">
	<ele>1466.60</ele>
	<time>2025-04-29T08:41:22.000Z</time>
</trkpt>
<trkpt lat="45.8983050" lon="10.3463020">
	<ele>1466.40</ele>
	<time>2025-04-29T08:41:23.000Z</time>
</trkpt>
<trkpt lat="45.8983070" lon="10.3462900">
	<ele>1466.20</ele>
	<time>2025-04-29T08:41:24.000Z</time>
</trkpt>
<trkpt lat="45.8983100" lon="10.3462760">
	<ele>1466.00</ele>
	<time>2025-04-29T08:41:25.000Z</time>
</trkpt>
<trkpt lat="45.8983190" lon="10.3462630">
	<ele>1465.80</ele>
	<time>2025-04-29T08:41:26.000Z</time>
</trkpt>
<trkpt lat="45.8983200" lon="10.3462480">
	<ele>1465.60</ele>
	<time>2025-04-29T08:41:27.000Z</time>
</trkpt>
<trkpt lat="45.8983190" lon="10.3462290">
	<ele>1465.40</ele>
	<time>2025-04-29T08:41:28.000Z</time>
</trkpt>
<trkpt lat="45.8983190" lon="10.3462060">
	<ele>1465.20</ele>
	<time>2025-04-29T08:41:29.000Z</time>
</trkpt>
<trkpt lat="45.8983290" lon="10.3461890">
	<ele>1465.00</ele>
	<time>2025-04-29T08:41:30.000Z</time>
</trkpt>
<trkpt lat="45.8983420" lon="10.3461720">
	<ele>1465.00</ele>
	<time>2025-04-29T08:41:31.000Z</time>
</trkpt>
<trkpt lat="45.8983600" lon="10.3461590">
	<ele>1464.80</ele>
	<time>2025-04-29T08:41:32.000Z</time>
</trkpt>
<trkpt lat="45.8983820" lon="10.3461330">
	<ele>1464.60</ele>
	<time>2025-04-29T08:41:33.000Z</time>
</trkpt>
<trkpt lat="45.8984120" lon="10.3461070">
	<ele>1464.40</ele>
	<time>2025-04-29T08:41:34.000Z</time>
</trkpt>
<trkpt lat="45.8984260" lon="10.3460900">
	<ele>1464.20</ele>
	<time>2025-04-29T08:41:35.000Z</time>
</trkpt>
<trkpt lat="45.8984380" lon="10.3460730">
	<ele>1464.00</ele>
	<time>2025-04-29T08:41:36.000Z</time>
</trkpt>
<trkpt lat="45.8984470" lon="10.3460640">
	<ele>1463.80</ele>
	<time>2025-04-29T08:41:37.000Z</time>
</trkpt>
<trkpt lat="45.8984450" lon="10.3460550">
	<ele>1463.60</ele>
	<time>2025-04-29T08:41:38.000Z</time>
</trkpt>
<trkpt lat="45.8984520" lon="10.3460420">
	<ele>1463.40</ele>
	<time>2025-04-29T08:41:39.000Z</time>
</trkpt>
<trkpt lat="45.8984550" lon="10.3460300">
	<ele>1463.20</ele>
	<time>2025-04-29T08:41:40.000Z</time>
</trkpt>
<trkpt lat="45.8984600" lon="10.3460170">
	<ele>1463.20</ele>
	<time>2025-04-29T08:41:41.000Z</time>
</trkpt>
<trkpt lat="45.8984620" lon="10.3460010">
	<ele>1463.00</ele>
	<time>2025-04-29T08:41:42.000Z</time>
</trkpt>
<trkpt lat="45.8984570" lon="10.3459910">
	<ele>1462.80</ele>
	<time>2025-04-29T08:41:43.000Z</time>
</trkpt>
<trkpt lat="45.8984610" lon="10.3459840">
	<ele>1462.80</ele>
	<time>2025-04-29T08:41:44.000Z</time>
</trkpt>
<trkpt lat="45.8984610" lon="10.3459770">
	<ele>1462.40</ele>
	<time>2025-04-29T08:41:45.000Z</time>
</trkpt>
<trkpt lat="45.8984530" lon="10.3459700">
	<ele>1462.00</ele>
	<time>2025-04-29T08:41:46.000Z</time>
</trkpt>
<trkpt lat="45.8984730" lon="10.3459550">
	<ele>1461.60</ele>
	<time>2025-04-29T08:41:47.000Z</time>
</trkpt>
<trkpt lat="45.8984740" lon="10.3459480">
	<ele>1461.00</ele>
	<time>2025-04-29T08:41:48.000Z</time>
</trkpt>
<trkpt lat="45.8984740" lon="10.3459450">
	<ele>1460.60</ele>
	<time>2025-04-29T08:41:49.000Z</time>
</trkpt>
<trkpt lat="45.8984760" lon="10.3459430">
	<ele>1460.40</ele>
	<time>2025-04-29T08:41:50.000Z</time>
</trkpt>
<trkpt lat="45.8984800" lon="10.3459350">
	<ele>1460.20</ele>
	<time>2025-04-29T08:41:51.000Z</time>
</trkpt>
<trkpt lat="45.8984840" lon="10.3459230">
	<ele>1460.20</ele>
	<time>2025-04-29T08:41:52.000Z</time>
</trkpt>
<trkpt lat="45.8984860" lon="10.3459130">
	<ele>1460.00</ele>
	<time>2025-04-29T08:41:53.000Z</time>
</trkpt>
<trkpt lat="45.8984870" lon="10.3459080">
	<ele>1459.60</ele>
	<time>2025-04-29T08:41:54.000Z</time>
</trkpt>
<trkpt lat="45.8984880" lon="10.3459040">
	<ele>1459.40</ele>
	<time>2025-04-29T08:41:55.000Z</time>
</trkpt>
<trkpt lat="45.8984850" lon="10.3458970">
	<ele>1459.20</ele>
	<time>2025-04-29T08:41:56.000Z</time>
</trkpt>
<trkpt lat="45.8984770" lon="10.3458970">
	<ele>1459.00</ele>
	<time>2025-04-29T08:41:57.000Z</time>
</trkpt>
<trkpt lat="45.8984730" lon="10.3458900">
	<ele>1458.80</ele>
	<time>2025-04-29T08:41:58.000Z</time>
</trkpt>
<trkpt lat="45.8984760" lon="10.3458880">
	<ele>1458.60</ele>
	<time>2025-04-29T08:41:59.000Z</time>
</trkpt>
<trkpt lat="45.8984840" lon="10.3458840">
	<ele>1458.20</ele>
	<time>2025-04-29T08:42:00.000Z</time>
</trkpt>
<trkpt lat="45.8984900" lon="10.3458790">
	<ele>1458.00</ele>
	<time>2025-04-29T08:42:01.000Z</time>
</trkpt>
<trkpt lat="45.8985010" lon="10.3458770">
	<ele>1457.80</ele>
	<time>2025-04-29T08:42:02.000Z</time>
</trkpt>
<trkpt lat="45.8985150" lon="10.3458750">
	<ele>1457.60</ele>
	<time>2025-04-29T08:42:03.000Z</time>
</trkpt>
<trkpt lat="45.8985300" lon="10.3458630">
	<ele>1457.60</ele>
	<time>2025-04-29T08:42:04.000Z</time>
</trkpt>
<trkpt lat="45.8985470" lon="10.3458610">
	<ele>1457.40</ele>
	<time>2025-04-29T08:42:05.000Z</time>
</trkpt>
<trkpt lat="45.8985660" lon="10.3458650">
	<ele>1457.20</ele>
	<time>2025-04-29T08:42:06.000Z</time>
</trkpt>
<trkpt lat="45.8985810" lon="10.3458630">
	<ele>1457.00</ele>
	<time>2025-04-29T08:42:07.000Z</time>
</trkpt>
<trkpt lat="45.8985900" lon="10.3458550">
	<ele>1456.80</ele>
	<time>2025-04-29T08:42:08.000Z</time>
</trkpt>
<trkpt lat="45.8986020" lon="10.3458490">
	<ele>1456.80</ele>
	<time>2025-04-29T08:42:09.000Z</time>
</trkpt>
<trkpt lat="45.8986090" lon="10.3458410">
	<ele>1456.60</ele>
	<time>2025-04-29T08:42:10.000Z</time>
</trkpt>
<trkpt lat="45.8986150" lon="10.3458310">
	<ele>1456.60</ele>
	<time>2025-04-29T08:42:11.000Z</time>
</trkpt>
<trkpt lat="45.8986200" lon="10.3458200">
	<ele>1456.20</ele>
	<time>2025-04-29T08:42:12.000Z</time>
</trkpt>
<trkpt lat="45.8986300" lon="10.3458110">
	<ele>1456.00</ele>
	<time>2025-04-29T08:42:13.000Z</time>
</trkpt>
<trkpt lat="45.8986430" lon="10.3458040">
	<ele>1455.80</ele>
	<time>2025-04-29T08:42:14.000Z</time>
</trkpt>
<trkpt lat="45.8986560" lon="10.3457980">
	<ele>1455.60</ele>
	<time>2025-04-29T08:42:15.000Z</time>
</trkpt>
<trkpt lat="45.8986650" lon="10.3457840">
	<ele>1455.40</ele>
	<time>2025-04-29T08:42:16.000Z</time>
</trkpt>
<trkpt lat="45.8986730" lon="10.3457700">
	<ele>1455.20</ele>
	<time>2025-04-29T08:42:17.000Z</time>
</trkpt>
<trkpt lat="45.8986810" lon="10.3457520">
	<ele>1455.00</ele>
	<time>2025-04-29T08:42:18.000Z</time>
</trkpt>
<trkpt lat="45.8986910" lon="10.3457320">
	<ele>1454.80</ele>
	<time>2025-04-29T08:42:19.000Z</time>
</trkpt>
<trkpt lat="45.8986990" lon="10.3457160">
	<ele>1454.60</ele>
	<time>2025-04-29T08:42:20.000Z</time>
</trkpt>
<trkpt lat="45.8987050" lon="10.3457020">
	<ele>1454.40</ele>
	<time>2025-04-29T08:42:21.000Z</time>
</trkpt>
<trkpt lat="45.8987150" lon="10.3456930">
	<ele>1454.20</ele>
	<time>2025-04-29T08:42:22.000Z</time>
</trkpt>
<trkpt lat="45.8987200" lon="10.3456860">
	<ele>1454.00</ele>
	<time>2025-04-29T08:42:23.000Z</time>
</trkpt>
<trkpt lat="45.8987230" lon="10.3456750">
	<ele>1453.80</ele>
	<time>2025-04-29T08:42:24.000Z</time>
</trkpt>
<trkpt lat="45.8987290" lon="10.3456620">
	<ele>1453.40</ele>
	<time>2025-04-29T08:42:25.000Z</time>
</trkpt>
<trkpt lat="45.8987340" lon="10.3456420">
	<ele>1453.20</ele>
	<time>2025-04-29T08:42:26.000Z</time>
</trkpt>
<trkpt lat="45.8987400" lon="10.3456220">
	<ele>1452.80</ele>
	<time>2025-04-29T08:42:27.000Z</time>
</trkpt>
<trkpt lat="45.8987440" lon="10.3456030">
	<ele>1452.60</ele>
	<time>2025-04-29T08:42:28.000Z</time>
</trkpt>
<trkpt lat="45.8987490" lon="10.3455810">
	<ele>1452.00</ele>
	<time>2025-04-29T08:42:29.000Z</time>
</trkpt>
<trkpt lat="45.8987550" lon="10.3455590">
	<ele>1451.60</ele>
	<time>2025-04-29T08:42:30.000Z</time>
</trkpt>
<trkpt lat="45.8987620" lon="10.3455400">
	<ele>1451.40</ele>
	<time>2025-04-29T08:42:31.000Z</time>
</trkpt>
<trkpt lat="45.8987700" lon="10.3455230">
	<ele>1451.20</ele>
	<time>2025-04-29T08:42:32.000Z</time>
</trkpt>
<trkpt lat="45.8987760" lon="10.3455130">
	<ele>1451.00</ele>
	<time>2025-04-29T08:42:33.000Z</time>
</trkpt>
<trkpt lat="45.8987830" lon="10.3455000">
	<ele>1450.80</ele>
	<time>2025-04-29T08:42:34.000Z</time>
</trkpt>
<trkpt lat="45.8987930" lon="10.3454820">
	<ele>1450.60</ele>
	<time>2025-04-29T08:42:35.000Z</time>
</trkpt>
<trkpt lat="45.8988040" lon="10.3454600">
	<ele>1450.60</ele>
	<time>2025-04-29T08:42:36.000Z</time>
</trkpt>
<trkpt lat="45.8988140" lon="10.3454370">
	<ele>1450.20</ele>
	<time>2025-04-29T08:42:37.000Z</time>
</trkpt>
<trkpt lat="45.8988240" lon="10.3454120">
	<ele>1450.00</ele>
	<time>2025-04-29T08:42:38.000Z</time>
</trkpt>
<trkpt lat="45.8988320" lon="10.3453840">
	<ele>1449.60</ele>
	<time>2025-04-29T08:42:39.000Z</time>
</trkpt>
<trkpt lat="45.8988460" lon="10.3453660">
	<ele>1449.20</ele>
	<time>2025-04-29T08:42:40.000Z</time>
</trkpt>
<trkpt lat="45.8988560" lon="10.3453480">
	<ele>1449.00</ele>
	<time>2025-04-29T08:42:41.000Z</time>
</trkpt>
<trkpt lat="45.8988660" lon="10.3453280">
	<ele>1448.60</ele>
	<time>2025-04-29T08:42:42.000Z</time>
</trkpt>
<trkpt lat="45.8988730" lon="10.3453100">
	<ele>1448.40</ele>
	<time>2025-04-29T08:42:43.000Z</time>
</trkpt>
<trkpt lat="45.8988720" lon="10.3452810">
	<ele>1448.20</ele>
	<time>2025-04-29T08:42:44.000Z</time>
</trkpt>
<trkpt lat="45.8988740" lon="10.3452620">
	<ele>1448.00</ele>
	<time>2025-04-29T08:42:45.000Z</time>
</trkpt>
<trkpt lat="45.8988720" lon="10.3452410">
	<ele>1447.80</ele>
	<time>2025-04-29T08:42:46.000Z</time>
</trkpt>
<trkpt lat="45.8988720" lon="10.3452210">
	<ele>1447.60</ele>
	<time>2025-04-29T08:42:47.000Z</time>
</trkpt>
<trkpt lat="45.8988740" lon="10.3451930">
	<ele>1447.40</ele>
	<time>2025-04-29T08:42:48.000Z</time>
</trkpt>
<trkpt lat="45.8988810" lon="10.3451670">
	<ele>1447.20</ele>
	<time>2025-04-29T08:42:49.000Z</time>
</trkpt>
<trkpt lat="45.8988840" lon="10.3451400">
	<ele>1446.80</ele>
	<time>2025-04-29T08:42:50.000Z</time>
</trkpt>
<trkpt lat="45.8988870" lon="10.3451110">
	<ele>1446.60</ele>
	<time>2025-04-29T08:42:51.000Z</time>
</trkpt>
<trkpt lat="45.8988930" lon="10.3450800">
	<ele>1446.40</ele>
	<time>2025-04-29T08:42:52.000Z</time>
</trkpt>
<trkpt lat="45.8989010" lon="10.3450530">
	<ele>1446.20</ele>
	<time>2025-04-29T08:42:53.000Z</time>
</trkpt>
<trkpt lat="45.8989120" lon="10.3450280">
	<ele>1445.60</ele>
	<time>2025-04-29T08:42:54.000Z</time>
</trkpt>
<trkpt lat="45.8989230" lon="10.3450050">
	<ele>1445.20</ele>
	<time>2025-04-29T08:42:55.000Z</time>
</trkpt>
<trkpt lat="45.8989340" lon="10.3449840">
	<ele>1444.80</ele>
	<time>2025-04-29T08:42:56.000Z</time>
</trkpt>
<trkpt lat="45.8989460" lon="10.3449640">
	<ele>1444.40</ele>
	<time>2025-04-29T08:42:57.000Z</time>
</trkpt>
<trkpt lat="45.8989600" lon="10.3449430">
	<ele>1444.20</ele>
	<time>2025-04-29T08:42:58.000Z</time>
</trkpt>
<trkpt lat="45.8989670" lon="10.3449120">
	<ele>1444.00</ele>
	<time>2025-04-29T08:42:59.000Z</time>
</trkpt>
<trkpt lat="45.8989710" lon="10.3448880">
	<ele>1443.80</ele>
	<time>2025-04-29T08:43:00.000Z</time>
</trkpt>
<trkpt lat="45.8989790" lon="10.3448600">
	<ele>1443.60</ele>
	<time>2025-04-29T08:43:01.000Z</time>
</trkpt>
<trkpt lat="45.8989870" lon="10.3448350">
	<ele>1443.40</ele>
	<time>2025-04-29T08:43:02.000Z</time>
</trkpt>
<trkpt lat="45.8989910" lon="10.3448140">
	<ele>1443.00</ele>
	<time>2025-04-29T08:43:03.000Z</time>
</trkpt>
<trkpt lat="45.8989920" lon="10.3448000">
	<ele>1442.80</ele>
	<time>2025-04-29T08:43:04.000Z</time>
</trkpt>
<trkpt lat="45.8990000" lon="10.3447920">
	<ele>1442.40</ele>
	<time>2025-04-29T08:43:05.000Z</time>
</trkpt>
<trkpt lat="45.8990060" lon="10.3447770">
	<ele>1441.80</ele>
	<time>2025-04-29T08:43:06.000Z</time>
</trkpt>
<trkpt lat="45.8990100" lon="10.3447590">
	<ele>1441.60</ele>
	<time>2025-04-29T08:43:07.000Z</time>
</trkpt>
<trkpt lat="45.8990110" lon="10.3447350">
	<ele>1441.40</ele>
	<time>2025-04-29T08:43:08.000Z</time>
</trkpt>
<trkpt lat="45.8990180" lon="10.3447140">
	<ele>1441.20</ele>
	<time>2025-04-29T08:43:09.000Z</time>
</trkpt>
<trkpt lat="45.8990270" lon="10.3447020">
	<ele>1440.80</ele>
	<time>2025-04-29T08:43:10.000Z</time>
</trkpt>
<trkpt lat="45.8990320" lon="10.3446920">
	<ele>1440.40</ele>
	<time>2025-04-29T08:43:11.000Z</time>
</trkpt>
<trkpt lat="45.8990310" lon="10.3446800">
	<ele>1440.20</ele>
	<time>2025-04-29T08:43:12.000Z</time>
</trkpt>
<trkpt lat="45.8990250" lon="10.3446600">
	<ele>1440.00</ele>
	<time>2025-04-29T08:43:13.000Z</time>
</trkpt>
<trkpt lat="45.8990230" lon="10.3446440">
	<ele>1439.80</ele>
	<time>2025-04-29T08:43:14.000Z</time>
</trkpt>
<trkpt lat="45.8990270" lon="10.3446270">
	<ele>1439.40</ele>
	<time>2025-04-29T08:43:15.000Z</time>
</trkpt>
<trkpt lat="45.8990300" lon="10.3446130">
	<ele>1439.20</ele>
	<time>2025-04-29T08:43:16.000Z</time>
</trkpt>
<trkpt lat="45.8990420" lon="10.3445960">
	<ele>1439.00</ele>
	<time>2025-04-29T08:43:17.000Z</time>
</trkpt>
<trkpt lat="45.8990500" lon="10.3445800">
	<ele>1438.60</ele>
	<time>2025-04-29T08:43:18.000Z</time>
</trkpt>
<trkpt lat="45.8990600" lon="10.3445690">
	<ele>1438.20</ele>
	<time>2025-04-29T08:43:19.000Z</time>
</trkpt>
<trkpt lat="45.8990670" lon="10.3445560">
	<ele>1437.80</ele>
	<time>2025-04-29T08:43:20.000Z</time>
</trkpt>
<trkpt lat="45.8990760" lon="10.3445400">
	<ele>1437.40</ele>
	<time>2025-04-29T08:43:21.000Z</time>
</trkpt>
<trkpt lat="45.8990880" lon="10.3445260">
	<ele>1437.00</ele>
	<time>2025-04-29T08:43:22.000Z</time>
</trkpt>
<trkpt lat="45.8991000" lon="10.3445130">
	<ele>1436.80</ele>
	<time>2025-04-29T08:43:23.000Z</time>
</trkpt>
<trkpt lat="45.8991120" lon="10.3445060">
	<ele>1436.60</ele>
	<time>2025-04-29T08:43:24.000Z</time>
</trkpt>
<trkpt lat="45.8991320" lon="10.3445070">
	<ele>1436.60</ele>
	<time>2025-04-29T08:43:25.000Z</time>
</trkpt>
<trkpt lat="45.8991430" lon="10.3444960">
	<ele>1436.00</ele>
	<time>2025-04-29T08:43:26.000Z</time>
</trkpt>
<trkpt lat="45.8991510" lon="10.3444800">
	<ele>1435.60</ele>
	<time>2025-04-29T08:43:27.000Z</time>
</trkpt>
<trkpt lat="45.8991580" lon="10.3444650">
	<ele>1435.20</ele>
	<time>2025-04-29T08:43:28.000Z</time>
</trkpt>
<trkpt lat="45.8991650" lon="10.3444460">
	<ele>1435.00</ele>
	<time>2025-04-29T08:43:29.000Z</time>
</trkpt>
<trkpt lat="45.8991740" lon="10.3444270">
	<ele>1434.80</ele>
	<time>2025-04-29T08:43:30.000Z</time>
</trkpt>
<trkpt lat="45.8991800" lon="10.3444200">
	<ele>1434.60</ele>
	<time>2025-04-29T08:43:31.000Z</time>
</trkpt>
<trkpt lat="45.8991880" lon="10.3444080">
	<ele>1434.40</ele>
	<time>2025-04-29T08:43:32.000Z</time>
</trkpt>
<trkpt lat="45.8991910" lon="10.3443920">
	<ele>1434.40</ele>
	<time>2025-04-29T08:43:33.000Z</time>
</trkpt>
<trkpt lat="45.8991880" lon="10.3443770">
	<ele>1433.80</ele>
	<time>2025-04-29T08:43:34.000Z</time>
</trkpt>
<trkpt lat="45.8991910" lon="10.3443590">
	<ele>1433.40</ele>
	<time>2025-04-29T08:43:35.000Z</time>
</trkpt>
<trkpt lat="45.8991960" lon="10.3443400">
	<ele>1433.00</ele>
	<time>2025-04-29T08:43:36.000Z</time>
</trkpt>
<trkpt lat="45.8992050" lon="10.3443130">
	<ele>1432.60</ele>
	<time>2025-04-29T08:43:37.000Z</time>
</trkpt>
<trkpt lat="45.8992140" lon="10.3442880">
	<ele>1432.40</ele>
	<time>2025-04-29T08:43:38.000Z</time>
</trkpt>
<trkpt lat="45.8992250" lon="10.3442680">
	<ele>1432.00</ele>
	<time>2025-04-29T08:43:39.000Z</time>
</trkpt>
<trkpt lat="45.8992360" lon="10.3442580">
	<ele>1431.40</ele>
	<time>2025-04-29T08:43:40.000Z</time>
</trkpt>
<trkpt lat="45.8992460" lon="10.3442450">
	<ele>1431.00</ele>
	<time>2025-04-29T08:43:41.000Z</time>
</trkpt>
<trkpt lat="45.8992470" lon="10.3442280">
	<ele>1430.80</ele>
	<time>2025-04-29T08:43:42.000Z</time>
</trkpt>
<trkpt lat="45.8992550" lon="10.3442090">
	<ele>1430.60</ele>
	<time>2025-04-29T08:43:43.000Z</time>
</trkpt>
<trkpt lat="45.8992640" lon="10.3441750">
	<ele>1430.40</ele>
	<time>2025-04-29T08:43:44.000Z</time>
</trkpt>
<trkpt lat="45.8992680" lon="10.3441480">
	<ele>1430.00</ele>
	<time>2025-04-29T08:43:45.000Z</time>
</trkpt>
<trkpt lat="45.8992840" lon="10.3441220">
	<ele>1429.60</ele>
	<time>2025-04-29T08:43:46.000Z</time>
</trkpt>
<trkpt lat="45.8992860" lon="10.3441130">
	<ele>1429.40</ele>
	<time>2025-04-29T08:43:47.000Z</time>
</trkpt>
<trkpt lat="45.8992770" lon="10.3441070">
	<ele>1429.40</ele>
	<time>2025-04-29T08:43:48.000Z</time>
</trkpt>
<trkpt lat="45.8992840" lon="10.3440930">
	<ele>1429.20</ele>
	<time>2025-04-29T08:43:49.000Z</time>
</trkpt>
<trkpt lat="45.8992890" lon="10.3440840">
	<ele>1429.00</ele>
	<time>2025-04-29T08:43:50.000Z</time>
</trkpt>
<trkpt lat="45.8992960" lon="10.3440720">
	<ele>1429.00</ele>
	<time>2025-04-29T08:43:51.000Z</time>
</trkpt>
<trkpt lat="45.8993070" lon="10.3440580">
	<ele>1428.80</ele>
	<time>2025-04-29T08:43:52.000Z</time>
</trkpt>
<trkpt lat="45.8993170" lon="10.3440440">
	<ele>1428.40</ele>
	<time>2025-04-29T08:43:53.000Z</time>
</trkpt>
<trkpt lat="45.8993190" lon="10.3440370">
	<ele>1428.20</ele>
	<time>2025-04-29T08:43:54.000Z</time>
</trkpt>
<trkpt lat="45.8993240" lon="10.3440230">
	<ele>1427.80</ele>
	<time>2025-04-29T08:43:55.000Z</time>
</trkpt>
<trkpt lat="45.8993270" lon="10.3440090">
	<ele>1427.80</ele>
	<time>2025-04-29T08:43:56.000Z</time>
</trkpt>
<trkpt lat="45.8993320" lon="10.3439900">
	<ele>1427.60</ele>
	<time>2025-04-29T08:43:57.000Z</time>
</trkpt>
<trkpt lat="45.8993370" lon="10.3439770">
	<ele>1427.40</ele>
	<time>2025-04-29T08:43:58.000Z</time>
</trkpt>
<trkpt lat="45.8993380" lon="10.3439620">
	<ele>1427.00</ele>
	<time>2025-04-29T08:43:59.000Z</time>
</trkpt>
<trkpt lat="45.8993370" lon="10.3439460">
	<ele>1426.60</ele>
	<time>2025-04-29T08:44:00.000Z</time>
</trkpt>
<trkpt lat="45.8993410" lon="10.3439310">
	<ele>1426.40</ele>
	<time>2025-04-29T08:44:01.000Z</time>
</trkpt>
<trkpt lat="45.8993480" lon="10.3439170">
	<ele>1426.20</ele>
	<time>2025-04-29T08:44:02.000Z</time>
</trkpt>
<trkpt lat="45.8993530" lon="10.3439060">
	<ele>1426.00</ele>
	<time>2025-04-29T08:44:03.000Z</time>
</trkpt>
<trkpt lat="45.8993550" lon="10.3438930">
	<ele>1425.60</ele>
	<time>2025-04-29T08:44:04.000Z</time>
</trkpt>
<trkpt lat="45.8993460" lon="10.3438800">
	<ele>1425.40</ele>
	<time>2025-04-29T08:44:05.000Z</time>
</trkpt>
<trkpt lat="45.8993370" lon="10.3438640">
	<ele>1425.40</ele>
	<time>2025-04-29T08:44:06.000Z</time>
</trkpt>
<trkpt lat="45.8993320" lon="10.3438440">
	<ele>1425.20</ele>
	<time>2025-04-29T08:44:07.000Z</time>
</trkpt>
<trkpt lat="45.8993330" lon="10.3438280">
	<ele>1425.00</ele>
	<time>2025-04-29T08:44:08.000Z</time>
</trkpt>
<trkpt lat="45.8993290" lon="10.3438170">
	<ele>1424.60</ele>
	<time>2025-04-29T08:44:09.000Z</time>
</trkpt>
<trkpt lat="45.8993320" lon="10.3438050">
	<ele>1424.40</ele>
	<time>2025-04-29T08:44:10.000Z</time>
</trkpt>
<trkpt lat="45.8993390" lon="10.3437960">
	<ele>1424.20</ele>
	<time>2025-04-29T08:44:11.000Z</time>
</trkpt>
<trkpt lat="45.8993450" lon="10.3437850">
	<ele>1424.00</ele>
	<time>2025-04-29T08:44:12.000Z</time>
</trkpt>
<trkpt lat="45.8993500" lon="10.3437750">
	<ele>1423.80</ele>
	<time>2025-04-29T08:44:13.000Z</time>
</trkpt>
<trkpt lat="45.8993570" lon="10.3437700">
	<ele>1423.60</ele>
	<time>2025-04-29T08:44:14.000Z</time>
</trkpt>
<trkpt lat="45.8993650" lon="10.3437560">
	<ele>1423.40</ele>
	<time>2025-04-29T08:44:15.000Z</time>
</trkpt>
<trkpt lat="45.8993680" lon="10.3437480">
	<ele>1423.40</ele>
	<time>2025-04-29T08:44:16.000Z</time>
</trkpt>
<trkpt lat="45.8993720" lon="10.3437320">
	<ele>1423.20</ele>
	<time>2025-04-29T08:44:17.000Z</time>
</trkpt>
<trkpt lat="45.8993770" lon="10.3437160">
	<ele>1422.80</ele>
	<time>2025-04-29T08:44:18.000Z</time>
</trkpt>
<trkpt lat="45.8993850" lon="10.3437020">
	<ele>1422.60</ele>
	<time>2025-04-29T08:44:19.000Z</time>
</trkpt>
<trkpt lat="45.8993870" lon="10.3436960">
	<ele>1422.40</ele>
	<time>2025-04-29T08:44:20.000Z</time>
</trkpt>
<trkpt lat="45.8993960" lon="10.3436850">
	<ele>1422.40</ele>
	<time>2025-04-29T08:44:21.000Z</time>
</trkpt>
<trkpt lat="45.8994110" lon="10.3436700">
	<ele>1422.20</ele>
	<time>2025-04-29T08:44:22.000Z</time>
</trkpt>
<trkpt lat="45.8994220" lon="10.3436530">
	<ele>1422.00</ele>
	<time>2025-04-29T08:44:23.000Z</time>
</trkpt>
<trkpt lat="45.8994290" lon="10.3436350">
	<ele>1421.80</ele>
	<time>2025-04-29T08:44:24.000Z</time>
</trkpt>
<trkpt lat="45.8994340" lon="10.3436150">
	<ele>1421.60</ele>
	<time>2025-04-29T08:44:25.000Z</time>
</trkpt>
<trkpt lat="45.8994450" lon="10.3435950">
	<ele>1421.20</ele>
	<time>2025-04-29T08:44:26.000Z</time>
</trkpt>
<trkpt lat="45.8994560" lon="10.3435740">
	<ele>1421.00</ele>
	<time>2025-04-29T08:44:27.000Z</time>
</trkpt>
<trkpt lat="45.8994670" lon="10.3435560">
	<ele>1420.80</ele>
	<time>2025-04-29T08:44:28.000Z</time>
</trkpt>
<trkpt lat="45.8994780" lon="10.3435430">
	<ele>1420.80</ele>
	<time>2025-04-29T08:44:29.000Z</time>
</trkpt>
<trkpt lat="45.8994880" lon="10.3435240">
	<ele>1420.60</ele>
	<time>2025-04-29T08:44:30.000Z</time>
</trkpt>
<trkpt lat="45.8994950" lon="10.3435000">
	<ele>1420.40</ele>
	<time>2025-04-29T08:44:31.000Z</time>
</trkpt>
<trkpt lat="45.8995050" lon="10.3434760">
	<ele>1420.20</ele>
	<time>2025-04-29T08:44:32.000Z</time>
</trkpt>
<trkpt lat="45.8995160" lon="10.3434540">
	<ele>1419.80</ele>
	<time>2025-04-29T08:44:33.000Z</time>
</trkpt>
<trkpt lat="45.8995220" lon="10.3434380">
	<ele>1419.60</ele>
	<time>2025-04-29T08:44:34.000Z</time>
</trkpt>
<trkpt lat="45.8995240" lon="10.3434240">
	<ele>1419.20</ele>
	<time>2025-04-29T08:44:35.000Z</time>
</trkpt>
<trkpt lat="45.8995290" lon="10.3434050">
	<ele>1419.00</ele>
	<time>2025-04-29T08:44:36.000Z</time>
</trkpt>
<trkpt lat="45.8995340" lon="10.3433820">
	<ele>1418.60</ele>
	<time>2025-04-29T08:44:37.000Z</time>
</trkpt>
<trkpt lat="45.8995440" lon="10.3433600">
	<ele>1418.40</ele>
	<time>2025-04-29T08:44:38.000Z</time>
</trkpt>
<trkpt lat="45.8995580" lon="10.3433390">
	<ele>1418.20</ele>
	<time>2025-04-29T08:44:39.000Z</time>
</trkpt>
<trkpt lat="45.8995720" lon="10.3433210">
	<ele>1417.80</ele>
	<time>2025-04-29T08:44:40.000Z</time>
</trkpt>
<trkpt lat="45.8995810" lon="10.3433110">
	<ele>1417.60</ele>
	<time>2025-04-29T08:44:41.000Z</time>
</trkpt>
<trkpt lat="45.8995840" lon="10.3433020">
	<ele>1417.40</ele>
	<time>2025-04-29T08:44:42.000Z</time>
</trkpt>
<trkpt lat="45.8995880" lon="10.3432930">
	<ele>1417.20</ele>
	<time>2025-04-29T08:44:43.000Z</time>
</trkpt>
<trkpt lat="45.8995890" lon="10.3432850">
	<ele>1416.80</ele>
	<time>2025-04-29T08:44:44.000Z</time>
</trkpt>
<trkpt lat="45.8995900" lon="10.3432880">
	<ele>1416.60</ele>
	<time>2025-04-29T08:44:45.000Z</time>
</trkpt>
<trkpt lat="45.8996000" lon="10.3432920">
	<ele>1416.20</ele>
	<time>2025-04-29T08:44:46.000Z</time>
</trkpt>
<trkpt lat="45.8996100" lon="10.3432960">
	<ele>1416.00</ele>
	<time>2025-04-29T08:44:47.000Z</time>
</trkpt>
<trkpt lat="45.8996160" lon="10.3433020">
	<ele>1415.80</ele>
	<time>2025-04-29T08:44:48.000Z</time>
</trkpt>
<trkpt lat="45.8996230" lon="10.3433100">
	<ele>1415.40</ele>
	<time>2025-04-29T08:44:49.000Z</time>
</trkpt>
<trkpt lat="45.8996310" lon="10.3433170">
	<ele>1415.20</ele>
	<time>2025-04-29T08:44:50.000Z</time>
</trkpt>
<trkpt lat="45.8996400" lon="10.3433220">
	<ele>1414.80</ele>
	<time>2025-04-29T08:44:51.000Z</time>
</trkpt>
<trkpt lat="45.8996430" lon="10.3433310">
	<ele>1414.20</ele>
	<time>2025-04-29T08:44:52.000Z</time>
</trkpt>
<trkpt lat="45.8996440" lon="10.3433320">
	<ele>1414.00</ele>
	<time>2025-04-29T08:44:53.000Z</time>
</trkpt>
<trkpt lat="45.8996450" lon="10.3433310">
	<ele>1413.80</ele>
	<time>2025-04-29T08:44:54.000Z</time>
</trkpt>
<trkpt lat="45.8996400" lon="10.3433230">
	<ele>1413.80</ele>
	<time>2025-04-29T08:44:55.000Z</time>
</trkpt>
<trkpt lat="45.8996370" lon="10.3433190">
	<ele>1413.80</ele>
	<time>2025-04-29T08:44:56.000Z</time>
</trkpt>
<trkpt lat="45.8996340" lon="10.3433170">
	<ele>1413.80</ele>
	<time>2025-04-29T08:44:57.000Z</time>
</trkpt>
<trkpt lat="45.8996330" lon="10.3433160">
	<ele>1413.80</ele>
	<time>2025-04-29T08:44:58.000Z</time>
</trkpt>
<trkpt lat="45.8996280" lon="10.3433250">
	<ele>1414.00</ele>
	<time>2025-04-29T08:44:59.000Z</time>
</trkpt>
<trkpt lat="45.8996250" lon="10.3433270">
	<ele>1414.20</ele>
	<time>2025-04-29T08:45:00.000Z</time>
</trkpt>
<trkpt lat="45.8996250" lon="10.3433280">
	<ele>1414.20</ele>
	<time>2025-04-29T08:45:01.000Z</time>
</trkpt>
<trkpt lat="45.8996260" lon="10.3433270">
	<ele>1414.20</ele>
	<time>2025-04-29T08:45:02.000Z</time>
</trkpt>
<trkpt lat="45.8996260" lon="10.3433270">
	<ele>1414.20</ele>
	<time>2025-04-29T08:45:03.000Z</time>
</trkpt>
<trkpt lat="45.8996260" lon="10.3433270">
	<ele>1414.20</ele>
	<time>2025-04-29T08:45:04.000Z</time>
</trkpt>
<trkpt lat="45.8996260" lon="10.3433270">
	<ele>1414.20</ele>
	<time>2025-04-29T08:45:05.000Z</time>
</trkpt>
<trkpt lat="45.8996260" lon="10.3433270">
	<ele>1414.20</ele>
	<time>2025-04-29T08:45:06.000Z</time>
</trkpt>
<trkpt lat="45.8996240" lon="10.3433310">
	<ele>1413.80</ele>
	<time>2025-04-29T08:45:07.000Z</time>
</trkpt>
<trkpt lat="45.8996150" lon="10.3433520">
	<ele>1413.60</ele>
	<time>2025-04-29T08:45:08.000Z</time>
</trkpt>
<trkpt lat="45.8996060" lon="10.3433770">
	<ele>1413.40</ele>
	<time>2025-04-29T08:45:09.000Z</time>
</trkpt>
<trkpt lat="45.8996000" lon="10.3433930">
	<ele>1413.20</ele>
	<time>2025-04-29T08:45:10.000Z</time>
</trkpt>
<trkpt lat="45.8995980" lon="10.3434150">
	<ele>1413.20</ele>
	<time>2025-04-29T08:45:11.000Z</time>
</trkpt>
<trkpt lat="45.8995960" lon="10.3434430">
	<ele>1413.20</ele>
	<time>2025-04-29T08:45:12.000Z</time>
</trkpt>
<trkpt lat="45.8995930" lon="10.3434670">
	<ele>1413.00</ele>
	<time>2025-04-29T08:45:13.000Z</time>
</trkpt>
<trkpt lat="45.8995880" lon="10.3434930">
	<ele>1412.60</ele>
	<time>2025-04-29T08:45:14.000Z</time>
</trkpt>
<trkpt lat="45.8995870" lon="10.3435130">
	<ele>1412.20</ele>
	<time>2025-04-29T08:45:15.000Z</time>
</trkpt>
<trkpt lat="45.8995890" lon="10.3435320">
	<ele>1412.00</ele>
	<time>2025-04-29T08:45:16.000Z</time>
</trkpt>
<trkpt lat="45.8995860" lon="10.3435520">
	<ele>1411.80</ele>
	<time>2025-04-29T08:45:17.000Z</time>
</trkpt>
<trkpt lat="45.8995850" lon="10.3435730">
	<ele>1411.60</ele>
	<time>2025-04-29T08:45:18.000Z</time>
</trkpt>
<trkpt lat="45.8995850" lon="10.3435940">
	<ele>1411.40</ele>
	<time>2025-04-29T08:45:19.000Z</time>
</trkpt>
<trkpt lat="45.8995860" lon="10.3436150">
	<ele>1411.20</ele>
	<time>2025-04-29T08:45:20.000Z</time>
</trkpt>
<trkpt lat="45.8995840" lon="10.3436310">
	<ele>1411.00</ele>
	<time>2025-04-29T08:45:21.000Z</time>
</trkpt>
<trkpt lat="45.8995790" lon="10.3436530">
	<ele>1410.80</ele>
	<time>2025-04-29T08:45:22.000Z</time>
</trkpt>
<trkpt lat="45.8995730" lon="10.3436750">
	<ele>1410.60</ele>
	<time>2025-04-29T08:45:23.000Z</time>
</trkpt>
<trkpt lat="45.8995680" lon="10.3436970">
	<ele>1410.40</ele>
	<time>2025-04-29T08:45:24.000Z</time>
</trkpt>
<trkpt lat="45.8995630" lon="10.3437170">
	<ele>1410.20</ele>
	<time>2025-04-29T08:45:25.000Z</time>
</trkpt>
<trkpt lat="45.8995600" lon="10.3437330">
	<ele>1410.00</ele>
	<time>2025-04-29T08:45:26.000Z</time>
</trkpt>
<trkpt lat="45.8995610" lon="10.3437450">
	<ele>1409.60</ele>
	<time>2025-04-29T08:45:27.000Z</time>
</trkpt>
<trkpt lat="45.8995650" lon="10.3437600">
	<ele>1409.40</ele>
	<time>2025-04-29T08:45:28.000Z</time>
</trkpt>
<trkpt lat="45.8995660" lon="10.3437750">
	<ele>1409.20</ele>
	<time>2025-04-29T08:45:29.000Z</time>
</trkpt>
<trkpt lat="45.8995650" lon="10.3437930">
	<ele>1409.00</ele>
	<time>2025-04-29T08:45:30.000Z</time>
</trkpt>
<trkpt lat="45.8995660" lon="10.3438120">
	<ele>1408.80</ele>
	<time>2025-04-29T08:45:31.000Z</time>
</trkpt>
<trkpt lat="45.8995530" lon="10.3438370">
	<ele>1408.60</ele>
	<time>2025-04-29T08:45:32.000Z</time>
</trkpt>
<trkpt lat="45.8995460" lon="10.3438610">
	<ele>1408.40</ele>
	<time>2025-04-29T08:45:33.000Z</time>
</trkpt>
<trkpt lat="45.8995410" lon="10.3438780">
	<ele>1408.20</ele>
	<time>2025-04-29T08:45:34.000Z</time>
</trkpt>
<trkpt lat="45.8995440" lon="10.3438950">
	<ele>1408.00</ele>
	<time>2025-04-29T08:45:35.000Z</time>
</trkpt>
<trkpt lat="45.8995450" lon="10.3439110">
	<ele>1407.80</ele>
	<time>2025-04-29T08:45:36.000Z</time>
</trkpt>
<trkpt lat="45.8995540" lon="10.3439290">
	<ele>1407.60</ele>
	<time>2025-04-29T08:45:37.000Z</time>
</trkpt>
<trkpt lat="45.8995610" lon="10.3439470">
	<ele>1407.40</ele>
	<time>2025-04-29T08:45:38.000Z</time>
</trkpt>
<trkpt lat="45.8995670" lon="10.3439630">
	<ele>1407.20</ele>
	<time>2025-04-29T08:45:39.000Z</time>
</trkpt>
<trkpt lat="45.8995720" lon="10.3439780">
	<ele>1406.80</ele>
	<time>2025-04-29T08:45:40.000Z</time>
</trkpt>
<trkpt lat="45.8995770" lon="10.3439920">
	<ele>1406.60</ele>
	<time>2025-04-29T08:45:41.000Z</time>
</trkpt>
<trkpt lat="45.8995820" lon="10.3440070">
	<ele>1406.40</ele>
	<time>2025-04-29T08:45:42.000Z</time>
</trkpt>
<trkpt lat="45.8995840" lon="10.3440230">
	<ele>1406.00</ele>
	<time>2025-04-29T08:45:43.000Z</time>
</trkpt>
<trkpt lat="45.8995880" lon="10.3440400">
	<ele>1405.80</ele>
	<time>2025-04-29T08:45:44.000Z</time>
</trkpt>
<trkpt lat="45.8995900" lon="10.3440610">
	<ele>1405.40</ele>
	<time>2025-04-29T08:45:45.000Z</time>
</trkpt>
<trkpt lat="45.8995910" lon="10.3440810">
	<ele>1405.20</ele>
	<time>2025-04-29T08:45:46.000Z</time>
</trkpt>
<trkpt lat="45.8995920" lon="10.3441020">
	<ele>1405.00</ele>
	<time>2025-04-29T08:45:47.000Z</time>
</trkpt>
<trkpt lat="45.8995970" lon="10.3441200">
	<ele>1404.60</ele>
	<time>2025-04-29T08:45:48.000Z</time>
</trkpt>
<trkpt lat="45.8996040" lon="10.3441350">
	<ele>1404.40</ele>
	<time>2025-04-29T08:45:49.000Z</time>
</trkpt>
<trkpt lat="45.8996100" lon="10.3441510">
	<ele>1404.00</ele>
	<time>2025-04-29T08:45:50.000Z</time>
</trkpt>
<trkpt lat="45.8996150" lon="10.3441690">
	<ele>1403.80</ele>
	<time>2025-04-29T08:45:51.000Z</time>
</trkpt>
<trkpt lat="45.8996190" lon="10.3441870">
	<ele>1403.60</ele>
	<time>2025-04-29T08:45:52.000Z</time>
</trkpt>
<trkpt lat="45.8996180" lon="10.3442030">
	<ele>1403.20</ele>
	<time>2025-04-29T08:45:53.000Z</time>
</trkpt>
<trkpt lat="45.8996180" lon="10.3442260">
	<ele>1403.20</ele>
	<time>2025-04-29T08:45:54.000Z</time>
</trkpt>
<trkpt lat="45.8996130" lon="10.3442520">
	<ele>1402.60</ele>
	<time>2025-04-29T08:45:55.000Z</time>
</trkpt>
<trkpt lat="45.8996140" lon="10.3442720">
	<ele>1402.20</ele>
	<time>2025-04-29T08:45:56.000Z</time>
</trkpt>
<trkpt lat="45.8996100" lon="10.3442900">
	<ele>1401.80</ele>
	<time>2025-04-29T08:45:57.000Z</time>
</trkpt>
<trkpt lat="45.8996120" lon="10.3443120">
	<ele>1401.40</ele>
	<time>2025-04-29T08:45:58.000Z</time>
</trkpt>
<trkpt lat="45.8996110" lon="10.3443340">
	<ele>1401.20</ele>
	<time>2025-04-29T08:45:59.000Z</time>
</trkpt>
<trkpt lat="45.8996120" lon="10.3443590">
	<ele>1400.80</ele>
	<time>2025-04-29T08:46:00.000Z</time>
</trkpt>
<trkpt lat="45.8996130" lon="10.3443830">
	<ele>1400.60</ele>
	<time>2025-04-29T08:46:01.000Z</time>
</trkpt>
<trkpt lat="45.8996150" lon="10.3444070">
	<ele>1400.40</ele>
	<time>2025-04-29T08:46:02.000Z</time>
</trkpt>
<trkpt lat="45.8996170" lon="10.3444250">
	<ele>1400.00</ele>
	<time>2025-04-29T08:46:03.000Z</time>
</trkpt>
<trkpt lat="45.8996160" lon="10.3444440">
	<ele>1399.80</ele>
	<time>2025-04-29T08:46:04.000Z</time>
</trkpt>
<trkpt lat="45.8996150" lon="10.3444580">
	<ele>1399.40</ele>
	<time>2025-04-29T08:46:05.000Z</time>
</trkpt>
<trkpt lat="45.8996130" lon="10.3444770">
	<ele>1399.00</ele>
	<time>2025-04-29T08:46:06.000Z</time>
</trkpt>
<trkpt lat="45.8996110" lon="10.3444960">
	<ele>1398.60</ele>
	<time>2025-04-29T08:46:07.000Z</time>
</trkpt>
<trkpt lat="45.8996100" lon="10.3445160">
	<ele>1398.40</ele>
	<time>2025-04-29T08:46:08.000Z</time>
</trkpt>
<trkpt lat="45.8996100" lon="10.3445370">
	<ele>1398.00</ele>
	<time>2025-04-29T08:46:09.000Z</time>
</trkpt>
<trkpt lat="45.8996120" lon="10.3445550">
	<ele>1397.60</ele>
	<time>2025-04-29T08:46:10.000Z</time>
</trkpt>
<trkpt lat="45.8996130" lon="10.3445750">
	<ele>1397.20</ele>
	<time>2025-04-29T08:46:11.000Z</time>
</trkpt>
<trkpt lat="45.8996140" lon="10.3445930">
	<ele>1396.80</ele>
	<time>2025-04-29T08:46:12.000Z</time>
</trkpt>
<trkpt lat="45.8996150" lon="10.3446140">
	<ele>1396.60</ele>
	<time>2025-04-29T08:46:13.000Z</time>
</trkpt>
<trkpt lat="45.8996150" lon="10.3446320">
	<ele>1396.40</ele>
	<time>2025-04-29T08:46:14.000Z</time>
</trkpt>
<trkpt lat="45.8996140" lon="10.3446500">
	<ele>1396.00</ele>
	<time>2025-04-29T08:46:15.000Z</time>
</trkpt>
<trkpt lat="45.8996180" lon="10.3446660">
	<ele>1395.60</ele>
	<time>2025-04-29T08:46:16.000Z</time>
</trkpt>
<trkpt lat="45.8996180" lon="10.3446870">
	<ele>1395.20</ele>
	<time>2025-04-29T08:46:17.000Z</time>
</trkpt>
<trkpt lat="45.8996160" lon="10.3447060">
	<ele>1394.80</ele>
	<time>2025-04-29T08:46:18.000Z</time>
</trkpt>
<trkpt lat="45.8996150" lon="10.3447260">
	<ele>1394.60</ele>
	<time>2025-04-29T08:46:19.000Z</time>
</trkpt>
<trkpt lat="45.8996100" lon="10.3447400">
	<ele>1394.20</ele>
	<time>2025-04-29T08:46:20.000Z</time>
</trkpt>
<trkpt lat="45.8996040" lon="10.3447530">
	<ele>1394.00</ele>
	<time>2025-04-29T08:46:21.000Z</time>
</trkpt>
<trkpt lat="45.8996000" lon="10.3447790">
	<ele>1393.80</ele>
	<time>2025-04-29T08:46:22.000Z</time>
</trkpt>
<trkpt lat="45.8996050" lon="10.3448000">
	<ele>1393.40</ele>
	<time>2025-04-29T08:46:23.000Z</time>
</trkpt>
<trkpt lat="45.8996070" lon="10.3448220">
	<ele>1393.20</ele>
	<time>2025-04-29T08:46:24.000Z</time>
</trkpt>
<trkpt lat="45.8996090" lon="10.3448400">
	<ele>1393.00</ele>
	<time>2025-04-29T08:46:25.000Z</time>
</trkpt>
<trkpt lat="45.8996130" lon="10.3448560">
	<ele>1393.00</ele>
	<time>2025-04-29T08:46:26.000Z</time>
</trkpt>
<trkpt lat="45.8996190" lon="10.3448710">
	<ele>1392.60</ele>
	<time>2025-04-29T08:46:27.000Z</time>
</trkpt>
<trkpt lat="45.8996250" lon="10.3448900">
	<ele>1392.40</ele>
	<time>2025-04-29T08:46:28.000Z</time>
</trkpt>
<trkpt lat="45.8996260" lon="10.3449090">
	<ele>1392.00</ele>
	<time>2025-04-29T08:46:29.000Z</time>
</trkpt>
<trkpt lat="45.8996240" lon="10.3449320">
	<ele>1391.60</ele>
	<time>2025-04-29T08:46:30.000Z</time>
</trkpt>
<trkpt lat="45.8996180" lon="10.3449510">
	<ele>1391.40</ele>
	<time>2025-04-29T08:46:31.000Z</time>
</trkpt>
<trkpt lat="45.8996140" lon="10.3449630">
	<ele>1391.00</ele>
	<time>2025-04-29T08:46:32.000Z</time>
</trkpt>
<trkpt lat="45.8996130" lon="10.3449770">
	<ele>1390.80</ele>
	<time>2025-04-29T08:46:33.000Z</time>
</trkpt>
<trkpt lat="45.8996070" lon="10.3449880">
	<ele>1390.60</ele>
	<time>2025-04-29T08:46:34.000Z</time>
</trkpt>
<trkpt lat="45.8996040" lon="10.3450010">
	<ele>1390.40</ele>
	<time>2025-04-29T08:46:35.000Z</time>
</trkpt>
<trkpt lat="45.8996090" lon="10.3450160">
	<ele>1390.20</ele>
	<time>2025-04-29T08:46:36.000Z</time>
</trkpt>
<trkpt lat="45.8996130" lon="10.3450370">
	<ele>1390.00</ele>
	<time>2025-04-29T08:46:37.000Z</time>
</trkpt>
<trkpt lat="45.8996120" lon="10.3450630">
	<ele>1389.60</ele>
	<time>2025-04-29T08:46:38.000Z</time>
</trkpt>
<trkpt lat="45.8996100" lon="10.3450880">
	<ele>1389.40</ele>
	<time>2025-04-29T08:46:39.000Z</time>
</trkpt>
<trkpt lat="45.8996090" lon="10.3451190">
	<ele>1389.00</ele>
	<time>2025-04-29T08:46:40.000Z</time>
</trkpt>
<trkpt lat="45.8996030" lon="10.3451520">
	<ele>1388.80</ele>
	<time>2025-04-29T08:46:41.000Z</time>
</trkpt>
<trkpt lat="45.8996000" lon="10.3451800">
	<ele>1388.60</ele>
	<time>2025-04-29T08:46:42.000Z</time>
</trkpt>
<trkpt lat="45.8996060" lon="10.3452040">
	<ele>1388.20</ele>
	<time>2025-04-29T08:46:43.000Z</time>
</trkpt>
<trkpt lat="45.8996120" lon="10.3452220">
	<ele>1387.80</ele>
	<time>2025-04-29T08:46:44.000Z</time>
</trkpt>
<trkpt lat="45.8996150" lon="10.3452290">
	<ele>1387.60</ele>
	<time>2025-04-29T08:46:45.000Z</time>
</trkpt>
<trkpt lat="45.8996190" lon="10.3452430">
	<ele>1387.40</ele>
	<time>2025-04-29T08:46:46.000Z</time>
</trkpt>
<trkpt lat="45.8996280" lon="10.3452700">
	<ele>1387.00</ele>
	<time>2025-04-29T08:46:47.000Z</time>
</trkpt>
<trkpt lat="45.8996340" lon="10.3452940">
	<ele>1386.60</ele>
	<time>2025-04-29T08:46:48.000Z</time>
</trkpt>
<trkpt lat="45.8996270" lon="10.3453270">
	<ele>1386.40</ele>
	<time>2025-04-29T08:46:49.000Z</time>
</trkpt>
<trkpt lat="45.8996160" lon="10.3453580">
	<ele>1386.20</ele>
	<time>2025-04-29T08:46:50.000Z</time>
</trkpt>
<trkpt lat="45.8996060" lon="10.3453790">
	<ele>1386.00</ele>
	<time>2025-04-29T08:46:51.000Z</time>
</trkpt>
<trkpt lat="45.8996020" lon="10.3453990">
	<ele>1385.80</ele>
	<time>2025-04-29T08:46:52.000Z</time>
</trkpt>
<trkpt lat="45.8996000" lon="10.3454120">
	<ele>1385.40</ele>
	<time>2025-04-29T08:46:53.000Z</time>
</trkpt>
<trkpt lat="45.8995970" lon="10.3454170">
	<ele>1385.20</ele>
	<time>2025-04-29T08:46:54.000Z</time>
</trkpt>
<trkpt lat="45.8995960" lon="10.3454250">
	<ele>1385.00</ele>
	<time>2025-04-29T08:46:55.000Z</time>
</trkpt>
<trkpt lat="45.8995990" lon="10.3454350">
	<ele>1384.60</ele>
	<time>2025-04-29T08:46:56.000Z</time>
</trkpt>
<trkpt lat="45.8996000" lon="10.3454420">
	<ele>1384.40</ele>
	<time>2025-04-29T08:46:57.000Z</time>
</trkpt>
<trkpt lat="45.8996070" lon="10.3454620">
	<ele>1384.00</ele>
	<time>2025-04-29T08:46:58.000Z</time>
</trkpt>
<trkpt lat="45.8996190" lon="10.3454760">
	<ele>1383.80</ele>
	<time>2025-04-29T08:46:59.000Z</time>
</trkpt>
<trkpt lat="45.8996260" lon="10.3454970">
	<ele>1383.80</ele>
	<time>2025-04-29T08:47:00.000Z</time>
</trkpt>
<trkpt lat="45.8996310" lon="10.3455220">
	<ele>1383.20</ele>
	<time>2025-04-29T08:47:01.000Z</time>
</trkpt>
<trkpt lat="45.8996380" lon="10.3455410">
	<ele>1383.00</ele>
	<time>2025-04-29T08:47:02.000Z</time>
</trkpt>
<trkpt lat="45.8996380" lon="10.3455590">
	<ele>1382.60</ele>
	<time>2025-04-29T08:47:03.000Z</time>
</trkpt>
<trkpt lat="45.8996370" lon="10.3455770">
	<ele>1382.40</ele>
	<time>2025-04-29T08:47:04.000Z</time>
</trkpt>
<trkpt lat="45.8996400" lon="10.3455980">
	<ele>1382.00</ele>
	<time>2025-04-29T08:47:05.000Z</time>
</trkpt>
<trkpt lat="45.8996510" lon="10.3456160">
	<ele>1381.80</ele>
	<time>2025-04-29T08:47:06.000Z</time>
</trkpt>
<trkpt lat="45.8996600" lon="10.3456320">
	<ele>1381.60</ele>
	<time>2025-04-29T08:47:07.000Z</time>
</trkpt>
<trkpt lat="45.8996670" lon="10.3456500">
	<ele>1381.40</ele>
	<time>2025-04-29T08:47:08.000Z</time>
</trkpt>
<trkpt lat="45.8996660" lon="10.3456790">
	<ele>1381.00</ele>
	<time>2025-04-29T08:47:09.000Z</time>
</trkpt>
<trkpt lat="45.8996620" lon="10.3457040">
	<ele>1380.40</ele>
	<time>2025-04-29T08:47:10.000Z</time>
</trkpt>
<trkpt lat="45.8996540" lon="10.3457420">
	<ele>1380.20</ele>
	<time>2025-04-29T08:47:11.000Z</time>
</trkpt>
<trkpt lat="45.8996530" lon="10.3457870">
	<ele>1380.00</ele>
	<time>2025-04-29T08:47:12.000Z</time>
</trkpt>
<trkpt lat="45.8996490" lon="10.3458170">
	<ele>1379.80</ele>
	<time>2025-04-29T08:47:13.000Z</time>
</trkpt>
<trkpt lat="45.8996450" lon="10.3458510">
	<ele>1379.60</ele>
	<time>2025-04-29T08:47:14.000Z</time>
</trkpt>
<trkpt lat="45.8996470" lon="10.3458740">
	<ele>1379.20</ele>
	<time>2025-04-29T08:47:15.000Z</time>
</trkpt>
<trkpt lat="45.8996550" lon="10.3458930">
	<ele>1379.00</ele>
	<time>2025-04-29T08:47:16.000Z</time>
</trkpt>
<trkpt lat="45.8996680" lon="10.3459080">
	<ele>1378.80</ele>
	<time>2025-04-29T08:47:17.000Z</time>
</trkpt>
<trkpt lat="45.8996870" lon="10.3459220">
	<ele>1378.40</ele>
	<time>2025-04-29T08:47:18.000Z</time>
</trkpt>
<trkpt lat="45.8997000" lon="10.3459320">
	<ele>1378.20</ele>
	<time>2025-04-29T08:47:19.000Z</time>
</trkpt>
<trkpt lat="45.8997150" lon="10.3459390">
	<ele>1378.00</ele>
	<time>2025-04-29T08:47:20.000Z</time>
</trkpt>
<trkpt lat="45.8997410" lon="10.3459390">
	<ele>1377.80</ele>
	<time>2025-04-29T08:47:21.000Z</time>
</trkpt>
<trkpt lat="45.8997650" lon="10.3459260">
	<ele>1377.40</ele>
	<time>2025-04-29T08:47:22.000Z</time>
</trkpt>
<trkpt lat="45.8997840" lon="10.3459070">
	<ele>1377.00</ele>
	<time>2025-04-29T08:47:23.000Z</time>
</trkpt>
<trkpt lat="45.8998010" lon="10.3458920">
	<ele>1376.60</ele>
	<time>2025-04-29T08:47:24.000Z</time>
</trkpt>
<trkpt lat="45.8998140" lon="10.3458760">
	<ele>1376.20</ele>
	<time>2025-04-29T08:47:25.000Z</time>
</trkpt>
<trkpt lat="45.8998210" lon="10.3458560">
	<ele>1376.00</ele>
	<time>2025-04-29T08:47:26.000Z</time>
</trkpt>
<trkpt lat="45.8998230" lon="10.3458360">
	<ele>1375.80</ele>
	<time>2025-04-29T08:47:27.000Z</time>
</trkpt>
<trkpt lat="45.8998240" lon="10.3458290">
	<ele>1375.60</ele>
	<time>2025-04-29T08:47:28.000Z</time>
</trkpt>
<trkpt lat="45.8998270" lon="10.3458180">
	<ele>1375.20</ele>
	<time>2025-04-29T08:47:29.000Z</time>
</trkpt>
<trkpt lat="45.8998320" lon="10.3458060">
	<ele>1374.80</ele>
	<time>2025-04-29T08:47:30.000Z</time>
</trkpt>
<trkpt lat="45.8998400" lon="10.3457980">
	<ele>1374.60</ele>
	<time>2025-04-29T08:47:31.000Z</time>
</trkpt>
<trkpt lat="45.8998500" lon="10.3457910">
	<ele>1374.20</ele>
	<time>2025-04-29T08:47:32.000Z</time>
</trkpt>
<trkpt lat="45.8998560" lon="10.3457830">
	<ele>1373.80</ele>
	<time>2025-04-29T08:47:33.000Z</time>
</trkpt>
<trkpt lat="45.8998590" lon="10.3457710">
	<ele>1373.60</ele>
	<time>2025-04-29T08:47:34.000Z</time>
</trkpt>
<trkpt lat="45.8998650" lon="10.3457540">
	<ele>1373.20</ele>
	<time>2025-04-29T08:47:35.000Z</time>
</trkpt>
<trkpt lat="45.8998740" lon="10.3457310">
	<ele>1372.80</ele>
	<time>2025-04-29T08:47:36.000Z</time>
</trkpt>
<trkpt lat="45.8998870" lon="10.3457110">
	<ele>1372.60</ele>
	<time>2025-04-29T08:47:37.000Z</time>
</trkpt>
<trkpt lat="45.8998960" lon="10.3456920">
	<ele>1372.20</ele>
	<time>2025-04-29T08:47:38.000Z</time>
</trkpt>
<trkpt lat="45.8999060" lon="10.3456680">
	<ele>1372.00</ele>
	<time>2025-04-29T08:47:39.000Z</time>
</trkpt>
<trkpt lat="45.8999030" lon="10.3456470">
	<ele>1371.60</ele>
	<time>2025-04-29T08:47:40.000Z</time>
</trkpt>
<trkpt lat="45.8999010" lon="10.3456350">
	<ele>1371.40</ele>
	<time>2025-04-29T08:47:41.000Z</time>
</trkpt>
<trkpt lat="45.8999070" lon="10.3456240">
	<ele>1371.00</ele>
	<time>2025-04-29T08:47:42.000Z</time>
</trkpt>
<trkpt lat="45.8999120" lon="10.3456070">
	<ele>1370.60</ele>
	<time>2025-04-29T08:47:43.000Z</time>
</trkpt>
<trkpt lat="45.8999100" lon="10.3456010">
	<ele>1370.20</ele>
	<time>2025-04-29T08:47:44.000Z</time>
</trkpt>
<trkpt lat="45.8999090" lon="10.3456010">
	<ele>1370.20</ele>
	<time>2025-04-29T08:47:45.000Z</time>
</trkpt>
<trkpt lat="45.8999350" lon="10.3456000">
	<ele>1370.00</ele>
	<time>2025-04-29T08:47:46.000Z</time>
</trkpt>
<trkpt lat="45.8999620" lon="10.3456080">
	<ele>1370.00</ele>
	<time>2025-04-29T08:47:47.000Z</time>
</trkpt>
<trkpt lat="45.8999730" lon="10.3456130">
	<ele>1370.00</ele>
	<time>2025-04-29T08:47:48.000Z</time>
</trkpt>
<trkpt lat="45.8999830" lon="10.3456090">
	<ele>1369.80</ele>
	<time>2025-04-29T08:47:49.000Z</time>
</trkpt>
<trkpt lat="45.8999930" lon="10.3455950">
	<ele>1369.80</ele>
	<time>2025-04-29T08:47:50.000Z</time>
</trkpt>
<trkpt lat="45.8999950" lon="10.3455790">
	<ele>1369.60</ele>
	<time>2025-04-29T08:47:51.000Z</time>
</trkpt>
<trkpt lat="45.8999980" lon="10.3455640">
	<ele>1369.20</ele>
	<time>2025-04-29T08:47:52.000Z</time>
</trkpt>
<trkpt lat="45.8999950" lon="10.3455530">
	<ele>1368.80</ele>
	<time>2025-04-29T08:47:53.000Z</time>
</trkpt>
<trkpt lat="45.8999940" lon="10.3455380">
	<ele>1368.60</ele>
	<time>2025-04-29T08:47:54.000Z</time>
</trkpt>
<trkpt lat="45.8999960" lon="10.3455230">
	<ele>1368.40</ele>
	<time>2025-04-29T08:47:55.000Z</time>
</trkpt>
<trkpt lat="45.8999990" lon="10.3455100">
	<ele>1368.20</ele>
	<time>2025-04-29T08:47:56.000Z</time>
</trkpt>
<trkpt lat="45.9000020" lon="10.3454980">
	<ele>1367.80</ele>
	<time>2025-04-29T08:47:57.000Z</time>
</trkpt>
<trkpt lat="45.9000080" lon="10.3454850">
	<ele>1367.60</ele>
	<time>2025-04-29T08:47:58.000Z</time>
</trkpt>
<trkpt lat="45.9000210" lon="10.3454720">
	<ele>1367.40</ele>
	<time>2025-04-29T08:47:59.000Z</time>
</trkpt>
<trkpt lat="45.9000260" lon="10.3454540">
	<ele>1367.20</ele>
	<time>2025-04-29T08:48:00.000Z</time>
</trkpt>
<trkpt lat="45.9000130" lon="10.3454400">
	<ele>1366.80</ele>
	<time>2025-04-29T08:48:01.000Z</time>
</trkpt>
<trkpt lat="45.9000120" lon="10.3454320">
	<ele>1366.80</ele>
	<time>2025-04-29T08:48:02.000Z</time>
</trkpt>
<trkpt lat="45.9000270" lon="10.3454210">
	<ele>1366.60</ele>
	<time>2025-04-29T08:48:03.000Z</time>
</trkpt>
<trkpt lat="45.9000380" lon="10.3454060">
	<ele>1366.40</ele>
	<time>2025-04-29T08:48:04.000Z</time>
</trkpt>
<trkpt lat="45.9000500" lon="10.3453940">
	<ele>1366.20</ele>
	<time>2025-04-29T08:48:05.000Z</time>
</trkpt>
<trkpt lat="45.9000670" lon="10.3453830">
	<ele>1365.80</ele>
	<time>2025-04-29T08:48:06.000Z</time>
</trkpt>
<trkpt lat="45.9000760" lon="10.3453710">
	<ele>1365.80</ele>
	<time>2025-04-29T08:48:07.000Z</time>
</trkpt>
<trkpt lat="45.9000820" lon="10.3453550">
	<ele>1365.40</ele>
	<time>2025-04-29T08:48:08.000Z</time>
</trkpt>
<trkpt lat="45.9000870" lon="10.3453380">
	<ele>1365.00</ele>
	<time>2025-04-29T08:48:09.000Z</time>
</trkpt>
<trkpt lat="45.9001010" lon="10.3453180">
	<ele>1365.00</ele>
	<time>2025-04-29T08:48:10.000Z</time>
</trkpt>
<trkpt lat="45.9001230" lon="10.3452990">
	<ele>1364.80</ele>
	<time>2025-04-29T08:48:11.000Z</time>
</trkpt>
<trkpt lat="45.9001400" lon="10.3452850">
	<ele>1364.60</ele>
	<time>2025-04-29T08:48:12.000Z</time>
</trkpt>
<trkpt lat="45.9001530" lon="10.3452700">
	<ele>1364.40</ele>
	<time>2025-04-29T08:48:13.000Z</time>
</trkpt>
<trkpt lat="45.9001690" lon="10.3452570">
	<ele>1364.20</ele>
	<time>2025-04-29T08:48:14.000Z</time>
</trkpt>
<trkpt lat="45.9001860" lon="10.3452450">
	<ele>1364.00</ele>
	<time>2025-04-29T08:48:15.000Z</time>
</trkpt>
<trkpt lat="45.9001980" lon="10.3452330">
	<ele>1363.80</ele>
	<time>2025-04-29T08:48:16.000Z</time>
</trkpt>
<trkpt lat="45.9002090" lon="10.3452210">
	<ele>1363.60</ele>
	<time>2025-04-29T08:48:17.000Z</time>
</trkpt>
<trkpt lat="45.9002220" lon="10.3452090">
	<ele>1363.60</ele>
	<time>2025-04-29T08:48:18.000Z</time>
</trkpt>
<trkpt lat="45.9002350" lon="10.3451980">
	<ele>1363.40</ele>
	<time>2025-04-29T08:48:19.000Z</time>
</trkpt>
<trkpt lat="45.9002460" lon="10.3451860">
	<ele>1363.20</ele>
	<time>2025-04-29T08:48:20.000Z</time>
</trkpt>
<trkpt lat="45.9002590" lon="10.3451750">
	<ele>1362.80</ele>
	<time>2025-04-29T08:48:21.000Z</time>
</trkpt>
<trkpt lat="45.9002720" lon="10.3451630">
	<ele>1362.60</ele>
	<time>2025-04-29T08:48:22.000Z</time>
</trkpt>
<trkpt lat="45.9002830" lon="10.3451510">
	<ele>1362.60</ele>
	<time>2025-04-29T08:48:23.000Z</time>
</trkpt>
<trkpt lat="45.9002990" lon="10.3451430">
	<ele>1362.40</ele>
	<time>2025-04-29T08:48:24.000Z</time>
</trkpt>
<trkpt lat="45.9003120" lon="10.3451340">
	<ele>1362.20</ele>
	<time>2025-04-29T08:48:25.000Z</time>
</trkpt>
<trkpt lat="45.9003260" lon="10.3451250">
	<ele>1361.80</ele>
	<time>2025-04-29T08:48:26.000Z</time>
</trkpt>
<trkpt lat="45.9003340" lon="10.3451150">
	<ele>1361.40</ele>
	<time>2025-04-29T08:48:27.000Z</time>
</trkpt>
<trkpt lat="45.9003360" lon="10.3451090">
	<ele>1361.00</ele>
	<time>2025-04-29T08:48:28.000Z</time>
</trkpt>
<trkpt lat="45.9003370" lon="10.3451060">
	<ele>1360.80</ele>
	<time>2025-04-29T08:48:29.000Z</time>
</trkpt>
<trkpt lat="45.9003400" lon="10.3451060">
	<ele>1360.80</ele>
	<time>2025-04-29T08:48:30.000Z</time>
</trkpt>
<trkpt lat="45.9003420" lon="10.3451060">
	<ele>1360.60</ele>
	<time>2025-04-29T08:48:31.000Z</time>
</trkpt>
<trkpt lat="45.9003430" lon="10.3451040">
	<ele>1360.60</ele>
	<time>2025-04-29T08:48:32.000Z</time>
</trkpt>
<trkpt lat="45.9003420" lon="10.3451040">
	<ele>1360.60</ele>
	<time>2025-04-29T08:48:33.000Z</time>
</trkpt>
<trkpt lat="45.9003410" lon="10.3451060">
	<ele>1360.60</ele>
	<time>2025-04-29T08:48:34.000Z</time>
</trkpt>
<trkpt lat="45.9003380" lon="10.3451080">
	<ele>1360.40</ele>
	<time>2025-04-29T08:48:35.000Z</time>
</trkpt>
<trkpt lat="45.9003370" lon="10.3451050">
	<ele>1360.40</ele>
	<time>2025-04-29T08:48:36.000Z</time>
</trkpt>
<trkpt lat="45.9003370" lon="10.3451050">
	<ele>1360.40</ele>
	<time>2025-04-29T08:48:37.000Z</time>
</trkpt>
<trkpt lat="45.9003370" lon="10.3451050">
	<ele>1360.40</ele>
	<time>2025-04-29T08:48:38.000Z</time>
</trkpt>
<trkpt lat="45.9003360" lon="10.3451040">
	<ele>1360.60</ele>
	<time>2025-04-29T08:48:39.000Z</time>
</trkpt>
<trkpt lat="45.9003360" lon="10.3451040">
	<ele>1360.60</ele>
	<time>2025-04-29T08:48:40.000Z</time>
</trkpt>
<trkpt lat="45.9003360" lon="10.3451040">
	<ele>1360.60</ele>
	<time>2025-04-29T08:48:41.000Z</time>
</trkpt>
<trkpt lat="45.9003360" lon="10.3451040">
	<ele>1360.60</ele>
	<time>2025-04-29T08:48:42.000Z</time>
</trkpt>
<trkpt lat="45.9003360" lon="10.3451040">
	<ele>1360.60</ele>
	<time>2025-04-29T08:48:43.000Z</time>
</trkpt>
<trkpt lat="45.9003360" lon="10.3451040">
	<ele>1360.60</ele>
	<time>2025-04-29T08:48:44.000Z</time>
</trkpt>
<trkpt lat="45.9003360" lon="10.3451040">
	<ele>1360.60</ele>
	<time>2025-04-29T08:48:45.000Z</time>
</trkpt>
<trkpt lat="45.9003360" lon="10.3451040">
	<ele>1360.60</ele>
	<time>2025-04-29T08:48:46.000Z</time>
</trkpt>
<trkpt lat="45.9003360" lon="10.3451040">
	<ele>1360.60</ele>
	<time>2025-04-29T08:48:47.000Z</time>
</trkpt>
<trkpt lat="45.9003360" lon="10.3451040">
	<ele>1360.40</ele>
	<time>2025-04-29T08:48:48.000Z</time>
</trkpt>
<trkpt lat="45.9003360" lon="10.3451040">
	<ele>1360.20</ele>
	<time>2025-04-29T08:48:49.000Z</time>
</trkpt>
<trkpt lat="45.9003360" lon="10.3451040">
	<ele>1360.20</ele>
	<time>2025-04-29T08:48:50.000Z</time>
</trkpt>
<trkpt lat="45.9003360" lon="10.3451040">
	<ele>1360.20</ele>
	<time>2025-04-29T08:48:51.000Z</time>
</trkpt>
<trkpt lat="45.9003360" lon="10.3451040">
	<ele>1360.20</ele>
	<time>2025-04-29T08:48:52.000Z</time>
</trkpt>
<trkpt lat="45.9003360" lon="10.3451040">
	<ele>1360.20</ele>
	<time>2025-04-29T08:48:53.000Z</time>
</trkpt>
<trkpt lat="45.9003360" lon="10.3451040">
	<ele>1360.20</ele>
	<time>2025-04-29T08:48:54.000Z</time>
</trkpt>
<trkpt lat="45.9003370" lon="10.3451040">
	<ele>1360.20</ele>
	<time>2025-04-29T08:48:55.000Z</time>
</trkpt>
<trkpt lat="45.9003370" lon="10.3451040">
	<ele>1360.20</ele>
	<time>2025-04-29T08:48:56.000Z</time>
</trkpt>
<trkpt lat="45.9003370" lon="10.3451040">
	<ele>1360.20</ele>
	<time>2025-04-29T08:48:57.000Z</time>
</trkpt>
<trkpt lat="45.9003380" lon="10.3451040">
	<ele>1360.00</ele>
	<time>2025-04-29T08:48:58.000Z</time>
</trkpt>
<trkpt lat="45.9003400" lon="10.3451040">
	<ele>1360.00</ele>
	<time>2025-04-29T08:48:59.000Z</time>
</trkpt>
<trkpt lat="45.9003420" lon="10.3451040">
	<ele>1360.00</ele>
	<time>2025-04-29T08:49:00.000Z</time>
</trkpt>
<trkpt lat="45.9003420" lon="10.3450960">
	<ele>1360.00</ele>
	<time>2025-04-29T08:49:01.000Z</time>
</trkpt>
<trkpt lat="45.9003420" lon="10.3450920">
	<ele>1360.00</ele>
	<time>2025-04-29T08:49:02.000Z</time>
</trkpt>
<trkpt lat="45.9003430" lon="10.3450920">
	<ele>1360.00</ele>
	<time>2025-04-29T08:49:03.000Z</time>
</trkpt>
<trkpt lat="45.9003460" lon="10.3450890">
	<ele>1359.80</ele>
	<time>2025-04-29T08:49:04.000Z</time>
</trkpt>
<trkpt lat="45.9003470" lon="10.3450870">
	<ele>1359.80</ele>
	<time>2025-04-29T08:49:05.000Z</time>
</trkpt>
<trkpt lat="45.9003500" lon="10.3450870">
	<ele>1359.60</ele>
	<time>2025-04-29T08:49:06.000Z</time>
</trkpt>
<trkpt lat="45.9003530" lon="10.3450850">
	<ele>1359.40</ele>
	<time>2025-04-29T08:49:07.000Z</time>
</trkpt>
<trkpt lat="45.9003560" lon="10.3450770">
	<ele>1359.20</ele>
	<time>2025-04-29T08:49:08.000Z</time>
</trkpt>
<trkpt lat="45.9003710" lon="10.3450570">
	<ele>1359.20</ele>
	<time>2025-04-29T08:49:09.000Z</time>
</trkpt>
<trkpt lat="45.9003730" lon="10.3450320">
	<ele>1358.80</ele>
	<time>2025-04-29T08:49:10.000Z</time>
</trkpt>
<trkpt lat="45.9003720" lon="10.3450050">
	<ele>1358.80</ele>
	<time>2025-04-29T08:49:11.000Z</time>
</trkpt>
<trkpt lat="45.9003750" lon="10.3449790">
	<ele>1358.40</ele>
	<time>2025-04-29T08:49:12.000Z</time>
</trkpt>
<trkpt lat="45.9003810" lon="10.3449560">
	<ele>1358.20</ele>
	<time>2025-04-29T08:49:13.000Z</time>
</trkpt>
<trkpt lat="45.9003950" lon="10.3449320">
	<ele>1358.00</ele>
	<time>2025-04-29T08:49:14.000Z</time>
</trkpt>
<trkpt lat="45.9004100" lon="10.3449060">
	<ele>1358.00</ele>
	<time>2025-04-29T08:49:15.000Z</time>
</trkpt>
<trkpt lat="45.9004250" lon="10.3448820">
	<ele>1357.80</ele>
	<time>2025-04-29T08:49:16.000Z</time>
</trkpt>
<trkpt lat="45.9004400" lon="10.3448570">
	<ele>1357.80</ele>
	<time>2025-04-29T08:49:17.000Z</time>
</trkpt>
<trkpt lat="45.9004520" lon="10.3448410">
	<ele>1357.60</ele>
	<time>2025-04-29T08:49:18.000Z</time>
</trkpt>
<trkpt lat="45.9004620" lon="10.3448290">
	<ele>1357.00</ele>
	<time>2025-04-29T08:49:19.000Z</time>
</trkpt>
<trkpt lat="45.9004750" lon="10.3448180">
	<ele>1356.80</ele>
	<time>2025-04-29T08:49:20.000Z</time>
</trkpt>
<trkpt lat="45.9004920" lon="10.3448020">
	<ele>1356.60</ele>
	<time>2025-04-29T08:49:21.000Z</time>
</trkpt>
<trkpt lat="45.9005090" lon="10.3447880">
	<ele>1356.60</ele>
	<time>2025-04-29T08:49:22.000Z</time>
</trkpt>
<trkpt lat="45.9005260" lon="10.3447700">
	<ele>1356.20</ele>
	<time>2025-04-29T08:49:23.000Z</time>
</trkpt>
<trkpt lat="45.9005440" lon="10.3447590">
	<ele>1356.20</ele>
	<time>2025-04-29T08:49:24.000Z</time>
</trkpt>
<trkpt lat="45.9005570" lon="10.3447530">
	<ele>1356.00</ele>
	<time>2025-04-29T08:49:25.000Z</time>
</trkpt>
<trkpt lat="45.9005690" lon="10.3447490">
	<ele>1355.80</ele>
	<time>2025-04-29T08:49:26.000Z</time>
</trkpt>
<trkpt lat="45.9005820" lon="10.3447510">
	<ele>1355.60</ele>
	<time>2025-04-29T08:49:27.000Z</time>
</trkpt>
<trkpt lat="45.9005950" lon="10.3447550">
	<ele>1355.40</ele>
	<time>2025-04-29T08:49:28.000Z</time>
</trkpt>
<trkpt lat="45.9006040" lon="10.3447590">
	<ele>1355.00</ele>
	<time>2025-04-29T08:49:29.000Z</time>
</trkpt>
<trkpt lat="45.9006080" lon="10.3447530">
	<ele>1354.80</ele>
	<time>2025-04-29T08:49:30.000Z</time>
</trkpt>
<trkpt lat="45.9006140" lon="10.3447500">
	<ele>1354.40</ele>
	<time>2025-04-29T08:49:31.000Z</time>
</trkpt>
<trkpt lat="45.9006160" lon="10.3447460">
	<ele>1354.00</ele>
	<time>2025-04-29T08:49:32.000Z</time>
</trkpt>
<trkpt lat="45.9006160" lon="10.3447530">
	<ele>1353.80</ele>
	<time>2025-04-29T08:49:33.000Z</time>
</trkpt>
<trkpt lat="45.9006220" lon="10.3447610">
	<ele>1353.60</ele>
	<time>2025-04-29T08:49:34.000Z</time>
</trkpt>
<trkpt lat="45.9006230" lon="10.3447680">
	<ele>1353.20</ele>
	<time>2025-04-29T08:49:35.000Z</time>
</trkpt>
<trkpt lat="45.9006220" lon="10.3447770">
	<ele>1352.80</ele>
	<time>2025-04-29T08:49:36.000Z</time>
</trkpt>
<trkpt lat="45.9006240" lon="10.3447910">
	<ele>1352.60</ele>
	<time>2025-04-29T08:49:37.000Z</time>
</trkpt>
<trkpt lat="45.9006280" lon="10.3448090">
	<ele>1352.40</ele>
	<time>2025-04-29T08:49:38.000Z</time>
</trkpt>
<trkpt lat="45.9006300" lon="10.3448300">
	<ele>1352.00</ele>
	<time>2025-04-29T08:49:39.000Z</time>
</trkpt>
<trkpt lat="45.9006300" lon="10.3448500">
	<ele>1351.80</ele>
	<time>2025-04-29T08:49:40.000Z</time>
</trkpt>
<trkpt lat="45.9006260" lon="10.3448680">
	<ele>1351.40</ele>
	<time>2025-04-29T08:49:41.000Z</time>
</trkpt>
<trkpt lat="45.9006260" lon="10.3448900">
	<ele>1351.00</ele>
	<time>2025-04-29T08:49:42.000Z</time>
</trkpt>
<trkpt lat="45.9006300" lon="10.3449110">
	<ele>1350.80</ele>
	<time>2025-04-29T08:49:43.000Z</time>
</trkpt>
<trkpt lat="45.9006330" lon="10.3449310">
	<ele>1350.40</ele>
	<time>2025-04-29T08:49:44.000Z</time>
</trkpt>
<trkpt lat="45.9006340" lon="10.3449460">
	<ele>1350.00</ele>
	<time>2025-04-29T08:49:45.000Z</time>
</trkpt>
<trkpt lat="45.9006330" lon="10.3449580">
	<ele>1349.80</ele>
	<time>2025-04-29T08:49:46.000Z</time>
</trkpt>
<trkpt lat="45.9006340" lon="10.3449670">
	<ele>1349.40</ele>
	<time>2025-04-29T08:49:47.000Z</time>
</trkpt>
<trkpt lat="45.9006440" lon="10.3449820">
	<ele>1349.00</ele>
	<time>2025-04-29T08:49:48.000Z</time>
</trkpt>
<trkpt lat="45.9006510" lon="10.3449870">
	<ele>1348.80</ele>
	<time>2025-04-29T08:49:49.000Z</time>
</trkpt>
<trkpt lat="45.9006580" lon="10.3449950">
	<ele>1348.40</ele>
	<time>2025-04-29T08:49:50.000Z</time>
</trkpt>
<trkpt lat="45.9006640" lon="10.3449990">
	<ele>1348.20</ele>
	<time>2025-04-29T08:49:51.000Z</time>
</trkpt>
<trkpt lat="45.9006750" lon="10.3450110">
	<ele>1347.80</ele>
	<time>2025-04-29T08:49:52.000Z</time>
</trkpt>
<trkpt lat="45.9006760" lon="10.3450240">
	<ele>1347.40</ele>
	<time>2025-04-29T08:49:53.000Z</time>
</trkpt>
<trkpt lat="45.9006790" lon="10.3450400">
	<ele>1347.20</ele>
	<time>2025-04-29T08:49:54.000Z</time>
</trkpt>
<trkpt lat="45.9006820" lon="10.3450450">
	<ele>1346.80</ele>
	<time>2025-04-29T08:49:55.000Z</time>
</trkpt>
<trkpt lat="45.9006950" lon="10.3450650">
	<ele>1346.60</ele>
	<time>2025-04-29T08:49:56.000Z</time>
</trkpt>
<trkpt lat="45.9007120" lon="10.3450860">
	<ele>1346.20</ele>
	<time>2025-04-29T08:49:57.000Z</time>
</trkpt>
<trkpt lat="45.9007230" lon="10.3451040">
	<ele>1345.80</ele>
	<time>2025-04-29T08:49:58.000Z</time>
</trkpt>
<trkpt lat="45.9007300" lon="10.3451120">
	<ele>1345.60</ele>
	<time>2025-04-29T08:49:59.000Z</time>
</trkpt>
<trkpt lat="45.9007310" lon="10.3451170">
	<ele>1345.40</ele>
	<time>2025-04-29T08:50:00.000Z</time>
</trkpt>
<trkpt lat="45.9007340" lon="10.3451180">
	<ele>1345.20</ele>
	<time>2025-04-29T08:50:01.000Z</time>
</trkpt>
<trkpt lat="45.9007380" lon="10.3451220">
	<ele>1344.80</ele>
	<time>2025-04-29T08:50:02.000Z</time>
</trkpt>
<trkpt lat="45.9007420" lon="10.3451260">
	<ele>1344.40</ele>
	<time>2025-04-29T08:50:03.000Z</time>
</trkpt>
<trkpt lat="45.9007460" lon="10.3451300">
	<ele>1344.00</ele>
	<time>2025-04-29T08:50:04.000Z</time>
</trkpt>
<trkpt lat="45.9007450" lon="10.3451410">
	<ele>1343.60</ele>
	<time>2025-04-29T08:50:05.000Z</time>
</trkpt>
<trkpt lat="45.9007460" lon="10.3451510">
	<ele>1343.40</ele>
	<time>2025-04-29T08:50:06.000Z</time>
</trkpt>
<trkpt lat="45.9007460" lon="10.3451600">
	<ele>1342.80</ele>
	<time>2025-04-29T08:50:07.000Z</time>
</trkpt>
<trkpt lat="45.9007470" lon="10.3451730">
	<ele>1342.60</ele>
	<time>2025-04-29T08:50:08.000Z</time>
</trkpt>
<trkpt lat="45.9007420" lon="10.3451860">
	<ele>1342.20</ele>
	<time>2025-04-29T08:50:09.000Z</time>
</trkpt>
<trkpt lat="45.9007370" lon="10.3451980">
	<ele>1342.00</ele>
	<time>2025-04-29T08:50:10.000Z</time>
</trkpt>
<trkpt lat="45.9007460" lon="10.3452120">
	<ele>1341.80</ele>
	<time>2025-04-29T08:50:11.000Z</time>
</trkpt>
<trkpt lat="45.9007580" lon="10.3452240">
	<ele>1341.40</ele>
	<time>2025-04-29T08:50:12.000Z</time>
</trkpt>
<trkpt lat="45.9007660" lon="10.3452390">
	<ele>1341.00</ele>
	<time>2025-04-29T08:50:13.000Z</time>
</trkpt>
<trkpt lat="45.9007750" lon="10.3452630">
	<ele>1340.80</ele>
	<time>2025-04-29T08:50:14.000Z</time>
</trkpt>
<trkpt lat="45.9007810" lon="10.3452840">
	<ele>1340.40</ele>
	<time>2025-04-29T08:50:15.000Z</time>
</trkpt>
<trkpt lat="45.9007820" lon="10.3453040">
	<ele>1340.40</ele>
	<time>2025-04-29T08:50:16.000Z</time>
</trkpt>
<trkpt lat="45.9007890" lon="10.3453180">
	<ele>1340.20</ele>
	<time>2025-04-29T08:50:17.000Z</time>
</trkpt>
<trkpt lat="45.9008020" lon="10.3453350">
	<ele>1340.00</ele>
	<time>2025-04-29T08:50:18.000Z</time>
</trkpt>
<trkpt lat="45.9008110" lon="10.3453520">
	<ele>1339.80</ele>
	<time>2025-04-29T08:50:19.000Z</time>
</trkpt>
<trkpt lat="45.9008200" lon="10.3453710">
	<ele>1339.80</ele>
	<time>2025-04-29T08:50:20.000Z</time>
</trkpt>
<trkpt lat="45.9008280" lon="10.3453880">
	<ele>1339.60</ele>
	<time>2025-04-29T08:50:21.000Z</time>
</trkpt>
<trkpt lat="45.9008370" lon="10.3454020">
	<ele>1339.20</ele>
	<time>2025-04-29T08:50:22.000Z</time>
</trkpt>
<trkpt lat="45.9008490" lon="10.3454210">
	<ele>1339.00</ele>
	<time>2025-04-29T08:50:23.000Z</time>
</trkpt>
<trkpt lat="45.9008620" lon="10.3454430">
	<ele>1338.80</ele>
	<time>2025-04-29T08:50:24.000Z</time>
</trkpt>
<trkpt lat="45.9008660" lon="10.3454600">
	<ele>1338.60</ele>
	<time>2025-04-29T08:50:25.000Z</time>
</trkpt>
<trkpt lat="45.9008690" lon="10.3454800">
	<ele>1338.40</ele>
	<time>2025-04-29T08:50:26.000Z</time>
</trkpt>
<trkpt lat="45.9008680" lon="10.3455010">
	<ele>1338.20</ele>
	<time>2025-04-29T08:50:27.000Z</time>
</trkpt>
<trkpt lat="45.9008670" lon="10.3455290">
	<ele>1337.80</ele>
	<time>2025-04-29T08:50:28.000Z</time>
</trkpt>
<trkpt lat="45.9008650" lon="10.3455550">
	<ele>1337.60</ele>
	<time>2025-04-29T08:50:29.000Z</time>
</trkpt>
<trkpt lat="45.9008690" lon="10.3455830">
	<ele>1337.20</ele>
	<time>2025-04-29T08:50:30.000Z</time>
</trkpt>
<trkpt lat="45.9008750" lon="10.3456010">
	<ele>1337.00</ele>
	<time>2025-04-29T08:50:31.000Z</time>
</trkpt>
<trkpt lat="45.9008800" lon="10.3456180">
	<ele>1336.80</ele>
	<time>2025-04-29T08:50:32.000Z</time>
</trkpt>
<trkpt lat="45.9008760" lon="10.3456420">
	<ele>1336.60</ele>
	<time>2025-04-29T08:50:33.000Z</time>
</trkpt>
<trkpt lat="45.9008760" lon="10.3456710">
	<ele>1336.40</ele>
	<time>2025-04-29T08:50:34.000Z</time>
</trkpt>
<trkpt lat="45.9008820" lon="10.3456970">
	<ele>1336.20</ele>
	<time>2025-04-29T08:50:35.000Z</time>
</trkpt>
<trkpt lat="45.9008930" lon="10.3457190">
	<ele>1336.00</ele>
	<time>2025-04-29T08:50:36.000Z</time>
</trkpt>
<trkpt lat="45.9009000" lon="10.3457370">
	<ele>1336.00</ele>
	<time>2025-04-29T08:50:37.000Z</time>
</trkpt>
<trkpt lat="45.9009140" lon="10.3457450">
	<ele>1335.80</ele>
	<time>2025-04-29T08:50:38.000Z</time>
</trkpt>
<trkpt lat="45.9009220" lon="10.3457540">
	<ele>1335.80</ele>
	<time>2025-04-29T08:50:39.000Z</time>
</trkpt>
<trkpt lat="45.9009270" lon="10.3457500">
	<ele>1335.60</ele>
	<time>2025-04-29T08:50:40.000Z</time>
</trkpt>
<trkpt lat="45.9009320" lon="10.3457350">
	<ele>1335.60</ele>
	<time>2025-04-29T08:50:41.000Z</time>
</trkpt>
<trkpt lat="45.9009360" lon="10.3457160">
	<ele>1335.60</ele>
	<time>2025-04-29T08:50:42.000Z</time>
</trkpt>
<trkpt lat="45.9009420" lon="10.3456880">
	<ele>1335.40</ele>
	<time>2025-04-29T08:50:43.000Z</time>
</trkpt>
<trkpt lat="45.9009460" lon="10.3456640">
	<ele>1335.20</ele>
	<time>2025-04-29T08:50:44.000Z</time>
</trkpt>
<trkpt lat="45.9009460" lon="10.3456360">
	<ele>1335.20</ele>
	<time>2025-04-29T08:50:45.000Z</time>
</trkpt>
<trkpt lat="45.9009450" lon="10.3456120">
	<ele>1335.00</ele>
	<time>2025-04-29T08:50:46.000Z</time>
</trkpt>
<trkpt lat="45.9009450" lon="10.3455940">
	<ele>1334.80</ele>
	<time>2025-04-29T08:50:47.000Z</time>
</trkpt>
<trkpt lat="45.9009470" lon="10.3455780">
	<ele>1334.40</ele>
	<time>2025-04-29T08:50:48.000Z</time>
</trkpt>
<trkpt lat="45.9009440" lon="10.3455490">
	<ele>1334.20</ele>
	<time>2025-04-29T08:50:49.000Z</time>
</trkpt>
<trkpt lat="45.9009350" lon="10.3455230">
	<ele>1334.20</ele>
	<time>2025-04-29T08:50:50.000Z</time>
</trkpt>
<trkpt lat="45.9009320" lon="10.3455030">
	<ele>1333.80</ele>
	<time>2025-04-29T08:50:51.000Z</time>
</trkpt>
<trkpt lat="45.9009280" lon="10.3454780">
	<ele>1333.40</ele>
	<time>2025-04-29T08:50:52.000Z</time>
</trkpt>
<trkpt lat="45.9009220" lon="10.3454540">
	<ele>1333.00</ele>
	<time>2025-04-29T08:50:53.000Z</time>
</trkpt>
<trkpt lat="45.9009130" lon="10.3454290">
	<ele>1332.60</ele>
	<time>2025-04-29T08:50:54.000Z</time>
</trkpt>
<trkpt lat="45.9009140" lon="10.3454080">
	<ele>1332.40</ele>
	<time>2025-04-29T08:50:55.000Z</time>
</trkpt>
<trkpt lat="45.9009210" lon="10.3454000">
	<ele>1332.00</ele>
	<time>2025-04-29T08:50:56.000Z</time>
</trkpt>
<trkpt lat="45.9009270" lon="10.3453880">
	<ele>1331.80</ele>
	<time>2025-04-29T08:50:57.000Z</time>
</trkpt>
<trkpt lat="45.9009350" lon="10.3453780">
	<ele>1331.60</ele>
	<time>2025-04-29T08:50:58.000Z</time>
</trkpt>
<trkpt lat="45.9009370" lon="10.3453700">
	<ele>1331.40</ele>
	<time>2025-04-29T08:50:59.000Z</time>
</trkpt>
<trkpt lat="45.9009330" lon="10.3453470">
	<ele>1331.20</ele>
	<time>2025-04-29T08:51:00.000Z</time>
</trkpt>
<trkpt lat="45.9009430" lon="10.3453330">
	<ele>1331.00</ele>
	<time>2025-04-29T08:51:01.000Z</time>
</trkpt>
<trkpt lat="45.9009600" lon="10.3453190">
	<ele>1330.80</ele>
	<time>2025-04-29T08:51:02.000Z</time>
</trkpt>
<trkpt lat="45.9009670" lon="10.3453070">
	<ele>1330.60</ele>
	<time>2025-04-29T08:51:03.000Z</time>
</trkpt>
<trkpt lat="45.9009690" lon="10.3452940">
	<ele>1330.20</ele>
	<time>2025-04-29T08:51:04.000Z</time>
</trkpt>
<trkpt lat="45.9009640" lon="10.3452740">
	<ele>1330.00</ele>
	<time>2025-04-29T08:51:05.000Z</time>
</trkpt>
<trkpt lat="45.9009660" lon="10.3452530">
	<ele>1329.80</ele>
	<time>2025-04-29T08:51:06.000Z</time>
</trkpt>
<trkpt lat="45.9009700" lon="10.3452380">
	<ele>1329.60</ele>
	<time>2025-04-29T08:51:07.000Z</time>
</trkpt>
<trkpt lat="45.9009710" lon="10.3452320">
	<ele>1329.20</ele>
	<time>2025-04-29T08:51:08.000Z</time>
</trkpt>
<trkpt lat="45.9009730" lon="10.3452260">
	<ele>1328.80</ele>
	<time>2025-04-29T08:51:09.000Z</time>
</trkpt>
<trkpt lat="45.9009760" lon="10.3452140">
	<ele>1328.60</ele>
	<time>2025-04-29T08:51:10.000Z</time>
</trkpt>
<trkpt lat="45.9009840" lon="10.3452040">
	<ele>1328.40</ele>
	<time>2025-04-29T08:51:11.000Z</time>
</trkpt>
<trkpt lat="45.9009940" lon="10.3451940">
	<ele>1328.00</ele>
	<time>2025-04-29T08:51:12.000Z</time>
</trkpt>
<trkpt lat="45.9010000" lon="10.3451780">
	<ele>1327.80</ele>
	<time>2025-04-29T08:51:13.000Z</time>
</trkpt>
<trkpt lat="45.9010060" lon="10.3451570">
	<ele>1327.60</ele>
	<time>2025-04-29T08:51:14.000Z</time>
</trkpt>
<trkpt lat="45.9010070" lon="10.3451400">
	<ele>1327.20</ele>
	<time>2025-04-29T08:51:15.000Z</time>
</trkpt>
<trkpt lat="45.9010070" lon="10.3451250">
	<ele>1327.00</ele>
	<time>2025-04-29T08:51:16.000Z</time>
</trkpt>
<trkpt lat="45.9010070" lon="10.3451120">
	<ele>1326.80</ele>
	<time>2025-04-29T08:51:17.000Z</time>
</trkpt>
<trkpt lat="45.9010100" lon="10.3451020">
	<ele>1326.40</ele>
	<time>2025-04-29T08:51:18.000Z</time>
</trkpt>
<trkpt lat="45.9010060" lon="10.3450990">
	<ele>1326.20</ele>
	<time>2025-04-29T08:51:19.000Z</time>
</trkpt>
<trkpt lat="45.9010130" lon="10.3450900">
	<ele>1326.00</ele>
	<time>2025-04-29T08:51:20.000Z</time>
</trkpt>
<trkpt lat="45.9010180" lon="10.3450750">
	<ele>1325.80</ele>
	<time>2025-04-29T08:51:21.000Z</time>
</trkpt>
<trkpt lat="45.9010250" lon="10.3450600">
	<ele>1325.60</ele>
	<time>2025-04-29T08:51:22.000Z</time>
</trkpt>
<trkpt lat="45.9010300" lon="10.3450390">
	<ele>1325.40</ele>
	<time>2025-04-29T08:51:23.000Z</time>
</trkpt>
<trkpt lat="45.9010390" lon="10.3450220">
	<ele>1325.20</ele>
	<time>2025-04-29T08:51:24.000Z</time>
</trkpt>
<trkpt lat="45.9010470" lon="10.3450050">
	<ele>1325.00</ele>
	<time>2025-04-29T08:51:25.000Z</time>
</trkpt>
<trkpt lat="45.9010540" lon="10.3449870">
	<ele>1324.60</ele>
	<time>2025-04-29T08:51:26.000Z</time>
</trkpt>
<trkpt lat="45.9010530" lon="10.3449680">
	<ele>1324.40</ele>
	<time>2025-04-29T08:51:27.000Z</time>
</trkpt>
<trkpt lat="45.9010520" lon="10.3449470">
	<ele>1324.20</ele>
	<time>2025-04-29T08:51:28.000Z</time>
</trkpt>
<trkpt lat="45.9010590" lon="10.3449330">
	<ele>1324.00</ele>
	<time>2025-04-29T08:51:29.000Z</time>
</trkpt>
<trkpt lat="45.9010630" lon="10.3449240">
	<ele>1323.60</ele>
	<time>2025-04-29T08:51:30.000Z</time>
</trkpt>
<trkpt lat="45.9010660" lon="10.3449090">
	<ele>1323.60</ele>
	<time>2025-04-29T08:51:31.000Z</time>
</trkpt>
<trkpt lat="45.9010650" lon="10.3449010">
	<ele>1323.20</ele>
	<time>2025-04-29T08:51:32.000Z</time>
</trkpt>
<trkpt lat="45.9010730" lon="10.3448930">
	<ele>1323.00</ele>
	<time>2025-04-29T08:51:33.000Z</time>
</trkpt>
<trkpt lat="45.9010770" lon="10.3448870">
	<ele>1322.80</ele>
	<time>2025-04-29T08:51:34.000Z</time>
</trkpt>
<trkpt lat="45.9010890" lon="10.3448880">
	<ele>1322.60</ele>
	<time>2025-04-29T08:51:35.000Z</time>
</trkpt>
<trkpt lat="45.9010960" lon="10.3448890">
	<ele>1322.40</ele>
	<time>2025-04-29T08:51:36.000Z</time>
</trkpt>
<trkpt lat="45.9011020" lon="10.3448950">
	<ele>1322.20</ele>
	<time>2025-04-29T08:51:37.000Z</time>
</trkpt>
<trkpt lat="45.9011090" lon="10.3449080">
	<ele>1321.80</ele>
	<time>2025-04-29T08:51:38.000Z</time>
</trkpt>
<trkpt lat="45.9011130" lon="10.3449210">
	<ele>1321.60</ele>
	<time>2025-04-29T08:51:39.000Z</time>
</trkpt>
<trkpt lat="45.9011120" lon="10.3449320">
	<ele>1321.40</ele>
	<time>2025-04-29T08:51:40.000Z</time>
</trkpt>
<trkpt lat="45.9011080" lon="10.3449460">
	<ele>1321.00</ele>
	<time>2025-04-29T08:51:41.000Z</time>
</trkpt>
<trkpt lat="45.9011020" lon="10.3449560">
	<ele>1320.60</ele>
	<time>2025-04-29T08:51:42.000Z</time>
</trkpt>
<trkpt lat="45.9010980" lon="10.3449640">
	<ele>1320.20</ele>
	<time>2025-04-29T08:51:43.000Z</time>
</trkpt>
<trkpt lat="45.9010970" lon="10.3449730">
	<ele>1320.00</ele>
	<time>2025-04-29T08:51:44.000Z</time>
</trkpt>
<trkpt lat="45.9010990" lon="10.3449820">
	<ele>1319.60</ele>
	<time>2025-04-29T08:51:45.000Z</time>
</trkpt>
<trkpt lat="45.9011040" lon="10.3449850">
	<ele>1319.20</ele>
	<time>2025-04-29T08:51:46.000Z</time>
</trkpt>
<trkpt lat="45.9011150" lon="10.3449930">
	<ele>1318.80</ele>
	<time>2025-04-29T08:51:47.000Z</time>
</trkpt>
<trkpt lat="45.9011220" lon="10.3450060">
	<ele>1318.60</ele>
	<time>2025-04-29T08:51:48.000Z</time>
</trkpt>
<trkpt lat="45.9011250" lon="10.3450230">
	<ele>1318.40</ele>
	<time>2025-04-29T08:51:49.000Z</time>
</trkpt>
<trkpt lat="45.9011280" lon="10.3450370">
	<ele>1318.20</ele>
	<time>2025-04-29T08:51:50.000Z</time>
</trkpt>
<trkpt lat="45.9011290" lon="10.3450560">
	<ele>1318.00</ele>
	<time>2025-04-29T08:51:51.000Z</time>
</trkpt>
<trkpt lat="45.9011280" lon="10.3450650">
	<ele>1317.80</ele>
	<time>2025-04-29T08:51:52.000Z</time>
</trkpt>
<trkpt lat="45.9011330" lon="10.3450690">
	<ele>1317.60</ele>
	<time>2025-04-29T08:51:53.000Z</time>
</trkpt>
<trkpt lat="45.9011310" lon="10.3450750">
	<ele>1317.40</ele>
	<time>2025-04-29T08:51:54.000Z</time>
</trkpt>
<trkpt lat="45.9011280" lon="10.3450780">
	<ele>1317.20</ele>
	<time>2025-04-29T08:51:55.000Z</time>
</trkpt>
<trkpt lat="45.9011260" lon="10.3450830">
	<ele>1317.00</ele>
	<time>2025-04-29T08:51:56.000Z</time>
</trkpt>
<trkpt lat="45.9011340" lon="10.3450920">
	<ele>1316.80</ele>
	<time>2025-04-29T08:51:57.000Z</time>
</trkpt>
<trkpt lat="45.9011440" lon="10.3451040">
	<ele>1316.60</ele>
	<time>2025-04-29T08:51:58.000Z</time>
</trkpt>
<trkpt lat="45.9011520" lon="10.3451150">
	<ele>1316.20</ele>
	<time>2025-04-29T08:51:59.000Z</time>
</trkpt>
<trkpt lat="45.9011570" lon="10.3451260">
	<ele>1316.00</ele>
	<time>2025-04-29T08:52:00.000Z</time>
</trkpt>
<trkpt lat="45.9011610" lon="10.3451400">
	<ele>1315.60</ele>
	<time>2025-04-29T08:52:01.000Z</time>
</trkpt>
<trkpt lat="45.9011650" lon="10.3451550">
	<ele>1315.40</ele>
	<time>2025-04-29T08:52:02.000Z</time>
</trkpt>
<trkpt lat="45.9011690" lon="10.3451690">
	<ele>1315.00</ele>
	<time>2025-04-29T08:52:03.000Z</time>
</trkpt>
<trkpt lat="45.9011690" lon="10.3451800">
	<ele>1314.60</ele>
	<time>2025-04-29T08:52:04.000Z</time>
</trkpt>
<trkpt lat="45.9011670" lon="10.3451920">
	<ele>1314.40</ele>
	<time>2025-04-29T08:52:05.000Z</time>
</trkpt>
<trkpt lat="45.9011720" lon="10.3452030">
	<ele>1314.20</ele>
	<time>2025-04-29T08:52:06.000Z</time>
</trkpt>
<trkpt lat="45.9011800" lon="10.3452170">
	<ele>1313.80</ele>
	<time>2025-04-29T08:52:07.000Z</time>
</trkpt>
<trkpt lat="45.9011900" lon="10.3452290">
	<ele>1313.60</ele>
	<time>2025-04-29T08:52:08.000Z</time>
</trkpt>
<trkpt lat="45.9012030" lon="10.3452370">
	<ele>1313.40</ele>
	<time>2025-04-29T08:52:09.000Z</time>
</trkpt>
<trkpt lat="45.9012210" lon="10.3452440">
	<ele>1313.20</ele>
	<time>2025-04-29T08:52:10.000Z</time>
</trkpt>
<trkpt lat="45.9012370" lon="10.3452610">
	<ele>1312.80</ele>
	<time>2025-04-29T08:52:11.000Z</time>
</trkpt>
<trkpt lat="45.9012510" lon="10.3452770">
	<ele>1312.60</ele>
	<time>2025-04-29T08:52:12.000Z</time>
</trkpt>
<trkpt lat="45.9012660" lon="10.3452950">
	<ele>1312.20</ele>
	<time>2025-04-29T08:52:13.000Z</time>
</trkpt>
<trkpt lat="45.9012780" lon="10.3453140">
	<ele>1312.00</ele>
	<time>2025-04-29T08:52:14.000Z</time>
</trkpt>
<trkpt lat="45.9012840" lon="10.3453340">
	<ele>1311.80</ele>
	<time>2025-04-29T08:52:15.000Z</time>
</trkpt>
<trkpt lat="45.9012800" lon="10.3453580">
	<ele>1311.60</ele>
	<time>2025-04-29T08:52:16.000Z</time>
</trkpt>
<trkpt lat="45.9012720" lon="10.3453780">
	<ele>1311.40</ele>
	<time>2025-04-29T08:52:17.000Z</time>
</trkpt>
<trkpt lat="45.9012790" lon="10.3454020">
	<ele>1311.40</ele>
	<time>2025-04-29T08:52:18.000Z</time>
</trkpt>
<trkpt lat="45.9012850" lon="10.3454140">
	<ele>1311.20</ele>
	<time>2025-04-29T08:52:19.000Z</time>
</trkpt>
<trkpt lat="45.9012900" lon="10.3454300">
	<ele>1311.20</ele>
	<time>2025-04-29T08:52:20.000Z</time>
</trkpt>
<trkpt lat="45.9012920" lon="10.3454360">
	<ele>1311.00</ele>
	<time>2025-04-29T08:52:21.000Z</time>
</trkpt>
<trkpt lat="45.9012920" lon="10.3454400">
	<ele>1310.80</ele>
	<time>2025-04-29T08:52:22.000Z</time>
</trkpt>
<trkpt lat="45.9012930" lon="10.3454460">
	<ele>1310.60</ele>
	<time>2025-04-29T08:52:23.000Z</time>
</trkpt>
<trkpt lat="45.9013010" lon="10.3454550">
	<ele>1310.20</ele>
	<time>2025-04-29T08:52:24.000Z</time>
</trkpt>
<trkpt lat="45.9013020" lon="10.3454530">
	<ele>1310.00</ele>
	<time>2025-04-29T08:52:25.000Z</time>
</trkpt>
<trkpt lat="45.9013050" lon="10.3454570">
	<ele>1309.80</ele>
	<time>2025-04-29T08:52:26.000Z</time>
</trkpt>
<trkpt lat="45.9013090" lon="10.3454730">
	<ele>1309.40</ele>
	<time>2025-04-29T08:52:27.000Z</time>
</trkpt>
<trkpt lat="45.9013170" lon="10.3454950">
	<ele>1309.00</ele>
	<time>2025-04-29T08:52:28.000Z</time>
</trkpt>
<trkpt lat="45.9013250" lon="10.3455130">
	<ele>1309.00</ele>
	<time>2025-04-29T08:52:29.000Z</time>
</trkpt>
<trkpt lat="45.9013360" lon="10.3455290">
	<ele>1308.80</ele>
	<time>2025-04-29T08:52:30.000Z</time>
</trkpt>
<trkpt lat="45.9013390" lon="10.3455350">
	<ele>1308.80</ele>
	<time>2025-04-29T08:52:31.000Z</time>
</trkpt>
<trkpt lat="45.9013390" lon="10.3455360">
	<ele>1308.80</ele>
	<time>2025-04-29T08:52:32.000Z</time>
</trkpt>
<trkpt lat="45.9013370" lon="10.3455390">
	<ele>1309.00</ele>
	<time>2025-04-29T08:52:33.000Z</time>
</trkpt>
<trkpt lat="45.9013380" lon="10.3455400">
	<ele>1309.40</ele>
	<time>2025-04-29T08:52:34.000Z</time>
</trkpt>
<trkpt lat="45.9013370" lon="10.3455400">
	<ele>1309.40</ele>
	<time>2025-04-29T08:52:35.000Z</time>
</trkpt>
<trkpt lat="45.9013410" lon="10.3455440">
	<ele>1309.60</ele>
	<time>2025-04-29T08:52:36.000Z</time>
</trkpt>
<trkpt lat="45.9013510" lon="10.3455600">
	<ele>1309.60</ele>
	<time>2025-04-29T08:52:37.000Z</time>
</trkpt>
<trkpt lat="45.9013610" lon="10.3455780">
	<ele>1309.60</ele>
	<time>2025-04-29T08:52:38.000Z</time>
</trkpt>
<trkpt lat="45.9013640" lon="10.3455940">
	<ele>1309.60</ele>
	<time>2025-04-29T08:52:39.000Z</time>
</trkpt>
<trkpt lat="45.9013640" lon="10.3456150">
	<ele>1309.60</ele>
	<time>2025-04-29T08:52:40.000Z</time>
</trkpt>
<trkpt lat="45.9013680" lon="10.3456350">
	<ele>1309.60</ele>
	<time>2025-04-29T08:52:41.000Z</time>
</trkpt>
<trkpt lat="45.9013680" lon="10.3456500">
	<ele>1309.80</ele>
	<time>2025-04-29T08:52:42.000Z</time>
</trkpt>
<trkpt lat="45.9013710" lon="10.3456670">
	<ele>1310.00</ele>
	<time>2025-04-29T08:52:43.000Z</time>
</trkpt>
<trkpt lat="45.9013740" lon="10.3456850">
	<ele>1310.00</ele>
	<time>2025-04-29T08:52:44.000Z</time>
</trkpt>
<trkpt lat="45.9013750" lon="10.3457040">
	<ele>1310.00</ele>
	<time>2025-04-29T08:52:45.000Z</time>
</trkpt>
<trkpt lat="45.9013800" lon="10.3457250">
	<ele>1310.20</ele>
	<time>2025-04-29T08:52:46.000Z</time>
</trkpt>
<trkpt lat="45.9013880" lon="10.3457480">
	<ele>1310.20</ele>
	<time>2025-04-29T08:52:47.000Z</time>
</trkpt>
<trkpt lat="45.9013930" lon="10.3457550">
	<ele>1310.20</ele>
	<time>2025-04-29T08:52:48.000Z</time>
</trkpt>
<trkpt lat="45.9014020" lon="10.3457640">
	<ele>1310.20</ele>
	<time>2025-04-29T08:52:49.000Z</time>
</trkpt>
<trkpt lat="45.9014120" lon="10.3457760">
	<ele>1310.40</ele>
	<time>2025-04-29T08:52:50.000Z</time>
</trkpt>
<trkpt lat="45.9014170" lon="10.3457870">
	<ele>1310.40</ele>
	<time>2025-04-29T08:52:51.000Z</time>
</trkpt>
<trkpt lat="45.9014250" lon="10.3458000">
	<ele>1310.40</ele>
	<time>2025-04-29T08:52:52.000Z</time>
</trkpt>
<trkpt lat="45.9014380" lon="10.3458080">
	<ele>1310.40</ele>
	<time>2025-04-29T08:52:53.000Z</time>
</trkpt>
<trkpt lat="45.9014450" lon="10.3458250">
	<ele>1310.40</ele>
	<time>2025-04-29T08:52:54.000Z</time>
</trkpt>
<trkpt lat="45.9014440" lon="10.3458460">
	<ele>1310.40</ele>
	<time>2025-04-29T08:52:55.000Z</time>
</trkpt>
<trkpt lat="45.9014470" lon="10.3458730">
	<ele>1310.40</ele>
	<time>2025-04-29T08:52:56.000Z</time>
</trkpt>
<trkpt lat="45.9014480" lon="10.3458950">
	<ele>1310.40</ele>
	<time>2025-04-29T08:52:57.000Z</time>
</trkpt>
<trkpt lat="45.9014560" lon="10.3459160">
	<ele>1310.40</ele>
	<time>2025-04-29T08:52:58.000Z</time>
</trkpt>
<trkpt lat="45.9014650" lon="10.3459330">
	<ele>1310.40</ele>
	<time>2025-04-29T08:52:59.000Z</time>
</trkpt>
<trkpt lat="45.9014680" lon="10.3459560">
	<ele>1310.40</ele>
	<time>2025-04-29T08:53:00.000Z</time>
</trkpt>
<trkpt lat="45.9014680" lon="10.3459710">
	<ele>1310.60</ele>
	<time>2025-04-29T08:53:01.000Z</time>
</trkpt>
<trkpt lat="45.9014670" lon="10.3459850">
	<ele>1310.60</ele>
	<time>2025-04-29T08:53:02.000Z</time>
</trkpt>
<trkpt lat="45.9014600" lon="10.3459980">
	<ele>1310.60</ele>
	<time>2025-04-29T08:53:03.000Z</time>
</trkpt>
<trkpt lat="45.9014470" lon="10.3460090">
	<ele>1310.80</ele>
	<time>2025-04-29T08:53:04.000Z</time>
</trkpt>
<trkpt lat="45.9014420" lon="10.3460250">
	<ele>1310.80</ele>
	<time>2025-04-29T08:53:05.000Z</time>
</trkpt>
<trkpt lat="45.9014430" lon="10.3460410">
	<ele>1311.20</ele>
	<time>2025-04-29T08:53:06.000Z</time>
</trkpt>
<trkpt lat="45.9014440" lon="10.3460540">
	<ele>1311.40</ele>
	<time>2025-04-29T08:53:07.000Z</time>
</trkpt>
<trkpt lat="45.9014430" lon="10.3460740">
	<ele>1311.60</ele>
	<time>2025-04-29T08:53:08.000Z</time>
</trkpt>
<trkpt lat="45.9014370" lon="10.3460970">
	<ele>1312.00</ele>
	<time>2025-04-29T08:53:09.000Z</time>
</trkpt>
<trkpt lat="45.9014280" lon="10.3461270">
	<ele>1312.00</ele>
	<time>2025-04-29T08:53:10.000Z</time>
</trkpt>
<trkpt lat="45.9014220" lon="10.3461480">
	<ele>1312.20</ele>
	<time>2025-04-29T08:53:11.000Z</time>
</trkpt>
<trkpt lat="45.9014210" lon="10.3461640">
	<ele>1312.40</ele>
	<time>2025-04-29T08:53:12.000Z</time>
</trkpt>
<trkpt lat="45.9014200" lon="10.3461850">
	<ele>1312.40</ele>
	<time>2025-04-29T08:53:13.000Z</time>
</trkpt>
<trkpt lat="45.9014230" lon="10.3462100">
	<ele>1312.40</ele>
	<time>2025-04-29T08:53:14.000Z</time>
</trkpt>
<trkpt lat="45.9014270" lon="10.3462340">
	<ele>1312.60</ele>
	<time>2025-04-29T08:53:15.000Z</time>
</trkpt>
<trkpt lat="45.9014320" lon="10.3462510">
	<ele>1312.60</ele>
	<time>2025-04-29T08:53:16.000Z</time>
</trkpt>
<trkpt lat="45.9014430" lon="10.3462560">
	<ele>1312.60</ele>
	<time>2025-04-29T08:53:17.000Z</time>
</trkpt>
<trkpt lat="45.9014520" lon="10.3462660">
	<ele>1312.60</ele>
	<time>2025-04-29T08:53:18.000Z</time>
</trkpt>
<trkpt lat="45.9014560" lon="10.3462800">
	<ele>1312.80</ele>
	<time>2025-04-29T08:53:19.000Z</time>
</trkpt>
<trkpt lat="45.9014600" lon="10.3462970">
	<ele>1312.80</ele>
	<time>2025-04-29T08:53:20.000Z</time>
</trkpt>
<trkpt lat="45.9014710" lon="10.3463110">
	<ele>1313.00</ele>
	<time>2025-04-29T08:53:21.000Z</time>
</trkpt>
<trkpt lat="45.9014780" lon="10.3463250">
	<ele>1313.20</ele>
	<time>2025-04-29T08:53:22.000Z</time>
</trkpt>
<trkpt lat="45.9014870" lon="10.3463380">
	<ele>1313.40</ele>
	<time>2025-04-29T08:53:23.000Z</time>
</trkpt>
<trkpt lat="45.9014980" lon="10.3463490">
	<ele>1313.40</ele>
	<time>2025-04-29T08:53:24.000Z</time>
</trkpt>
<trkpt lat="45.9015100" lon="10.3463590">
	<ele>1313.60</ele>
	<time>2025-04-29T08:53:25.000Z</time>
</trkpt>
<trkpt lat="45.9015190" lon="10.3463700">
	<ele>1313.80</ele>
	<time>2025-04-29T08:53:26.000Z</time>
</trkpt>
<trkpt lat="45.9015280" lon="10.3463800">
	<ele>1314.00</ele>
	<time>2025-04-29T08:53:27.000Z</time>
</trkpt>
<trkpt lat="45.9015300" lon="10.3463950">
	<ele>1314.00</ele>
	<time>2025-04-29T08:53:28.000Z</time>
</trkpt>
<trkpt lat="45.9015350" lon="10.3464110">
	<ele>1314.00</ele>
	<time>2025-04-29T08:53:29.000Z</time>
</trkpt>
<trkpt lat="45.9015450" lon="10.3464270">
	<ele>1314.00</ele>
	<time>2025-04-29T08:53:30.000Z</time>
</trkpt>
<trkpt lat="45.9015580" lon="10.3464380">
	<ele>1314.20</ele>
	<time>2025-04-29T08:53:31.000Z</time>
</trkpt>
<trkpt lat="45.9015680" lon="10.3464540">
	<ele>1314.40</ele>
	<time>2025-04-29T08:53:32.000Z</time>
</trkpt>
<trkpt lat="45.9015740" lon="10.3464730">
	<ele>1314.60</ele>
	<time>2025-04-29T08:53:33.000Z</time>
</trkpt>
<trkpt lat="45.9015790" lon="10.3464870">
	<ele>1314.60</ele>
	<time>2025-04-29T08:53:34.000Z</time>
</trkpt>
<trkpt lat="45.9015810" lon="10.3464990">
	<ele>1314.80</ele>
	<time>2025-04-29T08:53:35.000Z</time>
</trkpt>
<trkpt lat="45.9015830" lon="10.3465130">
	<ele>1314.80</ele>
	<time>2025-04-29T08:53:36.000Z</time>
</trkpt>
<trkpt lat="45.9015850" lon="10.3465240">
	<ele>1315.00</ele>
	<time>2025-04-29T08:53:37.000Z</time>
</trkpt>
<trkpt lat="45.9015890" lon="10.3465360">
	<ele>1315.20</ele>
	<time>2025-04-29T08:53:38.000Z</time>
</trkpt>
<trkpt lat="45.9015920" lon="10.3465480">
	<ele>1315.40</ele>
	<time>2025-04-29T08:53:39.000Z</time>
</trkpt>
<trkpt lat="45.9015950" lon="10.3465640">
	<ele>1315.80</ele>
	<time>2025-04-29T08:53:40.000Z</time>
</trkpt>
<trkpt lat="45.9015950" lon="10.3465780">
	<ele>1316.00</ele>
	<time>2025-04-29T08:53:41.000Z</time>
</trkpt>
<trkpt lat="45.9015940" lon="10.3465910">
	<ele>1316.20</ele>
	<time>2025-04-29T08:53:42.000Z</time>
</trkpt>
<trkpt lat="45.9015920" lon="10.3466030">
	<ele>1316.60</ele>
	<time>2025-04-29T08:53:43.000Z</time>
</trkpt>
<trkpt lat="45.9015930" lon="10.3466180">
	<ele>1316.80</ele>
	<time>2025-04-29T08:53:44.000Z</time>
</trkpt>
<trkpt lat="45.9015930" lon="10.3466320">
	<ele>1317.00</ele>
	<time>2025-04-29T08:53:45.000Z</time>
</trkpt>
<trkpt lat="45.9015930" lon="10.3466430">
	<ele>1317.20</ele>
	<time>2025-04-29T08:53:46.000Z</time>
</trkpt>
<trkpt lat="45.9015940" lon="10.3466540">
	<ele>1317.40</ele>
	<time>2025-04-29T08:53:47.000Z</time>
</trkpt>
<trkpt lat="45.9015960" lon="10.3466670">
	<ele>1317.60</ele>
	<time>2025-04-29T08:53:48.000Z</time>
</trkpt>
<trkpt lat="45.9015960" lon="10.3466800">
	<ele>1318.00</ele>
	<time>2025-04-29T08:53:49.000Z</time>
</trkpt>
<trkpt lat="45.9015970" lon="10.3466920">
	<ele>1318.20</ele>
	<time>2025-04-29T08:53:50.000Z</time>
</trkpt>
<trkpt lat="45.9015980" lon="10.3467060">
	<ele>1318.40</ele>
	<time>2025-04-29T08:53:51.000Z</time>
</trkpt>
<trkpt lat="45.9015990" lon="10.3467210">
	<ele>1318.60</ele>
	<time>2025-04-29T08:53:52.000Z</time>
</trkpt>
<trkpt lat="45.9015980" lon="10.3467330">
	<ele>1319.00</ele>
	<time>2025-04-29T08:53:53.000Z</time>
</trkpt>
<trkpt lat="45.9015940" lon="10.3467410">
	<ele>1319.40</ele>
	<time>2025-04-29T08:53:54.000Z</time>
</trkpt>
<trkpt lat="45.9015930" lon="10.3467550">
	<ele>1319.60</ele>
	<time>2025-04-29T08:53:55.000Z</time>
</trkpt>
<trkpt lat="45.9015960" lon="10.3467720">
	<ele>1319.80</ele>
	<time>2025-04-29T08:53:56.000Z</time>
</trkpt>
<trkpt lat="45.9015970" lon="10.3467910">
	<ele>1320.00</ele>
	<time>2025-04-29T08:53:57.000Z</time>
</trkpt>
<trkpt lat="45.9015970" lon="10.3468100">
	<ele>1320.00</ele>
	<time>2025-04-29T08:53:58.000Z</time>
</trkpt>
<trkpt lat="45.9016000" lon="10.3468260">
	<ele>1320.20</ele>
	<time>2025-04-29T08:53:59.000Z</time>
</trkpt>
<trkpt lat="45.9016040" lon="10.3468420">
	<ele>1320.40</ele>
	<time>2025-04-29T08:54:00.000Z</time>
</trkpt>
<trkpt lat="45.9016090" lon="10.3468550">
	<ele>1320.40</ele>
	<time>2025-04-29T08:54:01.000Z</time>
</trkpt>
<trkpt lat="45.9016090" lon="10.3468690">
	<ele>1320.40</ele>
	<time>2025-04-29T08:54:02.000Z</time>
</trkpt>
<trkpt lat="45.9016090" lon="10.3468850">
	<ele>1320.60</ele>
	<time>2025-04-29T08:54:03.000Z</time>
</trkpt>
<trkpt lat="45.9016060" lon="10.3469030">
	<ele>1320.60</ele>
	<time>2025-04-29T08:54:04.000Z</time>
</trkpt>
<trkpt lat="45.9016060" lon="10.3469220">
	<ele>1320.60</ele>
	<time>2025-04-29T08:54:05.000Z</time>
</trkpt>
<trkpt lat="45.9016040" lon="10.3469390">
	<ele>1320.60</ele>
	<time>2025-04-29T08:54:06.000Z</time>
</trkpt>
<trkpt lat="45.9016040" lon="10.3469570">
	<ele>1320.80</ele>
	<time>2025-04-29T08:54:07.000Z</time>
</trkpt>
<trkpt lat="45.9016030" lon="10.3469790">
	<ele>1321.00</ele>
	<time>2025-04-29T08:54:08.000Z</time>
</trkpt>
<trkpt lat="45.9016040" lon="10.3470040">
	<ele>1321.00</ele>
	<time>2025-04-29T08:54:09.000Z</time>
</trkpt>
<trkpt lat="45.9016070" lon="10.3470230">
	<ele>1321.20</ele>
	<time>2025-04-29T08:54:10.000Z</time>
</trkpt>
<trkpt lat="45.9016090" lon="10.3470420">
	<ele>1321.20</ele>
	<time>2025-04-29T08:54:11.000Z</time>
</trkpt>
<trkpt lat="45.9016090" lon="10.3470600">
	<ele>1321.20</ele>
	<time>2025-04-29T08:54:12.000Z</time>
</trkpt>
<trkpt lat="45.9016100" lon="10.3470820">
	<ele>1321.20</ele>
	<time>2025-04-29T08:54:13.000Z</time>
</trkpt>
<trkpt lat="45.9016110" lon="10.3471040">
	<ele>1321.20</ele>
	<time>2025-04-29T08:54:14.000Z</time>
</trkpt>
<trkpt lat="45.9016090" lon="10.3471220">
	<ele>1321.20</ele>
	<time>2025-04-29T08:54:15.000Z</time>
</trkpt>
<trkpt lat="45.9016090" lon="10.3471420">
	<ele>1321.20</ele>
	<time>2025-04-29T08:54:16.000Z</time>
</trkpt>
<trkpt lat="45.9016120" lon="10.3471600">
	<ele>1321.40</ele>
	<time>2025-04-29T08:54:17.000Z</time>
</trkpt>
<trkpt lat="45.9016140" lon="10.3471780">
	<ele>1321.60</ele>
	<time>2025-04-29T08:54:18.000Z</time>
</trkpt>
<trkpt lat="45.9016190" lon="10.3471940">
	<ele>1321.60</ele>
	<time>2025-04-29T08:54:19.000Z</time>
</trkpt>
<trkpt lat="45.9016230" lon="10.3472070">
	<ele>1321.80</ele>
	<time>2025-04-29T08:54:20.000Z</time>
</trkpt>
<trkpt lat="45.9016270" lon="10.3472200">
	<ele>1322.00</ele>
	<time>2025-04-29T08:54:21.000Z</time>
</trkpt>
<trkpt lat="45.9016300" lon="10.3472360">
	<ele>1322.00</ele>
	<time>2025-04-29T08:54:22.000Z</time>
</trkpt>
<trkpt lat="45.9016300" lon="10.3472520">
	<ele>1322.20</ele>
	<time>2025-04-29T08:54:23.000Z</time>
</trkpt>
<trkpt lat="45.9016330" lon="10.3472660">
	<ele>1322.40</ele>
	<time>2025-04-29T08:54:24.000Z</time>
</trkpt>
<trkpt lat="45.9016350" lon="10.3472820">
	<ele>1322.60</ele>
	<time>2025-04-29T08:54:25.000Z</time>
</trkpt>
<trkpt lat="45.9016390" lon="10.3472980">
	<ele>1322.80</ele>
	<time>2025-04-29T08:54:26.000Z</time>
</trkpt>
<trkpt lat="45.9016410" lon="10.3473150">
	<ele>1323.00</ele>
	<time>2025-04-29T08:54:27.000Z</time>
</trkpt>
<trkpt lat="45.9016430" lon="10.3473310">
	<ele>1323.00</ele>
	<time>2025-04-29T08:54:28.000Z</time>
</trkpt>
<trkpt lat="45.9016420" lon="10.3473460">
	<ele>1323.40</ele>
	<time>2025-04-29T08:54:29.000Z</time>
</trkpt>
<trkpt lat="45.9016420" lon="10.3473640">
	<ele>1323.80</ele>
	<time>2025-04-29T08:54:30.000Z</time>
</trkpt>
<trkpt lat="45.9016450" lon="10.3473830">
	<ele>1324.00</ele>
	<time>2025-04-29T08:54:31.000Z</time>
</trkpt>
<trkpt lat="45.9016490" lon="10.3473980">
	<ele>1324.20</ele>
	<time>2025-04-29T08:54:32.000Z</time>
</trkpt>
<trkpt lat="45.9016490" lon="10.3474150">
	<ele>1324.40</ele>
	<time>2025-04-29T08:54:33.000Z</time>
</trkpt>
<trkpt lat="45.9016510" lon="10.3474310">
	<ele>1324.40</ele>
	<time>2025-04-29T08:54:34.000Z</time>
</trkpt>
<trkpt lat="45.9016510" lon="10.3474490">
	<ele>1324.60</ele>
	<time>2025-04-29T08:54:35.000Z</time>
</trkpt>
<trkpt lat="45.9016530" lon="10.3474660">
	<ele>1324.80</ele>
	<time>2025-04-29T08:54:36.000Z</time>
</trkpt>
<trkpt lat="45.9016550" lon="10.3474800">
	<ele>1324.80</ele>
	<time>2025-04-29T08:54:37.000Z</time>
</trkpt>
<trkpt lat="45.9016620" lon="10.3474940">
	<ele>1324.80</ele>
	<time>2025-04-29T08:54:38.000Z</time>
</trkpt>
<trkpt lat="45.9016620" lon="10.3475110">
	<ele>1325.00</ele>
	<time>2025-04-29T08:54:39.000Z</time>
</trkpt>
<trkpt lat="45.9016610" lon="10.3475280">
	<ele>1325.00</ele>
	<time>2025-04-29T08:54:40.000Z</time>
</trkpt>
<trkpt lat="45.9016610" lon="10.3475460">
	<ele>1325.20</ele>
	<time>2025-04-29T08:54:41.000Z</time>
</trkpt>
<trkpt lat="45.9016620" lon="10.3475600">
	<ele>1325.40</ele>
	<time>2025-04-29T08:54:42.000Z</time>
</trkpt>
<trkpt lat="45.9016620" lon="10.3475800">
	<ele>1325.60</ele>
	<time>2025-04-29T08:54:43.000Z</time>
</trkpt>
<trkpt lat="45.9016650" lon="10.3475960">
	<ele>1325.80</ele>
	<time>2025-04-29T08:54:44.000Z</time>
</trkpt>
<trkpt lat="45.9016660" lon="10.3476150">
	<ele>1326.00</ele>
	<time>2025-04-29T08:54:45.000Z</time>
</trkpt>
<trkpt lat="45.9016660" lon="10.3476340">
	<ele>1326.00</ele>
	<time>2025-04-29T08:54:46.000Z</time>
</trkpt>
<trkpt lat="45.9016700" lon="10.3476530">
	<ele>1326.20</ele>
	<time>2025-04-29T08:54:47.000Z</time>
</trkpt>
<trkpt lat="45.9016750" lon="10.3476660">
	<ele>1326.20</ele>
	<time>2025-04-29T08:54:48.000Z</time>
</trkpt>
<trkpt lat="45.9016760" lon="10.3476810">
	<ele>1326.40</ele>
	<time>2025-04-29T08:54:49.000Z</time>
</trkpt>
<trkpt lat="45.9016790" lon="10.3476920">
	<ele>1326.60</ele>
	<time>2025-04-29T08:54:50.000Z</time>
</trkpt>
<trkpt lat="45.9016820" lon="10.3477030">
	<ele>1326.80</ele>
	<time>2025-04-29T08:54:51.000Z</time>
</trkpt>
<trkpt lat="45.9016880" lon="10.3477190">
	<ele>1326.80</ele>
	<time>2025-04-29T08:54:52.000Z</time>
</trkpt>
<trkpt lat="45.9016920" lon="10.3477390">
	<ele>1327.00</ele>
	<time>2025-04-29T08:54:53.000Z</time>
</trkpt>
<trkpt lat="45.9016930" lon="10.3477610">
	<ele>1327.20</ele>
	<time>2025-04-29T08:54:54.000Z</time>
</trkpt>
<trkpt lat="45.9016920" lon="10.3477790">
	<ele>1327.20</ele>
	<time>2025-04-29T08:54:55.000Z</time>
</trkpt>
<trkpt lat="45.9016890" lon="10.3477970">
	<ele>1327.40</ele>
	<time>2025-04-29T08:54:56.000Z</time>
</trkpt>
<trkpt lat="45.9016890" lon="10.3478130">
	<ele>1327.60</ele>
	<time>2025-04-29T08:54:57.000Z</time>
</trkpt>
<trkpt lat="45.9016860" lon="10.3478270">
	<ele>1327.80</ele>
	<time>2025-04-29T08:54:58.000Z</time>
</trkpt>
<trkpt lat="45.9016860" lon="10.3478440">
	<ele>1328.00</ele>
	<time>2025-04-29T08:54:59.000Z</time>
</trkpt>
<trkpt lat="45.9016870" lon="10.3478620">
	<ele>1328.20</ele>
	<time>2025-04-29T08:55:00.000Z</time>
</trkpt>
<trkpt lat="45.9016900" lon="10.3478790">
	<ele>1328.20</ele>
	<time>2025-04-29T08:55:01.000Z</time>
</trkpt>
<trkpt lat="45.9016900" lon="10.3478970">
	<ele>1328.20</ele>
	<time>2025-04-29T08:55:02.000Z</time>
</trkpt>
<trkpt lat="45.9016920" lon="10.3479140">
	<ele>1328.00</ele>
	<time>2025-04-29T08:55:03.000Z</time>
</trkpt>
<trkpt lat="45.9016950" lon="10.3479300">
	<ele>1328.00</ele>
	<time>2025-04-29T08:55:04.000Z</time>
</trkpt>
<trkpt lat="45.9016970" lon="10.3479480">
	<ele>1327.80</ele>
	<time>2025-04-29T08:55:05.000Z</time>
</trkpt>
<trkpt lat="45.9016980" lon="10.3479670">
	<ele>1327.80</ele>
	<time>2025-04-29T08:55:06.000Z</time>
</trkpt>
<trkpt lat="45.9016980" lon="10.3479840">
	<ele>1327.80</ele>
	<time>2025-04-29T08:55:07.000Z</time>
</trkpt>
<trkpt lat="45.9016980" lon="10.3480000">
	<ele>1327.80</ele>
	<time>2025-04-29T08:55:08.000Z</time>
</trkpt>
<trkpt lat="45.9016990" lon="10.3480180">
	<ele>1327.80</ele>
	<time>2025-04-29T08:55:09.000Z</time>
</trkpt>
<trkpt lat="45.9016990" lon="10.3480340">
	<ele>1327.80</ele>
	<time>2025-04-29T08:55:10.000Z</time>
</trkpt>
<trkpt lat="45.9016990" lon="10.3480500">
	<ele>1328.00</ele>
	<time>2025-04-29T08:55:11.000Z</time>
</trkpt>
<trkpt lat="45.9016990" lon="10.3480660">
	<ele>1328.20</ele>
	<time>2025-04-29T08:55:12.000Z</time>
</trkpt>
<trkpt lat="45.9016980" lon="10.3480810">
	<ele>1328.40</ele>
	<time>2025-04-29T08:55:13.000Z</time>
</trkpt>
<trkpt lat="45.9016970" lon="10.3480990">
	<ele>1328.60</ele>
	<time>2025-04-29T08:55:14.000Z</time>
</trkpt>
<trkpt lat="45.9016950" lon="10.3481190">
	<ele>1328.80</ele>
	<time>2025-04-29T08:55:15.000Z</time>
</trkpt>
<trkpt lat="45.9016930" lon="10.3481340">
	<ele>1329.00</ele>
	<time>2025-04-29T08:55:16.000Z</time>
</trkpt>
<trkpt lat="45.9016910" lon="10.3481460">
	<ele>1329.20</ele>
	<time>2025-04-29T08:55:17.000Z</time>
</trkpt>
<trkpt lat="45.9016920" lon="10.3481600">
	<ele>1329.20</ele>
	<time>2025-04-29T08:55:18.000Z</time>
</trkpt>
<trkpt lat="45.9016930" lon="10.3481780">
	<ele>1329.40</ele>
	<time>2025-04-29T08:55:19.000Z</time>
</trkpt>
<trkpt lat="45.9016910" lon="10.3481970">
	<ele>1329.60</ele>
	<time>2025-04-29T08:55:20.000Z</time>
</trkpt>
<trkpt lat="45.9016890" lon="10.3482130">
	<ele>1329.80</ele>
	<time>2025-04-29T08:55:21.000Z</time>
</trkpt>
<trkpt lat="45.9016850" lon="10.3482270">
	<ele>1330.00</ele>
	<time>2025-04-29T08:55:22.000Z</time>
</trkpt>
<trkpt lat="45.9016830" lon="10.3482420">
	<ele>1330.20</ele>
	<time>2025-04-29T08:55:23.000Z</time>
</trkpt>
<trkpt lat="45.9016820" lon="10.3482550">
	<ele>1330.40</ele>
	<time>2025-04-29T08:55:24.000Z</time>
</trkpt>
<trkpt lat="45.9016790" lon="10.3482690">
	<ele>1330.40</ele>
	<time>2025-04-29T08:55:25.000Z</time>
</trkpt>
<trkpt lat="45.9016770" lon="10.3482750">
	<ele>1330.60</ele>
	<time>2025-04-29T08:55:26.000Z</time>
</trkpt>
<trkpt lat="45.9016740" lon="10.3482770">
	<ele>1330.60</ele>
	<time>2025-04-29T08:55:27.000Z</time>
</trkpt>
<trkpt lat="45.9016730" lon="10.3482790">
	<ele>1330.60</ele>
	<time>2025-04-29T08:55:28.000Z</time>
</trkpt>
<trkpt lat="45.9016730" lon="10.3482870">
	<ele>1330.80</ele>
	<time>2025-04-29T08:55:29.000Z</time>
</trkpt>
<trkpt lat="45.9016730" lon="10.3482990">
	<ele>1330.80</ele>
	<time>2025-04-29T08:55:30.000Z</time>
</trkpt>
<trkpt lat="45.9016720" lon="10.3483120">
	<ele>1331.00</ele>
	<time>2025-04-29T08:55:31.000Z</time>
</trkpt>
<trkpt lat="45.9016710" lon="10.3483290">
	<ele>1331.00</ele>
	<time>2025-04-29T08:55:32.000Z</time>
</trkpt>
<trkpt lat="45.9016740" lon="10.3483450">
	<ele>1331.20</ele>
	<time>2025-04-29T08:55:33.000Z</time>
</trkpt>
<trkpt lat="45.9016730" lon="10.3483640">
	<ele>1331.20</ele>
	<time>2025-04-29T08:55:34.000Z</time>
</trkpt>
<trkpt lat="45.9016710" lon="10.3483840">
	<ele>1331.20</ele>
	<time>2025-04-29T08:55:35.000Z</time>
</trkpt>
<trkpt lat="45.9016710" lon="10.3483990">
	<ele>1331.60</ele>
	<time>2025-04-29T08:55:36.000Z</time>
</trkpt>
<trkpt lat="45.9016750" lon="10.3484130">
	<ele>1331.60</ele>
	<time>2025-04-29T08:55:37.000Z</time>
</trkpt>
<trkpt lat="45.9016770" lon="10.3484280">
	<ele>1331.80</ele>
	<time>2025-04-29T08:55:38.000Z</time>
</trkpt>
<trkpt lat="45.9016770" lon="10.3484400">
	<ele>1331.80</ele>
	<time>2025-04-29T08:55:39.000Z</time>
</trkpt>
<trkpt lat="45.9016730" lon="10.3484570">
	<ele>1332.00</ele>
	<time>2025-04-29T08:55:40.000Z</time>
</trkpt>
<trkpt lat="45.9016700" lon="10.3484780">
	<ele>1332.00</ele>
	<time>2025-04-29T08:55:41.000Z</time>
</trkpt>
<trkpt lat="45.9016710" lon="10.3484960">
	<ele>1332.20</ele>
	<time>2025-04-29T08:55:42.000Z</time>
</trkpt>
<trkpt lat="45.9016730" lon="10.3485150">
	<ele>1332.20</ele>
	<time>2025-04-29T08:55:43.000Z</time>
</trkpt>
<trkpt lat="45.9016720" lon="10.3485320">
	<ele>1332.40</ele>
	<time>2025-04-29T08:55:44.000Z</time>
</trkpt>
<trkpt lat="45.9016660" lon="10.3485470">
	<ele>1332.60</ele>
	<time>2025-04-29T08:55:45.000Z</time>
</trkpt>
<trkpt lat="45.9016620" lon="10.3485660">
	<ele>1332.80</ele>
	<time>2025-04-29T08:55:46.000Z</time>
</trkpt>
<trkpt lat="45.9016590" lon="10.3485850">
	<ele>1332.80</ele>
	<time>2025-04-29T08:55:47.000Z</time>
</trkpt>
<trkpt lat="45.9016500" lon="10.3486030">
	<ele>1332.80</ele>
	<time>2025-04-29T08:55:48.000Z</time>
</trkpt>
<trkpt lat="45.9016540" lon="10.3486210">
	<ele>1332.80</ele>
	<time>2025-04-29T08:55:49.000Z</time>
</trkpt>
<trkpt lat="45.9016680" lon="10.3486410">
	<ele>1332.80</ele>
	<time>2025-04-29T08:55:50.000Z</time>
</trkpt>
<trkpt lat="45.9016790" lon="10.3486620">
	<ele>1333.00</ele>
	<time>2025-04-29T08:55:51.000Z</time>
</trkpt>
<trkpt lat="45.9016830" lon="10.3486770">
	<ele>1333.00</ele>
	<time>2025-04-29T08:55:52.000Z</time>
</trkpt>
<trkpt lat="45.9016850" lon="10.3486910">
	<ele>1333.20</ele>
	<time>2025-04-29T08:55:53.000Z</time>
</trkpt>
<trkpt lat="45.9016800" lon="10.3487120">
	<ele>1333.20</ele>
	<time>2025-04-29T08:55:54.000Z</time>
</trkpt>
<trkpt lat="45.9016760" lon="10.3487340">
	<ele>1333.40</ele>
	<time>2025-04-29T08:55:55.000Z</time>
</trkpt>
<trkpt lat="45.9016710" lon="10.3487450">
	<ele>1333.40</ele>
	<time>2025-04-29T08:55:56.000Z</time>
</trkpt>
<trkpt lat="45.9016740" lon="10.3487610">
	<ele>1333.60</ele>
	<time>2025-04-29T08:55:57.000Z</time>
</trkpt>
<trkpt lat="45.9016770" lon="10.3487750">
	<ele>1333.80</ele>
	<time>2025-04-29T08:55:58.000Z</time>
</trkpt>
<trkpt lat="45.9016750" lon="10.3487900">
	<ele>1333.80</ele>
	<time>2025-04-29T08:55:59.000Z</time>
</trkpt>
<trkpt lat="45.9016770" lon="10.3488050">
	<ele>1333.80</ele>
	<time>2025-04-29T08:56:00.000Z</time>
</trkpt>
<trkpt lat="45.9016770" lon="10.3488200">
	<ele>1334.00</ele>
	<time>2025-04-29T08:56:01.000Z</time>
</trkpt>
<trkpt lat="45.9016780" lon="10.3488350">
	<ele>1334.00</ele>
	<time>2025-04-29T08:56:02.000Z</time>
</trkpt>
<trkpt lat="45.9016780" lon="10.3488520">
	<ele>1334.20</ele>
	<time>2025-04-29T08:56:03.000Z</time>
</trkpt>
<trkpt lat="45.9016760" lon="10.3488640">
	<ele>1334.40</ele>
	<time>2025-04-29T08:56:04.000Z</time>
</trkpt>
<trkpt lat="45.9016750" lon="10.3488750">
	<ele>1334.80</ele>
	<time>2025-04-29T08:56:05.000Z</time>
</trkpt>
<trkpt lat="45.9016770" lon="10.3488970">
	<ele>1335.20</ele>
	<time>2025-04-29T08:56:06.000Z</time>
</trkpt>
<trkpt lat="45.9016750" lon="10.3489110">
	<ele>1335.40</ele>
	<time>2025-04-29T08:56:07.000Z</time>
</trkpt>
<trkpt lat="45.9016700" lon="10.3489250">
	<ele>1335.40</ele>
	<time>2025-04-29T08:56:08.000Z</time>
</trkpt>
<trkpt lat="45.9016710" lon="10.3489410">
	<ele>1335.60</ele>
	<time>2025-04-29T08:56:09.000Z</time>
</trkpt>
<trkpt lat="45.9016730" lon="10.3489560">
	<ele>1335.80</ele>
	<time>2025-04-29T08:56:10.000Z</time>
</trkpt>
<trkpt lat="45.9016770" lon="10.3489740">
	<ele>1335.80</ele>
	<time>2025-04-29T08:56:11.000Z</time>
</trkpt>
<trkpt lat="45.9016780" lon="10.3489890">
	<ele>1336.00</ele>
	<time>2025-04-29T08:56:12.000Z</time>
</trkpt>
<trkpt lat="45.9016790" lon="10.3490030">
	<ele>1336.20</ele>
	<time>2025-04-29T08:56:13.000Z</time>
</trkpt>
<trkpt lat="45.9016800" lon="10.3490180">
	<ele>1336.40</ele>
	<time>2025-04-29T08:56:14.000Z</time>
</trkpt>
<trkpt lat="45.9016790" lon="10.3490310">
	<ele>1336.80</ele>
	<time>2025-04-29T08:56:15.000Z</time>
</trkpt>
<trkpt lat="45.9016760" lon="10.3490450">
	<ele>1337.00</ele>
	<time>2025-04-29T08:56:16.000Z</time>
</trkpt>
<trkpt lat="45.9016730" lon="10.3490600">
	<ele>1337.20</ele>
	<time>2025-04-29T08:56:17.000Z</time>
</trkpt>
<trkpt lat="45.9016710" lon="10.3490770">
	<ele>1337.40</ele>
	<time>2025-04-29T08:56:18.000Z</time>
</trkpt>
<trkpt lat="45.9016690" lon="10.3490920">
	<ele>1337.60</ele>
	<time>2025-04-29T08:56:19.000Z</time>
</trkpt>
<trkpt lat="45.9016650" lon="10.3491070">
	<ele>1337.60</ele>
	<time>2025-04-29T08:56:20.000Z</time>
</trkpt>
<trkpt lat="45.9016590" lon="10.3491260">
	<ele>1337.80</ele>
	<time>2025-04-29T08:56:21.000Z</time>
</trkpt>
<trkpt lat="45.9016510" lon="10.3491470">
	<ele>1337.80</ele>
	<time>2025-04-29T08:56:22.000Z</time>
</trkpt>
<trkpt lat="45.9016440" lon="10.3491660">
	<ele>1337.80</ele>
	<time>2025-04-29T08:56:23.000Z</time>
</trkpt>
<trkpt lat="45.9016390" lon="10.3491780">
	<ele>1338.00</ele>
	<time>2025-04-29T08:56:24.000Z</time>
</trkpt>
<trkpt lat="45.9016320" lon="10.3491930">
	<ele>1338.20</ele>
	<time>2025-04-29T08:56:25.000Z</time>
</trkpt>
<trkpt lat="45.9016250" lon="10.3492100">
	<ele>1338.20</ele>
	<time>2025-04-29T08:56:26.000Z</time>
</trkpt>
<trkpt lat="45.9016210" lon="10.3492320">
	<ele>1338.40</ele>
	<time>2025-04-29T08:56:27.000Z</time>
</trkpt>
<trkpt lat="45.9016180" lon="10.3492480">
	<ele>1338.40</ele>
	<time>2025-04-29T08:56:28.000Z</time>
</trkpt>
<trkpt lat="45.9016120" lon="10.3492610">
	<ele>1338.40</ele>
	<time>2025-04-29T08:56:29.000Z</time>
</trkpt>
<trkpt lat="45.9016080" lon="10.3492810">
	<ele>1338.60</ele>
	<time>2025-04-29T08:56:30.000Z</time>
</trkpt>
<trkpt lat="45.9016020" lon="10.3492960">
	<ele>1338.60</ele>
	<time>2025-04-29T08:56:31.000Z</time>
</trkpt>
<trkpt lat="45.9015970" lon="10.3493070">
	<ele>1338.80</ele>
	<time>2025-04-29T08:56:32.000Z</time>
</trkpt>
<trkpt lat="45.9015910" lon="10.3493190">
	<ele>1338.80</ele>
	<time>2025-04-29T08:56:33.000Z</time>
</trkpt>
<trkpt lat="45.9015860" lon="10.3493310">
	<ele>1339.00</ele>
	<time>2025-04-29T08:56:34.000Z</time>
</trkpt>
<trkpt lat="45.9015830" lon="10.3493540">
	<ele>1339.40</ele>
	<time>2025-04-29T08:56:35.000Z</time>
</trkpt>
<trkpt lat="45.9015780" lon="10.3493720">
	<ele>1339.40</ele>
	<time>2025-04-29T08:56:36.000Z</time>
</trkpt>
<trkpt lat="45.9015720" lon="10.3493900">
	<ele>1339.60</ele>
	<time>2025-04-29T08:56:37.000Z</time>
</trkpt>
<trkpt lat="45.9015680" lon="10.3494080">
	<ele>1339.80</ele>
	<time>2025-04-29T08:56:38.000Z</time>
</trkpt>
<trkpt lat="45.9015660" lon="10.3494240">
	<ele>1339.80</ele>
	<time>2025-04-29T08:56:39.000Z</time>
</trkpt>
<trkpt lat="45.9015640" lon="10.3494420">
	<ele>1340.00</ele>
	<time>2025-04-29T08:56:40.000Z</time>
</trkpt>
<trkpt lat="45.9015640" lon="10.3494600">
	<ele>1340.00</ele>
	<time>2025-04-29T08:56:41.000Z</time>
</trkpt>
<trkpt lat="45.9015650" lon="10.3494760">
	<ele>1340.40</ele>
	<time>2025-04-29T08:56:42.000Z</time>
</trkpt>
<trkpt lat="45.9015680" lon="10.3494870">
	<ele>1340.60</ele>
	<time>2025-04-29T08:56:43.000Z</time>
</trkpt>
<trkpt lat="45.9015680" lon="10.3495030">
	<ele>1340.60</ele>
	<time>2025-04-29T08:56:44.000Z</time>
</trkpt>
<trkpt lat="45.9015660" lon="10.3495190">
	<ele>1340.80</ele>
	<time>2025-04-29T08:56:45.000Z</time>
</trkpt>
<trkpt lat="45.9015670" lon="10.3495350">
	<ele>1341.00</ele>
	<time>2025-04-29T08:56:46.000Z</time>
</trkpt>
<trkpt lat="45.9015660" lon="10.3495420">
	<ele>1341.40</ele>
	<time>2025-04-29T08:56:47.000Z</time>
</trkpt>
<trkpt lat="45.9015650" lon="10.3495540">
	<ele>1341.60</ele>
	<time>2025-04-29T08:56:48.000Z</time>
</trkpt>
<trkpt lat="45.9015620" lon="10.3495670">
	<ele>1341.80</ele>
	<time>2025-04-29T08:56:49.000Z</time>
</trkpt>
<trkpt lat="45.9015610" lon="10.3495810">
	<ele>1342.00</ele>
	<time>2025-04-29T08:56:50.000Z</time>
</trkpt>
<trkpt lat="45.9015600" lon="10.3495980">
	<ele>1342.20</ele>
	<time>2025-04-29T08:56:51.000Z</time>
</trkpt>
<trkpt lat="45.9015600" lon="10.3496110">
	<ele>1342.20</ele>
	<time>2025-04-29T08:56:52.000Z</time>
</trkpt>
<trkpt lat="45.9015590" lon="10.3496250">
	<ele>1342.60</ele>
	<time>2025-04-29T08:56:53.000Z</time>
</trkpt>
<trkpt lat="45.9015590" lon="10.3496380">
	<ele>1342.80</ele>
	<time>2025-04-29T08:56:54.000Z</time>
</trkpt>
<trkpt lat="45.9015630" lon="10.3496520">
	<ele>1342.80</ele>
	<time>2025-04-29T08:56:55.000Z</time>
</trkpt>
<trkpt lat="45.9015640" lon="10.3496620">
	<ele>1343.20</ele>
	<time>2025-04-29T08:56:56.000Z</time>
</trkpt>
<trkpt lat="45.9015670" lon="10.3496750">
	<ele>1343.40</ele>
	<time>2025-04-29T08:56:57.000Z</time>
</trkpt>
<trkpt lat="45.9015680" lon="10.3496870">
	<ele>1343.60</ele>
	<time>2025-04-29T08:56:58.000Z</time>
</trkpt>
<trkpt lat="45.9015680" lon="10.3497010">
	<ele>1343.80</ele>
	<time>2025-04-29T08:56:59.000Z</time>
</trkpt>
<trkpt lat="45.9015670" lon="10.3497150">
	<ele>1344.00</ele>
	<time>2025-04-29T08:57:00.000Z</time>
</trkpt>
<trkpt lat="45.9015670" lon="10.3497270">
	<ele>1344.00</ele>
	<time>2025-04-29T08:57:01.000Z</time>
</trkpt>
<trkpt lat="45.9015680" lon="10.3497420">
	<ele>1344.20</ele>
	<time>2025-04-29T08:57:02.000Z</time>
</trkpt>
<trkpt lat="45.9015710" lon="10.3497570">
	<ele>1344.20</ele>
	<time>2025-04-29T08:57:03.000Z</time>
</trkpt>
<trkpt lat="45.9015770" lon="10.3497660">
	<ele>1344.40</ele>
	<time>2025-04-29T08:57:04.000Z</time>
</trkpt>
<trkpt lat="45.9015800" lon="10.3497830">
	<ele>1344.60</ele>
	<time>2025-04-29T08:57:05.000Z</time>
</trkpt>
<trkpt lat="45.9015800" lon="10.3497900">
	<ele>1344.80</ele>
	<time>2025-04-29T08:57:06.000Z</time>
</trkpt>
<trkpt lat="45.9015810" lon="10.3497990">
	<ele>1345.00</ele>
	<time>2025-04-29T08:57:07.000Z</time>
</trkpt>
<trkpt lat="45.9015810" lon="10.3498070">
	<ele>1345.20</ele>
	<time>2025-04-29T08:57:08.000Z</time>
</trkpt>
<trkpt lat="45.9015810" lon="10.3498200">
	<ele>1345.40</ele>
	<time>2025-04-29T08:57:09.000Z</time>
</trkpt>
<trkpt lat="45.9015800" lon="10.3498370">
	<ele>1345.60</ele>
	<time>2025-04-29T08:57:10.000Z</time>
</trkpt>
<trkpt lat="45.9015800" lon="10.3498450">
	<ele>1345.80</ele>
	<time>2025-04-29T08:57:11.000Z</time>
</trkpt>
<trkpt lat="45.9015820" lon="10.3498570">
	<ele>1346.00</ele>
	<time>2025-04-29T08:57:12.000Z</time>
</trkpt>
<trkpt lat="45.9015800" lon="10.3498690">
	<ele>1346.20</ele>
	<time>2025-04-29T08:57:13.000Z</time>
</trkpt>
<trkpt lat="45.9015800" lon="10.3498900">
	<ele>1346.60</ele>
	<time>2025-04-29T08:57:14.000Z</time>
</trkpt>
<trkpt lat="45.9015780" lon="10.3499060">
	<ele>1346.80</ele>
	<time>2025-04-29T08:57:15.000Z</time>
</trkpt>
<trkpt lat="45.9015770" lon="10.3499170">
	<ele>1347.00</ele>
	<time>2025-04-29T08:57:16.000Z</time>
</trkpt>
<trkpt lat="45.9015840" lon="10.3499310">
	<ele>1347.00</ele>
	<time>2025-04-29T08:57:17.000Z</time>
</trkpt>
<trkpt lat="45.9015890" lon="10.3499430">
	<ele>1347.20</ele>
	<time>2025-04-29T08:57:18.000Z</time>
</trkpt>
<trkpt lat="45.9016010" lon="10.3499560">
	<ele>1347.60</ele>
	<time>2025-04-29T08:57:19.000Z</time>
</trkpt>
<trkpt lat="45.9016050" lon="10.3499580">
	<ele>1347.80</ele>
	<time>2025-04-29T08:57:20.000Z</time>
</trkpt>
<trkpt lat="45.9016070" lon="10.3499590">
	<ele>1348.00</ele>
	<time>2025-04-29T08:57:21.000Z</time>
</trkpt>
<trkpt lat="45.9016080" lon="10.3499570">
	<ele>1348.20</ele>
	<time>2025-04-29T08:57:22.000Z</time>
</trkpt>
<trkpt lat="45.9016070" lon="10.3499580">
	<ele>1348.20</ele>
	<time>2025-04-29T08:57:23.000Z</time>
</trkpt>
<trkpt lat="45.9016060" lon="10.3499570">
	<ele>1348.20</ele>
	<time>2025-04-29T08:57:24.000Z</time>
</trkpt>
<trkpt lat="45.9016040" lon="10.3499550">
	<ele>1348.20</ele>
	<time>2025-04-29T08:57:25.000Z</time>
</trkpt>
<trkpt lat="45.9016020" lon="10.3499530">
	<ele>1348.40</ele>
	<time>2025-04-29T08:57:26.000Z</time>
</trkpt>
<trkpt lat="45.9016010" lon="10.3499540">
	<ele>1348.40</ele>
	<time>2025-04-29T08:57:27.000Z</time>
</trkpt>
<trkpt lat="45.9016000" lon="10.3499520">
	<ele>1348.40</ele>
	<time>2025-04-29T08:57:28.000Z</time>
</trkpt>
<trkpt lat="45.9015990" lon="10.3499550">
	<ele>1348.40</ele>
	<time>2025-04-29T08:57:29.000Z</time>
</trkpt>
<trkpt lat="45.9015960" lon="10.3499660">
	<ele>1348.40</ele>
	<time>2025-04-29T08:57:30.000Z</time>
</trkpt>
<trkpt lat="45.9015920" lon="10.3499760">
	<ele>1348.40</ele>
	<time>2025-04-29T08:57:31.000Z</time>
</trkpt>
<trkpt lat="45.9015900" lon="10.3499860">
	<ele>1348.40</ele>
	<time>2025-04-29T08:57:32.000Z</time>
</trkpt>
<trkpt lat="45.9015890" lon="10.3499990">
	<ele>1348.60</ele>
	<time>2025-04-29T08:57:33.000Z</time>
</trkpt>
<trkpt lat="45.9015870" lon="10.3500090">
	<ele>1348.60</ele>
	<time>2025-04-29T08:57:34.000Z</time>
</trkpt>
<trkpt lat="45.9015850" lon="10.3500240">
	<ele>1348.80</ele>
	<time>2025-04-29T08:57:35.000Z</time>
</trkpt>
<trkpt lat="45.9015800" lon="10.3500360">
	<ele>1349.00</ele>
	<time>2025-04-29T08:57:36.000Z</time>
</trkpt>
<trkpt lat="45.9015800" lon="10.3500490">
	<ele>1349.20</ele>
	<time>2025-04-29T08:57:37.000Z</time>
</trkpt>
<trkpt lat="45.9015820" lon="10.3500600">
	<ele>1349.60</ele>
	<time>2025-04-29T08:57:38.000Z</time>
</trkpt>
<trkpt lat="45.9015840" lon="10.3500760">
	<ele>1349.80</ele>
	<time>2025-04-29T08:57:39.000Z</time>
</trkpt>
<trkpt lat="45.9015850" lon="10.3500900">
	<ele>1350.00</ele>
	<time>2025-04-29T08:57:40.000Z</time>
</trkpt>
<trkpt lat="45.9015860" lon="10.3501080">
	<ele>1350.20</ele>
	<time>2025-04-29T08:57:41.000Z</time>
</trkpt>
<trkpt lat="45.9015860" lon="10.3501200">
	<ele>1350.40</ele>
	<time>2025-04-29T08:57:42.000Z</time>
</trkpt>
<trkpt lat="45.9015830" lon="10.3501280">
	<ele>1350.40</ele>
	<time>2025-04-29T08:57:43.000Z</time>
</trkpt>
<trkpt lat="45.9015810" lon="10.3501350">
	<ele>1350.60</ele>
	<time>2025-04-29T08:57:44.000Z</time>
</trkpt>
<trkpt lat="45.9015780" lon="10.3501480">
	<ele>1350.80</ele>
	<time>2025-04-29T08:57:45.000Z</time>
</trkpt>
<trkpt lat="45.9015760" lon="10.3501570">
	<ele>1351.00</ele>
	<time>2025-04-29T08:57:46.000Z</time>
</trkpt>
<trkpt lat="45.9015740" lon="10.3501670">
	<ele>1351.20</ele>
	<time>2025-04-29T08:57:47.000Z</time>
</trkpt>
<trkpt lat="45.9015700" lon="10.3501830">
	<ele>1351.40</ele>
	<time>2025-04-29T08:57:48.000Z</time>
</trkpt>
<trkpt lat="45.9015680" lon="10.3502040">
	<ele>1351.60</ele>
	<time>2025-04-29T08:57:49.000Z</time>
</trkpt>
<trkpt lat="45.9015690" lon="10.3502280">
	<ele>1352.00</ele>
	<time>2025-04-29T08:57:50.000Z</time>
</trkpt>
<trkpt lat="45.9015740" lon="10.3502330">
	<ele>1352.20</ele>
	<time>2025-04-29T08:57:51.000Z</time>
</trkpt>
<trkpt lat="45.9015730" lon="10.3502410">
	<ele>1352.40</ele>
	<time>2025-04-29T08:57:52.000Z</time>
</trkpt>
<trkpt lat="45.9015790" lon="10.3502560">
	<ele>1352.40</ele>
	<time>2025-04-29T08:57:53.000Z</time>
</trkpt>
<trkpt lat="45.9015880" lon="10.3502650">
	<ele>1352.60</ele>
	<time>2025-04-29T08:57:54.000Z</time>
</trkpt>
<trkpt lat="45.9015940" lon="10.3502830">
	<ele>1352.60</ele>
	<time>2025-04-29T08:57:55.000Z</time>
</trkpt>
<trkpt lat="45.9016040" lon="10.3503080">
	<ele>1352.80</ele>
	<time>2025-04-29T08:57:56.000Z</time>
</trkpt>
<trkpt lat="45.9016100" lon="10.3503280">
	<ele>1352.80</ele>
	<time>2025-04-29T08:57:57.000Z</time>
</trkpt>
<trkpt lat="45.9016150" lon="10.3503500">
	<ele>1353.00</ele>
	<time>2025-04-29T08:57:58.000Z</time>
</trkpt>
<trkpt lat="45.9016190" lon="10.3503650">
	<ele>1353.20</ele>
	<time>2025-04-29T08:57:59.000Z</time>
</trkpt>
<trkpt lat="45.9016170" lon="10.3503870">
	<ele>1353.20</ele>
	<time>2025-04-29T08:58:00.000Z</time>
</trkpt>
<trkpt lat="45.9016210" lon="10.3504070">
	<ele>1353.40</ele>
	<time>2025-04-29T08:58:01.000Z</time>
</trkpt>
<trkpt lat="45.9016290" lon="10.3504220">
	<ele>1353.40</ele>
	<time>2025-04-29T08:58:02.000Z</time>
</trkpt>
<trkpt lat="45.9016340" lon="10.3504420">
	<ele>1353.40</ele>
	<time>2025-04-29T08:58:03.000Z</time>
</trkpt>
<trkpt lat="45.9016430" lon="10.3504590">
	<ele>1353.40</ele>
	<time>2025-04-29T08:58:04.000Z</time>
</trkpt>
<trkpt lat="45.9016400" lon="10.3504900">
	<ele>1353.60</ele>
	<time>2025-04-29T08:58:05.000Z</time>
</trkpt>
<trkpt lat="45.9016380" lon="10.3505070">
	<ele>1353.80</ele>
	<time>2025-04-29T08:58:06.000Z</time>
</trkpt>
<trkpt lat="45.9016430" lon="10.3505210">
	<ele>1354.00</ele>
	<time>2025-04-29T08:58:07.000Z</time>
</trkpt>
<trkpt lat="45.9016460" lon="10.3505360">
	<ele>1354.20</ele>
	<time>2025-04-29T08:58:08.000Z</time>
</trkpt>
<trkpt lat="45.9016510" lon="10.3505580">
	<ele>1354.40</ele>
	<time>2025-04-29T08:58:09.000Z</time>
</trkpt>
<trkpt lat="45.9016580" lon="10.3505720">
	<ele>1354.80</ele>
	<time>2025-04-29T08:58:10.000Z</time>
</trkpt>
<trkpt lat="45.9016680" lon="10.3505750">
	<ele>1355.00</ele>
	<time>2025-04-29T08:58:11.000Z</time>
</trkpt>
<trkpt lat="45.9016750" lon="10.3505820">
	<ele>1355.20</ele>
	<time>2025-04-29T08:58:12.000Z</time>
</trkpt>
<trkpt lat="45.9016870" lon="10.3505920">
	<ele>1355.20</ele>
	<time>2025-04-29T08:58:13.000Z</time>
</trkpt>
<trkpt lat="45.9016940" lon="10.3506070">
	<ele>1355.20</ele>
	<time>2025-04-29T08:58:14.000Z</time>
</trkpt>
<trkpt lat="45.9017040" lon="10.3506230">
	<ele>1355.20</ele>
	<time>2025-04-29T08:58:15.000Z</time>
</trkpt>
<trkpt lat="45.9017140" lon="10.3506470">
	<ele>1355.40</ele>
	<time>2025-04-29T08:58:16.000Z</time>
</trkpt>
<trkpt lat="45.9017270" lon="10.3506600">
	<ele>1355.40</ele>
	<time>2025-04-29T08:58:17.000Z</time>
</trkpt>
<trkpt lat="45.9017390" lon="10.3506740">
	<ele>1355.60</ele>
	<time>2025-04-29T08:58:18.000Z</time>
</trkpt>
<trkpt lat="45.9017540" lon="10.3506940">
	<ele>1355.60</ele>
	<time>2025-04-29T08:58:19.000Z</time>
</trkpt>
<trkpt lat="45.9017590" lon="10.3507140">
	<ele>1355.60</ele>
	<time>2025-04-29T08:58:20.000Z</time>
</trkpt>
<trkpt lat="45.9017600" lon="10.3507390">
	<ele>1355.80</ele>
	<time>2025-04-29T08:58:21.000Z</time>
</trkpt>
<trkpt lat="45.9017600" lon="10.3507570">
	<ele>1355.80</ele>
	<time>2025-04-29T08:58:22.000Z</time>
</trkpt>
<trkpt lat="45.9017630" lon="10.3507680">
	<ele>1355.80</ele>
	<time>2025-04-29T08:58:23.000Z</time>
</trkpt>
<trkpt lat="45.9017650" lon="10.3507800">
	<ele>1355.80</ele>
	<time>2025-04-29T08:58:24.000Z</time>
</trkpt>
<trkpt lat="45.9017700" lon="10.3507930">
	<ele>1355.80</ele>
	<time>2025-04-29T08:58:25.000Z</time>
</trkpt>
<trkpt lat="45.9017730" lon="10.3508130">
	<ele>1355.80</ele>
	<time>2025-04-29T08:58:26.000Z</time>
</trkpt>
<trkpt lat="45.9017760" lon="10.3508350">
	<ele>1355.80</ele>
	<time>2025-04-29T08:58:27.000Z</time>
</trkpt>
<trkpt lat="45.9017780" lon="10.3508520">
	<ele>1356.00</ele>
	<time>2025-04-29T08:58:28.000Z</time>
</trkpt>
<trkpt lat="45.9017800" lon="10.3508750">
	<ele>1356.00</ele>
	<time>2025-04-29T08:58:29.000Z</time>
</trkpt>
<trkpt lat="45.9017900" lon="10.3508910">
	<ele>1356.20</ele>
	<time>2025-04-29T08:58:30.000Z</time>
</trkpt>
<trkpt lat="45.9017970" lon="10.3509090">
	<ele>1356.20</ele>
	<time>2025-04-29T08:58:31.000Z</time>
</trkpt>
<trkpt lat="45.9017960" lon="10.3509330">
	<ele>1356.20</ele>
	<time>2025-04-29T08:58:32.000Z</time>
</trkpt>
<trkpt lat="45.9017950" lon="10.3509610">
	<ele>1356.40</ele>
	<time>2025-04-29T08:58:33.000Z</time>
</trkpt>
<trkpt lat="45.9018050" lon="10.3509660">
	<ele>1356.60</ele>
	<time>2025-04-29T08:58:34.000Z</time>
</trkpt>
<trkpt lat="45.9018130" lon="10.3509680">
	<ele>1356.60</ele>
	<time>2025-04-29T08:58:35.000Z</time>
</trkpt>
<trkpt lat="45.9018220" lon="10.3509700">
	<ele>1356.60</ele>
	<time>2025-04-29T08:58:36.000Z</time>
</trkpt>
<trkpt lat="45.9018240" lon="10.3509910">
	<ele>1356.60</ele>
	<time>2025-04-29T08:58:37.000Z</time>
</trkpt>
<trkpt lat="45.9018300" lon="10.3510100">
	<ele>1356.80</ele>
	<time>2025-04-29T08:58:38.000Z</time>
</trkpt>
<trkpt lat="45.9018420" lon="10.3510250">
	<ele>1356.80</ele>
	<time>2025-04-29T08:58:39.000Z</time>
</trkpt>
<trkpt lat="45.9018520" lon="10.3510340">
	<ele>1356.80</ele>
	<time>2025-04-29T08:58:40.000Z</time>
</trkpt>
<trkpt lat="45.9018590" lon="10.3510420">
	<ele>1357.00</ele>
	<time>2025-04-29T08:58:41.000Z</time>
</trkpt>
<trkpt lat="45.9018670" lon="10.3510530">
	<ele>1357.00</ele>
	<time>2025-04-29T08:58:42.000Z</time>
</trkpt>
<trkpt lat="45.9018710" lon="10.3510690">
	<ele>1357.20</ele>
	<time>2025-04-29T08:58:43.000Z</time>
</trkpt>
<trkpt lat="45.9018720" lon="10.3510850">
	<ele>1357.40</ele>
	<time>2025-04-29T08:58:44.000Z</time>
</trkpt>
<trkpt lat="45.9018730" lon="10.3511020">
	<ele>1357.60</ele>
	<time>2025-04-29T08:58:45.000Z</time>
</trkpt>
<trkpt lat="45.9018650" lon="10.3511180">
	<ele>1357.60</ele>
	<time>2025-04-29T08:58:46.000Z</time>
</trkpt>
<trkpt lat="45.9018620" lon="10.3511290">
	<ele>1357.80</ele>
	<time>2025-04-29T08:58:47.000Z</time>
</trkpt>
<trkpt lat="45.9018630" lon="10.3511390">
	<ele>1358.00</ele>
	<time>2025-04-29T08:58:48.000Z</time>
</trkpt>
<trkpt lat="45.9018650" lon="10.3511470">
	<ele>1358.20</ele>
	<time>2025-04-29T08:58:49.000Z</time>
</trkpt>
<trkpt lat="45.9018680" lon="10.3511570">
	<ele>1358.40</ele>
	<time>2025-04-29T08:58:50.000Z</time>
</trkpt>
<trkpt lat="45.9018750" lon="10.3511650">
	<ele>1358.60</ele>
	<time>2025-04-29T08:58:51.000Z</time>
</trkpt>
<trkpt lat="45.9018770" lon="10.3511760">
	<ele>1358.80</ele>
	<time>2025-04-29T08:58:52.000Z</time>
</trkpt>
<trkpt lat="45.9018820" lon="10.3511810">
	<ele>1359.00</ele>
	<time>2025-04-29T08:58:53.000Z</time>
</trkpt>
<trkpt lat="45.9018870" lon="10.3511850">
	<ele>1359.20</ele>
	<time>2025-04-29T08:58:54.000Z</time>
</trkpt>
<trkpt lat="45.9018890" lon="10.3511920">
	<ele>1359.40</ele>
	<time>2025-04-29T08:58:55.000Z</time>
</trkpt>
<trkpt lat="45.9018900" lon="10.3512040">
	<ele>1359.60</ele>
	<time>2025-04-29T08:58:56.000Z</time>
</trkpt>
<trkpt lat="45.9018930" lon="10.3512190">
	<ele>1359.60</ele>
	<time>2025-04-29T08:58:57.000Z</time>
</trkpt>
<trkpt lat="45.9018970" lon="10.3512390">
	<ele>1359.80</ele>
	<time>2025-04-29T08:58:58.000Z</time>
</trkpt>
<trkpt lat="45.9019050" lon="10.3512550">
	<ele>1360.00</ele>
	<time>2025-04-29T08:58:59.000Z</time>
</trkpt>
<trkpt lat="45.9019110" lon="10.3512730">
	<ele>1360.00</ele>
	<time>2025-04-29T08:59:00.000Z</time>
</trkpt>
<trkpt lat="45.9019190" lon="10.3512940">
	<ele>1360.20</ele>
	<time>2025-04-29T08:59:01.000Z</time>
</trkpt>
<trkpt lat="45.9019230" lon="10.3513110">
	<ele>1360.40</ele>
	<time>2025-04-29T08:59:02.000Z</time>
</trkpt>
<trkpt lat="45.9019270" lon="10.3513330">
	<ele>1360.40</ele>
	<time>2025-04-29T08:59:03.000Z</time>
</trkpt>
<trkpt lat="45.9019280" lon="10.3513530">
	<ele>1360.40</ele>
	<time>2025-04-29T08:59:04.000Z</time>
</trkpt>
<trkpt lat="45.9019260" lon="10.3513680">
	<ele>1360.60</ele>
	<time>2025-04-29T08:59:05.000Z</time>
</trkpt>
<trkpt lat="45.9019280" lon="10.3513800">
	<ele>1360.80</ele>
	<time>2025-04-29T08:59:06.000Z</time>
</trkpt>
<trkpt lat="45.9019290" lon="10.3513960">
	<ele>1360.80</ele>
	<time>2025-04-29T08:59:07.000Z</time>
</trkpt>
<trkpt lat="45.9019270" lon="10.3514110">
	<ele>1360.80</ele>
	<time>2025-04-29T08:59:08.000Z</time>
</trkpt>
<trkpt lat="45.9019270" lon="10.3514190">
	<ele>1361.00</ele>
	<time>2025-04-29T08:59:09.000Z</time>
</trkpt>
<trkpt lat="45.9019250" lon="10.3514250">
	<ele>1361.00</ele>
	<time>2025-04-29T08:59:10.000Z</time>
</trkpt>
<trkpt lat="45.9019270" lon="10.3514300">
	<ele>1361.20</ele>
	<time>2025-04-29T08:59:11.000Z</time>
</trkpt>
<trkpt lat="45.9019330" lon="10.3514250">
	<ele>1361.40</ele>
	<time>2025-04-29T08:59:12.000Z</time>
</trkpt>
<trkpt lat="45.9019360" lon="10.3514250">
	<ele>1361.60</ele>
	<time>2025-04-29T08:59:13.000Z</time>
</trkpt>
<trkpt lat="45.9019400" lon="10.3514440">
	<ele>1361.60</ele>
	<time>2025-04-29T08:59:14.000Z</time>
</trkpt>
<trkpt lat="45.9019350" lon="10.3514670">
	<ele>1361.60</ele>
	<time>2025-04-29T08:59:15.000Z</time>
</trkpt>
<trkpt lat="45.9019360" lon="10.3514850">
	<ele>1361.80</ele>
	<time>2025-04-29T08:59:16.000Z</time>
</trkpt>
<trkpt lat="45.9019370" lon="10.3514960">
	<ele>1361.80</ele>
	<time>2025-04-29T08:59:17.000Z</time>
</trkpt>
<trkpt lat="45.9019370" lon="10.3515130">
	<ele>1362.00</ele>
	<time>2025-04-29T08:59:18.000Z</time>
</trkpt>
<trkpt lat="45.9019400" lon="10.3515370">
	<ele>1362.20</ele>
	<time>2025-04-29T08:59:19.000Z</time>
</trkpt>
<trkpt lat="45.9019410" lon="10.3515690">
	<ele>1362.20</ele>
	<time>2025-04-29T08:59:20.000Z</time>
</trkpt>
<trkpt lat="45.9019430" lon="10.3515910">
	<ele>1362.40</ele>
	<time>2025-04-29T08:59:21.000Z</time>
</trkpt>
<trkpt lat="45.9019440" lon="10.3516140">
	<ele>1362.40</ele>
	<time>2025-04-29T08:59:22.000Z</time>
</trkpt>
<trkpt lat="45.9019510" lon="10.3516390">
	<ele>1362.60</ele>
	<time>2025-04-29T08:59:23.000Z</time>
</trkpt>
<trkpt lat="45.9019570" lon="10.3516620">
	<ele>1362.60</ele>
	<time>2025-04-29T08:59:24.000Z</time>
</trkpt>
<trkpt lat="45.9019640" lon="10.3516820">
	<ele>1362.80</ele>
	<time>2025-04-29T08:59:25.000Z</time>
</trkpt>
<trkpt lat="45.9019760" lon="10.3516920">
	<ele>1363.20</ele>
	<time>2025-04-29T08:59:26.000Z</time>
</trkpt>
<trkpt lat="45.9019860" lon="10.3517070">
	<ele>1363.20</ele>
	<time>2025-04-29T08:59:27.000Z</time>
</trkpt>
<trkpt lat="45.9019880" lon="10.3517170">
	<ele>1363.40</ele>
	<time>2025-04-29T08:59:28.000Z</time>
</trkpt>
<trkpt lat="45.9019840" lon="10.3517410">
	<ele>1363.40</ele>
	<time>2025-04-29T08:59:29.000Z</time>
</trkpt>
<trkpt lat="45.9019860" lon="10.3517660">
	<ele>1363.60</ele>
	<time>2025-04-29T08:59:30.000Z</time>
</trkpt>
<trkpt lat="45.9019970" lon="10.3517860">
	<ele>1363.60</ele>
	<time>2025-04-29T08:59:31.000Z</time>
</trkpt>
<trkpt lat="45.9020000" lon="10.3518030">
	<ele>1363.60</ele>
	<time>2025-04-29T08:59:32.000Z</time>
</trkpt>
<trkpt lat="45.9020040" lon="10.3518130">
	<ele>1363.80</ele>
	<time>2025-04-29T08:59:33.000Z</time>
</trkpt>
<trkpt lat="45.9020080" lon="10.3518260">
	<ele>1363.80</ele>
	<time>2025-04-29T08:59:34.000Z</time>
</trkpt>
<trkpt lat="45.9020140" lon="10.3518440">
	<ele>1363.80</ele>
	<time>2025-04-29T08:59:35.000Z</time>
</trkpt>
<trkpt lat="45.9020160" lon="10.3518630">
	<ele>1364.00</ele>
	<time>2025-04-29T08:59:36.000Z</time>
</trkpt>
<trkpt lat="45.9020210" lon="10.3518810">
	<ele>1364.20</ele>
	<time>2025-04-29T08:59:37.000Z</time>
</trkpt>
<trkpt lat="45.9020220" lon="10.3518980">
	<ele>1364.40</ele>
	<time>2025-04-29T08:59:38.000Z</time>
</trkpt>
<trkpt lat="45.9020270" lon="10.3519150">
	<ele>1364.60</ele>
	<time>2025-04-29T08:59:39.000Z</time>
</trkpt>
<trkpt lat="45.9020320" lon="10.3519290">
	<ele>1364.80</ele>
	<time>2025-04-29T08:59:40.000Z</time>
</trkpt>
<trkpt lat="45.9020430" lon="10.3519490">
	<ele>1365.00</ele>
	<time>2025-04-29T08:59:41.000Z</time>
</trkpt>
<trkpt lat="45.9020540" lon="10.3519640">
	<ele>1365.00</ele>
	<time>2025-04-29T08:59:42.000Z</time>
</trkpt>
<trkpt lat="45.9020660" lon="10.3519750">
	<ele>1365.40</ele>
	<time>2025-04-29T08:59:43.000Z</time>
</trkpt>
<trkpt lat="45.9020840" lon="10.3519790">
	<ele>1365.60</ele>
	<time>2025-04-29T08:59:44.000Z</time>
</trkpt>
<trkpt lat="45.9020950" lon="10.3519960">
	<ele>1365.60</ele>
	<time>2025-04-29T08:59:45.000Z</time>
</trkpt>
<trkpt lat="45.9021100" lon="10.3520040">
	<ele>1365.80</ele>
	<time>2025-04-29T08:59:46.000Z</time>
</trkpt>
<trkpt lat="45.9021230" lon="10.3520190">
	<ele>1366.00</ele>
	<time>2025-04-29T08:59:47.000Z</time>
</trkpt>
<trkpt lat="45.9021340" lon="10.3520300">
	<ele>1366.00</ele>
	<time>2025-04-29T08:59:48.000Z</time>
</trkpt>
<trkpt lat="45.9021440" lon="10.3520460">
	<ele>1366.20</ele>
	<time>2025-04-29T08:59:49.000Z</time>
</trkpt>
<trkpt lat="45.9021550" lon="10.3520570">
	<ele>1366.40</ele>
	<time>2025-04-29T08:59:50.000Z</time>
</trkpt>
<trkpt lat="45.9021630" lon="10.3520670">
	<ele>1366.40</ele>
	<time>2025-04-29T08:59:51.000Z</time>
</trkpt>
<trkpt lat="45.9021680" lon="10.3520800">
	<ele>1366.60</ele>
	<time>2025-04-29T08:59:52.000Z</time>
</trkpt>
<trkpt lat="45.9021710" lon="10.3520990">
	<ele>1366.80</ele>
	<time>2025-04-29T08:59:53.000Z</time>
</trkpt>
<trkpt lat="45.9021740" lon="10.3521170">
	<ele>1367.00</ele>
	<time>2025-04-29T08:59:54.000Z</time>
</trkpt>
<trkpt lat="45.9021790" lon="10.3521390">
	<ele>1367.20</ele>
	<time>2025-04-29T08:59:55.000Z</time>
</trkpt>
<trkpt lat="45.9021940" lon="10.3521480">
	<ele>1367.40</ele>
	<time>2025-04-29T08:59:56.000Z</time>
</trkpt>
<trkpt lat="45.9021990" lon="10.3521570">
	<ele>1367.60</ele>
	<time>2025-04-29T08:59:57.000Z</time>
</trkpt>
<trkpt lat="45.9022030" lon="10.3521690">
	<ele>1368.00</ele>
	<time>2025-04-29T08:59:58.000Z</time>
</trkpt>
<trkpt lat="45.9022100" lon="10.3521880">
	<ele>1368.20</ele>
	<time>2025-04-29T08:59:59.000Z</time>
</trkpt>
<trkpt lat="45.9022220" lon="10.3522080">
	<ele>1368.40</ele>
	<time>2025-04-29T09:00:00.000Z</time>
</trkpt>
<trkpt lat="45.9022350" lon="10.3522250">
	<ele>1368.60</ele>
	<time>2025-04-29T09:00:01.000Z</time>
</trkpt>
<trkpt lat="45.9022380" lon="10.3522370">
	<ele>1368.60</ele>
	<time>2025-04-29T09:00:02.000Z</time>
</trkpt>
<trkpt lat="45.9022490" lon="10.3522540">
	<ele>1368.80</ele>
	<time>2025-04-29T09:00:03.000Z</time>
</trkpt>
<trkpt lat="45.9022600" lon="10.3522600">
	<ele>1368.80</ele>
	<time>2025-04-29T09:00:04.000Z</time>
</trkpt>
<trkpt lat="45.9022700" lon="10.3522740">
	<ele>1369.00</ele>
	<time>2025-04-29T09:00:05.000Z</time>
</trkpt>
<trkpt lat="45.9022750" lon="10.3522920">
	<ele>1369.00</ele>
	<time>2025-04-29T09:00:06.000Z</time>
</trkpt>
<trkpt lat="45.9022770" lon="10.3523080">
	<ele>1369.00</ele>
	<time>2025-04-29T09:00:07.000Z</time>
</trkpt>
<trkpt lat="45.9022770" lon="10.3523270">
	<ele>1369.20</ele>
	<time>2025-04-29T09:00:08.000Z</time>
</trkpt>
<trkpt lat="45.9022750" lon="10.3523510">
	<ele>1369.40</ele>
	<time>2025-04-29T09:00:09.000Z</time>
</trkpt>
<trkpt lat="45.9022770" lon="10.3523640">
	<ele>1369.40</ele>
	<time>2025-04-29T09:00:10.000Z</time>
</trkpt>
<trkpt lat="45.9022800" lon="10.3523760">
	<ele>1369.60</ele>
	<time>2025-04-29T09:00:11.000Z</time>
</trkpt>
<trkpt lat="45.9022770" lon="10.3523950">
	<ele>1369.60</ele>
	<time>2025-04-29T09:00:12.000Z</time>
</trkpt>
<trkpt lat="45.9022740" lon="10.3524080">
	<ele>1369.80</ele>
	<time>2025-04-29T09:00:13.000Z</time>
</trkpt>
<trkpt lat="45.9022700" lon="10.3524240">
	<ele>1370.00</ele>
	<time>2025-04-29T09:00:14.000Z</time>
</trkpt>
<trkpt lat="45.9022690" lon="10.3524380">
	<ele>1370.00</ele>
	<time>2025-04-29T09:00:15.000Z</time>
</trkpt>
<trkpt lat="45.9022690" lon="10.3524510">
	<ele>1370.20</ele>
	<time>2025-04-29T09:00:16.000Z</time>
</trkpt>
<trkpt lat="45.9022700" lon="10.3524620">
	<ele>1370.20</ele>
	<time>2025-04-29T09:00:17.000Z</time>
</trkpt>
<trkpt lat="45.9022740" lon="10.3524750">
	<ele>1370.40</ele>
	<time>2025-04-29T09:00:18.000Z</time>
</trkpt>
<trkpt lat="45.9022790" lon="10.3524960">
	<ele>1370.40</ele>
	<time>2025-04-29T09:00:19.000Z</time>
</trkpt>
<trkpt lat="45.9022820" lon="10.3525110">
	<ele>1370.60</ele>
	<time>2025-04-29T09:00:20.000Z</time>
</trkpt>
<trkpt lat="45.9022850" lon="10.3525230">
	<ele>1370.60</ele>
	<time>2025-04-29T09:00:21.000Z</time>
</trkpt>
<trkpt lat="45.9022910" lon="10.3525380">
	<ele>1370.80</ele>
	<time>2025-04-29T09:00:22.000Z</time>
</trkpt>
<trkpt lat="45.9022960" lon="10.3525490">
	<ele>1371.00</ele>
	<time>2025-04-29T09:00:23.000Z</time>
</trkpt>
<trkpt lat="45.9023010" lon="10.3525620">
	<ele>1371.20</ele>
	<time>2025-04-29T09:00:24.000Z</time>
</trkpt>
<trkpt lat="45.9023100" lon="10.3525740">
	<ele>1371.40</ele>
	<time>2025-04-29T09:00:25.000Z</time>
</trkpt>
<trkpt lat="45.9023170" lon="10.3525880">
	<ele>1371.40</ele>
	<time>2025-04-29T09:00:26.000Z</time>
</trkpt>
<trkpt lat="45.9023240" lon="10.3526030">
	<ele>1371.80</ele>
	<time>2025-04-29T09:00:27.000Z</time>
</trkpt>
<trkpt lat="45.9023290" lon="10.3526150">
	<ele>1372.00</ele>
	<time>2025-04-29T09:00:28.000Z</time>
</trkpt>
<trkpt lat="45.9023340" lon="10.3526290">
	<ele>1372.00</ele>
	<time>2025-04-29T09:00:29.000Z</time>
</trkpt>
<trkpt lat="45.9023390" lon="10.3526420">
	<ele>1372.20</ele>
	<time>2025-04-29T09:00:30.000Z</time>
</trkpt>
<trkpt lat="45.9023490" lon="10.3526550">
	<ele>1372.20</ele>
	<time>2025-04-29T09:00:31.000Z</time>
</trkpt>
<trkpt lat="45.9023540" lon="10.3526670">
	<ele>1372.40</ele>
	<time>2025-04-29T09:00:32.000Z</time>
</trkpt>
<trkpt lat="45.9023580" lon="10.3526780">
	<ele>1372.60</ele>
	<time>2025-04-29T09:00:33.000Z</time>
</trkpt>
<trkpt lat="45.9023640" lon="10.3526900">
	<ele>1372.60</ele>
	<time>2025-04-29T09:00:34.000Z</time>
</trkpt>
<trkpt lat="45.9023710" lon="10.3527080">
	<ele>1372.80</ele>
	<time>2025-04-29T09:00:35.000Z</time>
</trkpt>
<trkpt lat="45.9023750" lon="10.3527290">
	<ele>1372.80</ele>
	<time>2025-04-29T09:00:36.000Z</time>
</trkpt>
<trkpt lat="45.9023790" lon="10.3527540">
	<ele>1373.00</ele>
	<time>2025-04-29T09:00:37.000Z</time>
</trkpt>
<trkpt lat="45.9023850" lon="10.3527760">
	<ele>1373.20</ele>
	<time>2025-04-29T09:00:38.000Z</time>
</trkpt>
<trkpt lat="45.9023960" lon="10.3527970">
	<ele>1373.40</ele>
	<time>2025-04-29T09:00:39.000Z</time>
</trkpt>
<trkpt lat="45.9024120" lon="10.3528070">
	<ele>1373.60</ele>
	<time>2025-04-29T09:00:40.000Z</time>
</trkpt>
<trkpt lat="45.9024240" lon="10.3528180">
	<ele>1373.60</ele>
	<time>2025-04-29T09:00:41.000Z</time>
</trkpt>
<trkpt lat="45.9024310" lon="10.3528350">
	<ele>1373.80</ele>
	<time>2025-04-29T09:00:42.000Z</time>
</trkpt>
<trkpt lat="45.9024380" lon="10.3528560">
	<ele>1374.00</ele>
	<time>2025-04-29T09:00:43.000Z</time>
</trkpt>
<trkpt lat="45.9024400" lon="10.3528740">
	<ele>1374.00</ele>
	<time>2025-04-29T09:00:44.000Z</time>
</trkpt>
<trkpt lat="45.9024440" lon="10.3528890">
	<ele>1374.00</ele>
	<time>2025-04-29T09:00:45.000Z</time>
</trkpt>
<trkpt lat="45.9024570" lon="10.3528990">
	<ele>1374.20</ele>
	<time>2025-04-29T09:00:46.000Z</time>
</trkpt>
<trkpt lat="45.9024700" lon="10.3529090">
	<ele>1374.20</ele>
	<time>2025-04-29T09:00:47.000Z</time>
</trkpt>
<trkpt lat="45.9024800" lon="10.3529190">
	<ele>1374.20</ele>
	<time>2025-04-29T09:00:48.000Z</time>
</trkpt>
<trkpt lat="45.9024880" lon="10.3529280">
	<ele>1374.20</ele>
	<time>2025-04-29T09:00:49.000Z</time>
</trkpt>
<trkpt lat="45.9024960" lon="10.3529400">
	<ele>1374.40</ele>
	<time>2025-04-29T09:00:50.000Z</time>
</trkpt>
<trkpt lat="45.9025040" lon="10.3529500">
	<ele>1374.40</ele>
	<time>2025-04-29T09:00:51.000Z</time>
</trkpt>
<trkpt lat="45.9025110" lon="10.3529620">
	<ele>1374.60</ele>
	<time>2025-04-29T09:00:52.000Z</time>
</trkpt>
<trkpt lat="45.9025170" lon="10.3529790">
	<ele>1374.80</ele>
	<time>2025-04-29T09:00:53.000Z</time>
</trkpt>
<trkpt lat="45.9025250" lon="10.3529960">
	<ele>1375.00</ele>
	<time>2025-04-29T09:00:54.000Z</time>
</trkpt>
<trkpt lat="45.9025340" lon="10.3530090">
	<ele>1375.20</ele>
	<time>2025-04-29T09:00:55.000Z</time>
</trkpt>
<trkpt lat="45.9025410" lon="10.3530210">
	<ele>1375.40</ele>
	<time>2025-04-29T09:00:56.000Z</time>
</trkpt>
<trkpt lat="45.9025500" lon="10.3530320">
	<ele>1375.80</ele>
	<time>2025-04-29T09:00:57.000Z</time>
</trkpt>
<trkpt lat="45.9025560" lon="10.3530450">
	<ele>1375.80</ele>
	<time>2025-04-29T09:00:58.000Z</time>
</trkpt>
<trkpt lat="45.9025630" lon="10.3530550">
	<ele>1376.00</ele>
	<time>2025-04-29T09:00:59.000Z</time>
</trkpt>
<trkpt lat="45.9025740" lon="10.3530590">
	<ele>1376.20</ele>
	<time>2025-04-29T09:01:00.000Z</time>
</trkpt>
<trkpt lat="45.9025790" lon="10.3530750">
	<ele>1376.40</ele>
	<time>2025-04-29T09:01:01.000Z</time>
</trkpt>
<trkpt lat="45.9025870" lon="10.3530840">
	<ele>1376.40</ele>
	<time>2025-04-29T09:01:02.000Z</time>
</trkpt>
<trkpt lat="45.9025930" lon="10.3530940">
	<ele>1376.80</ele>
	<time>2025-04-29T09:01:03.000Z</time>
</trkpt>
<trkpt lat="45.9025970" lon="10.3531060">
	<ele>1377.20</ele>
	<time>2025-04-29T09:01:04.000Z</time>
</trkpt>
<trkpt lat="45.9026020" lon="10.3531180">
	<ele>1377.20</ele>
	<time>2025-04-29T09:01:05.000Z</time>
</trkpt>
<trkpt lat="45.9026070" lon="10.3531320">
	<ele>1377.40</ele>
	<time>2025-04-29T09:01:06.000Z</time>
</trkpt>
<trkpt lat="45.9026130" lon="10.3531420">
	<ele>1377.40</ele>
	<time>2025-04-29T09:01:07.000Z</time>
</trkpt>
<trkpt lat="45.9026200" lon="10.3531520">
	<ele>1377.60</ele>
	<time>2025-04-29T09:01:08.000Z</time>
</trkpt>
<trkpt lat="45.9026250" lon="10.3531620">
	<ele>1377.80</ele>
	<time>2025-04-29T09:01:09.000Z</time>
</trkpt>
<trkpt lat="45.9026290" lon="10.3531770">
	<ele>1378.00</ele>
	<time>2025-04-29T09:01:10.000Z</time>
</trkpt>
<trkpt lat="45.9026320" lon="10.3531940">
	<ele>1378.00</ele>
	<time>2025-04-29T09:01:11.000Z</time>
</trkpt>
<trkpt lat="45.9026360" lon="10.3532080">
	<ele>1378.20</ele>
	<time>2025-04-29T09:01:12.000Z</time>
</trkpt>
<trkpt lat="45.9026380" lon="10.3532270">
	<ele>1378.40</ele>
	<time>2025-04-29T09:01:13.000Z</time>
</trkpt>
<trkpt lat="45.9026440" lon="10.3532450">
	<ele>1378.40</ele>
	<time>2025-04-29T09:01:14.000Z</time>
</trkpt>
<trkpt lat="45.9026490" lon="10.3532620">
	<ele>1378.40</ele>
	<time>2025-04-29T09:01:15.000Z</time>
</trkpt>
<trkpt lat="45.9026530" lon="10.3532790">
	<ele>1378.60</ele>
	<time>2025-04-29T09:01:16.000Z</time>
</trkpt>
<trkpt lat="45.9026630" lon="10.3532920">
	<ele>1378.60</ele>
	<time>2025-04-29T09:01:17.000Z</time>
</trkpt>
<trkpt lat="45.9026710" lon="10.3533080">
	<ele>1378.60</ele>
	<time>2025-04-29T09:01:18.000Z</time>
</trkpt>
<trkpt lat="45.9026750" lon="10.3533270">
	<ele>1378.60</ele>
	<time>2025-04-29T09:01:19.000Z</time>
</trkpt>
<trkpt lat="45.9026780" lon="10.3533420">
	<ele>1378.60</ele>
	<time>2025-04-29T09:01:20.000Z</time>
</trkpt>
<trkpt lat="45.9026810" lon="10.3533590">
	<ele>1378.60</ele>
	<time>2025-04-29T09:01:21.000Z</time>
</trkpt>
<trkpt lat="45.9026860" lon="10.3533780">
	<ele>1378.60</ele>
	<time>2025-04-29T09:01:22.000Z</time>
</trkpt>
<trkpt lat="45.9026910" lon="10.3533910">
	<ele>1378.60</ele>
	<time>2025-04-29T09:01:23.000Z</time>
</trkpt>
<trkpt lat="45.9026970" lon="10.3534060">
	<ele>1378.60</ele>
	<time>2025-04-29T09:01:24.000Z</time>
</trkpt>
<trkpt lat="45.9027000" lon="10.3534200">
	<ele>1378.80</ele>
	<time>2025-04-29T09:01:25.000Z</time>
</trkpt>
<trkpt lat="45.9027100" lon="10.3534400">
	<ele>1379.00</ele>
	<time>2025-04-29T09:01:26.000Z</time>
</trkpt>
<trkpt lat="45.9027100" lon="10.3534590">
	<ele>1379.00</ele>
	<time>2025-04-29T09:01:27.000Z</time>
</trkpt>
<trkpt lat="45.9027150" lon="10.3534700">
	<ele>1379.20</ele>
	<time>2025-04-29T09:01:28.000Z</time>
</trkpt>
<trkpt lat="45.9027190" lon="10.3534930">
	<ele>1379.40</ele>
	<time>2025-04-29T09:01:29.000Z</time>
</trkpt>
<trkpt lat="45.9027170" lon="10.3535230">
	<ele>1379.60</ele>
	<time>2025-04-29T09:01:30.000Z</time>
</trkpt>
<trkpt lat="45.9027090" lon="10.3535650">
	<ele>1379.60</ele>
	<time>2025-04-29T09:01:31.000Z</time>
</trkpt>
<trkpt lat="45.9027010" lon="10.3536010">
	<ele>1379.80</ele>
	<time>2025-04-29T09:01:32.000Z</time>
</trkpt>
<trkpt lat="45.9027040" lon="10.3536080">
	<ele>1379.80</ele>
	<time>2025-04-29T09:01:33.000Z</time>
</trkpt>
<trkpt lat="45.9027030" lon="10.3536390">
	<ele>1379.80</ele>
	<time>2025-04-29T09:01:34.000Z</time>
</trkpt>
<trkpt lat="45.9027120" lon="10.3536580">
	<ele>1379.80</ele>
	<time>2025-04-29T09:01:35.000Z</time>
</trkpt>
<trkpt lat="45.9027250" lon="10.3536730">
	<ele>1380.00</ele>
	<time>2025-04-29T09:01:36.000Z</time>
</trkpt>
<trkpt lat="45.9027280" lon="10.3536860">
	<ele>1380.00</ele>
	<time>2025-04-29T09:01:37.000Z</time>
</trkpt>
<trkpt lat="45.9027230" lon="10.3537160">
	<ele>1380.00</ele>
	<time>2025-04-29T09:01:38.000Z</time>
</trkpt>
<trkpt lat="45.9027200" lon="10.3537490">
	<ele>1380.20</ele>
	<time>2025-04-29T09:01:39.000Z</time>
</trkpt>
<trkpt lat="45.9027240" lon="10.3537690">
	<ele>1380.40</ele>
	<time>2025-04-29T09:01:40.000Z</time>
</trkpt>
<trkpt lat="45.9027300" lon="10.3537700">
	<ele>1380.40</ele>
	<time>2025-04-29T09:01:41.000Z</time>
</trkpt>
<trkpt lat="45.9027260" lon="10.3537870">
	<ele>1380.60</ele>
	<time>2025-04-29T09:01:42.000Z</time>
</trkpt>
<trkpt lat="45.9027160" lon="10.3537920">
	<ele>1380.60</ele>
	<time>2025-04-29T09:01:43.000Z</time>
</trkpt>
<trkpt lat="45.9027030" lon="10.3538000">
	<ele>1380.60</ele>
	<time>2025-04-29T09:01:44.000Z</time>
</trkpt>
<trkpt lat="45.9026960" lon="10.3538130">
	<ele>1380.60</ele>
	<time>2025-04-29T09:01:45.000Z</time>
</trkpt>
<trkpt lat="45.9027000" lon="10.3538240">
	<ele>1380.60</ele>
	<time>2025-04-29T09:01:46.000Z</time>
</trkpt>
<trkpt lat="45.9026940" lon="10.3538340">
	<ele>1380.60</ele>
	<time>2025-04-29T09:01:47.000Z</time>
</trkpt>
<trkpt lat="45.9026820" lon="10.3538580">
	<ele>1380.60</ele>
	<time>2025-04-29T09:01:48.000Z</time>
</trkpt>
<trkpt lat="45.9026830" lon="10.3538810">
	<ele>1380.60</ele>
	<time>2025-04-29T09:01:49.000Z</time>
</trkpt>
<trkpt lat="45.9026850" lon="10.3539010">
	<ele>1380.60</ele>
	<time>2025-04-29T09:01:50.000Z</time>
</trkpt>
<trkpt lat="45.9026770" lon="10.3539140">
	<ele>1380.80</ele>
	<time>2025-04-29T09:01:51.000Z</time>
</trkpt>
<trkpt lat="45.9026760" lon="10.3539230">
	<ele>1381.00</ele>
	<time>2025-04-29T09:01:52.000Z</time>
</trkpt>
<trkpt lat="45.9026800" lon="10.3539280">
	<ele>1381.00</ele>
	<time>2025-04-29T09:01:53.000Z</time>
</trkpt>
<trkpt lat="45.9026800" lon="10.3539300">
	<ele>1381.20</ele>
	<time>2025-04-29T09:01:54.000Z</time>
</trkpt>
<trkpt lat="45.9026850" lon="10.3539440">
	<ele>1381.40</ele>
	<time>2025-04-29T09:01:55.000Z</time>
</trkpt>
<trkpt lat="45.9026790" lon="10.3539600">
	<ele>1381.60</ele>
	<time>2025-04-29T09:01:56.000Z</time>
</trkpt>
<trkpt lat="45.9026790" lon="10.3539720">
	<ele>1381.60</ele>
	<time>2025-04-29T09:01:57.000Z</time>
</trkpt>
<trkpt lat="45.9026810" lon="10.3539830">
	<ele>1381.80</ele>
	<time>2025-04-29T09:01:58.000Z</time>
</trkpt>
<trkpt lat="45.9026820" lon="10.3540020">
	<ele>1381.80</ele>
	<time>2025-04-29T09:01:59.000Z</time>
</trkpt>
<trkpt lat="45.9026790" lon="10.3540140">
	<ele>1382.00</ele>
	<time>2025-04-29T09:02:00.000Z</time>
</trkpt>
<trkpt lat="45.9026860" lon="10.3540230">
	<ele>1382.00</ele>
	<time>2025-04-29T09:02:01.000Z</time>
</trkpt>
<trkpt lat="45.9026930" lon="10.3540400">
	<ele>1382.00</ele>
	<time>2025-04-29T09:02:02.000Z</time>
</trkpt>
<trkpt lat="45.9026950" lon="10.3540640">
	<ele>1382.00</ele>
	<time>2025-04-29T09:02:03.000Z</time>
</trkpt>
<trkpt lat="45.9027140" lon="10.3540720">
	<ele>1382.20</ele>
	<time>2025-04-29T09:02:04.000Z</time>
</trkpt>
<trkpt lat="45.9027200" lon="10.3540860">
	<ele>1382.40</ele>
	<time>2025-04-29T09:02:05.000Z</time>
</trkpt>
<trkpt lat="45.9027240" lon="10.3541010">
	<ele>1382.40</ele>
	<time>2025-04-29T09:02:06.000Z</time>
</trkpt>
<trkpt lat="45.9027310" lon="10.3541130">
	<ele>1382.60</ele>
	<time>2025-04-29T09:02:07.000Z</time>
</trkpt>
<trkpt lat="45.9027380" lon="10.3541270">
	<ele>1382.80</ele>
	<time>2025-04-29T09:02:08.000Z</time>
</trkpt>
<trkpt lat="45.9027480" lon="10.3541360">
	<ele>1383.00</ele>
	<time>2025-04-29T09:02:09.000Z</time>
</trkpt>
<trkpt lat="45.9027550" lon="10.3541460">
	<ele>1383.00</ele>
	<time>2025-04-29T09:02:10.000Z</time>
</trkpt>
<trkpt lat="45.9027630" lon="10.3541560">
	<ele>1383.20</ele>
	<time>2025-04-29T09:02:11.000Z</time>
</trkpt>
<trkpt lat="45.9027730" lon="10.3541620">
	<ele>1383.40</ele>
	<time>2025-04-29T09:02:12.000Z</time>
</trkpt>
<trkpt lat="45.9027840" lon="10.3541640">
	<ele>1383.40</ele>
	<time>2025-04-29T09:02:13.000Z</time>
</trkpt>
<trkpt lat="45.9027900" lon="10.3541750">
	<ele>1383.60</ele>
	<time>2025-04-29T09:02:14.000Z</time>
</trkpt>
<trkpt lat="45.9027980" lon="10.3541800">
	<ele>1383.80</ele>
	<time>2025-04-29T09:02:15.000Z</time>
</trkpt>
<trkpt lat="45.9028050" lon="10.3541870">
	<ele>1384.00</ele>
	<time>2025-04-29T09:02:16.000Z</time>
</trkpt>
<trkpt lat="45.9028160" lon="10.3541980">
	<ele>1384.00</ele>
	<time>2025-04-29T09:02:17.000Z</time>
</trkpt>
<trkpt lat="45.9028220" lon="10.3542150">
	<ele>1384.00</ele>
	<time>2025-04-29T09:02:18.000Z</time>
</trkpt>
<trkpt lat="45.9028280" lon="10.3542290">
	<ele>1384.40</ele>
	<time>2025-04-29T09:02:19.000Z</time>
</trkpt>
<trkpt lat="45.9028400" lon="10.3542370">
	<ele>1384.40</ele>
	<time>2025-04-29T09:02:20.000Z</time>
</trkpt>
<trkpt lat="45.9028460" lon="10.3542470">
	<ele>1384.60</ele>
	<time>2025-04-29T09:02:21.000Z</time>
</trkpt>
<trkpt lat="45.9028500" lon="10.3542620">
	<ele>1384.60</ele>
	<time>2025-04-29T09:02:22.000Z</time>
</trkpt>
<trkpt lat="45.9028570" lon="10.3542780">
	<ele>1384.60</ele>
	<time>2025-04-29T09:02:23.000Z</time>
</trkpt>
<trkpt lat="45.9028620" lon="10.3542920">
	<ele>1384.60</ele>
	<time>2025-04-29T09:02:24.000Z</time>
</trkpt>
<trkpt lat="45.9028690" lon="10.3543060">
	<ele>1384.60</ele>
	<time>2025-04-29T09:02:25.000Z</time>
</trkpt>
<trkpt lat="45.9028760" lon="10.3543260">
	<ele>1384.60</ele>
	<time>2025-04-29T09:02:26.000Z</time>
</trkpt>
<trkpt lat="45.9028800" lon="10.3543460">
	<ele>1384.60</ele>
	<time>2025-04-29T09:02:27.000Z</time>
</trkpt>
<trkpt lat="45.9028820" lon="10.3543570">
	<ele>1384.60</ele>
	<time>2025-04-29T09:02:28.000Z</time>
</trkpt>
<trkpt lat="45.9028840" lon="10.3543650">
	<ele>1384.80</ele>
	<time>2025-04-29T09:02:29.000Z</time>
</trkpt>
<trkpt lat="45.9028870" lon="10.3543790">
	<ele>1384.80</ele>
	<time>2025-04-29T09:02:30.000Z</time>
</trkpt>
<trkpt lat="45.9028950" lon="10.3543970">
	<ele>1384.80</ele>
	<time>2025-04-29T09:02:31.000Z</time>
</trkpt>
<trkpt lat="45.9028950" lon="10.3544240">
	<ele>1385.00</ele>
	<time>2025-04-29T09:02:32.000Z</time>
</trkpt>
<trkpt lat="45.9028960" lon="10.3544470">
	<ele>1385.20</ele>
	<time>2025-04-29T09:02:33.000Z</time>
</trkpt>
<trkpt lat="45.9028920" lon="10.3544700">
	<ele>1385.20</ele>
	<time>2025-04-29T09:02:34.000Z</time>
</trkpt>
<trkpt lat="45.9028910" lon="10.3544860">
	<ele>1385.20</ele>
	<time>2025-04-29T09:02:35.000Z</time>
</trkpt>
<trkpt lat="45.9028890" lon="10.3545020">
	<ele>1385.20</ele>
	<time>2025-04-29T09:02:36.000Z</time>
</trkpt>
<trkpt lat="45.9028890" lon="10.3545230">
	<ele>1385.20</ele>
	<time>2025-04-29T09:02:37.000Z</time>
</trkpt>
<trkpt lat="45.9028880" lon="10.3545450">
	<ele>1385.20</ele>
	<time>2025-04-29T09:02:38.000Z</time>
</trkpt>
<trkpt lat="45.9028880" lon="10.3545490">
	<ele>1385.40</ele>
	<time>2025-04-29T09:02:39.000Z</time>
</trkpt>
<trkpt lat="45.9028880" lon="10.3545510">
	<ele>1385.40</ele>
	<time>2025-04-29T09:02:40.000Z</time>
</trkpt>
<trkpt lat="45.9028870" lon="10.3545520">
	<ele>1385.60</ele>
	<time>2025-04-29T09:02:41.000Z</time>
</trkpt>
<trkpt lat="45.9028810" lon="10.3545730">
	<ele>1385.60</ele>
	<time>2025-04-29T09:02:42.000Z</time>
</trkpt>
<trkpt lat="45.9028730" lon="10.3545900">
	<ele>1385.80</ele>
	<time>2025-04-29T09:02:43.000Z</time>
</trkpt>
<trkpt lat="45.9028770" lon="10.3546040">
	<ele>1385.80</ele>
	<time>2025-04-29T09:02:44.000Z</time>
</trkpt>
<trkpt lat="45.9028920" lon="10.3546200">
	<ele>1385.60</ele>
	<time>2025-04-29T09:02:45.000Z</time>
</trkpt>
<trkpt lat="45.9029030" lon="10.3546310">
	<ele>1385.60</ele>
	<time>2025-04-29T09:02:46.000Z</time>
</trkpt>
<trkpt lat="45.9029030" lon="10.3546310">
	<ele>1385.60</ele>
	<time>2025-04-29T09:02:47.000Z</time>
</trkpt>
<trkpt lat="45.9029260" lon="10.3546600">
	<ele>1385.40</ele>
	<time>2025-04-29T09:02:48.000Z</time>
</trkpt>
<trkpt lat="45.9029340" lon="10.3546740">
	<ele>1385.40</ele>
	<time>2025-04-29T09:02:49.000Z</time>
</trkpt>
<trkpt lat="45.9029360" lon="10.3546970">
	<ele>1385.40</ele>
	<time>2025-04-29T09:02:50.000Z</time>
</trkpt>
<trkpt lat="45.9029380" lon="10.3547230">
	<ele>1385.60</ele>
	<time>2025-04-29T09:02:51.000Z</time>
</trkpt>
<trkpt lat="45.9029430" lon="10.3547400">
	<ele>1385.60</ele>
	<time>2025-04-29T09:02:52.000Z</time>
</trkpt>
<trkpt lat="45.9029510" lon="10.3547470">
	<ele>1385.60</ele>
	<time>2025-04-29T09:02:53.000Z</time>
</trkpt>
<trkpt lat="45.9029500" lon="10.3547640">
	<ele>1385.80</ele>
	<time>2025-04-29T09:02:54.000Z</time>
</trkpt>
<trkpt lat="45.9029430" lon="10.3547890">
	<ele>1386.00</ele>
	<time>2025-04-29T09:02:55.000Z</time>
</trkpt>
<trkpt lat="45.9029440" lon="10.3548010">
	<ele>1386.40</ele>
	<time>2025-04-29T09:02:56.000Z</time>
</trkpt>
<trkpt lat="45.9029550" lon="10.3548060">
	<ele>1386.60</ele>
	<time>2025-04-29T09:02:57.000Z</time>
</trkpt>
<trkpt lat="45.9029650" lon="10.3548130">
	<ele>1386.60</ele>
	<time>2025-04-29T09:02:58.000Z</time>
</trkpt>
<trkpt lat="45.9029680" lon="10.3548260">
	<ele>1386.80</ele>
	<time>2025-04-29T09:02:59.000Z</time>
</trkpt>
<trkpt lat="45.9029710" lon="10.3548460">
	<ele>1386.80</ele>
	<time>2025-04-29T09:03:00.000Z</time>
</trkpt>
<trkpt lat="45.9029760" lon="10.3548650">
	<ele>1387.20</ele>
	<time>2025-04-29T09:03:01.000Z</time>
</trkpt>
<trkpt lat="45.9029780" lon="10.3548780">
	<ele>1387.60</ele>
	<time>2025-04-29T09:03:02.000Z</time>
</trkpt>
<trkpt lat="45.9029700" lon="10.3548980">
	<ele>1387.80</ele>
	<time>2025-04-29T09:03:03.000Z</time>
</trkpt>
<trkpt lat="45.9029550" lon="10.3549130">
	<ele>1388.00</ele>
	<time>2025-04-29T09:03:04.000Z</time>
</trkpt>
<trkpt lat="45.9029450" lon="10.3549280">
	<ele>1388.20</ele>
	<time>2025-04-29T09:03:05.000Z</time>
</trkpt>
<trkpt lat="45.9029470" lon="10.3549440">
	<ele>1388.20</ele>
	<time>2025-04-29T09:03:06.000Z</time>
</trkpt>
<trkpt lat="45.9029500" lon="10.3549520">
	<ele>1388.40</ele>
	<time>2025-04-29T09:03:07.000Z</time>
</trkpt>
<trkpt lat="45.9029580" lon="10.3549540">
	<ele>1388.40</ele>
	<time>2025-04-29T09:03:08.000Z</time>
</trkpt>
<trkpt lat="45.9029650" lon="10.3549540">
	<ele>1388.40</ele>
	<time>2025-04-29T09:03:09.000Z</time>
</trkpt>
<trkpt lat="45.9029680" lon="10.3549670">
	<ele>1388.40</ele>
	<time>2025-04-29T09:03:10.000Z</time>
</trkpt>
<trkpt lat="45.9029740" lon="10.3549740">
	<ele>1388.60</ele>
	<time>2025-04-29T09:03:11.000Z</time>
</trkpt>
<trkpt lat="45.9029770" lon="10.3549890">
	<ele>1388.60</ele>
	<time>2025-04-29T09:03:12.000Z</time>
</trkpt>
<trkpt lat="45.9029830" lon="10.3549970">
	<ele>1388.60</ele>
	<time>2025-04-29T09:03:13.000Z</time>
</trkpt>
<trkpt lat="45.9029830" lon="10.3550030">
	<ele>1388.60</ele>
	<time>2025-04-29T09:03:14.000Z</time>
</trkpt>
<trkpt lat="45.9029750" lon="10.3550110">
	<ele>1388.60</ele>
	<time>2025-04-29T09:03:15.000Z</time>
</trkpt>
<trkpt lat="45.9029660" lon="10.3550140">
	<ele>1388.80</ele>
	<time>2025-04-29T09:03:16.000Z</time>
</trkpt>
<trkpt lat="45.9029570" lon="10.3550220">
	<ele>1388.80</ele>
	<time>2025-04-29T09:03:17.000Z</time>
</trkpt>
<trkpt lat="45.9029590" lon="10.3550290">
	<ele>1388.80</ele>
	<time>2025-04-29T09:03:18.000Z</time>
</trkpt>
<trkpt lat="45.9029530" lon="10.3550310">
	<ele>1389.00</ele>
	<time>2025-04-29T09:03:19.000Z</time>
</trkpt>
<trkpt lat="45.9029600" lon="10.3550340">
	<ele>1389.20</ele>
	<time>2025-04-29T09:03:20.000Z</time>
</trkpt>
<trkpt lat="45.9029670" lon="10.3550440">
	<ele>1389.20</ele>
	<time>2025-04-29T09:03:21.000Z</time>
</trkpt>
<trkpt lat="45.9029690" lon="10.3550580">
	<ele>1389.40</ele>
	<time>2025-04-29T09:03:22.000Z</time>
</trkpt>
<trkpt lat="45.9029730" lon="10.3550680">
	<ele>1389.60</ele>
	<time>2025-04-29T09:03:23.000Z</time>
</trkpt>
<trkpt lat="45.9029730" lon="10.3550720">
	<ele>1389.60</ele>
	<time>2025-04-29T09:03:24.000Z</time>
</trkpt>
<trkpt lat="45.9029690" lon="10.3550800">
	<ele>1389.80</ele>
	<time>2025-04-29T09:03:25.000Z</time>
</trkpt>
<trkpt lat="45.9029710" lon="10.3550820">
	<ele>1389.80</ele>
	<time>2025-04-29T09:03:26.000Z</time>
</trkpt>
<trkpt lat="45.9029790" lon="10.3550800">
	<ele>1389.80</ele>
	<time>2025-04-29T09:03:27.000Z</time>
</trkpt>
<trkpt lat="45.9029890" lon="10.3550780">
	<ele>1389.80</ele>
	<time>2025-04-29T09:03:28.000Z</time>
</trkpt>
<trkpt lat="45.9029890" lon="10.3550790">
	<ele>1389.80</ele>
	<time>2025-04-29T09:03:29.000Z</time>
</trkpt>
<trkpt lat="45.9029890" lon="10.3550790">
	<ele>1389.80</ele>
	<time>2025-04-29T09:03:30.000Z</time>
</trkpt>
<trkpt lat="45.9029880" lon="10.3550800">
	<ele>1389.80</ele>
	<time>2025-04-29T09:03:31.000Z</time>
</trkpt>
<trkpt lat="45.9029830" lon="10.3550800">
	<ele>1389.80</ele>
	<time>2025-04-29T09:03:32.000Z</time>
</trkpt>
<trkpt lat="45.9029830" lon="10.3550800">
	<ele>1389.80</ele>
	<time>2025-04-29T09:03:33.000Z</time>
</trkpt>
<trkpt lat="45.9029830" lon="10.3550790">
	<ele>1389.80</ele>
	<time>2025-04-29T09:03:34.000Z</time>
</trkpt>
<trkpt lat="45.9029830" lon="10.3550840">
	<ele>1390.00</ele>
	<time>2025-04-29T09:03:35.000Z</time>
</trkpt>
<trkpt lat="45.9029820" lon="10.3550890">
	<ele>1389.80</ele>
	<time>2025-04-29T09:03:36.000Z</time>
</trkpt>
<trkpt lat="45.9029840" lon="10.3550920">
	<ele>1389.80</ele>
	<time>2025-04-29T09:03:37.000Z</time>
</trkpt>
<trkpt lat="45.9029820" lon="10.3550940">
	<ele>1389.80</ele>
	<time>2025-04-29T09:03:38.000Z</time>
</trkpt>
<trkpt lat="45.9029840" lon="10.3550960">
	<ele>1389.80</ele>
	<time>2025-04-29T09:03:39.000Z</time>
</trkpt>
<trkpt lat="45.9029860" lon="10.3550970">
	<ele>1389.80</ele>
	<time>2025-04-29T09:03:40.000Z</time>
</trkpt>
<trkpt lat="45.9029880" lon="10.3550970">
	<ele>1389.80</ele>
	<time>2025-04-29T09:03:41.000Z</time>
</trkpt>
<trkpt lat="45.9029910" lon="10.3550970">
	<ele>1389.80</ele>
	<time>2025-04-29T09:03:42.000Z</time>
</trkpt>
<trkpt lat="45.9029920" lon="10.3551000">
	<ele>1389.80</ele>
	<time>2025-04-29T09:03:43.000Z</time>
</trkpt>
<trkpt lat="45.9029940" lon="10.3551110">
	<ele>1389.80</ele>
	<time>2025-04-29T09:03:44.000Z</time>
</trkpt>
<trkpt lat="45.9029980" lon="10.3551150">
	<ele>1390.00</ele>
	<time>2025-04-29T09:03:45.000Z</time>
</trkpt>
<trkpt lat="45.9030010" lon="10.3551240">
	<ele>1390.00</ele>
	<time>2025-04-29T09:03:46.000Z</time>
</trkpt>
<trkpt lat="45.9029990" lon="10.3551420">
	<ele>1390.00</ele>
	<time>2025-04-29T09:03:47.000Z</time>
</trkpt>
<trkpt lat="45.9029980" lon="10.3551600">
	<ele>1390.00</ele>
	<time>2025-04-29T09:03:48.000Z</time>
</trkpt>
<trkpt lat="45.9029960" lon="10.3551780">
	<ele>1390.00</ele>
	<time>2025-04-29T09:03:49.000Z</time>
</trkpt>
<trkpt lat="45.9029980" lon="10.3551950">
	<ele>1389.80</ele>
	<time>2025-04-29T09:03:50.000Z</time>
</trkpt>
<trkpt lat="45.9029950" lon="10.3552100">
	<ele>1389.80</ele>
	<time>2025-04-29T09:03:51.000Z</time>
</trkpt>
<trkpt lat="45.9029940" lon="10.3552160">
	<ele>1389.80</ele>
	<time>2025-04-29T09:03:52.000Z</time>
</trkpt>
<trkpt lat="45.9029970" lon="10.3552300">
	<ele>1389.80</ele>
	<time>2025-04-29T09:03:53.000Z</time>
</trkpt>
<trkpt lat="45.9029990" lon="10.3552310">
	<ele>1390.00</ele>
	<time>2025-04-29T09:03:54.000Z</time>
</trkpt>
<trkpt lat="45.9029940" lon="10.3552400">
	<ele>1390.00</ele>
	<time>2025-04-29T09:03:55.000Z</time>
</trkpt>
<trkpt lat="45.9029880" lon="10.3552550">
	<ele>1390.00</ele>
	<time>2025-04-29T09:03:56.000Z</time>
</trkpt>
<trkpt lat="45.9029900" lon="10.3552760">
	<ele>1390.00</ele>
	<time>2025-04-29T09:03:57.000Z</time>
</trkpt>
<trkpt lat="45.9030000" lon="10.3552930">
	<ele>1390.00</ele>
	<time>2025-04-29T09:03:58.000Z</time>
</trkpt>
<trkpt lat="45.9030060" lon="10.3553040">
	<ele>1390.00</ele>
	<time>2025-04-29T09:03:59.000Z</time>
</trkpt>
<trkpt lat="45.9030060" lon="10.3553190">
	<ele>1390.00</ele>
	<time>2025-04-29T09:04:00.000Z</time>
</trkpt>
<trkpt lat="45.9030060" lon="10.3553340">
	<ele>1390.00</ele>
	<time>2025-04-29T09:04:01.000Z</time>
</trkpt>
<trkpt lat="45.9030080" lon="10.3553500">
	<ele>1390.00</ele>
	<time>2025-04-29T09:04:02.000Z</time>
</trkpt>
<trkpt lat="45.9030140" lon="10.3553620">
	<ele>1390.00</ele>
	<time>2025-04-29T09:04:03.000Z</time>
</trkpt>
<trkpt lat="45.9030220" lon="10.3553720">
	<ele>1390.00</ele>
	<time>2025-04-29T09:04:04.000Z</time>
</trkpt>
<trkpt lat="45.9030260" lon="10.3553860">
	<ele>1390.00</ele>
	<time>2025-04-29T09:04:05.000Z</time>
</trkpt>
<trkpt lat="45.9030230" lon="10.3554060">
	<ele>1390.00</ele>
	<time>2025-04-29T09:04:06.000Z</time>
</trkpt>
<trkpt lat="45.9030200" lon="10.3554310">
	<ele>1390.20</ele>
	<time>2025-04-29T09:04:07.000Z</time>
</trkpt>
<trkpt lat="45.9030190" lon="10.3554510">
	<ele>1390.40</ele>
	<time>2025-04-29T09:04:08.000Z</time>
</trkpt>
<trkpt lat="45.9030210" lon="10.3554700">
	<ele>1390.40</ele>
	<time>2025-04-29T09:04:09.000Z</time>
</trkpt>
<trkpt lat="45.9030190" lon="10.3554840">
	<ele>1390.60</ele>
	<time>2025-04-29T09:04:10.000Z</time>
</trkpt>
<trkpt lat="45.9030170" lon="10.3555000">
	<ele>1390.80</ele>
	<time>2025-04-29T09:04:11.000Z</time>
</trkpt>
<trkpt lat="45.9030160" lon="10.3555220">
	<ele>1390.80</ele>
	<time>2025-04-29T09:04:12.000Z</time>
</trkpt>
<trkpt lat="45.9030240" lon="10.3555410">
	<ele>1390.80</ele>
	<time>2025-04-29T09:04:13.000Z</time>
</trkpt>
<trkpt lat="45.9030370" lon="10.3555650">
	<ele>1391.00</ele>
	<time>2025-04-29T09:04:14.000Z</time>
</trkpt>
<trkpt lat="45.9030460" lon="10.3555860">
	<ele>1391.20</ele>
	<time>2025-04-29T09:04:15.000Z</time>
</trkpt>
<trkpt lat="45.9030400" lon="10.3556080">
	<ele>1391.20</ele>
	<time>2025-04-29T09:04:16.000Z</time>
</trkpt>
<trkpt lat="45.9030290" lon="10.3556320">
	<ele>1391.40</ele>
	<time>2025-04-29T09:04:17.000Z</time>
</trkpt>
<trkpt lat="45.9030220" lon="10.3556490">
	<ele>1391.40</ele>
	<time>2025-04-29T09:04:18.000Z</time>
</trkpt>
<trkpt lat="45.9030150" lon="10.3556650">
	<ele>1391.40</ele>
	<time>2025-04-29T09:04:19.000Z</time>
</trkpt>
<trkpt lat="45.9030110" lon="10.3556850">
	<ele>1391.40</ele>
	<time>2025-04-29T09:04:20.000Z</time>
</trkpt>
<trkpt lat="45.9030090" lon="10.3557000">
	<ele>1391.60</ele>
	<time>2025-04-29T09:04:21.000Z</time>
</trkpt>
<trkpt lat="45.9030070" lon="10.3557190">
	<ele>1391.60</ele>
	<time>2025-04-29T09:04:22.000Z</time>
</trkpt>
<trkpt lat="45.9030040" lon="10.3557300">
	<ele>1391.60</ele>
	<time>2025-04-29T09:04:23.000Z</time>
</trkpt>
<trkpt lat="45.9030050" lon="10.3557450">
	<ele>1391.60</ele>
	<time>2025-04-29T09:04:24.000Z</time>
</trkpt>
<trkpt lat="45.9030030" lon="10.3557610">
	<ele>1391.80</ele>
	<time>2025-04-29T09:04:25.000Z</time>
</trkpt>
<trkpt lat="45.9029990" lon="10.3557730">
	<ele>1391.80</ele>
	<time>2025-04-29T09:04:26.000Z</time>
</trkpt>
<trkpt lat="45.9029960" lon="10.3557840">
	<ele>1392.00</ele>
	<time>2025-04-29T09:04:27.000Z</time>
</trkpt>
<trkpt lat="45.9029950" lon="10.3557980">
	<ele>1392.20</ele>
	<time>2025-04-29T09:04:28.000Z</time>
</trkpt>
<trkpt lat="45.9029990" lon="10.3558040">
	<ele>1392.20</ele>
	<time>2025-04-29T09:04:29.000Z</time>
</trkpt>
<trkpt lat="45.9030070" lon="10.3558140">
	<ele>1392.60</ele>
	<time>2025-04-29T09:04:30.000Z</time>
</trkpt>
<trkpt lat="45.9030130" lon="10.3558340">
	<ele>1392.60</ele>
	<time>2025-04-29T09:04:31.000Z</time>
</trkpt>
<trkpt lat="45.9030200" lon="10.3558560">
	<ele>1393.00</ele>
	<time>2025-04-29T09:04:32.000Z</time>
</trkpt>
<trkpt lat="45.9030250" lon="10.3558690">
	<ele>1393.20</ele>
	<time>2025-04-29T09:04:33.000Z</time>
</trkpt>
<trkpt lat="45.9030330" lon="10.3558870">
	<ele>1393.40</ele>
	<time>2025-04-29T09:04:34.000Z</time>
</trkpt>
<trkpt lat="45.9030430" lon="10.3559080">
	<ele>1393.40</ele>
	<time>2025-04-29T09:04:35.000Z</time>
</trkpt>
<trkpt lat="45.9030480" lon="10.3559280">
	<ele>1393.80</ele>
	<time>2025-04-29T09:04:36.000Z</time>
</trkpt>
<trkpt lat="45.9030570" lon="10.3559360">
	<ele>1394.20</ele>
	<time>2025-04-29T09:04:37.000Z</time>
</trkpt>
<trkpt lat="45.9030630" lon="10.3559510">
	<ele>1394.40</ele>
	<time>2025-04-29T09:04:38.000Z</time>
</trkpt>
<trkpt lat="45.9030730" lon="10.3559640">
	<ele>1394.60</ele>
	<time>2025-04-29T09:04:39.000Z</time>
</trkpt>
<trkpt lat="45.9030770" lon="10.3559720">
	<ele>1394.80</ele>
	<time>2025-04-29T09:04:40.000Z</time>
</trkpt>
<trkpt lat="45.9030790" lon="10.3559820">
	<ele>1395.00</ele>
	<time>2025-04-29T09:04:41.000Z</time>
</trkpt>
<trkpt lat="45.9030760" lon="10.3559950">
	<ele>1395.20</ele>
	<time>2025-04-29T09:04:42.000Z</time>
</trkpt>
<trkpt lat="45.9030730" lon="10.3560100">
	<ele>1395.40</ele>
	<time>2025-04-29T09:04:43.000Z</time>
</trkpt>
<trkpt lat="45.9030710" lon="10.3560330">
	<ele>1395.80</ele>
	<time>2025-04-29T09:04:44.000Z</time>
</trkpt>
<trkpt lat="45.9030740" lon="10.3560540">
	<ele>1396.00</ele>
	<time>2025-04-29T09:04:45.000Z</time>
</trkpt>
<trkpt lat="45.9030810" lon="10.3560700">
	<ele>1396.40</ele>
	<time>2025-04-29T09:04:46.000Z</time>
</trkpt>
<trkpt lat="45.9030860" lon="10.3560840">
	<ele>1396.60</ele>
	<time>2025-04-29T09:04:47.000Z</time>
</trkpt>
<trkpt lat="45.9030920" lon="10.3560920">
	<ele>1396.60</ele>
	<time>2025-04-29T09:04:48.000Z</time>
</trkpt>
<trkpt lat="45.9030980" lon="10.3561060">
	<ele>1396.80</ele>
	<time>2025-04-29T09:04:49.000Z</time>
</trkpt>
<trkpt lat="45.9030980" lon="10.3561220">
	<ele>1397.00</ele>
	<time>2025-04-29T09:04:50.000Z</time>
</trkpt>
<trkpt lat="45.9030970" lon="10.3561390">
	<ele>1397.00</ele>
	<time>2025-04-29T09:04:51.000Z</time>
</trkpt>
<trkpt lat="45.9030980" lon="10.3561550">
	<ele>1397.00</ele>
	<time>2025-04-29T09:04:52.000Z</time>
</trkpt>
<trkpt lat="45.9031030" lon="10.3561620">
	<ele>1397.20</ele>
	<time>2025-04-29T09:04:53.000Z</time>
</trkpt>
<trkpt lat="45.9031080" lon="10.3561670">
	<ele>1397.40</ele>
	<time>2025-04-29T09:04:54.000Z</time>
</trkpt>
<trkpt lat="45.9031140" lon="10.3561750">
	<ele>1397.60</ele>
	<time>2025-04-29T09:04:55.000Z</time>
</trkpt>
<trkpt lat="45.9031210" lon="10.3561880">
	<ele>1397.60</ele>
	<time>2025-04-29T09:04:56.000Z</time>
</trkpt>
<trkpt lat="45.9031310" lon="10.3562020">
	<ele>1397.80</ele>
	<time>2025-04-29T09:04:57.000Z</time>
</trkpt>
<trkpt lat="45.9031460" lon="10.3562180">
	<ele>1398.00</ele>
	<time>2025-04-29T09:04:58.000Z</time>
</trkpt>
<trkpt lat="45.9031580" lon="10.3562340">
	<ele>1398.20</ele>
	<time>2025-04-29T09:04:59.000Z</time>
</trkpt>
<trkpt lat="45.9031710" lon="10.3562520">
	<ele>1398.40</ele>
	<time>2025-04-29T09:05:00.000Z</time>
</trkpt>
<trkpt lat="45.9031770" lon="10.3562710">
	<ele>1398.40</ele>
	<time>2025-04-29T09:05:01.000Z</time>
</trkpt>
<trkpt lat="45.9031800" lon="10.3562990">
	<ele>1398.80</ele>
	<time>2025-04-29T09:05:02.000Z</time>
</trkpt>
<trkpt lat="45.9031840" lon="10.3563100">
	<ele>1399.00</ele>
	<time>2025-04-29T09:05:03.000Z</time>
</trkpt>
<trkpt lat="45.9031860" lon="10.3563240">
	<ele>1399.00</ele>
	<time>2025-04-29T09:05:04.000Z</time>
</trkpt>
<trkpt lat="45.9031900" lon="10.3563400">
	<ele>1399.20</ele>
	<time>2025-04-29T09:05:05.000Z</time>
</trkpt>
<trkpt lat="45.9032010" lon="10.3563500">
	<ele>1399.20</ele>
	<time>2025-04-29T09:05:06.000Z</time>
</trkpt>
<trkpt lat="45.9032120" lon="10.3563560">
	<ele>1399.40</ele>
	<time>2025-04-29T09:05:07.000Z</time>
</trkpt>
<trkpt lat="45.9032120" lon="10.3563690">
	<ele>1399.40</ele>
	<time>2025-04-29T09:05:08.000Z</time>
</trkpt>
<trkpt lat="45.9032110" lon="10.3563820">
	<ele>1399.80</ele>
	<time>2025-04-29T09:05:09.000Z</time>
</trkpt>
<trkpt lat="45.9032140" lon="10.3563890">
	<ele>1400.00</ele>
	<time>2025-04-29T09:05:10.000Z</time>
</trkpt>
<trkpt lat="45.9032130" lon="10.3563950">
	<ele>1400.20</ele>
	<time>2025-04-29T09:05:11.000Z</time>
</trkpt>
<trkpt lat="45.9032190" lon="10.3564040">
	<ele>1400.60</ele>
	<time>2025-04-29T09:05:12.000Z</time>
</trkpt>
<trkpt lat="45.9032170" lon="10.3564200">
	<ele>1400.60</ele>
	<time>2025-04-29T09:05:13.000Z</time>
</trkpt>
<trkpt lat="45.9032140" lon="10.3564300">
	<ele>1401.00</ele>
	<time>2025-04-29T09:05:14.000Z</time>
</trkpt>
<trkpt lat="45.9032100" lon="10.3564460">
	<ele>1401.20</ele>
	<time>2025-04-29T09:05:15.000Z</time>
</trkpt>
<trkpt lat="45.9032060" lon="10.3564640">
	<ele>1401.60</ele>
	<time>2025-04-29T09:05:16.000Z</time>
</trkpt>
<trkpt lat="45.9032020" lon="10.3564800">
	<ele>1401.80</ele>
	<time>2025-04-29T09:05:17.000Z</time>
</trkpt>
<trkpt lat="45.9032020" lon="10.3564920">
	<ele>1402.00</ele>
	<time>2025-04-29T09:05:18.000Z</time>
</trkpt>
<trkpt lat="45.9032040" lon="10.3565110">
	<ele>1402.20</ele>
	<time>2025-04-29T09:05:19.000Z</time>
</trkpt>
<trkpt lat="45.9032040" lon="10.3565240">
	<ele>1402.40</ele>
	<time>2025-04-29T09:05:20.000Z</time>
</trkpt>
<trkpt lat="45.9032090" lon="10.3565350">
	<ele>1402.60</ele>
	<time>2025-04-29T09:05:21.000Z</time>
</trkpt>
<trkpt lat="45.9032140" lon="10.3565370">
	<ele>1402.80</ele>
	<time>2025-04-29T09:05:22.000Z</time>
</trkpt>
<trkpt lat="45.9032160" lon="10.3565520">
	<ele>1403.00</ele>
	<time>2025-04-29T09:05:23.000Z</time>
</trkpt>
<trkpt lat="45.9032160" lon="10.3565590">
	<ele>1403.20</ele>
	<time>2025-04-29T09:05:24.000Z</time>
</trkpt>
<trkpt lat="45.9032190" lon="10.3565700">
	<ele>1403.40</ele>
	<time>2025-04-29T09:05:25.000Z</time>
</trkpt>
<trkpt lat="45.9032130" lon="10.3565890">
	<ele>1403.60</ele>
	<time>2025-04-29T09:05:26.000Z</time>
</trkpt>
<trkpt lat="45.9032030" lon="10.3566080">
	<ele>1403.80</ele>
	<time>2025-04-29T09:05:27.000Z</time>
</trkpt>
<trkpt lat="45.9032000" lon="10.3566230">
	<ele>1404.00</ele>
	<time>2025-04-29T09:05:28.000Z</time>
</trkpt>
<trkpt lat="45.9031980" lon="10.3566390">
	<ele>1404.20</ele>
	<time>2025-04-29T09:05:29.000Z</time>
</trkpt>
<trkpt lat="45.9031940" lon="10.3566590">
	<ele>1404.60</ele>
	<time>2025-04-29T09:05:30.000Z</time>
</trkpt>
<trkpt lat="45.9031940" lon="10.3566810">
	<ele>1404.80</ele>
	<time>2025-04-29T09:05:31.000Z</time>
</trkpt>
<trkpt lat="45.9031960" lon="10.3566950">
	<ele>1405.00</ele>
	<time>2025-04-29T09:05:32.000Z</time>
</trkpt>
<trkpt lat="45.9031930" lon="10.3567160">
	<ele>1405.20</ele>
	<time>2025-04-29T09:05:33.000Z</time>
</trkpt>
<trkpt lat="45.9031980" lon="10.3567280">
	<ele>1405.40</ele>
	<time>2025-04-29T09:05:34.000Z</time>
</trkpt>
<trkpt lat="45.9032030" lon="10.3567370">
	<ele>1405.60</ele>
	<time>2025-04-29T09:05:35.000Z</time>
</trkpt>
<trkpt lat="45.9032080" lon="10.3567430">
	<ele>1405.60</ele>
	<time>2025-04-29T09:05:36.000Z</time>
</trkpt>
<trkpt lat="45.9032040" lon="10.3567590">
	<ele>1405.60</ele>
	<time>2025-04-29T09:05:37.000Z</time>
</trkpt>
<trkpt lat="45.9032080" lon="10.3567580">
	<ele>1405.80</ele>
	<time>2025-04-29T09:05:38.000Z</time>
</trkpt>
<trkpt lat="45.9032110" lon="10.3567590">
	<ele>1406.00</ele>
	<time>2025-04-29T09:05:39.000Z</time>
</trkpt>
<trkpt lat="45.9032180" lon="10.3567710">
	<ele>1406.20</ele>
	<time>2025-04-29T09:05:40.000Z</time>
</trkpt>
<trkpt lat="45.9032260" lon="10.3567820">
	<ele>1406.40</ele>
	<time>2025-04-29T09:05:41.000Z</time>
</trkpt>
<trkpt lat="45.9032300" lon="10.3567960">
	<ele>1406.60</ele>
	<time>2025-04-29T09:05:42.000Z</time>
</trkpt>
<trkpt lat="45.9032320" lon="10.3568150">
	<ele>1407.00</ele>
	<time>2025-04-29T09:05:43.000Z</time>
</trkpt>
<trkpt lat="45.9032310" lon="10.3568410">
	<ele>1407.20</ele>
	<time>2025-04-29T09:05:44.000Z</time>
</trkpt>
<trkpt lat="45.9032290" lon="10.3568630">
	<ele>1407.40</ele>
	<time>2025-04-29T09:05:45.000Z</time>
</trkpt>
<trkpt lat="45.9032350" lon="10.3568780">
	<ele>1407.60</ele>
	<time>2025-04-29T09:05:46.000Z</time>
</trkpt>
<trkpt lat="45.9032430" lon="10.3568920">
	<ele>1407.60</ele>
	<time>2025-04-29T09:05:47.000Z</time>
</trkpt>
<trkpt lat="45.9032590" lon="10.3568900">
	<ele>1407.80</ele>
	<time>2025-04-29T09:05:48.000Z</time>
</trkpt>
<trkpt lat="45.9032720" lon="10.3568860">
	<ele>1408.00</ele>
	<time>2025-04-29T09:05:49.000Z</time>
</trkpt>
<trkpt lat="45.9032780" lon="10.3568950">
	<ele>1408.20</ele>
	<time>2025-04-29T09:05:50.000Z</time>
</trkpt>
<trkpt lat="45.9032850" lon="10.3569020">
	<ele>1408.20</ele>
	<time>2025-04-29T09:05:51.000Z</time>
</trkpt>
<trkpt lat="45.9032920" lon="10.3569090">
	<ele>1408.40</ele>
	<time>2025-04-29T09:05:52.000Z</time>
</trkpt>
<trkpt lat="45.9032930" lon="10.3569260">
	<ele>1408.40</ele>
	<time>2025-04-29T09:05:53.000Z</time>
</trkpt>
<trkpt lat="45.9032880" lon="10.3569480">
	<ele>1408.40</ele>
	<time>2025-04-29T09:05:54.000Z</time>
</trkpt>
<trkpt lat="45.9032890" lon="10.3569620">
	<ele>1408.60</ele>
	<time>2025-04-29T09:05:55.000Z</time>
</trkpt>
<trkpt lat="45.9032940" lon="10.3569770">
	<ele>1408.80</ele>
	<time>2025-04-29T09:05:56.000Z</time>
</trkpt>
<trkpt lat="45.9032950" lon="10.3569970">
	<ele>1408.80</ele>
	<time>2025-04-29T09:05:57.000Z</time>
</trkpt>
<trkpt lat="45.9032940" lon="10.3570110">
	<ele>1409.00</ele>
	<time>2025-04-29T09:05:58.000Z</time>
</trkpt>
<trkpt lat="45.9032930" lon="10.3570290">
	<ele>1409.00</ele>
	<time>2025-04-29T09:05:59.000Z</time>
</trkpt>
<trkpt lat="45.9032880" lon="10.3570470">
	<ele>1409.20</ele>
	<time>2025-04-29T09:06:00.000Z</time>
</trkpt>
<trkpt lat="45.9032850" lon="10.3570660">
	<ele>1409.20</ele>
	<time>2025-04-29T09:06:01.000Z</time>
</trkpt>
<trkpt lat="45.9032880" lon="10.3570810">
	<ele>1409.40</ele>
	<time>2025-04-29T09:06:02.000Z</time>
</trkpt>
<trkpt lat="45.9032870" lon="10.3570970">
	<ele>1409.60</ele>
	<time>2025-04-29T09:06:03.000Z</time>
</trkpt>
<trkpt lat="45.9032790" lon="10.3571150">
	<ele>1409.60</ele>
	<time>2025-04-29T09:06:04.000Z</time>
</trkpt>
<trkpt lat="45.9032870" lon="10.3571340">
	<ele>1409.80</ele>
	<time>2025-04-29T09:06:05.000Z</time>
</trkpt>
<trkpt lat="45.9032930" lon="10.3571430">
	<ele>1410.00</ele>
	<time>2025-04-29T09:06:06.000Z</time>
</trkpt>
<trkpt lat="45.9033030" lon="10.3571500">
	<ele>1410.00</ele>
	<time>2025-04-29T09:06:07.000Z</time>
</trkpt>
<trkpt lat="45.9033060" lon="10.3571600">
	<ele>1410.00</ele>
	<time>2025-04-29T09:06:08.000Z</time>
</trkpt>
<trkpt lat="45.9033100" lon="10.3571710">
	<ele>1410.20</ele>
	<time>2025-04-29T09:06:09.000Z</time>
</trkpt>
<trkpt lat="45.9033120" lon="10.3571830">
	<ele>1410.20</ele>
	<time>2025-04-29T09:06:10.000Z</time>
</trkpt>
<trkpt lat="45.9033170" lon="10.3571970">
	<ele>1410.40</ele>
	<time>2025-04-29T09:06:11.000Z</time>
</trkpt>
<trkpt lat="45.9033210" lon="10.3572060">
	<ele>1410.40</ele>
	<time>2025-04-29T09:06:12.000Z</time>
</trkpt>
<trkpt lat="45.9033260" lon="10.3572160">
	<ele>1410.60</ele>
	<time>2025-04-29T09:06:13.000Z</time>
</trkpt>
<trkpt lat="45.9033310" lon="10.3572180">
	<ele>1410.80</ele>
	<time>2025-04-29T09:06:14.000Z</time>
</trkpt>
<trkpt lat="45.9033370" lon="10.3572220">
	<ele>1411.00</ele>
	<time>2025-04-29T09:06:15.000Z</time>
</trkpt>
<trkpt lat="45.9033440" lon="10.3572320">
	<ele>1411.20</ele>
	<time>2025-04-29T09:06:16.000Z</time>
</trkpt>
<trkpt lat="45.9033510" lon="10.3572490">
	<ele>1411.20</ele>
	<time>2025-04-29T09:06:17.000Z</time>
</trkpt>
<trkpt lat="45.9033530" lon="10.3572630">
	<ele>1411.40</ele>
	<time>2025-04-29T09:06:18.000Z</time>
</trkpt>
<trkpt lat="45.9033560" lon="10.3572780">
	<ele>1411.60</ele>
	<time>2025-04-29T09:06:19.000Z</time>
</trkpt>
<trkpt lat="45.9033620" lon="10.3572900">
	<ele>1411.80</ele>
	<time>2025-04-29T09:06:20.000Z</time>
</trkpt>
<trkpt lat="45.9033670" lon="10.3573010">
	<ele>1412.00</ele>
	<time>2025-04-29T09:06:21.000Z</time>
</trkpt>
<trkpt lat="45.9033730" lon="10.3573120">
	<ele>1412.20</ele>
	<time>2025-04-29T09:06:22.000Z</time>
</trkpt>
<trkpt lat="45.9033780" lon="10.3573260">
	<ele>1412.20</ele>
	<time>2025-04-29T09:06:23.000Z</time>
</trkpt>
<trkpt lat="45.9033810" lon="10.3573330">
	<ele>1412.40</ele>
	<time>2025-04-29T09:06:24.000Z</time>
</trkpt>
<trkpt lat="45.9033810" lon="10.3573380">
	<ele>1412.60</ele>
	<time>2025-04-29T09:06:25.000Z</time>
</trkpt>
<trkpt lat="45.9033780" lon="10.3573510">
	<ele>1412.80</ele>
	<time>2025-04-29T09:06:26.000Z</time>
</trkpt>
<trkpt lat="45.9033920" lon="10.3573530">
	<ele>1413.00</ele>
	<time>2025-04-29T09:06:27.000Z</time>
</trkpt>
<trkpt lat="45.9034010" lon="10.3573590">
	<ele>1413.00</ele>
	<time>2025-04-29T09:06:28.000Z</time>
</trkpt>
<trkpt lat="45.9034070" lon="10.3573710">
	<ele>1413.20</ele>
	<time>2025-04-29T09:06:29.000Z</time>
</trkpt>
<trkpt lat="45.9034140" lon="10.3573790">
	<ele>1413.40</ele>
	<time>2025-04-29T09:06:30.000Z</time>
</trkpt>
<trkpt lat="45.9034190" lon="10.3573860">
	<ele>1413.60</ele>
	<time>2025-04-29T09:06:31.000Z</time>
</trkpt>
<trkpt lat="45.9034250" lon="10.3573920">
	<ele>1413.80</ele>
	<time>2025-04-29T09:06:32.000Z</time>
</trkpt>
<trkpt lat="45.9034330" lon="10.3573960">
	<ele>1414.00</ele>
	<time>2025-04-29T09:06:33.000Z</time>
</trkpt>
<trkpt lat="45.9034410" lon="10.3574030">
	<ele>1414.20</ele>
	<time>2025-04-29T09:06:34.000Z</time>
</trkpt>
<trkpt lat="45.9034440" lon="10.3574140">
	<ele>1414.60</ele>
	<time>2025-04-29T09:06:35.000Z</time>
</trkpt>
<trkpt lat="45.9034470" lon="10.3574180">
	<ele>1414.60</ele>
	<time>2025-04-29T09:06:36.000Z</time>
</trkpt>
<trkpt lat="45.9034520" lon="10.3574250">
	<ele>1414.80</ele>
	<time>2025-04-29T09:06:37.000Z</time>
</trkpt>
<trkpt lat="45.9034590" lon="10.3574370">
	<ele>1415.00</ele>
	<time>2025-04-29T09:06:38.000Z</time>
</trkpt>
<trkpt lat="45.9034620" lon="10.3574510">
	<ele>1415.20</ele>
	<time>2025-04-29T09:06:39.000Z</time>
</trkpt>
<trkpt lat="45.9034640" lon="10.3574690">
	<ele>1415.40</ele>
	<time>2025-04-29T09:06:40.000Z</time>
</trkpt>
<trkpt lat="45.9034680" lon="10.3574860">
	<ele>1415.60</ele>
	<time>2025-04-29T09:06:41.000Z</time>
</trkpt>
<trkpt lat="45.9034680" lon="10.3574970">
	<ele>1416.00</ele>
	<time>2025-04-29T09:06:42.000Z</time>
</trkpt>
<trkpt lat="45.9034760" lon="10.3574960">
	<ele>1416.20</ele>
	<time>2025-04-29T09:06:43.000Z</time>
</trkpt>
<trkpt lat="45.9034810" lon="10.3575070">
	<ele>1416.40</ele>
	<time>2025-04-29T09:06:44.000Z</time>
</trkpt>
<trkpt lat="45.9034830" lon="10.3575150">
	<ele>1416.60</ele>
	<time>2025-04-29T09:06:45.000Z</time>
</trkpt>
<trkpt lat="45.9034840" lon="10.3575280">
	<ele>1416.80</ele>
	<time>2025-04-29T09:06:46.000Z</time>
</trkpt>
<trkpt lat="45.9034880" lon="10.3575390">
	<ele>1416.80</ele>
	<time>2025-04-29T09:06:47.000Z</time>
</trkpt>
<trkpt lat="45.9034910" lon="10.3575490">
	<ele>1417.00</ele>
	<time>2025-04-29T09:06:48.000Z</time>
</trkpt>
<trkpt lat="45.9034950" lon="10.3575580">
	<ele>1417.20</ele>
	<time>2025-04-29T09:06:49.000Z</time>
</trkpt>
<trkpt lat="45.9034950" lon="10.3575670">
	<ele>1417.20</ele>
	<time>2025-04-29T09:06:50.000Z</time>
</trkpt>
<trkpt lat="45.9035010" lon="10.3575780">
	<ele>1417.40</ele>
	<time>2025-04-29T09:06:51.000Z</time>
</trkpt>
<trkpt lat="45.9035130" lon="10.3575810">
	<ele>1417.60</ele>
	<time>2025-04-29T09:06:52.000Z</time>
</trkpt>
<trkpt lat="45.9035260" lon="10.3575870">
	<ele>1417.80</ele>
	<time>2025-04-29T09:06:53.000Z</time>
</trkpt>
<trkpt lat="45.9035340" lon="10.3575940">
	<ele>1418.00</ele>
	<time>2025-04-29T09:06:54.000Z</time>
</trkpt>
<trkpt lat="45.9035410" lon="10.3575970">
	<ele>1418.20</ele>
	<time>2025-04-29T09:06:55.000Z</time>
</trkpt>
<trkpt lat="45.9035490" lon="10.3576060">
	<ele>1418.40</ele>
	<time>2025-04-29T09:06:56.000Z</time>
</trkpt>
<trkpt lat="45.9035520" lon="10.3576160">
	<ele>1418.60</ele>
	<time>2025-04-29T09:06:57.000Z</time>
</trkpt>
<trkpt lat="45.9035570" lon="10.3576250">
	<ele>1418.80</ele>
	<time>2025-04-29T09:06:58.000Z</time>
</trkpt>
<trkpt lat="45.9035630" lon="10.3576330">
	<ele>1419.00</ele>
	<time>2025-04-29T09:06:59.000Z</time>
</trkpt>
<trkpt lat="45.9035660" lon="10.3576450">
	<ele>1419.00</ele>
	<time>2025-04-29T09:07:00.000Z</time>
</trkpt>
<trkpt lat="45.9035730" lon="10.3576510">
	<ele>1419.20</ele>
	<time>2025-04-29T09:07:01.000Z</time>
</trkpt>
<trkpt lat="45.9035780" lon="10.3576580">
	<ele>1419.80</ele>
	<time>2025-04-29T09:07:02.000Z</time>
</trkpt>
<trkpt lat="45.9035820" lon="10.3576660">
	<ele>1420.00</ele>
	<time>2025-04-29T09:07:03.000Z</time>
</trkpt>
<trkpt lat="45.9035850" lon="10.3576730">
	<ele>1420.20</ele>
	<time>2025-04-29T09:07:04.000Z</time>
</trkpt>
<trkpt lat="45.9035860" lon="10.3576830">
	<ele>1420.40</ele>
	<time>2025-04-29T09:07:05.000Z</time>
</trkpt>
<trkpt lat="45.9035860" lon="10.3576950">
	<ele>1420.60</ele>
	<time>2025-04-29T09:07:06.000Z</time>
</trkpt>
<trkpt lat="45.9035920" lon="10.3576960">
	<ele>1420.80</ele>
	<time>2025-04-29T09:07:07.000Z</time>
</trkpt>
<trkpt lat="45.9035990" lon="10.3577020">
	<ele>1421.20</ele>
	<time>2025-04-29T09:07:08.000Z</time>
</trkpt>
<trkpt lat="45.9036000" lon="10.3577180">
	<ele>1421.40</ele>
	<time>2025-04-29T09:07:09.000Z</time>
</trkpt>
<trkpt lat="45.9035990" lon="10.3577290">
	<ele>1421.60</ele>
	<time>2025-04-29T09:07:10.000Z</time>
</trkpt>
<trkpt lat="45.9036020" lon="10.3577380">
	<ele>1421.80</ele>
	<time>2025-04-29T09:07:11.000Z</time>
</trkpt>
<trkpt lat="45.9036080" lon="10.3577440">
	<ele>1422.00</ele>
	<time>2025-04-29T09:07:12.000Z</time>
</trkpt>
<trkpt lat="45.9036250" lon="10.3577450">
	<ele>1422.20</ele>
	<time>2025-04-29T09:07:13.000Z</time>
</trkpt>
<trkpt lat="45.9036440" lon="10.3577420">
	<ele>1422.40</ele>
	<time>2025-04-29T09:07:14.000Z</time>
</trkpt>
<trkpt lat="45.9036470" lon="10.3577440">
	<ele>1422.60</ele>
	<time>2025-04-29T09:07:15.000Z</time>
</trkpt>
<trkpt lat="45.9036540" lon="10.3577400">
	<ele>1422.80</ele>
	<time>2025-04-29T09:07:16.000Z</time>
</trkpt>
<trkpt lat="45.9036640" lon="10.3577380">
	<ele>1423.00</ele>
	<time>2025-04-29T09:07:17.000Z</time>
</trkpt>
<trkpt lat="45.9036680" lon="10.3577410">
	<ele>1423.20</ele>
	<time>2025-04-29T09:07:18.000Z</time>
</trkpt>
<trkpt lat="45.9036700" lon="10.3577480">
	<ele>1423.40</ele>
	<time>2025-04-29T09:07:19.000Z</time>
</trkpt>
<trkpt lat="45.9036720" lon="10.3577510">
	<ele>1423.60</ele>
	<time>2025-04-29T09:07:20.000Z</time>
</trkpt>
<trkpt lat="45.9036750" lon="10.3577530">
	<ele>1423.60</ele>
	<time>2025-04-29T09:07:21.000Z</time>
</trkpt>
<trkpt lat="45.9036750" lon="10.3577580">
	<ele>1423.80</ele>
	<time>2025-04-29T09:07:22.000Z</time>
</trkpt>
<trkpt lat="45.9036820" lon="10.3577620">
	<ele>1424.20</ele>
	<time>2025-04-29T09:07:23.000Z</time>
</trkpt>
<trkpt lat="45.9036940" lon="10.3577670">
	<ele>1424.40</ele>
	<time>2025-04-29T09:07:24.000Z</time>
</trkpt>
<trkpt lat="45.9036980" lon="10.3577720">
	<ele>1424.40</ele>
	<time>2025-04-29T09:07:25.000Z</time>
</trkpt>
<trkpt lat="45.9036990" lon="10.3577800">
	<ele>1424.60</ele>
	<time>2025-04-29T09:07:26.000Z</time>
</trkpt>
<trkpt lat="45.9037020" lon="10.3577810">
	<ele>1424.80</ele>
	<time>2025-04-29T09:07:27.000Z</time>
</trkpt>
<trkpt lat="45.9037150" lon="10.3577800">
	<ele>1425.20</ele>
	<time>2025-04-29T09:07:28.000Z</time>
</trkpt>
<trkpt lat="45.9037300" lon="10.3577800">
	<ele>1425.40</ele>
	<time>2025-04-29T09:07:29.000Z</time>
</trkpt>
<trkpt lat="45.9037360" lon="10.3577840">
	<ele>1425.60</ele>
	<time>2025-04-29T09:07:30.000Z</time>
</trkpt>
<trkpt lat="45.9037350" lon="10.3577850">
	<ele>1425.80</ele>
	<time>2025-04-29T09:07:31.000Z</time>
</trkpt>
<trkpt lat="45.9037340" lon="10.3577920">
	<ele>1426.00</ele>
	<time>2025-04-29T09:07:32.000Z</time>
</trkpt>
<trkpt lat="45.9037340" lon="10.3577950">
	<ele>1426.00</ele>
	<time>2025-04-29T09:07:33.000Z</time>
</trkpt>
<trkpt lat="45.9037350" lon="10.3577960">
	<ele>1426.20</ele>
	<time>2025-04-29T09:07:34.000Z</time>
</trkpt>
<trkpt lat="45.9037360" lon="10.3577950">
	<ele>1426.40</ele>
	<time>2025-04-29T09:07:35.000Z</time>
</trkpt>
<trkpt lat="45.9037400" lon="10.3578000">
	<ele>1426.40</ele>
	<time>2025-04-29T09:07:36.000Z</time>
</trkpt>
<trkpt lat="45.9037430" lon="10.3578090">
	<ele>1426.60</ele>
	<time>2025-04-29T09:07:37.000Z</time>
</trkpt>
<trkpt lat="45.9037500" lon="10.3578150">
	<ele>1426.80</ele>
	<time>2025-04-29T09:07:38.000Z</time>
</trkpt>
<trkpt lat="45.9037580" lon="10.3578180">
	<ele>1426.80</ele>
	<time>2025-04-29T09:07:39.000Z</time>
</trkpt>
<trkpt lat="45.9037640" lon="10.3578110">
	<ele>1427.00</ele>
	<time>2025-04-29T09:07:40.000Z</time>
</trkpt>
<trkpt lat="45.9037660" lon="10.3578090">
	<ele>1427.20</ele>
	<time>2025-04-29T09:07:41.000Z</time>
</trkpt>
<trkpt lat="45.9037630" lon="10.3578040">
	<ele>1427.40</ele>
	<time>2025-04-29T09:07:42.000Z</time>
</trkpt>
<trkpt lat="45.9037640" lon="10.3578060">
	<ele>1427.40</ele>
	<time>2025-04-29T09:07:43.000Z</time>
</trkpt>
<trkpt lat="45.9037610" lon="10.3578090">
	<ele>1427.60</ele>
	<time>2025-04-29T09:07:44.000Z</time>
</trkpt>
<trkpt lat="45.9037660" lon="10.3577960">
	<ele>1427.80</ele>
	<time>2025-04-29T09:07:45.000Z</time>
</trkpt>
<trkpt lat="45.9037790" lon="10.3577780">
	<ele>1428.00</ele>
	<time>2025-04-29T09:07:46.000Z</time>
</trkpt>
<trkpt lat="45.9037960" lon="10.3577680">
	<ele>1428.20</ele>
	<time>2025-04-29T09:07:47.000Z</time>
</trkpt>
<trkpt lat="45.9038050" lon="10.3577660">
	<ele>1428.60</ele>
	<time>2025-04-29T09:07:48.000Z</time>
</trkpt>
<trkpt lat="45.9038200" lon="10.3577600">
	<ele>1428.80</ele>
	<time>2025-04-29T09:07:49.000Z</time>
</trkpt>
<trkpt lat="45.9038250" lon="10.3577600">
	<ele>1429.00</ele>
	<time>2025-04-29T09:07:50.000Z</time>
</trkpt>
<trkpt lat="45.9038440" lon="10.3577500">
	<ele>1429.20</ele>
	<time>2025-04-29T09:07:51.000Z</time>
</trkpt>
<trkpt lat="45.9038600" lon="10.3577350">
	<ele>1429.40</ele>
	<time>2025-04-29T09:07:52.000Z</time>
</trkpt>
<trkpt lat="45.9038720" lon="10.3577190">
	<ele>1429.40</ele>
	<time>2025-04-29T09:07:53.000Z</time>
</trkpt>
<trkpt lat="45.9038830" lon="10.3577170">
	<ele>1429.60</ele>
	<time>2025-04-29T09:07:54.000Z</time>
</trkpt>
<trkpt lat="45.9038880" lon="10.3577170">
	<ele>1429.60</ele>
	<time>2025-04-29T09:07:55.000Z</time>
</trkpt>
<trkpt lat="45.9039000" lon="10.3577260">
	<ele>1430.00</ele>
	<time>2025-04-29T09:07:56.000Z</time>
</trkpt>
<trkpt lat="45.9039070" lon="10.3577380">
	<ele>1430.00</ele>
	<time>2025-04-29T09:07:57.000Z</time>
</trkpt>
<trkpt lat="45.9039120" lon="10.3577400">
	<ele>1430.20</ele>
	<time>2025-04-29T09:07:58.000Z</time>
</trkpt>
<trkpt lat="45.9039150" lon="10.3577430">
	<ele>1430.60</ele>
	<time>2025-04-29T09:07:59.000Z</time>
</trkpt>
<trkpt lat="45.9039180" lon="10.3577460">
	<ele>1430.80</ele>
	<time>2025-04-29T09:08:00.000Z</time>
</trkpt>
<trkpt lat="45.9039290" lon="10.3577380">
	<ele>1431.00</ele>
	<time>2025-04-29T09:08:01.000Z</time>
</trkpt>
<trkpt lat="45.9039340" lon="10.3577290">
	<ele>1431.20</ele>
	<time>2025-04-29T09:08:02.000Z</time>
</trkpt>
<trkpt lat="45.9039400" lon="10.3577270">
	<ele>1431.40</ele>
	<time>2025-04-29T09:08:03.000Z</time>
</trkpt>
<trkpt lat="45.9039540" lon="10.3577350">
	<ele>1431.60</ele>
	<time>2025-04-29T09:08:04.000Z</time>
</trkpt>
<trkpt lat="45.9039660" lon="10.3577450">
	<ele>1431.80</ele>
	<time>2025-04-29T09:08:05.000Z</time>
</trkpt>
<trkpt lat="45.9039770" lon="10.3577540">
	<ele>1432.00</ele>
	<time>2025-04-29T09:08:06.000Z</time>
</trkpt>
<trkpt lat="45.9039830" lon="10.3577570">
	<ele>1432.20</ele>
	<time>2025-04-29T09:08:07.000Z</time>
</trkpt>
<trkpt lat="45.9039830" lon="10.3577630">
	<ele>1432.40</ele>
	<time>2025-04-29T09:08:08.000Z</time>
</trkpt>
<trkpt lat="45.9039990" lon="10.3577550">
	<ele>1432.60</ele>
	<time>2025-04-29T09:08:09.000Z</time>
</trkpt>
<trkpt lat="45.9040060" lon="10.3577500">
	<ele>1432.60</ele>
	<time>2025-04-29T09:08:10.000Z</time>
</trkpt>
<trkpt lat="45.9040080" lon="10.3577530">
	<ele>1432.80</ele>
	<time>2025-04-29T09:08:11.000Z</time>
</trkpt>
<trkpt lat="45.9040060" lon="10.3577650">
	<ele>1433.00</ele>
	<time>2025-04-29T09:08:12.000Z</time>
</trkpt>
<trkpt lat="45.9040050" lon="10.3577740">
	<ele>1433.20</ele>
	<time>2025-04-29T09:08:13.000Z</time>
</trkpt>
<trkpt lat="45.9040090" lon="10.3577790">
	<ele>1433.40</ele>
	<time>2025-04-29T09:08:14.000Z</time>
</trkpt>
<trkpt lat="45.9040100" lon="10.3577840">
	<ele>1433.60</ele>
	<time>2025-04-29T09:08:15.000Z</time>
</trkpt>
<trkpt lat="45.9040090" lon="10.3577870">
	<ele>1433.80</ele>
	<time>2025-04-29T09:08:16.000Z</time>
</trkpt>
<trkpt lat="45.9040110" lon="10.3577910">
	<ele>1433.80</ele>
	<time>2025-04-29T09:08:17.000Z</time>
</trkpt>
<trkpt lat="45.9040150" lon="10.3577920">
	<ele>1434.00</ele>
	<time>2025-04-29T09:08:18.000Z</time>
</trkpt>
<trkpt lat="45.9040210" lon="10.3577960">
	<ele>1434.00</ele>
	<time>2025-04-29T09:08:19.000Z</time>
</trkpt>
<trkpt lat="45.9040260" lon="10.3577990">
	<ele>1434.20</ele>
	<time>2025-04-29T09:08:20.000Z</time>
</trkpt>
<trkpt lat="45.9040300" lon="10.3578080">
	<ele>1434.40</ele>
	<time>2025-04-29T09:08:21.000Z</time>
</trkpt>
<trkpt lat="45.9040300" lon="10.3578160">
	<ele>1434.40</ele>
	<time>2025-04-29T09:08:22.000Z</time>
</trkpt>
<trkpt lat="45.9040320" lon="10.3578250">
	<ele>1434.60</ele>
	<time>2025-04-29T09:08:23.000Z</time>
</trkpt>
<trkpt lat="45.9040350" lon="10.3578310">
	<ele>1434.80</ele>
	<time>2025-04-29T09:08:24.000Z</time>
</trkpt>
<trkpt lat="45.9040380" lon="10.3578370">
	<ele>1435.00</ele>
	<time>2025-04-29T09:08:25.000Z</time>
</trkpt>
<trkpt lat="45.9040410" lon="10.3578410">
	<ele>1435.20</ele>
	<time>2025-04-29T09:08:26.000Z</time>
</trkpt>
<trkpt lat="45.9040450" lon="10.3578440">
	<ele>1435.20</ele>
	<time>2025-04-29T09:08:27.000Z</time>
</trkpt>
<trkpt lat="45.9040510" lon="10.3578500">
	<ele>1435.20</ele>
	<time>2025-04-29T09:08:28.000Z</time>
</trkpt>
<trkpt lat="45.9040530" lon="10.3578600">
	<ele>1435.40</ele>
	<time>2025-04-29T09:08:29.000Z</time>
</trkpt>
<trkpt lat="45.9040540" lon="10.3578720">
	<ele>1435.60</ele>
	<time>2025-04-29T09:08:30.000Z</time>
</trkpt>
<trkpt lat="45.9040540" lon="10.3578830">
	<ele>1435.80</ele>
	<time>2025-04-29T09:08:31.000Z</time>
</trkpt>
<trkpt lat="45.9040570" lon="10.3578890">
	<ele>1436.00</ele>
	<time>2025-04-29T09:08:32.000Z</time>
</trkpt>
<trkpt lat="45.9040630" lon="10.3578940">
	<ele>1436.00</ele>
	<time>2025-04-29T09:08:33.000Z</time>
</trkpt>
<trkpt lat="45.9040700" lon="10.3578990">
	<ele>1436.20</ele>
	<time>2025-04-29T09:08:34.000Z</time>
</trkpt>
<trkpt lat="45.9040740" lon="10.3579030">
	<ele>1436.20</ele>
	<time>2025-04-29T09:08:35.000Z</time>
</trkpt>
<trkpt lat="45.9040780" lon="10.3579100">
	<ele>1436.40</ele>
	<time>2025-04-29T09:08:36.000Z</time>
</trkpt>
<trkpt lat="45.9040820" lon="10.3579150">
	<ele>1436.40</ele>
	<time>2025-04-29T09:08:37.000Z</time>
</trkpt>
<trkpt lat="45.9040850" lon="10.3579250">
	<ele>1436.60</ele>
	<time>2025-04-29T09:08:38.000Z</time>
</trkpt>
<trkpt lat="45.9040890" lon="10.3579360">
	<ele>1437.00</ele>
	<time>2025-04-29T09:08:39.000Z</time>
</trkpt>
<trkpt lat="45.9040890" lon="10.3579470">
	<ele>1437.20</ele>
	<time>2025-04-29T09:08:40.000Z</time>
</trkpt>
<trkpt lat="45.9040900" lon="10.3579570">
	<ele>1437.40</ele>
	<time>2025-04-29T09:08:41.000Z</time>
</trkpt>
<trkpt lat="45.9040890" lon="10.3579650">
	<ele>1437.60</ele>
	<time>2025-04-29T09:08:42.000Z</time>
</trkpt>
<trkpt lat="45.9040930" lon="10.3579690">
	<ele>1437.80</ele>
	<time>2025-04-29T09:08:43.000Z</time>
</trkpt>
<trkpt lat="45.9041000" lon="10.3579760">
	<ele>1438.00</ele>
	<time>2025-04-29T09:08:44.000Z</time>
</trkpt>
<trkpt lat="45.9041020" lon="10.3579800">
	<ele>1438.20</ele>
	<time>2025-04-29T09:08:45.000Z</time>
</trkpt>
<trkpt lat="45.9041070" lon="10.3579860">
	<ele>1438.40</ele>
	<time>2025-04-29T09:08:46.000Z</time>
</trkpt>
<trkpt lat="45.9041120" lon="10.3579950">
	<ele>1438.60</ele>
	<time>2025-04-29T09:08:47.000Z</time>
</trkpt>
<trkpt lat="45.9041140" lon="10.3580020">
	<ele>1438.80</ele>
	<time>2025-04-29T09:08:48.000Z</time>
</trkpt>
<trkpt lat="45.9041190" lon="10.3580100">
	<ele>1439.00</ele>
	<time>2025-04-29T09:08:49.000Z</time>
</trkpt>
<trkpt lat="45.9041250" lon="10.3580170">
	<ele>1439.20</ele>
	<time>2025-04-29T09:08:50.000Z</time>
</trkpt>
<trkpt lat="45.9041280" lon="10.3580210">
	<ele>1439.40</ele>
	<time>2025-04-29T09:08:51.000Z</time>
</trkpt>
<trkpt lat="45.9041310" lon="10.3580220">
	<ele>1439.60</ele>
	<time>2025-04-29T09:08:52.000Z</time>
</trkpt>
<trkpt lat="45.9041340" lon="10.3580260">
	<ele>1439.80</ele>
	<time>2025-04-29T09:08:53.000Z</time>
</trkpt>
<trkpt lat="45.9041380" lon="10.3580340">
	<ele>1440.00</ele>
	<time>2025-04-29T09:08:54.000Z</time>
</trkpt>
<trkpt lat="45.9041440" lon="10.3580430">
	<ele>1440.00</ele>
	<time>2025-04-29T09:08:55.000Z</time>
</trkpt>
<trkpt lat="45.9041490" lon="10.3580540">
	<ele>1440.20</ele>
	<time>2025-04-29T09:08:56.000Z</time>
</trkpt>
<trkpt lat="45.9041530" lon="10.3580640">
	<ele>1440.40</ele>
	<time>2025-04-29T09:08:57.000Z</time>
</trkpt>
<trkpt lat="45.9041560" lon="10.3580710">
	<ele>1440.60</ele>
	<time>2025-04-29T09:08:58.000Z</time>
</trkpt>
<trkpt lat="45.9041540" lon="10.3580810">
	<ele>1440.80</ele>
	<time>2025-04-29T09:08:59.000Z</time>
</trkpt>
<trkpt lat="45.9041560" lon="10.3580920">
	<ele>1441.00</ele>
	<time>2025-04-29T09:09:00.000Z</time>
</trkpt>
<trkpt lat="45.9041590" lon="10.3581000">
	<ele>1441.00</ele>
	<time>2025-04-29T09:09:01.000Z</time>
</trkpt>
<trkpt lat="45.9041650" lon="10.3581040">
	<ele>1441.40</ele>
	<time>2025-04-29T09:09:02.000Z</time>
</trkpt>
<trkpt lat="45.9041720" lon="10.3581060">
	<ele>1441.60</ele>
	<time>2025-04-29T09:09:03.000Z</time>
</trkpt>
<trkpt lat="45.9041780" lon="10.3581120">
	<ele>1441.80</ele>
	<time>2025-04-29T09:09:04.000Z</time>
</trkpt>
<trkpt lat="45.9041840" lon="10.3581140">
	<ele>1441.80</ele>
	<time>2025-04-29T09:09:05.000Z</time>
</trkpt>
<trkpt lat="45.9041900" lon="10.3581180">
	<ele>1442.00</ele>
	<time>2025-04-29T09:09:06.000Z</time>
</trkpt>
<trkpt lat="45.9041920" lon="10.3581240">
	<ele>1442.00</ele>
	<time>2025-04-29T09:09:07.000Z</time>
</trkpt>
<trkpt lat="45.9041890" lon="10.3581260">
	<ele>1442.20</ele>
	<time>2025-04-29T09:09:08.000Z</time>
</trkpt>
<trkpt lat="45.9041900" lon="10.3581320">
	<ele>1442.40</ele>
	<time>2025-04-29T09:09:09.000Z</time>
</trkpt>
<trkpt lat="45.9041940" lon="10.3581390">
	<ele>1442.60</ele>
	<time>2025-04-29T09:09:10.000Z</time>
</trkpt>
<trkpt lat="45.9041960" lon="10.3581500">
	<ele>1442.80</ele>
	<time>2025-04-29T09:09:11.000Z</time>
</trkpt>
<trkpt lat="45.9041980" lon="10.3581630">
	<ele>1442.80</ele>
	<time>2025-04-29T09:09:12.000Z</time>
</trkpt>
<trkpt lat="45.9042000" lon="10.3581660">
	<ele>1443.20</ele>
	<time>2025-04-29T09:09:13.000Z</time>
</trkpt>
<trkpt lat="45.9042000" lon="10.3581770">
	<ele>1443.40</ele>
	<time>2025-04-29T09:09:14.000Z</time>
</trkpt>
<trkpt lat="45.9041990" lon="10.3581870">
	<ele>1443.60</ele>
	<time>2025-04-29T09:09:15.000Z</time>
</trkpt>
<trkpt lat="45.9042040" lon="10.3581950">
	<ele>1443.60</ele>
	<time>2025-04-29T09:09:16.000Z</time>
</trkpt>
<trkpt lat="45.9042090" lon="10.3582050">
	<ele>1443.80</ele>
	<time>2025-04-29T09:09:17.000Z</time>
</trkpt>
<trkpt lat="45.9042130" lon="10.3582140">
	<ele>1444.00</ele>
	<time>2025-04-29T09:09:18.000Z</time>
</trkpt>
<trkpt lat="45.9042180" lon="10.3582240">
	<ele>1444.20</ele>
	<time>2025-04-29T09:09:19.000Z</time>
</trkpt>
<trkpt lat="45.9042200" lon="10.3582350">
	<ele>1444.40</ele>
	<time>2025-04-29T09:09:20.000Z</time>
</trkpt>
<trkpt lat="45.9042230" lon="10.3582420">
	<ele>1444.40</ele>
	<time>2025-04-29T09:09:21.000Z</time>
</trkpt>
<trkpt lat="45.9042260" lon="10.3582480">
	<ele>1444.80</ele>
	<time>2025-04-29T09:09:22.000Z</time>
</trkpt>
<trkpt lat="45.9042310" lon="10.3582530">
	<ele>1445.00</ele>
	<time>2025-04-29T09:09:23.000Z</time>
</trkpt>
<trkpt lat="45.9042330" lon="10.3582640">
	<ele>1445.20</ele>
	<time>2025-04-29T09:09:24.000Z</time>
</trkpt>
<trkpt lat="45.9042350" lon="10.3582770">
	<ele>1445.40</ele>
	<time>2025-04-29T09:09:25.000Z</time>
</trkpt>
<trkpt lat="45.9042370" lon="10.3582890">
	<ele>1445.60</ele>
	<time>2025-04-29T09:09:26.000Z</time>
</trkpt>
<trkpt lat="45.9042400" lon="10.3582990">
	<ele>1445.60</ele>
	<time>2025-04-29T09:09:27.000Z</time>
</trkpt>
<trkpt lat="45.9042430" lon="10.3583080">
	<ele>1445.80</ele>
	<time>2025-04-29T09:09:28.000Z</time>
</trkpt>
<trkpt lat="45.9042470" lon="10.3583140">
	<ele>1446.00</ele>
	<time>2025-04-29T09:09:29.000Z</time>
</trkpt>
<trkpt lat="45.9042530" lon="10.3583210">
	<ele>1446.20</ele>
	<time>2025-04-29T09:09:30.000Z</time>
</trkpt>
<trkpt lat="45.9042590" lon="10.3583280">
	<ele>1446.40</ele>
	<time>2025-04-29T09:09:31.000Z</time>
</trkpt>
<trkpt lat="45.9042630" lon="10.3583370">
	<ele>1446.40</ele>
	<time>2025-04-29T09:09:32.000Z</time>
</trkpt>
<trkpt lat="45.9042640" lon="10.3583440">
	<ele>1446.60</ele>
	<time>2025-04-29T09:09:33.000Z</time>
</trkpt>
<trkpt lat="45.9042650" lon="10.3583510">
	<ele>1446.80</ele>
	<time>2025-04-29T09:09:34.000Z</time>
</trkpt>
<trkpt lat="45.9042650" lon="10.3583630">
	<ele>1446.80</ele>
	<time>2025-04-29T09:09:35.000Z</time>
</trkpt>
<trkpt lat="45.9042590" lon="10.3583800">
	<ele>1447.00</ele>
	<time>2025-04-29T09:09:36.000Z</time>
</trkpt>
<trkpt lat="45.9042560" lon="10.3583990">
	<ele>1447.20</ele>
	<time>2025-04-29T09:09:37.000Z</time>
</trkpt>
<trkpt lat="45.9042520" lon="10.3584170">
	<ele>1447.20</ele>
	<time>2025-04-29T09:09:38.000Z</time>
</trkpt>
<trkpt lat="45.9042510" lon="10.3584360">
	<ele>1447.40</ele>
	<time>2025-04-29T09:09:39.000Z</time>
</trkpt>
<trkpt lat="45.9042590" lon="10.3584400">
	<ele>1447.60</ele>
	<time>2025-04-29T09:09:40.000Z</time>
</trkpt>
<trkpt lat="45.9042640" lon="10.3584490">
	<ele>1447.80</ele>
	<time>2025-04-29T09:09:41.000Z</time>
</trkpt>
<trkpt lat="45.9042720" lon="10.3584540">
	<ele>1448.00</ele>
	<time>2025-04-29T09:09:42.000Z</time>
</trkpt>
<trkpt lat="45.9042760" lon="10.3584660">
	<ele>1448.20</ele>
	<time>2025-04-29T09:09:43.000Z</time>
</trkpt>
<trkpt lat="45.9042700" lon="10.3584890">
	<ele>1448.20</ele>
	<time>2025-04-29T09:09:44.000Z</time>
</trkpt>
<trkpt lat="45.9042730" lon="10.3585010">
	<ele>1448.40</ele>
	<time>2025-04-29T09:09:45.000Z</time>
</trkpt>
<trkpt lat="45.9042780" lon="10.3585170">
	<ele>1448.40</ele>
	<time>2025-04-29T09:09:46.000Z</time>
</trkpt>
<trkpt lat="45.9042910" lon="10.3585300">
	<ele>1448.60</ele>
	<time>2025-04-29T09:09:47.000Z</time>
</trkpt>
<trkpt lat="45.9043020" lon="10.3585420">
	<ele>1448.60</ele>
	<time>2025-04-29T09:09:48.000Z</time>
</trkpt>
<trkpt lat="45.9043130" lon="10.3585480">
	<ele>1448.80</ele>
	<time>2025-04-29T09:09:49.000Z</time>
</trkpt>
<trkpt lat="45.9043250" lon="10.3585470">
	<ele>1449.00</ele>
	<time>2025-04-29T09:09:50.000Z</time>
</trkpt>
<trkpt lat="45.9043350" lon="10.3585440">
	<ele>1449.40</ele>
	<time>2025-04-29T09:09:51.000Z</time>
</trkpt>
<trkpt lat="45.9043500" lon="10.3585470">
	<ele>1449.40</ele>
	<time>2025-04-29T09:09:52.000Z</time>
</trkpt>
<trkpt lat="45.9043570" lon="10.3585530">
	<ele>1449.60</ele>
	<time>2025-04-29T09:09:53.000Z</time>
</trkpt>
<trkpt lat="45.9043620" lon="10.3585620">
	<ele>1449.80</ele>
	<time>2025-04-29T09:09:54.000Z</time>
</trkpt>
<trkpt lat="45.9043680" lon="10.3585730">
	<ele>1450.00</ele>
	<time>2025-04-29T09:09:55.000Z</time>
</trkpt>
<trkpt lat="45.9043700" lon="10.3585800">
	<ele>1450.20</ele>
	<time>2025-04-29T09:09:56.000Z</time>
</trkpt>
<trkpt lat="45.9043700" lon="10.3585910">
	<ele>1450.40</ele>
	<time>2025-04-29T09:09:57.000Z</time>
</trkpt>
<trkpt lat="45.9043710" lon="10.3586020">
	<ele>1450.60</ele>
	<time>2025-04-29T09:09:58.000Z</time>
</trkpt>
<trkpt lat="45.9043740" lon="10.3586090">
	<ele>1450.80</ele>
	<time>2025-04-29T09:09:59.000Z</time>
</trkpt>
<trkpt lat="45.9043750" lon="10.3586140">
	<ele>1450.80</ele>
	<time>2025-04-29T09:10:00.000Z</time>
</trkpt>
<trkpt lat="45.9043770" lon="10.3586230">
	<ele>1450.80</ele>
	<time>2025-04-29T09:10:01.000Z</time>
</trkpt>
<trkpt lat="45.9043800" lon="10.3586310">
	<ele>1451.00</ele>
	<time>2025-04-29T09:10:02.000Z</time>
</trkpt>
<trkpt lat="45.9043810" lon="10.3586400">
	<ele>1451.00</ele>
	<time>2025-04-29T09:10:03.000Z</time>
</trkpt>
<trkpt lat="45.9043810" lon="10.3586440">
	<ele>1451.20</ele>
	<time>2025-04-29T09:10:04.000Z</time>
</trkpt>
<trkpt lat="45.9043820" lon="10.3586580">
	<ele>1451.40</ele>
	<time>2025-04-29T09:10:05.000Z</time>
</trkpt>
<trkpt lat="45.9043820" lon="10.3586690">
	<ele>1451.60</ele>
	<time>2025-04-29T09:10:06.000Z</time>
</trkpt>
<trkpt lat="45.9043850" lon="10.3586830">
	<ele>1451.80</ele>
	<time>2025-04-29T09:10:07.000Z</time>
</trkpt>
<trkpt lat="45.9043890" lon="10.3586980">
	<ele>1452.00</ele>
	<time>2025-04-29T09:10:08.000Z</time>
</trkpt>
<trkpt lat="45.9043920" lon="10.3587130">
	<ele>1452.20</ele>
	<time>2025-04-29T09:10:09.000Z</time>
</trkpt>
<trkpt lat="45.9043910" lon="10.3587220">
	<ele>1452.40</ele>
	<time>2025-04-29T09:10:10.000Z</time>
</trkpt>
<trkpt lat="45.9043920" lon="10.3587380">
	<ele>1452.60</ele>
	<time>2025-04-29T09:10:11.000Z</time>
</trkpt>
<trkpt lat="45.9043890" lon="10.3587500">
	<ele>1452.80</ele>
	<time>2025-04-29T09:10:12.000Z</time>
</trkpt>
<trkpt lat="45.9043900" lon="10.3587630">
	<ele>1453.00</ele>
	<time>2025-04-29T09:10:13.000Z</time>
</trkpt>
<trkpt lat="45.9043890" lon="10.3587770">
	<ele>1453.20</ele>
	<time>2025-04-29T09:10:14.000Z</time>
</trkpt>
<trkpt lat="45.9043880" lon="10.3587910">
	<ele>1453.40</ele>
	<time>2025-04-29T09:10:15.000Z</time>
</trkpt>
<trkpt lat="45.9043900" lon="10.3588040">
	<ele>1453.40</ele>
	<time>2025-04-29T09:10:16.000Z</time>
</trkpt>
<trkpt lat="45.9043940" lon="10.3588150">
	<ele>1453.60</ele>
	<time>2025-04-29T09:10:17.000Z</time>
</trkpt>
<trkpt lat="45.9043980" lon="10.3588280">
	<ele>1454.00</ele>
	<time>2025-04-29T09:10:18.000Z</time>
</trkpt>
<trkpt lat="45.9044120" lon="10.3588390">
	<ele>1454.20</ele>
	<time>2025-04-29T09:10:19.000Z</time>
</trkpt>
<trkpt lat="45.9044180" lon="10.3588610">
	<ele>1454.20</ele>
	<time>2025-04-29T09:10:20.000Z</time>
</trkpt>
<trkpt lat="45.9044200" lon="10.3588790">
	<ele>1454.40</ele>
	<time>2025-04-29T09:10:21.000Z</time>
</trkpt>
<trkpt lat="45.9044260" lon="10.3588950">
	<ele>1454.40</ele>
	<time>2025-04-29T09:10:22.000Z</time>
</trkpt>
<trkpt lat="45.9044390" lon="10.3589030">
	<ele>1454.40</ele>
	<time>2025-04-29T09:10:23.000Z</time>
</trkpt>
<trkpt lat="45.9044430" lon="10.3589150">
	<ele>1454.20</ele>
	<time>2025-04-29T09:10:24.000Z</time>
</trkpt>
<trkpt lat="45.9044500" lon="10.3589220">
	<ele>1454.20</ele>
	<time>2025-04-29T09:10:25.000Z</time>
</trkpt>
<trkpt lat="45.9044540" lon="10.3589290">
	<ele>1454.20</ele>
	<time>2025-04-29T09:10:26.000Z</time>
</trkpt>
<trkpt lat="45.9044590" lon="10.3589360">
	<ele>1454.20</ele>
	<time>2025-04-29T09:10:27.000Z</time>
</trkpt>
<trkpt lat="45.9044670" lon="10.3589420">
	<ele>1454.20</ele>
	<time>2025-04-29T09:10:28.000Z</time>
</trkpt>
<trkpt lat="45.9044750" lon="10.3589470">
	<ele>1454.20</ele>
	<time>2025-04-29T09:10:29.000Z</time>
</trkpt>
<trkpt lat="45.9044780" lon="10.3589490">
	<ele>1454.20</ele>
	<time>2025-04-29T09:10:30.000Z</time>
</trkpt>
<trkpt lat="45.9044780" lon="10.3589510">
	<ele>1454.20</ele>
	<time>2025-04-29T09:10:31.000Z</time>
</trkpt>
<trkpt lat="45.9044810" lon="10.3589580">
	<ele>1454.40</ele>
	<time>2025-04-29T09:10:32.000Z</time>
</trkpt>
<trkpt lat="45.9044890" lon="10.3589670">
	<ele>1454.40</ele>
	<time>2025-04-29T09:10:33.000Z</time>
</trkpt>
<trkpt lat="45.9044980" lon="10.3589790">
	<ele>1454.60</ele>
	<time>2025-04-29T09:10:34.000Z</time>
</trkpt>
<trkpt lat="45.9045050" lon="10.3589940">
	<ele>1454.80</ele>
	<time>2025-04-29T09:10:35.000Z</time>
</trkpt>
<trkpt lat="45.9045090" lon="10.3590110">
	<ele>1454.80</ele>
	<time>2025-04-29T09:10:36.000Z</time>
</trkpt>
<trkpt lat="45.9045140" lon="10.3590260">
	<ele>1454.80</ele>
	<time>2025-04-29T09:10:37.000Z</time>
</trkpt>
<trkpt lat="45.9045210" lon="10.3590400">
	<ele>1455.00</ele>
	<time>2025-04-29T09:10:38.000Z</time>
</trkpt>
<trkpt lat="45.9045270" lon="10.3590520">
	<ele>1455.00</ele>
	<time>2025-04-29T09:10:39.000Z</time>
</trkpt>
<trkpt lat="45.9045330" lon="10.3590670">
	<ele>1455.20</ele>
	<time>2025-04-29T09:10:40.000Z</time>
</trkpt>
<trkpt lat="45.9045370" lon="10.3590810">
	<ele>1455.40</ele>
	<time>2025-04-29T09:10:41.000Z</time>
</trkpt>
<trkpt lat="45.9045420" lon="10.3590950">
	<ele>1455.40</ele>
	<time>2025-04-29T09:10:42.000Z</time>
</trkpt>
<trkpt lat="45.9045470" lon="10.3591070">
	<ele>1455.60</ele>
	<time>2025-04-29T09:10:43.000Z</time>
</trkpt>
<trkpt lat="45.9045510" lon="10.3591190">
	<ele>1455.60</ele>
	<time>2025-04-29T09:10:44.000Z</time>
</trkpt>
<trkpt lat="45.9045620" lon="10.3591320">
	<ele>1455.60</ele>
	<time>2025-04-29T09:10:45.000Z</time>
</trkpt>
<trkpt lat="45.9045720" lon="10.3591390">
	<ele>1455.60</ele>
	<time>2025-04-29T09:10:46.000Z</time>
</trkpt>
<trkpt lat="45.9045830" lon="10.3591480">
	<ele>1455.80</ele>
	<time>2025-04-29T09:10:47.000Z</time>
</trkpt>
<trkpt lat="45.9045930" lon="10.3591440">
	<ele>1455.80</ele>
	<time>2025-04-29T09:10:48.000Z</time>
</trkpt>
<trkpt lat="45.9045970" lon="10.3591540">
	<ele>1455.80</ele>
	<time>2025-04-29T09:10:49.000Z</time>
</trkpt>
<trkpt lat="45.9045980" lon="10.3591670">
	<ele>1456.20</ele>
	<time>2025-04-29T09:10:50.000Z</time>
</trkpt>
<trkpt lat="45.9046060" lon="10.3591740">
	<ele>1456.40</ele>
	<time>2025-04-29T09:10:51.000Z</time>
</trkpt>
<trkpt lat="45.9046120" lon="10.3591850">
	<ele>1456.40</ele>
	<time>2025-04-29T09:10:52.000Z</time>
</trkpt>
<trkpt lat="45.9046220" lon="10.3591880">
	<ele>1456.60</ele>
	<time>2025-04-29T09:10:53.000Z</time>
</trkpt>
<trkpt lat="45.9046300" lon="10.3591970">
	<ele>1456.80</ele>
	<time>2025-04-29T09:10:54.000Z</time>
</trkpt>
<trkpt lat="45.9046430" lon="10.3592020">
	<ele>1456.80</ele>
	<time>2025-04-29T09:10:55.000Z</time>
</trkpt>
<trkpt lat="45.9046500" lon="10.3592010">
	<ele>1457.00</ele>
	<time>2025-04-29T09:10:56.000Z</time>
</trkpt>
<trkpt lat="45.9046550" lon="10.3592030">
	<ele>1457.20</ele>
	<time>2025-04-29T09:10:57.000Z</time>
</trkpt>
<trkpt lat="45.9046560" lon="10.3592090">
	<ele>1457.20</ele>
	<time>2025-04-29T09:10:58.000Z</time>
</trkpt>
<trkpt lat="45.9046620" lon="10.3592210">
	<ele>1457.40</ele>
	<time>2025-04-29T09:10:59.000Z</time>
</trkpt>
<trkpt lat="45.9046680" lon="10.3592330">
	<ele>1457.40</ele>
	<time>2025-04-29T09:11:00.000Z</time>
</trkpt>
<trkpt lat="45.9046750" lon="10.3592470">
	<ele>1457.80</ele>
	<time>2025-04-29T09:11:01.000Z</time>
</trkpt>
<trkpt lat="45.9046810" lon="10.3592590">
	<ele>1457.80</ele>
	<time>2025-04-29T09:11:02.000Z</time>
</trkpt>
<trkpt lat="45.9046870" lon="10.3592700">
	<ele>1458.00</ele>
	<time>2025-04-29T09:11:03.000Z</time>
</trkpt>
<trkpt lat="45.9046940" lon="10.3592830">
	<ele>1458.20</ele>
	<time>2025-04-29T09:11:04.000Z</time>
</trkpt>
<trkpt lat="45.9046990" lon="10.3592980">
	<ele>1458.40</ele>
	<time>2025-04-29T09:11:05.000Z</time>
</trkpt>
<trkpt lat="45.9047010" lon="10.3593050">
	<ele>1458.80</ele>
	<time>2025-04-29T09:11:06.000Z</time>
</trkpt>
<trkpt lat="45.9047030" lon="10.3593170">
	<ele>1459.00</ele>
	<time>2025-04-29T09:11:07.000Z</time>
</trkpt>
<trkpt lat="45.9047040" lon="10.3593300">
	<ele>1459.20</ele>
	<time>2025-04-29T09:11:08.000Z</time>
</trkpt>
<trkpt lat="45.9047060" lon="10.3593500">
	<ele>1459.40</ele>
	<time>2025-04-29T09:11:09.000Z</time>
</trkpt>
<trkpt lat="45.9047080" lon="10.3593640">
	<ele>1459.60</ele>
	<time>2025-04-29T09:11:10.000Z</time>
</trkpt>
<trkpt lat="45.9047110" lon="10.3593800">
	<ele>1459.80</ele>
	<time>2025-04-29T09:11:11.000Z</time>
</trkpt>
<trkpt lat="45.9047160" lon="10.3593970">
	<ele>1460.00</ele>
	<time>2025-04-29T09:11:12.000Z</time>
</trkpt>
<trkpt lat="45.9047230" lon="10.3594040">
	<ele>1460.20</ele>
	<time>2025-04-29T09:11:13.000Z</time>
</trkpt>
<trkpt lat="45.9047320" lon="10.3594040">
	<ele>1460.20</ele>
	<time>2025-04-29T09:11:14.000Z</time>
</trkpt>
<trkpt lat="45.9047420" lon="10.3594090">
	<ele>1460.40</ele>
	<time>2025-04-29T09:11:15.000Z</time>
</trkpt>
<trkpt lat="45.9047470" lon="10.3594270">
	<ele>1460.60</ele>
	<time>2025-04-29T09:11:16.000Z</time>
</trkpt>
<trkpt lat="45.9047480" lon="10.3594420">
	<ele>1460.80</ele>
	<time>2025-04-29T09:11:17.000Z</time>
</trkpt>
<trkpt lat="45.9047500" lon="10.3594560">
	<ele>1461.20</ele>
	<time>2025-04-29T09:11:18.000Z</time>
</trkpt>
<trkpt lat="45.9047560" lon="10.3594710">
	<ele>1461.20</ele>
	<time>2025-04-29T09:11:19.000Z</time>
</trkpt>
<trkpt lat="45.9047590" lon="10.3594850">
	<ele>1461.60</ele>
	<time>2025-04-29T09:11:20.000Z</time>
</trkpt>
<trkpt lat="45.9047630" lon="10.3594990">
	<ele>1461.80</ele>
	<time>2025-04-29T09:11:21.000Z</time>
</trkpt>
<trkpt lat="45.9047700" lon="10.3595120">
	<ele>1461.80</ele>
	<time>2025-04-29T09:11:22.000Z</time>
</trkpt>
<trkpt lat="45.9047740" lon="10.3595230">
	<ele>1462.00</ele>
	<time>2025-04-29T09:11:23.000Z</time>
</trkpt>
<trkpt lat="45.9047840" lon="10.3595310">
	<ele>1462.00</ele>
	<time>2025-04-29T09:11:24.000Z</time>
</trkpt>
<trkpt lat="45.9047900" lon="10.3595390">
	<ele>1462.20</ele>
	<time>2025-04-29T09:11:25.000Z</time>
</trkpt>
<trkpt lat="45.9047990" lon="10.3595500">
	<ele>1462.40</ele>
	<time>2025-04-29T09:11:26.000Z</time>
</trkpt>
<trkpt lat="45.9048060" lon="10.3595650">
	<ele>1462.40</ele>
	<time>2025-04-29T09:11:27.000Z</time>
</trkpt>
<trkpt lat="45.9048080" lon="10.3595780">
	<ele>1462.60</ele>
	<time>2025-04-29T09:11:28.000Z</time>
</trkpt>
<trkpt lat="45.9048110" lon="10.3595890">
	<ele>1462.80</ele>
	<time>2025-04-29T09:11:29.000Z</time>
</trkpt>
<trkpt lat="45.9048150" lon="10.3596000">
	<ele>1463.00</ele>
	<time>2025-04-29T09:11:30.000Z</time>
</trkpt>
<trkpt lat="45.9048170" lon="10.3596150">
	<ele>1463.20</ele>
	<time>2025-04-29T09:11:31.000Z</time>
</trkpt>
<trkpt lat="45.9048210" lon="10.3596280">
	<ele>1463.40</ele>
	<time>2025-04-29T09:11:32.000Z</time>
</trkpt>
<trkpt lat="45.9048260" lon="10.3596410">
	<ele>1463.60</ele>
	<time>2025-04-29T09:11:33.000Z</time>
</trkpt>
<trkpt lat="45.9048290" lon="10.3596560">
	<ele>1463.80</ele>
	<time>2025-04-29T09:11:34.000Z</time>
</trkpt>
<trkpt lat="45.9048340" lon="10.3596790">
	<ele>1463.80</ele>
	<time>2025-04-29T09:11:35.000Z</time>
</trkpt>
<trkpt lat="45.9048360" lon="10.3596940">
	<ele>1464.00</ele>
	<time>2025-04-29T09:11:36.000Z</time>
</trkpt>
<trkpt lat="45.9048460" lon="10.3597040">
	<ele>1464.00</ele>
	<time>2025-04-29T09:11:37.000Z</time>
</trkpt>
<trkpt lat="45.9048570" lon="10.3597140">
	<ele>1464.00</ele>
	<time>2025-04-29T09:11:38.000Z</time>
</trkpt>
<trkpt lat="45.9048680" lon="10.3597250">
	<ele>1464.20</ele>
	<time>2025-04-29T09:11:39.000Z</time>
</trkpt>
<trkpt lat="45.9048780" lon="10.3597380">
	<ele>1464.40</ele>
	<time>2025-04-29T09:11:40.000Z</time>
</trkpt>
<trkpt lat="45.9048840" lon="10.3597530">
	<ele>1464.40</ele>
	<time>2025-04-29T09:11:41.000Z</time>
</trkpt>
<trkpt lat="45.9048960" lon="10.3597680">
	<ele>1464.40</ele>
	<time>2025-04-29T09:11:42.000Z</time>
</trkpt>
<trkpt lat="45.9049000" lon="10.3597790">
	<ele>1464.80</ele>
	<time>2025-04-29T09:11:43.000Z</time>
</trkpt>
<trkpt lat="45.9049040" lon="10.3597900">
	<ele>1465.00</ele>
	<time>2025-04-29T09:11:44.000Z</time>
</trkpt>
<trkpt lat="45.9049080" lon="10.3597990">
	<ele>1465.20</ele>
	<time>2025-04-29T09:11:45.000Z</time>
</trkpt>
<trkpt lat="45.9049140" lon="10.3598080">
	<ele>1465.40</ele>
	<time>2025-04-29T09:11:46.000Z</time>
</trkpt>
<trkpt lat="45.9049220" lon="10.3598230">
	<ele>1465.40</ele>
	<time>2025-04-29T09:11:47.000Z</time>
</trkpt>
<trkpt lat="45.9049270" lon="10.3598320">
	<ele>1465.60</ele>
	<time>2025-04-29T09:11:48.000Z</time>
</trkpt>
<trkpt lat="45.9049360" lon="10.3598440">
	<ele>1465.60</ele>
	<time>2025-04-29T09:11:49.000Z</time>
</trkpt>
<trkpt lat="45.9049420" lon="10.3598530">
	<ele>1465.80</ele>
	<time>2025-04-29T09:11:50.000Z</time>
</trkpt>
<trkpt lat="45.9049500" lon="10.3598620">
	<ele>1466.00</ele>
	<time>2025-04-29T09:11:51.000Z</time>
</trkpt>
<trkpt lat="45.9049600" lon="10.3598740">
	<ele>1466.20</ele>
	<time>2025-04-29T09:11:52.000Z</time>
</trkpt>
<trkpt lat="45.9049740" lon="10.3598790">
	<ele>1466.20</ele>
	<time>2025-04-29T09:11:53.000Z</time>
</trkpt>
<trkpt lat="45.9049820" lon="10.3598820">
	<ele>1466.40</ele>
	<time>2025-04-29T09:11:54.000Z</time>
</trkpt>
<trkpt lat="45.9049920" lon="10.3598910">
	<ele>1466.60</ele>
	<time>2025-04-29T09:11:55.000Z</time>
</trkpt>
<trkpt lat="45.9050010" lon="10.3598980">
	<ele>1466.80</ele>
	<time>2025-04-29T09:11:56.000Z</time>
</trkpt>
<trkpt lat="45.9050110" lon="10.3599070">
	<ele>1467.00</ele>
	<time>2025-04-29T09:11:57.000Z</time>
</trkpt>
<trkpt lat="45.9050220" lon="10.3599240">
	<ele>1467.00</ele>
	<time>2025-04-29T09:11:58.000Z</time>
</trkpt>
<trkpt lat="45.9050330" lon="10.3599350">
	<ele>1467.20</ele>
	<time>2025-04-29T09:11:59.000Z</time>
</trkpt>
<trkpt lat="45.9050430" lon="10.3599480">
	<ele>1467.20</ele>
	<time>2025-04-29T09:12:00.000Z</time>
</trkpt>
<trkpt lat="45.9050510" lon="10.3599560">
	<ele>1467.20</ele>
	<time>2025-04-29T09:12:01.000Z</time>
</trkpt>
<trkpt lat="45.9050610" lon="10.3599590">
	<ele>1467.40</ele>
	<time>2025-04-29T09:12:02.000Z</time>
</trkpt>
<trkpt lat="45.9050660" lon="10.3599620">
	<ele>1467.40</ele>
	<time>2025-04-29T09:12:03.000Z</time>
</trkpt>
<trkpt lat="45.9050690" lon="10.3599750">
	<ele>1467.40</ele>
	<time>2025-04-29T09:12:04.000Z</time>
</trkpt>
<trkpt lat="45.9050760" lon="10.3599860">
	<ele>1467.60</ele>
	<time>2025-04-29T09:12:05.000Z</time>
</trkpt>
<trkpt lat="45.9050950" lon="10.3599950">
	<ele>1467.80</ele>
	<time>2025-04-29T09:12:06.000Z</time>
</trkpt>
<trkpt lat="45.9050990" lon="10.3600100">
	<ele>1467.80</ele>
	<time>2025-04-29T09:12:07.000Z</time>
</trkpt>
<trkpt lat="45.9050970" lon="10.3600240">
	<ele>1468.00</ele>
	<time>2025-04-29T09:12:08.000Z</time>
</trkpt>
<trkpt lat="45.9051030" lon="10.3600460">
	<ele>1468.00</ele>
	<time>2025-04-29T09:12:09.000Z</time>
</trkpt>
<trkpt lat="45.9051110" lon="10.3600550">
	<ele>1468.00</ele>
	<time>2025-04-29T09:12:10.000Z</time>
</trkpt>
<trkpt lat="45.9051140" lon="10.3600700">
	<ele>1468.20</ele>
	<time>2025-04-29T09:12:11.000Z</time>
</trkpt>
<trkpt lat="45.9051160" lon="10.3600890">
	<ele>1468.20</ele>
	<time>2025-04-29T09:12:12.000Z</time>
</trkpt>
<trkpt lat="45.9051240" lon="10.3601040">
	<ele>1468.40</ele>
	<time>2025-04-29T09:12:13.000Z</time>
</trkpt>
<trkpt lat="45.9051310" lon="10.3601180">
	<ele>1468.60</ele>
	<time>2025-04-29T09:12:14.000Z</time>
</trkpt>
<trkpt lat="45.9051420" lon="10.3601280">
	<ele>1468.80</ele>
	<time>2025-04-29T09:12:15.000Z</time>
</trkpt>
<trkpt lat="45.9051530" lon="10.3601370">
	<ele>1468.80</ele>
	<time>2025-04-29T09:12:16.000Z</time>
</trkpt>
<trkpt lat="45.9051590" lon="10.3601510">
	<ele>1469.00</ele>
	<time>2025-04-29T09:12:17.000Z</time>
</trkpt>
<trkpt lat="45.9051680" lon="10.3601630">
	<ele>1468.80</ele>
	<time>2025-04-29T09:12:18.000Z</time>
</trkpt>
<trkpt lat="45.9051710" lon="10.3601780">
	<ele>1468.60</ele>
	<time>2025-04-29T09:12:19.000Z</time>
</trkpt>
<trkpt lat="45.9051770" lon="10.3601910">
	<ele>1468.60</ele>
	<time>2025-04-29T09:12:20.000Z</time>
</trkpt>
<trkpt lat="45.9051830" lon="10.3602120">
	<ele>1468.60</ele>
	<time>2025-04-29T09:12:21.000Z</time>
</trkpt>
<trkpt lat="45.9051840" lon="10.3602380">
	<ele>1468.60</ele>
	<time>2025-04-29T09:12:22.000Z</time>
</trkpt>
<trkpt lat="45.9051840" lon="10.3602630">
	<ele>1468.80</ele>
	<time>2025-04-29T09:12:23.000Z</time>
</trkpt>
<trkpt lat="45.9051890" lon="10.3602780">
	<ele>1469.00</ele>
	<time>2025-04-29T09:12:24.000Z</time>
</trkpt>
<trkpt lat="45.9051900" lon="10.3602900">
	<ele>1469.00</ele>
	<time>2025-04-29T09:12:25.000Z</time>
</trkpt>
<trkpt lat="45.9051900" lon="10.3603050">
	<ele>1469.00</ele>
	<time>2025-04-29T09:12:26.000Z</time>
</trkpt>
<trkpt lat="45.9051880" lon="10.3603340">
	<ele>1469.20</ele>
	<time>2025-04-29T09:12:27.000Z</time>
</trkpt>
<trkpt lat="45.9051920" lon="10.3603500">
	<ele>1469.20</ele>
	<time>2025-04-29T09:12:28.000Z</time>
</trkpt>
<trkpt lat="45.9052150" lon="10.3603470">
	<ele>1469.40</ele>
	<time>2025-04-29T09:12:29.000Z</time>
</trkpt>
<trkpt lat="45.9052260" lon="10.3603590">
	<ele>1469.40</ele>
	<time>2025-04-29T09:12:30.000Z</time>
</trkpt>
<trkpt lat="45.9052300" lon="10.3603670">
	<ele>1469.60</ele>
	<time>2025-04-29T09:12:31.000Z</time>
</trkpt>
<trkpt lat="45.9052420" lon="10.3603690">
	<ele>1469.80</ele>
	<time>2025-04-29T09:12:32.000Z</time>
</trkpt>
<trkpt lat="45.9052510" lon="10.3603790">
	<ele>1470.00</ele>
	<time>2025-04-29T09:12:33.000Z</time>
</trkpt>
<trkpt lat="45.9052620" lon="10.3603840">
	<ele>1470.20</ele>
	<time>2025-04-29T09:12:34.000Z</time>
</trkpt>
<trkpt lat="45.9052620" lon="10.3604030">
	<ele>1470.40</ele>
	<time>2025-04-29T09:12:35.000Z</time>
</trkpt>
<trkpt lat="45.9052620" lon="10.3604150">
	<ele>1470.40</ele>
	<time>2025-04-29T09:12:36.000Z</time>
</trkpt>
<trkpt lat="45.9052610" lon="10.3604220">
	<ele>1470.60</ele>
	<time>2025-04-29T09:12:37.000Z</time>
</trkpt>
<trkpt lat="45.9052620" lon="10.3604250">
	<ele>1470.80</ele>
	<time>2025-04-29T09:12:38.000Z</time>
</trkpt>
<trkpt lat="45.9052690" lon="10.3604120">
	<ele>1471.00</ele>
	<time>2025-04-29T09:12:39.000Z</time>
</trkpt>
<trkpt lat="45.9052660" lon="10.3604130">
	<ele>1471.20</ele>
	<time>2025-04-29T09:12:40.000Z</time>
</trkpt>
<trkpt lat="45.9052660" lon="10.3604130">
	<ele>1471.20</ele>
	<time>2025-04-29T09:12:41.000Z</time>
</trkpt>
<trkpt lat="45.9052650" lon="10.3604110">
	<ele>1471.20</ele>
	<time>2025-04-29T09:12:42.000Z</time>
</trkpt>
<trkpt lat="45.9052750" lon="10.3604050">
	<ele>1471.40</ele>
	<time>2025-04-29T09:12:43.000Z</time>
</trkpt>
<trkpt lat="45.9052790" lon="10.3603960">
	<ele>1471.40</ele>
	<time>2025-04-29T09:12:44.000Z</time>
</trkpt>
<trkpt lat="45.9052720" lon="10.3603850">
	<ele>1471.40</ele>
	<time>2025-04-29T09:12:45.000Z</time>
</trkpt>
<trkpt lat="45.9052770" lon="10.3603700">
	<ele>1471.40</ele>
	<time>2025-04-29T09:12:46.000Z</time>
</trkpt>
<trkpt lat="45.9052810" lon="10.3603570">
	<ele>1471.40</ele>
	<time>2025-04-29T09:12:47.000Z</time>
</trkpt>
<trkpt lat="45.9052890" lon="10.3603440">
	<ele>1471.40</ele>
	<time>2025-04-29T09:12:48.000Z</time>
</trkpt>
<trkpt lat="45.9052880" lon="10.3603220">
	<ele>1471.40</ele>
	<time>2025-04-29T09:12:49.000Z</time>
</trkpt>
<trkpt lat="45.9052910" lon="10.3603030">
	<ele>1471.40</ele>
	<time>2025-04-29T09:12:50.000Z</time>
</trkpt>
<trkpt lat="45.9052950" lon="10.3602980">
	<ele>1471.40</ele>
	<time>2025-04-29T09:12:51.000Z</time>
</trkpt>
<trkpt lat="45.9053010" lon="10.3602880">
	<ele>1471.60</ele>
	<time>2025-04-29T09:12:52.000Z</time>
</trkpt>
<trkpt lat="45.9053040" lon="10.3602720">
	<ele>1471.60</ele>
	<time>2025-04-29T09:12:53.000Z</time>
</trkpt>
<trkpt lat="45.9053030" lon="10.3602590">
	<ele>1471.60</ele>
	<time>2025-04-29T09:12:54.000Z</time>
</trkpt>
<trkpt lat="45.9053010" lon="10.3602450">
	<ele>1471.80</ele>
	<time>2025-04-29T09:12:55.000Z</time>
</trkpt>
<trkpt lat="45.9053020" lon="10.3602310">
	<ele>1471.80</ele>
	<time>2025-04-29T09:12:56.000Z</time>
</trkpt>
<trkpt lat="45.9053020" lon="10.3602220">
	<ele>1471.80</ele>
	<time>2025-04-29T09:12:57.000Z</time>
</trkpt>
<trkpt lat="45.9053020" lon="10.3602090">
	<ele>1471.80</ele>
	<time>2025-04-29T09:12:58.000Z</time>
</trkpt>
<trkpt lat="45.9053050" lon="10.3601940">
	<ele>1471.80</ele>
	<time>2025-04-29T09:12:59.000Z</time>
</trkpt>
<trkpt lat="45.9053070" lon="10.3601740">
	<ele>1472.00</ele>
	<time>2025-04-29T09:13:00.000Z</time>
</trkpt>
<trkpt lat="45.9053080" lon="10.3601550">
	<ele>1472.00</ele>
	<time>2025-04-29T09:13:01.000Z</time>
</trkpt>
<trkpt lat="45.9053120" lon="10.3601400">
	<ele>1472.40</ele>
	<time>2025-04-29T09:13:02.000Z</time>
</trkpt>
<trkpt lat="45.9053160" lon="10.3601250">
	<ele>1472.60</ele>
	<time>2025-04-29T09:13:03.000Z</time>
</trkpt>
<trkpt lat="45.9053280" lon="10.3601070">
	<ele>1472.60</ele>
	<time>2025-04-29T09:13:04.000Z</time>
</trkpt>
<trkpt lat="45.9053350" lon="10.3600890">
	<ele>1473.00</ele>
	<time>2025-04-29T09:13:05.000Z</time>
</trkpt>
<trkpt lat="45.9053350" lon="10.3600600">
	<ele>1473.20</ele>
	<time>2025-04-29T09:13:06.000Z</time>
</trkpt>
<trkpt lat="45.9053310" lon="10.3600260">
	<ele>1473.40</ele>
	<time>2025-04-29T09:13:07.000Z</time>
</trkpt>
<trkpt lat="45.9053240" lon="10.3599960">
	<ele>1473.60</ele>
	<time>2025-04-29T09:13:08.000Z</time>
</trkpt>
<trkpt lat="45.9053180" lon="10.3599750">
	<ele>1473.60</ele>
	<time>2025-04-29T09:13:09.000Z</time>
</trkpt>
<trkpt lat="45.9053110" lon="10.3599570">
	<ele>1473.80</ele>
	<time>2025-04-29T09:13:10.000Z</time>
</trkpt>
<trkpt lat="45.9053070" lon="10.3599420">
	<ele>1473.80</ele>
	<time>2025-04-29T09:13:11.000Z</time>
</trkpt>
<trkpt lat="45.9052970" lon="10.3599300">
	<ele>1474.00</ele>
	<time>2025-04-29T09:13:12.000Z</time>
</trkpt>
<trkpt lat="45.9052870" lon="10.3599170">
	<ele>1474.20</ele>
	<time>2025-04-29T09:13:13.000Z</time>
</trkpt>
<trkpt lat="45.9052790" lon="10.3598980">
	<ele>1474.40</ele>
	<time>2025-04-29T09:13:14.000Z</time>
</trkpt>
<trkpt lat="45.9052770" lon="10.3598890">
	<ele>1474.60</ele>
	<time>2025-04-29T09:13:15.000Z</time>
</trkpt>
<trkpt lat="45.9052790" lon="10.3598700">
	<ele>1474.80</ele>
	<time>2025-04-29T09:13:16.000Z</time>
</trkpt>
<trkpt lat="45.9052810" lon="10.3598570">
	<ele>1474.80</ele>
	<time>2025-04-29T09:13:17.000Z</time>
</trkpt>
<trkpt lat="45.9052770" lon="10.3598390">
	<ele>1475.00</ele>
	<time>2025-04-29T09:13:18.000Z</time>
</trkpt>
<trkpt lat="45.9052760" lon="10.3598210">
	<ele>1475.20</ele>
	<time>2025-04-29T09:13:19.000Z</time>
</trkpt>
<trkpt lat="45.9052800" lon="10.3598090">
	<ele>1475.40</ele>
	<time>2025-04-29T09:13:20.000Z</time>
</trkpt>
<trkpt lat="45.9052870" lon="10.3597920">
	<ele>1475.60</ele>
	<time>2025-04-29T09:13:21.000Z</time>
</trkpt>
<trkpt lat="45.9052890" lon="10.3597770">
	<ele>1475.80</ele>
	<time>2025-04-29T09:13:22.000Z</time>
</trkpt>
<trkpt lat="45.9052930" lon="10.3597590">
	<ele>1476.00</ele>
	<time>2025-04-29T09:13:23.000Z</time>
</trkpt>
<trkpt lat="45.9052930" lon="10.3597430">
	<ele>1476.00</ele>
	<time>2025-04-29T09:13:24.000Z</time>
</trkpt>
<trkpt lat="45.9052910" lon="10.3597260">
	<ele>1476.20</ele>
	<time>2025-04-29T09:13:25.000Z</time>
</trkpt>
<trkpt lat="45.9052900" lon="10.3597090">
	<ele>1476.20</ele>
	<time>2025-04-29T09:13:26.000Z</time>
</trkpt>
<trkpt lat="45.9052920" lon="10.3596920">
	<ele>1476.20</ele>
	<time>2025-04-29T09:13:27.000Z</time>
</trkpt>
<trkpt lat="45.9052940" lon="10.3596810">
	<ele>1476.60</ele>
	<time>2025-04-29T09:13:28.000Z</time>
</trkpt>
<trkpt lat="45.9052910" lon="10.3596700">
	<ele>1476.80</ele>
	<time>2025-04-29T09:13:29.000Z</time>
</trkpt>
<trkpt lat="45.9052900" lon="10.3596540">
	<ele>1476.80</ele>
	<time>2025-04-29T09:13:30.000Z</time>
</trkpt>
<trkpt lat="45.9052910" lon="10.3596370">
	<ele>1476.80</ele>
	<time>2025-04-29T09:13:31.000Z</time>
</trkpt>
<trkpt lat="45.9052930" lon="10.3596170">
	<ele>1477.00</ele>
	<time>2025-04-29T09:13:32.000Z</time>
</trkpt>
<trkpt lat="45.9052890" lon="10.3596030">
	<ele>1477.20</ele>
	<time>2025-04-29T09:13:33.000Z</time>
</trkpt>
<trkpt lat="45.9052870" lon="10.3595860">
	<ele>1477.60</ele>
	<time>2025-04-29T09:13:34.000Z</time>
</trkpt>
<trkpt lat="45.9052830" lon="10.3595660">
	<ele>1477.60</ele>
	<time>2025-04-29T09:13:35.000Z</time>
</trkpt>
<trkpt lat="45.9052770" lon="10.3595480">
	<ele>1477.80</ele>
	<time>2025-04-29T09:13:36.000Z</time>
</trkpt>
<trkpt lat="45.9052690" lon="10.3595300">
	<ele>1478.00</ele>
	<time>2025-04-29T09:13:37.000Z</time>
</trkpt>
<trkpt lat="45.9052620" lon="10.3595120">
	<ele>1478.00</ele>
	<time>2025-04-29T09:13:38.000Z</time>
</trkpt>
<trkpt lat="45.9052610" lon="10.3594940">
	<ele>1478.20</ele>
	<time>2025-04-29T09:13:39.000Z</time>
</trkpt>
<trkpt lat="45.9052550" lon="10.3594760">
	<ele>1478.20</ele>
	<time>2025-04-29T09:13:40.000Z</time>
</trkpt>
<trkpt lat="45.9052530" lon="10.3594580">
	<ele>1478.40</ele>
	<time>2025-04-29T09:13:41.000Z</time>
</trkpt>
<trkpt lat="45.9052530" lon="10.3594400">
	<ele>1478.60</ele>
	<time>2025-04-29T09:13:42.000Z</time>
</trkpt>
<trkpt lat="45.9052530" lon="10.3594310">
	<ele>1478.80</ele>
	<time>2025-04-29T09:13:43.000Z</time>
</trkpt>
<trkpt lat="45.9052570" lon="10.3594270">
	<ele>1479.00</ele>
	<time>2025-04-29T09:13:44.000Z</time>
</trkpt>
<trkpt lat="45.9052580" lon="10.3594110">
	<ele>1479.20</ele>
	<time>2025-04-29T09:13:45.000Z</time>
</trkpt>
<trkpt lat="45.9052610" lon="10.3593900">
	<ele>1479.20</ele>
	<time>2025-04-29T09:13:46.000Z</time>
</trkpt>
<trkpt lat="45.9052630" lon="10.3593690">
	<ele>1479.40</ele>
	<time>2025-04-29T09:13:47.000Z</time>
</trkpt>
<trkpt lat="45.9052600" lon="10.3593560">
	<ele>1479.60</ele>
	<time>2025-04-29T09:13:48.000Z</time>
</trkpt>
<trkpt lat="45.9052640" lon="10.3593350">
	<ele>1479.80</ele>
	<time>2025-04-29T09:13:49.000Z</time>
</trkpt>
<trkpt lat="45.9052660" lon="10.3593130">
	<ele>1480.00</ele>
	<time>2025-04-29T09:13:50.000Z</time>
</trkpt>
<trkpt lat="45.9052680" lon="10.3592930">
	<ele>1480.20</ele>
	<time>2025-04-29T09:13:51.000Z</time>
</trkpt>
<trkpt lat="45.9052710" lon="10.3592740">
	<ele>1480.40</ele>
	<time>2025-04-29T09:13:52.000Z</time>
</trkpt>
<trkpt lat="45.9052740" lon="10.3592640">
	<ele>1480.40</ele>
	<time>2025-04-29T09:13:53.000Z</time>
</trkpt>
<trkpt lat="45.9052730" lon="10.3592510">
	<ele>1480.60</ele>
	<time>2025-04-29T09:13:54.000Z</time>
</trkpt>
<trkpt lat="45.9052720" lon="10.3592400">
	<ele>1480.60</ele>
	<time>2025-04-29T09:13:55.000Z</time>
</trkpt>
<trkpt lat="45.9052710" lon="10.3592320">
	<ele>1480.80</ele>
	<time>2025-04-29T09:13:56.000Z</time>
</trkpt>
<trkpt lat="45.9052710" lon="10.3592260">
	<ele>1480.80</ele>
	<time>2025-04-29T09:13:57.000Z</time>
</trkpt>
<trkpt lat="45.9052690" lon="10.3592150">
	<ele>1481.00</ele>
	<time>2025-04-29T09:13:58.000Z</time>
</trkpt>
<trkpt lat="45.9052640" lon="10.3591990">
	<ele>1481.20</ele>
	<time>2025-04-29T09:13:59.000Z</time>
</trkpt>
<trkpt lat="45.9052610" lon="10.3591810">
	<ele>1481.40</ele>
	<time>2025-04-29T09:14:00.000Z</time>
</trkpt>
<trkpt lat="45.9052570" lon="10.3591630">
	<ele>1481.40</ele>
	<time>2025-04-29T09:14:01.000Z</time>
</trkpt>
<trkpt lat="45.9052530" lon="10.3591460">
	<ele>1481.60</ele>
	<time>2025-04-29T09:14:02.000Z</time>
</trkpt>
<trkpt lat="45.9052520" lon="10.3591260">
	<ele>1481.60</ele>
	<time>2025-04-29T09:14:03.000Z</time>
</trkpt>
<trkpt lat="45.9052530" lon="10.3591060">
	<ele>1481.60</ele>
	<time>2025-04-29T09:14:04.000Z</time>
</trkpt>
<trkpt lat="45.9052510" lon="10.3590890">
	<ele>1481.80</ele>
	<time>2025-04-29T09:14:05.000Z</time>
</trkpt>
<trkpt lat="45.9052470" lon="10.3590780">
	<ele>1482.00</ele>
	<time>2025-04-29T09:14:06.000Z</time>
</trkpt>
<trkpt lat="45.9052430" lon="10.3590670">
	<ele>1482.40</ele>
	<time>2025-04-29T09:14:07.000Z</time>
</trkpt>
<trkpt lat="45.9052420" lon="10.3590540">
	<ele>1482.40</ele>
	<time>2025-04-29T09:14:08.000Z</time>
</trkpt>
<trkpt lat="45.9052400" lon="10.3590380">
	<ele>1482.60</ele>
	<time>2025-04-29T09:14:09.000Z</time>
</trkpt>
<trkpt lat="45.9052370" lon="10.3590210">
	<ele>1482.80</ele>
	<time>2025-04-29T09:14:10.000Z</time>
</trkpt>
<trkpt lat="45.9052340" lon="10.3590050">
	<ele>1483.00</ele>
	<time>2025-04-29T09:14:11.000Z</time>
</trkpt>
<trkpt lat="45.9052300" lon="10.3589900">
	<ele>1483.00</ele>
	<time>2025-04-29T09:14:12.000Z</time>
</trkpt>
<trkpt lat="45.9052280" lon="10.3589760">
	<ele>1483.20</ele>
	<time>2025-04-29T09:14:13.000Z</time>
</trkpt>
<trkpt lat="45.9052250" lon="10.3589600">
	<ele>1483.40</ele>
	<time>2025-04-29T09:14:14.000Z</time>
</trkpt>
<trkpt lat="45.9052220" lon="10.3589370">
	<ele>1483.60</ele>
	<time>2025-04-29T09:14:15.000Z</time>
</trkpt>
<trkpt lat="45.9052180" lon="10.3589190">
	<ele>1483.60</ele>
	<time>2025-04-29T09:14:16.000Z</time>
</trkpt>
<trkpt lat="45.9052140" lon="10.3589030">
	<ele>1483.80</ele>
	<time>2025-04-29T09:14:17.000Z</time>
</trkpt>
<trkpt lat="45.9052140" lon="10.3588880">
	<ele>1483.80</ele>
	<time>2025-04-29T09:14:18.000Z</time>
</trkpt>
<trkpt lat="45.9052120" lon="10.3588710">
	<ele>1484.00</ele>
	<time>2025-04-29T09:14:19.000Z</time>
</trkpt>
<trkpt lat="45.9052150" lon="10.3588560">
	<ele>1484.20</ele>
	<time>2025-04-29T09:14:20.000Z</time>
</trkpt>
<trkpt lat="45.9052150" lon="10.3588400">
	<ele>1484.20</ele>
	<time>2025-04-29T09:14:21.000Z</time>
</trkpt>
<trkpt lat="45.9052130" lon="10.3588220">
	<ele>1484.40</ele>
	<time>2025-04-29T09:14:22.000Z</time>
</trkpt>
<trkpt lat="45.9052110" lon="10.3588060">
	<ele>1484.60</ele>
	<time>2025-04-29T09:14:23.000Z</time>
</trkpt>
<trkpt lat="45.9052120" lon="10.3587870">
	<ele>1484.60</ele>
	<time>2025-04-29T09:14:24.000Z</time>
</trkpt>
<trkpt lat="45.9052140" lon="10.3587680">
	<ele>1484.60</ele>
	<time>2025-04-29T09:14:25.000Z</time>
</trkpt>
<trkpt lat="45.9052160" lon="10.3587530">
	<ele>1485.00</ele>
	<time>2025-04-29T09:14:26.000Z</time>
</trkpt>
<trkpt lat="45.9052170" lon="10.3587400">
	<ele>1485.20</ele>
	<time>2025-04-29T09:14:27.000Z</time>
</trkpt>
<trkpt lat="45.9052180" lon="10.3587250">
	<ele>1485.40</ele>
	<time>2025-04-29T09:14:28.000Z</time>
</trkpt>
<trkpt lat="45.9052160" lon="10.3587120">
	<ele>1485.40</ele>
	<time>2025-04-29T09:14:29.000Z</time>
</trkpt>
<trkpt lat="45.9052150" lon="10.3586930">
	<ele>1485.60</ele>
	<time>2025-04-29T09:14:30.000Z</time>
</trkpt>
<trkpt lat="45.9052130" lon="10.3586770">
	<ele>1485.60</ele>
	<time>2025-04-29T09:14:31.000Z</time>
</trkpt>
<trkpt lat="45.9052150" lon="10.3586590">
	<ele>1485.40</ele>
	<time>2025-04-29T09:14:32.000Z</time>
</trkpt>
<trkpt lat="45.9052160" lon="10.3586410">
	<ele>1485.40</ele>
	<time>2025-04-29T09:14:33.000Z</time>
</trkpt>
<trkpt lat="45.9052160" lon="10.3586190">
	<ele>1485.40</ele>
	<time>2025-04-29T09:14:34.000Z</time>
</trkpt>
<trkpt lat="45.9052180" lon="10.3585960">
	<ele>1485.40</ele>
	<time>2025-04-29T09:14:35.000Z</time>
</trkpt>
<trkpt lat="45.9052170" lon="10.3585740">
	<ele>1485.40</ele>
	<time>2025-04-29T09:14:36.000Z</time>
</trkpt>
<trkpt lat="45.9052160" lon="10.3585580">
	<ele>1485.40</ele>
	<time>2025-04-29T09:14:37.000Z</time>
</trkpt>
<trkpt lat="45.9052170" lon="10.3585380">
	<ele>1485.40</ele>
	<time>2025-04-29T09:14:38.000Z</time>
</trkpt>
<trkpt lat="45.9052190" lon="10.3585220">
	<ele>1485.60</ele>
	<time>2025-04-29T09:14:39.000Z</time>
</trkpt>
<trkpt lat="45.9052220" lon="10.3585050">
	<ele>1485.60</ele>
	<time>2025-04-29T09:14:40.000Z</time>
</trkpt>
<trkpt lat="45.9052300" lon="10.3584860">
	<ele>1485.60</ele>
	<time>2025-04-29T09:14:41.000Z</time>
</trkpt>
<trkpt lat="45.9052350" lon="10.3584610">
	<ele>1485.60</ele>
	<time>2025-04-29T09:14:42.000Z</time>
</trkpt>
<trkpt lat="45.9052360" lon="10.3584320">
	<ele>1485.60</ele>
	<time>2025-04-29T09:14:43.000Z</time>
</trkpt>
<trkpt lat="45.9052330" lon="10.3584110">
	<ele>1485.60</ele>
	<time>2025-04-29T09:14:44.000Z</time>
</trkpt>
<trkpt lat="45.9052330" lon="10.3583920">
	<ele>1485.60</ele>
	<time>2025-04-29T09:14:45.000Z</time>
</trkpt>
<trkpt lat="45.9052320" lon="10.3583770">
	<ele>1485.60</ele>
	<time>2025-04-29T09:14:46.000Z</time>
</trkpt>
<trkpt lat="45.9052280" lon="10.3583550">
	<ele>1485.60</ele>
	<time>2025-04-29T09:14:47.000Z</time>
</trkpt>
<trkpt lat="45.9052260" lon="10.3583290">
	<ele>1485.60</ele>
	<time>2025-04-29T09:14:48.000Z</time>
</trkpt>
<trkpt lat="45.9052230" lon="10.3583050">
	<ele>1485.60</ele>
	<time>2025-04-29T09:14:49.000Z</time>
</trkpt>
<trkpt lat="45.9052210" lon="10.3582820">
	<ele>1485.60</ele>
	<time>2025-04-29T09:14:50.000Z</time>
</trkpt>
<trkpt lat="45.9052200" lon="10.3582620">
	<ele>1485.60</ele>
	<time>2025-04-29T09:14:51.000Z</time>
</trkpt>
<trkpt lat="45.9052220" lon="10.3582410">
	<ele>1485.60</ele>
	<time>2025-04-29T09:14:52.000Z</time>
</trkpt>
<trkpt lat="45.9052210" lon="10.3582240">
	<ele>1485.60</ele>
	<time>2025-04-29T09:14:53.000Z</time>
</trkpt>
<trkpt lat="45.9052190" lon="10.3582070">
	<ele>1485.60</ele>
	<time>2025-04-29T09:14:54.000Z</time>
</trkpt>
<trkpt lat="45.9052140" lon="10.3581880">
	<ele>1485.60</ele>
	<time>2025-04-29T09:14:55.000Z</time>
</trkpt>
<trkpt lat="45.9052090" lon="10.3581680">
	<ele>1485.60</ele>
	<time>2025-04-29T09:14:56.000Z</time>
</trkpt>
<trkpt lat="45.9052040" lon="10.3581510">
	<ele>1485.60</ele>
	<time>2025-04-29T09:14:57.000Z</time>
</trkpt>
<trkpt lat="45.9051990" lon="10.3581340">
	<ele>1485.60</ele>
	<time>2025-04-29T09:14:58.000Z</time>
</trkpt>
<trkpt lat="45.9051970" lon="10.3581170">
	<ele>1485.60</ele>
	<time>2025-04-29T09:14:59.000Z</time>
</trkpt>
<trkpt lat="45.9051910" lon="10.3581020">
	<ele>1485.60</ele>
	<time>2025-04-29T09:15:00.000Z</time>
</trkpt>
<trkpt lat="45.9051860" lon="10.3580860">
	<ele>1485.40</ele>
	<time>2025-04-29T09:15:01.000Z</time>
</trkpt>
<trkpt lat="45.9051830" lon="10.3580710">
	<ele>1485.40</ele>
	<time>2025-04-29T09:15:02.000Z</time>
</trkpt>
<trkpt lat="45.9051820" lon="10.3580550">
	<ele>1485.40</ele>
	<time>2025-04-29T09:15:03.000Z</time>
</trkpt>
<trkpt lat="45.9051790" lon="10.3580360">
	<ele>1485.40</ele>
	<time>2025-04-29T09:15:04.000Z</time>
</trkpt>
<trkpt lat="45.9051750" lon="10.3580140">
	<ele>1485.40</ele>
	<time>2025-04-29T09:15:05.000Z</time>
</trkpt>
<trkpt lat="45.9051660" lon="10.3579970">
	<ele>1485.20</ele>
	<time>2025-04-29T09:15:06.000Z</time>
</trkpt>
<trkpt lat="45.9051560" lon="10.3579770">
	<ele>1485.00</ele>
	<time>2025-04-29T09:15:07.000Z</time>
</trkpt>
<trkpt lat="45.9051510" lon="10.3579590">
	<ele>1485.00</ele>
	<time>2025-04-29T09:15:08.000Z</time>
</trkpt>
<trkpt lat="45.9051470" lon="10.3579440">
	<ele>1484.80</ele>
	<time>2025-04-29T09:15:09.000Z</time>
</trkpt>
<trkpt lat="45.9051450" lon="10.3579270">
	<ele>1484.80</ele>
	<time>2025-04-29T09:15:10.000Z</time>
</trkpt>
<trkpt lat="45.9051440" lon="10.3579070">
	<ele>1484.60</ele>
	<time>2025-04-29T09:15:11.000Z</time>
</trkpt>
<trkpt lat="45.9051430" lon="10.3578890">
	<ele>1484.60</ele>
	<time>2025-04-29T09:15:12.000Z</time>
</trkpt>
<trkpt lat="45.9051470" lon="10.3578640">
	<ele>1484.40</ele>
	<time>2025-04-29T09:15:13.000Z</time>
</trkpt>
<trkpt lat="45.9051530" lon="10.3578430">
	<ele>1484.40</ele>
	<time>2025-04-29T09:15:14.000Z</time>
</trkpt>
<trkpt lat="45.9051520" lon="10.3578240">
	<ele>1484.40</ele>
	<time>2025-04-29T09:15:15.000Z</time>
</trkpt>
<trkpt lat="45.9051500" lon="10.3578100">
	<ele>1484.40</ele>
	<time>2025-04-29T09:15:16.000Z</time>
</trkpt>
<trkpt lat="45.9051490" lon="10.3577890">
	<ele>1484.20</ele>
	<time>2025-04-29T09:15:17.000Z</time>
</trkpt>
<trkpt lat="45.9051520" lon="10.3577640">
	<ele>1484.20</ele>
	<time>2025-04-29T09:15:18.000Z</time>
</trkpt>
<trkpt lat="45.9051560" lon="10.3577440">
	<ele>1484.00</ele>
	<time>2025-04-29T09:15:19.000Z</time>
</trkpt>
<trkpt lat="45.9051570" lon="10.3577280">
	<ele>1484.00</ele>
	<time>2025-04-29T09:15:20.000Z</time>
</trkpt>
<trkpt lat="45.9051600" lon="10.3577100">
	<ele>1484.00</ele>
	<time>2025-04-29T09:15:21.000Z</time>
</trkpt>
<trkpt lat="45.9051630" lon="10.3576950">
	<ele>1483.80</ele>
	<time>2025-04-29T09:15:22.000Z</time>
</trkpt>
<trkpt lat="45.9051640" lon="10.3576820">
	<ele>1483.80</ele>
	<time>2025-04-29T09:15:23.000Z</time>
</trkpt>
<trkpt lat="45.9051660" lon="10.3576680">
	<ele>1483.60</ele>
	<time>2025-04-29T09:15:24.000Z</time>
</trkpt>
<trkpt lat="45.9051720" lon="10.3576550">
	<ele>1483.40</ele>
	<time>2025-04-29T09:15:25.000Z</time>
</trkpt>
<trkpt lat="45.9051820" lon="10.3576410">
	<ele>1483.20</ele>
	<time>2025-04-29T09:15:26.000Z</time>
</trkpt>
<trkpt lat="45.9051870" lon="10.3576320">
	<ele>1483.00</ele>
	<time>2025-04-29T09:15:27.000Z</time>
</trkpt>
<trkpt lat="45.9051950" lon="10.3576160">
	<ele>1482.80</ele>
	<time>2025-04-29T09:15:28.000Z</time>
</trkpt>
<trkpt lat="45.9052030" lon="10.3576080">
	<ele>1482.60</ele>
	<time>2025-04-29T09:15:29.000Z</time>
</trkpt>
<trkpt lat="45.9052150" lon="10.3575920">
	<ele>1482.40</ele>
	<time>2025-04-29T09:15:30.000Z</time>
</trkpt>
<trkpt lat="45.9052230" lon="10.3575790">
	<ele>1482.40</ele>
	<time>2025-04-29T09:15:31.000Z</time>
</trkpt>
<trkpt lat="45.9052290" lon="10.3575650">
	<ele>1482.20</ele>
	<time>2025-04-29T09:15:32.000Z</time>
</trkpt>
<trkpt lat="45.9052390" lon="10.3575540">
	<ele>1482.20</ele>
	<time>2025-04-29T09:15:33.000Z</time>
</trkpt>
<trkpt lat="45.9052490" lon="10.3575440">
	<ele>1482.00</ele>
	<time>2025-04-29T09:15:34.000Z</time>
</trkpt>
<trkpt lat="45.9052580" lon="10.3575340">
	<ele>1481.80</ele>
	<time>2025-04-29T09:15:35.000Z</time>
</trkpt>
<trkpt lat="45.9052720" lon="10.3575230">
	<ele>1481.80</ele>
	<time>2025-04-29T09:15:36.000Z</time>
</trkpt>
<trkpt lat="45.9052840" lon="10.3575110">
	<ele>1481.60</ele>
	<time>2025-04-29T09:15:37.000Z</time>
</trkpt>
<trkpt lat="45.9052950" lon="10.3575000">
	<ele>1481.40</ele>
	<time>2025-04-29T09:15:38.000Z</time>
</trkpt>
<trkpt lat="45.9053050" lon="10.3574870">
	<ele>1481.20</ele>
	<time>2025-04-29T09:15:39.000Z</time>
</trkpt>
<trkpt lat="45.9053160" lon="10.3574760">
	<ele>1481.00</ele>
	<time>2025-04-29T09:15:40.000Z</time>
</trkpt>
<trkpt lat="45.9053300" lon="10.3574630">
	<ele>1480.80</ele>
	<time>2025-04-29T09:15:41.000Z</time>
</trkpt>
<trkpt lat="45.9053410" lon="10.3574510">
	<ele>1480.80</ele>
	<time>2025-04-29T09:15:42.000Z</time>
</trkpt>
<trkpt lat="45.9053510" lon="10.3574380">
	<ele>1480.60</ele>
	<time>2025-04-29T09:15:43.000Z</time>
</trkpt>
<trkpt lat="45.9053570" lon="10.3574250">
	<ele>1480.40</ele>
	<time>2025-04-29T09:15:44.000Z</time>
</trkpt>
<trkpt lat="45.9053620" lon="10.3574080">
	<ele>1480.40</ele>
	<time>2025-04-29T09:15:45.000Z</time>
</trkpt>
<trkpt lat="45.9053670" lon="10.3573910">
	<ele>1480.20</ele>
	<time>2025-04-29T09:15:46.000Z</time>
</trkpt>
<trkpt lat="45.9053710" lon="10.3573710">
	<ele>1480.00</ele>
	<time>2025-04-29T09:15:47.000Z</time>
</trkpt>
<trkpt lat="45.9053730" lon="10.3573530">
	<ele>1479.60</ele>
	<time>2025-04-29T09:15:48.000Z</time>
</trkpt>
<trkpt lat="45.9053780" lon="10.3573360">
	<ele>1479.60</ele>
	<time>2025-04-29T09:15:49.000Z</time>
</trkpt>
<trkpt lat="45.9053880" lon="10.3573230">
	<ele>1479.40</ele>
	<time>2025-04-29T09:15:50.000Z</time>
</trkpt>
<trkpt lat="45.9053970" lon="10.3573110">
	<ele>1479.40</ele>
	<time>2025-04-29T09:15:51.000Z</time>
</trkpt>
<trkpt lat="45.9054020" lon="10.3572980">
	<ele>1479.40</ele>
	<time>2025-04-29T09:15:52.000Z</time>
</trkpt>
<trkpt lat="45.9054060" lon="10.3572840">
	<ele>1479.20</ele>
	<time>2025-04-29T09:15:53.000Z</time>
</trkpt>
<trkpt lat="45.9054100" lon="10.3572700">
	<ele>1479.20</ele>
	<time>2025-04-29T09:15:54.000Z</time>
</trkpt>
<trkpt lat="45.9054150" lon="10.3572540">
	<ele>1479.20</ele>
	<time>2025-04-29T09:15:55.000Z</time>
</trkpt>
<trkpt lat="45.9054220" lon="10.3572350">
	<ele>1479.00</ele>
	<time>2025-04-29T09:15:56.000Z</time>
</trkpt>
<trkpt lat="45.9054260" lon="10.3572220">
	<ele>1479.00</ele>
	<time>2025-04-29T09:15:57.000Z</time>
</trkpt>
<trkpt lat="45.9054280" lon="10.3572070">
	<ele>1479.00</ele>
	<time>2025-04-29T09:15:58.000Z</time>
</trkpt>
<trkpt lat="45.9054270" lon="10.3571960">
	<ele>1478.80</ele>
	<time>2025-04-29T09:15:59.000Z</time>
</trkpt>
<trkpt lat="45.9054250" lon="10.3571900">
	<ele>1478.80</ele>
	<time>2025-04-29T09:16:00.000Z</time>
</trkpt>
<trkpt lat="45.9054250" lon="10.3571860">
	<ele>1478.80</ele>
	<time>2025-04-29T09:16:01.000Z</time>
</trkpt>
<trkpt lat="45.9054250" lon="10.3571830">
	<ele>1478.80</ele>
	<time>2025-04-29T09:16:02.000Z</time>
</trkpt>
<trkpt lat="45.9054250" lon="10.3571820">
	<ele>1479.00</ele>
	<time>2025-04-29T09:16:03.000Z</time>
</trkpt>
<trkpt lat="45.9054250" lon="10.3571770">
	<ele>1478.80</ele>
	<time>2025-04-29T09:16:04.000Z</time>
</trkpt>
<trkpt lat="45.9054260" lon="10.3571690">
	<ele>1478.80</ele>
	<time>2025-04-29T09:16:05.000Z</time>
</trkpt>
<trkpt lat="45.9054310" lon="10.3571530">
	<ele>1478.60</ele>
	<time>2025-04-29T09:16:06.000Z</time>
</trkpt>
<trkpt lat="45.9054400" lon="10.3571330">
	<ele>1478.60</ele>
	<time>2025-04-29T09:16:07.000Z</time>
</trkpt>
<trkpt lat="45.9054430" lon="10.3571140">
	<ele>1478.60</ele>
	<time>2025-04-29T09:16:08.000Z</time>
</trkpt>
<trkpt lat="45.9054460" lon="10.3570960">
	<ele>1478.60</ele>
	<time>2025-04-29T09:16:09.000Z</time>
</trkpt>
<trkpt lat="45.9054520" lon="10.3570820">
	<ele>1478.60</ele>
	<time>2025-04-29T09:16:10.000Z</time>
</trkpt>
<trkpt lat="45.9054560" lon="10.3570730">
	<ele>1478.60</ele>
	<time>2025-04-29T09:16:11.000Z</time>
</trkpt>
<trkpt lat="45.9054620" lon="10.3570610">
	<ele>1478.40</ele>
	<time>2025-04-29T09:16:12.000Z</time>
</trkpt>
<trkpt lat="45.9054680" lon="10.3570530">
	<ele>1478.40</ele>
	<time>2025-04-29T09:16:13.000Z</time>
</trkpt>
<trkpt lat="45.9054760" lon="10.3570420">
	<ele>1478.40</ele>
	<time>2025-04-29T09:16:14.000Z</time>
</trkpt>
<trkpt lat="45.9054840" lon="10.3570340">
	<ele>1478.40</ele>
	<time>2025-04-29T09:16:15.000Z</time>
</trkpt>
<trkpt lat="45.9055000" lon="10.3570270">
	<ele>1478.40</ele>
	<time>2025-04-29T09:16:16.000Z</time>
</trkpt>
<trkpt lat="45.9055150" lon="10.3570190">
	<ele>1478.40</ele>
	<time>2025-04-29T09:16:17.000Z</time>
</trkpt>
<trkpt lat="45.9055290" lon="10.3570080">
	<ele>1478.40</ele>
	<time>2025-04-29T09:16:18.000Z</time>
</trkpt>
<trkpt lat="45.9055440" lon="10.3569970">
	<ele>1478.40</ele>
	<time>2025-04-29T09:16:19.000Z</time>
</trkpt>
<trkpt lat="45.9055580" lon="10.3569850">
	<ele>1478.40</ele>
	<time>2025-04-29T09:16:20.000Z</time>
</trkpt>
<trkpt lat="45.9055730" lon="10.3569690">
	<ele>1478.40</ele>
	<time>2025-04-29T09:16:21.000Z</time>
</trkpt>
<trkpt lat="45.9055800" lon="10.3569570">
	<ele>1478.40</ele>
	<time>2025-04-29T09:16:22.000Z</time>
</trkpt>
<trkpt lat="45.9055870" lon="10.3569460">
	<ele>1478.40</ele>
	<time>2025-04-29T09:16:23.000Z</time>
</trkpt>
<trkpt lat="45.9055930" lon="10.3569360">
	<ele>1478.20</ele>
	<time>2025-04-29T09:16:24.000Z</time>
</trkpt>
<trkpt lat="45.9055980" lon="10.3569250">
	<ele>1478.20</ele>
	<time>2025-04-29T09:16:25.000Z</time>
</trkpt>
<trkpt lat="45.9056080" lon="10.3569070">
	<ele>1478.40</ele>
	<time>2025-04-29T09:16:26.000Z</time>
</trkpt>
<trkpt lat="45.9056140" lon="10.3568940">
	<ele>1478.40</ele>
	<time>2025-04-29T09:16:27.000Z</time>
</trkpt>
<trkpt lat="45.9056230" lon="10.3568790">
	<ele>1478.60</ele>
	<time>2025-04-29T09:16:28.000Z</time>
</trkpt>
<trkpt lat="45.9056310" lon="10.3568630">
	<ele>1478.60</ele>
	<time>2025-04-29T09:16:29.000Z</time>
</trkpt>
<trkpt lat="45.9056420" lon="10.3568430">
	<ele>1478.80</ele>
	<time>2025-04-29T09:16:30.000Z</time>
</trkpt>
<trkpt lat="45.9056480" lon="10.3568290">
	<ele>1479.00</ele>
	<time>2025-04-29T09:16:31.000Z</time>
</trkpt>
<trkpt lat="45.9056550" lon="10.3568150">
	<ele>1479.00</ele>
	<time>2025-04-29T09:16:32.000Z</time>
</trkpt>
<trkpt lat="45.9056630" lon="10.3567960">
	<ele>1479.00</ele>
	<time>2025-04-29T09:16:33.000Z</time>
</trkpt>
<trkpt lat="45.9056770" lon="10.3567780">
	<ele>1479.20</ele>
	<time>2025-04-29T09:16:34.000Z</time>
</trkpt>
<trkpt lat="45.9056850" lon="10.3567620">
	<ele>1479.20</ele>
	<time>2025-04-29T09:16:35.000Z</time>
</trkpt>
<trkpt lat="45.9056900" lon="10.3567470">
	<ele>1479.20</ele>
	<time>2025-04-29T09:16:36.000Z</time>
</trkpt>
<trkpt lat="45.9056970" lon="10.3567330">
	<ele>1479.20</ele>
	<time>2025-04-29T09:16:37.000Z</time>
</trkpt>
<trkpt lat="45.9057050" lon="10.3567160">
	<ele>1479.40</ele>
	<time>2025-04-29T09:16:38.000Z</time>
</trkpt>
<trkpt lat="45.9057120" lon="10.3566970">
	<ele>1479.40</ele>
	<time>2025-04-29T09:16:39.000Z</time>
</trkpt>
<trkpt lat="45.9057180" lon="10.3566770">
	<ele>1479.60</ele>
	<time>2025-04-29T09:16:40.000Z</time>
</trkpt>
<trkpt lat="45.9057260" lon="10.3566610">
	<ele>1479.60</ele>
	<time>2025-04-29T09:16:41.000Z</time>
</trkpt>
<trkpt lat="45.9057350" lon="10.3566460">
	<ele>1479.60</ele>
	<time>2025-04-29T09:16:42.000Z</time>
</trkpt>
<trkpt lat="45.9057400" lon="10.3566320">
	<ele>1479.60</ele>
	<time>2025-04-29T09:16:43.000Z</time>
</trkpt>
<trkpt lat="45.9057470" lon="10.3566210">
	<ele>1479.60</ele>
	<time>2025-04-29T09:16:44.000Z</time>
</trkpt>
<trkpt lat="45.9057520" lon="10.3566110">
	<ele>1479.60</ele>
	<time>2025-04-29T09:16:45.000Z</time>
</trkpt>
<trkpt lat="45.9057530" lon="10.3565880">
	<ele>1479.60</ele>
	<time>2025-04-29T09:16:46.000Z</time>
</trkpt>
<trkpt lat="45.9057490" lon="10.3565620">
	<ele>1479.60</ele>
	<time>2025-04-29T09:16:47.000Z</time>
</trkpt>
<trkpt lat="45.9057540" lon="10.3565380">
	<ele>1479.60</ele>
	<time>2025-04-29T09:16:48.000Z</time>
</trkpt>
<trkpt lat="45.9057590" lon="10.3565170">
	<ele>1479.80</ele>
	<time>2025-04-29T09:16:49.000Z</time>
</trkpt>
<trkpt lat="45.9057650" lon="10.3564950">
	<ele>1479.80</ele>
	<time>2025-04-29T09:16:50.000Z</time>
</trkpt>
<trkpt lat="45.9057700" lon="10.3564730">
	<ele>1480.00</ele>
	<time>2025-04-29T09:16:51.000Z</time>
</trkpt>
<trkpt lat="45.9057690" lon="10.3564550">
	<ele>1480.00</ele>
	<time>2025-04-29T09:16:52.000Z</time>
</trkpt>
<trkpt lat="45.9057690" lon="10.3564400">
	<ele>1480.20</ele>
	<time>2025-04-29T09:16:53.000Z</time>
</trkpt>
<trkpt lat="45.9057690" lon="10.3564210">
	<ele>1480.20</ele>
	<time>2025-04-29T09:16:54.000Z</time>
</trkpt>
<trkpt lat="45.9057680" lon="10.3564000">
	<ele>1480.20</ele>
	<time>2025-04-29T09:16:55.000Z</time>
</trkpt>
<trkpt lat="45.9057720" lon="10.3563820">
	<ele>1480.20</ele>
	<time>2025-04-29T09:16:56.000Z</time>
</trkpt>
<trkpt lat="45.9057750" lon="10.3563640">
	<ele>1480.20</ele>
	<time>2025-04-29T09:16:57.000Z</time>
</trkpt>
<trkpt lat="45.9057780" lon="10.3563490">
	<ele>1480.20</ele>
	<time>2025-04-29T09:16:58.000Z</time>
</trkpt>
<trkpt lat="45.9057810" lon="10.3563300">
	<ele>1480.40</ele>
	<time>2025-04-29T09:16:59.000Z</time>
</trkpt>
<trkpt lat="45.9057830" lon="10.3563120">
	<ele>1480.40</ele>
	<time>2025-04-29T09:17:00.000Z</time>
</trkpt>
<trkpt lat="45.9057850" lon="10.3562950">
	<ele>1480.40</ele>
	<time>2025-04-29T09:17:01.000Z</time>
</trkpt>
<trkpt lat="45.9057850" lon="10.3562790">
	<ele>1480.60</ele>
	<time>2025-04-29T09:17:02.000Z</time>
</trkpt>
<trkpt lat="45.9057860" lon="10.3562620">
	<ele>1480.60</ele>
	<time>2025-04-29T09:17:03.000Z</time>
</trkpt>
<trkpt lat="45.9057880" lon="10.3562440">
	<ele>1480.60</ele>
	<time>2025-04-29T09:17:04.000Z</time>
</trkpt>
<trkpt lat="45.9057910" lon="10.3562290">
	<ele>1480.60</ele>
	<time>2025-04-29T09:17:05.000Z</time>
</trkpt>
<trkpt lat="45.9057920" lon="10.3562130">
	<ele>1480.80</ele>
	<time>2025-04-29T09:17:06.000Z</time>
</trkpt>
<trkpt lat="45.9057940" lon="10.3561960">
	<ele>1480.80</ele>
	<time>2025-04-29T09:17:07.000Z</time>
</trkpt>
<trkpt lat="45.9058010" lon="10.3561840">
	<ele>1481.00</ele>
	<time>2025-04-29T09:17:08.000Z</time>
</trkpt>
<trkpt lat="45.9058050" lon="10.3561670">
	<ele>1481.00</ele>
	<time>2025-04-29T09:17:09.000Z</time>
</trkpt>
<trkpt lat="45.9058090" lon="10.3561530">
	<ele>1481.00</ele>
	<time>2025-04-29T09:17:10.000Z</time>
</trkpt>
<trkpt lat="45.9058130" lon="10.3561340">
	<ele>1481.00</ele>
	<time>2025-04-29T09:17:11.000Z</time>
</trkpt>
<trkpt lat="45.9058160" lon="10.3561160">
	<ele>1481.20</ele>
	<time>2025-04-29T09:17:12.000Z</time>
</trkpt>
<trkpt lat="45.9058190" lon="10.3561000">
	<ele>1481.20</ele>
	<time>2025-04-29T09:17:13.000Z</time>
</trkpt>
<trkpt lat="45.9058190" lon="10.3560790">
	<ele>1481.20</ele>
	<time>2025-04-29T09:17:14.000Z</time>
</trkpt>
<trkpt lat="45.9058190" lon="10.3560600">
	<ele>1481.20</ele>
	<time>2025-04-29T09:17:15.000Z</time>
</trkpt>
<trkpt lat="45.9058230" lon="10.3560420">
	<ele>1481.20</ele>
	<time>2025-04-29T09:17:16.000Z</time>
</trkpt>
<trkpt lat="45.9058260" lon="10.3560220">
	<ele>1481.20</ele>
	<time>2025-04-29T09:17:17.000Z</time>
</trkpt>
<trkpt lat="45.9058220" lon="10.3560030">
	<ele>1481.20</ele>
	<time>2025-04-29T09:17:18.000Z</time>
</trkpt>
<trkpt lat="45.9058200" lon="10.3559800">
	<ele>1481.00</ele>
	<time>2025-04-29T09:17:19.000Z</time>
</trkpt>
<trkpt lat="45.9058240" lon="10.3559590">
	<ele>1481.00</ele>
	<time>2025-04-29T09:17:20.000Z</time>
</trkpt>
<trkpt lat="45.9058240" lon="10.3559420">
	<ele>1481.00</ele>
	<time>2025-04-29T09:17:21.000Z</time>
</trkpt>
<trkpt lat="45.9058230" lon="10.3559230">
	<ele>1481.00</ele>
	<time>2025-04-29T09:17:22.000Z</time>
</trkpt>
<trkpt lat="45.9058200" lon="10.3559010">
	<ele>1481.00</ele>
	<time>2025-04-29T09:17:23.000Z</time>
</trkpt>
<trkpt lat="45.9058200" lon="10.3558820">
	<ele>1481.00</ele>
	<time>2025-04-29T09:17:24.000Z</time>
</trkpt>
<trkpt lat="45.9058190" lon="10.3558640">
	<ele>1480.80</ele>
	<time>2025-04-29T09:17:25.000Z</time>
</trkpt>
<trkpt lat="45.9058200" lon="10.3558500">
	<ele>1480.80</ele>
	<time>2025-04-29T09:17:26.000Z</time>
</trkpt>
<trkpt lat="45.9058200" lon="10.3558300">
	<ele>1480.80</ele>
	<time>2025-04-29T09:17:27.000Z</time>
</trkpt>
<trkpt lat="45.9058200" lon="10.3558170">
	<ele>1480.80</ele>
	<time>2025-04-29T09:17:28.000Z</time>
</trkpt>
<trkpt lat="45.9058180" lon="10.3558030">
	<ele>1480.80</ele>
	<time>2025-04-29T09:17:29.000Z</time>
</trkpt>
<trkpt lat="45.9058170" lon="10.3557830">
	<ele>1480.80</ele>
	<time>2025-04-29T09:17:30.000Z</time>
</trkpt>
<trkpt lat="45.9058140" lon="10.3557580">
	<ele>1480.80</ele>
	<time>2025-04-29T09:17:31.000Z</time>
</trkpt>
<trkpt lat="45.9058140" lon="10.3557420">
	<ele>1480.80</ele>
	<time>2025-04-29T09:17:32.000Z</time>
</trkpt>
<trkpt lat="45.9058140" lon="10.3557230">
	<ele>1480.80</ele>
	<time>2025-04-29T09:17:33.000Z</time>
</trkpt>
<trkpt lat="45.9058170" lon="10.3557000">
	<ele>1480.80</ele>
	<time>2025-04-29T09:17:34.000Z</time>
</trkpt>
<trkpt lat="45.9058170" lon="10.3556830">
	<ele>1480.80</ele>
	<time>2025-04-29T09:17:35.000Z</time>
</trkpt>
<trkpt lat="45.9058150" lon="10.3556590">
	<ele>1480.80</ele>
	<time>2025-04-29T09:17:36.000Z</time>
</trkpt>
<trkpt lat="45.9058140" lon="10.3556400">
	<ele>1480.80</ele>
	<time>2025-04-29T09:17:37.000Z</time>
</trkpt>
<trkpt lat="45.9058130" lon="10.3556230">
	<ele>1480.80</ele>
	<time>2025-04-29T09:17:38.000Z</time>
</trkpt>
<trkpt lat="45.9058110" lon="10.3556060">
	<ele>1480.80</ele>
	<time>2025-04-29T09:17:39.000Z</time>
</trkpt>
<trkpt lat="45.9058100" lon="10.3555860">
	<ele>1480.80</ele>
	<time>2025-04-29T09:17:40.000Z</time>
</trkpt>
<trkpt lat="45.9058110" lon="10.3555630">
	<ele>1480.80</ele>
	<time>2025-04-29T09:17:41.000Z</time>
</trkpt>
<trkpt lat="45.9058090" lon="10.3555420">
	<ele>1480.80</ele>
	<time>2025-04-29T09:17:42.000Z</time>
</trkpt>
<trkpt lat="45.9058080" lon="10.3555210">
	<ele>1480.80</ele>
	<time>2025-04-29T09:17:43.000Z</time>
</trkpt>
<trkpt lat="45.9058050" lon="10.3555030">
	<ele>1481.00</ele>
	<time>2025-04-29T09:17:44.000Z</time>
</trkpt>
<trkpt lat="45.9058040" lon="10.3554880">
	<ele>1481.00</ele>
	<time>2025-04-29T09:17:45.000Z</time>
</trkpt>
<trkpt lat="45.9057990" lon="10.3554720">
	<ele>1481.00</ele>
	<time>2025-04-29T09:17:46.000Z</time>
</trkpt>
<trkpt lat="45.9057970" lon="10.3554560">
	<ele>1481.00</ele>
	<time>2025-04-29T09:17:47.000Z</time>
</trkpt>
<trkpt lat="45.9057960" lon="10.3554410">
	<ele>1481.00</ele>
	<time>2025-04-29T09:17:48.000Z</time>
</trkpt>
<trkpt lat="45.9057890" lon="10.3554270">
	<ele>1481.00</ele>
	<time>2025-04-29T09:17:49.000Z</time>
</trkpt>
<trkpt lat="45.9057840" lon="10.3554130">
	<ele>1481.20</ele>
	<time>2025-04-29T09:17:50.000Z</time>
</trkpt>
<trkpt lat="45.9057780" lon="10.3553960">
	<ele>1481.40</ele>
	<time>2025-04-29T09:17:51.000Z</time>
</trkpt>
<trkpt lat="45.9057750" lon="10.3553770">
	<ele>1481.60</ele>
	<time>2025-04-29T09:17:52.000Z</time>
</trkpt>
<trkpt lat="45.9057710" lon="10.3553560">
	<ele>1481.60</ele>
	<time>2025-04-29T09:17:53.000Z</time>
</trkpt>
<trkpt lat="45.9057650" lon="10.3553400">
	<ele>1481.80</ele>
	<time>2025-04-29T09:17:54.000Z</time>
</trkpt>
<trkpt lat="45.9057560" lon="10.3553230">
	<ele>1482.00</ele>
	<time>2025-04-29T09:17:55.000Z</time>
</trkpt>
<trkpt lat="45.9057450" lon="10.3552950">
	<ele>1482.00</ele>
	<time>2025-04-29T09:17:56.000Z</time>
</trkpt>
<trkpt lat="45.9057480" lon="10.3552670">
	<ele>1482.20</ele>
	<time>2025-04-29T09:17:57.000Z</time>
</trkpt>
<trkpt lat="45.9057500" lon="10.3552510">
	<ele>1482.20</ele>
	<time>2025-04-29T09:17:58.000Z</time>
</trkpt>
<trkpt lat="45.9057470" lon="10.3552440">
	<ele>1482.20</ele>
	<time>2025-04-29T09:17:59.000Z</time>
</trkpt>
<trkpt lat="45.9057470" lon="10.3552390">
	<ele>1482.40</ele>
	<time>2025-04-29T09:18:00.000Z</time>
</trkpt>
<trkpt lat="45.9057470" lon="10.3552340">
	<ele>1482.40</ele>
	<time>2025-04-29T09:18:01.000Z</time>
</trkpt>
<trkpt lat="45.9057490" lon="10.3552290">
	<ele>1482.40</ele>
	<time>2025-04-29T09:18:02.000Z</time>
</trkpt>
<trkpt lat="45.9057470" lon="10.3552270">
	<ele>1482.40</ele>
	<time>2025-04-29T09:18:03.000Z</time>
</trkpt>
<trkpt lat="45.9057430" lon="10.3552120">
	<ele>1482.60</ele>
	<time>2025-04-29T09:18:04.000Z</time>
</trkpt>
<trkpt lat="45.9057410" lon="10.3551950">
	<ele>1482.60</ele>
	<time>2025-04-29T09:18:05.000Z</time>
</trkpt>
<trkpt lat="45.9057420" lon="10.3551790">
	<ele>1482.60</ele>
	<time>2025-04-29T09:18:06.000Z</time>
</trkpt>
<trkpt lat="45.9057400" lon="10.3551640">
	<ele>1482.60</ele>
	<time>2025-04-29T09:18:07.000Z</time>
</trkpt>
<trkpt lat="45.9057340" lon="10.3551510">
	<ele>1482.80</ele>
	<time>2025-04-29T09:18:08.000Z</time>
</trkpt>
<trkpt lat="45.9057280" lon="10.3551430">
	<ele>1482.80</ele>
	<time>2025-04-29T09:18:09.000Z</time>
</trkpt>
<trkpt lat="45.9057250" lon="10.3551360">
	<ele>1482.80</ele>
	<time>2025-04-29T09:18:10.000Z</time>
</trkpt>
<trkpt lat="45.9057220" lon="10.3551240">
	<ele>1483.00</ele>
	<time>2025-04-29T09:18:11.000Z</time>
</trkpt>
<trkpt lat="45.9057170" lon="10.3551130">
	<ele>1483.00</ele>
	<time>2025-04-29T09:18:12.000Z</time>
</trkpt>
<trkpt lat="45.9057150" lon="10.3550980">
	<ele>1483.20</ele>
	<time>2025-04-29T09:18:13.000Z</time>
</trkpt>
<trkpt lat="45.9057090" lon="10.3550800">
	<ele>1483.20</ele>
	<time>2025-04-29T09:18:14.000Z</time>
</trkpt>
<trkpt lat="45.9057000" lon="10.3550660">
	<ele>1483.40</ele>
	<time>2025-04-29T09:18:15.000Z</time>
</trkpt>
<trkpt lat="45.9056880" lon="10.3550550">
	<ele>1483.40</ele>
	<time>2025-04-29T09:18:16.000Z</time>
</trkpt>
<trkpt lat="45.9056760" lon="10.3550480">
	<ele>1483.60</ele>
	<time>2025-04-29T09:18:17.000Z</time>
</trkpt>
<trkpt lat="45.9056640" lon="10.3550420">
	<ele>1483.60</ele>
	<time>2025-04-29T09:18:18.000Z</time>
</trkpt>
<trkpt lat="45.9056580" lon="10.3550190">
	<ele>1483.60</ele>
	<time>2025-04-29T09:18:19.000Z</time>
</trkpt>
<trkpt lat="45.9056540" lon="10.3549990">
	<ele>1483.60</ele>
	<time>2025-04-29T09:18:20.000Z</time>
</trkpt>
<trkpt lat="45.9056490" lon="10.3549850">
	<ele>1483.60</ele>
	<time>2025-04-29T09:18:21.000Z</time>
</trkpt>
<trkpt lat="45.9056430" lon="10.3549700">
	<ele>1483.80</ele>
	<time>2025-04-29T09:18:22.000Z</time>
</trkpt>
<trkpt lat="45.9056300" lon="10.3549600">
	<ele>1483.80</ele>
	<time>2025-04-29T09:18:23.000Z</time>
</trkpt>
<trkpt lat="45.9056250" lon="10.3549530">
	<ele>1483.80</ele>
	<time>2025-04-29T09:18:24.000Z</time>
</trkpt>
<trkpt lat="45.9056240" lon="10.3549400">
	<ele>1483.80</ele>
	<time>2025-04-29T09:18:25.000Z</time>
</trkpt>
<trkpt lat="45.9056210" lon="10.3549240">
	<ele>1483.80</ele>
	<time>2025-04-29T09:18:26.000Z</time>
</trkpt>
<trkpt lat="45.9056180" lon="10.3549050">
	<ele>1483.80</ele>
	<time>2025-04-29T09:18:27.000Z</time>
</trkpt>
<trkpt lat="45.9056110" lon="10.3548910">
	<ele>1483.80</ele>
	<time>2025-04-29T09:18:28.000Z</time>
</trkpt>
<trkpt lat="45.9056090" lon="10.3548800">
	<ele>1483.80</ele>
	<time>2025-04-29T09:18:29.000Z</time>
</trkpt>
<trkpt lat="45.9056030" lon="10.3548670">
	<ele>1483.80</ele>
	<time>2025-04-29T09:18:30.000Z</time>
</trkpt>
<trkpt lat="45.9055980" lon="10.3548570">
	<ele>1483.80</ele>
	<time>2025-04-29T09:18:31.000Z</time>
</trkpt>
<trkpt lat="45.9055880" lon="10.3548450">
	<ele>1483.80</ele>
	<time>2025-04-29T09:18:32.000Z</time>
</trkpt>
<trkpt lat="45.9055800" lon="10.3548320">
	<ele>1483.80</ele>
	<time>2025-04-29T09:18:33.000Z</time>
</trkpt>
<trkpt lat="45.9055730" lon="10.3548230">
	<ele>1483.60</ele>
	<time>2025-04-29T09:18:34.000Z</time>
</trkpt>
<trkpt lat="45.9055670" lon="10.3548100">
	<ele>1483.60</ele>
	<time>2025-04-29T09:18:35.000Z</time>
</trkpt>
<trkpt lat="45.9055630" lon="10.3547960">
	<ele>1483.60</ele>
	<time>2025-04-29T09:18:36.000Z</time>
</trkpt>
<trkpt lat="45.9055580" lon="10.3547870">
	<ele>1483.60</ele>
	<time>2025-04-29T09:18:37.000Z</time>
</trkpt>
<trkpt lat="45.9055490" lon="10.3547740">
	<ele>1483.40</ele>
	<time>2025-04-29T09:18:38.000Z</time>
</trkpt>
<trkpt lat="45.9055400" lon="10.3547600">
	<ele>1483.20</ele>
	<time>2025-04-29T09:18:39.000Z</time>
</trkpt>
<trkpt lat="45.9055310" lon="10.3547480">
	<ele>1483.00</ele>
	<time>2025-04-29T09:18:40.000Z</time>
</trkpt>
<trkpt lat="45.9055260" lon="10.3547370">
	<ele>1483.00</ele>
	<time>2025-04-29T09:18:41.000Z</time>
</trkpt>
<trkpt lat="45.9055230" lon="10.3547320">
	<ele>1483.00</ele>
	<time>2025-04-29T09:18:42.000Z</time>
</trkpt>
<trkpt lat="45.9055230" lon="10.3547280">
	<ele>1482.80</ele>
	<time>2025-04-29T09:18:43.000Z</time>
</trkpt>
<trkpt lat="45.9055180" lon="10.3547250">
	<ele>1482.80</ele>
	<time>2025-04-29T09:18:44.000Z</time>
</trkpt>
<trkpt lat="45.9055100" lon="10.3547220">
	<ele>1482.80</ele>
	<time>2025-04-29T09:18:45.000Z</time>
</trkpt>
<trkpt lat="45.9055000" lon="10.3547170">
	<ele>1482.80</ele>
	<time>2025-04-29T09:18:46.000Z</time>
</trkpt>
<trkpt lat="45.9054910" lon="10.3547010">
	<ele>1482.80</ele>
	<time>2025-04-29T09:18:47.000Z</time>
</trkpt>
<trkpt lat="45.9054810" lon="10.3546840">
	<ele>1482.60</ele>
	<time>2025-04-29T09:18:48.000Z</time>
</trkpt>
<trkpt lat="45.9054680" lon="10.3546680">
	<ele>1482.40</ele>
	<time>2025-04-29T09:18:49.000Z</time>
</trkpt>
<trkpt lat="45.9054560" lon="10.3546570">
	<ele>1482.40</ele>
	<time>2025-04-29T09:18:50.000Z</time>
</trkpt>
<trkpt lat="45.9054460" lon="10.3546500">
	<ele>1482.40</ele>
	<time>2025-04-29T09:18:51.000Z</time>
</trkpt>
<trkpt lat="45.9054390" lon="10.3546440">
	<ele>1482.20</ele>
	<time>2025-04-29T09:18:52.000Z</time>
</trkpt>
<trkpt lat="45.9054320" lon="10.3546360">
	<ele>1482.20</ele>
	<time>2025-04-29T09:18:53.000Z</time>
</trkpt>
<trkpt lat="45.9054260" lon="10.3546200">
	<ele>1482.20</ele>
	<time>2025-04-29T09:18:54.000Z</time>
</trkpt>
<trkpt lat="45.9054200" lon="10.3546060">
	<ele>1482.00</ele>
	<time>2025-04-29T09:18:55.000Z</time>
</trkpt>
<trkpt lat="45.9054150" lon="10.3545950">
	<ele>1482.00</ele>
	<time>2025-04-29T09:18:56.000Z</time>
</trkpt>
<trkpt lat="45.9054080" lon="10.3545840">
	<ele>1482.00</ele>
	<time>2025-04-29T09:18:57.000Z</time>
</trkpt>
<trkpt lat="45.9054030" lon="10.3545750">
	<ele>1482.00</ele>
	<time>2025-04-29T09:18:58.000Z</time>
</trkpt>
<trkpt lat="45.9053980" lon="10.3545630">
	<ele>1481.80</ele>
	<time>2025-04-29T09:18:59.000Z</time>
</trkpt>
<trkpt lat="45.9053940" lon="10.3545470">
	<ele>1481.80</ele>
	<time>2025-04-29T09:19:00.000Z</time>
</trkpt>
<trkpt lat="45.9053930" lon="10.3545310">
	<ele>1481.80</ele>
	<time>2025-04-29T09:19:01.000Z</time>
</trkpt>
<trkpt lat="45.9053920" lon="10.3545110">
	<ele>1481.60</ele>
	<time>2025-04-29T09:19:02.000Z</time>
</trkpt>
<trkpt lat="45.9053920" lon="10.3544950">
	<ele>1481.60</ele>
	<time>2025-04-29T09:19:03.000Z</time>
</trkpt>
<trkpt lat="45.9053880" lon="10.3544830">
	<ele>1481.60</ele>
	<time>2025-04-29T09:19:04.000Z</time>
</trkpt>
<trkpt lat="45.9053850" lon="10.3544740">
	<ele>1481.60</ele>
	<time>2025-04-29T09:19:05.000Z</time>
</trkpt>
<trkpt lat="45.9053830" lon="10.3544680">
	<ele>1481.40</ele>
	<time>2025-04-29T09:19:06.000Z</time>
</trkpt>
<trkpt lat="45.9053820" lon="10.3544650">
	<ele>1481.20</ele>
	<time>2025-04-29T09:19:07.000Z</time>
</trkpt>
<trkpt lat="45.9053820" lon="10.3544660">
	<ele>1481.00</ele>
	<time>2025-04-29T09:19:08.000Z</time>
</trkpt>
<trkpt lat="45.9053820" lon="10.3544660">
	<ele>1481.00</ele>
	<time>2025-04-29T09:19:09.000Z</time>
</trkpt>
<trkpt lat="45.9053810" lon="10.3544670">
	<ele>1481.00</ele>
	<time>2025-04-29T09:19:10.000Z</time>
</trkpt>
<trkpt lat="45.9053810" lon="10.3544660">
	<ele>1481.00</ele>
	<time>2025-04-29T09:19:11.000Z</time>
</trkpt>
<trkpt lat="45.9053810" lon="10.3544660">
	<ele>1481.00</ele>
	<time>2025-04-29T09:19:12.000Z</time>
</trkpt>
<trkpt lat="45.9053820" lon="10.3544650">
	<ele>1481.00</ele>
	<time>2025-04-29T09:19:13.000Z</time>
</trkpt>
<trkpt lat="45.9053820" lon="10.3544650">
	<ele>1481.00</ele>
	<time>2025-04-29T09:19:14.000Z</time>
</trkpt>
<trkpt lat="45.9053810" lon="10.3544650">
	<ele>1480.80</ele>
	<time>2025-04-29T09:19:15.000Z</time>
</trkpt>
<trkpt lat="45.9053820" lon="10.3544640">
	<ele>1480.80</ele>
	<time>2025-04-29T09:19:16.000Z</time>
</trkpt>
<trkpt lat="45.9053820" lon="10.3544640">
	<ele>1480.80</ele>
	<time>2025-04-29T09:19:17.000Z</time>
</trkpt>
<trkpt lat="45.9053820" lon="10.3544640">
	<ele>1480.80</ele>
	<time>2025-04-29T09:19:18.000Z</time>
</trkpt>
<trkpt lat="45.9053820" lon="10.3544640">
	<ele>1480.60</ele>
	<time>2025-04-29T09:19:19.000Z</time>
</trkpt>
<trkpt lat="45.9053820" lon="10.3544640">
	<ele>1480.60</ele>
	<time>2025-04-29T09:19:20.000Z</time>
</trkpt>
<trkpt lat="45.9053820" lon="10.3544640">
	<ele>1480.60</ele>
	<time>2025-04-29T09:19:21.000Z</time>
</trkpt>
<trkpt lat="45.9053840" lon="10.3544690">
	<ele>1480.60</ele>
	<time>2025-04-29T09:19:22.000Z</time>
</trkpt>
<trkpt lat="45.9053900" lon="10.3544930">
	<ele>1480.80</ele>
	<time>2025-04-29T09:19:23.000Z</time>
</trkpt>
<trkpt lat="45.9053970" lon="10.3545230">
	<ele>1481.00</ele>
	<time>2025-04-29T09:19:24.000Z</time>
</trkpt>
<trkpt lat="45.9054080" lon="10.3545440">
	<ele>1481.00</ele>
	<time>2025-04-29T09:19:25.000Z</time>
</trkpt>
<trkpt lat="45.9054200" lon="10.3545640">
	<ele>1481.00</ele>
	<time>2025-04-29T09:19:26.000Z</time>
</trkpt>
<trkpt lat="45.9054300" lon="10.3545850">
	<ele>1481.20</ele>
	<time>2025-04-29T09:19:27.000Z</time>
</trkpt>
<trkpt lat="45.9054410" lon="10.3546080">
	<ele>1481.20</ele>
	<time>2025-04-29T09:19:28.000Z</time>
</trkpt>
<trkpt lat="45.9054480" lon="10.3546340">
	<ele>1481.40</ele>
	<time>2025-04-29T09:19:29.000Z</time>
</trkpt>
<trkpt lat="45.9054570" lon="10.3546580">
	<ele>1481.60</ele>
	<time>2025-04-29T09:19:30.000Z</time>
</trkpt>
<trkpt lat="45.9054660" lon="10.3546800">
	<ele>1481.60</ele>
	<time>2025-04-29T09:19:31.000Z</time>
</trkpt>
<trkpt lat="45.9054740" lon="10.3546930">
	<ele>1481.60</ele>
	<time>2025-04-29T09:19:32.000Z</time>
</trkpt>
<trkpt lat="45.9054820" lon="10.3547090">
	<ele>1481.80</ele>
	<time>2025-04-29T09:19:33.000Z</time>
</trkpt>
<trkpt lat="45.9054900" lon="10.3547260">
	<ele>1481.80</ele>
	<time>2025-04-29T09:19:34.000Z</time>
</trkpt>
<trkpt lat="45.9054960" lon="10.3547460">
	<ele>1481.80</ele>
	<time>2025-04-29T09:19:35.000Z</time>
</trkpt>
<trkpt lat="45.9055000" lon="10.3547670">
	<ele>1482.00</ele>
	<time>2025-04-29T09:19:36.000Z</time>
</trkpt>
<trkpt lat="45.9055000" lon="10.3547900">
	<ele>1482.00</ele>
	<time>2025-04-29T09:19:37.000Z</time>
</trkpt>
<trkpt lat="45.9054970" lon="10.3548110">
	<ele>1482.00</ele>
	<time>2025-04-29T09:19:38.000Z</time>
</trkpt>
<trkpt lat="45.9055020" lon="10.3548260">
	<ele>1482.20</ele>
	<time>2025-04-29T09:19:39.000Z</time>
</trkpt>
<trkpt lat="45.9055130" lon="10.3548320">
	<ele>1482.40</ele>
	<time>2025-04-29T09:19:40.000Z</time>
</trkpt>
<trkpt lat="45.9055250" lon="10.3548330">
	<ele>1482.40</ele>
	<time>2025-04-29T09:19:41.000Z</time>
</trkpt>
<trkpt lat="45.9055290" lon="10.3548360">
	<ele>1482.60</ele>
	<time>2025-04-29T09:19:42.000Z</time>
</trkpt>
<trkpt lat="45.9055330" lon="10.3548390">
	<ele>1482.60</ele>
	<time>2025-04-29T09:19:43.000Z</time>
</trkpt>
<trkpt lat="45.9055470" lon="10.3548420">
	<ele>1482.80</ele>
	<time>2025-04-29T09:19:44.000Z</time>
</trkpt>
<trkpt lat="45.9055620" lon="10.3548470">
	<ele>1482.80</ele>
	<time>2025-04-29T09:19:45.000Z</time>
</trkpt>
<trkpt lat="45.9055750" lon="10.3548520">
	<ele>1483.00</ele>
	<time>2025-04-29T09:19:46.000Z</time>
</trkpt>
<trkpt lat="45.9055900" lon="10.3548510">
	<ele>1483.00</ele>
	<time>2025-04-29T09:19:47.000Z</time>
</trkpt>
<trkpt lat="45.9056040" lon="10.3548490">
	<ele>1483.20</ele>
	<time>2025-04-29T09:19:48.000Z</time>
</trkpt>
<trkpt lat="45.9056090" lon="10.3548520">
	<ele>1483.40</ele>
	<time>2025-04-29T09:19:49.000Z</time>
</trkpt>
<trkpt lat="45.9056200" lon="10.3548510">
	<ele>1483.60</ele>
	<time>2025-04-29T09:19:50.000Z</time>
</trkpt>
<trkpt lat="45.9056280" lon="10.3548520">
	<ele>1483.60</ele>
	<time>2025-04-29T09:19:51.000Z</time>
</trkpt>
<trkpt lat="45.9056320" lon="10.3548570">
	<ele>1483.80</ele>
	<time>2025-04-29T09:19:52.000Z</time>
</trkpt>
<trkpt lat="45.9056390" lon="10.3548540">
	<ele>1484.00</ele>
	<time>2025-04-29T09:19:53.000Z</time>
</trkpt>
<trkpt lat="45.9056480" lon="10.3548520">
	<ele>1484.20</ele>
	<time>2025-04-29T09:19:54.000Z</time>
</trkpt>
<trkpt lat="45.9056560" lon="10.3548550">
	<ele>1484.20</ele>
	<time>2025-04-29T09:19:55.000Z</time>
</trkpt>
<trkpt lat="45.9056620" lon="10.3548630">
	<ele>1484.40</ele>
	<time>2025-04-29T09:19:56.000Z</time>
</trkpt>
<trkpt lat="45.9056630" lon="10.3548700">
	<ele>1484.80</ele>
	<time>2025-04-29T09:19:57.000Z</time>
</trkpt>
<trkpt lat="45.9056690" lon="10.3548660">
	<ele>1485.00</ele>
	<time>2025-04-29T09:19:58.000Z</time>
</trkpt>
<trkpt lat="45.9056690" lon="10.3548650">
	<ele>1485.00</ele>
	<time>2025-04-29T09:19:59.000Z</time>
</trkpt>
<trkpt lat="45.9056790" lon="10.3548580">
	<ele>1485.40</ele>
	<time>2025-04-29T09:20:00.000Z</time>
</trkpt>
<trkpt lat="45.9056980" lon="10.3548520">
	<ele>1485.60</ele>
	<time>2025-04-29T09:20:01.000Z</time>
</trkpt>
<trkpt lat="45.9057100" lon="10.3548590">
	<ele>1485.80</ele>
	<time>2025-04-29T09:20:02.000Z</time>
</trkpt>
<trkpt lat="45.9057140" lon="10.3548620">
	<ele>1486.00</ele>
	<time>2025-04-29T09:20:03.000Z</time>
</trkpt>
<trkpt lat="45.9057300" lon="10.3548640">
	<ele>1486.20</ele>
	<time>2025-04-29T09:20:04.000Z</time>
</trkpt>
<trkpt lat="45.9057450" lon="10.3548580">
	<ele>1486.20</ele>
	<time>2025-04-29T09:20:05.000Z</time>
</trkpt>
<trkpt lat="45.9057480" lon="10.3548560">
	<ele>1486.40</ele>
	<time>2025-04-29T09:20:06.000Z</time>
</trkpt>
<trkpt lat="45.9057510" lon="10.3548560">
	<ele>1486.60</ele>
	<time>2025-04-29T09:20:07.000Z</time>
</trkpt>
<trkpt lat="45.9057530" lon="10.3548560">
	<ele>1486.80</ele>
	<time>2025-04-29T09:20:08.000Z</time>
</trkpt>
<trkpt lat="45.9057620" lon="10.3548600">
	<ele>1487.00</ele>
	<time>2025-04-29T09:20:09.000Z</time>
</trkpt>
<trkpt lat="45.9057640" lon="10.3548600">
	<ele>1487.20</ele>
	<time>2025-04-29T09:20:10.000Z</time>
</trkpt>
<trkpt lat="45.9057640" lon="10.3548580">
	<ele>1487.40</ele>
	<time>2025-04-29T09:20:11.000Z</time>
</trkpt>
<trkpt lat="45.9057630" lon="10.3548550">
	<ele>1487.40</ele>
	<time>2025-04-29T09:20:12.000Z</time>
</trkpt>
<trkpt lat="45.9057630" lon="10.3548520">
	<ele>1487.60</ele>
	<time>2025-04-29T09:20:13.000Z</time>
</trkpt>
<trkpt lat="45.9057560" lon="10.3548470">
	<ele>1487.80</ele>
	<time>2025-04-29T09:20:14.000Z</time>
</trkpt>
<trkpt lat="45.9057570" lon="10.3548460">
	<ele>1487.80</ele>
	<time>2025-04-29T09:20:15.000Z</time>
</trkpt>
<trkpt lat="45.9057560" lon="10.3548450">
	<ele>1487.80</ele>
	<time>2025-04-29T09:20:16.000Z</time>
</trkpt>
<trkpt lat="45.9057560" lon="10.3548400">
	<ele>1487.80</ele>
	<time>2025-04-29T09:20:17.000Z</time>
</trkpt>
<trkpt lat="45.9057550" lon="10.3548340">
	<ele>1488.00</ele>
	<time>2025-04-29T09:20:18.000Z</time>
</trkpt>
<trkpt lat="45.9057540" lon="10.3548240">
	<ele>1488.00</ele>
	<time>2025-04-29T09:20:19.000Z</time>
</trkpt>
<trkpt lat="45.9057540" lon="10.3548100">
	<ele>1488.20</ele>
	<time>2025-04-29T09:20:20.000Z</time>
</trkpt>
<trkpt lat="45.9057530" lon="10.3548000">
	<ele>1488.20</ele>
	<time>2025-04-29T09:20:21.000Z</time>
</trkpt>
<trkpt lat="45.9057540" lon="10.3547920">
	<ele>1488.20</ele>
	<time>2025-04-29T09:20:22.000Z</time>
</trkpt>
<trkpt lat="45.9057580" lon="10.3547770">
	<ele>1488.40</ele>
	<time>2025-04-29T09:20:23.000Z</time>
</trkpt>
<trkpt lat="45.9057610" lon="10.3547630">
	<ele>1488.60</ele>
	<time>2025-04-29T09:20:24.000Z</time>
</trkpt>
<trkpt lat="45.9057610" lon="10.3547530">
	<ele>1488.80</ele>
	<time>2025-04-29T09:20:25.000Z</time>
</trkpt>
<trkpt lat="45.9057590" lon="10.3547440">
	<ele>1489.00</ele>
	<time>2025-04-29T09:20:26.000Z</time>
</trkpt>
<trkpt lat="45.9057570" lon="10.3547360">
	<ele>1489.20</ele>
	<time>2025-04-29T09:20:27.000Z</time>
</trkpt>
<trkpt lat="45.9057540" lon="10.3547280">
	<ele>1489.40</ele>
	<time>2025-04-29T09:20:28.000Z</time>
</trkpt>
<trkpt lat="45.9057530" lon="10.3547210">
	<ele>1489.60</ele>
	<time>2025-04-29T09:20:29.000Z</time>
</trkpt>
<trkpt lat="45.9057530" lon="10.3547150">
	<ele>1489.60</ele>
	<time>2025-04-29T09:20:30.000Z</time>
</trkpt>
<trkpt lat="45.9057580" lon="10.3547060">
	<ele>1489.80</ele>
	<time>2025-04-29T09:20:31.000Z</time>
</trkpt>
<trkpt lat="45.9057640" lon="10.3546950">
	<ele>1490.00</ele>
	<time>2025-04-29T09:20:32.000Z</time>
</trkpt>
<trkpt lat="45.9057700" lon="10.3546860">
	<ele>1490.20</ele>
	<time>2025-04-29T09:20:33.000Z</time>
</trkpt>
<trkpt lat="45.9057790" lon="10.3546740">
	<ele>1490.60</ele>
	<time>2025-04-29T09:20:34.000Z</time>
</trkpt>
<trkpt lat="45.9057870" lon="10.3546610">
	<ele>1490.60</ele>
	<time>2025-04-29T09:20:35.000Z</time>
</trkpt>
<trkpt lat="45.9057920" lon="10.3546510">
	<ele>1491.00</ele>
	<time>2025-04-29T09:20:36.000Z</time>
</trkpt>
<trkpt lat="45.9057970" lon="10.3546400">
	<ele>1491.20</ele>
	<time>2025-04-29T09:20:37.000Z</time>
</trkpt>
<trkpt lat="45.9057990" lon="10.3546340">
	<ele>1491.60</ele>
	<time>2025-04-29T09:20:38.000Z</time>
</trkpt>
<trkpt lat="45.9058030" lon="10.3546210">
	<ele>1491.80</ele>
	<time>2025-04-29T09:20:39.000Z</time>
</trkpt>
<trkpt lat="45.9058160" lon="10.3545950">
	<ele>1492.00</ele>
	<time>2025-04-29T09:20:40.000Z</time>
</trkpt>
<trkpt lat="45.9058300" lon="10.3545770">
	<ele>1492.20</ele>
	<time>2025-04-29T09:20:41.000Z</time>
</trkpt>
<trkpt lat="45.9058350" lon="10.3545650">
	<ele>1492.40</ele>
	<time>2025-04-29T09:20:42.000Z</time>
</trkpt>
<trkpt lat="45.9058340" lon="10.3545540">
	<ele>1492.60</ele>
	<time>2025-04-29T09:20:43.000Z</time>
</trkpt>
<trkpt lat="45.9058290" lon="10.3545360">
	<ele>1492.80</ele>
	<time>2025-04-29T09:20:44.000Z</time>
</trkpt>
<trkpt lat="45.9058320" lon="10.3545140">
	<ele>1493.00</ele>
	<time>2025-04-29T09:20:45.000Z</time>
</trkpt>
<trkpt lat="45.9058420" lon="10.3544900">
	<ele>1493.40</ele>
	<time>2025-04-29T09:20:46.000Z</time>
</trkpt>
<trkpt lat="45.9058490" lon="10.3544820">
	<ele>1493.60</ele>
	<time>2025-04-29T09:20:47.000Z</time>
</trkpt>
<trkpt lat="45.9058530" lon="10.3544740">
	<ele>1493.80</ele>
	<time>2025-04-29T09:20:48.000Z</time>
</trkpt>
<trkpt lat="45.9058480" lon="10.3544650">
	<ele>1494.00</ele>
	<time>2025-04-29T09:20:49.000Z</time>
</trkpt>
<trkpt lat="45.9058500" lon="10.3544590">
	<ele>1494.20</ele>
	<time>2025-04-29T09:20:50.000Z</time>
</trkpt>
<trkpt lat="45.9058500" lon="10.3544560">
	<ele>1494.40</ele>
	<time>2025-04-29T09:20:51.000Z</time>
</trkpt>
<trkpt lat="45.9058540" lon="10.3544360">
	<ele>1494.80</ele>
	<time>2025-04-29T09:20:52.000Z</time>
</trkpt>
<trkpt lat="45.9058580" lon="10.3544200">
	<ele>1495.00</ele>
	<time>2025-04-29T09:20:53.000Z</time>
</trkpt>
<trkpt lat="45.9058600" lon="10.3543930">
	<ele>1495.00</ele>
	<time>2025-04-29T09:20:54.000Z</time>
</trkpt>
<trkpt lat="45.9058660" lon="10.3543520">
	<ele>1495.40</ele>
	<time>2025-04-29T09:20:55.000Z</time>
</trkpt>
<trkpt lat="45.9058670" lon="10.3543430">
	<ele>1495.60</ele>
	<time>2025-04-29T09:20:56.000Z</time>
</trkpt>
<trkpt lat="45.9058670" lon="10.3543390">
	<ele>1495.80</ele>
	<time>2025-04-29T09:20:57.000Z</time>
</trkpt>
<trkpt lat="45.9058660" lon="10.3543360">
	<ele>1496.20</ele>
	<time>2025-04-29T09:20:58.000Z</time>
</trkpt>
<trkpt lat="45.9058650" lon="10.3543340">
	<ele>1496.40</ele>
	<time>2025-04-29T09:20:59.000Z</time>
</trkpt>
<trkpt lat="45.9058640" lon="10.3543310">
	<ele>1496.60</ele>
	<time>2025-04-29T09:21:00.000Z</time>
</trkpt>
<trkpt lat="45.9058640" lon="10.3543320">
	<ele>1496.60</ele>
	<time>2025-04-29T09:21:01.000Z</time>
</trkpt>
<trkpt lat="45.9058620" lon="10.3543310">
	<ele>1496.60</ele>
	<time>2025-04-29T09:21:02.000Z</time>
</trkpt>
<trkpt lat="45.9058540" lon="10.3543090">
	<ele>1496.60</ele>
	<time>2025-04-29T09:21:03.000Z</time>
</trkpt>
<trkpt lat="45.9058610" lon="10.3542900">
	<ele>1496.60</ele>
	<time>2025-04-29T09:21:04.000Z</time>
</trkpt>
<trkpt lat="45.9058600" lon="10.3542780">
	<ele>1496.60</ele>
	<time>2025-04-29T09:21:05.000Z</time>
</trkpt>
<trkpt lat="45.9058600" lon="10.3542650">
	<ele>1496.60</ele>
	<time>2025-04-29T09:21:06.000Z</time>
</trkpt>
<trkpt lat="45.9058600" lon="10.3542480">
	<ele>1496.80</ele>
	<time>2025-04-29T09:21:07.000Z</time>
</trkpt>
<trkpt lat="45.9058590" lon="10.3542380">
	<ele>1497.00</ele>
	<time>2025-04-29T09:21:08.000Z</time>
</trkpt>
<trkpt lat="45.9058570" lon="10.3542490">
	<ele>1497.20</ele>
	<time>2025-04-29T09:21:09.000Z</time>
</trkpt>
<trkpt lat="45.9058520" lon="10.3542450">
	<ele>1497.20</ele>
	<time>2025-04-29T09:21:10.000Z</time>
</trkpt>
<trkpt lat="45.9058520" lon="10.3542420">
	<ele>1497.20</ele>
	<time>2025-04-29T09:21:11.000Z</time>
</trkpt>
<trkpt lat="45.9058520" lon="10.3542350">
	<ele>1497.40</ele>
	<time>2025-04-29T09:21:12.000Z</time>
</trkpt>
<trkpt lat="45.9058500" lon="10.3542270">
	<ele>1497.60</ele>
	<time>2025-04-29T09:21:13.000Z</time>
</trkpt>
<trkpt lat="45.9058490" lon="10.3542160">
	<ele>1497.80</ele>
	<time>2025-04-29T09:21:14.000Z</time>
</trkpt>
<trkpt lat="45.9058510" lon="10.3542030">
	<ele>1498.00</ele>
	<time>2025-04-29T09:21:15.000Z</time>
</trkpt>
<trkpt lat="45.9058570" lon="10.3541920">
	<ele>1498.40</ele>
	<time>2025-04-29T09:21:16.000Z</time>
</trkpt>
<trkpt lat="45.9058560" lon="10.3541880">
	<ele>1498.80</ele>
	<time>2025-04-29T09:21:17.000Z</time>
</trkpt>
<trkpt lat="45.9058520" lon="10.3541900">
	<ele>1499.00</ele>
	<time>2025-04-29T09:21:18.000Z</time>
</trkpt>
<trkpt lat="45.9058580" lon="10.3541910">
	<ele>1499.20</ele>
	<time>2025-04-29T09:21:19.000Z</time>
</trkpt>
<trkpt lat="45.9058620" lon="10.3541840">
	<ele>1499.40</ele>
	<time>2025-04-29T09:21:20.000Z</time>
</trkpt>
<trkpt lat="45.9058580" lon="10.3541790">
	<ele>1499.40</ele>
	<time>2025-04-29T09:21:21.000Z</time>
</trkpt>
<trkpt lat="45.9058590" lon="10.3541690">
	<ele>1499.60</ele>
	<time>2025-04-29T09:21:22.000Z</time>
</trkpt>
<trkpt lat="45.9058590" lon="10.3541600">
	<ele>1500.00</ele>
	<time>2025-04-29T09:21:23.000Z</time>
</trkpt>
<trkpt lat="45.9058610" lon="10.3541470">
	<ele>1500.20</ele>
	<time>2025-04-29T09:21:24.000Z</time>
</trkpt>
<trkpt lat="45.9058630" lon="10.3541350">
	<ele>1500.40</ele>
	<time>2025-04-29T09:21:25.000Z</time>
</trkpt>
<trkpt lat="45.9058640" lon="10.3541240">
	<ele>1500.60</ele>
	<time>2025-04-29T09:21:26.000Z</time>
</trkpt>
<trkpt lat="45.9058610" lon="10.3541110">
	<ele>1500.60</ele>
	<time>2025-04-29T09:21:27.000Z</time>
</trkpt>
<trkpt lat="45.9058590" lon="10.3541020">
	<ele>1500.80</ele>
	<time>2025-04-29T09:21:28.000Z</time>
</trkpt>
<trkpt lat="45.9058560" lon="10.3540920">
	<ele>1500.80</ele>
	<time>2025-04-29T09:21:29.000Z</time>
</trkpt>
<trkpt lat="45.9058510" lon="10.3540820">
	<ele>1501.00</ele>
	<time>2025-04-29T09:21:30.000Z</time>
</trkpt>
<trkpt lat="45.9058490" lon="10.3540720">
	<ele>1501.00</ele>
	<time>2025-04-29T09:21:31.000Z</time>
</trkpt>
<trkpt lat="45.9058480" lon="10.3540620">
	<ele>1501.20</ele>
	<time>2025-04-29T09:21:32.000Z</time>
</trkpt>
<trkpt lat="45.9058510" lon="10.3540510">
	<ele>1501.20</ele>
	<time>2025-04-29T09:21:33.000Z</time>
</trkpt>
<trkpt lat="45.9058560" lon="10.3540420">
	<ele>1501.60</ele>
	<time>2025-04-29T09:21:34.000Z</time>
</trkpt>
<trkpt lat="45.9058570" lon="10.3540350">
	<ele>1501.80</ele>
	<time>2025-04-29T09:21:35.000Z</time>
</trkpt>
<trkpt lat="45.9058570" lon="10.3540300">
	<ele>1502.00</ele>
	<time>2025-04-29T09:21:36.000Z</time>
</trkpt>
<trkpt lat="45.9058580" lon="10.3540230">
	<ele>1502.20</ele>
	<time>2025-04-29T09:21:37.000Z</time>
</trkpt>
<trkpt lat="45.9058530" lon="10.3540180">
	<ele>1502.40</ele>
	<time>2025-04-29T09:21:38.000Z</time>
</trkpt>
<trkpt lat="45.9058520" lon="10.3540080">
	<ele>1502.60</ele>
	<time>2025-04-29T09:21:39.000Z</time>
</trkpt>
<trkpt lat="45.9058560" lon="10.3540030">
	<ele>1502.80</ele>
	<time>2025-04-29T09:21:40.000Z</time>
</trkpt>
<trkpt lat="45.9058620" lon="10.3539950">
	<ele>1503.00</ele>
	<time>2025-04-29T09:21:41.000Z</time>
</trkpt>
<trkpt lat="45.9058660" lon="10.3539820">
	<ele>1503.00</ele>
	<time>2025-04-29T09:21:42.000Z</time>
</trkpt>
<trkpt lat="45.9058640" lon="10.3539680">
	<ele>1503.40</ele>
	<time>2025-04-29T09:21:43.000Z</time>
</trkpt>
<trkpt lat="45.9058590" lon="10.3539510">
	<ele>1503.60</ele>
	<time>2025-04-29T09:21:44.000Z</time>
</trkpt>
<trkpt lat="45.9058560" lon="10.3539370">
	<ele>1503.80</ele>
	<time>2025-04-29T09:21:45.000Z</time>
</trkpt>
<trkpt lat="45.9058510" lon="10.3539240">
	<ele>1504.00</ele>
	<time>2025-04-29T09:21:46.000Z</time>
</trkpt>
<trkpt lat="45.9058450" lon="10.3539100">
	<ele>1504.00</ele>
	<time>2025-04-29T09:21:47.000Z</time>
</trkpt>
<trkpt lat="45.9058410" lon="10.3538960">
	<ele>1504.20</ele>
	<time>2025-04-29T09:21:48.000Z</time>
</trkpt>
<trkpt lat="45.9058370" lon="10.3538840">
	<ele>1504.20</ele>
	<time>2025-04-29T09:21:49.000Z</time>
</trkpt>
<trkpt lat="45.9058350" lon="10.3538690">
	<ele>1504.40</ele>
	<time>2025-04-29T09:21:50.000Z</time>
</trkpt>
<trkpt lat="45.9058300" lon="10.3538570">
	<ele>1504.40</ele>
	<time>2025-04-29T09:21:51.000Z</time>
</trkpt>
<trkpt lat="45.9058260" lon="10.3538410">
	<ele>1504.60</ele>
	<time>2025-04-29T09:21:52.000Z</time>
</trkpt>
<trkpt lat="45.9058190" lon="10.3538250">
	<ele>1504.80</ele>
	<time>2025-04-29T09:21:53.000Z</time>
</trkpt>
<trkpt lat="45.9058150" lon="10.3538130">
	<ele>1504.80</ele>
	<time>2025-04-29T09:21:54.000Z</time>
</trkpt>
<trkpt lat="45.9058110" lon="10.3538010">
	<ele>1505.00</ele>
	<time>2025-04-29T09:21:55.000Z</time>
</trkpt>
<trkpt lat="45.9058070" lon="10.3537890">
	<ele>1505.00</ele>
	<time>2025-04-29T09:21:56.000Z</time>
</trkpt>
<trkpt lat="45.9058010" lon="10.3537780">
	<ele>1505.00</ele>
	<time>2025-04-29T09:21:57.000Z</time>
</trkpt>
<trkpt lat="45.9057960" lon="10.3537650">
	<ele>1505.20</ele>
	<time>2025-04-29T09:21:58.000Z</time>
</trkpt>
<trkpt lat="45.9057870" lon="10.3537520">
	<ele>1505.20</ele>
	<time>2025-04-29T09:21:59.000Z</time>
</trkpt>
<trkpt lat="45.9057820" lon="10.3537340">
	<ele>1505.60</ele>
	<time>2025-04-29T09:22:00.000Z</time>
</trkpt>
<trkpt lat="45.9057810" lon="10.3537210">
	<ele>1505.80</ele>
	<time>2025-04-29T09:22:01.000Z</time>
</trkpt>
<trkpt lat="45.9057770" lon="10.3537110">
	<ele>1506.00</ele>
	<time>2025-04-29T09:22:02.000Z</time>
</trkpt>
<trkpt lat="45.9057710" lon="10.3536980">
	<ele>1506.00</ele>
	<time>2025-04-29T09:22:03.000Z</time>
</trkpt>
<trkpt lat="45.9057660" lon="10.3536870">
	<ele>1506.00</ele>
	<time>2025-04-29T09:22:04.000Z</time>
</trkpt>
<trkpt lat="45.9057650" lon="10.3536730">
	<ele>1506.20</ele>
	<time>2025-04-29T09:22:05.000Z</time>
</trkpt>
<trkpt lat="45.9057630" lon="10.3536590">
	<ele>1506.20</ele>
	<time>2025-04-29T09:22:06.000Z</time>
</trkpt>
<trkpt lat="45.9057610" lon="10.3536450">
	<ele>1506.20</ele>
	<time>2025-04-29T09:22:07.000Z</time>
</trkpt>
<trkpt lat="45.9057610" lon="10.3536300">
	<ele>1506.40</ele>
	<time>2025-04-29T09:22:08.000Z</time>
</trkpt>
<trkpt lat="45.9057590" lon="10.3536180">
	<ele>1506.40</ele>
	<time>2025-04-29T09:22:09.000Z</time>
</trkpt>
<trkpt lat="45.9057540" lon="10.3536060">
	<ele>1506.40</ele>
	<time>2025-04-29T09:22:10.000Z</time>
</trkpt>
<trkpt lat="45.9057480" lon="10.3535960">
	<ele>1506.60</ele>
	<time>2025-04-29T09:22:11.000Z</time>
</trkpt>
<trkpt lat="45.9057400" lon="10.3535840">
	<ele>1506.60</ele>
	<time>2025-04-29T09:22:12.000Z</time>
</trkpt>
<trkpt lat="45.9057360" lon="10.3535700">
	<ele>1506.80</ele>
	<time>2025-04-29T09:22:13.000Z</time>
</trkpt>
<trkpt lat="45.9057320" lon="10.3535550">
	<ele>1507.00</ele>
	<time>2025-04-29T09:22:14.000Z</time>
</trkpt>
<trkpt lat="45.9057260" lon="10.3535470">
	<ele>1507.20</ele>
	<time>2025-04-29T09:22:15.000Z</time>
</trkpt>
<trkpt lat="45.9057230" lon="10.3535320">
	<ele>1507.20</ele>
	<time>2025-04-29T09:22:16.000Z</time>
</trkpt>
<trkpt lat="45.9057170" lon="10.3535180">
	<ele>1507.60</ele>
	<time>2025-04-29T09:22:17.000Z</time>
</trkpt>
<trkpt lat="45.9057170" lon="10.3535010">
	<ele>1508.00</ele>
	<time>2025-04-29T09:22:18.000Z</time>
</trkpt>
<trkpt lat="45.9057150" lon="10.3534850">
	<ele>1508.20</ele>
	<time>2025-04-29T09:22:19.000Z</time>
</trkpt>
<trkpt lat="45.9057130" lon="10.3534720">
	<ele>1508.40</ele>
	<time>2025-04-29T09:22:20.000Z</time>
</trkpt>
<trkpt lat="45.9057160" lon="10.3534540">
	<ele>1508.40</ele>
	<time>2025-04-29T09:22:21.000Z</time>
</trkpt>
<trkpt lat="45.9057160" lon="10.3534390">
	<ele>1508.60</ele>
	<time>2025-04-29T09:22:22.000Z</time>
</trkpt>
<trkpt lat="45.9057120" lon="10.3534250">
	<ele>1508.80</ele>
	<time>2025-04-29T09:22:23.000Z</time>
</trkpt>
<trkpt lat="45.9057130" lon="10.3534100">
	<ele>1508.80</ele>
	<time>2025-04-29T09:22:24.000Z</time>
</trkpt>
<trkpt lat="45.9057200" lon="10.3534000">
	<ele>1509.00</ele>
	<time>2025-04-29T09:22:25.000Z</time>
</trkpt>
<trkpt lat="45.9057180" lon="10.3533910">
	<ele>1509.00</ele>
	<time>2025-04-29T09:22:26.000Z</time>
</trkpt>
<trkpt lat="45.9057140" lon="10.3533820">
	<ele>1509.20</ele>
	<time>2025-04-29T09:22:27.000Z</time>
</trkpt>
<trkpt lat="45.9057100" lon="10.3533780">
	<ele>1509.20</ele>
	<time>2025-04-29T09:22:28.000Z</time>
</trkpt>
<trkpt lat="45.9057160" lon="10.3533700">
	<ele>1509.40</ele>
	<time>2025-04-29T09:22:29.000Z</time>
</trkpt>
<trkpt lat="45.9057140" lon="10.3533620">
	<ele>1509.60</ele>
	<time>2025-04-29T09:22:30.000Z</time>
</trkpt>
<trkpt lat="45.9057140" lon="10.3533490">
	<ele>1509.60</ele>
	<time>2025-04-29T09:22:31.000Z</time>
</trkpt>
<trkpt lat="45.9057090" lon="10.3533400">
	<ele>1509.80</ele>
	<time>2025-04-29T09:22:32.000Z</time>
</trkpt>
<trkpt lat="45.9057080" lon="10.3533270">
	<ele>1510.00</ele>
	<time>2025-04-29T09:22:33.000Z</time>
</trkpt>
<trkpt lat="45.9057050" lon="10.3533170">
	<ele>1510.40</ele>
	<time>2025-04-29T09:22:34.000Z</time>
</trkpt>
<trkpt lat="45.9057010" lon="10.3533060">
	<ele>1510.60</ele>
	<time>2025-04-29T09:22:35.000Z</time>
</trkpt>
<trkpt lat="45.9056990" lon="10.3532930">
	<ele>1510.80</ele>
	<time>2025-04-29T09:22:36.000Z</time>
</trkpt>
<trkpt lat="45.9056960" lon="10.3532750">
	<ele>1511.00</ele>
	<time>2025-04-29T09:22:37.000Z</time>
</trkpt>
<trkpt lat="45.9056880" lon="10.3532620">
	<ele>1511.20</ele>
	<time>2025-04-29T09:22:38.000Z</time>
</trkpt>
<trkpt lat="45.9056770" lon="10.3532550">
	<ele>1511.60</ele>
	<time>2025-04-29T09:22:39.000Z</time>
</trkpt>
<trkpt lat="45.9056720" lon="10.3532490">
	<ele>1511.60</ele>
	<time>2025-04-29T09:22:40.000Z</time>
</trkpt>
<trkpt lat="45.9056690" lon="10.3532370">
	<ele>1511.80</ele>
	<time>2025-04-29T09:22:41.000Z</time>
</trkpt>
<trkpt lat="45.9056660" lon="10.3532230">
	<ele>1511.80</ele>
	<time>2025-04-29T09:22:42.000Z</time>
</trkpt>
<trkpt lat="45.9056650" lon="10.3532050">
	<ele>1512.00</ele>
	<time>2025-04-29T09:22:43.000Z</time>
</trkpt>
<trkpt lat="45.9056690" lon="10.3531830">
	<ele>1512.00</ele>
	<time>2025-04-29T09:22:44.000Z</time>
</trkpt>
<trkpt lat="45.9056670" lon="10.3531660">
	<ele>1512.20</ele>
	<time>2025-04-29T09:22:45.000Z</time>
</trkpt>
<trkpt lat="45.9056620" lon="10.3531540">
	<ele>1512.20</ele>
	<time>2025-04-29T09:22:46.000Z</time>
</trkpt>
<trkpt lat="45.9056550" lon="10.3531410">
	<ele>1512.20</ele>
	<time>2025-04-29T09:22:47.000Z</time>
</trkpt>
<trkpt lat="45.9056520" lon="10.3531250">
	<ele>1512.40</ele>
	<time>2025-04-29T09:22:48.000Z</time>
</trkpt>
<trkpt lat="45.9056470" lon="10.3531090">
	<ele>1512.40</ele>
	<time>2025-04-29T09:22:49.000Z</time>
</trkpt>
<trkpt lat="45.9056420" lon="10.3531000">
	<ele>1512.40</ele>
	<time>2025-04-29T09:22:50.000Z</time>
</trkpt>
<trkpt lat="45.9056390" lon="10.3530870">
	<ele>1512.60</ele>
	<time>2025-04-29T09:22:51.000Z</time>
</trkpt>
<trkpt lat="45.9056350" lon="10.3530750">
	<ele>1512.60</ele>
	<time>2025-04-29T09:22:52.000Z</time>
</trkpt>
<trkpt lat="45.9056330" lon="10.3530630">
	<ele>1512.80</ele>
	<time>2025-04-29T09:22:53.000Z</time>
</trkpt>
<trkpt lat="45.9056330" lon="10.3530540">
	<ele>1513.00</ele>
	<time>2025-04-29T09:22:54.000Z</time>
</trkpt>
<trkpt lat="45.9056290" lon="10.3530430">
	<ele>1513.00</ele>
	<time>2025-04-29T09:22:55.000Z</time>
</trkpt>
<trkpt lat="45.9056250" lon="10.3530300">
	<ele>1513.00</ele>
	<time>2025-04-29T09:22:56.000Z</time>
</trkpt>
<trkpt lat="45.9056220" lon="10.3530210">
	<ele>1513.40</ele>
	<time>2025-04-29T09:22:57.000Z</time>
</trkpt>
<trkpt lat="45.9056210" lon="10.3530110">
	<ele>1514.00</ele>
	<time>2025-04-29T09:22:58.000Z</time>
</trkpt>
<trkpt lat="45.9056200" lon="10.3529970">
	<ele>1514.20</ele>
	<time>2025-04-29T09:22:59.000Z</time>
</trkpt>
<trkpt lat="45.9056210" lon="10.3529800">
	<ele>1514.40</ele>
	<time>2025-04-29T09:23:00.000Z</time>
</trkpt>
<trkpt lat="45.9056240" lon="10.3529600">
	<ele>1514.60</ele>
	<time>2025-04-29T09:23:01.000Z</time>
</trkpt>
<trkpt lat="45.9056240" lon="10.3529470">
	<ele>1514.60</ele>
	<time>2025-04-29T09:23:02.000Z</time>
</trkpt>
<trkpt lat="45.9056200" lon="10.3529440">
	<ele>1514.80</ele>
	<time>2025-04-29T09:23:03.000Z</time>
</trkpt>
<trkpt lat="45.9056130" lon="10.3529380">
	<ele>1515.00</ele>
	<time>2025-04-29T09:23:04.000Z</time>
</trkpt>
<trkpt lat="45.9056070" lon="10.3529250">
	<ele>1515.20</ele>
	<time>2025-04-29T09:23:05.000Z</time>
</trkpt>
<trkpt lat="45.9056000" lon="10.3529130">
	<ele>1515.40</ele>
	<time>2025-04-29T09:23:06.000Z</time>
</trkpt>
<trkpt lat="45.9055950" lon="10.3529030">
	<ele>1515.40</ele>
	<time>2025-04-29T09:23:07.000Z</time>
</trkpt>
<trkpt lat="45.9055920" lon="10.3528840">
	<ele>1515.60</ele>
	<time>2025-04-29T09:23:08.000Z</time>
</trkpt>
<trkpt lat="45.9055880" lon="10.3528710">
	<ele>1515.60</ele>
	<time>2025-04-29T09:23:09.000Z</time>
</trkpt>
<trkpt lat="45.9055820" lon="10.3528560">
	<ele>1515.80</ele>
	<time>2025-04-29T09:23:10.000Z</time>
</trkpt>
<trkpt lat="45.9055780" lon="10.3528460">
	<ele>1516.00</ele>
	<time>2025-04-29T09:23:11.000Z</time>
</trkpt>
<trkpt lat="45.9055670" lon="10.3528380">
	<ele>1516.20</ele>
	<time>2025-04-29T09:23:12.000Z</time>
</trkpt>
<trkpt lat="45.9055600" lon="10.3528280">
	<ele>1516.40</ele>
	<time>2025-04-29T09:23:13.000Z</time>
</trkpt>
<trkpt lat="45.9055500" lon="10.3528180">
	<ele>1516.60</ele>
	<time>2025-04-29T09:23:14.000Z</time>
</trkpt>
<trkpt lat="45.9055430" lon="10.3528130">
	<ele>1516.80</ele>
	<time>2025-04-29T09:23:15.000Z</time>
</trkpt>
<trkpt lat="45.9055390" lon="10.3528030">
	<ele>1517.00</ele>
	<time>2025-04-29T09:23:16.000Z</time>
</trkpt>
<trkpt lat="45.9055490" lon="10.3527770">
	<ele>1517.20</ele>
	<time>2025-04-29T09:23:17.000Z</time>
</trkpt>
<trkpt lat="45.9055480" lon="10.3527700">
	<ele>1517.40</ele>
	<time>2025-04-29T09:23:18.000Z</time>
</trkpt>
<trkpt lat="45.9055460" lon="10.3527620">
	<ele>1517.40</ele>
	<time>2025-04-29T09:23:19.000Z</time>
</trkpt>
<trkpt lat="45.9055450" lon="10.3527490">
	<ele>1517.40</ele>
	<time>2025-04-29T09:23:20.000Z</time>
</trkpt>
<trkpt lat="45.9055440" lon="10.3527360">
	<ele>1517.40</ele>
	<time>2025-04-29T09:23:21.000Z</time>
</trkpt>
<trkpt lat="45.9055410" lon="10.3527250">
	<ele>1517.40</ele>
	<time>2025-04-29T09:23:22.000Z</time>
</trkpt>
<trkpt lat="45.9055420" lon="10.3527140">
	<ele>1517.40</ele>
	<time>2025-04-29T09:23:23.000Z</time>
</trkpt>
<trkpt lat="45.9055420" lon="10.3527010">
	<ele>1517.60</ele>
	<time>2025-04-29T09:23:24.000Z</time>
</trkpt>
<trkpt lat="45.9055460" lon="10.3526850">
	<ele>1517.80</ele>
	<time>2025-04-29T09:23:25.000Z</time>
</trkpt>
<trkpt lat="45.9055440" lon="10.3526680">
	<ele>1518.00</ele>
	<time>2025-04-29T09:23:26.000Z</time>
</trkpt>
<trkpt lat="45.9055420" lon="10.3526540">
	<ele>1518.20</ele>
	<time>2025-04-29T09:23:27.000Z</time>
</trkpt>
<trkpt lat="45.9055350" lon="10.3526420">
	<ele>1518.40</ele>
	<time>2025-04-29T09:23:28.000Z</time>
</trkpt>
<trkpt lat="45.9055280" lon="10.3526310">
	<ele>1518.60</ele>
	<time>2025-04-29T09:23:29.000Z</time>
</trkpt>
<trkpt lat="45.9055190" lon="10.3526200">
	<ele>1518.80</ele>
	<time>2025-04-29T09:23:30.000Z</time>
</trkpt>
<trkpt lat="45.9055120" lon="10.3526070">
	<ele>1518.80</ele>
	<time>2025-04-29T09:23:31.000Z</time>
</trkpt>
<trkpt lat="45.9055090" lon="10.3525910">
	<ele>1518.80</ele>
	<time>2025-04-29T09:23:32.000Z</time>
</trkpt>
<trkpt lat="45.9055050" lon="10.3525740">
	<ele>1518.80</ele>
	<time>2025-04-29T09:23:33.000Z</time>
</trkpt>
<trkpt lat="45.9055000" lon="10.3525590">
	<ele>1518.80</ele>
	<time>2025-04-29T09:23:34.000Z</time>
</trkpt>
<trkpt lat="45.9054930" lon="10.3525440">
	<ele>1519.00</ele>
	<time>2025-04-29T09:23:35.000Z</time>
</trkpt>
<trkpt lat="45.9054840" lon="10.3525330">
	<ele>1519.00</ele>
	<time>2025-04-29T09:23:36.000Z</time>
</trkpt>
<trkpt lat="45.9054770" lon="10.3525230">
	<ele>1519.00</ele>
	<time>2025-04-29T09:23:37.000Z</time>
</trkpt>
<trkpt lat="45.9054710" lon="10.3525120">
	<ele>1519.20</ele>
	<time>2025-04-29T09:23:38.000Z</time>
</trkpt>
<trkpt lat="45.9054640" lon="10.3525010">
	<ele>1519.20</ele>
	<time>2025-04-29T09:23:39.000Z</time>
</trkpt>
<trkpt lat="45.9054620" lon="10.3524850">
	<ele>1519.20</ele>
	<time>2025-04-29T09:23:40.000Z</time>
</trkpt>
<trkpt lat="45.9054560" lon="10.3524720">
	<ele>1519.20</ele>
	<time>2025-04-29T09:23:41.000Z</time>
</trkpt>
<trkpt lat="45.9054550" lon="10.3524570">
	<ele>1519.20</ele>
	<time>2025-04-29T09:23:42.000Z</time>
</trkpt>
<trkpt lat="45.9054530" lon="10.3524420">
	<ele>1519.40</ele>
	<time>2025-04-29T09:23:43.000Z</time>
</trkpt>
<trkpt lat="45.9054500" lon="10.3524270">
	<ele>1519.40</ele>
	<time>2025-04-29T09:23:44.000Z</time>
</trkpt>
<trkpt lat="45.9054450" lon="10.3524160">
	<ele>1519.60</ele>
	<time>2025-04-29T09:23:45.000Z</time>
</trkpt>
<trkpt lat="45.9054400" lon="10.3523990">
	<ele>1519.60</ele>
	<time>2025-04-29T09:23:46.000Z</time>
</trkpt>
<trkpt lat="45.9054320" lon="10.3523850">
	<ele>1519.60</ele>
	<time>2025-04-29T09:23:47.000Z</time>
</trkpt>
<trkpt lat="45.9054270" lon="10.3523720">
	<ele>1519.80</ele>
	<time>2025-04-29T09:23:48.000Z</time>
</trkpt>
<trkpt lat="45.9054230" lon="10.3523590">
	<ele>1519.80</ele>
	<time>2025-04-29T09:23:49.000Z</time>
</trkpt>
<trkpt lat="45.9054200" lon="10.3523470">
	<ele>1520.00</ele>
	<time>2025-04-29T09:23:50.000Z</time>
</trkpt>
<trkpt lat="45.9054140" lon="10.3523320">
	<ele>1520.00</ele>
	<time>2025-04-29T09:23:51.000Z</time>
</trkpt>
<trkpt lat="45.9054120" lon="10.3523190">
	<ele>1520.20</ele>
	<time>2025-04-29T09:23:52.000Z</time>
</trkpt>
<trkpt lat="45.9054080" lon="10.3523080">
	<ele>1520.60</ele>
	<time>2025-04-29T09:23:53.000Z</time>
</trkpt>
<trkpt lat="45.9054030" lon="10.3522940">
	<ele>1520.80</ele>
	<time>2025-04-29T09:23:54.000Z</time>
</trkpt>
<trkpt lat="45.9053960" lon="10.3522830">
	<ele>1520.80</ele>
	<time>2025-04-29T09:23:55.000Z</time>
</trkpt>
<trkpt lat="45.9053880" lon="10.3522740">
	<ele>1521.00</ele>
	<time>2025-04-29T09:23:56.000Z</time>
</trkpt>
<trkpt lat="45.9053850" lon="10.3522670">
	<ele>1521.20</ele>
	<time>2025-04-29T09:23:57.000Z</time>
</trkpt>
<trkpt lat="45.9053810" lon="10.3522610">
	<ele>1521.40</ele>
	<time>2025-04-29T09:23:58.000Z</time>
</trkpt>
<trkpt lat="45.9053740" lon="10.3522550">
	<ele>1521.80</ele>
	<time>2025-04-29T09:23:59.000Z</time>
</trkpt>
<trkpt lat="45.9053660" lon="10.3522460">
	<ele>1522.00</ele>
	<time>2025-04-29T09:24:00.000Z</time>
</trkpt>
<trkpt lat="45.9053620" lon="10.3522320">
	<ele>1522.20</ele>
	<time>2025-04-29T09:24:01.000Z</time>
</trkpt>
<trkpt lat="45.9053640" lon="10.3522120">
	<ele>1522.40</ele>
	<time>2025-04-29T09:24:02.000Z</time>
</trkpt>
<trkpt lat="45.9053640" lon="10.3521950">
	<ele>1522.40</ele>
	<time>2025-04-29T09:24:03.000Z</time>
</trkpt>
<trkpt lat="45.9053620" lon="10.3521850">
	<ele>1522.80</ele>
	<time>2025-04-29T09:24:04.000Z</time>
</trkpt>
<trkpt lat="45.9053630" lon="10.3521710">
	<ele>1522.80</ele>
	<time>2025-04-29T09:24:05.000Z</time>
</trkpt>
<trkpt lat="45.9053580" lon="10.3521560">
	<ele>1523.00</ele>
	<time>2025-04-29T09:24:06.000Z</time>
</trkpt>
<trkpt lat="45.9053510" lon="10.3521490">
	<ele>1523.40</ele>
	<time>2025-04-29T09:24:07.000Z</time>
</trkpt>
<trkpt lat="45.9053480" lon="10.3521420">
	<ele>1523.40</ele>
	<time>2025-04-29T09:24:08.000Z</time>
</trkpt>
<trkpt lat="45.9053460" lon="10.3521360">
	<ele>1523.60</ele>
	<time>2025-04-29T09:24:09.000Z</time>
</trkpt>
<trkpt lat="45.9053450" lon="10.3521250">
	<ele>1523.60</ele>
	<time>2025-04-29T09:24:10.000Z</time>
</trkpt>
<trkpt lat="45.9053440" lon="10.3521100">
	<ele>1523.80</ele>
	<time>2025-04-29T09:24:11.000Z</time>
</trkpt>
<trkpt lat="45.9053470" lon="10.3520970">
	<ele>1523.80</ele>
	<time>2025-04-29T09:24:12.000Z</time>
</trkpt>
<trkpt lat="45.9053490" lon="10.3520840">
	<ele>1524.00</ele>
	<time>2025-04-29T09:24:13.000Z</time>
</trkpt>
<trkpt lat="45.9053470" lon="10.3520810">
	<ele>1524.20</ele>
	<time>2025-04-29T09:24:14.000Z</time>
</trkpt>
<trkpt lat="45.9053480" lon="10.3520780">
	<ele>1524.40</ele>
	<time>2025-04-29T09:24:15.000Z</time>
</trkpt>
<trkpt lat="45.9053480" lon="10.3520780">
	<ele>1524.40</ele>
	<time>2025-04-29T09:24:16.000Z</time>
</trkpt>
<trkpt lat="45.9053500" lon="10.3520770">
	<ele>1524.60</ele>
	<time>2025-04-29T09:24:17.000Z</time>
</trkpt>
<trkpt lat="45.9053530" lon="10.3520770">
	<ele>1524.60</ele>
	<time>2025-04-29T09:24:18.000Z</time>
</trkpt>
<trkpt lat="45.9053460" lon="10.3520780">
	<ele>1524.80</ele>
	<time>2025-04-29T09:24:19.000Z</time>
</trkpt>
<trkpt lat="45.9053470" lon="10.3520790">
	<ele>1524.80</ele>
	<time>2025-04-29T09:24:20.000Z</time>
</trkpt>
<trkpt lat="45.9053480" lon="10.3520800">
	<ele>1525.00</ele>
	<time>2025-04-29T09:24:21.000Z</time>
</trkpt>
<trkpt lat="45.9053460" lon="10.3520700">
	<ele>1525.00</ele>
	<time>2025-04-29T09:24:22.000Z</time>
</trkpt>
<trkpt lat="45.9053440" lon="10.3520610">
	<ele>1525.00</ele>
	<time>2025-04-29T09:24:23.000Z</time>
</trkpt>
<trkpt lat="45.9053390" lon="10.3520550">
	<ele>1525.00</ele>
	<time>2025-04-29T09:24:24.000Z</time>
</trkpt>
<trkpt lat="45.9053290" lon="10.3520470">
	<ele>1525.00</ele>
	<time>2025-04-29T09:24:25.000Z</time>
</trkpt>
<trkpt lat="45.9053160" lon="10.3520350">
	<ele>1525.00</ele>
	<time>2025-04-29T09:24:26.000Z</time>
</trkpt>
<trkpt lat="45.9053060" lon="10.3520240">
	<ele>1525.00</ele>
	<time>2025-04-29T09:24:27.000Z</time>
</trkpt>
<trkpt lat="45.9052960" lon="10.3520130">
	<ele>1525.00</ele>
	<time>2025-04-29T09:24:28.000Z</time>
</trkpt>
<trkpt lat="45.9052850" lon="10.3520050">
	<ele>1525.00</ele>
	<time>2025-04-29T09:24:29.000Z</time>
</trkpt>
<trkpt lat="45.9052760" lon="10.3519970">
	<ele>1525.00</ele>
	<time>2025-04-29T09:24:30.000Z</time>
</trkpt>
<trkpt lat="45.9052690" lon="10.3519850">
	<ele>1525.00</ele>
	<time>2025-04-29T09:24:31.000Z</time>
</trkpt>
<trkpt lat="45.9052590" lon="10.3519790">
	<ele>1525.00</ele>
	<time>2025-04-29T09:24:32.000Z</time>
</trkpt>
<trkpt lat="45.9052440" lon="10.3519740">
	<ele>1524.80</ele>
	<time>2025-04-29T09:24:33.000Z</time>
</trkpt>
<trkpt lat="45.9052270" lon="10.3519660">
	<ele>1524.80</ele>
	<time>2025-04-29T09:24:34.000Z</time>
</trkpt>
<trkpt lat="45.9052160" lon="10.3519520">
	<ele>1524.80</ele>
	<time>2025-04-29T09:24:35.000Z</time>
</trkpt>
<trkpt lat="45.9052050" lon="10.3519340">
	<ele>1524.80</ele>
	<time>2025-04-29T09:24:36.000Z</time>
</trkpt>
<trkpt lat="45.9051970" lon="10.3519100">
	<ele>1524.80</ele>
	<time>2025-04-29T09:24:37.000Z</time>
</trkpt>
<trkpt lat="45.9051900" lon="10.3518900">
	<ele>1524.80</ele>
	<time>2025-04-29T09:24:38.000Z</time>
</trkpt>
<trkpt lat="45.9051830" lon="10.3518750">
	<ele>1524.80</ele>
	<time>2025-04-29T09:24:39.000Z</time>
</trkpt>
<trkpt lat="45.9051730" lon="10.3518650">
	<ele>1524.80</ele>
	<time>2025-04-29T09:24:40.000Z</time>
</trkpt>
<trkpt lat="45.9051700" lon="10.3518510">
	<ele>1524.80</ele>
	<time>2025-04-29T09:24:41.000Z</time>
</trkpt>
<trkpt lat="45.9051610" lon="10.3518380">
	<ele>1525.00</ele>
	<time>2025-04-29T09:24:42.000Z</time>
</trkpt>
<trkpt lat="45.9051520" lon="10.3518260">
	<ele>1525.00</ele>
	<time>2025-04-29T09:24:43.000Z</time>
</trkpt>
<trkpt lat="45.9051440" lon="10.3518080">
	<ele>1525.00</ele>
	<time>2025-04-29T09:24:44.000Z</time>
</trkpt>
<trkpt lat="45.9051370" lon="10.3517890">
	<ele>1525.20</ele>
	<time>2025-04-29T09:24:45.000Z</time>
</trkpt>
<trkpt lat="45.9051280" lon="10.3517710">
	<ele>1525.20</ele>
	<time>2025-04-29T09:24:46.000Z</time>
</trkpt>
<trkpt lat="45.9051190" lon="10.3517550">
	<ele>1525.20</ele>
	<time>2025-04-29T09:24:47.000Z</time>
</trkpt>
<trkpt lat="45.9051070" lon="10.3517390">
	<ele>1525.20</ele>
	<time>2025-04-29T09:24:48.000Z</time>
</trkpt>
<trkpt lat="45.9050960" lon="10.3517210">
	<ele>1525.20</ele>
	<time>2025-04-29T09:24:49.000Z</time>
</trkpt>
<trkpt lat="45.9050890" lon="10.3517070">
	<ele>1525.20</ele>
	<time>2025-04-29T09:24:50.000Z</time>
</trkpt>
<trkpt lat="45.9050840" lon="10.3516880">
	<ele>1525.00</ele>
	<time>2025-04-29T09:24:51.000Z</time>
</trkpt>
<trkpt lat="45.9050830" lon="10.3516640">
	<ele>1524.80</ele>
	<time>2025-04-29T09:24:52.000Z</time>
</trkpt>
<trkpt lat="45.9050780" lon="10.3516430">
	<ele>1524.80</ele>
	<time>2025-04-29T09:24:53.000Z</time>
</trkpt>
<trkpt lat="45.9050680" lon="10.3516250">
	<ele>1524.80</ele>
	<time>2025-04-29T09:24:54.000Z</time>
</trkpt>
<trkpt lat="45.9050580" lon="10.3516120">
	<ele>1524.60</ele>
	<time>2025-04-29T09:24:55.000Z</time>
</trkpt>
<trkpt lat="45.9050460" lon="10.3516010">
	<ele>1524.80</ele>
	<time>2025-04-29T09:24:56.000Z</time>
</trkpt>
<trkpt lat="45.9050310" lon="10.3515950">
	<ele>1524.80</ele>
	<time>2025-04-29T09:24:57.000Z</time>
</trkpt>
<trkpt lat="45.9050220" lon="10.3515890">
	<ele>1524.80</ele>
	<time>2025-04-29T09:24:58.000Z</time>
</trkpt>
<trkpt lat="45.9050110" lon="10.3515730">
	<ele>1524.80</ele>
	<time>2025-04-29T09:24:59.000Z</time>
</trkpt>
<trkpt lat="45.9050120" lon="10.3515450">
	<ele>1524.80</ele>
	<time>2025-04-29T09:25:00.000Z</time>
</trkpt>
<trkpt lat="45.9050100" lon="10.3515210">
	<ele>1524.80</ele>
	<time>2025-04-29T09:25:01.000Z</time>
</trkpt>
<trkpt lat="45.9050090" lon="10.3514960">
	<ele>1524.80</ele>
	<time>2025-04-29T09:25:02.000Z</time>
</trkpt>
<trkpt lat="45.9050000" lon="10.3514740">
	<ele>1524.80</ele>
	<time>2025-04-29T09:25:03.000Z</time>
</trkpt>
<trkpt lat="45.9049900" lon="10.3514530">
	<ele>1525.00</ele>
	<time>2025-04-29T09:25:04.000Z</time>
</trkpt>
<trkpt lat="45.9049850" lon="10.3514310">
	<ele>1525.00</ele>
	<time>2025-04-29T09:25:05.000Z</time>
</trkpt>
<trkpt lat="45.9049760" lon="10.3514100">
	<ele>1525.00</ele>
	<time>2025-04-29T09:25:06.000Z</time>
</trkpt>
<trkpt lat="45.9049650" lon="10.3513940">
	<ele>1525.20</ele>
	<time>2025-04-29T09:25:07.000Z</time>
</trkpt>
<trkpt lat="45.9049470" lon="10.3513880">
	<ele>1525.20</ele>
	<time>2025-04-29T09:25:08.000Z</time>
</trkpt>
<trkpt lat="45.9049320" lon="10.3513820">
	<ele>1525.20</ele>
	<time>2025-04-29T09:25:09.000Z</time>
</trkpt>
<trkpt lat="45.9049220" lon="10.3513660">
	<ele>1525.20</ele>
	<time>2025-04-29T09:25:10.000Z</time>
</trkpt>
<trkpt lat="45.9049100" lon="10.3513450">
	<ele>1525.20</ele>
	<time>2025-04-29T09:25:11.000Z</time>
</trkpt>
<trkpt lat="45.9049000" lon="10.3513330">
	<ele>1525.20</ele>
	<time>2025-04-29T09:25:12.000Z</time>
</trkpt>
<trkpt lat="45.9048920" lon="10.3513290">
	<ele>1525.20</ele>
	<time>2025-04-29T09:25:13.000Z</time>
</trkpt>
<trkpt lat="45.9048910" lon="10.3513140">
	<ele>1525.40</ele>
	<time>2025-04-29T09:25:14.000Z</time>
</trkpt>
<trkpt lat="45.9048810" lon="10.3513060">
	<ele>1525.40</ele>
	<time>2025-04-29T09:25:15.000Z</time>
</trkpt>
<trkpt lat="45.9048750" lon="10.3512910">
	<ele>1525.40</ele>
	<time>2025-04-29T09:25:16.000Z</time>
</trkpt>
<trkpt lat="45.9048780" lon="10.3512680">
	<ele>1525.40</ele>
	<time>2025-04-29T09:25:17.000Z</time>
</trkpt>
<trkpt lat="45.9048720" lon="10.3512520">
	<ele>1525.40</ele>
	<time>2025-04-29T09:25:18.000Z</time>
</trkpt>
<trkpt lat="45.9048760" lon="10.3512300">
	<ele>1525.40</ele>
	<time>2025-04-29T09:25:19.000Z</time>
</trkpt>
<trkpt lat="45.9048780" lon="10.3512050">
	<ele>1525.40</ele>
	<time>2025-04-29T09:25:20.000Z</time>
</trkpt>
<trkpt lat="45.9048810" lon="10.3511790">
	<ele>1525.60</ele>
	<time>2025-04-29T09:25:21.000Z</time>
</trkpt>
<trkpt lat="45.9048830" lon="10.3511530">
	<ele>1525.60</ele>
	<time>2025-04-29T09:25:22.000Z</time>
</trkpt>
<trkpt lat="45.9048820" lon="10.3511300">
	<ele>1525.60</ele>
	<time>2025-04-29T09:25:23.000Z</time>
</trkpt>
<trkpt lat="45.9048880" lon="10.3511010">
	<ele>1525.80</ele>
	<time>2025-04-29T09:25:24.000Z</time>
</trkpt>
<trkpt lat="45.9048850" lon="10.3510790">
	<ele>1525.80</ele>
	<time>2025-04-29T09:25:25.000Z</time>
</trkpt>
<trkpt lat="45.9048700" lon="10.3510660">
	<ele>1526.00</ele>
	<time>2025-04-29T09:25:26.000Z</time>
</trkpt>
<trkpt lat="45.9048640" lon="10.3510560">
	<ele>1526.00</ele>
	<time>2025-04-29T09:25:27.000Z</time>
</trkpt>
<trkpt lat="45.9048590" lon="10.3510370">
	<ele>1526.00</ele>
	<time>2025-04-29T09:25:28.000Z</time>
</trkpt>
<trkpt lat="45.9048590" lon="10.3510170">
	<ele>1526.00</ele>
	<time>2025-04-29T09:25:29.000Z</time>
</trkpt>
<trkpt lat="45.9048560" lon="10.3510090">
	<ele>1526.20</ele>
	<time>2025-04-29T09:25:30.000Z</time>
</trkpt>
<trkpt lat="45.9048480" lon="10.3510050">
	<ele>1526.20</ele>
	<time>2025-04-29T09:25:31.000Z</time>
</trkpt>
<trkpt lat="45.9048460" lon="10.3510000">
	<ele>1526.40</ele>
	<time>2025-04-29T09:25:32.000Z</time>
</trkpt>
<trkpt lat="45.9048400" lon="10.3509960">
	<ele>1526.40</ele>
	<time>2025-04-29T09:25:33.000Z</time>
</trkpt>
<trkpt lat="45.9048380" lon="10.3509920">
	<ele>1526.40</ele>
	<time>2025-04-29T09:25:34.000Z</time>
</trkpt>
<trkpt lat="45.9048300" lon="10.3509880">
	<ele>1526.60</ele>
	<time>2025-04-29T09:25:35.000Z</time>
</trkpt>
<trkpt lat="45.9048240" lon="10.3509790">
	<ele>1526.60</ele>
	<time>2025-04-29T09:25:36.000Z</time>
</trkpt>
<trkpt lat="45.9048160" lon="10.3509680">
	<ele>1526.60</ele>
	<time>2025-04-29T09:25:37.000Z</time>
</trkpt>
<trkpt lat="45.9048090" lon="10.3509540">
	<ele>1526.40</ele>
	<time>2025-04-29T09:25:38.000Z</time>
</trkpt>
<trkpt lat="45.9048100" lon="10.3509300">
	<ele>1526.40</ele>
	<time>2025-04-29T09:25:39.000Z</time>
</trkpt>
<trkpt lat="45.9048140" lon="10.3509050">
	<ele>1526.40</ele>
	<time>2025-04-29T09:25:40.000Z</time>
</trkpt>
<trkpt lat="45.9048160" lon="10.3508820">
	<ele>1526.40</ele>
	<time>2025-04-29T09:25:41.000Z</time>
</trkpt>
<trkpt lat="45.9048160" lon="10.3508490">
	<ele>1526.40</ele>
	<time>2025-04-29T09:25:42.000Z</time>
</trkpt>
<trkpt lat="45.9048140" lon="10.3508250">
	<ele>1526.40</ele>
	<time>2025-04-29T09:25:43.000Z</time>
</trkpt>
<trkpt lat="45.9048110" lon="10.3508020">
	<ele>1526.60</ele>
	<time>2025-04-29T09:25:44.000Z</time>
</trkpt>
<trkpt lat="45.9048100" lon="10.3507810">
	<ele>1526.60</ele>
	<time>2025-04-29T09:25:45.000Z</time>
</trkpt>
<trkpt lat="45.9048090" lon="10.3507610">
	<ele>1526.60</ele>
	<time>2025-04-29T09:25:46.000Z</time>
</trkpt>
<trkpt lat="45.9048120" lon="10.3507430">
	<ele>1526.60</ele>
	<time>2025-04-29T09:25:47.000Z</time>
</trkpt>
<trkpt lat="45.9048140" lon="10.3507290">
	<ele>1526.60</ele>
	<time>2025-04-29T09:25:48.000Z</time>
</trkpt>
<trkpt lat="45.9048180" lon="10.3507080">
	<ele>1526.60</ele>
	<time>2025-04-29T09:25:49.000Z</time>
</trkpt>
<trkpt lat="45.9048210" lon="10.3506870">
	<ele>1526.60</ele>
	<time>2025-04-29T09:25:50.000Z</time>
</trkpt>
<trkpt lat="45.9048270" lon="10.3506690">
	<ele>1526.60</ele>
	<time>2025-04-29T09:25:51.000Z</time>
</trkpt>
<trkpt lat="45.9048340" lon="10.3506550">
	<ele>1526.60</ele>
	<time>2025-04-29T09:25:52.000Z</time>
</trkpt>
<trkpt lat="45.9048440" lon="10.3506420">
	<ele>1526.60</ele>
	<time>2025-04-29T09:25:53.000Z</time>
</trkpt>
<trkpt lat="45.9048400" lon="10.3506390">
	<ele>1526.60</ele>
	<time>2025-04-29T09:25:54.000Z</time>
</trkpt>
<trkpt lat="45.9048390" lon="10.3506180">
	<ele>1526.60</ele>
	<time>2025-04-29T09:25:55.000Z</time>
</trkpt>
<trkpt lat="45.9048360" lon="10.3505940">
	<ele>1526.40</ele>
	<time>2025-04-29T09:25:56.000Z</time>
</trkpt>
<trkpt lat="45.9048350" lon="10.3505750">
	<ele>1526.40</ele>
	<time>2025-04-29T09:25:57.000Z</time>
</trkpt>
<trkpt lat="45.9048220" lon="10.3505650">
	<ele>1526.40</ele>
	<time>2025-04-29T09:25:58.000Z</time>
</trkpt>
<trkpt lat="45.9048080" lon="10.3505530">
	<ele>1526.60</ele>
	<time>2025-04-29T09:25:59.000Z</time>
</trkpt>
<trkpt lat="45.9048020" lon="10.3505430">
	<ele>1526.80</ele>
	<time>2025-04-29T09:26:00.000Z</time>
</trkpt>
<trkpt lat="45.9048060" lon="10.3505240">
	<ele>1527.00</ele>
	<time>2025-04-29T09:26:01.000Z</time>
</trkpt>
<trkpt lat="45.9048070" lon="10.3505100">
	<ele>1527.20</ele>
	<time>2025-04-29T09:26:02.000Z</time>
</trkpt>
<trkpt lat="45.9048090" lon="10.3504970">
	<ele>1527.20</ele>
	<time>2025-04-29T09:26:03.000Z</time>
</trkpt>
<trkpt lat="45.9048120" lon="10.3504770">
	<ele>1527.40</ele>
	<time>2025-04-29T09:26:04.000Z</time>
</trkpt>
<trkpt lat="45.9048120" lon="10.3504560">
	<ele>1527.40</ele>
	<time>2025-04-29T09:26:05.000Z</time>
</trkpt>
<trkpt lat="45.9048110" lon="10.3504360">
	<ele>1527.40</ele>
	<time>2025-04-29T09:26:06.000Z</time>
</trkpt>
<trkpt lat="45.9048100" lon="10.3504210">
	<ele>1527.60</ele>
	<time>2025-04-29T09:26:07.000Z</time>
</trkpt>
<trkpt lat="45.9048100" lon="10.3504070">
	<ele>1527.60</ele>
	<time>2025-04-29T09:26:08.000Z</time>
</trkpt>
<trkpt lat="45.9048140" lon="10.3503930">
	<ele>1527.60</ele>
	<time>2025-04-29T09:26:09.000Z</time>
</trkpt>
<trkpt lat="45.9048130" lon="10.3503770">
	<ele>1527.60</ele>
	<time>2025-04-29T09:26:10.000Z</time>
</trkpt>
<trkpt lat="45.9048100" lon="10.3503610">
	<ele>1527.60</ele>
	<time>2025-04-29T09:26:11.000Z</time>
</trkpt>
<trkpt lat="45.9048070" lon="10.3503410">
	<ele>1527.80</ele>
	<time>2025-04-29T09:26:12.000Z</time>
</trkpt>
<trkpt lat="45.9048070" lon="10.3503210">
	<ele>1527.80</ele>
	<time>2025-04-29T09:26:13.000Z</time>
</trkpt>
<trkpt lat="45.9048060" lon="10.3503020">
	<ele>1527.80</ele>
	<time>2025-04-29T09:26:14.000Z</time>
</trkpt>
<trkpt lat="45.9048030" lon="10.3502830">
	<ele>1528.00</ele>
	<time>2025-04-29T09:26:15.000Z</time>
</trkpt>
<trkpt lat="45.9047990" lon="10.3502650">
	<ele>1528.00</ele>
	<time>2025-04-29T09:26:16.000Z</time>
</trkpt>
<trkpt lat="45.9047990" lon="10.3502420">
	<ele>1528.00</ele>
	<time>2025-04-29T09:26:17.000Z</time>
</trkpt>
<trkpt lat="45.9047990" lon="10.3502210">
	<ele>1528.00</ele>
	<time>2025-04-29T09:26:18.000Z</time>
</trkpt>
<trkpt lat="45.9048000" lon="10.3502020">
	<ele>1528.20</ele>
	<time>2025-04-29T09:26:19.000Z</time>
</trkpt>
<trkpt lat="45.9048010" lon="10.3501880">
	<ele>1528.20</ele>
	<time>2025-04-29T09:26:20.000Z</time>
</trkpt>
<trkpt lat="45.9048060" lon="10.3501670">
	<ele>1528.20</ele>
	<time>2025-04-29T09:26:21.000Z</time>
</trkpt>
<trkpt lat="45.9048130" lon="10.3501470">
	<ele>1528.40</ele>
	<time>2025-04-29T09:26:22.000Z</time>
</trkpt>
<trkpt lat="45.9048180" lon="10.3501300">
	<ele>1528.40</ele>
	<time>2025-04-29T09:26:23.000Z</time>
</trkpt>
<trkpt lat="45.9048160" lon="10.3501190">
	<ele>1528.40</ele>
	<time>2025-04-29T09:26:24.000Z</time>
</trkpt>
<trkpt lat="45.9048180" lon="10.3501120">
	<ele>1528.60</ele>
	<time>2025-04-29T09:26:25.000Z</time>
</trkpt>
<trkpt lat="45.9048230" lon="10.3500940">
	<ele>1528.60</ele>
	<time>2025-04-29T09:26:26.000Z</time>
</trkpt>
<trkpt lat="45.9048290" lon="10.3500750">
	<ele>1528.60</ele>
	<time>2025-04-29T09:26:27.000Z</time>
</trkpt>
<trkpt lat="45.9048320" lon="10.3500580">
	<ele>1528.80</ele>
	<time>2025-04-29T09:26:28.000Z</time>
</trkpt>
<trkpt lat="45.9048370" lon="10.3500390">
	<ele>1528.80</ele>
	<time>2025-04-29T09:26:29.000Z</time>
</trkpt>
<trkpt lat="45.9048420" lon="10.3500210">
	<ele>1529.00</ele>
	<time>2025-04-29T09:26:30.000Z</time>
</trkpt>
<trkpt lat="45.9048470" lon="10.3499950">
	<ele>1529.20</ele>
	<time>2025-04-29T09:26:31.000Z</time>
</trkpt>
<trkpt lat="45.9048470" lon="10.3499720">
	<ele>1529.20</ele>
	<time>2025-04-29T09:26:32.000Z</time>
</trkpt>
<trkpt lat="45.9048400" lon="10.3499580">
	<ele>1529.20</ele>
	<time>2025-04-29T09:26:33.000Z</time>
</trkpt>
<trkpt lat="45.9048390" lon="10.3499400">
	<ele>1529.20</ele>
	<time>2025-04-29T09:26:34.000Z</time>
</trkpt>
<trkpt lat="45.9048350" lon="10.3499230">
	<ele>1529.20</ele>
	<time>2025-04-29T09:26:35.000Z</time>
</trkpt>
<trkpt lat="45.9048340" lon="10.3499080">
	<ele>1529.20</ele>
	<time>2025-04-29T09:26:36.000Z</time>
</trkpt>
<trkpt lat="45.9048360" lon="10.3498920">
	<ele>1529.40</ele>
	<time>2025-04-29T09:26:37.000Z</time>
</trkpt>
<trkpt lat="45.9048360" lon="10.3498750">
	<ele>1529.40</ele>
	<time>2025-04-29T09:26:38.000Z</time>
</trkpt>
<trkpt lat="45.9048340" lon="10.3498520">
	<ele>1529.40</ele>
	<time>2025-04-29T09:26:39.000Z</time>
</trkpt>
<trkpt lat="45.9048290" lon="10.3498290">
	<ele>1529.40</ele>
	<time>2025-04-29T09:26:40.000Z</time>
</trkpt>
<trkpt lat="45.9048230" lon="10.3498110">
	<ele>1529.40</ele>
	<time>2025-04-29T09:26:41.000Z</time>
</trkpt>
<trkpt lat="45.9048230" lon="10.3497870">
	<ele>1529.40</ele>
	<time>2025-04-29T09:26:42.000Z</time>
</trkpt>
<trkpt lat="45.9048160" lon="10.3497530">
	<ele>1529.20</ele>
	<time>2025-04-29T09:26:43.000Z</time>
</trkpt>
<trkpt lat="45.9048100" lon="10.3497260">
	<ele>1529.20</ele>
	<time>2025-04-29T09:26:44.000Z</time>
</trkpt>
<trkpt lat="45.9047980" lon="10.3497180">
	<ele>1529.00</ele>
	<time>2025-04-29T09:26:45.000Z</time>
</trkpt>
<trkpt lat="45.9047890" lon="10.3496980">
	<ele>1529.00</ele>
	<time>2025-04-29T09:26:46.000Z</time>
</trkpt>
<trkpt lat="45.9047890" lon="10.3496920">
	<ele>1529.00</ele>
	<time>2025-04-29T09:26:47.000Z</time>
</trkpt>
<trkpt lat="45.9047910" lon="10.3496710">
	<ele>1529.00</ele>
	<time>2025-04-29T09:26:48.000Z</time>
</trkpt>
<trkpt lat="45.9047920" lon="10.3496430">
	<ele>1529.00</ele>
	<time>2025-04-29T09:26:49.000Z</time>
</trkpt>
<trkpt lat="45.9047890" lon="10.3496190">
	<ele>1529.00</ele>
	<time>2025-04-29T09:26:50.000Z</time>
</trkpt>
<trkpt lat="45.9047860" lon="10.3495960">
	<ele>1529.00</ele>
	<time>2025-04-29T09:26:51.000Z</time>
</trkpt>
<trkpt lat="45.9047780" lon="10.3495850">
	<ele>1529.00</ele>
	<time>2025-04-29T09:26:52.000Z</time>
</trkpt>
<trkpt lat="45.9047730" lon="10.3495680">
	<ele>1529.00</ele>
	<time>2025-04-29T09:26:53.000Z</time>
</trkpt>
<trkpt lat="45.9047710" lon="10.3495460">
	<ele>1529.00</ele>
	<time>2025-04-29T09:26:54.000Z</time>
</trkpt>
<trkpt lat="45.9047710" lon="10.3495230">
	<ele>1529.00</ele>
	<time>2025-04-29T09:26:55.000Z</time>
</trkpt>
<trkpt lat="45.9047720" lon="10.3495060">
	<ele>1529.20</ele>
	<time>2025-04-29T09:26:56.000Z</time>
</trkpt>
<trkpt lat="45.9047730" lon="10.3494940">
	<ele>1529.20</ele>
	<time>2025-04-29T09:26:57.000Z</time>
</trkpt>
<trkpt lat="45.9047750" lon="10.3494790">
	<ele>1529.20</ele>
	<time>2025-04-29T09:26:58.000Z</time>
</trkpt>
<trkpt lat="45.9047810" lon="10.3494640">
	<ele>1529.20</ele>
	<time>2025-04-29T09:26:59.000Z</time>
</trkpt>
<trkpt lat="45.9047810" lon="10.3494540">
	<ele>1529.40</ele>
	<time>2025-04-29T09:27:00.000Z</time>
</trkpt>
<trkpt lat="45.9047750" lon="10.3494370">
	<ele>1529.40</ele>
	<time>2025-04-29T09:27:01.000Z</time>
</trkpt>
<trkpt lat="45.9047700" lon="10.3494210">
	<ele>1529.40</ele>
	<time>2025-04-29T09:27:02.000Z</time>
</trkpt>
<trkpt lat="45.9047620" lon="10.3494100">
	<ele>1529.40</ele>
	<time>2025-04-29T09:27:03.000Z</time>
</trkpt>
<trkpt lat="45.9047460" lon="10.3494020">
	<ele>1529.40</ele>
	<time>2025-04-29T09:27:04.000Z</time>
</trkpt>
<trkpt lat="45.9047260" lon="10.3493980">
	<ele>1529.40</ele>
	<time>2025-04-29T09:27:05.000Z</time>
</trkpt>
<trkpt lat="45.9047030" lon="10.3493860">
	<ele>1529.40</ele>
	<time>2025-04-29T09:27:06.000Z</time>
</trkpt>
<trkpt lat="45.9046930" lon="10.3493690">
	<ele>1529.60</ele>
	<time>2025-04-29T09:27:07.000Z</time>
</trkpt>
<trkpt lat="45.9046890" lon="10.3493520">
	<ele>1529.60</ele>
	<time>2025-04-29T09:27:08.000Z</time>
</trkpt>
<trkpt lat="45.9046860" lon="10.3493410">
	<ele>1529.60</ele>
	<time>2025-04-29T09:27:09.000Z</time>
</trkpt>
<trkpt lat="45.9046830" lon="10.3493290">
	<ele>1529.60</ele>
	<time>2025-04-29T09:27:10.000Z</time>
</trkpt>
<trkpt lat="45.9046840" lon="10.3493110">
	<ele>1529.80</ele>
	<time>2025-04-29T09:27:11.000Z</time>
</trkpt>
<trkpt lat="45.9046840" lon="10.3492950">
	<ele>1529.80</ele>
	<time>2025-04-29T09:27:12.000Z</time>
</trkpt>
<trkpt lat="45.9046790" lon="10.3492760">
	<ele>1529.80</ele>
	<time>2025-04-29T09:27:13.000Z</time>
</trkpt>
<trkpt lat="45.9046780" lon="10.3492620">
	<ele>1529.80</ele>
	<time>2025-04-29T09:27:14.000Z</time>
</trkpt>
<trkpt lat="45.9046740" lon="10.3492480">
	<ele>1529.80</ele>
	<time>2025-04-29T09:27:15.000Z</time>
</trkpt>
<trkpt lat="45.9046700" lon="10.3492330">
	<ele>1529.80</ele>
	<time>2025-04-29T09:27:16.000Z</time>
</trkpt>
<trkpt lat="45.9046590" lon="10.3492200">
	<ele>1529.80</ele>
	<time>2025-04-29T09:27:17.000Z</time>
</trkpt>
<trkpt lat="45.9046490" lon="10.3492030">
	<ele>1529.80</ele>
	<time>2025-04-29T09:27:18.000Z</time>
</trkpt>
<trkpt lat="45.9046340" lon="10.3491860">
	<ele>1530.00</ele>
	<time>2025-04-29T09:27:19.000Z</time>
</trkpt>
<trkpt lat="45.9046230" lon="10.3491720">
	<ele>1530.00</ele>
	<time>2025-04-29T09:27:20.000Z</time>
</trkpt>
<trkpt lat="45.9046130" lon="10.3491600">
	<ele>1530.00</ele>
	<time>2025-04-29T09:27:21.000Z</time>
</trkpt>
<trkpt lat="45.9046060" lon="10.3491540">
	<ele>1530.00</ele>
	<time>2025-04-29T09:27:22.000Z</time>
</trkpt>
<trkpt lat="45.9046050" lon="10.3491530">
	<ele>1530.20</ele>
	<time>2025-04-29T09:27:23.000Z</time>
</trkpt>
<trkpt lat="45.9046020" lon="10.3491340">
	<ele>1530.20</ele>
	<time>2025-04-29T09:27:24.000Z</time>
</trkpt>
<trkpt lat="45.9045970" lon="10.3491150">
	<ele>1530.20</ele>
	<time>2025-04-29T09:27:25.000Z</time>
</trkpt>
<trkpt lat="45.9045910" lon="10.3490980">
	<ele>1530.20</ele>
	<time>2025-04-29T09:27:26.000Z</time>
</trkpt>
<trkpt lat="45.9045870" lon="10.3490800">
	<ele>1530.20</ele>
	<time>2025-04-29T09:27:27.000Z</time>
</trkpt>
<trkpt lat="45.9045770" lon="10.3490650">
	<ele>1530.40</ele>
	<time>2025-04-29T09:27:28.000Z</time>
</trkpt>
<trkpt lat="45.9045730" lon="10.3490390">
	<ele>1530.40</ele>
	<time>2025-04-29T09:27:29.000Z</time>
</trkpt>
<trkpt lat="45.9045630" lon="10.3490150">
	<ele>1530.40</ele>
	<time>2025-04-29T09:27:30.000Z</time>
</trkpt>
<trkpt lat="45.9045480" lon="10.3489990">
	<ele>1530.40</ele>
	<time>2025-04-29T09:27:31.000Z</time>
</trkpt>
<trkpt lat="45.9045320" lon="10.3489900">
	<ele>1530.60</ele>
	<time>2025-04-29T09:27:32.000Z</time>
</trkpt>
<trkpt lat="45.9045270" lon="10.3489820">
	<ele>1530.60</ele>
	<time>2025-04-29T09:27:33.000Z</time>
</trkpt>
<trkpt lat="45.9045220" lon="10.3489600">
	<ele>1530.60</ele>
	<time>2025-04-29T09:27:34.000Z</time>
</trkpt>
<trkpt lat="45.9045210" lon="10.3489530">
	<ele>1530.60</ele>
	<time>2025-04-29T09:27:35.000Z</time>
</trkpt>
<trkpt lat="45.9045220" lon="10.3489490">
	<ele>1530.60</ele>
	<time>2025-04-29T09:27:36.000Z</time>
</trkpt>
<trkpt lat="45.9045240" lon="10.3489390">
	<ele>1530.80</ele>
	<time>2025-04-29T09:27:37.000Z</time>
</trkpt>
<trkpt lat="45.9045230" lon="10.3489350">
	<ele>1531.00</ele>
	<time>2025-04-29T09:27:38.000Z</time>
</trkpt>
<trkpt lat="45.9045210" lon="10.3489300">
	<ele>1531.00</ele>
	<time>2025-04-29T09:27:39.000Z</time>
</trkpt>
<trkpt lat="45.9045300" lon="10.3489220">
	<ele>1531.40</ele>
	<time>2025-04-29T09:27:40.000Z</time>
</trkpt>
<trkpt lat="45.9045490" lon="10.3489070">
	<ele>1531.60</ele>
	<time>2025-04-29T09:27:41.000Z</time>
</trkpt>
<trkpt lat="45.9045660" lon="10.3488850">
	<ele>1531.60</ele>
	<time>2025-04-29T09:27:42.000Z</time>
</trkpt>
<trkpt lat="45.9045790" lon="10.3488650">
	<ele>1531.80</ele>
	<time>2025-04-29T09:27:43.000Z</time>
</trkpt>
<trkpt lat="45.9045890" lon="10.3488440">
	<ele>1531.80</ele>
	<time>2025-04-29T09:27:44.000Z</time>
</trkpt>
<trkpt lat="45.9045990" lon="10.3488310">
	<ele>1531.80</ele>
	<time>2025-04-29T09:27:45.000Z</time>
</trkpt>
<trkpt lat="45.9046080" lon="10.3488210">
	<ele>1532.00</ele>
	<time>2025-04-29T09:27:46.000Z</time>
</trkpt>
<trkpt lat="45.9046180" lon="10.3488150">
	<ele>1532.00</ele>
	<time>2025-04-29T09:27:47.000Z</time>
</trkpt>
<trkpt lat="45.9046220" lon="10.3488050">
	<ele>1532.00</ele>
	<time>2025-04-29T09:27:48.000Z</time>
</trkpt>
<trkpt lat="45.9046300" lon="10.3487960">
	<ele>1532.00</ele>
	<time>2025-04-29T09:27:49.000Z</time>
</trkpt>
<trkpt lat="45.9046350" lon="10.3487940">
	<ele>1531.80</ele>
	<time>2025-04-29T09:27:50.000Z</time>
</trkpt>
<trkpt lat="45.9046330" lon="10.3487850">
	<ele>1531.80</ele>
	<time>2025-04-29T09:27:51.000Z</time>
</trkpt>
<trkpt lat="45.9046360" lon="10.3487740">
	<ele>1531.60</ele>
	<time>2025-04-29T09:27:52.000Z</time>
</trkpt>
<trkpt lat="45.9046440" lon="10.3487640">
	<ele>1531.40</ele>
	<time>2025-04-29T09:27:53.000Z</time>
</trkpt>
<trkpt lat="45.9046550" lon="10.3487560">
	<ele>1531.40</ele>
	<time>2025-04-29T09:27:54.000Z</time>
</trkpt>
<trkpt lat="45.9046560" lon="10.3487560">
	<ele>1531.20</ele>
	<time>2025-04-29T09:27:55.000Z</time>
</trkpt>
<trkpt lat="45.9046680" lon="10.3487530">
	<ele>1531.20</ele>
	<time>2025-04-29T09:27:56.000Z</time>
</trkpt>
<trkpt lat="45.9046780" lon="10.3487520">
	<ele>1531.00</ele>
	<time>2025-04-29T09:27:57.000Z</time>
</trkpt>
<trkpt lat="45.9046860" lon="10.3487460">
	<ele>1530.80</ele>
	<time>2025-04-29T09:27:58.000Z</time>
</trkpt>
<trkpt lat="45.9046900" lon="10.3487270">
	<ele>1530.40</ele>
	<time>2025-04-29T09:27:59.000Z</time>
</trkpt>
<trkpt lat="45.9046960" lon="10.3487080">
	<ele>1530.20</ele>
	<time>2025-04-29T09:28:00.000Z</time>
</trkpt>
<trkpt lat="45.9047030" lon="10.3487000">
	<ele>1530.00</ele>
	<time>2025-04-29T09:28:01.000Z</time>
</trkpt>
<trkpt lat="45.9047050" lon="10.3486850">
	<ele>1529.80</ele>
	<time>2025-04-29T09:28:02.000Z</time>
</trkpt>
<trkpt lat="45.9047050" lon="10.3486750">
	<ele>1529.80</ele>
	<time>2025-04-29T09:28:03.000Z</time>
</trkpt>
<trkpt lat="45.9047020" lon="10.3486730">
	<ele>1529.60</ele>
	<time>2025-04-29T09:28:04.000Z</time>
</trkpt>
<trkpt lat="45.9047000" lon="10.3486750">
	<ele>1529.40</ele>
	<time>2025-04-29T09:28:05.000Z</time>
</trkpt>
<trkpt lat="45.9047060" lon="10.3486780">
	<ele>1529.20</ele>
	<time>2025-04-29T09:28:06.000Z</time>
</trkpt>
<trkpt lat="45.9047180" lon="10.3486820">
	<ele>1529.00</ele>
	<time>2025-04-29T09:28:07.000Z</time>
</trkpt>
<trkpt lat="45.9047270" lon="10.3486740">
	<ele>1528.80</ele>
	<time>2025-04-29T09:28:08.000Z</time>
</trkpt>
<trkpt lat="45.9047410" lon="10.3486610">
	<ele>1528.60</ele>
	<time>2025-04-29T09:28:09.000Z</time>
</trkpt>
<trkpt lat="45.9047590" lon="10.3486570">
	<ele>1528.40</ele>
	<time>2025-04-29T09:28:10.000Z</time>
</trkpt>
<trkpt lat="45.9047760" lon="10.3486430">
	<ele>1528.40</ele>
	<time>2025-04-29T09:28:11.000Z</time>
</trkpt>
<trkpt lat="45.9047840" lon="10.3486280">
	<ele>1528.40</ele>
	<time>2025-04-29T09:28:12.000Z</time>
</trkpt>
<trkpt lat="45.9047980" lon="10.3486300">
	<ele>1528.20</ele>
	<time>2025-04-29T09:28:13.000Z</time>
</trkpt>
<trkpt lat="45.9048010" lon="10.3486260">
	<ele>1528.20</ele>
	<time>2025-04-29T09:28:14.000Z</time>
</trkpt>
<trkpt lat="45.9048020" lon="10.3486250">
	<ele>1528.00</ele>
	<time>2025-04-29T09:28:15.000Z</time>
</trkpt>
<trkpt lat="45.9048080" lon="10.3486210">
	<ele>1527.80</ele>
	<time>2025-04-29T09:28:16.000Z</time>
</trkpt>
<trkpt lat="45.9048150" lon="10.3486160">
	<ele>1527.80</ele>
	<time>2025-04-29T09:28:17.000Z</time>
</trkpt>
<trkpt lat="45.9048170" lon="10.3486060">
	<ele>1527.60</ele>
	<time>2025-04-29T09:28:18.000Z</time>
</trkpt>
<trkpt lat="45.9048230" lon="10.3486000">
	<ele>1527.40</ele>
	<time>2025-04-29T09:28:19.000Z</time>
</trkpt>
<trkpt lat="45.9048280" lon="10.3485990">
	<ele>1527.20</ele>
	<time>2025-04-29T09:28:20.000Z</time>
</trkpt>
<trkpt lat="45.9048280" lon="10.3485940">
	<ele>1527.00</ele>
	<time>2025-04-29T09:28:21.000Z</time>
</trkpt>
<trkpt lat="45.9048240" lon="10.3485820">
	<ele>1527.00</ele>
	<time>2025-04-29T09:28:22.000Z</time>
</trkpt>
<trkpt lat="45.9048260" lon="10.3485750">
	<ele>1526.80</ele>
	<time>2025-04-29T09:28:23.000Z</time>
</trkpt>
<trkpt lat="45.9048280" lon="10.3485850">
	<ele>1526.60</ele>
	<time>2025-04-29T09:28:24.000Z</time>
</trkpt>
<trkpt lat="45.9048260" lon="10.3485890">
	<ele>1526.20</ele>
	<time>2025-04-29T09:28:25.000Z</time>
</trkpt>
<trkpt lat="45.9048190" lon="10.3486020">
	<ele>1526.20</ele>
	<time>2025-04-29T09:28:26.000Z</time>
</trkpt>
<trkpt lat="45.9048250" lon="10.3486100">
	<ele>1526.00</ele>
	<time>2025-04-29T09:28:27.000Z</time>
</trkpt>
<trkpt lat="45.9048400" lon="10.3486220">
	<ele>1525.60</ele>
	<time>2025-04-29T09:28:28.000Z</time>
</trkpt>
<trkpt lat="45.9048520" lon="10.3486230">
	<ele>1525.20</ele>
	<time>2025-04-29T09:28:29.000Z</time>
</trkpt>
<trkpt lat="45.9048660" lon="10.3486250">
	<ele>1525.00</ele>
	<time>2025-04-29T09:28:30.000Z</time>
</trkpt>
<trkpt lat="45.9048810" lon="10.3486320">
	<ele>1525.00</ele>
	<time>2025-04-29T09:28:31.000Z</time>
</trkpt>
<trkpt lat="45.9048990" lon="10.3486490">
	<ele>1524.80</ele>
	<time>2025-04-29T09:28:32.000Z</time>
</trkpt>
<trkpt lat="45.9049190" lon="10.3486570">
	<ele>1524.20</ele>
	<time>2025-04-29T09:28:33.000Z</time>
</trkpt>
<trkpt lat="45.9049360" lon="10.3486580">
	<ele>1524.00</ele>
	<time>2025-04-29T09:28:34.000Z</time>
</trkpt>
<trkpt lat="45.9049460" lon="10.3486570">
	<ele>1523.60</ele>
	<time>2025-04-29T09:28:35.000Z</time>
</trkpt>
<trkpt lat="45.9049510" lon="10.3486600">
	<ele>1523.40</ele>
	<time>2025-04-29T09:28:36.000Z</time>
</trkpt>
<trkpt lat="45.9049590" lon="10.3486630">
	<ele>1523.20</ele>
	<time>2025-04-29T09:28:37.000Z</time>
</trkpt>
<trkpt lat="45.9049650" lon="10.3486580">
	<ele>1523.00</ele>
	<time>2025-04-29T09:28:38.000Z</time>
</trkpt>
<trkpt lat="45.9049740" lon="10.3486530">
	<ele>1522.60</ele>
	<time>2025-04-29T09:28:39.000Z</time>
</trkpt>
<trkpt lat="45.9049710" lon="10.3486510">
	<ele>1522.40</ele>
	<time>2025-04-29T09:28:40.000Z</time>
</trkpt>
<trkpt lat="45.9049710" lon="10.3486470">
	<ele>1522.20</ele>
	<time>2025-04-29T09:28:41.000Z</time>
</trkpt>
<trkpt lat="45.9049770" lon="10.3486460">
	<ele>1521.80</ele>
	<time>2025-04-29T09:28:42.000Z</time>
</trkpt>
<trkpt lat="45.9049870" lon="10.3486510">
	<ele>1521.60</ele>
	<time>2025-04-29T09:28:43.000Z</time>
</trkpt>
<trkpt lat="45.9049890" lon="10.3486710">
	<ele>1521.40</ele>
	<time>2025-04-29T09:28:44.000Z</time>
</trkpt>
<trkpt lat="45.9049990" lon="10.3486860">
	<ele>1521.40</ele>
	<time>2025-04-29T09:28:45.000Z</time>
</trkpt>
<trkpt lat="45.9050110" lon="10.3486990">
	<ele>1521.00</ele>
	<time>2025-04-29T09:28:46.000Z</time>
</trkpt>
<trkpt lat="45.9050280" lon="10.3487020">
	<ele>1520.80</ele>
	<time>2025-04-29T09:28:47.000Z</time>
</trkpt>
<trkpt lat="45.9050520" lon="10.3486890">
	<ele>1520.60</ele>
	<time>2025-04-29T09:28:48.000Z</time>
</trkpt>
<trkpt lat="45.9050720" lon="10.3486740">
	<ele>1520.60</ele>
	<time>2025-04-29T09:28:49.000Z</time>
</trkpt>
<trkpt lat="45.9050960" lon="10.3486780">
	<ele>1520.40</ele>
	<time>2025-04-29T09:28:50.000Z</time>
</trkpt>
<trkpt lat="45.9051130" lon="10.3486900">
	<ele>1520.20</ele>
	<time>2025-04-29T09:28:51.000Z</time>
</trkpt>
<trkpt lat="45.9051260" lon="10.3486930">
	<ele>1520.00</ele>
	<time>2025-04-29T09:28:52.000Z</time>
</trkpt>
<trkpt lat="45.9051370" lon="10.3486980">
	<ele>1519.80</ele>
	<time>2025-04-29T09:28:53.000Z</time>
</trkpt>
<trkpt lat="45.9051460" lon="10.3487010">
	<ele>1519.60</ele>
	<time>2025-04-29T09:28:54.000Z</time>
</trkpt>
<trkpt lat="45.9051520" lon="10.3487070">
	<ele>1519.40</ele>
	<time>2025-04-29T09:28:55.000Z</time>
</trkpt>
<trkpt lat="45.9051660" lon="10.3487180">
	<ele>1519.20</ele>
	<time>2025-04-29T09:28:56.000Z</time>
</trkpt>
<trkpt lat="45.9051630" lon="10.3487160">
	<ele>1518.80</ele>
	<time>2025-04-29T09:28:57.000Z</time>
</trkpt>
<trkpt lat="45.9051660" lon="10.3487060">
	<ele>1518.80</ele>
	<time>2025-04-29T09:28:58.000Z</time>
</trkpt>
<trkpt lat="45.9051650" lon="10.3486940">
	<ele>1518.80</ele>
	<time>2025-04-29T09:28:59.000Z</time>
</trkpt>
<trkpt lat="45.9051690" lon="10.3486950">
	<ele>1518.60</ele>
	<time>2025-04-29T09:29:00.000Z</time>
</trkpt>
<trkpt lat="45.9051740" lon="10.3486870">
	<ele>1518.20</ele>
	<time>2025-04-29T09:29:01.000Z</time>
</trkpt>
<trkpt lat="45.9051820" lon="10.3486700">
	<ele>1518.00</ele>
	<time>2025-04-29T09:29:02.000Z</time>
</trkpt>
<trkpt lat="45.9051950" lon="10.3486670">
	<ele>1517.60</ele>
	<time>2025-04-29T09:29:03.000Z</time>
</trkpt>
<trkpt lat="45.9052080" lon="10.3486680">
	<ele>1517.40</ele>
	<time>2025-04-29T09:29:04.000Z</time>
</trkpt>
<trkpt lat="45.9052180" lon="10.3486570">
	<ele>1517.20</ele>
	<time>2025-04-29T09:29:05.000Z</time>
</trkpt>
<trkpt lat="45.9052290" lon="10.3486530">
	<ele>1517.00</ele>
	<time>2025-04-29T09:29:06.000Z</time>
</trkpt>
<trkpt lat="45.9052310" lon="10.3486530">
	<ele>1516.60</ele>
	<time>2025-04-29T09:29:07.000Z</time>
</trkpt>
<trkpt lat="45.9052350" lon="10.3486570">
	<ele>1516.40</ele>
	<time>2025-04-29T09:29:08.000Z</time>
</trkpt>
<trkpt lat="45.9052410" lon="10.3486590">
	<ele>1516.20</ele>
	<time>2025-04-29T09:29:09.000Z</time>
</trkpt>
<trkpt lat="45.9052470" lon="10.3486580">
	<ele>1516.00</ele>
	<time>2025-04-29T09:29:10.000Z</time>
</trkpt>
<trkpt lat="45.9052550" lon="10.3486580">
	<ele>1515.80</ele>
	<time>2025-04-29T09:29:11.000Z</time>
</trkpt>
<trkpt lat="45.9052680" lon="10.3486570">
	<ele>1515.60</ele>
	<time>2025-04-29T09:29:12.000Z</time>
</trkpt>
<trkpt lat="45.9052830" lon="10.3486600">
	<ele>1515.40</ele>
	<time>2025-04-29T09:29:13.000Z</time>
</trkpt>
<trkpt lat="45.9053020" lon="10.3486630">
	<ele>1515.00</ele>
	<time>2025-04-29T09:29:14.000Z</time>
</trkpt>
<trkpt lat="45.9053200" lon="10.3486760">
	<ele>1514.60</ele>
	<time>2025-04-29T09:29:15.000Z</time>
</trkpt>
<trkpt lat="45.9053340" lon="10.3486880">
	<ele>1514.40</ele>
	<time>2025-04-29T09:29:16.000Z</time>
</trkpt>
<trkpt lat="45.9053450" lon="10.3486860">
	<ele>1514.20</ele>
	<time>2025-04-29T09:29:17.000Z</time>
</trkpt>
<trkpt lat="45.9053560" lon="10.3486900">
	<ele>1514.00</ele>
	<time>2025-04-29T09:29:18.000Z</time>
</trkpt>
<trkpt lat="45.9053700" lon="10.3486930">
	<ele>1513.80</ele>
	<time>2025-04-29T09:29:19.000Z</time>
</trkpt>
<trkpt lat="45.9053850" lon="10.3486960">
	<ele>1513.60</ele>
	<time>2025-04-29T09:29:20.000Z</time>
</trkpt>
<trkpt lat="45.9053930" lon="10.3486860">
	<ele>1513.40</ele>
	<time>2025-04-29T09:29:21.000Z</time>
</trkpt>
<trkpt lat="45.9054000" lon="10.3486680">
	<ele>1513.20</ele>
	<time>2025-04-29T09:29:22.000Z</time>
</trkpt>
<trkpt lat="45.9054080" lon="10.3486520">
	<ele>1513.00</ele>
	<time>2025-04-29T09:29:23.000Z</time>
</trkpt>
<trkpt lat="45.9054170" lon="10.3486560">
	<ele>1512.80</ele>
	<time>2025-04-29T09:29:24.000Z</time>
</trkpt>
<trkpt lat="45.9054280" lon="10.3486620">
	<ele>1512.60</ele>
	<time>2025-04-29T09:29:25.000Z</time>
</trkpt>
<trkpt lat="45.9054360" lon="10.3486670">
	<ele>1512.20</ele>
	<time>2025-04-29T09:29:26.000Z</time>
</trkpt>
<trkpt lat="45.9054360" lon="10.3486650">
	<ele>1512.00</ele>
	<time>2025-04-29T09:29:27.000Z</time>
</trkpt>
<trkpt lat="45.9054410" lon="10.3486610">
	<ele>1511.60</ele>
	<time>2025-04-29T09:29:28.000Z</time>
</trkpt>
<trkpt lat="45.9054500" lon="10.3486600">
	<ele>1511.40</ele>
	<time>2025-04-29T09:29:29.000Z</time>
</trkpt>
<trkpt lat="45.9054620" lon="10.3486630">
	<ele>1511.00</ele>
	<time>2025-04-29T09:29:30.000Z</time>
</trkpt>
<trkpt lat="45.9054720" lon="10.3486600">
	<ele>1510.80</ele>
	<time>2025-04-29T09:29:31.000Z</time>
</trkpt>
<trkpt lat="45.9054840" lon="10.3486630">
	<ele>1510.60</ele>
	<time>2025-04-29T09:29:32.000Z</time>
</trkpt>
<trkpt lat="45.9054950" lon="10.3486580">
	<ele>1510.40</ele>
	<time>2025-04-29T09:29:33.000Z</time>
</trkpt>
<trkpt lat="45.9055080" lon="10.3486600">
	<ele>1510.20</ele>
	<time>2025-04-29T09:29:34.000Z</time>
</trkpt>
<trkpt lat="45.9055280" lon="10.3486530">
	<ele>1510.20</ele>
	<time>2025-04-29T09:29:35.000Z</time>
</trkpt>
<trkpt lat="45.9055500" lon="10.3486410">
	<ele>1510.00</ele>
	<time>2025-04-29T09:29:36.000Z</time>
</trkpt>
<trkpt lat="45.9055720" lon="10.3486350">
	<ele>1509.80</ele>
	<time>2025-04-29T09:29:37.000Z</time>
</trkpt>
<trkpt lat="45.9055820" lon="10.3486270">
	<ele>1509.80</ele>
	<time>2025-04-29T09:29:38.000Z</time>
</trkpt>
<trkpt lat="45.9055970" lon="10.3486200">
	<ele>1509.40</ele>
	<time>2025-04-29T09:29:39.000Z</time>
</trkpt>
<trkpt lat="45.9056060" lon="10.3486040">
	<ele>1509.20</ele>
	<time>2025-04-29T09:29:40.000Z</time>
</trkpt>
<trkpt lat="45.9056110" lon="10.3485900">
	<ele>1509.00</ele>
	<time>2025-04-29T09:29:41.000Z</time>
</trkpt>
<trkpt lat="45.9056190" lon="10.3485760">
	<ele>1509.00</ele>
	<time>2025-04-29T09:29:42.000Z</time>
</trkpt>
<trkpt lat="45.9056210" lon="10.3485690">
	<ele>1508.60</ele>
	<time>2025-04-29T09:29:43.000Z</time>
</trkpt>
<trkpt lat="45.9056300" lon="10.3485590">
	<ele>1508.40</ele>
	<time>2025-04-29T09:29:44.000Z</time>
</trkpt>
<trkpt lat="45.9056470" lon="10.3485490">
	<ele>1508.20</ele>
	<time>2025-04-29T09:29:45.000Z</time>
</trkpt>
<trkpt lat="45.9056640" lon="10.3485340">
	<ele>1508.00</ele>
	<time>2025-04-29T09:29:46.000Z</time>
</trkpt>
<trkpt lat="45.9056790" lon="10.3485190">
	<ele>1507.80</ele>
	<time>2025-04-29T09:29:47.000Z</time>
</trkpt>
<trkpt lat="45.9056820" lon="10.3485210">
	<ele>1507.40</ele>
	<time>2025-04-29T09:29:48.000Z</time>
</trkpt>
<trkpt lat="45.9056830" lon="10.3485240">
	<ele>1507.20</ele>
	<time>2025-04-29T09:29:49.000Z</time>
</trkpt>
<trkpt lat="45.9057030" lon="10.3485160">
	<ele>1507.00</ele>
	<time>2025-04-29T09:29:50.000Z</time>
</trkpt>
<trkpt lat="45.9057360" lon="10.3485050">
	<ele>1506.80</ele>
	<time>2025-04-29T09:29:51.000Z</time>
</trkpt>
<trkpt lat="45.9057620" lon="10.3484980">
	<ele>1506.80</ele>
	<time>2025-04-29T09:29:52.000Z</time>
</trkpt>
<trkpt lat="45.9057820" lon="10.3484930">
	<ele>1506.60</ele>
	<time>2025-04-29T09:29:53.000Z</time>
</trkpt>
<trkpt lat="45.9058000" lon="10.3484840">
	<ele>1506.20</ele>
	<time>2025-04-29T09:29:54.000Z</time>
</trkpt>
<trkpt lat="45.9058100" lon="10.3484660">
	<ele>1506.00</ele>
	<time>2025-04-29T09:29:55.000Z</time>
</trkpt>
<trkpt lat="45.9058270" lon="10.3484540">
	<ele>1506.00</ele>
	<time>2025-04-29T09:29:56.000Z</time>
</trkpt>
<trkpt lat="45.9058450" lon="10.3484470">
	<ele>1505.80</ele>
	<time>2025-04-29T09:29:57.000Z</time>
</trkpt>
<trkpt lat="45.9058610" lon="10.3484340">
	<ele>1505.60</ele>
	<time>2025-04-29T09:29:58.000Z</time>
</trkpt>
<trkpt lat="45.9058750" lon="10.3484320">
	<ele>1505.40</ele>
	<time>2025-04-29T09:29:59.000Z</time>
</trkpt>
<trkpt lat="45.9058840" lon="10.3484340">
	<ele>1505.20</ele>
	<time>2025-04-29T09:30:00.000Z</time>
</trkpt>
<trkpt lat="45.9058920" lon="10.3484360">
	<ele>1505.00</ele>
	<time>2025-04-29T09:30:01.000Z</time>
</trkpt>
<trkpt lat="45.9059010" lon="10.3484280">
	<ele>1505.00</ele>
	<time>2025-04-29T09:30:02.000Z</time>
</trkpt>
<trkpt lat="45.9059140" lon="10.3484240">
	<ele>1504.80</ele>
	<time>2025-04-29T09:30:03.000Z</time>
</trkpt>
<trkpt lat="45.9059300" lon="10.3484230">
	<ele>1504.80</ele>
	<time>2025-04-29T09:30:04.000Z</time>
</trkpt>
<trkpt lat="45.9059310" lon="10.3484280">
	<ele>1504.80</ele>
	<time>2025-04-29T09:30:05.000Z</time>
</trkpt>
<trkpt lat="45.9059470" lon="10.3484210">
	<ele>1504.60</ele>
	<time>2025-04-29T09:30:06.000Z</time>
</trkpt>
<trkpt lat="45.9059700" lon="10.3484150">
	<ele>1504.60</ele>
	<time>2025-04-29T09:30:07.000Z</time>
</trkpt>
<trkpt lat="45.9059920" lon="10.3484090">
	<ele>1504.40</ele>
	<time>2025-04-29T09:30:08.000Z</time>
</trkpt>
<trkpt lat="45.9060090" lon="10.3484020">
	<ele>1504.40</ele>
	<time>2025-04-29T09:30:09.000Z</time>
</trkpt>
<trkpt lat="45.9060270" lon="10.3484050">
	<ele>1504.40</ele>
	<time>2025-04-29T09:30:10.000Z</time>
</trkpt>
<trkpt lat="45.9060410" lon="10.3484070">
	<ele>1504.20</ele>
	<time>2025-04-29T09:30:11.000Z</time>
</trkpt>
<trkpt lat="45.9060580" lon="10.3484280">
	<ele>1504.20</ele>
	<time>2025-04-29T09:30:12.000Z</time>
</trkpt>
<trkpt lat="45.9060720" lon="10.3484340">
	<ele>1504.00</ele>
	<time>2025-04-29T09:30:13.000Z</time>
</trkpt>
<trkpt lat="45.9060870" lon="10.3484280">
	<ele>1504.00</ele>
	<time>2025-04-29T09:30:14.000Z</time>
</trkpt>
<trkpt lat="45.9061020" lon="10.3484230">
	<ele>1504.00</ele>
	<time>2025-04-29T09:30:15.000Z</time>
</trkpt>
<trkpt lat="45.9061180" lon="10.3484190">
	<ele>1504.00</ele>
	<time>2025-04-29T09:30:16.000Z</time>
</trkpt>
<trkpt lat="45.9061310" lon="10.3484160">
	<ele>1504.00</ele>
	<time>2025-04-29T09:30:17.000Z</time>
</trkpt>
<trkpt lat="45.9061350" lon="10.3484080">
	<ele>1504.00</ele>
	<time>2025-04-29T09:30:18.000Z</time>
</trkpt>
<trkpt lat="45.9061390" lon="10.3484080">
	<ele>1504.00</ele>
	<time>2025-04-29T09:30:19.000Z</time>
</trkpt>
<trkpt lat="45.9061460" lon="10.3484050">
	<ele>1504.20</ele>
	<time>2025-04-29T09:30:20.000Z</time>
</trkpt>
<trkpt lat="45.9061570" lon="10.3484050">
	<ele>1504.20</ele>
	<time>2025-04-29T09:30:21.000Z</time>
</trkpt>
<trkpt lat="45.9061690" lon="10.3484060">
	<ele>1504.20</ele>
	<time>2025-04-29T09:30:22.000Z</time>
</trkpt>
<trkpt lat="45.9061790" lon="10.3484060">
	<ele>1504.00</ele>
	<time>2025-04-29T09:30:23.000Z</time>
</trkpt>
<trkpt lat="45.9061840" lon="10.3484040">
	<ele>1504.00</ele>
	<time>2025-04-29T09:30:24.000Z</time>
</trkpt>
<trkpt lat="45.9061880" lon="10.3484070">
	<ele>1504.00</ele>
	<time>2025-04-29T09:30:25.000Z</time>
</trkpt>
<trkpt lat="45.9061960" lon="10.3484050">
	<ele>1503.80</ele>
	<time>2025-04-29T09:30:26.000Z</time>
</trkpt>
<trkpt lat="45.9062100" lon="10.3484000">
	<ele>1503.80</ele>
	<time>2025-04-29T09:30:27.000Z</time>
</trkpt>
<trkpt lat="45.9062310" lon="10.3483970">
	<ele>1503.80</ele>
	<time>2025-04-29T09:30:28.000Z</time>
</trkpt>
<trkpt lat="45.9062480" lon="10.3484050">
	<ele>1503.80</ele>
	<time>2025-04-29T09:30:29.000Z</time>
</trkpt>
<trkpt lat="45.9062670" lon="10.3484110">
	<ele>1504.00</ele>
	<time>2025-04-29T09:30:30.000Z</time>
</trkpt>
<trkpt lat="45.9062800" lon="10.3484040">
	<ele>1504.00</ele>
	<time>2025-04-29T09:30:31.000Z</time>
</trkpt>
<trkpt lat="45.9062950" lon="10.3483960">
	<ele>1503.80</ele>
	<time>2025-04-29T09:30:32.000Z</time>
</trkpt>
<trkpt lat="45.9063070" lon="10.3483810">
	<ele>1503.60</ele>
	<time>2025-04-29T09:30:33.000Z</time>
</trkpt>
<trkpt lat="45.9063210" lon="10.3483770">
	<ele>1503.60</ele>
	<time>2025-04-29T09:30:34.000Z</time>
</trkpt>
<trkpt lat="45.9063390" lon="10.3483680">
	<ele>1503.40</ele>
	<time>2025-04-29T09:30:35.000Z</time>
</trkpt>
<trkpt lat="45.9063580" lon="10.3483560">
	<ele>1503.20</ele>
	<time>2025-04-29T09:30:36.000Z</time>
</trkpt>
<trkpt lat="45.9063770" lon="10.3483450">
	<ele>1503.20</ele>
	<time>2025-04-29T09:30:37.000Z</time>
</trkpt>
<trkpt lat="45.9063910" lon="10.3483440">
	<ele>1503.20</ele>
	<time>2025-04-29T09:30:38.000Z</time>
</trkpt>
<trkpt lat="45.9064050" lon="10.3483360">
	<ele>1503.20</ele>
	<time>2025-04-29T09:30:39.000Z</time>
</trkpt>
<trkpt lat="45.9064120" lon="10.3483330">
	<ele>1503.20</ele>
	<time>2025-04-29T09:30:40.000Z</time>
</trkpt>
<trkpt lat="45.9064160" lon="10.3483330">
	<ele>1503.20</ele>
	<time>2025-04-29T09:30:41.000Z</time>
</trkpt>
<trkpt lat="45.9064200" lon="10.3483310">
	<ele>1503.20</ele>
	<time>2025-04-29T09:30:42.000Z</time>
</trkpt>
<trkpt lat="45.9064230" lon="10.3483260">
	<ele>1503.20</ele>
	<time>2025-04-29T09:30:43.000Z</time>
</trkpt>
<trkpt lat="45.9064280" lon="10.3483240">
	<ele>1503.00</ele>
	<time>2025-04-29T09:30:44.000Z</time>
</trkpt>
<trkpt lat="45.9064310" lon="10.3483220">
	<ele>1502.80</ele>
	<time>2025-04-29T09:30:45.000Z</time>
</trkpt>
<trkpt lat="45.9064300" lon="10.3483220">
	<ele>1502.80</ele>
	<time>2025-04-29T09:30:46.000Z</time>
</trkpt>
<trkpt lat="45.9064300" lon="10.3483220">
	<ele>1502.80</ele>
	<time>2025-04-29T09:30:47.000Z</time>
</trkpt>
<trkpt lat="45.9064350" lon="10.3483100">
	<ele>1502.80</ele>
	<time>2025-04-29T09:30:48.000Z</time>
</trkpt>
<trkpt lat="45.9064410" lon="10.3483000">
	<ele>1502.80</ele>
	<time>2025-04-29T09:30:49.000Z</time>
</trkpt>
<trkpt lat="45.9064470" lon="10.3482880">
	<ele>1502.80</ele>
	<time>2025-04-29T09:30:50.000Z</time>
</trkpt>
<trkpt lat="45.9064530" lon="10.3482800">
	<ele>1502.60</ele>
	<time>2025-04-29T09:30:51.000Z</time>
</trkpt>
<trkpt lat="45.9064580" lon="10.3482720">
	<ele>1502.60</ele>
	<time>2025-04-29T09:30:52.000Z</time>
</trkpt>
<trkpt lat="45.9064620" lon="10.3482640">
	<ele>1502.60</ele>
	<time>2025-04-29T09:30:53.000Z</time>
</trkpt>
<trkpt lat="45.9064670" lon="10.3482580">
	<ele>1502.60</ele>
	<time>2025-04-29T09:30:54.000Z</time>
</trkpt>
<trkpt lat="45.9064690" lon="10.3482540">
	<ele>1502.40</ele>
	<time>2025-04-29T09:30:55.000Z</time>
</trkpt>
<trkpt lat="45.9064680" lon="10.3482500">
	<ele>1502.40</ele>
	<time>2025-04-29T09:30:56.000Z</time>
</trkpt>
<trkpt lat="45.9064700" lon="10.3482450">
	<ele>1502.20</ele>
	<time>2025-04-29T09:30:57.000Z</time>
</trkpt>
<trkpt lat="45.9064700" lon="10.3482420">
	<ele>1502.00</ele>
	<time>2025-04-29T09:30:58.000Z</time>
</trkpt>
<trkpt lat="45.9064700" lon="10.3482390">
	<ele>1502.00</ele>
	<time>2025-04-29T09:30:59.000Z</time>
</trkpt>
<trkpt lat="45.9064670" lon="10.3482390">
	<ele>1502.00</ele>
	<time>2025-04-29T09:31:00.000Z</time>
</trkpt>
<trkpt lat="45.9064620" lon="10.3482490">
	<ele>1501.80</ele>
	<time>2025-04-29T09:31:01.000Z</time>
</trkpt>
<trkpt lat="45.9064610" lon="10.3482490">
	<ele>1501.80</ele>
	<time>2025-04-29T09:31:02.000Z</time>
</trkpt>
<trkpt lat="45.9064620" lon="10.3482480">
	<ele>1501.80</ele>
	<time>2025-04-29T09:31:03.000Z</time>
</trkpt>
<trkpt lat="45.9064620" lon="10.3482480">
	<ele>1501.80</ele>
	<time>2025-04-29T09:31:04.000Z</time>
</trkpt>
<trkpt lat="45.9064630" lon="10.3482480">
	<ele>1501.80</ele>
	<time>2025-04-29T09:31:05.000Z</time>
</trkpt>
<trkpt lat="45.9064620" lon="10.3482510">
	<ele>1501.80</ele>
	<time>2025-04-29T09:31:06.000Z</time>
</trkpt>
<trkpt lat="45.9064650" lon="10.3482460">
	<ele>1501.80</ele>
	<time>2025-04-29T09:31:07.000Z</time>
</trkpt>
<trkpt lat="45.9064670" lon="10.3482450">
	<ele>1501.80</ele>
	<time>2025-04-29T09:31:08.000Z</time>
</trkpt>
<trkpt lat="45.9064740" lon="10.3482460">
	<ele>1501.80</ele>
	<time>2025-04-29T09:31:09.000Z</time>
</trkpt>
<trkpt lat="45.9064730" lon="10.3482480">
	<ele>1501.80</ele>
	<time>2025-04-29T09:31:10.000Z</time>
</trkpt>
<trkpt lat="45.9064660" lon="10.3482510">
	<ele>1501.80</ele>
	<time>2025-04-29T09:31:11.000Z</time>
</trkpt>
<trkpt lat="45.9064640" lon="10.3482520">
	<ele>1501.80</ele>
	<time>2025-04-29T09:31:12.000Z</time>
</trkpt>
<trkpt lat="45.9064640" lon="10.3482520">
	<ele>1501.80</ele>
	<time>2025-04-29T09:31:13.000Z</time>
</trkpt>
<trkpt lat="45.9064600" lon="10.3482620">
	<ele>1501.80</ele>
	<time>2025-04-29T09:31:14.000Z</time>
</trkpt>
<trkpt lat="45.9064530" lon="10.3482730">
	<ele>1501.80</ele>
	<time>2025-04-29T09:31:15.000Z</time>
</trkpt>
<trkpt lat="45.9064550" lon="10.3482810">
	<ele>1501.60</ele>
	<time>2025-04-29T09:31:16.000Z</time>
</trkpt>
<trkpt lat="45.9064580" lon="10.3482840">
	<ele>1501.60</ele>
	<time>2025-04-29T09:31:17.000Z</time>
</trkpt>
<trkpt lat="45.9064570" lon="10.3482890">
	<ele>1501.60</ele>
	<time>2025-04-29T09:31:18.000Z</time>
</trkpt>
<trkpt lat="45.9064550" lon="10.3482880">
	<ele>1501.60</ele>
	<time>2025-04-29T09:31:19.000Z</time>
</trkpt>
<trkpt lat="45.9064560" lon="10.3482860">
	<ele>1501.60</ele>
	<time>2025-04-29T09:31:20.000Z</time>
</trkpt>
<trkpt lat="45.9064580" lon="10.3482820">
	<ele>1501.60</ele>
	<time>2025-04-29T09:31:21.000Z</time>
</trkpt>
<trkpt lat="45.9064600" lon="10.3482800">
	<ele>1501.60</ele>
	<time>2025-04-29T09:31:22.000Z</time>
</trkpt>
<trkpt lat="45.9064610" lon="10.3482800">
	<ele>1501.60</ele>
	<time>2025-04-29T09:31:23.000Z</time>
</trkpt>
<trkpt lat="45.9064630" lon="10.3482810">
	<ele>1501.60</ele>
	<time>2025-04-29T09:31:24.000Z</time>
</trkpt>
<trkpt lat="45.9064640" lon="10.3482810">
	<ele>1501.60</ele>
	<time>2025-04-29T09:31:25.000Z</time>
</trkpt>
<trkpt lat="45.9064640" lon="10.3482810">
	<ele>1501.60</ele>
	<time>2025-04-29T09:31:26.000Z</time>
</trkpt>
<trkpt lat="45.9064640" lon="10.3482810">
	<ele>1501.60</ele>
	<time>2025-04-29T09:31:27.000Z</time>
</trkpt>
<trkpt lat="45.9064640" lon="10.3482810">
	<ele>1501.60</ele>
	<time>2025-04-29T09:31:28.000Z</time>
</trkpt>
<trkpt lat="45.9064640" lon="10.3482810">
	<ele>1501.60</ele>
	<time>2025-04-29T09:31:29.000Z</time>
</trkpt>
<trkpt lat="45.9064640" lon="10.3482810">
	<ele>1501.80</ele>
	<time>2025-04-29T09:31:30.000Z</time>
</trkpt>
<trkpt lat="45.9064640" lon="10.3482810">
	<ele>1502.00</ele>
	<time>2025-04-29T09:31:31.000Z</time>
</trkpt>
<trkpt lat="45.9064640" lon="10.3482810">
	<ele>1502.00</ele>
	<time>2025-04-29T09:31:32.000Z</time>
</trkpt>
<trkpt lat="45.9064630" lon="10.3482810">
	<ele>1502.00</ele>
	<time>2025-04-29T09:31:33.000Z</time>
</trkpt>
<trkpt lat="45.9064630" lon="10.3482810">
	<ele>1502.00</ele>
	<time>2025-04-29T09:31:34.000Z</time>
</trkpt>
<trkpt lat="45.9064650" lon="10.3482740">
	<ele>1501.80</ele>
	<time>2025-04-29T09:31:35.000Z</time>
</trkpt>
<trkpt lat="45.9064750" lon="10.3482490">
	<ele>1501.80</ele>
	<time>2025-04-29T09:31:36.000Z</time>
</trkpt>
<trkpt lat="45.9064830" lon="10.3482230">
	<ele>1501.60</ele>
	<time>2025-04-29T09:31:37.000Z</time>
</trkpt>
<trkpt lat="45.9064920" lon="10.3481990">
	<ele>1501.60</ele>
	<time>2025-04-29T09:31:38.000Z</time>
</trkpt>
<trkpt lat="45.9065010" lon="10.3481740">
	<ele>1501.40</ele>
	<time>2025-04-29T09:31:39.000Z</time>
</trkpt>
<trkpt lat="45.9065010" lon="10.3481540">
	<ele>1501.40</ele>
	<time>2025-04-29T09:31:40.000Z</time>
</trkpt>
<trkpt lat="45.9064990" lon="10.3481290">
	<ele>1501.40</ele>
	<time>2025-04-29T09:31:41.000Z</time>
</trkpt>
<trkpt lat="45.9065020" lon="10.3481050">
	<ele>1501.20</ele>
	<time>2025-04-29T09:31:42.000Z</time>
</trkpt>
<trkpt lat="45.9065080" lon="10.3480810">
	<ele>1501.20</ele>
	<time>2025-04-29T09:31:43.000Z</time>
</trkpt>
<trkpt lat="45.9065160" lon="10.3480590">
	<ele>1501.20</ele>
	<time>2025-04-29T09:31:44.000Z</time>
</trkpt>
<trkpt lat="45.9065220" lon="10.3480450">
	<ele>1501.20</ele>
	<time>2025-04-29T09:31:45.000Z</time>
</trkpt>
<trkpt lat="45.9065300" lon="10.3480320">
	<ele>1501.00</ele>
	<time>2025-04-29T09:31:46.000Z</time>
</trkpt>
<trkpt lat="45.9065430" lon="10.3480180">
	<ele>1501.00</ele>
	<time>2025-04-29T09:31:47.000Z</time>
</trkpt>
<trkpt lat="45.9065510" lon="10.3480070">
	<ele>1501.00</ele>
	<time>2025-04-29T09:31:48.000Z</time>
</trkpt>
<trkpt lat="45.9065570" lon="10.3479950">
	<ele>1501.00</ele>
	<time>2025-04-29T09:31:49.000Z</time>
</trkpt>
<trkpt lat="45.9065650" lon="10.3479870">
	<ele>1501.00</ele>
	<time>2025-04-29T09:31:50.000Z</time>
</trkpt>
<trkpt lat="45.9065770" lon="10.3479770">
	<ele>1501.00</ele>
	<time>2025-04-29T09:31:51.000Z</time>
</trkpt>
<trkpt lat="45.9065830" lon="10.3479630">
	<ele>1501.00</ele>
	<time>2025-04-29T09:31:52.000Z</time>
</trkpt>
<trkpt lat="45.9065860" lon="10.3479460">
	<ele>1501.00</ele>
	<time>2025-04-29T09:31:53.000Z</time>
</trkpt>
<trkpt lat="45.9065930" lon="10.3479320">
	<ele>1501.00</ele>
	<time>2025-04-29T09:31:54.000Z</time>
</trkpt>
<trkpt lat="45.9066010" lon="10.3479180">
	<ele>1501.00</ele>
	<time>2025-04-29T09:31:55.000Z</time>
</trkpt>
<trkpt lat="45.9066050" lon="10.3479070">
	<ele>1501.00</ele>
	<time>2025-04-29T09:31:56.000Z</time>
</trkpt>
<trkpt lat="45.9066120" lon="10.3478950">
	<ele>1500.80</ele>
	<time>2025-04-29T09:31:57.000Z</time>
</trkpt>
<trkpt lat="45.9066230" lon="10.3478820">
	<ele>1500.80</ele>
	<time>2025-04-29T09:31:58.000Z</time>
</trkpt>
<trkpt lat="45.9066310" lon="10.3478700">
	<ele>1500.80</ele>
	<time>2025-04-29T09:31:59.000Z</time>
</trkpt>
<trkpt lat="45.9066390" lon="10.3478610">
	<ele>1500.80</ele>
	<time>2025-04-29T09:32:00.000Z</time>
</trkpt>
<trkpt lat="45.9066420" lon="10.3478590">
	<ele>1500.80</ele>
	<time>2025-04-29T09:32:01.000Z</time>
</trkpt>
<trkpt lat="45.9066430" lon="10.3478550">
	<ele>1500.80</ele>
	<time>2025-04-29T09:32:02.000Z</time>
</trkpt>
<trkpt lat="45.9066430" lon="10.3478560">
	<ele>1500.80</ele>
	<time>2025-04-29T09:32:03.000Z</time>
</trkpt>
<trkpt lat="45.9066420" lon="10.3478590">
	<ele>1500.80</ele>
	<time>2025-04-29T09:32:04.000Z</time>
</trkpt>
<trkpt lat="45.9066400" lon="10.3478600">
	<ele>1500.80</ele>
	<time>2025-04-29T09:32:05.000Z</time>
</trkpt>
<trkpt lat="45.9066380" lon="10.3478600">
	<ele>1500.60</ele>
	<time>2025-04-29T09:32:06.000Z</time>
</trkpt>
<trkpt lat="45.9066370" lon="10.3478590">
	<ele>1500.60</ele>
	<time>2025-04-29T09:32:07.000Z</time>
</trkpt>
<trkpt lat="45.9066390" lon="10.3478630">
	<ele>1500.60</ele>
	<time>2025-04-29T09:32:08.000Z</time>
</trkpt>
<trkpt lat="45.9066430" lon="10.3478680">
	<ele>1500.60</ele>
	<time>2025-04-29T09:32:09.000Z</time>
</trkpt>
<trkpt lat="45.9066460" lon="10.3478670">
	<ele>1500.60</ele>
	<time>2025-04-29T09:32:10.000Z</time>
</trkpt>
<trkpt lat="45.9066460" lon="10.3478670">
	<ele>1500.60</ele>
	<time>2025-04-29T09:32:11.000Z</time>
</trkpt>
<trkpt lat="45.9066470" lon="10.3478640">
	<ele>1500.60</ele>
	<time>2025-04-29T09:32:12.000Z</time>
</trkpt>
<trkpt lat="45.9066460" lon="10.3478620">
	<ele>1500.60</ele>
	<time>2025-04-29T09:32:13.000Z</time>
</trkpt>
<trkpt lat="45.9066390" lon="10.3478540">
	<ele>1500.60</ele>
	<time>2025-04-29T09:32:14.000Z</time>
</trkpt>
<trkpt lat="45.9066390" lon="10.3478450">
	<ele>1500.60</ele>
	<time>2025-04-29T09:32:15.000Z</time>
</trkpt>
<trkpt lat="45.9066440" lon="10.3478420">
	<ele>1500.60</ele>
	<time>2025-04-29T09:32:16.000Z</time>
</trkpt>
<trkpt lat="45.9066480" lon="10.3478380">
	<ele>1500.60</ele>
	<time>2025-04-29T09:32:17.000Z</time>
</trkpt>
<trkpt lat="45.9066630" lon="10.3478330">
	<ele>1500.40</ele>
	<time>2025-04-29T09:32:18.000Z</time>
</trkpt>
<trkpt lat="45.9066770" lon="10.3478240">
	<ele>1500.40</ele>
	<time>2025-04-29T09:32:19.000Z</time>
</trkpt>
<trkpt lat="45.9066930" lon="10.3478160">
	<ele>1500.40</ele>
	<time>2025-04-29T09:32:20.000Z</time>
</trkpt>
<trkpt lat="45.9067000" lon="10.3478060">
	<ele>1500.40</ele>
	<time>2025-04-29T09:32:21.000Z</time>
</trkpt>
<trkpt lat="45.9067040" lon="10.3477950">
	<ele>1500.40</ele>
	<time>2025-04-29T09:32:22.000Z</time>
</trkpt>
<trkpt lat="45.9067070" lon="10.3477870">
	<ele>1500.40</ele>
	<time>2025-04-29T09:32:23.000Z</time>
</trkpt>
<trkpt lat="45.9067100" lon="10.3477790">
	<ele>1500.40</ele>
	<time>2025-04-29T09:32:24.000Z</time>
</trkpt>
<trkpt lat="45.9067120" lon="10.3477680">
	<ele>1500.40</ele>
	<time>2025-04-29T09:32:25.000Z</time>
</trkpt>
<trkpt lat="45.9067180" lon="10.3477500">
	<ele>1500.40</ele>
	<time>2025-04-29T09:32:26.000Z</time>
</trkpt>
<trkpt lat="45.9067250" lon="10.3477320">
	<ele>1500.40</ele>
	<time>2025-04-29T09:32:27.000Z</time>
</trkpt>
<trkpt lat="45.9067320" lon="10.3477150">
	<ele>1500.40</ele>
	<time>2025-04-29T09:32:28.000Z</time>
</trkpt>
<trkpt lat="45.9067450" lon="10.3477090">
	<ele>1500.40</ele>
	<time>2025-04-29T09:32:29.000Z</time>
</trkpt>
<trkpt lat="45.9067620" lon="10.3477010">
	<ele>1500.40</ele>
	<time>2025-04-29T09:32:30.000Z</time>
</trkpt>
<trkpt lat="45.9067660" lon="10.3476790">
	<ele>1500.40</ele>
	<time>2025-04-29T09:32:31.000Z</time>
</trkpt>
<trkpt lat="45.9067760" lon="10.3476590">
	<ele>1500.40</ele>
	<time>2025-04-29T09:32:32.000Z</time>
</trkpt>
<trkpt lat="45.9067860" lon="10.3476510">
	<ele>1500.40</ele>
	<time>2025-04-29T09:32:33.000Z</time>
</trkpt>
<trkpt lat="45.9067880" lon="10.3476310">
	<ele>1500.60</ele>
	<time>2025-04-29T09:32:34.000Z</time>
</trkpt>
<trkpt lat="45.9067960" lon="10.3476160">
	<ele>1500.80</ele>
	<time>2025-04-29T09:32:35.000Z</time>
</trkpt>
<trkpt lat="45.9068080" lon="10.3476000">
	<ele>1500.80</ele>
	<time>2025-04-29T09:32:36.000Z</time>
</trkpt>
<trkpt lat="45.9068170" lon="10.3475840">
	<ele>1501.00</ele>
	<time>2025-04-29T09:32:37.000Z</time>
</trkpt>
<trkpt lat="45.9068230" lon="10.3475670">
	<ele>1501.00</ele>
	<time>2025-04-29T09:32:38.000Z</time>
</trkpt>
<trkpt lat="45.9068230" lon="10.3475500">
	<ele>1501.20</ele>
	<time>2025-04-29T09:32:39.000Z</time>
</trkpt>
<trkpt lat="45.9068250" lon="10.3475330">
	<ele>1501.40</ele>
	<time>2025-04-29T09:32:40.000Z</time>
</trkpt>
<trkpt lat="45.9068330" lon="10.3475140">
	<ele>1501.40</ele>
	<time>2025-04-29T09:32:41.000Z</time>
</trkpt>
<trkpt lat="45.9068380" lon="10.3474960">
	<ele>1501.60</ele>
	<time>2025-04-29T09:32:42.000Z</time>
</trkpt>
<trkpt lat="45.9068470" lon="10.3474780">
	<ele>1501.80</ele>
	<time>2025-04-29T09:32:43.000Z</time>
</trkpt>
<trkpt lat="45.9068510" lon="10.3474620">
	<ele>1501.80</ele>
	<time>2025-04-29T09:32:44.000Z</time>
</trkpt>
<trkpt lat="45.9068520" lon="10.3474500">
	<ele>1502.00</ele>
	<time>2025-04-29T09:32:45.000Z</time>
</trkpt>
<trkpt lat="45.9068560" lon="10.3474390">
	<ele>1502.00</ele>
	<time>2025-04-29T09:32:46.000Z</time>
</trkpt>
<trkpt lat="45.9068610" lon="10.3474280">
	<ele>1502.00</ele>
	<time>2025-04-29T09:32:47.000Z</time>
</trkpt>
<trkpt lat="45.9068640" lon="10.3474170">
	<ele>1502.20</ele>
	<time>2025-04-29T09:32:48.000Z</time>
</trkpt>
<trkpt lat="45.9068670" lon="10.3474050">
	<ele>1502.20</ele>
	<time>2025-04-29T09:32:49.000Z</time>
</trkpt>
<trkpt lat="45.9068720" lon="10.3473920">
	<ele>1502.20</ele>
	<time>2025-04-29T09:32:50.000Z</time>
</trkpt>
<trkpt lat="45.9068760" lon="10.3473770">
	<ele>1502.40</ele>
	<time>2025-04-29T09:32:51.000Z</time>
</trkpt>
<trkpt lat="45.9068820" lon="10.3473620">
	<ele>1502.40</ele>
	<time>2025-04-29T09:32:52.000Z</time>
</trkpt>
<trkpt lat="45.9068880" lon="10.3473480">
	<ele>1502.60</ele>
	<time>2025-04-29T09:32:53.000Z</time>
</trkpt>
<trkpt lat="45.9068950" lon="10.3473360">
	<ele>1502.60</ele>
	<time>2025-04-29T09:32:54.000Z</time>
</trkpt>
<trkpt lat="45.9069030" lon="10.3473220">
	<ele>1502.80</ele>
	<time>2025-04-29T09:32:55.000Z</time>
</trkpt>
<trkpt lat="45.9069090" lon="10.3473080">
	<ele>1502.80</ele>
	<time>2025-04-29T09:32:56.000Z</time>
</trkpt>
<trkpt lat="45.9069120" lon="10.3472920">
	<ele>1502.80</ele>
	<time>2025-04-29T09:32:57.000Z</time>
</trkpt>
<trkpt lat="45.9069190" lon="10.3472750">
	<ele>1503.00</ele>
	<time>2025-04-29T09:32:58.000Z</time>
</trkpt>
<trkpt lat="45.9069290" lon="10.3472590">
	<ele>1503.00</ele>
	<time>2025-04-29T09:32:59.000Z</time>
</trkpt>
<trkpt lat="45.9069420" lon="10.3472440">
	<ele>1503.00</ele>
	<time>2025-04-29T09:33:00.000Z</time>
</trkpt>
<trkpt lat="45.9069500" lon="10.3472270">
	<ele>1503.00</ele>
	<time>2025-04-29T09:33:01.000Z</time>
</trkpt>
<trkpt lat="45.9069480" lon="10.3472190">
	<ele>1503.20</ele>
	<time>2025-04-29T09:33:02.000Z</time>
</trkpt>
<trkpt lat="45.9069380" lon="10.3472150">
	<ele>1503.20</ele>
	<time>2025-04-29T09:33:03.000Z</time>
</trkpt>
<trkpt lat="45.9069360" lon="10.3472130">
	<ele>1503.20</ele>
	<time>2025-04-29T09:33:04.000Z</time>
</trkpt>
<trkpt lat="45.9069360" lon="10.3472120">
	<ele>1503.40</ele>
	<time>2025-04-29T09:33:05.000Z</time>
</trkpt>
<trkpt lat="45.9069360" lon="10.3472100">
	<ele>1503.40</ele>
	<time>2025-04-29T09:33:06.000Z</time>
</trkpt>
<trkpt lat="45.9069380" lon="10.3472100">
	<ele>1503.40</ele>
	<time>2025-04-29T09:33:07.000Z</time>
</trkpt>
<trkpt lat="45.9069390" lon="10.3472110">
	<ele>1503.40</ele>
	<time>2025-04-29T09:33:08.000Z</time>
</trkpt>
<trkpt lat="45.9069410" lon="10.3472130">
	<ele>1503.20</ele>
	<time>2025-04-29T09:33:09.000Z</time>
</trkpt>
<trkpt lat="45.9069420" lon="10.3472120">
	<ele>1503.20</ele>
	<time>2025-04-29T09:33:10.000Z</time>
</trkpt>
<trkpt lat="45.9069440" lon="10.3472090">
	<ele>1503.20</ele>
	<time>2025-04-29T09:33:11.000Z</time>
</trkpt>
<trkpt lat="45.9069460" lon="10.3471970">
	<ele>1503.20</ele>
	<time>2025-04-29T09:33:12.000Z</time>
</trkpt>
<trkpt lat="45.9069490" lon="10.3471810">
	<ele>1503.20</ele>
	<time>2025-04-29T09:33:13.000Z</time>
</trkpt>
<trkpt lat="45.9069530" lon="10.3471680">
	<ele>1503.20</ele>
	<time>2025-04-29T09:33:14.000Z</time>
</trkpt>
<trkpt lat="45.9069510" lon="10.3471520">
	<ele>1503.20</ele>
	<time>2025-04-29T09:33:15.000Z</time>
</trkpt>
<trkpt lat="45.9069520" lon="10.3471340">
	<ele>1503.20</ele>
	<time>2025-04-29T09:33:16.000Z</time>
</trkpt>
<trkpt lat="45.9069550" lon="10.3471170">
	<ele>1503.20</ele>
	<time>2025-04-29T09:33:17.000Z</time>
</trkpt>
<trkpt lat="45.9069550" lon="10.3471070">
	<ele>1503.20</ele>
	<time>2025-04-29T09:33:18.000Z</time>
</trkpt>
<trkpt lat="45.9069570" lon="10.3470950">
	<ele>1503.20</ele>
	<time>2025-04-29T09:33:19.000Z</time>
</trkpt>
<trkpt lat="45.9069610" lon="10.3470710">
	<ele>1503.20</ele>
	<time>2025-04-29T09:33:20.000Z</time>
</trkpt>
<trkpt lat="45.9069650" lon="10.3470520">
	<ele>1503.20</ele>
	<time>2025-04-29T09:33:21.000Z</time>
</trkpt>
<trkpt lat="45.9069660" lon="10.3470400">
	<ele>1503.20</ele>
	<time>2025-04-29T09:33:22.000Z</time>
</trkpt>
<trkpt lat="45.9069690" lon="10.3470250">
	<ele>1503.20</ele>
	<time>2025-04-29T09:33:23.000Z</time>
</trkpt>
<trkpt lat="45.9069720" lon="10.3470080">
	<ele>1503.20</ele>
	<time>2025-04-29T09:33:24.000Z</time>
</trkpt>
<trkpt lat="45.9069730" lon="10.3469910">
	<ele>1503.20</ele>
	<time>2025-04-29T09:33:25.000Z</time>
</trkpt>
<trkpt lat="45.9069730" lon="10.3469750">
	<ele>1503.20</ele>
	<time>2025-04-29T09:33:26.000Z</time>
</trkpt>
<trkpt lat="45.9069770" lon="10.3469600">
	<ele>1503.20</ele>
	<time>2025-04-29T09:33:27.000Z</time>
</trkpt>
<trkpt lat="45.9069800" lon="10.3469440">
	<ele>1503.20</ele>
	<time>2025-04-29T09:33:28.000Z</time>
</trkpt>
<trkpt lat="45.9069850" lon="10.3469230">
	<ele>1503.20</ele>
	<time>2025-04-29T09:33:29.000Z</time>
</trkpt>
<trkpt lat="45.9069840" lon="10.3469050">
	<ele>1503.20</ele>
	<time>2025-04-29T09:33:30.000Z</time>
</trkpt>
<trkpt lat="45.9069860" lon="10.3468730">
	<ele>1503.20</ele>
	<time>2025-04-29T09:33:31.000Z</time>
</trkpt>
<trkpt lat="45.9069940" lon="10.3468490">
	<ele>1504.00</ele>
	<time>2025-04-29T09:33:32.000Z</time>
</trkpt>
<trkpt lat="45.9069970" lon="10.3468350">
	<ele>1504.40</ele>
	<time>2025-04-29T09:33:33.000Z</time>
</trkpt>
<trkpt lat="45.9070020" lon="10.3468160">
	<ele>1504.80</ele>
	<time>2025-04-29T09:33:34.000Z</time>
</trkpt>
<trkpt lat="45.9070130" lon="10.3467940">
	<ele>1504.80</ele>
	<time>2025-04-29T09:33:35.000Z</time>
</trkpt>
<trkpt lat="45.9070200" lon="10.3467890">
	<ele>1505.00</ele>
	<time>2025-04-29T09:33:36.000Z</time>
</trkpt>
<trkpt lat="45.9070220" lon="10.3467870">
	<ele>1505.00</ele>
	<time>2025-04-29T09:33:37.000Z</time>
</trkpt>
<trkpt lat="45.9070240" lon="10.3467790">
	<ele>1505.00</ele>
	<time>2025-04-29T09:33:38.000Z</time>
</trkpt>
<trkpt lat="45.9070250" lon="10.3467630">
	<ele>1505.20</ele>
	<time>2025-04-29T09:33:39.000Z</time>
</trkpt>
<trkpt lat="45.9070260" lon="10.3467460">
	<ele>1505.20</ele>
	<time>2025-04-29T09:33:40.000Z</time>
</trkpt>
<trkpt lat="45.9070320" lon="10.3467310">
	<ele>1505.20</ele>
	<time>2025-04-29T09:33:41.000Z</time>
</trkpt>
<trkpt lat="45.9070360" lon="10.3467170">
	<ele>1505.20</ele>
	<time>2025-04-29T09:33:42.000Z</time>
</trkpt>
<trkpt lat="45.9070320" lon="10.3467090">
	<ele>1505.40</ele>
	<time>2025-04-29T09:33:43.000Z</time>
</trkpt>
<trkpt lat="45.9070300" lon="10.3467030">
	<ele>1505.40</ele>
	<time>2025-04-29T09:33:44.000Z</time>
</trkpt>
<trkpt lat="45.9070380" lon="10.3466820">
	<ele>1505.60</ele>
	<time>2025-04-29T09:33:45.000Z</time>
</trkpt>
<trkpt lat="45.9070450" lon="10.3466600">
	<ele>1505.80</ele>
	<time>2025-04-29T09:33:46.000Z</time>
</trkpt>
<trkpt lat="45.9070450" lon="10.3466390">
	<ele>1505.80</ele>
	<time>2025-04-29T09:33:47.000Z</time>
</trkpt>
<trkpt lat="45.9070380" lon="10.3466250">
	<ele>1506.00</ele>
	<time>2025-04-29T09:33:48.000Z</time>
</trkpt>
<trkpt lat="45.9070310" lon="10.3466060">
	<ele>1506.20</ele>
	<time>2025-04-29T09:33:49.000Z</time>
</trkpt>
<trkpt lat="45.9070280" lon="10.3465920">
	<ele>1506.40</ele>
	<time>2025-04-29T09:33:50.000Z</time>
</trkpt>
<trkpt lat="45.9070260" lon="10.3465830">
	<ele>1506.60</ele>
	<time>2025-04-29T09:33:51.000Z</time>
</trkpt>
<trkpt lat="45.9070300" lon="10.3465610">
	<ele>1506.80</ele>
	<time>2025-04-29T09:33:52.000Z</time>
</trkpt>
<trkpt lat="45.9070340" lon="10.3465450">
	<ele>1507.00</ele>
	<time>2025-04-29T09:33:53.000Z</time>
</trkpt>
<trkpt lat="45.9070390" lon="10.3465300">
	<ele>1507.20</ele>
	<time>2025-04-29T09:33:54.000Z</time>
</trkpt>
<trkpt lat="45.9070430" lon="10.3465180">
	<ele>1507.40</ele>
	<time>2025-04-29T09:33:55.000Z</time>
</trkpt>
<trkpt lat="45.9070480" lon="10.3465060">
	<ele>1507.60</ele>
	<time>2025-04-29T09:33:56.000Z</time>
</trkpt>
<trkpt lat="45.9070550" lon="10.3464910">
	<ele>1507.80</ele>
	<time>2025-04-29T09:33:57.000Z</time>
</trkpt>
<trkpt lat="45.9070600" lon="10.3464770">
	<ele>1507.80</ele>
	<time>2025-04-29T09:33:58.000Z</time>
</trkpt>
<trkpt lat="45.9070630" lon="10.3464630">
	<ele>1508.20</ele>
	<time>2025-04-29T09:33:59.000Z</time>
</trkpt>
<trkpt lat="45.9070680" lon="10.3464420">
	<ele>1508.40</ele>
	<time>2025-04-29T09:34:00.000Z</time>
</trkpt>
<trkpt lat="45.9070720" lon="10.3464240">
	<ele>1508.40</ele>
	<time>2025-04-29T09:34:01.000Z</time>
</trkpt>
<trkpt lat="45.9070750" lon="10.3464030">
	<ele>1508.60</ele>
	<time>2025-04-29T09:34:02.000Z</time>
</trkpt>
<trkpt lat="45.9070750" lon="10.3463860">
	<ele>1508.60</ele>
	<time>2025-04-29T09:34:03.000Z</time>
</trkpt>
<trkpt lat="45.9070790" lon="10.3463660">
	<ele>1508.80</ele>
	<time>2025-04-29T09:34:04.000Z</time>
</trkpt>
<trkpt lat="45.9070800" lon="10.3463530">
	<ele>1509.00</ele>
	<time>2025-04-29T09:34:05.000Z</time>
</trkpt>
<trkpt lat="45.9070770" lon="10.3463310">
	<ele>1509.20</ele>
	<time>2025-04-29T09:34:06.000Z</time>
</trkpt>
<trkpt lat="45.9070760" lon="10.3463140">
	<ele>1509.40</ele>
	<time>2025-04-29T09:34:07.000Z</time>
</trkpt>
<trkpt lat="45.9070750" lon="10.3462970">
	<ele>1509.60</ele>
	<time>2025-04-29T09:34:08.000Z</time>
</trkpt>
<trkpt lat="45.9070760" lon="10.3462790">
	<ele>1509.60</ele>
	<time>2025-04-29T09:34:09.000Z</time>
</trkpt>
<trkpt lat="45.9070790" lon="10.3462620">
	<ele>1509.60</ele>
	<time>2025-04-29T09:34:10.000Z</time>
</trkpt>
<trkpt lat="45.9070800" lon="10.3462460">
	<ele>1509.60</ele>
	<time>2025-04-29T09:34:11.000Z</time>
</trkpt>
<trkpt lat="45.9070790" lon="10.3462300">
	<ele>1509.80</ele>
	<time>2025-04-29T09:34:12.000Z</time>
</trkpt>
<trkpt lat="45.9070770" lon="10.3462130">
	<ele>1509.80</ele>
	<time>2025-04-29T09:34:13.000Z</time>
</trkpt>
<trkpt lat="45.9070750" lon="10.3461970">
	<ele>1509.80</ele>
	<time>2025-04-29T09:34:14.000Z</time>
</trkpt>
<trkpt lat="45.9070740" lon="10.3461800">
	<ele>1510.00</ele>
	<time>2025-04-29T09:34:15.000Z</time>
</trkpt>
<trkpt lat="45.9070760" lon="10.3461610">
	<ele>1510.00</ele>
	<time>2025-04-29T09:34:16.000Z</time>
</trkpt>
<trkpt lat="45.9070780" lon="10.3461470">
	<ele>1510.20</ele>
	<time>2025-04-29T09:34:17.000Z</time>
</trkpt>
<trkpt lat="45.9070810" lon="10.3461380">
	<ele>1510.40</ele>
	<time>2025-04-29T09:34:18.000Z</time>
</trkpt>
<trkpt lat="45.9070770" lon="10.3461280">
	<ele>1510.40</ele>
	<time>2025-04-29T09:34:19.000Z</time>
</trkpt>
<trkpt lat="45.9070830" lon="10.3461110">
	<ele>1510.60</ele>
	<time>2025-04-29T09:34:20.000Z</time>
</trkpt>
<trkpt lat="45.9070810" lon="10.3460950">
	<ele>1510.80</ele>
	<time>2025-04-29T09:34:21.000Z</time>
</trkpt>
<trkpt lat="45.9070850" lon="10.3460810">
	<ele>1511.00</ele>
	<time>2025-04-29T09:34:22.000Z</time>
</trkpt>
<trkpt lat="45.9070880" lon="10.3460610">
	<ele>1511.20</ele>
	<time>2025-04-29T09:34:23.000Z</time>
</trkpt>
<trkpt lat="45.9070870" lon="10.3460460">
	<ele>1511.60</ele>
	<time>2025-04-29T09:34:24.000Z</time>
</trkpt>
<trkpt lat="45.9070860" lon="10.3460300">
	<ele>1511.80</ele>
	<time>2025-04-29T09:34:25.000Z</time>
</trkpt>
<trkpt lat="45.9070840" lon="10.3460120">
	<ele>1512.00</ele>
	<time>2025-04-29T09:34:26.000Z</time>
</trkpt>
<trkpt lat="45.9070900" lon="10.3459890">
	<ele>1512.00</ele>
	<time>2025-04-29T09:34:27.000Z</time>
</trkpt>
<trkpt lat="45.9070900" lon="10.3459680">
	<ele>1512.20</ele>
	<time>2025-04-29T09:34:28.000Z</time>
</trkpt>
<trkpt lat="45.9070880" lon="10.3459470">
	<ele>1512.40</ele>
	<time>2025-04-29T09:34:29.000Z</time>
</trkpt>
<trkpt lat="45.9070880" lon="10.3459240">
	<ele>1512.60</ele>
	<time>2025-04-29T09:34:30.000Z</time>
</trkpt>
<trkpt lat="45.9070910" lon="10.3459050">
	<ele>1512.60</ele>
	<time>2025-04-29T09:34:31.000Z</time>
</trkpt>
<trkpt lat="45.9070940" lon="10.3458860">
	<ele>1512.80</ele>
	<time>2025-04-29T09:34:32.000Z</time>
</trkpt>
<trkpt lat="45.9070940" lon="10.3458730">
	<ele>1512.80</ele>
	<time>2025-04-29T09:34:33.000Z</time>
</trkpt>
<trkpt lat="45.9070940" lon="10.3458570">
	<ele>1513.00</ele>
	<time>2025-04-29T09:34:34.000Z</time>
</trkpt>
<trkpt lat="45.9070970" lon="10.3458420">
	<ele>1513.00</ele>
	<time>2025-04-29T09:34:35.000Z</time>
</trkpt>
<trkpt lat="45.9071000" lon="10.3458250">
	<ele>1513.00</ele>
	<time>2025-04-29T09:34:36.000Z</time>
</trkpt>
<trkpt lat="45.9071030" lon="10.3458060">
	<ele>1513.00</ele>
	<time>2025-04-29T09:34:37.000Z</time>
</trkpt>
<trkpt lat="45.9071050" lon="10.3457860">
	<ele>1513.00</ele>
	<time>2025-04-29T09:34:38.000Z</time>
</trkpt>
<trkpt lat="45.9071050" lon="10.3457670">
	<ele>1513.20</ele>
	<time>2025-04-29T09:34:39.000Z</time>
</trkpt>
<trkpt lat="45.9071020" lon="10.3457510">
	<ele>1513.20</ele>
	<time>2025-04-29T09:34:40.000Z</time>
</trkpt>
<trkpt lat="45.9071020" lon="10.3457310">
	<ele>1513.20</ele>
	<time>2025-04-29T09:34:41.000Z</time>
</trkpt>
<trkpt lat="45.9071010" lon="10.3457120">
	<ele>1513.20</ele>
	<time>2025-04-29T09:34:42.000Z</time>
</trkpt>
<trkpt lat="45.9071000" lon="10.3456930">
	<ele>1513.00</ele>
	<time>2025-04-29T09:34:43.000Z</time>
</trkpt>
<trkpt lat="45.9071000" lon="10.3456730">
	<ele>1513.00</ele>
	<time>2025-04-29T09:34:44.000Z</time>
</trkpt>
<trkpt lat="45.9070990" lon="10.3456540">
	<ele>1513.00</ele>
	<time>2025-04-29T09:34:45.000Z</time>
</trkpt>
<trkpt lat="45.9071020" lon="10.3456350">
	<ele>1513.00</ele>
	<time>2025-04-29T09:34:46.000Z</time>
</trkpt>
<trkpt lat="45.9071080" lon="10.3456160">
	<ele>1513.00</ele>
	<time>2025-04-29T09:34:47.000Z</time>
</trkpt>
<trkpt lat="45.9071110" lon="10.3456000">
	<ele>1513.00</ele>
	<time>2025-04-29T09:34:48.000Z</time>
</trkpt>
<trkpt lat="45.9071100" lon="10.3455850">
	<ele>1513.00</ele>
	<time>2025-04-29T09:34:49.000Z</time>
</trkpt>
<trkpt lat="45.9071110" lon="10.3455660">
	<ele>1513.00</ele>
	<time>2025-04-29T09:34:50.000Z</time>
</trkpt>
<trkpt lat="45.9071150" lon="10.3455480">
	<ele>1513.00</ele>
	<time>2025-04-29T09:34:51.000Z</time>
</trkpt>
<trkpt lat="45.9071180" lon="10.3455310">
	<ele>1513.20</ele>
	<time>2025-04-29T09:34:52.000Z</time>
</trkpt>
<trkpt lat="45.9071200" lon="10.3455210">
	<ele>1513.20</ele>
	<time>2025-04-29T09:34:53.000Z</time>
</trkpt>
<trkpt lat="45.9071240" lon="10.3455050">
	<ele>1513.20</ele>
	<time>2025-04-29T09:34:54.000Z</time>
</trkpt>
<trkpt lat="45.9071290" lon="10.3454860">
	<ele>1513.40</ele>
	<time>2025-04-29T09:34:55.000Z</time>
</trkpt>
<trkpt lat="45.9071330" lon="10.3454670">
	<ele>1513.40</ele>
	<time>2025-04-29T09:34:56.000Z</time>
</trkpt>
<trkpt lat="45.9071200" lon="10.3454460">
	<ele>1513.60</ele>
	<time>2025-04-29T09:34:57.000Z</time>
</trkpt>
<trkpt lat="45.9071090" lon="10.3454340">
	<ele>1513.80</ele>
	<time>2025-04-29T09:34:58.000Z</time>
</trkpt>
<trkpt lat="45.9071110" lon="10.3454220">
	<ele>1514.00</ele>
	<time>2025-04-29T09:34:59.000Z</time>
</trkpt>
<trkpt lat="45.9071210" lon="10.3454100">
	<ele>1514.20</ele>
	<time>2025-04-29T09:35:00.000Z</time>
</trkpt>
<trkpt lat="45.9071430" lon="10.3454040">
	<ele>1514.20</ele>
	<time>2025-04-29T09:35:01.000Z</time>
</trkpt>
<trkpt lat="45.9071430" lon="10.3454010">
	<ele>1514.40</ele>
	<time>2025-04-29T09:35:02.000Z</time>
</trkpt>
<trkpt lat="45.9071410" lon="10.3454020">
	<ele>1514.40</ele>
	<time>2025-04-29T09:35:03.000Z</time>
</trkpt>
<trkpt lat="45.9071410" lon="10.3454040">
	<ele>1514.40</ele>
	<time>2025-04-29T09:35:04.000Z</time>
</trkpt>
<trkpt lat="45.9071390" lon="10.3454070">
	<ele>1514.60</ele>
	<time>2025-04-29T09:35:05.000Z</time>
</trkpt>
<trkpt lat="45.9071400" lon="10.3454070">
	<ele>1514.60</ele>
	<time>2025-04-29T09:35:06.000Z</time>
</trkpt>
<trkpt lat="45.9071410" lon="10.3454050">
	<ele>1514.60</ele>
	<time>2025-04-29T09:35:07.000Z</time>
</trkpt>
<trkpt lat="45.9071420" lon="10.3454060">
	<ele>1514.60</ele>
	<time>2025-04-29T09:35:08.000Z</time>
</trkpt>
<trkpt lat="45.9071570" lon="10.3453960">
	<ele>1514.60</ele>
	<time>2025-04-29T09:35:09.000Z</time>
</trkpt>
<trkpt lat="45.9071660" lon="10.3453860">
	<ele>1514.60</ele>
	<time>2025-04-29T09:35:10.000Z</time>
</trkpt>
<trkpt lat="45.9071630" lon="10.3453760">
	<ele>1514.60</ele>
	<time>2025-04-29T09:35:11.000Z</time>
</trkpt>
<trkpt lat="45.9071570" lon="10.3453670">
	<ele>1514.80</ele>
	<time>2025-04-29T09:35:12.000Z</time>
</trkpt>
<trkpt lat="45.9071550" lon="10.3453600">
	<ele>1514.60</ele>
	<time>2025-04-29T09:35:13.000Z</time>
</trkpt>
<trkpt lat="45.9071550" lon="10.3453500">
	<ele>1514.60</ele>
	<time>2025-04-29T09:35:14.000Z</time>
</trkpt>
<trkpt lat="45.9071560" lon="10.3453420">
	<ele>1514.60</ele>
	<time>2025-04-29T09:35:15.000Z</time>
</trkpt>
<trkpt lat="45.9071600" lon="10.3453280">
	<ele>1514.60</ele>
	<time>2025-04-29T09:35:16.000Z</time>
</trkpt>
<trkpt lat="45.9071650" lon="10.3453130">
	<ele>1514.80</ele>
	<time>2025-04-29T09:35:17.000Z</time>
</trkpt>
<trkpt lat="45.9071670" lon="10.3453000">
	<ele>1514.80</ele>
	<time>2025-04-29T09:35:18.000Z</time>
</trkpt>
<trkpt lat="45.9071700" lon="10.3452840">
	<ele>1515.00</ele>
	<time>2025-04-29T09:35:19.000Z</time>
</trkpt>
<trkpt lat="45.9071720" lon="10.3452640">
	<ele>1515.00</ele>
	<time>2025-04-29T09:35:20.000Z</time>
</trkpt>
<trkpt lat="45.9071740" lon="10.3452460">
	<ele>1515.20</ele>
	<time>2025-04-29T09:35:21.000Z</time>
</trkpt>
<trkpt lat="45.9071720" lon="10.3452230">
	<ele>1515.20</ele>
	<time>2025-04-29T09:35:22.000Z</time>
</trkpt>
<trkpt lat="45.9071750" lon="10.3451970">
	<ele>1515.20</ele>
	<time>2025-04-29T09:35:23.000Z</time>
</trkpt>
<trkpt lat="45.9071760" lon="10.3451710">
	<ele>1515.40</ele>
	<time>2025-04-29T09:35:24.000Z</time>
</trkpt>
<trkpt lat="45.9071780" lon="10.3451540">
	<ele>1515.40</ele>
	<time>2025-04-29T09:35:25.000Z</time>
</trkpt>
<trkpt lat="45.9071760" lon="10.3451430">
	<ele>1515.40</ele>
	<time>2025-04-29T09:35:26.000Z</time>
</trkpt>
<trkpt lat="45.9071720" lon="10.3451310">
	<ele>1515.20</ele>
	<time>2025-04-29T09:35:27.000Z</time>
</trkpt>
<trkpt lat="45.9071660" lon="10.3451160">
	<ele>1515.20</ele>
	<time>2025-04-29T09:35:28.000Z</time>
</trkpt>
<trkpt lat="45.9071630" lon="10.3451030">
	<ele>1515.00</ele>
	<time>2025-04-29T09:35:29.000Z</time>
</trkpt>
<trkpt lat="45.9071630" lon="10.3450840">
	<ele>1515.00</ele>
	<time>2025-04-29T09:35:30.000Z</time>
</trkpt>
<trkpt lat="45.9071620" lon="10.3450700">
	<ele>1514.80</ele>
	<time>2025-04-29T09:35:31.000Z</time>
</trkpt>
<trkpt lat="45.9071610" lon="10.3450570">
	<ele>1514.80</ele>
	<time>2025-04-29T09:35:32.000Z</time>
</trkpt>
<trkpt lat="45.9071610" lon="10.3450480">
	<ele>1514.80</ele>
	<time>2025-04-29T09:35:33.000Z</time>
</trkpt>
<trkpt lat="45.9071680" lon="10.3450200">
	<ele>1514.80</ele>
	<time>2025-04-29T09:35:34.000Z</time>
</trkpt>
<trkpt lat="45.9071750" lon="10.3449940">
	<ele>1514.80</ele>
	<time>2025-04-29T09:35:35.000Z</time>
</trkpt>
<trkpt lat="45.9071790" lon="10.3449740">
	<ele>1514.60</ele>
	<time>2025-04-29T09:35:36.000Z</time>
</trkpt>
<trkpt lat="45.9071760" lon="10.3449710">
	<ele>1514.60</ele>
	<time>2025-04-29T09:35:37.000Z</time>
</trkpt>
<trkpt lat="45.9071740" lon="10.3449730">
	<ele>1514.60</ele>
	<time>2025-04-29T09:35:38.000Z</time>
</trkpt>
<trkpt lat="45.9071910" lon="10.3449530">
	<ele>1514.60</ele>
	<time>2025-04-29T09:35:39.000Z</time>
</trkpt>
<trkpt lat="45.9072060" lon="10.3449290">
	<ele>1514.60</ele>
	<time>2025-04-29T09:35:40.000Z</time>
</trkpt>
<trkpt lat="45.9072140" lon="10.3449100">
	<ele>1514.80</ele>
	<time>2025-04-29T09:35:41.000Z</time>
</trkpt>
<trkpt lat="45.9072170" lon="10.3448950">
	<ele>1514.80</ele>
	<time>2025-04-29T09:35:42.000Z</time>
</trkpt>
<trkpt lat="45.9072190" lon="10.3448910">
	<ele>1514.80</ele>
	<time>2025-04-29T09:35:43.000Z</time>
</trkpt>
<trkpt lat="45.9072200" lon="10.3448850">
	<ele>1514.80</ele>
	<time>2025-04-29T09:35:44.000Z</time>
</trkpt>
<trkpt lat="45.9072220" lon="10.3448770">
	<ele>1514.80</ele>
	<time>2025-04-29T09:35:45.000Z</time>
</trkpt>
<trkpt lat="45.9072190" lon="10.3448770">
	<ele>1514.80</ele>
	<time>2025-04-29T09:35:46.000Z</time>
</trkpt>
<trkpt lat="45.9072180" lon="10.3448750">
	<ele>1515.00</ele>
	<time>2025-04-29T09:35:47.000Z</time>
</trkpt>
<trkpt lat="45.9072150" lon="10.3448660">
	<ele>1515.00</ele>
	<time>2025-04-29T09:35:48.000Z</time>
</trkpt>
<trkpt lat="45.9072170" lon="10.3448510">
	<ele>1515.00</ele>
	<time>2025-04-29T09:35:49.000Z</time>
</trkpt>
<trkpt lat="45.9072250" lon="10.3448320">
	<ele>1515.00</ele>
	<time>2025-04-29T09:35:50.000Z</time>
</trkpt>
<trkpt lat="45.9072290" lon="10.3448200">
	<ele>1515.20</ele>
	<time>2025-04-29T09:35:51.000Z</time>
</trkpt>
<trkpt lat="45.9072310" lon="10.3448140">
	<ele>1515.40</ele>
	<time>2025-04-29T09:35:52.000Z</time>
</trkpt>
<trkpt lat="45.9072350" lon="10.3447940">
	<ele>1515.40</ele>
	<time>2025-04-29T09:35:53.000Z</time>
</trkpt>
<trkpt lat="45.9072540" lon="10.3447770">
	<ele>1515.60</ele>
	<time>2025-04-29T09:35:54.000Z</time>
</trkpt>
<trkpt lat="45.9072700" lon="10.3447640">
	<ele>1515.80</ele>
	<time>2025-04-29T09:35:55.000Z</time>
</trkpt>
<trkpt lat="45.9072830" lon="10.3447430">
	<ele>1515.80</ele>
	<time>2025-04-29T09:35:56.000Z</time>
</trkpt>
<trkpt lat="45.9072890" lon="10.3447180">
	<ele>1516.00</ele>
	<time>2025-04-29T09:35:57.000Z</time>
</trkpt>
<trkpt lat="45.9072880" lon="10.3446950">
	<ele>1516.20</ele>
	<time>2025-04-29T09:35:58.000Z</time>
</trkpt>
<trkpt lat="45.9072850" lon="10.3446740">
	<ele>1516.40</ele>
	<time>2025-04-29T09:35:59.000Z</time>
</trkpt>
<trkpt lat="45.9072860" lon="10.3446700">
	<ele>1516.40</ele>
	<time>2025-04-29T09:36:00.000Z</time>
</trkpt>
<trkpt lat="45.9072840" lon="10.3446450">
	<ele>1516.40</ele>
	<time>2025-04-29T09:36:01.000Z</time>
</trkpt>
<trkpt lat="45.9072910" lon="10.3446110">
	<ele>1516.60</ele>
	<time>2025-04-29T09:36:02.000Z</time>
</trkpt>
<trkpt lat="45.9072860" lon="10.3445880">
	<ele>1516.60</ele>
	<time>2025-04-29T09:36:03.000Z</time>
</trkpt>
<trkpt lat="45.9072850" lon="10.3445670">
	<ele>1516.60</ele>
	<time>2025-04-29T09:36:04.000Z</time>
</trkpt>
<trkpt lat="45.9072910" lon="10.3445520">
	<ele>1516.60</ele>
	<time>2025-04-29T09:36:05.000Z</time>
</trkpt>
<trkpt lat="45.9072960" lon="10.3445300">
	<ele>1516.40</ele>
	<time>2025-04-29T09:36:06.000Z</time>
</trkpt>
<trkpt lat="45.9072970" lon="10.3445150">
	<ele>1516.20</ele>
	<time>2025-04-29T09:36:07.000Z</time>
</trkpt>
<trkpt lat="45.9072960" lon="10.3444940">
	<ele>1516.20</ele>
	<time>2025-04-29T09:36:08.000Z</time>
</trkpt>
<trkpt lat="45.9072950" lon="10.3444770">
	<ele>1516.20</ele>
	<time>2025-04-29T09:36:09.000Z</time>
</trkpt>
<trkpt lat="45.9072980" lon="10.3444580">
	<ele>1516.00</ele>
	<time>2025-04-29T09:36:10.000Z</time>
</trkpt>
<trkpt lat="45.9072920" lon="10.3444450">
	<ele>1516.00</ele>
	<time>2025-04-29T09:36:11.000Z</time>
</trkpt>
<trkpt lat="45.9072960" lon="10.3444210">
	<ele>1516.00</ele>
	<time>2025-04-29T09:36:12.000Z</time>
</trkpt>
<trkpt lat="45.9072970" lon="10.3443970">
	<ele>1516.00</ele>
	<time>2025-04-29T09:36:13.000Z</time>
</trkpt>
<trkpt lat="45.9072900" lon="10.3443670">
	<ele>1516.00</ele>
	<time>2025-04-29T09:36:14.000Z</time>
</trkpt>
<trkpt lat="45.9072830" lon="10.3443380">
	<ele>1515.80</ele>
	<time>2025-04-29T09:36:15.000Z</time>
</trkpt>
<trkpt lat="45.9072770" lon="10.3443180">
	<ele>1515.60</ele>
	<time>2025-04-29T09:36:16.000Z</time>
</trkpt>
<trkpt lat="45.9072700" lon="10.3443070">
	<ele>1515.60</ele>
	<time>2025-04-29T09:36:17.000Z</time>
</trkpt>
<trkpt lat="45.9072690" lon="10.3442900">
	<ele>1515.60</ele>
	<time>2025-04-29T09:36:18.000Z</time>
</trkpt>
<trkpt lat="45.9072630" lon="10.3442710">
	<ele>1515.60</ele>
	<time>2025-04-29T09:36:19.000Z</time>
</trkpt>
<trkpt lat="45.9072690" lon="10.3442440">
	<ele>1515.60</ele>
	<time>2025-04-29T09:36:20.000Z</time>
</trkpt>
<trkpt lat="45.9072710" lon="10.3442200">
	<ele>1515.80</ele>
	<time>2025-04-29T09:36:21.000Z</time>
</trkpt>
<trkpt lat="45.9072670" lon="10.3442030">
	<ele>1516.20</ele>
	<time>2025-04-29T09:36:22.000Z</time>
</trkpt>
<trkpt lat="45.9072660" lon="10.3442000">
	<ele>1516.60</ele>
	<time>2025-04-29T09:36:23.000Z</time>
</trkpt>
<trkpt lat="45.9072610" lon="10.3441730">
	<ele>1516.80</ele>
	<time>2025-04-29T09:36:24.000Z</time>
</trkpt>
<trkpt lat="45.9072590" lon="10.3441460">
	<ele>1516.80</ele>
	<time>2025-04-29T09:36:25.000Z</time>
</trkpt>
<trkpt lat="45.9072440" lon="10.3441150">
	<ele>1516.80</ele>
	<time>2025-04-29T09:36:26.000Z</time>
</trkpt>
<trkpt lat="45.9072300" lon="10.3441040">
	<ele>1517.00</ele>
	<time>2025-04-29T09:36:27.000Z</time>
</trkpt>
<trkpt lat="45.9072110" lon="10.3440940">
	<ele>1517.00</ele>
	<time>2025-04-29T09:36:28.000Z</time>
</trkpt>
<trkpt lat="45.9072050" lon="10.3440920">
	<ele>1517.00</ele>
	<time>2025-04-29T09:36:29.000Z</time>
</trkpt>
<trkpt lat="45.9072000" lon="10.3440930">
	<ele>1517.20</ele>
	<time>2025-04-29T09:36:30.000Z</time>
</trkpt>
<trkpt lat="45.9071860" lon="10.3440760">
	<ele>1517.40</ele>
	<time>2025-04-29T09:36:31.000Z</time>
</trkpt>
<trkpt lat="45.9071710" lon="10.3440660">
	<ele>1517.80</ele>
	<time>2025-04-29T09:36:32.000Z</time>
</trkpt>
<trkpt lat="45.9071610" lon="10.3440520">
	<ele>1517.80</ele>
	<time>2025-04-29T09:36:33.000Z</time>
</trkpt>
<trkpt lat="45.9071570" lon="10.3440450">
	<ele>1518.00</ele>
	<time>2025-04-29T09:36:34.000Z</time>
</trkpt>
<trkpt lat="45.9071530" lon="10.3440340">
	<ele>1518.20</ele>
	<time>2025-04-29T09:36:35.000Z</time>
</trkpt>
<trkpt lat="45.9071490" lon="10.3440320">
	<ele>1518.20</ele>
	<time>2025-04-29T09:36:36.000Z</time>
</trkpt>
<trkpt lat="45.9071430" lon="10.3440190">
	<ele>1518.40</ele>
	<time>2025-04-29T09:36:37.000Z</time>
</trkpt>
<trkpt lat="45.9071370" lon="10.3440060">
	<ele>1518.60</ele>
	<time>2025-04-29T09:36:38.000Z</time>
</trkpt>
<trkpt lat="45.9071340" lon="10.3439960">
	<ele>1518.80</ele>
	<time>2025-04-29T09:36:39.000Z</time>
</trkpt>
<trkpt lat="45.9071320" lon="10.3439880">
	<ele>1519.00</ele>
	<time>2025-04-29T09:36:40.000Z</time>
</trkpt>
<trkpt lat="45.9071300" lon="10.3439850">
	<ele>1519.00</ele>
	<time>2025-04-29T09:36:41.000Z</time>
</trkpt>
<trkpt lat="45.9071320" lon="10.3439760">
	<ele>1519.00</ele>
	<time>2025-04-29T09:36:42.000Z</time>
</trkpt>
<trkpt lat="45.9071280" lon="10.3439580">
	<ele>1519.20</ele>
	<time>2025-04-29T09:36:43.000Z</time>
</trkpt>
<trkpt lat="45.9071240" lon="10.3439410">
	<ele>1519.20</ele>
	<time>2025-04-29T09:36:44.000Z</time>
</trkpt>
<trkpt lat="45.9071130" lon="10.3439350">
	<ele>1519.20</ele>
	<time>2025-04-29T09:36:45.000Z</time>
</trkpt>
<trkpt lat="45.9070970" lon="10.3439360">
	<ele>1519.40</ele>
	<time>2025-04-29T09:36:46.000Z</time>
</trkpt>
<trkpt lat="45.9070830" lon="10.3439340">
	<ele>1519.40</ele>
	<time>2025-04-29T09:36:47.000Z</time>
</trkpt>
<trkpt lat="45.9070780" lon="10.3439260">
	<ele>1519.60</ele>
	<time>2025-04-29T09:36:48.000Z</time>
</trkpt>
<trkpt lat="45.9070670" lon="10.3439160">
	<ele>1519.60</ele>
	<time>2025-04-29T09:36:49.000Z</time>
</trkpt>
<trkpt lat="45.9070530" lon="10.3439090">
	<ele>1519.60</ele>
	<time>2025-04-29T09:36:50.000Z</time>
</trkpt>
<trkpt lat="45.9070440" lon="10.3438970">
	<ele>1519.80</ele>
	<time>2025-04-29T09:36:51.000Z</time>
</trkpt>
<trkpt lat="45.9070370" lon="10.3438790">
	<ele>1520.00</ele>
	<time>2025-04-29T09:36:52.000Z</time>
</trkpt>
<trkpt lat="45.9070240" lon="10.3438650">
	<ele>1520.20</ele>
	<time>2025-04-29T09:36:53.000Z</time>
</trkpt>
<trkpt lat="45.9070060" lon="10.3438400">
	<ele>1520.20</ele>
	<time>2025-04-29T09:36:54.000Z</time>
</trkpt>
<trkpt lat="45.9069950" lon="10.3438100">
	<ele>1520.40</ele>
	<time>2025-04-29T09:36:55.000Z</time>
</trkpt>
<trkpt lat="45.9069940" lon="10.3438070">
	<ele>1520.40</ele>
	<time>2025-04-29T09:36:56.000Z</time>
</trkpt>
<trkpt lat="45.9069780" lon="10.3437950">
	<ele>1520.60</ele>
	<time>2025-04-29T09:36:57.000Z</time>
</trkpt>
<trkpt lat="45.9069700" lon="10.3437800">
	<ele>1520.60</ele>
	<time>2025-04-29T09:36:58.000Z</time>
</trkpt>
<trkpt lat="45.9069660" lon="10.3437620">
	<ele>1520.60</ele>
	<time>2025-04-29T09:36:59.000Z</time>
</trkpt>
<trkpt lat="45.9069630" lon="10.3437420">
	<ele>1520.80</ele>
	<time>2025-04-29T09:37:00.000Z</time>
</trkpt>
<trkpt lat="45.9069600" lon="10.3437230">
	<ele>1521.00</ele>
	<time>2025-04-29T09:37:01.000Z</time>
</trkpt>
<trkpt lat="45.9069550" lon="10.3437130">
	<ele>1521.20</ele>
	<time>2025-04-29T09:37:02.000Z</time>
</trkpt>
<trkpt lat="45.9069450" lon="10.3436970">
	<ele>1521.20</ele>
	<time>2025-04-29T09:37:03.000Z</time>
</trkpt>
<trkpt lat="45.9069340" lon="10.3436820">
	<ele>1521.60</ele>
	<time>2025-04-29T09:37:04.000Z</time>
</trkpt>
<trkpt lat="45.9069110" lon="10.3436570">
	<ele>1521.80</ele>
	<time>2025-04-29T09:37:05.000Z</time>
</trkpt>
<trkpt lat="45.9069020" lon="10.3436390">
	<ele>1522.00</ele>
	<time>2025-04-29T09:37:06.000Z</time>
</trkpt>
<trkpt lat="45.9068990" lon="10.3436220">
	<ele>1522.00</ele>
	<time>2025-04-29T09:37:07.000Z</time>
</trkpt>
<trkpt lat="45.9068950" lon="10.3436110">
	<ele>1522.20</ele>
	<time>2025-04-29T09:37:08.000Z</time>
</trkpt>
<trkpt lat="45.9068910" lon="10.3436010">
	<ele>1522.20</ele>
	<time>2025-04-29T09:37:09.000Z</time>
</trkpt>
<trkpt lat="45.9068820" lon="10.3435950">
	<ele>1522.40</ele>
	<time>2025-04-29T09:37:10.000Z</time>
</trkpt>
<trkpt lat="45.9068750" lon="10.3435830">
	<ele>1522.60</ele>
	<time>2025-04-29T09:37:11.000Z</time>
</trkpt>
<trkpt lat="45.9068560" lon="10.3435690">
	<ele>1522.80</ele>
	<time>2025-04-29T09:37:12.000Z</time>
</trkpt>
<trkpt lat="45.9068430" lon="10.3435510">
	<ele>1522.80</ele>
	<time>2025-04-29T09:37:13.000Z</time>
</trkpt>
<trkpt lat="45.9068350" lon="10.3435310">
	<ele>1522.80</ele>
	<time>2025-04-29T09:37:14.000Z</time>
</trkpt>
<trkpt lat="45.9068250" lon="10.3435190">
	<ele>1523.00</ele>
	<time>2025-04-29T09:37:15.000Z</time>
</trkpt>
<trkpt lat="45.9068190" lon="10.3435070">
	<ele>1523.20</ele>
	<time>2025-04-29T09:37:16.000Z</time>
</trkpt>
<trkpt lat="45.9068190" lon="10.3434890">
	<ele>1523.20</ele>
	<time>2025-04-29T09:37:17.000Z</time>
</trkpt>
<trkpt lat="45.9068170" lon="10.3434830">
	<ele>1523.20</ele>
	<time>2025-04-29T09:37:18.000Z</time>
</trkpt>
<trkpt lat="45.9068150" lon="10.3434810">
	<ele>1523.40</ele>
	<time>2025-04-29T09:37:19.000Z</time>
</trkpt>
<trkpt lat="45.9068040" lon="10.3434890">
	<ele>1523.40</ele>
	<time>2025-04-29T09:37:20.000Z</time>
</trkpt>
<trkpt lat="45.9067940" lon="10.3434920">
	<ele>1523.40</ele>
	<time>2025-04-29T09:37:21.000Z</time>
</trkpt>
<trkpt lat="45.9067930" lon="10.3434980">
	<ele>1523.40</ele>
	<time>2025-04-29T09:37:22.000Z</time>
</trkpt>
<trkpt lat="45.9067960" lon="10.3435010">
	<ele>1523.40</ele>
	<time>2025-04-29T09:37:23.000Z</time>
</trkpt>
<trkpt lat="45.9067850" lon="10.3434880">
	<ele>1523.40</ele>
	<time>2025-04-29T09:37:24.000Z</time>
</trkpt>
<trkpt lat="45.9067830" lon="10.3435060">
	<ele>1523.40</ele>
	<time>2025-04-29T09:37:25.000Z</time>
</trkpt>
<trkpt lat="45.9067860" lon="10.3435230">
	<ele>1523.40</ele>
	<time>2025-04-29T09:37:26.000Z</time>
</trkpt>
<trkpt lat="45.9068030" lon="10.3435320">
	<ele>1523.20</ele>
	<time>2025-04-29T09:37:27.000Z</time>
</trkpt>
<trkpt lat="45.9068070" lon="10.3435330">
	<ele>1523.20</ele>
	<time>2025-04-29T09:37:28.000Z</time>
</trkpt>
<trkpt lat="45.9068080" lon="10.3435260">
	<ele>1523.20</ele>
	<time>2025-04-29T09:37:29.000Z</time>
</trkpt>
<trkpt lat="45.9068310" lon="10.3435510">
	<ele>1523.20</ele>
	<time>2025-04-29T09:37:30.000Z</time>
</trkpt>
<trkpt lat="45.9068610" lon="10.3435620">
	<ele>1523.20</ele>
	<time>2025-04-29T09:37:31.000Z</time>
</trkpt>
<trkpt lat="45.9068690" lon="10.3435690">
	<ele>1523.40</ele>
	<time>2025-04-29T09:37:32.000Z</time>
</trkpt>
<trkpt lat="45.9068510" lon="10.3435430">
	<ele>1523.40</ele>
	<time>2025-04-29T09:37:33.000Z</time>
</trkpt>
<trkpt lat="45.9068400" lon="10.3435260">
	<ele>1523.40</ele>
	<time>2025-04-29T09:37:34.000Z</time>
</trkpt>
<trkpt lat="45.9068320" lon="10.3435030">
	<ele>1523.40</ele>
	<time>2025-04-29T09:37:35.000Z</time>
</trkpt>
<trkpt lat="45.9068260" lon="10.3434820">
	<ele>1523.40</ele>
	<time>2025-04-29T09:37:36.000Z</time>
</trkpt>
<trkpt lat="45.9068310" lon="10.3434680">
	<ele>1523.40</ele>
	<time>2025-04-29T09:37:37.000Z</time>
</trkpt>
<trkpt lat="45.9068340" lon="10.3434640">
	<ele>1523.40</ele>
	<time>2025-04-29T09:37:38.000Z</time>
</trkpt>
<trkpt lat="45.9068370" lon="10.3434600">
	<ele>1523.40</ele>
	<time>2025-04-29T09:37:39.000Z</time>
</trkpt>
<trkpt lat="45.9068380" lon="10.3434560">
	<ele>1523.40</ele>
	<time>2025-04-29T09:37:40.000Z</time>
</trkpt>
<trkpt lat="45.9068450" lon="10.3434490">
	<ele>1523.40</ele>
	<time>2025-04-29T09:37:41.000Z</time>
</trkpt>
<trkpt lat="45.9068470" lon="10.3434460">
	<ele>1523.40</ele>
	<time>2025-04-29T09:37:42.000Z</time>
</trkpt>
<trkpt lat="45.9068470" lon="10.3434400">
	<ele>1523.40</ele>
	<time>2025-04-29T09:37:43.000Z</time>
</trkpt>
<trkpt lat="45.9068460" lon="10.3434380">
	<ele>1523.40</ele>
	<time>2025-04-29T09:37:44.000Z</time>
</trkpt>
<trkpt lat="45.9068180" lon="10.3434410">
	<ele>1523.40</ele>
	<time>2025-04-29T09:37:45.000Z</time>
</trkpt>
<trkpt lat="45.9068010" lon="10.3434250">
	<ele>1523.40</ele>
	<time>2025-04-29T09:37:46.000Z</time>
</trkpt>
<trkpt lat="45.9067900" lon="10.3434010">
	<ele>1523.40</ele>
	<time>2025-04-29T09:37:47.000Z</time>
</trkpt>
<trkpt lat="45.9067750" lon="10.3433810">
	<ele>1523.40</ele>
	<time>2025-04-29T09:37:48.000Z</time>
</trkpt>
<trkpt lat="45.9067730" lon="10.3433660">
	<ele>1523.40</ele>
	<time>2025-04-29T09:37:49.000Z</time>
</trkpt>
<trkpt lat="45.9067740" lon="10.3433460">
	<ele>1523.40</ele>
	<time>2025-04-29T09:37:50.000Z</time>
</trkpt>
<trkpt lat="45.9067690" lon="10.3433310">
	<ele>1523.20</ele>
	<time>2025-04-29T09:37:51.000Z</time>
</trkpt>
<trkpt lat="45.9067650" lon="10.3433250">
	<ele>1523.00</ele>
	<time>2025-04-29T09:37:52.000Z</time>
</trkpt>
<trkpt lat="45.9067540" lon="10.3433200">
	<ele>1523.00</ele>
	<time>2025-04-29T09:37:53.000Z</time>
</trkpt>
<trkpt lat="45.9067540" lon="10.3433150">
	<ele>1522.60</ele>
	<time>2025-04-29T09:37:54.000Z</time>
</trkpt>
<trkpt lat="45.9067390" lon="10.3433060">
	<ele>1522.40</ele>
	<time>2025-04-29T09:37:55.000Z</time>
</trkpt>
<trkpt lat="45.9067230" lon="10.3433020">
	<ele>1522.20</ele>
	<time>2025-04-29T09:37:56.000Z</time>
</trkpt>
<trkpt lat="45.9067100" lon="10.3432990">
	<ele>1522.20</ele>
	<time>2025-04-29T09:37:57.000Z</time>
</trkpt>
<trkpt lat="45.9067010" lon="10.3433000">
	<ele>1522.20</ele>
	<time>2025-04-29T09:37:58.000Z</time>
</trkpt>
<trkpt lat="45.9067010" lon="10.3432960">
	<ele>1522.40</ele>
	<time>2025-04-29T09:37:59.000Z</time>
</trkpt>
<trkpt lat="45.9066950" lon="10.3432870">
	<ele>1522.40</ele>
	<time>2025-04-29T09:38:00.000Z</time>
</trkpt>
<trkpt lat="45.9066880" lon="10.3432750">
	<ele>1522.40</ele>
	<time>2025-04-29T09:38:01.000Z</time>
</trkpt>
<trkpt lat="45.9066860" lon="10.3432640">
	<ele>1522.60</ele>
	<time>2025-04-29T09:38:02.000Z</time>
</trkpt>
<trkpt lat="45.9066900" lon="10.3432510">
	<ele>1522.80</ele>
	<time>2025-04-29T09:38:03.000Z</time>
</trkpt>
<trkpt lat="45.9067070" lon="10.3432380">
	<ele>1523.00</ele>
	<time>2025-04-29T09:38:04.000Z</time>
</trkpt>
<trkpt lat="45.9067160" lon="10.3432250">
	<ele>1523.00</ele>
	<time>2025-04-29T09:38:05.000Z</time>
</trkpt>
<trkpt lat="45.9067270" lon="10.3432130">
	<ele>1523.20</ele>
	<time>2025-04-29T09:38:06.000Z</time>
</trkpt>
<trkpt lat="45.9067390" lon="10.3432100">
	<ele>1523.20</ele>
	<time>2025-04-29T09:38:07.000Z</time>
</trkpt>
<trkpt lat="45.9067300" lon="10.3432080">
	<ele>1523.40</ele>
	<time>2025-04-29T09:38:08.000Z</time>
</trkpt>
<trkpt lat="45.9067160" lon="10.3431960">
	<ele>1523.40</ele>
	<time>2025-04-29T09:38:09.000Z</time>
</trkpt>
<trkpt lat="45.9066980" lon="10.3431820">
	<ele>1523.40</ele>
	<time>2025-04-29T09:38:10.000Z</time>
</trkpt>
<trkpt lat="45.9066860" lon="10.3431680">
	<ele>1523.60</ele>
	<time>2025-04-29T09:38:11.000Z</time>
</trkpt>
<trkpt lat="45.9066730" lon="10.3431530">
	<ele>1523.80</ele>
	<time>2025-04-29T09:38:12.000Z</time>
</trkpt>
<trkpt lat="45.9066610" lon="10.3431430">
	<ele>1523.80</ele>
	<time>2025-04-29T09:38:13.000Z</time>
</trkpt>
<trkpt lat="45.9066480" lon="10.3431330">
	<ele>1524.00</ele>
	<time>2025-04-29T09:38:14.000Z</time>
</trkpt>
<trkpt lat="45.9066370" lon="10.3431300">
	<ele>1524.20</ele>
	<time>2025-04-29T09:38:15.000Z</time>
</trkpt>
<trkpt lat="45.9066350" lon="10.3431270">
	<ele>1524.40</ele>
	<time>2025-04-29T09:38:16.000Z</time>
</trkpt>
<trkpt lat="45.9066340" lon="10.3431280">
	<ele>1524.60</ele>
	<time>2025-04-29T09:38:17.000Z</time>
</trkpt>
<trkpt lat="45.9066340" lon="10.3431290">
	<ele>1524.60</ele>
	<time>2025-04-29T09:38:18.000Z</time>
</trkpt>
<trkpt lat="45.9066340" lon="10.3431260">
	<ele>1524.80</ele>
	<time>2025-04-29T09:38:19.000Z</time>
</trkpt>
<trkpt lat="45.9066260" lon="10.3431170">
	<ele>1525.00</ele>
	<time>2025-04-29T09:38:20.000Z</time>
</trkpt>
<trkpt lat="45.9066250" lon="10.3431120">
	<ele>1525.00</ele>
	<time>2025-04-29T09:38:21.000Z</time>
</trkpt>
<trkpt lat="45.9066110" lon="10.3431030">
	<ele>1525.00</ele>
	<time>2025-04-29T09:38:22.000Z</time>
</trkpt>
<trkpt lat="45.9066050" lon="10.3430990">
	<ele>1525.00</ele>
	<time>2025-04-29T09:38:23.000Z</time>
</trkpt>
<trkpt lat="45.9066030" lon="10.3430990">
	<ele>1525.00</ele>
	<time>2025-04-29T09:38:24.000Z</time>
</trkpt>
<trkpt lat="45.9065980" lon="10.3430960">
	<ele>1525.00</ele>
	<time>2025-04-29T09:38:25.000Z</time>
</trkpt>
<trkpt lat="45.9065880" lon="10.3430880">
	<ele>1525.00</ele>
	<time>2025-04-29T09:38:26.000Z</time>
</trkpt>
<trkpt lat="45.9065840" lon="10.3430820">
	<ele>1525.20</ele>
	<time>2025-04-29T09:38:27.000Z</time>
</trkpt>
<trkpt lat="45.9065680" lon="10.3430720">
	<ele>1525.20</ele>
	<time>2025-04-29T09:38:28.000Z</time>
</trkpt>
<trkpt lat="45.9065550" lon="10.3430610">
	<ele>1525.20</ele>
	<time>2025-04-29T09:38:29.000Z</time>
</trkpt>
<trkpt lat="45.9065430" lon="10.3430460">
	<ele>1525.20</ele>
	<time>2025-04-29T09:38:30.000Z</time>
</trkpt>
<trkpt lat="45.9065490" lon="10.3430450">
	<ele>1525.20</ele>
	<time>2025-04-29T09:38:31.000Z</time>
</trkpt>
<trkpt lat="45.9065370" lon="10.3430240">
	<ele>1525.40</ele>
	<time>2025-04-29T09:38:32.000Z</time>
</trkpt>
<trkpt lat="45.9065340" lon="10.3430240">
	<ele>1525.80</ele>
	<time>2025-04-29T09:38:33.000Z</time>
</trkpt>
<trkpt lat="45.9065300" lon="10.3430130">
	<ele>1526.00</ele>
	<time>2025-04-29T09:38:34.000Z</time>
</trkpt>
<trkpt lat="45.9065200" lon="10.3430010">
	<ele>1526.40</ele>
	<time>2025-04-29T09:38:35.000Z</time>
</trkpt>
<trkpt lat="45.9065040" lon="10.3429930">
	<ele>1526.60</ele>
	<time>2025-04-29T09:38:36.000Z</time>
</trkpt>
<trkpt lat="45.9064900" lon="10.3429820">
	<ele>1526.60</ele>
	<time>2025-04-29T09:38:37.000Z</time>
</trkpt>
<trkpt lat="45.9064890" lon="10.3429790">
	<ele>1527.00</ele>
	<time>2025-04-29T09:38:38.000Z</time>
</trkpt>
<trkpt lat="45.9064790" lon="10.3429700">
	<ele>1527.20</ele>
	<time>2025-04-29T09:38:39.000Z</time>
</trkpt>
<trkpt lat="45.9064670" lon="10.3429610">
	<ele>1527.40</ele>
	<time>2025-04-29T09:38:40.000Z</time>
</trkpt>
<trkpt lat="45.9064650" lon="10.3429600">
	<ele>1527.40</ele>
	<time>2025-04-29T09:38:41.000Z</time>
</trkpt>
<trkpt lat="45.9064530" lon="10.3429490">
	<ele>1527.60</ele>
	<time>2025-04-29T09:38:42.000Z</time>
</trkpt>
<trkpt lat="45.9064440" lon="10.3429380">
	<ele>1527.80</ele>
	<time>2025-04-29T09:38:43.000Z</time>
</trkpt>
<trkpt lat="45.9064360" lon="10.3429280">
	<ele>1528.00</ele>
	<time>2025-04-29T09:38:44.000Z</time>
</trkpt>
<trkpt lat="45.9064400" lon="10.3429170">
	<ele>1528.20</ele>
	<time>2025-04-29T09:38:45.000Z</time>
</trkpt>
<trkpt lat="45.9064330" lon="10.3429090">
	<ele>1528.40</ele>
	<time>2025-04-29T09:38:46.000Z</time>
</trkpt>
<trkpt lat="45.9064340" lon="10.3429060">
	<ele>1528.40</ele>
	<time>2025-04-29T09:38:47.000Z</time>
</trkpt>
<trkpt lat="45.9064270" lon="10.3428860">
	<ele>1528.40</ele>
	<time>2025-04-29T09:38:48.000Z</time>
</trkpt>
<trkpt lat="45.9064210" lon="10.3428570">
	<ele>1528.60</ele>
	<time>2025-04-29T09:38:49.000Z</time>
</trkpt>
<trkpt lat="45.9064110" lon="10.3428300">
	<ele>1528.80</ele>
	<time>2025-04-29T09:38:50.000Z</time>
</trkpt>
<trkpt lat="45.9064040" lon="10.3427960">
	<ele>1528.80</ele>
	<time>2025-04-29T09:38:51.000Z</time>
</trkpt>
<trkpt lat="45.9063940" lon="10.3427680">
	<ele>1529.00</ele>
	<time>2025-04-29T09:38:52.000Z</time>
</trkpt>
<trkpt lat="45.9063770" lon="10.3427460">
	<ele>1529.00</ele>
	<time>2025-04-29T09:38:53.000Z</time>
</trkpt>
<trkpt lat="45.9063700" lon="10.3427310">
	<ele>1529.00</ele>
	<time>2025-04-29T09:38:54.000Z</time>
</trkpt>
<trkpt lat="45.9063720" lon="10.3427250">
	<ele>1529.00</ele>
	<time>2025-04-29T09:38:55.000Z</time>
</trkpt>
<trkpt lat="45.9063540" lon="10.3427070">
	<ele>1529.00</ele>
	<time>2025-04-29T09:38:56.000Z</time>
</trkpt>
<trkpt lat="45.9063550" lon="10.3427030">
	<ele>1529.00</ele>
	<time>2025-04-29T09:38:57.000Z</time>
</trkpt>
<trkpt lat="45.9063570" lon="10.3426990">
	<ele>1529.00</ele>
	<time>2025-04-29T09:38:58.000Z</time>
</trkpt>
<trkpt lat="45.9063550" lon="10.3426810">
	<ele>1529.00</ele>
	<time>2025-04-29T09:38:59.000Z</time>
</trkpt>
<trkpt lat="45.9063540" lon="10.3426660">
	<ele>1529.00</ele>
	<time>2025-04-29T09:39:00.000Z</time>
</trkpt>
<trkpt lat="45.9063510" lon="10.3426470">
	<ele>1529.20</ele>
	<time>2025-04-29T09:39:01.000Z</time>
</trkpt>
<trkpt lat="45.9063430" lon="10.3426240">
	<ele>1529.20</ele>
	<time>2025-04-29T09:39:02.000Z</time>
</trkpt>
<trkpt lat="45.9063350" lon="10.3426040">
	<ele>1529.20</ele>
	<time>2025-04-29T09:39:03.000Z</time>
</trkpt>
<trkpt lat="45.9063280" lon="10.3425910">
	<ele>1529.20</ele>
	<time>2025-04-29T09:39:04.000Z</time>
</trkpt>
<trkpt lat="45.9063220" lon="10.3425770">
	<ele>1529.40</ele>
	<time>2025-04-29T09:39:05.000Z</time>
</trkpt>
<trkpt lat="45.9063200" lon="10.3425660">
	<ele>1529.40</ele>
	<time>2025-04-29T09:39:06.000Z</time>
</trkpt>
<trkpt lat="45.9063220" lon="10.3425640">
	<ele>1529.40</ele>
	<time>2025-04-29T09:39:07.000Z</time>
</trkpt>
<trkpt lat="45.9063240" lon="10.3425640">
	<ele>1529.40</ele>
	<time>2025-04-29T09:39:08.000Z</time>
</trkpt>
<trkpt lat="45.9063250" lon="10.3425650">
	<ele>1529.40</ele>
	<time>2025-04-29T09:39:09.000Z</time>
</trkpt>
<trkpt lat="45.9063260" lon="10.3425640">
	<ele>1529.40</ele>
	<time>2025-04-29T09:39:10.000Z</time>
</trkpt>
<trkpt lat="45.9063230" lon="10.3425760">
	<ele>1529.40</ele>
	<time>2025-04-29T09:39:11.000Z</time>
</trkpt>
<trkpt lat="45.9063230" lon="10.3425830">
	<ele>1529.40</ele>
	<time>2025-04-29T09:39:12.000Z</time>
</trkpt>
<trkpt lat="45.9063250" lon="10.3425840">
	<ele>1529.60</ele>
	<time>2025-04-29T09:39:13.000Z</time>
</trkpt>
<trkpt lat="45.9063260" lon="10.3425840">
	<ele>1529.60</ele>
	<time>2025-04-29T09:39:14.000Z</time>
</trkpt>
<trkpt lat="45.9063260" lon="10.3425830">
	<ele>1529.80</ele>
	<time>2025-04-29T09:39:15.000Z</time>
</trkpt>
<trkpt lat="45.9063190" lon="10.3425720">
	<ele>1529.80</ele>
	<time>2025-04-29T09:39:16.000Z</time>
</trkpt>
<trkpt lat="45.9063150" lon="10.3425600">
	<ele>1529.80</ele>
	<time>2025-04-29T09:39:17.000Z</time>
</trkpt>
<trkpt lat="45.9063080" lon="10.3425490">
	<ele>1529.80</ele>
	<time>2025-04-29T09:39:18.000Z</time>
</trkpt>
<trkpt lat="45.9063020" lon="10.3425370">
	<ele>1529.80</ele>
	<time>2025-04-29T09:39:19.000Z</time>
</trkpt>
<trkpt lat="45.9062960" lon="10.3425270">
	<ele>1529.80</ele>
	<time>2025-04-29T09:39:20.000Z</time>
</trkpt>
<trkpt lat="45.9062860" lon="10.3425160">
	<ele>1529.80</ele>
	<time>2025-04-29T09:39:21.000Z</time>
</trkpt>
<trkpt lat="45.9062780" lon="10.3425020">
	<ele>1529.60</ele>
	<time>2025-04-29T09:39:22.000Z</time>
</trkpt>
<trkpt lat="45.9062730" lon="10.3424850">
	<ele>1529.80</ele>
	<time>2025-04-29T09:39:23.000Z</time>
</trkpt>
<trkpt lat="45.9062600" lon="10.3424650">
	<ele>1529.80</ele>
	<time>2025-04-29T09:39:24.000Z</time>
</trkpt>
<trkpt lat="45.9062450" lon="10.3424490">
	<ele>1529.80</ele>
	<time>2025-04-29T09:39:25.000Z</time>
</trkpt>
<trkpt lat="45.9062360" lon="10.3424360">
	<ele>1530.00</ele>
	<time>2025-04-29T09:39:26.000Z</time>
</trkpt>
<trkpt lat="45.9062290" lon="10.3424250">
	<ele>1530.00</ele>
	<time>2025-04-29T09:39:27.000Z</time>
</trkpt>
<trkpt lat="45.9062220" lon="10.3424140">
	<ele>1530.20</ele>
	<time>2025-04-29T09:39:28.000Z</time>
</trkpt>
<trkpt lat="45.9062140" lon="10.3423980">
	<ele>1530.20</ele>
	<time>2025-04-29T09:39:29.000Z</time>
</trkpt>
<trkpt lat="45.9062090" lon="10.3423800">
	<ele>1530.60</ele>
	<time>2025-04-29T09:39:30.000Z</time>
</trkpt>
<trkpt lat="45.9062070" lon="10.3423550">
	<ele>1530.60</ele>
	<time>2025-04-29T09:39:31.000Z</time>
</trkpt>
<trkpt lat="45.9062030" lon="10.3423320">
	<ele>1530.80</ele>
	<time>2025-04-29T09:39:32.000Z</time>
</trkpt>
<trkpt lat="45.9062030" lon="10.3423160">
	<ele>1531.20</ele>
	<time>2025-04-29T09:39:33.000Z</time>
</trkpt>
<trkpt lat="45.9062020" lon="10.3423040">
	<ele>1531.40</ele>
	<time>2025-04-29T09:39:34.000Z</time>
</trkpt>
<trkpt lat="45.9062040" lon="10.3423000">
	<ele>1531.60</ele>
	<time>2025-04-29T09:39:35.000Z</time>
</trkpt>
<trkpt lat="45.9061980" lon="10.3423010">
	<ele>1531.80</ele>
	<time>2025-04-29T09:39:36.000Z</time>
</trkpt>
<trkpt lat="45.9061920" lon="10.3423050">
	<ele>1531.80</ele>
	<time>2025-04-29T09:39:37.000Z</time>
</trkpt>
<trkpt lat="45.9061810" lon="10.3422960">
	<ele>1532.00</ele>
	<time>2025-04-29T09:39:38.000Z</time>
</trkpt>
<trkpt lat="45.9061740" lon="10.3422750">
	<ele>1532.20</ele>
	<time>2025-04-29T09:39:39.000Z</time>
</trkpt>
<trkpt lat="45.9061670" lon="10.3422560">
	<ele>1532.20</ele>
	<time>2025-04-29T09:39:40.000Z</time>
</trkpt>
<trkpt lat="45.9061630" lon="10.3422350">
	<ele>1532.40</ele>
	<time>2025-04-29T09:39:41.000Z</time>
</trkpt>
<trkpt lat="45.9061510" lon="10.3422190">
	<ele>1532.40</ele>
	<time>2025-04-29T09:39:42.000Z</time>
</trkpt>
<trkpt lat="45.9061410" lon="10.3422010">
	<ele>1532.40</ele>
	<time>2025-04-29T09:39:43.000Z</time>
</trkpt>
<trkpt lat="45.9061350" lon="10.3421780">
	<ele>1532.40</ele>
	<time>2025-04-29T09:39:44.000Z</time>
</trkpt>
<trkpt lat="45.9061300" lon="10.3421560">
	<ele>1532.60</ele>
	<time>2025-04-29T09:39:45.000Z</time>
</trkpt>
<trkpt lat="45.9061260" lon="10.3421330">
	<ele>1532.60</ele>
	<time>2025-04-29T09:39:46.000Z</time>
</trkpt>
<trkpt lat="45.9061210" lon="10.3421080">
	<ele>1532.60</ele>
	<time>2025-04-29T09:39:47.000Z</time>
</trkpt>
<trkpt lat="45.9061140" lon="10.3420880">
	<ele>1532.60</ele>
	<time>2025-04-29T09:39:48.000Z</time>
</trkpt>
<trkpt lat="45.9061080" lon="10.3420620">
	<ele>1532.40</ele>
	<time>2025-04-29T09:39:49.000Z</time>
</trkpt>
<trkpt lat="45.9060990" lon="10.3420320">
	<ele>1532.40</ele>
	<time>2025-04-29T09:39:50.000Z</time>
</trkpt>
<trkpt lat="45.9060910" lon="10.3420050">
	<ele>1532.40</ele>
	<time>2025-04-29T09:39:51.000Z</time>
</trkpt>
<trkpt lat="45.9060870" lon="10.3419760">
	<ele>1532.40</ele>
	<time>2025-04-29T09:39:52.000Z</time>
</trkpt>
<trkpt lat="45.9060880" lon="10.3419440">
	<ele>1532.20</ele>
	<time>2025-04-29T09:39:53.000Z</time>
</trkpt>
<trkpt lat="45.9060830" lon="10.3419020">
	<ele>1532.20</ele>
	<time>2025-04-29T09:39:54.000Z</time>
</trkpt>
<trkpt lat="45.9060810" lon="10.3418760">
	<ele>1532.20</ele>
	<time>2025-04-29T09:39:55.000Z</time>
</trkpt>
<trkpt lat="45.9060800" lon="10.3418490">
	<ele>1532.00</ele>
	<time>2025-04-29T09:39:56.000Z</time>
</trkpt>
<trkpt lat="45.9060810" lon="10.3418260">
	<ele>1532.00</ele>
	<time>2025-04-29T09:39:57.000Z</time>
</trkpt>
<trkpt lat="45.9060810" lon="10.3418050">
	<ele>1532.00</ele>
	<time>2025-04-29T09:39:58.000Z</time>
</trkpt>
<trkpt lat="45.9060800" lon="10.3417800">
	<ele>1531.80</ele>
	<time>2025-04-29T09:39:59.000Z</time>
</trkpt>
<trkpt lat="45.9060810" lon="10.3417570">
	<ele>1531.80</ele>
	<time>2025-04-29T09:40:00.000Z</time>
</trkpt>
<trkpt lat="45.9060830" lon="10.3417370">
	<ele>1531.60</ele>
	<time>2025-04-29T09:40:01.000Z</time>
</trkpt>
<trkpt lat="45.9060830" lon="10.3417140">
	<ele>1531.60</ele>
	<time>2025-04-29T09:40:02.000Z</time>
</trkpt>
<trkpt lat="45.9060830" lon="10.3416930">
	<ele>1531.60</ele>
	<time>2025-04-29T09:40:03.000Z</time>
</trkpt>
<trkpt lat="45.9060900" lon="10.3416710">
	<ele>1531.60</ele>
	<time>2025-04-29T09:40:04.000Z</time>
</trkpt>
<trkpt lat="45.9060940" lon="10.3416550">
	<ele>1531.40</ele>
	<time>2025-04-29T09:40:05.000Z</time>
</trkpt>
<trkpt lat="45.9060990" lon="10.3416390">
	<ele>1531.20</ele>
	<time>2025-04-29T09:40:06.000Z</time>
</trkpt>
<trkpt lat="45.9060990" lon="10.3416150">
	<ele>1531.00</ele>
	<time>2025-04-29T09:40:07.000Z</time>
</trkpt>
<trkpt lat="45.9061030" lon="10.3415930">
	<ele>1530.80</ele>
	<time>2025-04-29T09:40:08.000Z</time>
</trkpt>
<trkpt lat="45.9061030" lon="10.3415700">
	<ele>1530.80</ele>
	<time>2025-04-29T09:40:09.000Z</time>
</trkpt>
<trkpt lat="45.9061040" lon="10.3415500">
	<ele>1530.60</ele>
	<time>2025-04-29T09:40:10.000Z</time>
</trkpt>
<trkpt lat="45.9061030" lon="10.3415280">
	<ele>1530.40</ele>
	<time>2025-04-29T09:40:11.000Z</time>
</trkpt>
<trkpt lat="45.9061050" lon="10.3415160">
	<ele>1530.20</ele>
	<time>2025-04-29T09:40:12.000Z</time>
</trkpt>
<trkpt lat="45.9061230" lon="10.3415190">
	<ele>1529.80</ele>
	<time>2025-04-29T09:40:13.000Z</time>
</trkpt>
<trkpt lat="45.9061330" lon="10.3415180">
	<ele>1529.60</ele>
	<time>2025-04-29T09:40:14.000Z</time>
</trkpt>
<trkpt lat="45.9061440" lon="10.3415190">
	<ele>1529.20</ele>
	<time>2025-04-29T09:40:15.000Z</time>
</trkpt>
<trkpt lat="45.9061480" lon="10.3415060">
	<ele>1528.80</ele>
	<time>2025-04-29T09:40:16.000Z</time>
</trkpt>
<trkpt lat="45.9061510" lon="10.3414890">
	<ele>1528.60</ele>
	<time>2025-04-29T09:40:17.000Z</time>
</trkpt>
<trkpt lat="45.9061500" lon="10.3414730">
	<ele>1528.40</ele>
	<time>2025-04-29T09:40:18.000Z</time>
</trkpt>
<trkpt lat="45.9061430" lon="10.3414570">
	<ele>1528.40</ele>
	<time>2025-04-29T09:40:19.000Z</time>
</trkpt>
<trkpt lat="45.9061420" lon="10.3414500">
	<ele>1528.20</ele>
	<time>2025-04-29T09:40:20.000Z</time>
</trkpt>
<trkpt lat="45.9061440" lon="10.3414460">
	<ele>1528.20</ele>
	<time>2025-04-29T09:40:21.000Z</time>
</trkpt>
<trkpt lat="45.9061450" lon="10.3414450">
	<ele>1528.20</ele>
	<time>2025-04-29T09:40:22.000Z</time>
</trkpt>
<trkpt lat="45.9061460" lon="10.3414440">
	<ele>1528.20</ele>
	<time>2025-04-29T09:40:23.000Z</time>
</trkpt>
<trkpt lat="45.9061500" lon="10.3414460">
	<ele>1528.20</ele>
	<time>2025-04-29T09:40:24.000Z</time>
</trkpt>
<trkpt lat="45.9061520" lon="10.3414470">
	<ele>1528.20</ele>
	<time>2025-04-29T09:40:25.000Z</time>
</trkpt>
<trkpt lat="45.9061520" lon="10.3414490">
	<ele>1528.20</ele>
	<time>2025-04-29T09:40:26.000Z</time>
</trkpt>
<trkpt lat="45.9061540" lon="10.3414500">
	<ele>1528.20</ele>
	<time>2025-04-29T09:40:27.000Z</time>
</trkpt>
<trkpt lat="45.9061540" lon="10.3414510">
	<ele>1528.20</ele>
	<time>2025-04-29T09:40:28.000Z</time>
</trkpt>
<trkpt lat="45.9061520" lon="10.3414470">
	<ele>1528.00</ele>
	<time>2025-04-29T09:40:29.000Z</time>
</trkpt>
<trkpt lat="45.9061540" lon="10.3414450">
	<ele>1528.00</ele>
	<time>2025-04-29T09:40:30.000Z</time>
</trkpt>
<trkpt lat="45.9061560" lon="10.3414440">
	<ele>1528.00</ele>
	<time>2025-04-29T09:40:31.000Z</time>
</trkpt>
<trkpt lat="45.9061580" lon="10.3414470">
	<ele>1528.00</ele>
	<time>2025-04-29T09:40:32.000Z</time>
</trkpt>
<trkpt lat="45.9061600" lon="10.3414490">
	<ele>1528.00</ele>
	<time>2025-04-29T09:40:33.000Z</time>
</trkpt>
<trkpt lat="45.9061610" lon="10.3414500">
	<ele>1527.80</ele>
	<time>2025-04-29T09:40:34.000Z</time>
</trkpt>
<trkpt lat="45.9061610" lon="10.3414520">
	<ele>1527.80</ele>
	<time>2025-04-29T09:40:35.000Z</time>
</trkpt>
<trkpt lat="45.9061630" lon="10.3414510">
	<ele>1527.80</ele>
	<time>2025-04-29T09:40:36.000Z</time>
</trkpt>
<trkpt lat="45.9061630" lon="10.3414520">
	<ele>1527.80</ele>
	<time>2025-04-29T09:40:37.000Z</time>
</trkpt>
<trkpt lat="45.9061640" lon="10.3414470">
	<ele>1527.80</ele>
	<time>2025-04-29T09:40:38.000Z</time>
</trkpt>
<trkpt lat="45.9061710" lon="10.3414460">
	<ele>1527.80</ele>
	<time>2025-04-29T09:40:39.000Z</time>
</trkpt>
<trkpt lat="45.9061840" lon="10.3414430">
	<ele>1527.60</ele>
	<time>2025-04-29T09:40:40.000Z</time>
</trkpt>
<trkpt lat="45.9062020" lon="10.3414380">
	<ele>1527.40</ele>
	<time>2025-04-29T09:40:41.000Z</time>
</trkpt>
<trkpt lat="45.9062100" lon="10.3414260">
	<ele>1527.20</ele>
	<time>2025-04-29T09:40:42.000Z</time>
</trkpt>
<trkpt lat="45.9062170" lon="10.3414200">
	<ele>1527.00</ele>
	<time>2025-04-29T09:40:43.000Z</time>
</trkpt>
<trkpt lat="45.9062230" lon="10.3414130">
	<ele>1526.80</ele>
	<time>2025-04-29T09:40:44.000Z</time>
</trkpt>
<trkpt lat="45.9062270" lon="10.3414020">
	<ele>1526.60</ele>
	<time>2025-04-29T09:40:45.000Z</time>
</trkpt>
<trkpt lat="45.9062340" lon="10.3413950">
	<ele>1526.40</ele>
	<time>2025-04-29T09:40:46.000Z</time>
</trkpt>
<trkpt lat="45.9062390" lon="10.3413870">
	<ele>1526.20</ele>
	<time>2025-04-29T09:40:47.000Z</time>
</trkpt>
<trkpt lat="45.9062500" lon="10.3413820">
	<ele>1526.20</ele>
	<time>2025-04-29T09:40:48.000Z</time>
</trkpt>
<trkpt lat="45.9062600" lon="10.3413730">
	<ele>1526.00</ele>
	<time>2025-04-29T09:40:49.000Z</time>
</trkpt>
<trkpt lat="45.9062640" lon="10.3413660">
	<ele>1525.80</ele>
	<time>2025-04-29T09:40:50.000Z</time>
</trkpt>
<trkpt lat="45.9062640" lon="10.3413560">
	<ele>1525.40</ele>
	<time>2025-04-29T09:40:51.000Z</time>
</trkpt>
<trkpt lat="45.9062640" lon="10.3413500">
	<ele>1525.20</ele>
	<time>2025-04-29T09:40:52.000Z</time>
</trkpt>
<trkpt lat="45.9062710" lon="10.3413430">
	<ele>1525.20</ele>
	<time>2025-04-29T09:40:53.000Z</time>
</trkpt>
<trkpt lat="45.9062820" lon="10.3413410">
	<ele>1525.00</ele>
	<time>2025-04-29T09:40:54.000Z</time>
</trkpt>
<trkpt lat="45.9062940" lon="10.3413400">
	<ele>1524.80</ele>
	<time>2025-04-29T09:40:55.000Z</time>
</trkpt>
<trkpt lat="45.9063000" lon="10.3413420">
	<ele>1524.60</ele>
	<time>2025-04-29T09:40:56.000Z</time>
</trkpt>
<trkpt lat="45.9063020" lon="10.3413550">
	<ele>1524.40</ele>
	<time>2025-04-29T09:40:57.000Z</time>
</trkpt>
<trkpt lat="45.9063070" lon="10.3413860">
	<ele>1524.20</ele>
	<time>2025-04-29T09:40:58.000Z</time>
</trkpt>
<trkpt lat="45.9063110" lon="10.3414090">
	<ele>1524.00</ele>
	<time>2025-04-29T09:40:59.000Z</time>
</trkpt>
<trkpt lat="45.9063140" lon="10.3414090">
	<ele>1523.80</ele>
	<time>2025-04-29T09:41:00.000Z</time>
</trkpt>
<trkpt lat="45.9063210" lon="10.3413890">
	<ele>1523.60</ele>
	<time>2025-04-29T09:41:01.000Z</time>
</trkpt>
<trkpt lat="45.9063250" lon="10.3413700">
	<ele>1523.40</ele>
	<time>2025-04-29T09:41:02.000Z</time>
</trkpt>
<trkpt lat="45.9063290" lon="10.3413590">
	<ele>1523.20</ele>
	<time>2025-04-29T09:41:03.000Z</time>
</trkpt>
<trkpt lat="45.9063340" lon="10.3413460">
	<ele>1522.80</ele>
	<time>2025-04-29T09:41:04.000Z</time>
</trkpt>
<trkpt lat="45.9063380" lon="10.3413310">
	<ele>1522.60</ele>
	<time>2025-04-29T09:41:05.000Z</time>
</trkpt>
<trkpt lat="45.9063380" lon="10.3413160">
	<ele>1522.40</ele>
	<time>2025-04-29T09:41:06.000Z</time>
</trkpt>
<trkpt lat="45.9063350" lon="10.3413050">
	<ele>1522.20</ele>
	<time>2025-04-29T09:41:07.000Z</time>
</trkpt>
<trkpt lat="45.9063260" lon="10.3412920">
	<ele>1522.00</ele>
	<time>2025-04-29T09:41:08.000Z</time>
</trkpt>
<trkpt lat="45.9063230" lon="10.3412730">
	<ele>1521.60</ele>
	<time>2025-04-29T09:41:09.000Z</time>
</trkpt>
<trkpt lat="45.9063230" lon="10.3412620">
	<ele>1521.20</ele>
	<time>2025-04-29T09:41:10.000Z</time>
</trkpt>
<trkpt lat="45.9063280" lon="10.3412430">
	<ele>1521.00</ele>
	<time>2025-04-29T09:41:11.000Z</time>
</trkpt>
<trkpt lat="45.9063350" lon="10.3412250">
	<ele>1520.80</ele>
	<time>2025-04-29T09:41:12.000Z</time>
</trkpt>
<trkpt lat="45.9063350" lon="10.3412040">
	<ele>1520.60</ele>
	<time>2025-04-29T09:41:13.000Z</time>
</trkpt>
<trkpt lat="45.9063290" lon="10.3411910">
	<ele>1520.20</ele>
	<time>2025-04-29T09:41:14.000Z</time>
</trkpt>
<trkpt lat="45.9063220" lon="10.3411830">
	<ele>1519.80</ele>
	<time>2025-04-29T09:41:15.000Z</time>
</trkpt>
<trkpt lat="45.9063180" lon="10.3411750">
	<ele>1519.40</ele>
	<time>2025-04-29T09:41:16.000Z</time>
</trkpt>
<trkpt lat="45.9063170" lon="10.3411570">
	<ele>1519.20</ele>
	<time>2025-04-29T09:41:17.000Z</time>
</trkpt>
<trkpt lat="45.9063200" lon="10.3411370">
	<ele>1518.80</ele>
	<time>2025-04-29T09:41:18.000Z</time>
</trkpt>
<trkpt lat="45.9063270" lon="10.3411250">
	<ele>1518.60</ele>
	<time>2025-04-29T09:41:19.000Z</time>
</trkpt>
<trkpt lat="45.9063350" lon="10.3411180">
	<ele>1518.20</ele>
	<time>2025-04-29T09:41:20.000Z</time>
</trkpt>
<trkpt lat="45.9063380" lon="10.3411090">
	<ele>1518.00</ele>
	<time>2025-04-29T09:41:21.000Z</time>
</trkpt>
<trkpt lat="45.9063440" lon="10.3410930">
	<ele>1517.80</ele>
	<time>2025-04-29T09:41:22.000Z</time>
</trkpt>
<trkpt lat="45.9063430" lon="10.3410900">
	<ele>1517.40</ele>
	<time>2025-04-29T09:41:23.000Z</time>
</trkpt>
<trkpt lat="45.9063410" lon="10.3410770">
	<ele>1517.40</ele>
	<time>2025-04-29T09:41:24.000Z</time>
</trkpt>
<trkpt lat="45.9063410" lon="10.3410740">
	<ele>1516.80</ele>
	<time>2025-04-29T09:41:25.000Z</time>
</trkpt>
<trkpt lat="45.9063550" lon="10.3410830">
	<ele>1516.60</ele>
	<time>2025-04-29T09:41:26.000Z</time>
</trkpt>
<trkpt lat="45.9063580" lon="10.3410830">
	<ele>1516.40</ele>
	<time>2025-04-29T09:41:27.000Z</time>
</trkpt>
<trkpt lat="45.9063650" lon="10.3410740">
	<ele>1516.20</ele>
	<time>2025-04-29T09:41:28.000Z</time>
</trkpt>
<trkpt lat="45.9063720" lon="10.3410560">
	<ele>1515.80</ele>
	<time>2025-04-29T09:41:29.000Z</time>
</trkpt>
<trkpt lat="45.9063800" lon="10.3410500">
	<ele>1515.60</ele>
	<time>2025-04-29T09:41:30.000Z</time>
</trkpt>
<trkpt lat="45.9063860" lon="10.3410340">
	<ele>1515.40</ele>
	<time>2025-04-29T09:41:31.000Z</time>
</trkpt>
<trkpt lat="45.9063880" lon="10.3410330">
	<ele>1515.20</ele>
	<time>2025-04-29T09:41:32.000Z</time>
</trkpt>
<trkpt lat="45.9063850" lon="10.3410210">
	<ele>1514.80</ele>
	<time>2025-04-29T09:41:33.000Z</time>
</trkpt>
<trkpt lat="45.9063840" lon="10.3410050">
	<ele>1514.40</ele>
	<time>2025-04-29T09:41:34.000Z</time>
</trkpt>
<trkpt lat="45.9063870" lon="10.3410050">
	<ele>1514.20</ele>
	<time>2025-04-29T09:41:35.000Z</time>
</trkpt>
<trkpt lat="45.9063940" lon="10.3410130">
	<ele>1513.80</ele>
	<time>2025-04-29T09:41:36.000Z</time>
</trkpt>
<trkpt lat="45.9064010" lon="10.3410190">
	<ele>1513.60</ele>
	<time>2025-04-29T09:41:37.000Z</time>
</trkpt>
<trkpt lat="45.9064040" lon="10.3410380">
	<ele>1513.40</ele>
	<time>2025-04-29T09:41:38.000Z</time>
</trkpt>
<trkpt lat="45.9064090" lon="10.3410600">
	<ele>1513.20</ele>
	<time>2025-04-29T09:41:39.000Z</time>
</trkpt>
<trkpt lat="45.9064110" lon="10.3410800">
	<ele>1513.00</ele>
	<time>2025-04-29T09:41:40.000Z</time>
</trkpt>
<trkpt lat="45.9064230" lon="10.3410900">
	<ele>1512.60</ele>
	<time>2025-04-29T09:41:41.000Z</time>
</trkpt>
<trkpt lat="45.9064330" lon="10.3410830">
	<ele>1512.60</ele>
	<time>2025-04-29T09:41:42.000Z</time>
</trkpt>
<trkpt lat="45.9064400" lon="10.3410720">
	<ele>1512.60</ele>
	<time>2025-04-29T09:41:43.000Z</time>
</trkpt>
<trkpt lat="45.9064450" lon="10.3410570">
	<ele>1512.40</ele>
	<time>2025-04-29T09:41:44.000Z</time>
</trkpt>
<trkpt lat="45.9064590" lon="10.3410490">
	<ele>1512.20</ele>
	<time>2025-04-29T09:41:45.000Z</time>
</trkpt>
<trkpt lat="45.9064700" lon="10.3410430">
	<ele>1512.20</ele>
	<time>2025-04-29T09:41:46.000Z</time>
</trkpt>
<trkpt lat="45.9064750" lon="10.3410400">
	<ele>1512.20</ele>
	<time>2025-04-29T09:41:47.000Z</time>
</trkpt>
<trkpt lat="45.9064790" lon="10.3410330">
	<ele>1512.20</ele>
	<time>2025-04-29T09:41:48.000Z</time>
</trkpt>
<trkpt lat="45.9064860" lon="10.3410110">
	<ele>1512.00</ele>
	<time>2025-04-29T09:41:49.000Z</time>
</trkpt>
<trkpt lat="45.9065010" lon="10.3410030">
	<ele>1511.80</ele>
	<time>2025-04-29T09:41:50.000Z</time>
</trkpt>
<trkpt lat="45.9065040" lon="10.3410010">
	<ele>1511.40</ele>
	<time>2025-04-29T09:41:51.000Z</time>
</trkpt>
<trkpt lat="45.9065100" lon="10.3410040">
	<ele>1511.20</ele>
	<time>2025-04-29T09:41:52.000Z</time>
</trkpt>
<trkpt lat="45.9065210" lon="10.3410020">
	<ele>1511.00</ele>
	<time>2025-04-29T09:41:53.000Z</time>
</trkpt>
<trkpt lat="45.9065290" lon="10.3409920">
	<ele>1510.80</ele>
	<time>2025-04-29T09:41:54.000Z</time>
</trkpt>
<trkpt lat="45.9065400" lon="10.3409800">
	<ele>1510.60</ele>
	<time>2025-04-29T09:41:55.000Z</time>
</trkpt>
<trkpt lat="45.9065510" lon="10.3409710">
	<ele>1510.40</ele>
	<time>2025-04-29T09:41:56.000Z</time>
</trkpt>
<trkpt lat="45.9065560" lon="10.3409680">
	<ele>1510.20</ele>
	<time>2025-04-29T09:41:57.000Z</time>
</trkpt>
<trkpt lat="45.9065570" lon="10.3409620">
	<ele>1509.80</ele>
	<time>2025-04-29T09:41:58.000Z</time>
</trkpt>
<trkpt lat="45.9065560" lon="10.3409540">
	<ele>1509.60</ele>
	<time>2025-04-29T09:41:59.000Z</time>
</trkpt>
<trkpt lat="45.9065530" lon="10.3409550">
	<ele>1509.40</ele>
	<time>2025-04-29T09:42:00.000Z</time>
</trkpt>
<trkpt lat="45.9065490" lon="10.3409570">
	<ele>1509.00</ele>
	<time>2025-04-29T09:42:01.000Z</time>
</trkpt>
<trkpt lat="45.9065520" lon="10.3409640">
	<ele>1508.80</ele>
	<time>2025-04-29T09:42:02.000Z</time>
</trkpt>
<trkpt lat="45.9065580" lon="10.3409710">
	<ele>1508.80</ele>
	<time>2025-04-29T09:42:03.000Z</time>
</trkpt>
<trkpt lat="45.9065670" lon="10.3409740">
	<ele>1508.80</ele>
	<time>2025-04-29T09:42:04.000Z</time>
</trkpt>
<trkpt lat="45.9065800" lon="10.3409730">
	<ele>1508.80</ele>
	<time>2025-04-29T09:42:05.000Z</time>
</trkpt>
<trkpt lat="45.9065870" lon="10.3409570">
	<ele>1508.60</ele>
	<time>2025-04-29T09:42:06.000Z</time>
</trkpt>
<trkpt lat="45.9065870" lon="10.3409410">
	<ele>1508.40</ele>
	<time>2025-04-29T09:42:07.000Z</time>
</trkpt>
<trkpt lat="45.9065910" lon="10.3409280">
	<ele>1508.40</ele>
	<time>2025-04-29T09:42:08.000Z</time>
</trkpt>
<trkpt lat="45.9065980" lon="10.3409210">
	<ele>1508.40</ele>
	<time>2025-04-29T09:42:09.000Z</time>
</trkpt>
<trkpt lat="45.9066040" lon="10.3409180">
	<ele>1508.20</ele>
	<time>2025-04-29T09:42:10.000Z</time>
</trkpt>
<trkpt lat="45.9066090" lon="10.3409110">
	<ele>1508.00</ele>
	<time>2025-04-29T09:42:11.000Z</time>
</trkpt>
<trkpt lat="45.9066230" lon="10.3408990">
	<ele>1507.80</ele>
	<time>2025-04-29T09:42:12.000Z</time>
</trkpt>
<trkpt lat="45.9066360" lon="10.3408950">
	<ele>1507.60</ele>
	<time>2025-04-29T09:42:13.000Z</time>
</trkpt>
<trkpt lat="45.9066490" lon="10.3408960">
	<ele>1507.40</ele>
	<time>2025-04-29T09:42:14.000Z</time>
</trkpt>
<trkpt lat="45.9066590" lon="10.3408880">
	<ele>1507.00</ele>
	<time>2025-04-29T09:42:15.000Z</time>
</trkpt>
<trkpt lat="45.9066700" lon="10.3408750">
	<ele>1506.80</ele>
	<time>2025-04-29T09:42:16.000Z</time>
</trkpt>
<trkpt lat="45.9066800" lon="10.3408740">
	<ele>1506.40</ele>
	<time>2025-04-29T09:42:17.000Z</time>
</trkpt>
<trkpt lat="45.9066860" lon="10.3408580">
	<ele>1506.20</ele>
	<time>2025-04-29T09:42:18.000Z</time>
</trkpt>
<trkpt lat="45.9066900" lon="10.3408360">
	<ele>1506.00</ele>
	<time>2025-04-29T09:42:19.000Z</time>
</trkpt>
<trkpt lat="45.9066930" lon="10.3408230">
	<ele>1506.00</ele>
	<time>2025-04-29T09:42:20.000Z</time>
</trkpt>
<trkpt lat="45.9067000" lon="10.3408140">
	<ele>1505.80</ele>
	<time>2025-04-29T09:42:21.000Z</time>
</trkpt>
<trkpt lat="45.9067050" lon="10.3408120">
	<ele>1505.40</ele>
	<time>2025-04-29T09:42:22.000Z</time>
</trkpt>
<trkpt lat="45.9067120" lon="10.3407940">
	<ele>1505.20</ele>
	<time>2025-04-29T09:42:23.000Z</time>
</trkpt>
<trkpt lat="45.9067220" lon="10.3407650">
	<ele>1505.00</ele>
	<time>2025-04-29T09:42:24.000Z</time>
</trkpt>
<trkpt lat="45.9067390" lon="10.3407500">
	<ele>1504.60</ele>
	<time>2025-04-29T09:42:25.000Z</time>
</trkpt>
<trkpt lat="45.9067500" lon="10.3407370">
	<ele>1504.60</ele>
	<time>2025-04-29T09:42:26.000Z</time>
</trkpt>
<trkpt lat="45.9067640" lon="10.3407480">
	<ele>1504.20</ele>
	<time>2025-04-29T09:42:27.000Z</time>
</trkpt>
<trkpt lat="45.9067830" lon="10.3407590">
	<ele>1504.00</ele>
	<time>2025-04-29T09:42:28.000Z</time>
</trkpt>
<trkpt lat="45.9067990" lon="10.3407510">
	<ele>1503.60</ele>
	<time>2025-04-29T09:42:29.000Z</time>
</trkpt>
<trkpt lat="45.9068100" lon="10.3407510">
	<ele>1503.40</ele>
	<time>2025-04-29T09:42:30.000Z</time>
</trkpt>
<trkpt lat="45.9068100" lon="10.3407540">
	<ele>1503.40</ele>
	<time>2025-04-29T09:42:31.000Z</time>
</trkpt>
<trkpt lat="45.9068090" lon="10.3407590">
	<ele>1503.00</ele>
	<time>2025-04-29T09:42:32.000Z</time>
</trkpt>
<trkpt lat="45.9068040" lon="10.3407520">
	<ele>1502.60</ele>
	<time>2025-04-29T09:42:33.000Z</time>
</trkpt>
<trkpt lat="45.9067980" lon="10.3407460">
	<ele>1502.60</ele>
	<time>2025-04-29T09:42:34.000Z</time>
</trkpt>
<trkpt lat="45.9068020" lon="10.3407400">
	<ele>1502.20</ele>
	<time>2025-04-29T09:42:35.000Z</time>
</trkpt>
<trkpt lat="45.9068150" lon="10.3407320">
	<ele>1501.80</ele>
	<time>2025-04-29T09:42:36.000Z</time>
</trkpt>
<trkpt lat="45.9068260" lon="10.3407280">
	<ele>1501.40</ele>
	<time>2025-04-29T09:42:37.000Z</time>
</trkpt>
<trkpt lat="45.9068320" lon="10.3407270">
	<ele>1501.20</ele>
	<time>2025-04-29T09:42:38.000Z</time>
</trkpt>
<trkpt lat="45.9068450" lon="10.3407350">
	<ele>1501.00</ele>
	<time>2025-04-29T09:42:39.000Z</time>
</trkpt>
<trkpt lat="45.9068640" lon="10.3407370">
	<ele>1500.80</ele>
	<time>2025-04-29T09:42:40.000Z</time>
</trkpt>
<trkpt lat="45.9068840" lon="10.3407350">
	<ele>1500.80</ele>
	<time>2025-04-29T09:42:41.000Z</time>
</trkpt>
<trkpt lat="45.9069060" lon="10.3407320">
	<ele>1500.60</ele>
	<time>2025-04-29T09:42:42.000Z</time>
</trkpt>
<trkpt lat="45.9069120" lon="10.3407360">
	<ele>1500.60</ele>
	<time>2025-04-29T09:42:43.000Z</time>
</trkpt>
<trkpt lat="45.9069140" lon="10.3407240">
	<ele>1500.60</ele>
	<time>2025-04-29T09:42:44.000Z</time>
</trkpt>
<trkpt lat="45.9069150" lon="10.3407170">
	<ele>1500.40</ele>
	<time>2025-04-29T09:42:45.000Z</time>
</trkpt>
<trkpt lat="45.9069250" lon="10.3407180">
	<ele>1500.20</ele>
	<time>2025-04-29T09:42:46.000Z</time>
</trkpt>
<trkpt lat="45.9069270" lon="10.3407180">
	<ele>1500.00</ele>
	<time>2025-04-29T09:42:47.000Z</time>
</trkpt>
<trkpt lat="45.9069330" lon="10.3407180">
	<ele>1499.80</ele>
	<time>2025-04-29T09:42:48.000Z</time>
</trkpt>
<trkpt lat="45.9069410" lon="10.3407260">
	<ele>1499.60</ele>
	<time>2025-04-29T09:42:49.000Z</time>
</trkpt>
<trkpt lat="45.9069530" lon="10.3407390">
	<ele>1499.40</ele>
	<time>2025-04-29T09:42:50.000Z</time>
</trkpt>
<trkpt lat="45.9069620" lon="10.3407380">
	<ele>1499.40</ele>
	<time>2025-04-29T09:42:51.000Z</time>
</trkpt>
<trkpt lat="45.9069720" lon="10.3407310">
	<ele>1499.00</ele>
	<time>2025-04-29T09:42:52.000Z</time>
</trkpt>
<trkpt lat="45.9069800" lon="10.3407260">
	<ele>1499.00</ele>
	<time>2025-04-29T09:42:53.000Z</time>
</trkpt>
<trkpt lat="45.9069900" lon="10.3407340">
	<ele>1498.80</ele>
	<time>2025-04-29T09:42:54.000Z</time>
</trkpt>
<trkpt lat="45.9070040" lon="10.3407370">
	<ele>1499.00</ele>
	<time>2025-04-29T09:42:55.000Z</time>
</trkpt>
<trkpt lat="45.9070230" lon="10.3407490">
	<ele>1498.80</ele>
	<time>2025-04-29T09:42:56.000Z</time>
</trkpt>
<trkpt lat="45.9070420" lon="10.3407460">
	<ele>1498.80</ele>
	<time>2025-04-29T09:42:57.000Z</time>
</trkpt>
<trkpt lat="45.9070570" lon="10.3407410">
	<ele>1498.80</ele>
	<time>2025-04-29T09:42:58.000Z</time>
</trkpt>
<trkpt lat="45.9070680" lon="10.3407390">
	<ele>1498.80</ele>
	<time>2025-04-29T09:42:59.000Z</time>
</trkpt>
<trkpt lat="45.9070750" lon="10.3407410">
	<ele>1498.80</ele>
	<time>2025-04-29T09:43:00.000Z</time>
</trkpt>
<trkpt lat="45.9070750" lon="10.3407420">
	<ele>1498.80</ele>
	<time>2025-04-29T09:43:01.000Z</time>
</trkpt>
<trkpt lat="45.9070860" lon="10.3407380">
	<ele>1498.80</ele>
	<time>2025-04-29T09:43:02.000Z</time>
</trkpt>
<trkpt lat="45.9071040" lon="10.3407060">
	<ele>1499.00</ele>
	<time>2025-04-29T09:43:03.000Z</time>
</trkpt>
<trkpt lat="45.9071320" lon="10.3406840">
	<ele>1499.20</ele>
	<time>2025-04-29T09:43:04.000Z</time>
</trkpt>
<trkpt lat="45.9071590" lon="10.3406650">
	<ele>1499.40</ele>
	<time>2025-04-29T09:43:05.000Z</time>
</trkpt>
<trkpt lat="45.9071790" lon="10.3406490">
	<ele>1499.60</ele>
	<time>2025-04-29T09:43:06.000Z</time>
</trkpt>
<trkpt lat="45.9072020" lon="10.3406370">
	<ele>1499.80</ele>
	<time>2025-04-29T09:43:07.000Z</time>
</trkpt>
<trkpt lat="45.9072260" lon="10.3406260">
	<ele>1500.00</ele>
	<time>2025-04-29T09:43:08.000Z</time>
</trkpt>
<trkpt lat="45.9072420" lon="10.3406260">
	<ele>1500.00</ele>
	<time>2025-04-29T09:43:09.000Z</time>
</trkpt>
<trkpt lat="45.9072710" lon="10.3406190">
	<ele>1500.20</ele>
	<time>2025-04-29T09:43:10.000Z</time>
</trkpt>
<trkpt lat="45.9072900" lon="10.3405990">
	<ele>1499.80</ele>
	<time>2025-04-29T09:43:11.000Z</time>
</trkpt>
<trkpt lat="45.9072990" lon="10.3405570">
	<ele>1499.40</ele>
	<time>2025-04-29T09:43:12.000Z</time>
</trkpt>
<trkpt lat="45.9073060" lon="10.3405150">
	<ele>1499.20</ele>
	<time>2025-04-29T09:43:13.000Z</time>
</trkpt>
<trkpt lat="45.9073080" lon="10.3404930">
	<ele>1499.00</ele>
	<time>2025-04-29T09:43:14.000Z</time>
</trkpt>
<trkpt lat="45.9073110" lon="10.3404880">
	<ele>1498.80</ele>
	<time>2025-04-29T09:43:15.000Z</time>
</trkpt>
<trkpt lat="45.9073210" lon="10.3404690">
	<ele>1498.60</ele>
	<time>2025-04-29T09:43:16.000Z</time>
</trkpt>
<trkpt lat="45.9073300" lon="10.3404440">
	<ele>1498.60</ele>
	<time>2025-04-29T09:43:17.000Z</time>
</trkpt>
<trkpt lat="45.9073360" lon="10.3404180">
	<ele>1498.40</ele>
	<time>2025-04-29T09:43:18.000Z</time>
</trkpt>
<trkpt lat="45.9073490" lon="10.3403960">
	<ele>1498.20</ele>
	<time>2025-04-29T09:43:19.000Z</time>
</trkpt>
<trkpt lat="45.9073590" lon="10.3403880">
	<ele>1498.00</ele>
	<time>2025-04-29T09:43:20.000Z</time>
</trkpt>
<trkpt lat="45.9073680" lon="10.3403720">
	<ele>1498.00</ele>
	<time>2025-04-29T09:43:21.000Z</time>
</trkpt>
<trkpt lat="45.9073770" lon="10.3403630">
	<ele>1498.00</ele>
	<time>2025-04-29T09:43:22.000Z</time>
</trkpt>
<trkpt lat="45.9073850" lon="10.3403590">
	<ele>1498.00</ele>
	<time>2025-04-29T09:43:23.000Z</time>
</trkpt>
<trkpt lat="45.9073960" lon="10.3403410">
	<ele>1498.00</ele>
	<time>2025-04-29T09:43:24.000Z</time>
</trkpt>
<trkpt lat="45.9074090" lon="10.3403260">
	<ele>1498.00</ele>
	<time>2025-04-29T09:43:25.000Z</time>
</trkpt>
<trkpt lat="45.9074200" lon="10.3403090">
	<ele>1498.20</ele>
	<time>2025-04-29T09:43:26.000Z</time>
</trkpt>
<trkpt lat="45.9074290" lon="10.3403030">
	<ele>1498.20</ele>
	<time>2025-04-29T09:43:27.000Z</time>
</trkpt>
<trkpt lat="45.9074340" lon="10.3403030">
	<ele>1498.40</ele>
	<time>2025-04-29T09:43:28.000Z</time>
</trkpt>
<trkpt lat="45.9074320" lon="10.3402800">
	<ele>1498.60</ele>
	<time>2025-04-29T09:43:29.000Z</time>
</trkpt>
<trkpt lat="45.9074350" lon="10.3402550">
	<ele>1498.60</ele>
	<time>2025-04-29T09:43:30.000Z</time>
</trkpt>
<trkpt lat="45.9074390" lon="10.3402240">
	<ele>1498.80</ele>
	<time>2025-04-29T09:43:31.000Z</time>
</trkpt>
<trkpt lat="45.9074320" lon="10.3401950">
	<ele>1498.80</ele>
	<time>2025-04-29T09:43:32.000Z</time>
</trkpt>
<trkpt lat="45.9074230" lon="10.3401770">
	<ele>1498.80</ele>
	<time>2025-04-29T09:43:33.000Z</time>
</trkpt>
<trkpt lat="45.9074140" lon="10.3401650">
	<ele>1498.80</ele>
	<time>2025-04-29T09:43:34.000Z</time>
</trkpt>
<trkpt lat="45.9074170" lon="10.3401590">
	<ele>1498.80</ele>
	<time>2025-04-29T09:43:35.000Z</time>
</trkpt>
<trkpt lat="45.9074300" lon="10.3401570">
	<ele>1498.80</ele>
	<time>2025-04-29T09:43:36.000Z</time>
</trkpt>
<trkpt lat="45.9074560" lon="10.3401440">
	<ele>1498.80</ele>
	<time>2025-04-29T09:43:37.000Z</time>
</trkpt>
<trkpt lat="45.9074710" lon="10.3401320">
	<ele>1498.80</ele>
	<time>2025-04-29T09:43:38.000Z</time>
</trkpt>
<trkpt lat="45.9074850" lon="10.3401140">
	<ele>1498.80</ele>
	<time>2025-04-29T09:43:39.000Z</time>
</trkpt>
<trkpt lat="45.9074990" lon="10.3401030">
	<ele>1499.00</ele>
	<time>2025-04-29T09:43:40.000Z</time>
</trkpt>
<trkpt lat="45.9075160" lon="10.3400910">
	<ele>1499.20</ele>
	<time>2025-04-29T09:43:41.000Z</time>
</trkpt>
<trkpt lat="45.9075280" lon="10.3400910">
	<ele>1499.20</ele>
	<time>2025-04-29T09:43:42.000Z</time>
</trkpt>
<trkpt lat="45.9075320" lon="10.3400850">
	<ele>1499.60</ele>
	<time>2025-04-29T09:43:43.000Z</time>
</trkpt>
<trkpt lat="45.9075390" lon="10.3401030">
	<ele>1499.80</ele>
	<time>2025-04-29T09:43:44.000Z</time>
</trkpt>
<trkpt lat="45.9075390" lon="10.3401040">
	<ele>1500.00</ele>
	<time>2025-04-29T09:43:45.000Z</time>
</trkpt>
<trkpt lat="45.9075350" lon="10.3401140">
	<ele>1500.00</ele>
	<time>2025-04-29T09:43:46.000Z</time>
</trkpt>
<trkpt lat="45.9075400" lon="10.3401170">
	<ele>1500.20</ele>
	<time>2025-04-29T09:43:47.000Z</time>
</trkpt>
<trkpt lat="45.9075440" lon="10.3401200">
	<ele>1500.40</ele>
	<time>2025-04-29T09:43:48.000Z</time>
</trkpt>
<trkpt lat="45.9075440" lon="10.3401170">
	<ele>1500.60</ele>
	<time>2025-04-29T09:43:49.000Z</time>
</trkpt>
<trkpt lat="45.9075460" lon="10.3401160">
	<ele>1500.60</ele>
	<time>2025-04-29T09:43:50.000Z</time>
</trkpt>
<trkpt lat="45.9075470" lon="10.3401210">
	<ele>1500.80</ele>
	<time>2025-04-29T09:43:51.000Z</time>
</trkpt>
<trkpt lat="45.9075530" lon="10.3401210">
	<ele>1500.80</ele>
	<time>2025-04-29T09:43:52.000Z</time>
</trkpt>
<trkpt lat="45.9075680" lon="10.3401070">
	<ele>1500.80</ele>
	<time>2025-04-29T09:43:53.000Z</time>
</trkpt>
<trkpt lat="45.9075820" lon="10.3400910">
	<ele>1500.80</ele>
	<time>2025-04-29T09:43:54.000Z</time>
</trkpt>
<trkpt lat="45.9076010" lon="10.3400780">
	<ele>1500.60</ele>
	<time>2025-04-29T09:43:55.000Z</time>
</trkpt>
<trkpt lat="45.9076230" lon="10.3400770">
	<ele>1500.40</ele>
	<time>2025-04-29T09:43:56.000Z</time>
</trkpt>
<trkpt lat="45.9076290" lon="10.3400750">
	<ele>1500.20</ele>
	<time>2025-04-29T09:43:57.000Z</time>
</trkpt>
<trkpt lat="45.9076480" lon="10.3400680">
	<ele>1500.20</ele>
	<time>2025-04-29T09:43:58.000Z</time>
</trkpt>
<trkpt lat="45.9076510" lon="10.3400660">
	<ele>1500.00</ele>
	<time>2025-04-29T09:43:59.000Z</time>
</trkpt>
<trkpt lat="45.9076570" lon="10.3400550">
	<ele>1500.00</ele>
	<time>2025-04-29T09:44:00.000Z</time>
</trkpt>
<trkpt lat="45.9076610" lon="10.3400380">
	<ele>1499.80</ele>
	<time>2025-04-29T09:44:01.000Z</time>
</trkpt>
<trkpt lat="45.9076670" lon="10.3400250">
	<ele>1499.60</ele>
	<time>2025-04-29T09:44:02.000Z</time>
</trkpt>
<trkpt lat="45.9076700" lon="10.3400200">
	<ele>1499.60</ele>
	<time>2025-04-29T09:44:03.000Z</time>
</trkpt>
<trkpt lat="45.9076800" lon="10.3400080">
	<ele>1499.40</ele>
	<time>2025-04-29T09:44:04.000Z</time>
</trkpt>
<trkpt lat="45.9076830" lon="10.3400090">
	<ele>1499.00</ele>
	<time>2025-04-29T09:44:05.000Z</time>
</trkpt>
<trkpt lat="45.9076850" lon="10.3400070">
	<ele>1498.80</ele>
	<time>2025-04-29T09:44:06.000Z</time>
</trkpt>
<trkpt lat="45.9076960" lon="10.3399980">
	<ele>1498.60</ele>
	<time>2025-04-29T09:44:07.000Z</time>
</trkpt>
<trkpt lat="45.9077050" lon="10.3399930">
	<ele>1498.40</ele>
	<time>2025-04-29T09:44:08.000Z</time>
</trkpt>
<trkpt lat="45.9077060" lon="10.3399940">
	<ele>1498.20</ele>
	<time>2025-04-29T09:44:09.000Z</time>
</trkpt>
<trkpt lat="45.9077110" lon="10.3399700">
	<ele>1498.00</ele>
	<time>2025-04-29T09:44:10.000Z</time>
</trkpt>
<trkpt lat="45.9077110" lon="10.3399670">
	<ele>1498.00</ele>
	<time>2025-04-29T09:44:11.000Z</time>
</trkpt>
<trkpt lat="45.9077190" lon="10.3399520">
	<ele>1497.60</ele>
	<time>2025-04-29T09:44:12.000Z</time>
</trkpt>
<trkpt lat="45.9077260" lon="10.3399320">
	<ele>1497.40</ele>
	<time>2025-04-29T09:44:13.000Z</time>
</trkpt>
<trkpt lat="45.9077390" lon="10.3399030">
	<ele>1497.00</ele>
	<time>2025-04-29T09:44:14.000Z</time>
</trkpt>
<trkpt lat="45.9077470" lon="10.3398870">
	<ele>1497.00</ele>
	<time>2025-04-29T09:44:15.000Z</time>
</trkpt>
<trkpt lat="45.9077550" lon="10.3398760">
	<ele>1496.80</ele>
	<time>2025-04-29T09:44:16.000Z</time>
</trkpt>
<trkpt lat="45.9077570" lon="10.3398600">
	<ele>1496.80</ele>
	<time>2025-04-29T09:44:17.000Z</time>
</trkpt>
<trkpt lat="45.9077560" lon="10.3398500">
	<ele>1496.40</ele>
	<time>2025-04-29T09:44:18.000Z</time>
</trkpt>
<trkpt lat="45.9077530" lon="10.3398490">
	<ele>1496.20</ele>
	<time>2025-04-29T09:44:19.000Z</time>
</trkpt>
<trkpt lat="45.9077430" lon="10.3398310">
	<ele>1496.20</ele>
	<time>2025-04-29T09:44:20.000Z</time>
</trkpt>
<trkpt lat="45.9077360" lon="10.3398110">
	<ele>1495.80</ele>
	<time>2025-04-29T09:44:21.000Z</time>
</trkpt>
<trkpt lat="45.9077340" lon="10.3397930">
	<ele>1495.40</ele>
	<time>2025-04-29T09:44:22.000Z</time>
</trkpt>
<trkpt lat="45.9077340" lon="10.3397730">
	<ele>1495.20</ele>
	<time>2025-04-29T09:44:23.000Z</time>
</trkpt>
<trkpt lat="45.9077420" lon="10.3397410">
	<ele>1494.80</ele>
	<time>2025-04-29T09:44:24.000Z</time>
</trkpt>
<trkpt lat="45.9077560" lon="10.3397000">
	<ele>1494.60</ele>
	<time>2025-04-29T09:44:25.000Z</time>
</trkpt>
<trkpt lat="45.9077730" lon="10.3396540">
	<ele>1494.40</ele>
	<time>2025-04-29T09:44:26.000Z</time>
</trkpt>
<trkpt lat="45.9077760" lon="10.3396480">
	<ele>1494.20</ele>
	<time>2025-04-29T09:44:27.000Z</time>
</trkpt>
<trkpt lat="45.9077870" lon="10.3396180">
	<ele>1494.00</ele>
	<time>2025-04-29T09:44:28.000Z</time>
</trkpt>
<trkpt lat="45.9077870" lon="10.3396140">
	<ele>1494.00</ele>
	<time>2025-04-29T09:44:29.000Z</time>
</trkpt>
<trkpt lat="45.9077880" lon="10.3396120">
	<ele>1493.80</ele>
	<time>2025-04-29T09:44:30.000Z</time>
</trkpt>
<trkpt lat="45.9077850" lon="10.3395870">
	<ele>1493.80</ele>
	<time>2025-04-29T09:44:31.000Z</time>
</trkpt>
<trkpt lat="45.9077870" lon="10.3395640">
	<ele>1493.60</ele>
	<time>2025-04-29T09:44:32.000Z</time>
</trkpt>
<trkpt lat="45.9077920" lon="10.3395490">
	<ele>1493.60</ele>
	<time>2025-04-29T09:44:33.000Z</time>
</trkpt>
<trkpt lat="45.9078000" lon="10.3395300">
	<ele>1493.40</ele>
	<time>2025-04-29T09:44:34.000Z</time>
</trkpt>
<trkpt lat="45.9078120" lon="10.3395140">
	<ele>1493.20</ele>
	<time>2025-04-29T09:44:35.000Z</time>
</trkpt>
<trkpt lat="45.9078200" lon="10.3394790">
	<ele>1493.00</ele>
	<time>2025-04-29T09:44:36.000Z</time>
</trkpt>
<trkpt lat="45.9078210" lon="10.3394660">
	<ele>1493.00</ele>
	<time>2025-04-29T09:44:37.000Z</time>
</trkpt>
<trkpt lat="45.9078350" lon="10.3394640">
	<ele>1492.80</ele>
	<time>2025-04-29T09:44:38.000Z</time>
</trkpt>
<trkpt lat="45.9078530" lon="10.3394580">
	<ele>1492.80</ele>
	<time>2025-04-29T09:44:39.000Z</time>
</trkpt>
<trkpt lat="45.9078630" lon="10.3394400">
	<ele>1492.60</ele>
	<time>2025-04-29T09:44:40.000Z</time>
</trkpt>
<trkpt lat="45.9078680" lon="10.3394170">
	<ele>1492.20</ele>
	<time>2025-04-29T09:44:41.000Z</time>
</trkpt>
<trkpt lat="45.9078720" lon="10.3393930">
	<ele>1492.00</ele>
	<time>2025-04-29T09:44:42.000Z</time>
</trkpt>
<trkpt lat="45.9078780" lon="10.3393810">
	<ele>1491.80</ele>
	<time>2025-04-29T09:44:43.000Z</time>
</trkpt>
<trkpt lat="45.9078830" lon="10.3393680">
	<ele>1491.80</ele>
	<time>2025-04-29T09:44:44.000Z</time>
</trkpt>
<trkpt lat="45.9078850" lon="10.3393510">
	<ele>1491.60</ele>
	<time>2025-04-29T09:44:45.000Z</time>
</trkpt>
<trkpt lat="45.9078910" lon="10.3393330">
	<ele>1491.60</ele>
	<time>2025-04-29T09:44:46.000Z</time>
</trkpt>
<trkpt lat="45.9078960" lon="10.3393060">
	<ele>1491.40</ele>
	<time>2025-04-29T09:44:47.000Z</time>
</trkpt>
<trkpt lat="45.9078870" lon="10.3392870">
	<ele>1491.40</ele>
	<time>2025-04-29T09:44:48.000Z</time>
</trkpt>
<trkpt lat="45.9078790" lon="10.3392590">
	<ele>1491.40</ele>
	<time>2025-04-29T09:44:49.000Z</time>
</trkpt>
<trkpt lat="45.9078750" lon="10.3392330">
	<ele>1491.40</ele>
	<time>2025-04-29T09:44:50.000Z</time>
</trkpt>
<trkpt lat="45.9078820" lon="10.3392040">
	<ele>1491.20</ele>
	<time>2025-04-29T09:44:51.000Z</time>
</trkpt>
<trkpt lat="45.9078890" lon="10.3391790">
	<ele>1491.20</ele>
	<time>2025-04-29T09:44:52.000Z</time>
</trkpt>
<trkpt lat="45.9078910" lon="10.3391610">
	<ele>1491.20</ele>
	<time>2025-04-29T09:44:53.000Z</time>
</trkpt>
<trkpt lat="45.9078970" lon="10.3391560">
	<ele>1491.20</ele>
	<time>2025-04-29T09:44:54.000Z</time>
</trkpt>
<trkpt lat="45.9079070" lon="10.3391560">
	<ele>1491.20</ele>
	<time>2025-04-29T09:44:55.000Z</time>
</trkpt>
<trkpt lat="45.9079330" lon="10.3391650">
	<ele>1491.00</ele>
	<time>2025-04-29T09:44:56.000Z</time>
</trkpt>
<trkpt lat="45.9079550" lon="10.3391580">
	<ele>1491.00</ele>
	<time>2025-04-29T09:44:57.000Z</time>
</trkpt>
<trkpt lat="45.9079720" lon="10.3391460">
	<ele>1490.80</ele>
	<time>2025-04-29T09:44:58.000Z</time>
</trkpt>
<trkpt lat="45.9079810" lon="10.3391170">
	<ele>1490.80</ele>
	<time>2025-04-29T09:44:59.000Z</time>
</trkpt>
<trkpt lat="45.9079910" lon="10.3390930">
	<ele>1490.80</ele>
	<time>2025-04-29T09:45:00.000Z</time>
</trkpt>
<trkpt lat="45.9080020" lon="10.3390770">
	<ele>1490.80</ele>
	<time>2025-04-29T09:45:01.000Z</time>
</trkpt>
<trkpt lat="45.9080130" lon="10.3390570">
	<ele>1490.60</ele>
	<time>2025-04-29T09:45:02.000Z</time>
</trkpt>
<trkpt lat="45.9080220" lon="10.3390400">
	<ele>1490.60</ele>
	<time>2025-04-29T09:45:03.000Z</time>
</trkpt>
<trkpt lat="45.9080210" lon="10.3390280">
	<ele>1490.60</ele>
	<time>2025-04-29T09:45:04.000Z</time>
</trkpt>
<trkpt lat="45.9080330" lon="10.3390100">
	<ele>1490.60</ele>
	<time>2025-04-29T09:45:05.000Z</time>
</trkpt>
<trkpt lat="45.9080600" lon="10.3390040">
	<ele>1490.60</ele>
	<time>2025-04-29T09:45:06.000Z</time>
</trkpt>
<trkpt lat="45.9080810" lon="10.3389900">
	<ele>1490.60</ele>
	<time>2025-04-29T09:45:07.000Z</time>
</trkpt>
<trkpt lat="45.9080970" lon="10.3389910">
	<ele>1490.60</ele>
	<time>2025-04-29T09:45:08.000Z</time>
</trkpt>
<trkpt lat="45.9081050" lon="10.3389690">
	<ele>1490.60</ele>
	<time>2025-04-29T09:45:09.000Z</time>
</trkpt>
<trkpt lat="45.9081160" lon="10.3389580">
	<ele>1490.60</ele>
	<time>2025-04-29T09:45:10.000Z</time>
</trkpt>
<trkpt lat="45.9081250" lon="10.3389320">
	<ele>1490.60</ele>
	<time>2025-04-29T09:45:11.000Z</time>
</trkpt>
<trkpt lat="45.9081360" lon="10.3388950">
	<ele>1490.60</ele>
	<time>2025-04-29T09:45:12.000Z</time>
</trkpt>
<trkpt lat="45.9081440" lon="10.3388490">
	<ele>1490.60</ele>
	<time>2025-04-29T09:45:13.000Z</time>
</trkpt>
<trkpt lat="45.9081440" lon="10.3388120">
	<ele>1490.20</ele>
	<time>2025-04-29T09:45:14.000Z</time>
</trkpt>
<trkpt lat="45.9081470" lon="10.3387910">
	<ele>1490.00</ele>
	<time>2025-04-29T09:45:15.000Z</time>
</trkpt>
<trkpt lat="45.9081460" lon="10.3387820">
	<ele>1489.80</ele>
	<time>2025-04-29T09:45:16.000Z</time>
</trkpt>
<trkpt lat="45.9081410" lon="10.3387680">
	<ele>1489.80</ele>
	<time>2025-04-29T09:45:17.000Z</time>
</trkpt>
<trkpt lat="45.9081390" lon="10.3387530">
	<ele>1489.60</ele>
	<time>2025-04-29T09:45:18.000Z</time>
</trkpt>
<trkpt lat="45.9081390" lon="10.3387350">
	<ele>1489.40</ele>
	<time>2025-04-29T09:45:19.000Z</time>
</trkpt>
<trkpt lat="45.9081460" lon="10.3387250">
	<ele>1489.40</ele>
	<time>2025-04-29T09:45:20.000Z</time>
</trkpt>
<trkpt lat="45.9081380" lon="10.3387060">
	<ele>1489.40</ele>
	<time>2025-04-29T09:45:21.000Z</time>
</trkpt>
<trkpt lat="45.9081410" lon="10.3386870">
	<ele>1489.40</ele>
	<time>2025-04-29T09:45:22.000Z</time>
</trkpt>
<trkpt lat="45.9081490" lon="10.3386650">
	<ele>1489.40</ele>
	<time>2025-04-29T09:45:23.000Z</time>
</trkpt>
<trkpt lat="45.9081610" lon="10.3386420">
	<ele>1489.20</ele>
	<time>2025-04-29T09:45:24.000Z</time>
</trkpt>
<trkpt lat="45.9081700" lon="10.3386280">
	<ele>1489.20</ele>
	<time>2025-04-29T09:45:25.000Z</time>
</trkpt>
<trkpt lat="45.9081670" lon="10.3386110">
	<ele>1489.00</ele>
	<time>2025-04-29T09:45:26.000Z</time>
</trkpt>
<trkpt lat="45.9081690" lon="10.3385910">
	<ele>1489.00</ele>
	<time>2025-04-29T09:45:27.000Z</time>
</trkpt>
<trkpt lat="45.9081690" lon="10.3385660">
	<ele>1488.80</ele>
	<time>2025-04-29T09:45:28.000Z</time>
</trkpt>
<trkpt lat="45.9081740" lon="10.3385480">
	<ele>1488.80</ele>
	<time>2025-04-29T09:45:29.000Z</time>
</trkpt>
<trkpt lat="45.9081740" lon="10.3385420">
	<ele>1488.60</ele>
	<time>2025-04-29T09:45:30.000Z</time>
</trkpt>
<trkpt lat="45.9081910" lon="10.3385360">
	<ele>1488.40</ele>
	<time>2025-04-29T09:45:31.000Z</time>
</trkpt>
<trkpt lat="45.9082090" lon="10.3385220">
	<ele>1488.20</ele>
	<time>2025-04-29T09:45:32.000Z</time>
</trkpt>
<trkpt lat="45.9082160" lon="10.3385070">
	<ele>1488.00</ele>
	<time>2025-04-29T09:45:33.000Z</time>
</trkpt>
<trkpt lat="45.9082240" lon="10.3384960">
	<ele>1487.80</ele>
	<time>2025-04-29T09:45:34.000Z</time>
</trkpt>
<trkpt lat="45.9082300" lon="10.3384860">
	<ele>1487.60</ele>
	<time>2025-04-29T09:45:35.000Z</time>
</trkpt>
<trkpt lat="45.9082350" lon="10.3384670">
	<ele>1487.20</ele>
	<time>2025-04-29T09:45:36.000Z</time>
</trkpt>
<trkpt lat="45.9082400" lon="10.3384590">
	<ele>1487.00</ele>
	<time>2025-04-29T09:45:37.000Z</time>
</trkpt>
<trkpt lat="45.9082490" lon="10.3384540">
	<ele>1486.80</ele>
	<time>2025-04-29T09:45:38.000Z</time>
</trkpt>
<trkpt lat="45.9082590" lon="10.3384460">
	<ele>1486.80</ele>
	<time>2025-04-29T09:45:39.000Z</time>
</trkpt>
<trkpt lat="45.9082640" lon="10.3384430">
	<ele>1486.60</ele>
	<time>2025-04-29T09:45:40.000Z</time>
</trkpt>
<trkpt lat="45.9082720" lon="10.3384500">
	<ele>1486.40</ele>
	<time>2025-04-29T09:45:41.000Z</time>
</trkpt>
<trkpt lat="45.9082780" lon="10.3384600">
	<ele>1486.00</ele>
	<time>2025-04-29T09:45:42.000Z</time>
</trkpt>
<trkpt lat="45.9082840" lon="10.3384530">
	<ele>1485.60</ele>
	<time>2025-04-29T09:45:43.000Z</time>
</trkpt>
<trkpt lat="45.9082890" lon="10.3384510">
	<ele>1485.20</ele>
	<time>2025-04-29T09:45:44.000Z</time>
</trkpt>
<trkpt lat="45.9082950" lon="10.3384490">
	<ele>1485.00</ele>
	<time>2025-04-29T09:45:45.000Z</time>
</trkpt>
<trkpt lat="45.9083020" lon="10.3384400">
	<ele>1484.40</ele>
	<time>2025-04-29T09:45:46.000Z</time>
</trkpt>
<trkpt lat="45.9083040" lon="10.3384330">
	<ele>1484.20</ele>
	<time>2025-04-29T09:45:47.000Z</time>
</trkpt>
<trkpt lat="45.9083110" lon="10.3384240">
	<ele>1484.00</ele>
	<time>2025-04-29T09:45:48.000Z</time>
</trkpt>
<trkpt lat="45.9083200" lon="10.3384230">
	<ele>1483.60</ele>
	<time>2025-04-29T09:45:49.000Z</time>
</trkpt>
<trkpt lat="45.9083340" lon="10.3384250">
	<ele>1483.40</ele>
	<time>2025-04-29T09:45:50.000Z</time>
</trkpt>
<trkpt lat="45.9083410" lon="10.3384230">
	<ele>1483.00</ele>
	<time>2025-04-29T09:45:51.000Z</time>
</trkpt>
<trkpt lat="45.9083470" lon="10.3384300">
	<ele>1482.80</ele>
	<time>2025-04-29T09:45:52.000Z</time>
</trkpt>
<trkpt lat="45.9083510" lon="10.3384470">
	<ele>1482.60</ele>
	<time>2025-04-29T09:45:53.000Z</time>
</trkpt>
<trkpt lat="45.9083570" lon="10.3384450">
	<ele>1482.20</ele>
	<time>2025-04-29T09:45:54.000Z</time>
</trkpt>
<trkpt lat="45.9083630" lon="10.3384370">
	<ele>1482.00</ele>
	<time>2025-04-29T09:45:55.000Z</time>
</trkpt>
<trkpt lat="45.9083760" lon="10.3384320">
	<ele>1481.80</ele>
	<time>2025-04-29T09:45:56.000Z</time>
</trkpt>
<trkpt lat="45.9083850" lon="10.3384180">
	<ele>1481.60</ele>
	<time>2025-04-29T09:45:57.000Z</time>
</trkpt>
<trkpt lat="45.9084050" lon="10.3384140">
	<ele>1481.40</ele>
	<time>2025-04-29T09:45:58.000Z</time>
</trkpt>
<trkpt lat="45.9084190" lon="10.3384090">
	<ele>1481.20</ele>
	<time>2025-04-29T09:45:59.000Z</time>
</trkpt>
<trkpt lat="45.9084380" lon="10.3384090">
	<ele>1480.80</ele>
	<time>2025-04-29T09:46:00.000Z</time>
</trkpt>
<trkpt lat="45.9084520" lon="10.3384150">
	<ele>1480.60</ele>
	<time>2025-04-29T09:46:01.000Z</time>
</trkpt>
<trkpt lat="45.9084770" lon="10.3384190">
	<ele>1480.20</ele>
	<time>2025-04-29T09:46:02.000Z</time>
</trkpt>
<trkpt lat="45.9084950" lon="10.3384230">
	<ele>1480.00</ele>
	<time>2025-04-29T09:46:03.000Z</time>
</trkpt>
<trkpt lat="45.9085150" lon="10.3384230">
	<ele>1479.80</ele>
	<time>2025-04-29T09:46:04.000Z</time>
</trkpt>
<trkpt lat="45.9085270" lon="10.3384290">
	<ele>1479.80</ele>
	<time>2025-04-29T09:46:05.000Z</time>
</trkpt>
<trkpt lat="45.9085350" lon="10.3384400">
	<ele>1479.60</ele>
	<time>2025-04-29T09:46:06.000Z</time>
</trkpt>
<trkpt lat="45.9085440" lon="10.3384400">
	<ele>1479.40</ele>
	<time>2025-04-29T09:46:07.000Z</time>
</trkpt>
<trkpt lat="45.9085470" lon="10.3384390">
	<ele>1478.80</ele>
	<time>2025-04-29T09:46:08.000Z</time>
</trkpt>
<trkpt lat="45.9085450" lon="10.3384430">
	<ele>1478.60</ele>
	<time>2025-04-29T09:46:09.000Z</time>
</trkpt>
<trkpt lat="45.9085460" lon="10.3384370">
	<ele>1478.40</ele>
	<time>2025-04-29T09:46:10.000Z</time>
</trkpt>
<trkpt lat="45.9085500" lon="10.3384250">
	<ele>1478.20</ele>
	<time>2025-04-29T09:46:11.000Z</time>
</trkpt>
<trkpt lat="45.9085500" lon="10.3384230">
	<ele>1478.00</ele>
	<time>2025-04-29T09:46:12.000Z</time>
</trkpt>
<trkpt lat="45.9085560" lon="10.3384180">
	<ele>1477.60</ele>
	<time>2025-04-29T09:46:13.000Z</time>
</trkpt>
<trkpt lat="45.9085630" lon="10.3384050">
	<ele>1477.40</ele>
	<time>2025-04-29T09:46:14.000Z</time>
</trkpt>
<trkpt lat="45.9085720" lon="10.3384000">
	<ele>1477.20</ele>
	<time>2025-04-29T09:46:15.000Z</time>
</trkpt>
<trkpt lat="45.9085820" lon="10.3383970">
	<ele>1477.00</ele>
	<time>2025-04-29T09:46:16.000Z</time>
</trkpt>
<trkpt lat="45.9085930" lon="10.3383890">
	<ele>1477.00</ele>
	<time>2025-04-29T09:46:17.000Z</time>
</trkpt>
<trkpt lat="45.9085970" lon="10.3383760">
	<ele>1477.00</ele>
	<time>2025-04-29T09:46:18.000Z</time>
</trkpt>
<trkpt lat="45.9086080" lon="10.3383690">
	<ele>1476.80</ele>
	<time>2025-04-29T09:46:19.000Z</time>
</trkpt>
<trkpt lat="45.9086110" lon="10.3383670">
	<ele>1476.60</ele>
	<time>2025-04-29T09:46:20.000Z</time>
</trkpt>
<trkpt lat="45.9086230" lon="10.3383630">
	<ele>1476.40</ele>
	<time>2025-04-29T09:46:21.000Z</time>
</trkpt>
<trkpt lat="45.9086260" lon="10.3383600">
	<ele>1476.40</ele>
	<time>2025-04-29T09:46:22.000Z</time>
</trkpt>
<trkpt lat="45.9086260" lon="10.3383560">
	<ele>1476.20</ele>
	<time>2025-04-29T09:46:23.000Z</time>
</trkpt>
<trkpt lat="45.9086240" lon="10.3383560">
	<ele>1475.80</ele>
	<time>2025-04-29T09:46:24.000Z</time>
</trkpt>
<trkpt lat="45.9086380" lon="10.3383510">
	<ele>1475.60</ele>
	<time>2025-04-29T09:46:25.000Z</time>
</trkpt>
<trkpt lat="45.9086560" lon="10.3383480">
	<ele>1475.40</ele>
	<time>2025-04-29T09:46:26.000Z</time>
</trkpt>
<trkpt lat="45.9086590" lon="10.3383470">
	<ele>1475.20</ele>
	<time>2025-04-29T09:46:27.000Z</time>
</trkpt>
<trkpt lat="45.9086620" lon="10.3383430">
	<ele>1475.20</ele>
	<time>2025-04-29T09:46:28.000Z</time>
</trkpt>
<trkpt lat="45.9086640" lon="10.3383410">
	<ele>1475.20</ele>
	<time>2025-04-29T09:46:29.000Z</time>
</trkpt>
<trkpt lat="45.9086660" lon="10.3383400">
	<ele>1475.00</ele>
	<time>2025-04-29T09:46:30.000Z</time>
</trkpt>
<trkpt lat="45.9086880" lon="10.3383510">
	<ele>1474.80</ele>
	<time>2025-04-29T09:46:31.000Z</time>
</trkpt>
<trkpt lat="45.9086890" lon="10.3383510">
	<ele>1474.80</ele>
	<time>2025-04-29T09:46:32.000Z</time>
</trkpt>
<trkpt lat="45.9086960" lon="10.3383510">
	<ele>1474.60</ele>
	<time>2025-04-29T09:46:33.000Z</time>
</trkpt>
<trkpt lat="45.9086750" lon="10.3383420">
	<ele>1474.60</ele>
	<time>2025-04-29T09:46:34.000Z</time>
</trkpt>
<trkpt lat="45.9086510" lon="10.3383140">
	<ele>1474.60</ele>
	<time>2025-04-29T09:46:35.000Z</time>
</trkpt>
<trkpt lat="45.9086460" lon="10.3383020">
	<ele>1474.60</ele>
	<time>2025-04-29T09:46:36.000Z</time>
</trkpt>
<trkpt lat="45.9086500" lon="10.3383140">
	<ele>1474.60</ele>
	<time>2025-04-29T09:46:37.000Z</time>
</trkpt>
<trkpt lat="45.9086540" lon="10.3383170">
	<ele>1474.60</ele>
	<time>2025-04-29T09:46:38.000Z</time>
</trkpt>
<trkpt lat="45.9086590" lon="10.3383210">
	<ele>1474.60</ele>
	<time>2025-04-29T09:46:39.000Z</time>
</trkpt>
<trkpt lat="45.9086600" lon="10.3383260">
	<ele>1474.60</ele>
	<time>2025-04-29T09:46:40.000Z</time>
</trkpt>
<trkpt lat="45.9086680" lon="10.3383170">
	<ele>1474.60</ele>
	<time>2025-04-29T09:46:41.000Z</time>
</trkpt>
<trkpt lat="45.9086800" lon="10.3383090">
	<ele>1474.40</ele>
	<time>2025-04-29T09:46:42.000Z</time>
</trkpt>
<trkpt lat="45.9087010" lon="10.3383060">
	<ele>1474.40</ele>
	<time>2025-04-29T09:46:43.000Z</time>
</trkpt>
<trkpt lat="45.9087230" lon="10.3383090">
	<ele>1474.40</ele>
	<time>2025-04-29T09:46:44.000Z</time>
</trkpt>
<trkpt lat="45.9087390" lon="10.3383030">
	<ele>1474.40</ele>
	<time>2025-04-29T09:46:45.000Z</time>
</trkpt>
<trkpt lat="45.9087400" lon="10.3382970">
	<ele>1474.20</ele>
	<time>2025-04-29T09:46:46.000Z</time>
</trkpt>
<trkpt lat="45.9087490" lon="10.3382880">
	<ele>1474.00</ele>
	<time>2025-04-29T09:46:47.000Z</time>
</trkpt>
<trkpt lat="45.9087530" lon="10.3382810">
	<ele>1473.80</ele>
	<time>2025-04-29T09:46:48.000Z</time>
</trkpt>
<trkpt lat="45.9087610" lon="10.3382630">
	<ele>1473.60</ele>
	<time>2025-04-29T09:46:49.000Z</time>
</trkpt>
<trkpt lat="45.9087670" lon="10.3382480">
	<ele>1473.40</ele>
	<time>2025-04-29T09:46:50.000Z</time>
</trkpt>
<trkpt lat="45.9087650" lon="10.3382460">
	<ele>1473.40</ele>
	<time>2025-04-29T09:46:51.000Z</time>
</trkpt>
<trkpt lat="45.9087640" lon="10.3382430">
	<ele>1473.20</ele>
	<time>2025-04-29T09:46:52.000Z</time>
</trkpt>
<trkpt lat="45.9087770" lon="10.3382240">
	<ele>1473.20</ele>
	<time>2025-04-29T09:46:53.000Z</time>
</trkpt>
<trkpt lat="45.9087980" lon="10.3382070">
	<ele>1473.20</ele>
	<time>2025-04-29T09:46:54.000Z</time>
</trkpt>
<trkpt lat="45.9088220" lon="10.3381890">
	<ele>1473.00</ele>
	<time>2025-04-29T09:46:55.000Z</time>
</trkpt>
<trkpt lat="45.9088470" lon="10.3381830">
	<ele>1473.00</ele>
	<time>2025-04-29T09:46:56.000Z</time>
</trkpt>
<trkpt lat="45.9088710" lon="10.3381720">
	<ele>1473.00</ele>
	<time>2025-04-29T09:46:57.000Z</time>
</trkpt>
<trkpt lat="45.9088810" lon="10.3381510">
	<ele>1473.00</ele>
	<time>2025-04-29T09:46:58.000Z</time>
</trkpt>
<trkpt lat="45.9088920" lon="10.3381260">
	<ele>1472.80</ele>
	<time>2025-04-29T09:46:59.000Z</time>
</trkpt>
<trkpt lat="45.9089130" lon="10.3381170">
	<ele>1472.80</ele>
	<time>2025-04-29T09:47:00.000Z</time>
</trkpt>
<trkpt lat="45.9089410" lon="10.3381140">
	<ele>1472.60</ele>
	<time>2025-04-29T09:47:01.000Z</time>
</trkpt>
<trkpt lat="45.9089760" lon="10.3381050">
	<ele>1472.60</ele>
	<time>2025-04-29T09:47:02.000Z</time>
</trkpt>
<trkpt lat="45.9090040" lon="10.3380870">
	<ele>1472.60</ele>
	<time>2025-04-29T09:47:03.000Z</time>
</trkpt>
<trkpt lat="45.9090300" lon="10.3380580">
	<ele>1472.60</ele>
	<time>2025-04-29T09:47:04.000Z</time>
</trkpt>
<trkpt lat="45.9090500" lon="10.3380320">
	<ele>1472.60</ele>
	<time>2025-04-29T09:47:05.000Z</time>
</trkpt>
<trkpt lat="45.9090780" lon="10.3380130">
	<ele>1472.60</ele>
	<time>2025-04-29T09:47:06.000Z</time>
</trkpt>
<trkpt lat="45.9091110" lon="10.3380060">
	<ele>1472.60</ele>
	<time>2025-04-29T09:47:07.000Z</time>
</trkpt>
<trkpt lat="45.9091310" lon="10.3379960">
	<ele>1472.40</ele>
	<time>2025-04-29T09:47:08.000Z</time>
</trkpt>
<trkpt lat="45.9091500" lon="10.3379810">
	<ele>1472.40</ele>
	<time>2025-04-29T09:47:09.000Z</time>
</trkpt>
<trkpt lat="45.9091640" lon="10.3379610">
	<ele>1472.20</ele>
	<time>2025-04-29T09:47:10.000Z</time>
</trkpt>
<trkpt lat="45.9091780" lon="10.3379410">
	<ele>1472.00</ele>
	<time>2025-04-29T09:47:11.000Z</time>
</trkpt>
<trkpt lat="45.9092020" lon="10.3379290">
	<ele>1472.00</ele>
	<time>2025-04-29T09:47:12.000Z</time>
</trkpt>
<trkpt lat="45.9092290" lon="10.3379250">
	<ele>1471.80</ele>
	<time>2025-04-29T09:47:13.000Z</time>
</trkpt>
<trkpt lat="45.9092510" lon="10.3379190">
	<ele>1471.80</ele>
	<time>2025-04-29T09:47:14.000Z</time>
</trkpt>
<trkpt lat="45.9092700" lon="10.3379130">
	<ele>1471.80</ele>
	<time>2025-04-29T09:47:15.000Z</time>
</trkpt>
<trkpt lat="45.9092710" lon="10.3379050">
	<ele>1471.80</ele>
	<time>2025-04-29T09:47:16.000Z</time>
</trkpt>
<trkpt lat="45.9092740" lon="10.3379010">
	<ele>1471.60</ele>
	<time>2025-04-29T09:47:17.000Z</time>
</trkpt>
<trkpt lat="45.9092830" lon="10.3378830">
	<ele>1471.60</ele>
	<time>2025-04-29T09:47:18.000Z</time>
</trkpt>
<trkpt lat="45.9092820" lon="10.3378550">
	<ele>1471.60</ele>
	<time>2025-04-29T09:47:19.000Z</time>
</trkpt>
<trkpt lat="45.9092880" lon="10.3378320">
	<ele>1471.60</ele>
	<time>2025-04-29T09:47:20.000Z</time>
</trkpt>
<trkpt lat="45.9092910" lon="10.3378090">
	<ele>1471.60</ele>
	<time>2025-04-29T09:47:21.000Z</time>
</trkpt>
<trkpt lat="45.9093010" lon="10.3377850">
	<ele>1471.60</ele>
	<time>2025-04-29T09:47:22.000Z</time>
</trkpt>
<trkpt lat="45.9093240" lon="10.3377780">
	<ele>1471.40</ele>
	<time>2025-04-29T09:47:23.000Z</time>
</trkpt>
<trkpt lat="45.9093580" lon="10.3377720">
	<ele>1471.20</ele>
	<time>2025-04-29T09:47:24.000Z</time>
</trkpt>
<trkpt lat="45.9093860" lon="10.3377710">
	<ele>1471.20</ele>
	<time>2025-04-29T09:47:25.000Z</time>
</trkpt>
<trkpt lat="45.9094120" lon="10.3377650">
	<ele>1471.20</ele>
	<time>2025-04-29T09:47:26.000Z</time>
</trkpt>
<trkpt lat="45.9094310" lon="10.3377520">
	<ele>1471.00</ele>
	<time>2025-04-29T09:47:27.000Z</time>
</trkpt>
<trkpt lat="45.9094570" lon="10.3377160">
	<ele>1470.80</ele>
	<time>2025-04-29T09:47:28.000Z</time>
</trkpt>
<trkpt lat="45.9094820" lon="10.3376900">
	<ele>1470.60</ele>
	<time>2025-04-29T09:47:29.000Z</time>
</trkpt>
<trkpt lat="45.9094880" lon="10.3376850">
	<ele>1470.20</ele>
	<time>2025-04-29T09:47:30.000Z</time>
</trkpt>
<trkpt lat="45.9095100" lon="10.3376590">
	<ele>1470.00</ele>
	<time>2025-04-29T09:47:31.000Z</time>
</trkpt>
<trkpt lat="45.9095150" lon="10.3376520">
	<ele>1469.80</ele>
	<time>2025-04-29T09:47:32.000Z</time>
</trkpt>
<trkpt lat="45.9095240" lon="10.3376360">
	<ele>1469.60</ele>
	<time>2025-04-29T09:47:33.000Z</time>
</trkpt>
<trkpt lat="45.9095330" lon="10.3376120">
	<ele>1469.40</ele>
	<time>2025-04-29T09:47:34.000Z</time>
</trkpt>
<trkpt lat="45.9095320" lon="10.3375810">
	<ele>1469.40</ele>
	<time>2025-04-29T09:47:35.000Z</time>
</trkpt>
<trkpt lat="45.9095320" lon="10.3375580">
	<ele>1469.20</ele>
	<time>2025-04-29T09:47:36.000Z</time>
</trkpt>
<trkpt lat="45.9095370" lon="10.3375510">
	<ele>1469.20</ele>
	<time>2025-04-29T09:47:37.000Z</time>
</trkpt>
<trkpt lat="45.9095450" lon="10.3375480">
	<ele>1469.00</ele>
	<time>2025-04-29T09:47:38.000Z</time>
</trkpt>
<trkpt lat="45.9095630" lon="10.3375470">
	<ele>1469.00</ele>
	<time>2025-04-29T09:47:39.000Z</time>
</trkpt>
<trkpt lat="45.9095930" lon="10.3375530">
	<ele>1468.80</ele>
	<time>2025-04-29T09:47:40.000Z</time>
</trkpt>
<trkpt lat="45.9096120" lon="10.3375370">
	<ele>1468.80</ele>
	<time>2025-04-29T09:47:41.000Z</time>
</trkpt>
<trkpt lat="45.9096340" lon="10.3375250">
	<ele>1468.80</ele>
	<time>2025-04-29T09:47:42.000Z</time>
</trkpt>
<trkpt lat="45.9096440" lon="10.3375130">
	<ele>1468.60</ele>
	<time>2025-04-29T09:47:43.000Z</time>
</trkpt>
<trkpt lat="45.9096540" lon="10.3375060">
	<ele>1468.60</ele>
	<time>2025-04-29T09:47:44.000Z</time>
</trkpt>
<trkpt lat="45.9096670" lon="10.3375060">
	<ele>1468.60</ele>
	<time>2025-04-29T09:47:45.000Z</time>
</trkpt>
<trkpt lat="45.9096770" lon="10.3375000">
	<ele>1468.60</ele>
	<time>2025-04-29T09:47:46.000Z</time>
</trkpt>
<trkpt lat="45.9096850" lon="10.3374790">
	<ele>1468.60</ele>
	<time>2025-04-29T09:47:47.000Z</time>
</trkpt>
<trkpt lat="45.9096960" lon="10.3374670">
	<ele>1468.60</ele>
	<time>2025-04-29T09:47:48.000Z</time>
</trkpt>
<trkpt lat="45.9097070" lon="10.3374540">
	<ele>1468.60</ele>
	<time>2025-04-29T09:47:49.000Z</time>
</trkpt>
<trkpt lat="45.9097230" lon="10.3374460">
	<ele>1468.60</ele>
	<time>2025-04-29T09:47:50.000Z</time>
</trkpt>
<trkpt lat="45.9097300" lon="10.3374410">
	<ele>1468.60</ele>
	<time>2025-04-29T09:47:51.000Z</time>
</trkpt>
<trkpt lat="45.9097360" lon="10.3374210">
	<ele>1468.40</ele>
	<time>2025-04-29T09:47:52.000Z</time>
</trkpt>
<trkpt lat="45.9097300" lon="10.3373960">
	<ele>1468.40</ele>
	<time>2025-04-29T09:47:53.000Z</time>
</trkpt>
<trkpt lat="45.9097310" lon="10.3373870">
	<ele>1468.40</ele>
	<time>2025-04-29T09:47:54.000Z</time>
</trkpt>
<trkpt lat="45.9097310" lon="10.3373700">
	<ele>1468.20</ele>
	<time>2025-04-29T09:47:55.000Z</time>
</trkpt>
<trkpt lat="45.9097270" lon="10.3373540">
	<ele>1468.20</ele>
	<time>2025-04-29T09:47:56.000Z</time>
</trkpt>
<trkpt lat="45.9097420" lon="10.3373380">
	<ele>1468.20</ele>
	<time>2025-04-29T09:47:57.000Z</time>
</trkpt>
<trkpt lat="45.9097560" lon="10.3373260">
	<ele>1468.00</ele>
	<time>2025-04-29T09:47:58.000Z</time>
</trkpt>
<trkpt lat="45.9097550" lon="10.3373220">
	<ele>1468.00</ele>
	<time>2025-04-29T09:47:59.000Z</time>
</trkpt>
<trkpt lat="45.9097650" lon="10.3373250">
	<ele>1468.00</ele>
	<time>2025-04-29T09:48:00.000Z</time>
</trkpt>
<trkpt lat="45.9097710" lon="10.3373250">
	<ele>1467.80</ele>
	<time>2025-04-29T09:48:01.000Z</time>
</trkpt>
<trkpt lat="45.9097830" lon="10.3373320">
	<ele>1467.60</ele>
	<time>2025-04-29T09:48:02.000Z</time>
</trkpt>
<trkpt lat="45.9097920" lon="10.3373390">
	<ele>1467.60</ele>
	<time>2025-04-29T09:48:03.000Z</time>
</trkpt>
<trkpt lat="45.9098040" lon="10.3373460">
	<ele>1467.60</ele>
	<time>2025-04-29T09:48:04.000Z</time>
</trkpt>
<trkpt lat="45.9098100" lon="10.3373550">
	<ele>1467.60</ele>
	<time>2025-04-29T09:48:05.000Z</time>
</trkpt>
<trkpt lat="45.9098130" lon="10.3373570">
	<ele>1467.60</ele>
	<time>2025-04-29T09:48:06.000Z</time>
</trkpt>
<trkpt lat="45.9098210" lon="10.3373540">
	<ele>1467.60</ele>
	<time>2025-04-29T09:48:07.000Z</time>
</trkpt>
<trkpt lat="45.9098290" lon="10.3373540">
	<ele>1467.40</ele>
	<time>2025-04-29T09:48:08.000Z</time>
</trkpt>
<trkpt lat="45.9098350" lon="10.3373620">
	<ele>1467.40</ele>
	<time>2025-04-29T09:48:09.000Z</time>
</trkpt>
<trkpt lat="45.9098390" lon="10.3374060">
	<ele>1467.40</ele>
	<time>2025-04-29T09:48:10.000Z</time>
</trkpt>
<trkpt lat="45.9098410" lon="10.3374200">
	<ele>1467.40</ele>
	<time>2025-04-29T09:48:11.000Z</time>
</trkpt>
<trkpt lat="45.9098420" lon="10.3374320">
	<ele>1467.40</ele>
	<time>2025-04-29T09:48:12.000Z</time>
</trkpt>
<trkpt lat="45.9098410" lon="10.3374390">
	<ele>1467.40</ele>
	<time>2025-04-29T09:48:13.000Z</time>
</trkpt>
<trkpt lat="45.9098410" lon="10.3374620">
	<ele>1467.40</ele>
	<time>2025-04-29T09:48:14.000Z</time>
</trkpt>
<trkpt lat="45.9098430" lon="10.3374490">
	<ele>1467.40</ele>
	<time>2025-04-29T09:48:15.000Z</time>
</trkpt>
<trkpt lat="45.9098440" lon="10.3374600">
	<ele>1467.40</ele>
	<time>2025-04-29T09:48:16.000Z</time>
</trkpt>
<trkpt lat="45.9098410" lon="10.3374670">
	<ele>1467.40</ele>
	<time>2025-04-29T09:48:17.000Z</time>
</trkpt>
<trkpt lat="45.9098410" lon="10.3374690">
	<ele>1467.40</ele>
	<time>2025-04-29T09:48:18.000Z</time>
</trkpt>
<trkpt lat="45.9098430" lon="10.3374710">
	<ele>1467.40</ele>
	<time>2025-04-29T09:48:19.000Z</time>
</trkpt>
<trkpt lat="45.9098480" lon="10.3374730">
	<ele>1467.20</ele>
	<time>2025-04-29T09:48:20.000Z</time>
</trkpt>
<trkpt lat="45.9098460" lon="10.3374820">
	<ele>1467.20</ele>
	<time>2025-04-29T09:48:21.000Z</time>
</trkpt>
<trkpt lat="45.9098430" lon="10.3374790">
	<ele>1467.20</ele>
	<time>2025-04-29T09:48:22.000Z</time>
</trkpt>
<trkpt lat="45.9098450" lon="10.3374940">
	<ele>1467.20</ele>
	<time>2025-04-29T09:48:23.000Z</time>
</trkpt>
<trkpt lat="45.9098420" lon="10.3375000">
	<ele>1467.20</ele>
	<time>2025-04-29T09:48:24.000Z</time>
</trkpt>
<trkpt lat="45.9098420" lon="10.3375000">
	<ele>1467.20</ele>
	<time>2025-04-29T09:48:25.000Z</time>
</trkpt>
<trkpt lat="45.9098570" lon="10.3374970">
	<ele>1467.20</ele>
	<time>2025-04-29T09:48:26.000Z</time>
</trkpt>
<trkpt lat="45.9098480" lon="10.3374890">
	<ele>1467.20</ele>
	<time>2025-04-29T09:48:27.000Z</time>
</trkpt>
<trkpt lat="45.9098450" lon="10.3374720">
	<ele>1467.20</ele>
	<time>2025-04-29T09:48:28.000Z</time>
</trkpt>
<trkpt lat="45.9098410" lon="10.3374510">
	<ele>1467.20</ele>
	<time>2025-04-29T09:48:29.000Z</time>
</trkpt>
<trkpt lat="45.9098460" lon="10.3374490">
	<ele>1467.20</ele>
	<time>2025-04-29T09:48:30.000Z</time>
</trkpt>
<trkpt lat="45.9098430" lon="10.3374340">
	<ele>1467.00</ele>
	<time>2025-04-29T09:48:31.000Z</time>
</trkpt>
<trkpt lat="45.9098380" lon="10.3374180">
	<ele>1467.00</ele>
	<time>2025-04-29T09:48:32.000Z</time>
</trkpt>
<trkpt lat="45.9098360" lon="10.3374040">
	<ele>1467.00</ele>
	<time>2025-04-29T09:48:33.000Z</time>
</trkpt>
<trkpt lat="45.9098340" lon="10.3373880">
	<ele>1467.00</ele>
	<time>2025-04-29T09:48:34.000Z</time>
</trkpt>
<trkpt lat="45.9098340" lon="10.3373730">
	<ele>1467.00</ele>
	<time>2025-04-29T09:48:35.000Z</time>
</trkpt>
<trkpt lat="45.9098300" lon="10.3373500">
	<ele>1467.00</ele>
	<time>2025-04-29T09:48:36.000Z</time>
</trkpt>
<trkpt lat="45.9098320" lon="10.3373260">
	<ele>1467.00</ele>
	<time>2025-04-29T09:48:37.000Z</time>
</trkpt>
<trkpt lat="45.9098600" lon="10.3373260">
	<ele>1467.00</ele>
	<time>2025-04-29T09:48:38.000Z</time>
</trkpt>
<trkpt lat="45.9098770" lon="10.3373210">
	<ele>1467.00</ele>
	<time>2025-04-29T09:48:39.000Z</time>
</trkpt>
<trkpt lat="45.9098810" lon="10.3373230">
	<ele>1467.00</ele>
	<time>2025-04-29T09:48:40.000Z</time>
</trkpt>
<trkpt lat="45.9098910" lon="10.3373220">
	<ele>1467.00</ele>
	<time>2025-04-29T09:48:41.000Z</time>
</trkpt>
<trkpt lat="45.9099000" lon="10.3373160">
	<ele>1467.00</ele>
	<time>2025-04-29T09:48:42.000Z</time>
</trkpt>
<trkpt lat="45.9099230" lon="10.3373380">
	<ele>1467.20</ele>
	<time>2025-04-29T09:48:43.000Z</time>
</trkpt>
<trkpt lat="45.9099350" lon="10.3373430">
	<ele>1467.40</ele>
	<time>2025-04-29T09:48:44.000Z</time>
</trkpt>
<trkpt lat="45.9099460" lon="10.3373500">
	<ele>1467.60</ele>
	<time>2025-04-29T09:48:45.000Z</time>
</trkpt>
<trkpt lat="45.9099590" lon="10.3373360">
	<ele>1467.60</ele>
	<time>2025-04-29T09:48:46.000Z</time>
</trkpt>
<trkpt lat="45.9099700" lon="10.3373250">
	<ele>1467.80</ele>
	<time>2025-04-29T09:48:47.000Z</time>
</trkpt>
<trkpt lat="45.9099740" lon="10.3373210">
	<ele>1467.80</ele>
	<time>2025-04-29T09:48:48.000Z</time>
</trkpt>
<trkpt lat="45.9099720" lon="10.3373220">
	<ele>1467.80</ele>
	<time>2025-04-29T09:48:49.000Z</time>
</trkpt>
<trkpt lat="45.9099660" lon="10.3373220">
	<ele>1468.00</ele>
	<time>2025-04-29T09:48:50.000Z</time>
</trkpt>
<trkpt lat="45.9099580" lon="10.3373190">
	<ele>1468.00</ele>
	<time>2025-04-29T09:48:51.000Z</time>
</trkpt>
<trkpt lat="45.9099480" lon="10.3373220">
	<ele>1468.00</ele>
	<time>2025-04-29T09:48:52.000Z</time>
</trkpt>
<trkpt lat="45.9099450" lon="10.3373270">
	<ele>1468.00</ele>
	<time>2025-04-29T09:48:53.000Z</time>
</trkpt>
<trkpt lat="45.9099370" lon="10.3373220">
	<ele>1468.00</ele>
	<time>2025-04-29T09:48:54.000Z</time>
</trkpt>
<trkpt lat="45.9099350" lon="10.3373260">
	<ele>1468.00</ele>
	<time>2025-04-29T09:48:55.000Z</time>
</trkpt>
<trkpt lat="45.9099350" lon="10.3373380">
	<ele>1468.00</ele>
	<time>2025-04-29T09:48:56.000Z</time>
</trkpt>
<trkpt lat="45.9099410" lon="10.3373570">
	<ele>1468.00</ele>
	<time>2025-04-29T09:48:57.000Z</time>
</trkpt>
<trkpt lat="45.9099410" lon="10.3373660">
	<ele>1468.00</ele>
	<time>2025-04-29T09:48:58.000Z</time>
</trkpt>
<trkpt lat="45.9099430" lon="10.3373620">
	<ele>1468.00</ele>
	<time>2025-04-29T09:48:59.000Z</time>
</trkpt>
<trkpt lat="45.9099390" lon="10.3373620">
	<ele>1468.00</ele>
	<time>2025-04-29T09:49:00.000Z</time>
</trkpt>
<trkpt lat="45.9099330" lon="10.3373640">
	<ele>1467.80</ele>
	<time>2025-04-29T09:49:01.000Z</time>
</trkpt>
<trkpt lat="45.9099220" lon="10.3373770">
	<ele>1467.80</ele>
	<time>2025-04-29T09:49:02.000Z</time>
</trkpt>
<trkpt lat="45.9099050" lon="10.3373740">
	<ele>1467.60</ele>
	<time>2025-04-29T09:49:03.000Z</time>
</trkpt>
<trkpt lat="45.9098930" lon="10.3373570">
	<ele>1467.60</ele>
	<time>2025-04-29T09:49:04.000Z</time>
</trkpt>
<trkpt lat="45.9098890" lon="10.3373570">
	<ele>1467.20</ele>
	<time>2025-04-29T09:49:05.000Z</time>
</trkpt>
<trkpt lat="45.9098930" lon="10.3373590">
	<ele>1467.20</ele>
	<time>2025-04-29T09:49:06.000Z</time>
</trkpt>
<trkpt lat="45.9099010" lon="10.3373670">
	<ele>1467.00</ele>
	<time>2025-04-29T09:49:07.000Z</time>
</trkpt>
<trkpt lat="45.9099030" lon="10.3373670">
	<ele>1467.00</ele>
	<time>2025-04-29T09:49:08.000Z</time>
</trkpt>
<trkpt lat="45.9098990" lon="10.3373660">
	<ele>1467.00</ele>
	<time>2025-04-29T09:49:09.000Z</time>
</trkpt>
<trkpt lat="45.9098970" lon="10.3373630">
	<ele>1466.80</ele>
	<time>2025-04-29T09:49:10.000Z</time>
</trkpt>
<trkpt lat="45.9099040" lon="10.3373470">
	<ele>1467.00</ele>
	<time>2025-04-29T09:49:11.000Z</time>
</trkpt>
<trkpt lat="45.9099130" lon="10.3373420">
	<ele>1467.20</ele>
	<time>2025-04-29T09:49:12.000Z</time>
</trkpt>
<trkpt lat="45.9099190" lon="10.3373410">
	<ele>1467.20</ele>
	<time>2025-04-29T09:49:13.000Z</time>
</trkpt>
<trkpt lat="45.9099220" lon="10.3373400">
	<ele>1467.20</ele>
	<time>2025-04-29T09:49:14.000Z</time>
</trkpt>
<trkpt lat="45.9099380" lon="10.3373340">
	<ele>1467.20</ele>
	<time>2025-04-29T09:49:15.000Z</time>
</trkpt>
<trkpt lat="45.9099420" lon="10.3373350">
	<ele>1467.20</ele>
	<time>2025-04-29T09:49:16.000Z</time>
</trkpt>
<trkpt lat="45.9099540" lon="10.3373370">
	<ele>1467.40</ele>
	<time>2025-04-29T09:49:17.000Z</time>
</trkpt>
<trkpt lat="45.9099650" lon="10.3373270">
	<ele>1467.80</ele>
	<time>2025-04-29T09:49:18.000Z</time>
</trkpt>
<trkpt lat="45.9099710" lon="10.3373330">
	<ele>1467.80</ele>
	<time>2025-04-29T09:49:19.000Z</time>
</trkpt>
<trkpt lat="45.9099860" lon="10.3373290">
	<ele>1468.20</ele>
	<time>2025-04-29T09:49:20.000Z</time>
</trkpt>
<trkpt lat="45.9099800" lon="10.3373200">
	<ele>1468.20</ele>
	<time>2025-04-29T09:49:21.000Z</time>
</trkpt>
<trkpt lat="45.9099790" lon="10.3373150">
	<ele>1468.40</ele>
	<time>2025-04-29T09:49:22.000Z</time>
</trkpt>
<trkpt lat="45.9099870" lon="10.3373180">
	<ele>1468.40</ele>
	<time>2025-04-29T09:49:23.000Z</time>
</trkpt>
<trkpt lat="45.9099950" lon="10.3373180">
	<ele>1468.40</ele>
	<time>2025-04-29T09:49:24.000Z</time>
</trkpt>
<trkpt lat="45.9100050" lon="10.3373180">
	<ele>1468.60</ele>
	<time>2025-04-29T09:49:25.000Z</time>
</trkpt>
<trkpt lat="45.9100170" lon="10.3373060">
	<ele>1468.80</ele>
	<time>2025-04-29T09:49:26.000Z</time>
</trkpt>
<trkpt lat="45.9100250" lon="10.3373060">
	<ele>1469.00</ele>
	<time>2025-04-29T09:49:27.000Z</time>
</trkpt>
<trkpt lat="45.9100290" lon="10.3373070">
	<ele>1469.20</ele>
	<time>2025-04-29T09:49:28.000Z</time>
</trkpt>
<trkpt lat="45.9100290" lon="10.3373060">
	<ele>1469.20</ele>
	<time>2025-04-29T09:49:29.000Z</time>
</trkpt>
<trkpt lat="45.9100380" lon="10.3373100">
	<ele>1469.40</ele>
	<time>2025-04-29T09:49:30.000Z</time>
</trkpt>
<trkpt lat="45.9100490" lon="10.3373180">
	<ele>1469.40</ele>
	<time>2025-04-29T09:49:31.000Z</time>
</trkpt>
<trkpt lat="45.9100490" lon="10.3373180">
	<ele>1469.60</ele>
	<time>2025-04-29T09:49:32.000Z</time>
</trkpt>
<trkpt lat="45.9100610" lon="10.3373190">
	<ele>1469.60</ele>
	<time>2025-04-29T09:49:33.000Z</time>
</trkpt>
<trkpt lat="45.9100700" lon="10.3373140">
	<ele>1469.60</ele>
	<time>2025-04-29T09:49:34.000Z</time>
</trkpt>
<trkpt lat="45.9100800" lon="10.3372920">
	<ele>1469.60</ele>
	<time>2025-04-29T09:49:35.000Z</time>
</trkpt>
<trkpt lat="45.9100910" lon="10.3372750">
	<ele>1469.60</ele>
	<time>2025-04-29T09:49:36.000Z</time>
</trkpt>
<trkpt lat="45.9101060" lon="10.3372450">
	<ele>1469.40</ele>
	<time>2025-04-29T09:49:37.000Z</time>
</trkpt>
<trkpt lat="45.9101210" lon="10.3372240">
	<ele>1469.40</ele>
	<time>2025-04-29T09:49:38.000Z</time>
</trkpt>
<trkpt lat="45.9101270" lon="10.3371950">
	<ele>1469.40</ele>
	<time>2025-04-29T09:49:39.000Z</time>
</trkpt>
<trkpt lat="45.9101270" lon="10.3371820">
	<ele>1469.40</ele>
	<time>2025-04-29T09:49:40.000Z</time>
</trkpt>
<trkpt lat="45.9101280" lon="10.3371750">
	<ele>1469.40</ele>
	<time>2025-04-29T09:49:41.000Z</time>
</trkpt>
<trkpt lat="45.9101400" lon="10.3371820">
	<ele>1469.60</ele>
	<time>2025-04-29T09:49:42.000Z</time>
</trkpt>
<trkpt lat="45.9101460" lon="10.3371880">
	<ele>1469.80</ele>
	<time>2025-04-29T09:49:43.000Z</time>
</trkpt>
<trkpt lat="45.9101460" lon="10.3371840">
	<ele>1469.80</ele>
	<time>2025-04-29T09:49:44.000Z</time>
</trkpt>
<trkpt lat="45.9101590" lon="10.3371720">
	<ele>1469.80</ele>
	<time>2025-04-29T09:49:45.000Z</time>
</trkpt>
<trkpt lat="45.9101680" lon="10.3371590">
	<ele>1469.80</ele>
	<time>2025-04-29T09:49:46.000Z</time>
</trkpt>
<trkpt lat="45.9101720" lon="10.3371540">
	<ele>1470.00</ele>
	<time>2025-04-29T09:49:47.000Z</time>
</trkpt>
<trkpt lat="45.9101730" lon="10.3371540">
	<ele>1470.20</ele>
	<time>2025-04-29T09:49:48.000Z</time>
</trkpt>
<trkpt lat="45.9101700" lon="10.3371550">
	<ele>1470.20</ele>
	<time>2025-04-29T09:49:49.000Z</time>
</trkpt>
<trkpt lat="45.9101810" lon="10.3371490">
	<ele>1470.40</ele>
	<time>2025-04-29T09:49:50.000Z</time>
</trkpt>
<trkpt lat="45.9101850" lon="10.3371480">
	<ele>1470.40</ele>
	<time>2025-04-29T09:49:51.000Z</time>
</trkpt>
<trkpt lat="45.9101820" lon="10.3371240">
	<ele>1470.40</ele>
	<time>2025-04-29T09:49:52.000Z</time>
</trkpt>
<trkpt lat="45.9101820" lon="10.3370960">
	<ele>1470.60</ele>
	<time>2025-04-29T09:49:53.000Z</time>
</trkpt>
<trkpt lat="45.9102000" lon="10.3370620">
	<ele>1470.60</ele>
	<time>2025-04-29T09:49:54.000Z</time>
</trkpt>
<trkpt lat="45.9102120" lon="10.3370590">
	<ele>1471.00</ele>
	<time>2025-04-29T09:49:55.000Z</time>
</trkpt>
<trkpt lat="45.9102270" lon="10.3370530">
	<ele>1471.20</ele>
	<time>2025-04-29T09:49:56.000Z</time>
</trkpt>
<trkpt lat="45.9102470" lon="10.3370560">
	<ele>1471.20</ele>
	<time>2025-04-29T09:49:57.000Z</time>
</trkpt>
<trkpt lat="45.9102620" lon="10.3370530">
	<ele>1471.40</ele>
	<time>2025-04-29T09:49:58.000Z</time>
</trkpt>
<trkpt lat="45.9102740" lon="10.3370400">
	<ele>1471.40</ele>
	<time>2025-04-29T09:49:59.000Z</time>
</trkpt>
<trkpt lat="45.9102870" lon="10.3370330">
	<ele>1471.60</ele>
	<time>2025-04-29T09:50:00.000Z</time>
</trkpt>
<trkpt lat="45.9102870" lon="10.3370320">
	<ele>1471.60</ele>
	<time>2025-04-29T09:50:01.000Z</time>
</trkpt>
<trkpt lat="45.9102830" lon="10.3370320">
	<ele>1471.80</ele>
	<time>2025-04-29T09:50:02.000Z</time>
</trkpt>
<trkpt lat="45.9102820" lon="10.3370220">
	<ele>1471.60</ele>
	<time>2025-04-29T09:50:03.000Z</time>
</trkpt>
<trkpt lat="45.9102860" lon="10.3370000">
	<ele>1471.60</ele>
	<time>2025-04-29T09:50:04.000Z</time>
</trkpt>
<trkpt lat="45.9102810" lon="10.3369910">
	<ele>1471.60</ele>
	<time>2025-04-29T09:50:05.000Z</time>
</trkpt>
<trkpt lat="45.9102930" lon="10.3370030">
	<ele>1471.40</ele>
	<time>2025-04-29T09:50:06.000Z</time>
</trkpt>
<trkpt lat="45.9102970" lon="10.3370060">
	<ele>1471.40</ele>
	<time>2025-04-29T09:50:07.000Z</time>
</trkpt>
<trkpt lat="45.9102950" lon="10.3370120">
	<ele>1471.20</ele>
	<time>2025-04-29T09:50:08.000Z</time>
</trkpt>
<trkpt lat="45.9102970" lon="10.3370210">
	<ele>1471.20</ele>
	<time>2025-04-29T09:50:09.000Z</time>
</trkpt>
<trkpt lat="45.9102880" lon="10.3370310">
	<ele>1471.00</ele>
	<time>2025-04-29T09:50:10.000Z</time>
</trkpt>
<trkpt lat="45.9102800" lon="10.3370340">
	<ele>1471.00</ele>
	<time>2025-04-29T09:50:11.000Z</time>
</trkpt>
<trkpt lat="45.9102700" lon="10.3370300">
	<ele>1471.00</ele>
	<time>2025-04-29T09:50:12.000Z</time>
</trkpt>
<trkpt lat="45.9102660" lon="10.3370310">
	<ele>1471.00</ele>
	<time>2025-04-29T09:50:13.000Z</time>
</trkpt>
<trkpt lat="45.9102650" lon="10.3370290">
	<ele>1471.20</ele>
	<time>2025-04-29T09:50:14.000Z</time>
</trkpt>
<trkpt lat="45.9102730" lon="10.3370140">
	<ele>1471.40</ele>
	<time>2025-04-29T09:50:15.000Z</time>
</trkpt>
<trkpt lat="45.9102810" lon="10.3370030">
	<ele>1471.60</ele>
	<time>2025-04-29T09:50:16.000Z</time>
</trkpt>
<trkpt lat="45.9103020" lon="10.3370040">
	<ele>1471.80</ele>
	<time>2025-04-29T09:50:17.000Z</time>
</trkpt>
<trkpt lat="45.9103060" lon="10.3370070">
	<ele>1471.80</ele>
	<time>2025-04-29T09:50:18.000Z</time>
</trkpt>
<trkpt lat="45.9103180" lon="10.3370270">
	<ele>1472.00</ele>
	<time>2025-04-29T09:50:19.000Z</time>
</trkpt>
<trkpt lat="45.9103310" lon="10.3370330">
	<ele>1472.00</ele>
	<time>2025-04-29T09:50:20.000Z</time>
</trkpt>
<trkpt lat="45.9103460" lon="10.3370380">
	<ele>1472.00</ele>
	<time>2025-04-29T09:50:21.000Z</time>
</trkpt>
<trkpt lat="45.9103620" lon="10.3370420">
	<ele>1472.00</ele>
	<time>2025-04-29T09:50:22.000Z</time>
</trkpt>
<trkpt lat="45.9103640" lon="10.3370460">
	<ele>1471.80</ele>
	<time>2025-04-29T09:50:23.000Z</time>
</trkpt>
<trkpt lat="45.9103600" lon="10.3370500">
	<ele>1471.80</ele>
	<time>2025-04-29T09:50:24.000Z</time>
</trkpt>
<trkpt lat="45.9103700" lon="10.3370540">
	<ele>1471.60</ele>
	<time>2025-04-29T09:50:25.000Z</time>
</trkpt>
<trkpt lat="45.9103650" lon="10.3370450">
	<ele>1471.40</ele>
	<time>2025-04-29T09:50:26.000Z</time>
</trkpt>
<trkpt lat="45.9103580" lon="10.3370360">
	<ele>1471.00</ele>
	<time>2025-04-29T09:50:27.000Z</time>
</trkpt>
<trkpt lat="45.9103550" lon="10.3370290">
	<ele>1470.80</ele>
	<time>2025-04-29T09:50:28.000Z</time>
</trkpt>
<trkpt lat="45.9103470" lon="10.3370200">
	<ele>1470.40</ele>
	<time>2025-04-29T09:50:29.000Z</time>
</trkpt>
<trkpt lat="45.9103410" lon="10.3370240">
	<ele>1470.20</ele>
	<time>2025-04-29T09:50:30.000Z</time>
</trkpt>
<trkpt lat="45.9103310" lon="10.3370440">
	<ele>1470.00</ele>
	<time>2025-04-29T09:50:31.000Z</time>
</trkpt>
<trkpt lat="45.9103240" lon="10.3370550">
	<ele>1469.60</ele>
	<time>2025-04-29T09:50:32.000Z</time>
</trkpt>
<trkpt lat="45.9103250" lon="10.3370570">
	<ele>1469.40</ele>
	<time>2025-04-29T09:50:33.000Z</time>
</trkpt>
<trkpt lat="45.9103230" lon="10.3370680">
	<ele>1469.20</ele>
	<time>2025-04-29T09:50:34.000Z</time>
</trkpt>
<trkpt lat="45.9103290" lon="10.3370600">
	<ele>1469.20</ele>
	<time>2025-04-29T09:50:35.000Z</time>
</trkpt>
<trkpt lat="45.9103350" lon="10.3370510">
	<ele>1469.20</ele>
	<time>2025-04-29T09:50:36.000Z</time>
</trkpt>
<trkpt lat="45.9103430" lon="10.3370430">
	<ele>1469.20</ele>
	<time>2025-04-29T09:50:37.000Z</time>
</trkpt>
<trkpt lat="45.9103550" lon="10.3370350">
	<ele>1469.00</ele>
	<time>2025-04-29T09:50:38.000Z</time>
</trkpt>
<trkpt lat="45.9103980" lon="10.3370590">
	<ele>1469.00</ele>
	<time>2025-04-29T09:50:39.000Z</time>
</trkpt>
<trkpt lat="45.9104120" lon="10.3370690">
	<ele>1468.80</ele>
	<time>2025-04-29T09:50:40.000Z</time>
</trkpt>
<trkpt lat="45.9104240" lon="10.3370710">
	<ele>1468.60</ele>
	<time>2025-04-29T09:50:41.000Z</time>
</trkpt>
<trkpt lat="45.9104340" lon="10.3370750">
	<ele>1468.40</ele>
	<time>2025-04-29T09:50:42.000Z</time>
</trkpt>
<trkpt lat="45.9104400" lon="10.3370780">
	<ele>1468.20</ele>
	<time>2025-04-29T09:50:43.000Z</time>
</trkpt>
<trkpt lat="45.9104360" lon="10.3370540">
	<ele>1468.00</ele>
	<time>2025-04-29T09:50:44.000Z</time>
</trkpt>
<trkpt lat="45.9104490" lon="10.3370420">
	<ele>1467.80</ele>
	<time>2025-04-29T09:50:45.000Z</time>
</trkpt>
<trkpt lat="45.9104600" lon="10.3370330">
	<ele>1467.40</ele>
	<time>2025-04-29T09:50:46.000Z</time>
</trkpt>
<trkpt lat="45.9104720" lon="10.3370330">
	<ele>1467.20</ele>
	<time>2025-04-29T09:50:47.000Z</time>
</trkpt>
<trkpt lat="45.9104710" lon="10.3370170">
	<ele>1466.80</ele>
	<time>2025-04-29T09:50:48.000Z</time>
</trkpt>
<trkpt lat="45.9104700" lon="10.3370250">
	<ele>1466.60</ele>
	<time>2025-04-29T09:50:49.000Z</time>
</trkpt>
<trkpt lat="45.9104630" lon="10.3370400">
	<ele>1466.20</ele>
	<time>2025-04-29T09:50:50.000Z</time>
</trkpt>
<trkpt lat="45.9104520" lon="10.3370810">
	<ele>1466.00</ele>
	<time>2025-04-29T09:50:51.000Z</time>
</trkpt>
<trkpt lat="45.9104710" lon="10.3371030">
	<ele>1465.80</ele>
	<time>2025-04-29T09:50:52.000Z</time>
</trkpt>
<trkpt lat="45.9104860" lon="10.3371200">
	<ele>1465.20</ele>
	<time>2025-04-29T09:50:53.000Z</time>
</trkpt>
<trkpt lat="45.9104870" lon="10.3371270">
	<ele>1465.00</ele>
	<time>2025-04-29T09:50:54.000Z</time>
</trkpt>
<trkpt lat="45.9105050" lon="10.3371240">
	<ele>1464.80</ele>
	<time>2025-04-29T09:50:55.000Z</time>
</trkpt>
<trkpt lat="45.9105070" lon="10.3371210">
	<ele>1464.60</ele>
	<time>2025-04-29T09:50:56.000Z</time>
</trkpt>
<trkpt lat="45.9104970" lon="10.3371100">
	<ele>1464.40</ele>
	<time>2025-04-29T09:50:57.000Z</time>
</trkpt>
<trkpt lat="45.9104870" lon="10.3370930">
	<ele>1464.00</ele>
	<time>2025-04-29T09:50:58.000Z</time>
</trkpt>
<trkpt lat="45.9104840" lon="10.3370800">
	<ele>1463.80</ele>
	<time>2025-04-29T09:50:59.000Z</time>
</trkpt>
<trkpt lat="45.9104620" lon="10.3370730">
	<ele>1463.60</ele>
	<time>2025-04-29T09:51:00.000Z</time>
</trkpt>
<trkpt lat="45.9104610" lon="10.3370650">
	<ele>1463.40</ele>
	<time>2025-04-29T09:51:01.000Z</time>
</trkpt>
<trkpt lat="45.9104810" lon="10.3370620">
	<ele>1463.20</ele>
	<time>2025-04-29T09:51:02.000Z</time>
</trkpt>
<trkpt lat="45.9105120" lon="10.3370590">
	<ele>1463.20</ele>
	<time>2025-04-29T09:51:03.000Z</time>
</trkpt>
<trkpt lat="45.9105440" lon="10.3370360">
	<ele>1462.80</ele>
	<time>2025-04-29T09:51:04.000Z</time>
</trkpt>
<trkpt lat="45.9105600" lon="10.3370010">
	<ele>1462.60</ele>
	<time>2025-04-29T09:51:05.000Z</time>
</trkpt>
<trkpt lat="45.9105660" lon="10.3369880">
	<ele>1462.40</ele>
	<time>2025-04-29T09:51:06.000Z</time>
</trkpt>
<trkpt lat="45.9105660" lon="10.3369890">
	<ele>1462.00</ele>
	<time>2025-04-29T09:51:07.000Z</time>
</trkpt>
<trkpt lat="45.9105670" lon="10.3369930">
	<ele>1461.60</ele>
	<time>2025-04-29T09:51:08.000Z</time>
</trkpt>
<trkpt lat="45.9105770" lon="10.3370110">
	<ele>1461.20</ele>
	<time>2025-04-29T09:51:09.000Z</time>
</trkpt>
<trkpt lat="45.9105800" lon="10.3370160">
	<ele>1461.20</ele>
	<time>2025-04-29T09:51:10.000Z</time>
</trkpt>
<trkpt lat="45.9105810" lon="10.3370160">
	<ele>1460.80</ele>
	<time>2025-04-29T09:51:11.000Z</time>
</trkpt>
<trkpt lat="45.9105830" lon="10.3370150">
	<ele>1460.40</ele>
	<time>2025-04-29T09:51:12.000Z</time>
</trkpt>
<trkpt lat="45.9106020" lon="10.3370210">
	<ele>1460.20</ele>
	<time>2025-04-29T09:51:13.000Z</time>
</trkpt>
<trkpt lat="45.9106010" lon="10.3370160">
	<ele>1459.80</ele>
	<time>2025-04-29T09:51:14.000Z</time>
</trkpt>
<trkpt lat="45.9105980" lon="10.3370100">
	<ele>1459.40</ele>
	<time>2025-04-29T09:51:15.000Z</time>
</trkpt>
<trkpt lat="45.9106040" lon="10.3370180">
	<ele>1459.20</ele>
	<time>2025-04-29T09:51:16.000Z</time>
</trkpt>
<trkpt lat="45.9106030" lon="10.3370100">
	<ele>1458.80</ele>
	<time>2025-04-29T09:51:17.000Z</time>
</trkpt>
<trkpt lat="45.9106050" lon="10.3370050">
	<ele>1458.40</ele>
	<time>2025-04-29T09:51:18.000Z</time>
</trkpt>
<trkpt lat="45.9106190" lon="10.3370020">
	<ele>1458.20</ele>
	<time>2025-04-29T09:51:19.000Z</time>
</trkpt>
<trkpt lat="45.9106260" lon="10.3370000">
	<ele>1458.00</ele>
	<time>2025-04-29T09:51:20.000Z</time>
</trkpt>
<trkpt lat="45.9106410" lon="10.3370100">
	<ele>1457.60</ele>
	<time>2025-04-29T09:51:21.000Z</time>
</trkpt>
<trkpt lat="45.9106500" lon="10.3370120">
	<ele>1457.20</ele>
	<time>2025-04-29T09:51:22.000Z</time>
</trkpt>
<trkpt lat="45.9106680" lon="10.3370150">
	<ele>1457.00</ele>
	<time>2025-04-29T09:51:23.000Z</time>
</trkpt>
<trkpt lat="45.9106960" lon="10.3370190">
	<ele>1456.60</ele>
	<time>2025-04-29T09:51:24.000Z</time>
</trkpt>
<trkpt lat="45.9106960" lon="10.3370240">
	<ele>1456.00</ele>
	<time>2025-04-29T09:51:25.000Z</time>
</trkpt>
<trkpt lat="45.9106930" lon="10.3370160">
	<ele>1455.80</ele>
	<time>2025-04-29T09:51:26.000Z</time>
</trkpt>
<trkpt lat="45.9106920" lon="10.3370000">
	<ele>1455.40</ele>
	<time>2025-04-29T09:51:27.000Z</time>
</trkpt>
<trkpt lat="45.9107130" lon="10.3369980">
	<ele>1455.20</ele>
	<time>2025-04-29T09:51:28.000Z</time>
</trkpt>
<trkpt lat="45.9107240" lon="10.3370010">
	<ele>1455.00</ele>
	<time>2025-04-29T09:51:29.000Z</time>
</trkpt>
<trkpt lat="45.9107350" lon="10.3370110">
	<ele>1454.80</ele>
	<time>2025-04-29T09:51:30.000Z</time>
</trkpt>
<trkpt lat="45.9107370" lon="10.3370270">
	<ele>1454.40</ele>
	<time>2025-04-29T09:51:31.000Z</time>
</trkpt>
<trkpt lat="45.9107560" lon="10.3370520">
	<ele>1454.20</ele>
	<time>2025-04-29T09:51:32.000Z</time>
</trkpt>
<trkpt lat="45.9107600" lon="10.3370570">
	<ele>1454.00</ele>
	<time>2025-04-29T09:51:33.000Z</time>
</trkpt>
<trkpt lat="45.9107680" lon="10.3370670">
	<ele>1453.80</ele>
	<time>2025-04-29T09:51:34.000Z</time>
</trkpt>
<trkpt lat="45.9107760" lon="10.3370680">
	<ele>1453.40</ele>
	<time>2025-04-29T09:51:35.000Z</time>
</trkpt>
<trkpt lat="45.9107940" lon="10.3370980">
	<ele>1453.40</ele>
	<time>2025-04-29T09:51:36.000Z</time>
</trkpt>
<trkpt lat="45.9108210" lon="10.3371300">
	<ele>1453.20</ele>
	<time>2025-04-29T09:51:37.000Z</time>
</trkpt>
<trkpt lat="45.9108480" lon="10.3371620">
	<ele>1453.20</ele>
	<time>2025-04-29T09:51:38.000Z</time>
</trkpt>
<trkpt lat="45.9108780" lon="10.3371840">
	<ele>1452.80</ele>
	<time>2025-04-29T09:51:39.000Z</time>
</trkpt>
<trkpt lat="45.9109030" lon="10.3372110">
	<ele>1452.60</ele>
	<time>2025-04-29T09:51:40.000Z</time>
</trkpt>
<trkpt lat="45.9109210" lon="10.3372310">
	<ele>1452.60</ele>
	<time>2025-04-29T09:51:41.000Z</time>
</trkpt>
<trkpt lat="45.9109320" lon="10.3372400">
	<ele>1452.40</ele>
	<time>2025-04-29T09:51:42.000Z</time>
</trkpt>
<trkpt lat="45.9109310" lon="10.3372390">
	<ele>1452.20</ele>
	<time>2025-04-29T09:51:43.000Z</time>
</trkpt>
<trkpt lat="45.9109570" lon="10.3372580">
	<ele>1452.20</ele>
	<time>2025-04-29T09:51:44.000Z</time>
</trkpt>
<trkpt lat="45.9109850" lon="10.3372860">
	<ele>1451.80</ele>
	<time>2025-04-29T09:51:45.000Z</time>
</trkpt>
<trkpt lat="45.9110100" lon="10.3373150">
	<ele>1451.60</ele>
	<time>2025-04-29T09:51:46.000Z</time>
</trkpt>
<trkpt lat="45.9110290" lon="10.3373380">
	<ele>1451.20</ele>
	<time>2025-04-29T09:51:47.000Z</time>
</trkpt>
<trkpt lat="45.9110440" lon="10.3373580">
	<ele>1450.80</ele>
	<time>2025-04-29T09:51:48.000Z</time>
</trkpt>
<trkpt lat="45.9110580" lon="10.3373780">
	<ele>1450.60</ele>
	<time>2025-04-29T09:51:49.000Z</time>
</trkpt>
<trkpt lat="45.9110770" lon="10.3374060">
	<ele>1450.40</ele>
	<time>2025-04-29T09:51:50.000Z</time>
</trkpt>
<trkpt lat="45.9110900" lon="10.3374350">
	<ele>1450.40</ele>
	<time>2025-04-29T09:51:51.000Z</time>
</trkpt>
<trkpt lat="45.9110940" lon="10.3374610">
	<ele>1450.40</ele>
	<time>2025-04-29T09:51:52.000Z</time>
</trkpt>
<trkpt lat="45.9110920" lon="10.3374670">
	<ele>1450.20</ele>
	<time>2025-04-29T09:51:53.000Z</time>
</trkpt>
<trkpt lat="45.9110980" lon="10.3374820">
	<ele>1450.20</ele>
	<time>2025-04-29T09:51:54.000Z</time>
</trkpt>
<trkpt lat="45.9111150" lon="10.3375040">
	<ele>1450.00</ele>
	<time>2025-04-29T09:51:55.000Z</time>
</trkpt>
<trkpt lat="45.9111390" lon="10.3375290">
	<ele>1450.00</ele>
	<time>2025-04-29T09:51:56.000Z</time>
</trkpt>
<trkpt lat="45.9111670" lon="10.3375550">
	<ele>1449.80</ele>
	<time>2025-04-29T09:51:57.000Z</time>
</trkpt>
<trkpt lat="45.9111930" lon="10.3375740">
	<ele>1449.80</ele>
	<time>2025-04-29T09:51:58.000Z</time>
</trkpt>
<trkpt lat="45.9112080" lon="10.3375890">
	<ele>1449.80</ele>
	<time>2025-04-29T09:51:59.000Z</time>
</trkpt>
<trkpt lat="45.9112250" lon="10.3376030">
	<ele>1449.60</ele>
	<time>2025-04-29T09:52:00.000Z</time>
</trkpt>
<trkpt lat="45.9112180" lon="10.3376000">
	<ele>1449.40</ele>
	<time>2025-04-29T09:52:01.000Z</time>
</trkpt>
<trkpt lat="45.9112230" lon="10.3376070">
	<ele>1449.40</ele>
	<time>2025-04-29T09:52:02.000Z</time>
</trkpt>
<trkpt lat="45.9112280" lon="10.3376140">
	<ele>1449.20</ele>
	<time>2025-04-29T09:52:03.000Z</time>
</trkpt>
<trkpt lat="45.9112190" lon="10.3376230">
	<ele>1449.20</ele>
	<time>2025-04-29T09:52:04.000Z</time>
</trkpt>
<trkpt lat="45.9112130" lon="10.3376430">
	<ele>1449.20</ele>
	<time>2025-04-29T09:52:05.000Z</time>
</trkpt>
<trkpt lat="45.9112390" lon="10.3376650">
	<ele>1449.00</ele>
	<time>2025-04-29T09:52:06.000Z</time>
</trkpt>
<trkpt lat="45.9112550" lon="10.3376850">
	<ele>1449.00</ele>
	<time>2025-04-29T09:52:07.000Z</time>
</trkpt>
<trkpt lat="45.9112600" lon="10.3377100">
	<ele>1448.80</ele>
	<time>2025-04-29T09:52:08.000Z</time>
</trkpt>
<trkpt lat="45.9112640" lon="10.3377270">
	<ele>1448.80</ele>
	<time>2025-04-29T09:52:09.000Z</time>
</trkpt>
<trkpt lat="45.9112680" lon="10.3377440">
	<ele>1448.80</ele>
	<time>2025-04-29T09:52:10.000Z</time>
</trkpt>
<trkpt lat="45.9112670" lon="10.3377660">
	<ele>1448.60</ele>
	<time>2025-04-29T09:52:11.000Z</time>
</trkpt>
<trkpt lat="45.9112680" lon="10.3377890">
	<ele>1448.60</ele>
	<time>2025-04-29T09:52:12.000Z</time>
</trkpt>
<trkpt lat="45.9112710" lon="10.3378060">
	<ele>1448.60</ele>
	<time>2025-04-29T09:52:13.000Z</time>
</trkpt>
<trkpt lat="45.9113020" lon="10.3378300">
	<ele>1448.60</ele>
	<time>2025-04-29T09:52:14.000Z</time>
</trkpt>
<trkpt lat="45.9112980" lon="10.3378480">
	<ele>1448.60</ele>
	<time>2025-04-29T09:52:15.000Z</time>
</trkpt>
<trkpt lat="45.9112970" lon="10.3378610">
	<ele>1448.60</ele>
	<time>2025-04-29T09:52:16.000Z</time>
</trkpt>
<trkpt lat="45.9113010" lon="10.3378740">
	<ele>1448.60</ele>
	<time>2025-04-29T09:52:17.000Z</time>
</trkpt>
<trkpt lat="45.9113080" lon="10.3378960">
	<ele>1448.60</ele>
	<time>2025-04-29T09:52:18.000Z</time>
</trkpt>
<trkpt lat="45.9113180" lon="10.3379140">
	<ele>1448.40</ele>
	<time>2025-04-29T09:52:19.000Z</time>
</trkpt>
<trkpt lat="45.9113200" lon="10.3379370">
	<ele>1448.40</ele>
	<time>2025-04-29T09:52:20.000Z</time>
</trkpt>
<trkpt lat="45.9113160" lon="10.3379540">
	<ele>1448.40</ele>
	<time>2025-04-29T09:52:21.000Z</time>
</trkpt>
<trkpt lat="45.9113120" lon="10.3379760">
	<ele>1448.20</ele>
	<time>2025-04-29T09:52:22.000Z</time>
</trkpt>
<trkpt lat="45.9113160" lon="10.3379970">
	<ele>1448.20</ele>
	<time>2025-04-29T09:52:23.000Z</time>
</trkpt>
<trkpt lat="45.9113070" lon="10.3380220">
	<ele>1448.20</ele>
	<time>2025-04-29T09:52:24.000Z</time>
</trkpt>
<trkpt lat="45.9113200" lon="10.3380440">
	<ele>1448.20</ele>
	<time>2025-04-29T09:52:25.000Z</time>
</trkpt>
<trkpt lat="45.9113210" lon="10.3380480">
	<ele>1448.20</ele>
	<time>2025-04-29T09:52:26.000Z</time>
</trkpt>
<trkpt lat="45.9113240" lon="10.3380480">
	<ele>1448.20</ele>
	<time>2025-04-29T09:52:27.000Z</time>
</trkpt>
<trkpt lat="45.9113380" lon="10.3380580">
	<ele>1448.20</ele>
	<time>2025-04-29T09:52:28.000Z</time>
</trkpt>
<trkpt lat="45.9113500" lon="10.3380730">
	<ele>1448.40</ele>
	<time>2025-04-29T09:52:29.000Z</time>
</trkpt>
<trkpt lat="45.9113560" lon="10.3380890">
	<ele>1448.40</ele>
	<time>2025-04-29T09:52:30.000Z</time>
</trkpt>
<trkpt lat="45.9113610" lon="10.3381060">
	<ele>1448.40</ele>
	<time>2025-04-29T09:52:31.000Z</time>
</trkpt>
<trkpt lat="45.9113680" lon="10.3381260">
	<ele>1448.60</ele>
	<time>2025-04-29T09:52:32.000Z</time>
</trkpt>
<trkpt lat="45.9113670" lon="10.3381350">
	<ele>1448.60</ele>
	<time>2025-04-29T09:52:33.000Z</time>
</trkpt>
<trkpt lat="45.9113700" lon="10.3381590">
	<ele>1448.80</ele>
	<time>2025-04-29T09:52:34.000Z</time>
</trkpt>
<trkpt lat="45.9113700" lon="10.3381830">
	<ele>1448.80</ele>
	<time>2025-04-29T09:52:35.000Z</time>
</trkpt>
<trkpt lat="45.9113790" lon="10.3382080">
	<ele>1449.00</ele>
	<time>2025-04-29T09:52:36.000Z</time>
</trkpt>
<trkpt lat="45.9113750" lon="10.3382140">
	<ele>1449.00</ele>
	<time>2025-04-29T09:52:37.000Z</time>
</trkpt>
<trkpt lat="45.9113900" lon="10.3382350">
	<ele>1449.00</ele>
	<time>2025-04-29T09:52:38.000Z</time>
</trkpt>
<trkpt lat="45.9114060" lon="10.3382600">
	<ele>1449.20</ele>
	<time>2025-04-29T09:52:39.000Z</time>
</trkpt>
<trkpt lat="45.9114180" lon="10.3382730">
	<ele>1449.00</ele>
	<time>2025-04-29T09:52:40.000Z</time>
</trkpt>
<trkpt lat="45.9114220" lon="10.3382830">
	<ele>1449.00</ele>
	<time>2025-04-29T09:52:41.000Z</time>
</trkpt>
<trkpt lat="45.9114170" lon="10.3382950">
	<ele>1448.80</ele>
	<time>2025-04-29T09:52:42.000Z</time>
</trkpt>
<trkpt lat="45.9114350" lon="10.3383030">
	<ele>1448.60</ele>
	<time>2025-04-29T09:52:43.000Z</time>
</trkpt>
<trkpt lat="45.9114660" lon="10.3383170">
	<ele>1448.20</ele>
	<time>2025-04-29T09:52:44.000Z</time>
</trkpt>
<trkpt lat="45.9114800" lon="10.3383310">
	<ele>1447.80</ele>
	<time>2025-04-29T09:52:45.000Z</time>
</trkpt>
<trkpt lat="45.9115000" lon="10.3383450">
	<ele>1447.40</ele>
	<time>2025-04-29T09:52:46.000Z</time>
</trkpt>
<trkpt lat="45.9115180" lon="10.3383610">
	<ele>1447.20</ele>
	<time>2025-04-29T09:52:47.000Z</time>
</trkpt>
<trkpt lat="45.9115200" lon="10.3383880">
	<ele>1446.80</ele>
	<time>2025-04-29T09:52:48.000Z</time>
</trkpt>
<trkpt lat="45.9115250" lon="10.3384080">
	<ele>1446.40</ele>
	<time>2025-04-29T09:52:49.000Z</time>
</trkpt>
<trkpt lat="45.9115290" lon="10.3384280">
	<ele>1446.20</ele>
	<time>2025-04-29T09:52:50.000Z</time>
</trkpt>
<trkpt lat="45.9115440" lon="10.3384420">
	<ele>1446.00</ele>
	<time>2025-04-29T09:52:51.000Z</time>
</trkpt>
<trkpt lat="45.9115490" lon="10.3384460">
	<ele>1445.60</ele>
	<time>2025-04-29T09:52:52.000Z</time>
</trkpt>
<trkpt lat="45.9115570" lon="10.3384730">
	<ele>1445.40</ele>
	<time>2025-04-29T09:52:53.000Z</time>
</trkpt>
<trkpt lat="45.9115500" lon="10.3385060">
	<ele>1445.20</ele>
	<time>2025-04-29T09:52:54.000Z</time>
</trkpt>
<trkpt lat="45.9115460" lon="10.3385460">
	<ele>1444.80</ele>
	<time>2025-04-29T09:52:55.000Z</time>
</trkpt>
<trkpt lat="45.9115400" lon="10.3385870">
	<ele>1444.40</ele>
	<time>2025-04-29T09:52:56.000Z</time>
</trkpt>
<trkpt lat="45.9115390" lon="10.3386140">
	<ele>1444.00</ele>
	<time>2025-04-29T09:52:57.000Z</time>
</trkpt>
<trkpt lat="45.9115500" lon="10.3386420">
	<ele>1443.80</ele>
	<time>2025-04-29T09:52:58.000Z</time>
</trkpt>
<trkpt lat="45.9115380" lon="10.3386860">
	<ele>1443.40</ele>
	<time>2025-04-29T09:52:59.000Z</time>
</trkpt>
<trkpt lat="45.9115350" lon="10.3387270">
	<ele>1443.20</ele>
	<time>2025-04-29T09:53:00.000Z</time>
</trkpt>
<trkpt lat="45.9115180" lon="10.3387480">
	<ele>1443.00</ele>
	<time>2025-04-29T09:53:01.000Z</time>
</trkpt>
<trkpt lat="45.9115170" lon="10.3387530">
	<ele>1442.80</ele>
	<time>2025-04-29T09:53:02.000Z</time>
</trkpt>
<trkpt lat="45.9115030" lon="10.3387520">
	<ele>1442.20</ele>
	<time>2025-04-29T09:53:03.000Z</time>
</trkpt>
<trkpt lat="45.9114890" lon="10.3387510">
	<ele>1442.00</ele>
	<time>2025-04-29T09:53:04.000Z</time>
</trkpt>
<trkpt lat="45.9114890" lon="10.3387510">
	<ele>1441.60</ele>
	<time>2025-04-29T09:53:05.000Z</time>
</trkpt>
<trkpt lat="45.9115150" lon="10.3387640">
	<ele>1441.40</ele>
	<time>2025-04-29T09:53:06.000Z</time>
</trkpt>
<trkpt lat="45.9115410" lon="10.3387810">
	<ele>1441.20</ele>
	<time>2025-04-29T09:53:07.000Z</time>
</trkpt>
<trkpt lat="45.9115660" lon="10.3388150">
	<ele>1441.00</ele>
	<time>2025-04-29T09:53:08.000Z</time>
</trkpt>
<trkpt lat="45.9115890" lon="10.3388590">
	<ele>1440.60</ele>
	<time>2025-04-29T09:53:09.000Z</time>
</trkpt>
<trkpt lat="45.9115920" lon="10.3388920">
	<ele>1440.20</ele>
	<time>2025-04-29T09:53:10.000Z</time>
</trkpt>
<trkpt lat="45.9116010" lon="10.3389190">
	<ele>1440.00</ele>
	<time>2025-04-29T09:53:11.000Z</time>
</trkpt>
<trkpt lat="45.9116170" lon="10.3389360">
	<ele>1439.60</ele>
	<time>2025-04-29T09:53:12.000Z</time>
</trkpt>
<trkpt lat="45.9116310" lon="10.3389450">
	<ele>1439.40</ele>
	<time>2025-04-29T09:53:13.000Z</time>
</trkpt>
<trkpt lat="45.9116220" lon="10.3389450">
	<ele>1439.00</ele>
	<time>2025-04-29T09:53:14.000Z</time>
</trkpt>
<trkpt lat="45.9116270" lon="10.3389630">
	<ele>1438.80</ele>
	<time>2025-04-29T09:53:15.000Z</time>
</trkpt>
<trkpt lat="45.9116340" lon="10.3389820">
	<ele>1438.40</ele>
	<time>2025-04-29T09:53:16.000Z</time>
</trkpt>
<trkpt lat="45.9116400" lon="10.3389850">
	<ele>1438.20</ele>
	<time>2025-04-29T09:53:17.000Z</time>
</trkpt>
<trkpt lat="45.9116510" lon="10.3389920">
	<ele>1438.00</ele>
	<time>2025-04-29T09:53:18.000Z</time>
</trkpt>
<trkpt lat="45.9116790" lon="10.3389990">
	<ele>1437.80</ele>
	<time>2025-04-29T09:53:19.000Z</time>
</trkpt>
<trkpt lat="45.9116810" lon="10.3389970">
	<ele>1437.40</ele>
	<time>2025-04-29T09:53:20.000Z</time>
</trkpt>
<trkpt lat="45.9116500" lon="10.3389860">
	<ele>1437.20</ele>
	<time>2025-04-29T09:53:21.000Z</time>
</trkpt>
<trkpt lat="45.9116400" lon="10.3389780">
	<ele>1436.80</ele>
	<time>2025-04-29T09:53:22.000Z</time>
</trkpt>
<trkpt lat="45.9116330" lon="10.3389750">
	<ele>1436.60</ele>
	<time>2025-04-29T09:53:23.000Z</time>
</trkpt>
<trkpt lat="45.9116360" lon="10.3389370">
	<ele>1436.40</ele>
	<time>2025-04-29T09:53:24.000Z</time>
</trkpt>
<trkpt lat="45.9116190" lon="10.3389190">
	<ele>1436.20</ele>
	<time>2025-04-29T09:53:25.000Z</time>
</trkpt>
<trkpt lat="45.9116110" lon="10.3389040">
	<ele>1435.80</ele>
	<time>2025-04-29T09:53:26.000Z</time>
</trkpt>
<trkpt lat="45.9115890" lon="10.3388720">
	<ele>1435.60</ele>
	<time>2025-04-29T09:53:27.000Z</time>
</trkpt>
<trkpt lat="45.9115580" lon="10.3388280">
	<ele>1435.40</ele>
	<time>2025-04-29T09:53:28.000Z</time>
</trkpt>
<trkpt lat="45.9115460" lon="10.3388130">
	<ele>1435.20</ele>
	<time>2025-04-29T09:53:29.000Z</time>
</trkpt>
<trkpt lat="45.9115380" lon="10.3388020">
	<ele>1435.00</ele>
	<time>2025-04-29T09:53:30.000Z</time>
</trkpt>
<trkpt lat="45.9115360" lon="10.3387990">
	<ele>1435.00</ele>
	<time>2025-04-29T09:53:31.000Z</time>
</trkpt>
<trkpt lat="45.9115420" lon="10.3388050">
	<ele>1434.60</ele>
	<time>2025-04-29T09:53:32.000Z</time>
</trkpt>
<trkpt lat="45.9115690" lon="10.3388210">
	<ele>1434.20</ele>
	<time>2025-04-29T09:53:33.000Z</time>
</trkpt>
<trkpt lat="45.9115880" lon="10.3388440">
	<ele>1434.00</ele>
	<time>2025-04-29T09:53:34.000Z</time>
</trkpt>
<trkpt lat="45.9116090" lon="10.3388660">
	<ele>1433.60</ele>
	<time>2025-04-29T09:53:35.000Z</time>
</trkpt>
<trkpt lat="45.9116270" lon="10.3388810">
	<ele>1433.40</ele>
	<time>2025-04-29T09:53:36.000Z</time>
</trkpt>
<trkpt lat="45.9116440" lon="10.3388910">
	<ele>1433.20</ele>
	<time>2025-04-29T09:53:37.000Z</time>
</trkpt>
<trkpt lat="45.9116560" lon="10.3388910">
	<ele>1433.00</ele>
	<time>2025-04-29T09:53:38.000Z</time>
</trkpt>
<trkpt lat="45.9116680" lon="10.3388990">
	<ele>1432.60</ele>
	<time>2025-04-29T09:53:39.000Z</time>
</trkpt>
<trkpt lat="45.9116840" lon="10.3389160">
	<ele>1432.60</ele>
	<time>2025-04-29T09:53:40.000Z</time>
</trkpt>
<trkpt lat="45.9116910" lon="10.3389380">
	<ele>1432.40</ele>
	<time>2025-04-29T09:53:41.000Z</time>
</trkpt>
<trkpt lat="45.9116940" lon="10.3389540">
	<ele>1432.40</ele>
	<time>2025-04-29T09:53:42.000Z</time>
</trkpt>
<trkpt lat="45.9116930" lon="10.3389600">
	<ele>1432.20</ele>
	<time>2025-04-29T09:53:43.000Z</time>
</trkpt>
<trkpt lat="45.9116960" lon="10.3389520">
	<ele>1432.00</ele>
	<time>2025-04-29T09:53:44.000Z</time>
</trkpt>
<trkpt lat="45.9116960" lon="10.3389470">
	<ele>1432.00</ele>
	<time>2025-04-29T09:53:45.000Z</time>
</trkpt>
<trkpt lat="45.9117040" lon="10.3389500">
	<ele>1432.00</ele>
	<time>2025-04-29T09:53:46.000Z</time>
</trkpt>
<trkpt lat="45.9117220" lon="10.3389760">
	<ele>1431.80</ele>
	<time>2025-04-29T09:53:47.000Z</time>
</trkpt>
<trkpt lat="45.9117350" lon="10.3389930">
	<ele>1431.80</ele>
	<time>2025-04-29T09:53:48.000Z</time>
</trkpt>
<trkpt lat="45.9117580" lon="10.3390080">
	<ele>1432.00</ele>
	<time>2025-04-29T09:53:49.000Z</time>
</trkpt>
<trkpt lat="45.9117880" lon="10.3390210">
	<ele>1432.20</ele>
	<time>2025-04-29T09:53:50.000Z</time>
</trkpt>
<trkpt lat="45.9118110" lon="10.3390490">
	<ele>1432.40</ele>
	<time>2025-04-29T09:53:51.000Z</time>
</trkpt>
<trkpt lat="45.9118180" lon="10.3390540">
	<ele>1432.40</ele>
	<time>2025-04-29T09:53:52.000Z</time>
</trkpt>
<trkpt lat="45.9118200" lon="10.3390620">
	<ele>1432.40</ele>
	<time>2025-04-29T09:53:53.000Z</time>
</trkpt>
<trkpt lat="45.9118280" lon="10.3390750">
	<ele>1432.40</ele>
	<time>2025-04-29T09:53:54.000Z</time>
</trkpt>
<trkpt lat="45.9118460" lon="10.3391040">
	<ele>1432.20</ele>
	<time>2025-04-29T09:53:55.000Z</time>
</trkpt>
<trkpt lat="45.9118710" lon="10.3391300">
	<ele>1432.20</ele>
	<time>2025-04-29T09:53:56.000Z</time>
</trkpt>
<trkpt lat="45.9118880" lon="10.3391440">
	<ele>1432.00</ele>
	<time>2025-04-29T09:53:57.000Z</time>
</trkpt>
<trkpt lat="45.9118830" lon="10.3391510">
	<ele>1431.80</ele>
	<time>2025-04-29T09:53:58.000Z</time>
</trkpt>
<trkpt lat="45.9118670" lon="10.3391570">
	<ele>1431.60</ele>
	<time>2025-04-29T09:53:59.000Z</time>
</trkpt>
<trkpt lat="45.9118650" lon="10.3391720">
	<ele>1431.40</ele>
	<time>2025-04-29T09:54:00.000Z</time>
</trkpt>
<trkpt lat="45.9118570" lon="10.3391810">
	<ele>1431.20</ele>
	<time>2025-04-29T09:54:01.000Z</time>
</trkpt>
<trkpt lat="45.9118690" lon="10.3391940">
	<ele>1431.20</ele>
	<time>2025-04-29T09:54:02.000Z</time>
</trkpt>
<trkpt lat="45.9118890" lon="10.3392100">
	<ele>1431.20</ele>
	<time>2025-04-29T09:54:03.000Z</time>
</trkpt>
<trkpt lat="45.9119050" lon="10.3392190">
	<ele>1431.20</ele>
	<time>2025-04-29T09:54:04.000Z</time>
</trkpt>
<trkpt lat="45.9119030" lon="10.3392230">
	<ele>1431.20</ele>
	<time>2025-04-29T09:54:05.000Z</time>
</trkpt>
<trkpt lat="45.9119030" lon="10.3392260">
	<ele>1431.20</ele>
	<time>2025-04-29T09:54:06.000Z</time>
</trkpt>
<trkpt lat="45.9119120" lon="10.3392340">
	<ele>1431.20</ele>
	<time>2025-04-29T09:54:07.000Z</time>
</trkpt>
<trkpt lat="45.9119240" lon="10.3392430">
	<ele>1431.00</ele>
	<time>2025-04-29T09:54:08.000Z</time>
</trkpt>
<trkpt lat="45.9119430" lon="10.3392520">
	<ele>1431.00</ele>
	<time>2025-04-29T09:54:09.000Z</time>
</trkpt>
<trkpt lat="45.9119410" lon="10.3392430">
	<ele>1430.60</ele>
	<time>2025-04-29T09:54:10.000Z</time>
</trkpt>
<trkpt lat="45.9119510" lon="10.3392580">
	<ele>1430.40</ele>
	<time>2025-04-29T09:54:11.000Z</time>
</trkpt>
<trkpt lat="45.9119630" lon="10.3392710">
	<ele>1430.40</ele>
	<time>2025-04-29T09:54:12.000Z</time>
</trkpt>
<trkpt lat="45.9119810" lon="10.3392800">
	<ele>1430.20</ele>
	<time>2025-04-29T09:54:13.000Z</time>
</trkpt>
<trkpt lat="45.9119680" lon="10.3392630">
	<ele>1430.20</ele>
	<time>2025-04-29T09:54:14.000Z</time>
</trkpt>
<trkpt lat="45.9119590" lon="10.3392510">
	<ele>1430.20</ele>
	<time>2025-04-29T09:54:15.000Z</time>
</trkpt>
<trkpt lat="45.9119480" lon="10.3392450">
	<ele>1430.20</ele>
	<time>2025-04-29T09:54:16.000Z</time>
</trkpt>
<trkpt lat="45.9119480" lon="10.3392560">
	<ele>1430.20</ele>
	<time>2025-04-29T09:54:17.000Z</time>
</trkpt>
<trkpt lat="45.9119440" lon="10.3392530">
	<ele>1430.20</ele>
	<time>2025-04-29T09:54:18.000Z</time>
</trkpt>
<trkpt lat="45.9119610" lon="10.3392650">
	<ele>1430.40</ele>
	<time>2025-04-29T09:54:19.000Z</time>
</trkpt>
<trkpt lat="45.9119900" lon="10.3392810">
	<ele>1430.60</ele>
	<time>2025-04-29T09:54:20.000Z</time>
</trkpt>
<trkpt lat="45.9120090" lon="10.3392830">
	<ele>1430.60</ele>
	<time>2025-04-29T09:54:21.000Z</time>
</trkpt>
<trkpt lat="45.9120220" lon="10.3392980">
	<ele>1430.80</ele>
	<time>2025-04-29T09:54:22.000Z</time>
</trkpt>
<trkpt lat="45.9120240" lon="10.3393030">
	<ele>1431.20</ele>
	<time>2025-04-29T09:54:23.000Z</time>
</trkpt>
<trkpt lat="45.9120420" lon="10.3393060">
	<ele>1431.40</ele>
	<time>2025-04-29T09:54:24.000Z</time>
</trkpt>
<trkpt lat="45.9120560" lon="10.3393090">
	<ele>1431.40</ele>
	<time>2025-04-29T09:54:25.000Z</time>
</trkpt>
<trkpt lat="45.9120760" lon="10.3393200">
	<ele>1431.40</ele>
	<time>2025-04-29T09:54:26.000Z</time>
</trkpt>
<trkpt lat="45.9120890" lon="10.3393220">
	<ele>1431.40</ele>
	<time>2025-04-29T09:54:27.000Z</time>
</trkpt>
<trkpt lat="45.9120910" lon="10.3393230">
	<ele>1431.40</ele>
	<time>2025-04-29T09:54:28.000Z</time>
</trkpt>
<trkpt lat="45.9121030" lon="10.3393080">
	<ele>1431.40</ele>
	<time>2025-04-29T09:54:29.000Z</time>
</trkpt>
<trkpt lat="45.9121070" lon="10.3393000">
	<ele>1431.40</ele>
	<time>2025-04-29T09:54:30.000Z</time>
</trkpt>
<trkpt lat="45.9121160" lon="10.3392970">
	<ele>1431.20</ele>
	<time>2025-04-29T09:54:31.000Z</time>
</trkpt>
<trkpt lat="45.9121310" lon="10.3392960">
	<ele>1431.00</ele>
	<time>2025-04-29T09:54:32.000Z</time>
</trkpt>
<trkpt lat="45.9121520" lon="10.3392920">
	<ele>1430.60</ele>
	<time>2025-04-29T09:54:33.000Z</time>
</trkpt>
<trkpt lat="45.9121760" lon="10.3392940">
	<ele>1430.40</ele>
	<time>2025-04-29T09:54:34.000Z</time>
</trkpt>
<trkpt lat="45.9121960" lon="10.3393110">
	<ele>1430.00</ele>
	<time>2025-04-29T09:54:35.000Z</time>
</trkpt>
<trkpt lat="45.9122160" lon="10.3393390">
	<ele>1429.60</ele>
	<time>2025-04-29T09:54:36.000Z</time>
</trkpt>
<trkpt lat="45.9122310" lon="10.3393800">
	<ele>1429.40</ele>
	<time>2025-04-29T09:54:37.000Z</time>
</trkpt>
<trkpt lat="45.9122340" lon="10.3394220">
	<ele>1429.00</ele>
	<time>2025-04-29T09:54:38.000Z</time>
</trkpt>
<trkpt lat="45.9122590" lon="10.3394440">
	<ele>1428.80</ele>
	<time>2025-04-29T09:54:39.000Z</time>
</trkpt>
<trkpt lat="45.9122900" lon="10.3394530">
	<ele>1428.40</ele>
	<time>2025-04-29T09:54:40.000Z</time>
</trkpt>
<trkpt lat="45.9123170" lon="10.3394480">
	<ele>1428.00</ele>
	<time>2025-04-29T09:54:41.000Z</time>
</trkpt>
<trkpt lat="45.9123550" lon="10.3394480">
	<ele>1427.80</ele>
	<time>2025-04-29T09:54:42.000Z</time>
</trkpt>
<trkpt lat="45.9123770" lon="10.3394480">
	<ele>1427.20</ele>
	<time>2025-04-29T09:54:43.000Z</time>
</trkpt>
<trkpt lat="45.9123720" lon="10.3394560">
	<ele>1426.80</ele>
	<time>2025-04-29T09:54:44.000Z</time>
</trkpt>
<trkpt lat="45.9123750" lon="10.3394540">
	<ele>1426.40</ele>
	<time>2025-04-29T09:54:45.000Z</time>
</trkpt>
<trkpt lat="45.9123770" lon="10.3394540">
	<ele>1426.00</ele>
	<time>2025-04-29T09:54:46.000Z</time>
</trkpt>
<trkpt lat="45.9123780" lon="10.3394510">
	<ele>1425.40</ele>
	<time>2025-04-29T09:54:47.000Z</time>
</trkpt>
<trkpt lat="45.9123920" lon="10.3394590">
	<ele>1425.20</ele>
	<time>2025-04-29T09:54:48.000Z</time>
</trkpt>
<trkpt lat="45.9124090" lon="10.3394630">
	<ele>1424.80</ele>
	<time>2025-04-29T09:54:49.000Z</time>
</trkpt>
<trkpt lat="45.9124180" lon="10.3394570">
	<ele>1424.40</ele>
	<time>2025-04-29T09:54:50.000Z</time>
</trkpt>
<trkpt lat="45.9124270" lon="10.3394630">
	<ele>1424.00</ele>
	<time>2025-04-29T09:54:51.000Z</time>
</trkpt>
<trkpt lat="45.9124320" lon="10.3394780">
	<ele>1423.80</ele>
	<time>2025-04-29T09:54:52.000Z</time>
</trkpt>
<trkpt lat="45.9124340" lon="10.3394900">
	<ele>1423.40</ele>
	<time>2025-04-29T09:54:53.000Z</time>
</trkpt>
<trkpt lat="45.9124340" lon="10.3394990">
	<ele>1423.20</ele>
	<time>2025-04-29T09:54:54.000Z</time>
</trkpt>
<trkpt lat="45.9124460" lon="10.3395070">
	<ele>1422.60</ele>
	<time>2025-04-29T09:54:55.000Z</time>
</trkpt>
<trkpt lat="45.9124580" lon="10.3395180">
	<ele>1422.40</ele>
	<time>2025-04-29T09:54:56.000Z</time>
</trkpt>
<trkpt lat="45.9124870" lon="10.3395230">
	<ele>1422.20</ele>
	<time>2025-04-29T09:54:57.000Z</time>
</trkpt>
<trkpt lat="45.9125140" lon="10.3395330">
	<ele>1421.80</ele>
	<time>2025-04-29T09:54:58.000Z</time>
</trkpt>
<trkpt lat="45.9125460" lon="10.3395340">
	<ele>1421.40</ele>
	<time>2025-04-29T09:54:59.000Z</time>
</trkpt>
<trkpt lat="45.9125690" lon="10.3395370">
	<ele>1421.20</ele>
	<time>2025-04-29T09:55:00.000Z</time>
</trkpt>
<trkpt lat="45.9125800" lon="10.3395420">
	<ele>1421.00</ele>
	<time>2025-04-29T09:55:01.000Z</time>
</trkpt>
<trkpt lat="45.9125840" lon="10.3395550">
	<ele>1420.80</ele>
	<time>2025-04-29T09:55:02.000Z</time>
</trkpt>
<trkpt lat="45.9125950" lon="10.3395640">
	<ele>1420.60</ele>
	<time>2025-04-29T09:55:03.000Z</time>
</trkpt>
<trkpt lat="45.9126160" lon="10.3395820">
	<ele>1420.40</ele>
	<time>2025-04-29T09:55:04.000Z</time>
</trkpt>
<trkpt lat="45.9126380" lon="10.3395950">
	<ele>1420.20</ele>
	<time>2025-04-29T09:55:05.000Z</time>
</trkpt>
<trkpt lat="45.9126510" lon="10.3396230">
	<ele>1419.60</ele>
	<time>2025-04-29T09:55:06.000Z</time>
</trkpt>
<trkpt lat="45.9126540" lon="10.3396240">
	<ele>1419.40</ele>
	<time>2025-04-29T09:55:07.000Z</time>
</trkpt>
<trkpt lat="45.9126630" lon="10.3396280">
	<ele>1419.00</ele>
	<time>2025-04-29T09:55:08.000Z</time>
</trkpt>
<trkpt lat="45.9126750" lon="10.3396200">
	<ele>1418.80</ele>
	<time>2025-04-29T09:55:09.000Z</time>
</trkpt>
<trkpt lat="45.9126990" lon="10.3396190">
	<ele>1418.40</ele>
	<time>2025-04-29T09:55:10.000Z</time>
</trkpt>
<trkpt lat="45.9127250" lon="10.3396210">
	<ele>1418.00</ele>
	<time>2025-04-29T09:55:11.000Z</time>
</trkpt>
<trkpt lat="45.9127540" lon="10.3396430">
	<ele>1417.60</ele>
	<time>2025-04-29T09:55:12.000Z</time>
</trkpt>
<trkpt lat="45.9127860" lon="10.3396580">
	<ele>1417.40</ele>
	<time>2025-04-29T09:55:13.000Z</time>
</trkpt>
<trkpt lat="45.9128080" lon="10.3396640">
	<ele>1417.00</ele>
	<time>2025-04-29T09:55:14.000Z</time>
</trkpt>
<trkpt lat="45.9128130" lon="10.3396650">
	<ele>1416.80</ele>
	<time>2025-04-29T09:55:15.000Z</time>
</trkpt>
<trkpt lat="45.9128160" lon="10.3396680">
	<ele>1416.40</ele>
	<time>2025-04-29T09:55:16.000Z</time>
</trkpt>
<trkpt lat="45.9128130" lon="10.3396640">
	<ele>1416.20</ele>
	<time>2025-04-29T09:55:17.000Z</time>
</trkpt>
<trkpt lat="45.9128080" lon="10.3396510">
	<ele>1415.80</ele>
	<time>2025-04-29T09:55:18.000Z</time>
</trkpt>
<trkpt lat="45.9128050" lon="10.3396470">
	<ele>1415.60</ele>
	<time>2025-04-29T09:55:19.000Z</time>
</trkpt>
<trkpt lat="45.9128070" lon="10.3396380">
	<ele>1415.20</ele>
	<time>2025-04-29T09:55:20.000Z</time>
</trkpt>
<trkpt lat="45.9128110" lon="10.3396350">
	<ele>1414.80</ele>
	<time>2025-04-29T09:55:21.000Z</time>
</trkpt>
<trkpt lat="45.9128140" lon="10.3396380">
	<ele>1414.40</ele>
	<time>2025-04-29T09:55:22.000Z</time>
</trkpt>
<trkpt lat="45.9128320" lon="10.3396420">
	<ele>1414.20</ele>
	<time>2025-04-29T09:55:23.000Z</time>
</trkpt>
<trkpt lat="45.9128520" lon="10.3396480">
	<ele>1414.00</ele>
	<time>2025-04-29T09:55:24.000Z</time>
</trkpt>
<trkpt lat="45.9128730" lon="10.3396570">
	<ele>1413.80</ele>
	<time>2025-04-29T09:55:25.000Z</time>
</trkpt>
<trkpt lat="45.9128970" lon="10.3396660">
	<ele>1413.60</ele>
	<time>2025-04-29T09:55:26.000Z</time>
</trkpt>
<trkpt lat="45.9128950" lon="10.3396600">
	<ele>1413.40</ele>
	<time>2025-04-29T09:55:27.000Z</time>
</trkpt>
<trkpt lat="45.9128940" lon="10.3396560">
	<ele>1413.00</ele>
	<time>2025-04-29T09:55:28.000Z</time>
</trkpt>
<trkpt lat="45.9128590" lon="10.3396400">
	<ele>1412.80</ele>
	<time>2025-04-29T09:55:29.000Z</time>
</trkpt>
<trkpt lat="45.9128620" lon="10.3396460">
	<ele>1412.60</ele>
	<time>2025-04-29T09:55:30.000Z</time>
</trkpt>
<trkpt lat="45.9128900" lon="10.3396540">
	<ele>1412.40</ele>
	<time>2025-04-29T09:55:31.000Z</time>
</trkpt>
<trkpt lat="45.9129030" lon="10.3396700">
	<ele>1412.20</ele>
	<time>2025-04-29T09:55:32.000Z</time>
</trkpt>
<trkpt lat="45.9129160" lon="10.3396910">
	<ele>1411.80</ele>
	<time>2025-04-29T09:55:33.000Z</time>
</trkpt>
<trkpt lat="45.9129290" lon="10.3397140">
	<ele>1411.40</ele>
	<time>2025-04-29T09:55:34.000Z</time>
</trkpt>
<trkpt lat="45.9129370" lon="10.3397330">
	<ele>1411.20</ele>
	<time>2025-04-29T09:55:35.000Z</time>
</trkpt>
<trkpt lat="45.9129420" lon="10.3397440">
	<ele>1411.00</ele>
	<time>2025-04-29T09:55:36.000Z</time>
</trkpt>
<trkpt lat="45.9129570" lon="10.3397470">
	<ele>1410.60</ele>
	<time>2025-04-29T09:55:37.000Z</time>
</trkpt>
<trkpt lat="45.9129730" lon="10.3397490">
	<ele>1410.00</ele>
	<time>2025-04-29T09:55:38.000Z</time>
</trkpt>
<trkpt lat="45.9129890" lon="10.3397550">
	<ele>1409.80</ele>
	<time>2025-04-29T09:55:39.000Z</time>
</trkpt>
<trkpt lat="45.9129930" lon="10.3397630">
	<ele>1409.60</ele>
	<time>2025-04-29T09:55:40.000Z</time>
</trkpt>
<trkpt lat="45.9129870" lon="10.3397650">
	<ele>1409.40</ele>
	<time>2025-04-29T09:55:41.000Z</time>
</trkpt>
<trkpt lat="45.9129840" lon="10.3397700">
	<ele>1409.20</ele>
	<time>2025-04-29T09:55:42.000Z</time>
</trkpt>
<trkpt lat="45.9129900" lon="10.3397810">
	<ele>1408.80</ele>
	<time>2025-04-29T09:55:43.000Z</time>
</trkpt>
<trkpt lat="45.9129840" lon="10.3397820">
	<ele>1408.60</ele>
	<time>2025-04-29T09:55:44.000Z</time>
</trkpt>
<trkpt lat="45.9129800" lon="10.3397880">
	<ele>1408.20</ele>
	<time>2025-04-29T09:55:45.000Z</time>
</trkpt>
<trkpt lat="45.9129650" lon="10.3397800">
	<ele>1407.80</ele>
	<time>2025-04-29T09:55:46.000Z</time>
</trkpt>
<trkpt lat="45.9129530" lon="10.3397680">
	<ele>1407.40</ele>
	<time>2025-04-29T09:55:47.000Z</time>
</trkpt>
<trkpt lat="45.9129440" lon="10.3397590">
	<ele>1407.20</ele>
	<time>2025-04-29T09:55:48.000Z</time>
</trkpt>
<trkpt lat="45.9129370" lon="10.3397570">
	<ele>1406.80</ele>
	<time>2025-04-29T09:55:49.000Z</time>
</trkpt>
<trkpt lat="45.9129360" lon="10.3397590">
	<ele>1406.40</ele>
	<time>2025-04-29T09:55:50.000Z</time>
</trkpt>
<trkpt lat="45.9129480" lon="10.3397660">
	<ele>1406.20</ele>
	<time>2025-04-29T09:55:51.000Z</time>
</trkpt>
<trkpt lat="45.9129560" lon="10.3397690">
	<ele>1406.00</ele>
	<time>2025-04-29T09:55:52.000Z</time>
</trkpt>
<trkpt lat="45.9129590" lon="10.3397780">
	<ele>1405.80</ele>
	<time>2025-04-29T09:55:53.000Z</time>
</trkpt>
<trkpt lat="45.9129700" lon="10.3397850">
	<ele>1405.40</ele>
	<time>2025-04-29T09:55:54.000Z</time>
</trkpt>
<trkpt lat="45.9129770" lon="10.3397850">
	<ele>1405.20</ele>
	<time>2025-04-29T09:55:55.000Z</time>
</trkpt>
<trkpt lat="45.9129870" lon="10.3397820">
	<ele>1405.00</ele>
	<time>2025-04-29T09:55:56.000Z</time>
</trkpt>
<trkpt lat="45.9130050" lon="10.3397860">
	<ele>1404.80</ele>
	<time>2025-04-29T09:55:57.000Z</time>
</trkpt>
<trkpt lat="45.9130110" lon="10.3397870">
	<ele>1404.40</ele>
	<time>2025-04-29T09:55:58.000Z</time>
</trkpt>
<trkpt lat="45.9130200" lon="10.3397810">
	<ele>1404.20</ele>
	<time>2025-04-29T09:55:59.000Z</time>
</trkpt>
<trkpt lat="45.9130200" lon="10.3397740">
	<ele>1403.80</ele>
	<time>2025-04-29T09:56:00.000Z</time>
</trkpt>
<trkpt lat="45.9130260" lon="10.3397720">
	<ele>1403.60</ele>
	<time>2025-04-29T09:56:01.000Z</time>
</trkpt>
<trkpt lat="45.9130390" lon="10.3397730">
	<ele>1403.00</ele>
	<time>2025-04-29T09:56:02.000Z</time>
</trkpt>
<trkpt lat="45.9130560" lon="10.3397800">
	<ele>1402.80</ele>
	<time>2025-04-29T09:56:03.000Z</time>
</trkpt>
<trkpt lat="45.9130640" lon="10.3397990">
	<ele>1402.60</ele>
	<time>2025-04-29T09:56:04.000Z</time>
</trkpt>
<trkpt lat="45.9130940" lon="10.3398170">
	<ele>1402.40</ele>
	<time>2025-04-29T09:56:05.000Z</time>
</trkpt>
<trkpt lat="45.9130820" lon="10.3398490">
	<ele>1402.00</ele>
	<time>2025-04-29T09:56:06.000Z</time>
</trkpt>
<trkpt lat="45.9130840" lon="10.3398770">
	<ele>1401.80</ele>
	<time>2025-04-29T09:56:07.000Z</time>
</trkpt>
<trkpt lat="45.9131020" lon="10.3398980">
	<ele>1401.60</ele>
	<time>2025-04-29T09:56:08.000Z</time>
</trkpt>
<trkpt lat="45.9131180" lon="10.3399170">
	<ele>1401.20</ele>
	<time>2025-04-29T09:56:09.000Z</time>
</trkpt>
<trkpt lat="45.9131380" lon="10.3399260">
	<ele>1401.00</ele>
	<time>2025-04-29T09:56:10.000Z</time>
</trkpt>
<trkpt lat="45.9131570" lon="10.3399240">
	<ele>1400.80</ele>
	<time>2025-04-29T09:56:11.000Z</time>
</trkpt>
<trkpt lat="45.9131610" lon="10.3399250">
	<ele>1400.60</ele>
	<time>2025-04-29T09:56:12.000Z</time>
</trkpt>
<trkpt lat="45.9131620" lon="10.3399160">
	<ele>1400.60</ele>
	<time>2025-04-29T09:56:13.000Z</time>
</trkpt>
<trkpt lat="45.9131650" lon="10.3399050">
	<ele>1400.40</ele>
	<time>2025-04-29T09:56:14.000Z</time>
</trkpt>
<trkpt lat="45.9131800" lon="10.3399210">
	<ele>1400.20</ele>
	<time>2025-04-29T09:56:15.000Z</time>
</trkpt>
<trkpt lat="45.9131950" lon="10.3399250">
	<ele>1399.60</ele>
	<time>2025-04-29T09:56:16.000Z</time>
</trkpt>
<trkpt lat="45.9131970" lon="10.3399240">
	<ele>1399.20</ele>
	<time>2025-04-29T09:56:17.000Z</time>
</trkpt>
<trkpt lat="45.9131920" lon="10.3399250">
	<ele>1398.80</ele>
	<time>2025-04-29T09:56:18.000Z</time>
</trkpt>
<trkpt lat="45.9131910" lon="10.3399330">
	<ele>1398.60</ele>
	<time>2025-04-29T09:56:19.000Z</time>
</trkpt>
<trkpt lat="45.9131890" lon="10.3399410">
	<ele>1398.40</ele>
	<time>2025-04-29T09:56:20.000Z</time>
</trkpt>
<trkpt lat="45.9131840" lon="10.3399520">
	<ele>1398.20</ele>
	<time>2025-04-29T09:56:21.000Z</time>
</trkpt>
<trkpt lat="45.9131910" lon="10.3399480">
	<ele>1397.80</ele>
	<time>2025-04-29T09:56:22.000Z</time>
</trkpt>
<trkpt lat="45.9132070" lon="10.3399560">
	<ele>1397.60</ele>
	<time>2025-04-29T09:56:23.000Z</time>
</trkpt>
<trkpt lat="45.9132190" lon="10.3399630">
	<ele>1397.40</ele>
	<time>2025-04-29T09:56:24.000Z</time>
</trkpt>
<trkpt lat="45.9132190" lon="10.3399610">
	<ele>1397.20</ele>
	<time>2025-04-29T09:56:25.000Z</time>
</trkpt>
<trkpt lat="45.9132290" lon="10.3399670">
	<ele>1397.00</ele>
	<time>2025-04-29T09:56:26.000Z</time>
</trkpt>
<trkpt lat="45.9132100" lon="10.3399740">
	<ele>1396.60</ele>
	<time>2025-04-29T09:56:27.000Z</time>
</trkpt>
<trkpt lat="45.9132120" lon="10.3399870">
	<ele>1396.40</ele>
	<time>2025-04-29T09:56:28.000Z</time>
</trkpt>
<trkpt lat="45.9132070" lon="10.3399830">
	<ele>1396.00</ele>
	<time>2025-04-29T09:56:29.000Z</time>
</trkpt>
<trkpt lat="45.9132080" lon="10.3399810">
	<ele>1395.80</ele>
	<time>2025-04-29T09:56:30.000Z</time>
</trkpt>
<trkpt lat="45.9132010" lon="10.3399660">
	<ele>1395.40</ele>
	<time>2025-04-29T09:56:31.000Z</time>
</trkpt>
<trkpt lat="45.9132020" lon="10.3399730">
	<ele>1395.20</ele>
	<time>2025-04-29T09:56:32.000Z</time>
</trkpt>
<trkpt lat="45.9132380" lon="10.3399750">
	<ele>1395.00</ele>
	<time>2025-04-29T09:56:33.000Z</time>
</trkpt>
<trkpt lat="45.9132620" lon="10.3399790">
	<ele>1394.80</ele>
	<time>2025-04-29T09:56:34.000Z</time>
</trkpt>
<trkpt lat="45.9132800" lon="10.3399880">
	<ele>1394.40</ele>
	<time>2025-04-29T09:56:35.000Z</time>
</trkpt>
<trkpt lat="45.9132820" lon="10.3399890">
	<ele>1394.20</ele>
	<time>2025-04-29T09:56:36.000Z</time>
</trkpt>
<trkpt lat="45.9132790" lon="10.3399990">
	<ele>1394.00</ele>
	<time>2025-04-29T09:56:37.000Z</time>
</trkpt>
<trkpt lat="45.9133280" lon="10.3400160">
	<ele>1394.00</ele>
	<time>2025-04-29T09:56:38.000Z</time>
</trkpt>
<trkpt lat="45.9133510" lon="10.3400340">
	<ele>1393.80</ele>
	<time>2025-04-29T09:56:39.000Z</time>
</trkpt>
<trkpt lat="45.9133650" lon="10.3400430">
	<ele>1393.60</ele>
	<time>2025-04-29T09:56:40.000Z</time>
</trkpt>
<trkpt lat="45.9133840" lon="10.3400450">
	<ele>1393.40</ele>
	<time>2025-04-29T09:56:41.000Z</time>
</trkpt>
<trkpt lat="45.9133930" lon="10.3400470">
	<ele>1393.20</ele>
	<time>2025-04-29T09:56:42.000Z</time>
</trkpt>
<trkpt lat="45.9134080" lon="10.3400670">
	<ele>1393.00</ele>
	<time>2025-04-29T09:56:43.000Z</time>
</trkpt>
<trkpt lat="45.9134230" lon="10.3400860">
	<ele>1392.60</ele>
	<time>2025-04-29T09:56:44.000Z</time>
</trkpt>
<trkpt lat="45.9134370" lon="10.3400920">
	<ele>1392.20</ele>
	<time>2025-04-29T09:56:45.000Z</time>
</trkpt>
<trkpt lat="45.9134380" lon="10.3400900">
	<ele>1392.00</ele>
	<time>2025-04-29T09:56:46.000Z</time>
</trkpt>
<trkpt lat="45.9134370" lon="10.3400900">
	<ele>1391.80</ele>
	<time>2025-04-29T09:56:47.000Z</time>
</trkpt>
<trkpt lat="45.9134410" lon="10.3400960">
	<ele>1391.40</ele>
	<time>2025-04-29T09:56:48.000Z</time>
</trkpt>
<trkpt lat="45.9134150" lon="10.3400980">
	<ele>1391.00</ele>
	<time>2025-04-29T09:56:49.000Z</time>
</trkpt>
<trkpt lat="45.9133970" lon="10.3401070">
	<ele>1390.80</ele>
	<time>2025-04-29T09:56:50.000Z</time>
</trkpt>
<trkpt lat="45.9133840" lon="10.3401150">
	<ele>1390.60</ele>
	<time>2025-04-29T09:56:51.000Z</time>
</trkpt>
<trkpt lat="45.9133810" lon="10.3401210">
	<ele>1390.60</ele>
	<time>2025-04-29T09:56:52.000Z</time>
</trkpt>
<trkpt lat="45.9133790" lon="10.3401210">
	<ele>1390.00</ele>
	<time>2025-04-29T09:56:53.000Z</time>
</trkpt>
<trkpt lat="45.9133830" lon="10.3401200">
	<ele>1389.80</ele>
	<time>2025-04-29T09:56:54.000Z</time>
</trkpt>
<trkpt lat="45.9133810" lon="10.3401120">
	<ele>1389.40</ele>
	<time>2025-04-29T09:56:55.000Z</time>
</trkpt>
<trkpt lat="45.9133750" lon="10.3401050">
	<ele>1389.20</ele>
	<time>2025-04-29T09:56:56.000Z</time>
</trkpt>
<trkpt lat="45.9133750" lon="10.3400960">
	<ele>1389.20</ele>
	<time>2025-04-29T09:56:57.000Z</time>
</trkpt>
<trkpt lat="45.9133730" lon="10.3400890">
	<ele>1388.80</ele>
	<time>2025-04-29T09:56:58.000Z</time>
</trkpt>
<trkpt lat="45.9133870" lon="10.3400950">
	<ele>1388.60</ele>
	<time>2025-04-29T09:56:59.000Z</time>
</trkpt>
<trkpt lat="45.9134030" lon="10.3401000">
	<ele>1388.40</ele>
	<time>2025-04-29T09:57:00.000Z</time>
</trkpt>
<trkpt lat="45.9134120" lon="10.3400970">
	<ele>1388.20</ele>
	<time>2025-04-29T09:57:01.000Z</time>
</trkpt>
<trkpt lat="45.9134130" lon="10.3400970">
	<ele>1388.20</ele>
	<time>2025-04-29T09:57:02.000Z</time>
</trkpt>
<trkpt lat="45.9134210" lon="10.3401010">
	<ele>1388.20</ele>
	<time>2025-04-29T09:57:03.000Z</time>
</trkpt>
<trkpt lat="45.9134220" lon="10.3401050">
	<ele>1388.20</ele>
	<time>2025-04-29T09:57:04.000Z</time>
</trkpt>
<trkpt lat="45.9134230" lon="10.3401080">
	<ele>1388.40</ele>
	<time>2025-04-29T09:57:05.000Z</time>
</trkpt>
<trkpt lat="45.9134220" lon="10.3401080">
	<ele>1388.40</ele>
	<time>2025-04-29T09:57:06.000Z</time>
</trkpt>
<trkpt lat="45.9134340" lon="10.3400840">
	<ele>1388.20</ele>
	<time>2025-04-29T09:57:07.000Z</time>
</trkpt>
<trkpt lat="45.9134440" lon="10.3400710">
	<ele>1388.00</ele>
	<time>2025-04-29T09:57:08.000Z</time>
</trkpt>
<trkpt lat="45.9134440" lon="10.3400630">
	<ele>1387.80</ele>
	<time>2025-04-29T09:57:09.000Z</time>
</trkpt>
<trkpt lat="45.9134420" lon="10.3400640">
	<ele>1387.80</ele>
	<time>2025-04-29T09:57:10.000Z</time>
</trkpt>
<trkpt lat="45.9134470" lon="10.3400550">
	<ele>1387.60</ele>
	<time>2025-04-29T09:57:11.000Z</time>
</trkpt>
<trkpt lat="45.9134450" lon="10.3400440">
	<ele>1387.60</ele>
	<time>2025-04-29T09:57:12.000Z</time>
</trkpt>
<trkpt lat="45.9134410" lon="10.3400390">
	<ele>1387.40</ele>
	<time>2025-04-29T09:57:13.000Z</time>
</trkpt>
<trkpt lat="45.9134420" lon="10.3400360">
	<ele>1387.20</ele>
	<time>2025-04-29T09:57:14.000Z</time>
</trkpt>
<trkpt lat="45.9134500" lon="10.3400270">
	<ele>1387.00</ele>
	<time>2025-04-29T09:57:15.000Z</time>
</trkpt>
<trkpt lat="45.9134610" lon="10.3400160">
	<ele>1386.60</ele>
	<time>2025-04-29T09:57:16.000Z</time>
</trkpt>
<trkpt lat="45.9134690" lon="10.3400120">
	<ele>1386.40</ele>
	<time>2025-04-29T09:57:17.000Z</time>
</trkpt>
<trkpt lat="45.9134720" lon="10.3400080">
	<ele>1386.20</ele>
	<time>2025-04-29T09:57:18.000Z</time>
</trkpt>
<trkpt lat="45.9134720" lon="10.3400080">
	<ele>1386.00</ele>
	<time>2025-04-29T09:57:19.000Z</time>
</trkpt>
<trkpt lat="45.9134760" lon="10.3399920">
	<ele>1385.80</ele>
	<time>2025-04-29T09:57:20.000Z</time>
</trkpt>
<trkpt lat="45.9134810" lon="10.3399840">
	<ele>1385.80</ele>
	<time>2025-04-29T09:57:21.000Z</time>
</trkpt>
<trkpt lat="45.9134840" lon="10.3399760">
	<ele>1385.80</ele>
	<time>2025-04-29T09:57:22.000Z</time>
</trkpt>
<trkpt lat="45.9134850" lon="10.3399770">
	<ele>1385.60</ele>
	<time>2025-04-29T09:57:23.000Z</time>
</trkpt>
<trkpt lat="45.9134910" lon="10.3399690">
	<ele>1385.60</ele>
	<time>2025-04-29T09:57:24.000Z</time>
</trkpt>
<trkpt lat="45.9134990" lon="10.3399570">
	<ele>1385.40</ele>
	<time>2025-04-29T09:57:25.000Z</time>
</trkpt>
<trkpt lat="45.9135200" lon="10.3399480">
	<ele>1385.40</ele>
	<time>2025-04-29T09:57:26.000Z</time>
</trkpt>
<trkpt lat="45.9135400" lon="10.3399300">
	<ele>1385.40</ele>
	<time>2025-04-29T09:57:27.000Z</time>
</trkpt>
<trkpt lat="45.9135560" lon="10.3399230">
	<ele>1385.20</ele>
	<time>2025-04-29T09:57:28.000Z</time>
</trkpt>
<trkpt lat="45.9135620" lon="10.3399160">
	<ele>1385.20</ele>
	<time>2025-04-29T09:57:29.000Z</time>
</trkpt>
<trkpt lat="45.9135620" lon="10.3399140">
	<ele>1385.20</ele>
	<time>2025-04-29T09:57:30.000Z</time>
</trkpt>
<trkpt lat="45.9135600" lon="10.3398990">
	<ele>1385.20</ele>
	<time>2025-04-29T09:57:31.000Z</time>
</trkpt>
<trkpt lat="45.9135530" lon="10.3398950">
	<ele>1385.20</ele>
	<time>2025-04-29T09:57:32.000Z</time>
</trkpt>
<trkpt lat="45.9135500" lon="10.3399040">
	<ele>1385.20</ele>
	<time>2025-04-29T09:57:33.000Z</time>
</trkpt>
<trkpt lat="45.9135490" lon="10.3399110">
	<ele>1385.20</ele>
	<time>2025-04-29T09:57:34.000Z</time>
</trkpt>
<trkpt lat="45.9135470" lon="10.3399110">
	<ele>1385.20</ele>
	<time>2025-04-29T09:57:35.000Z</time>
</trkpt>
<trkpt lat="45.9135500" lon="10.3398970">
	<ele>1385.00</ele>
	<time>2025-04-29T09:57:36.000Z</time>
</trkpt>
<trkpt lat="45.9135510" lon="10.3398840">
	<ele>1384.80</ele>
	<time>2025-04-29T09:57:37.000Z</time>
</trkpt>
<trkpt lat="45.9135520" lon="10.3398750">
	<ele>1384.60</ele>
	<time>2025-04-29T09:57:38.000Z</time>
</trkpt>
<trkpt lat="45.9135520" lon="10.3398690">
	<ele>1384.60</ele>
	<time>2025-04-29T09:57:39.000Z</time>
</trkpt>
<trkpt lat="45.9135570" lon="10.3398540">
	<ele>1384.20</ele>
	<time>2025-04-29T09:57:40.000Z</time>
</trkpt>
<trkpt lat="45.9135570" lon="10.3398480">
	<ele>1384.20</ele>
	<time>2025-04-29T09:57:41.000Z</time>
</trkpt>
<trkpt lat="45.9135570" lon="10.3398490">
	<ele>1384.00</ele>
	<time>2025-04-29T09:57:42.000Z</time>
</trkpt>
<trkpt lat="45.9135610" lon="10.3398350">
	<ele>1383.80</ele>
	<time>2025-04-29T09:57:43.000Z</time>
</trkpt>
<trkpt lat="45.9135630" lon="10.3398370">
	<ele>1383.80</ele>
	<time>2025-04-29T09:57:44.000Z</time>
</trkpt>
<trkpt lat="45.9135630" lon="10.3398370">
	<ele>1383.80</ele>
	<time>2025-04-29T09:57:45.000Z</time>
</trkpt>
<trkpt lat="45.9135590" lon="10.3398330">
	<ele>1383.80</ele>
	<time>2025-04-29T09:57:46.000Z</time>
</trkpt>
<trkpt lat="45.9135600" lon="10.3398350">
	<ele>1383.80</ele>
	<time>2025-04-29T09:57:47.000Z</time>
</trkpt>
<trkpt lat="45.9135580" lon="10.3398320">
	<ele>1383.80</ele>
	<time>2025-04-29T09:57:48.000Z</time>
</trkpt>
<trkpt lat="45.9135520" lon="10.3398570">
	<ele>1383.80</ele>
	<time>2025-04-29T09:57:49.000Z</time>
</trkpt>
<trkpt lat="45.9135430" lon="10.3398770">
	<ele>1384.00</ele>
	<time>2025-04-29T09:57:50.000Z</time>
</trkpt>
<trkpt lat="45.9135410" lon="10.3398810">
	<ele>1384.00</ele>
	<time>2025-04-29T09:57:51.000Z</time>
</trkpt>
<trkpt lat="45.9135390" lon="10.3398830">
	<ele>1384.00</ele>
	<time>2025-04-29T09:57:52.000Z</time>
</trkpt>
<trkpt lat="45.9135380" lon="10.3398450">
	<ele>1384.00</ele>
	<time>2025-04-29T09:57:53.000Z</time>
</trkpt>
<trkpt lat="45.9135410" lon="10.3398130">
	<ele>1384.00</ele>
	<time>2025-04-29T09:57:54.000Z</time>
</trkpt>
<trkpt lat="45.9135410" lon="10.3397870">
	<ele>1384.00</ele>
	<time>2025-04-29T09:57:55.000Z</time>
</trkpt>
<trkpt lat="45.9135400" lon="10.3397930">
	<ele>1384.00</ele>
	<time>2025-04-29T09:57:56.000Z</time>
</trkpt>
<trkpt lat="45.9135430" lon="10.3397840">
	<ele>1383.80</ele>
	<time>2025-04-29T09:57:57.000Z</time>
</trkpt>
<trkpt lat="45.9135490" lon="10.3397740">
	<ele>1383.40</ele>
	<time>2025-04-29T09:57:58.000Z</time>
</trkpt>
<trkpt lat="45.9135520" lon="10.3397670">
	<ele>1383.00</ele>
	<time>2025-04-29T09:57:59.000Z</time>
</trkpt>
<trkpt lat="45.9135510" lon="10.3397630">
	<ele>1382.80</ele>
	<time>2025-04-29T09:58:00.000Z</time>
</trkpt>
<trkpt lat="45.9135550" lon="10.3397560">
	<ele>1382.60</ele>
	<time>2025-04-29T09:58:01.000Z</time>
</trkpt>
<trkpt lat="45.9135530" lon="10.3397510">
	<ele>1382.40</ele>
	<time>2025-04-29T09:58:02.000Z</time>
</trkpt>
<trkpt lat="45.9135470" lon="10.3397460">
	<ele>1382.20</ele>
	<time>2025-04-29T09:58:03.000Z</time>
</trkpt>
<trkpt lat="45.9135540" lon="10.3397420">
	<ele>1382.00</ele>
	<time>2025-04-29T09:58:04.000Z</time>
</trkpt>
<trkpt lat="45.9135650" lon="10.3397450">
	<ele>1381.80</ele>
	<time>2025-04-29T09:58:05.000Z</time>
</trkpt>
<trkpt lat="45.9135730" lon="10.3397450">
	<ele>1381.80</ele>
	<time>2025-04-29T09:58:06.000Z</time>
</trkpt>
<trkpt lat="45.9135770" lon="10.3397450">
	<ele>1381.60</ele>
	<time>2025-04-29T09:58:07.000Z</time>
</trkpt>
<trkpt lat="45.9135770" lon="10.3397410">
	<ele>1381.60</ele>
	<time>2025-04-29T09:58:08.000Z</time>
</trkpt>
<trkpt lat="45.9135770" lon="10.3397380">
	<ele>1381.60</ele>
	<time>2025-04-29T09:58:09.000Z</time>
</trkpt>
<trkpt lat="45.9135780" lon="10.3397400">
	<ele>1381.60</ele>
	<time>2025-04-29T09:58:10.000Z</time>
</trkpt>
<trkpt lat="45.9135840" lon="10.3397370">
	<ele>1381.60</ele>
	<time>2025-04-29T09:58:11.000Z</time>
</trkpt>
<trkpt lat="45.9135880" lon="10.3397310">
	<ele>1381.60</ele>
	<time>2025-04-29T09:58:12.000Z</time>
</trkpt>
<trkpt lat="45.9135910" lon="10.3397290">
	<ele>1381.60</ele>
	<time>2025-04-29T09:58:13.000Z</time>
</trkpt>
<trkpt lat="45.9135940" lon="10.3397270">
	<ele>1381.60</ele>
	<time>2025-04-29T09:58:14.000Z</time>
</trkpt>
<trkpt lat="45.9135940" lon="10.3397270">
	<ele>1381.60</ele>
	<time>2025-04-29T09:58:15.000Z</time>
</trkpt>
<trkpt lat="45.9135940" lon="10.3397270">
	<ele>1381.60</ele>
	<time>2025-04-29T09:58:16.000Z</time>
</trkpt>
<trkpt lat="45.9135940" lon="10.3397270">
	<ele>1381.60</ele>
	<time>2025-04-29T09:58:17.000Z</time>
</trkpt>
<trkpt lat="45.9135940" lon="10.3397270">
	<ele>1381.60</ele>
	<time>2025-04-29T09:58:18.000Z</time>
</trkpt>
<trkpt lat="45.9135940" lon="10.3397270">
	<ele>1381.60</ele>
	<time>2025-04-29T09:58:19.000Z</time>
</trkpt>
<trkpt lat="45.9135940" lon="10.3397270">
	<ele>1381.60</ele>
	<time>2025-04-29T09:58:20.000Z</time>
</trkpt>
<trkpt lat="45.9135940" lon="10.3397270">
	<ele>1381.60</ele>
	<time>2025-04-29T09:58:21.000Z</time>
</trkpt>
<trkpt lat="45.9135910" lon="10.3397240">
	<ele>1381.40</ele>
	<time>2025-04-29T09:58:22.000Z</time>
</trkpt>
<trkpt lat="45.9135760" lon="10.3397040">
	<ele>1381.20</ele>
	<time>2025-04-29T09:58:23.000Z</time>
</trkpt>
<trkpt lat="45.9135640" lon="10.3396990">
	<ele>1381.00</ele>
	<time>2025-04-29T09:58:24.000Z</time>
</trkpt>
<trkpt lat="45.9135650" lon="10.3397000">
	<ele>1380.80</ele>
	<time>2025-04-29T09:58:25.000Z</time>
</trkpt>
<trkpt lat="45.9135520" lon="10.3396900">
	<ele>1380.60</ele>
	<time>2025-04-29T09:58:26.000Z</time>
</trkpt>
<trkpt lat="45.9135450" lon="10.3396720">
	<ele>1380.60</ele>
	<time>2025-04-29T09:58:27.000Z</time>
</trkpt>
<trkpt lat="45.9135470" lon="10.3396470">
	<ele>1380.20</ele>
	<time>2025-04-29T09:58:28.000Z</time>
</trkpt>
<trkpt lat="45.9135550" lon="10.3396380">
	<ele>1380.00</ele>
	<time>2025-04-29T09:58:29.000Z</time>
</trkpt>
<trkpt lat="45.9135520" lon="10.3396190">
	<ele>1379.80</ele>
	<time>2025-04-29T09:58:30.000Z</time>
</trkpt>
<trkpt lat="45.9135390" lon="10.3395950">
	<ele>1379.60</ele>
	<time>2025-04-29T09:58:31.000Z</time>
</trkpt>
<trkpt lat="45.9135400" lon="10.3395850">
	<ele>1379.40</ele>
	<time>2025-04-29T09:58:32.000Z</time>
</trkpt>
<trkpt lat="45.9135360" lon="10.3395680">
	<ele>1379.20</ele>
	<time>2025-04-29T09:58:33.000Z</time>
</trkpt>
<trkpt lat="45.9135400" lon="10.3395550">
	<ele>1379.20</ele>
	<time>2025-04-29T09:58:34.000Z</time>
</trkpt>
<trkpt lat="45.9135320" lon="10.3395390">
	<ele>1379.00</ele>
	<time>2025-04-29T09:58:35.000Z</time>
</trkpt>
<trkpt lat="45.9135300" lon="10.3395250">
	<ele>1379.00</ele>
	<time>2025-04-29T09:58:36.000Z</time>
</trkpt>
<trkpt lat="45.9135410" lon="10.3395160">
	<ele>1379.00</ele>
	<time>2025-04-29T09:58:37.000Z</time>
</trkpt>
<trkpt lat="45.9135420" lon="10.3394910">
	<ele>1379.00</ele>
	<time>2025-04-29T09:58:38.000Z</time>
</trkpt>
<trkpt lat="45.9135350" lon="10.3394660">
	<ele>1378.80</ele>
	<time>2025-04-29T09:58:39.000Z</time>
</trkpt>
<trkpt lat="45.9135230" lon="10.3394470">
	<ele>1378.80</ele>
	<time>2025-04-29T09:58:40.000Z</time>
</trkpt>
<trkpt lat="45.9135160" lon="10.3394290">
	<ele>1378.80</ele>
	<time>2025-04-29T09:58:41.000Z</time>
</trkpt>
<trkpt lat="45.9135100" lon="10.3394130">
	<ele>1378.80</ele>
	<time>2025-04-29T09:58:42.000Z</time>
</trkpt>
<trkpt lat="45.9134940" lon="10.3393860">
	<ele>1378.60</ele>
	<time>2025-04-29T09:58:43.000Z</time>
</trkpt>
<trkpt lat="45.9134950" lon="10.3393600">
	<ele>1378.40</ele>
	<time>2025-04-29T09:58:44.000Z</time>
</trkpt>
<trkpt lat="45.9135000" lon="10.3393260">
	<ele>1378.40</ele>
	<time>2025-04-29T09:58:45.000Z</time>
</trkpt>
<trkpt lat="45.9135070" lon="10.3392990">
	<ele>1378.00</ele>
	<time>2025-04-29T09:58:46.000Z</time>
</trkpt>
<trkpt lat="45.9135080" lon="10.3392780">
	<ele>1377.60</ele>
	<time>2025-04-29T09:58:47.000Z</time>
</trkpt>
<trkpt lat="45.9135150" lon="10.3392700">
	<ele>1377.40</ele>
	<time>2025-04-29T09:58:48.000Z</time>
</trkpt>
<trkpt lat="45.9135210" lon="10.3392500">
	<ele>1377.20</ele>
	<time>2025-04-29T09:58:49.000Z</time>
</trkpt>
<trkpt lat="45.9135240" lon="10.3392270">
	<ele>1377.00</ele>
	<time>2025-04-29T09:58:50.000Z</time>
</trkpt>
<trkpt lat="45.9135250" lon="10.3392070">
	<ele>1377.00</ele>
	<time>2025-04-29T09:58:51.000Z</time>
</trkpt>
<trkpt lat="45.9135280" lon="10.3391890">
	<ele>1376.80</ele>
	<time>2025-04-29T09:58:52.000Z</time>
</trkpt>
<trkpt lat="45.9135370" lon="10.3391620">
	<ele>1376.80</ele>
	<time>2025-04-29T09:58:53.000Z</time>
</trkpt>
<trkpt lat="45.9135470" lon="10.3391370">
	<ele>1376.60</ele>
	<time>2025-04-29T09:58:54.000Z</time>
</trkpt>
<trkpt lat="45.9135410" lon="10.3391100">
	<ele>1376.20</ele>
	<time>2025-04-29T09:58:55.000Z</time>
</trkpt>
<trkpt lat="45.9135320" lon="10.3390870">
	<ele>1376.00</ele>
	<time>2025-04-29T09:58:56.000Z</time>
</trkpt>
<trkpt lat="45.9135250" lon="10.3390660">
	<ele>1376.00</ele>
	<time>2025-04-29T09:58:57.000Z</time>
</trkpt>
<trkpt lat="45.9135160" lon="10.3390500">
	<ele>1375.80</ele>
	<time>2025-04-29T09:58:58.000Z</time>
</trkpt>
<trkpt lat="45.9135090" lon="10.3390430">
	<ele>1375.80</ele>
	<time>2025-04-29T09:58:59.000Z</time>
</trkpt>
<trkpt lat="45.9135030" lon="10.3390310">
	<ele>1375.60</ele>
	<time>2025-04-29T09:59:00.000Z</time>
</trkpt>
<trkpt lat="45.9135020" lon="10.3390220">
	<ele>1375.40</ele>
	<time>2025-04-29T09:59:01.000Z</time>
</trkpt>
<trkpt lat="45.9134970" lon="10.3390060">
	<ele>1375.40</ele>
	<time>2025-04-29T09:59:02.000Z</time>
</trkpt>
<trkpt lat="45.9134920" lon="10.3389900">
	<ele>1375.20</ele>
	<time>2025-04-29T09:59:03.000Z</time>
</trkpt>
<trkpt lat="45.9134850" lon="10.3389730">
	<ele>1375.20</ele>
	<time>2025-04-29T09:59:04.000Z</time>
</trkpt>
<trkpt lat="45.9134700" lon="10.3389630">
	<ele>1374.80</ele>
	<time>2025-04-29T09:59:05.000Z</time>
</trkpt>
<trkpt lat="45.9134560" lon="10.3389570">
	<ele>1374.80</ele>
	<time>2025-04-29T09:59:06.000Z</time>
</trkpt>
<trkpt lat="45.9134480" lon="10.3389570">
	<ele>1374.60</ele>
	<time>2025-04-29T09:59:07.000Z</time>
</trkpt>
<trkpt lat="45.9134420" lon="10.3389470">
	<ele>1374.60</ele>
	<time>2025-04-29T09:59:08.000Z</time>
</trkpt>
<trkpt lat="45.9134320" lon="10.3389330">
	<ele>1374.60</ele>
	<time>2025-04-29T09:59:09.000Z</time>
</trkpt>
<trkpt lat="45.9134240" lon="10.3389060">
	<ele>1374.40</ele>
	<time>2025-04-29T09:59:10.000Z</time>
</trkpt>
<trkpt lat="45.9134120" lon="10.3388960">
	<ele>1374.20</ele>
	<time>2025-04-29T09:59:11.000Z</time>
</trkpt>
<trkpt lat="45.9133970" lon="10.3388910">
	<ele>1373.80</ele>
	<time>2025-04-29T09:59:12.000Z</time>
</trkpt>
<trkpt lat="45.9133820" lon="10.3388790">
	<ele>1373.40</ele>
	<time>2025-04-29T09:59:13.000Z</time>
</trkpt>
<trkpt lat="45.9133730" lon="10.3388740">
	<ele>1373.00</ele>
	<time>2025-04-29T09:59:14.000Z</time>
</trkpt>
<trkpt lat="45.9133700" lon="10.3388730">
	<ele>1372.80</ele>
	<time>2025-04-29T09:59:15.000Z</time>
</trkpt>
<trkpt lat="45.9133610" lon="10.3388650">
	<ele>1372.60</ele>
	<time>2025-04-29T09:59:16.000Z</time>
</trkpt>
<trkpt lat="45.9133490" lon="10.3388600">
	<ele>1372.40</ele>
	<time>2025-04-29T09:59:17.000Z</time>
</trkpt>
<trkpt lat="45.9133350" lon="10.3388630">
	<ele>1372.40</ele>
	<time>2025-04-29T09:59:18.000Z</time>
</trkpt>
<trkpt lat="45.9133230" lon="10.3388630">
	<ele>1372.00</ele>
	<time>2025-04-29T09:59:19.000Z</time>
</trkpt>
<trkpt lat="45.9133080" lon="10.3388670">
	<ele>1371.60</ele>
	<time>2025-04-29T09:59:20.000Z</time>
</trkpt>
<trkpt lat="45.9132940" lon="10.3388670">
	<ele>1371.40</ele>
	<time>2025-04-29T09:59:21.000Z</time>
</trkpt>
<trkpt lat="45.9132850" lon="10.3388640">
	<ele>1371.00</ele>
	<time>2025-04-29T09:59:22.000Z</time>
</trkpt>
<trkpt lat="45.9132740" lon="10.3388620">
	<ele>1370.80</ele>
	<time>2025-04-29T09:59:23.000Z</time>
</trkpt>
<trkpt lat="45.9132610" lon="10.3388560">
	<ele>1370.60</ele>
	<time>2025-04-29T09:59:24.000Z</time>
</trkpt>
<trkpt lat="45.9132500" lon="10.3388500">
	<ele>1370.40</ele>
	<time>2025-04-29T09:59:25.000Z</time>
</trkpt>
<trkpt lat="45.9132410" lon="10.3388330">
	<ele>1370.20</ele>
	<time>2025-04-29T09:59:26.000Z</time>
</trkpt>
<trkpt lat="45.9132290" lon="10.3388100">
	<ele>1370.00</ele>
	<time>2025-04-29T09:59:27.000Z</time>
</trkpt>
<trkpt lat="45.9132120" lon="10.3387860">
	<ele>1369.80</ele>
	<time>2025-04-29T09:59:28.000Z</time>
</trkpt>
<trkpt lat="45.9131970" lon="10.3387700">
	<ele>1369.80</ele>
	<time>2025-04-29T09:59:29.000Z</time>
</trkpt>
<trkpt lat="45.9131910" lon="10.3387520">
	<ele>1369.40</ele>
	<time>2025-04-29T09:59:30.000Z</time>
</trkpt>
<trkpt lat="45.9131860" lon="10.3387310">
	<ele>1369.20</ele>
	<time>2025-04-29T09:59:31.000Z</time>
</trkpt>
<trkpt lat="45.9131840" lon="10.3387210">
	<ele>1369.00</ele>
	<time>2025-04-29T09:59:32.000Z</time>
</trkpt>
<trkpt lat="45.9131820" lon="10.3387080">
	<ele>1369.00</ele>
	<time>2025-04-29T09:59:33.000Z</time>
</trkpt>
<trkpt lat="45.9131720" lon="10.3387050">
	<ele>1368.80</ele>
	<time>2025-04-29T09:59:34.000Z</time>
</trkpt>
<trkpt lat="45.9131650" lon="10.3386980">
	<ele>1368.80</ele>
	<time>2025-04-29T09:59:35.000Z</time>
</trkpt>
<trkpt lat="45.9131550" lon="10.3386900">
	<ele>1368.60</ele>
	<time>2025-04-29T09:59:36.000Z</time>
</trkpt>
<trkpt lat="45.9131390" lon="10.3386780">
	<ele>1368.40</ele>
	<time>2025-04-29T09:59:37.000Z</time>
</trkpt>
<trkpt lat="45.9131320" lon="10.3386740">
	<ele>1368.20</ele>
	<time>2025-04-29T09:59:38.000Z</time>
</trkpt>
<trkpt lat="45.9131310" lon="10.3386810">
	<ele>1368.20</ele>
	<time>2025-04-29T09:59:39.000Z</time>
</trkpt>
<trkpt lat="45.9131260" lon="10.3386830">
	<ele>1368.20</ele>
	<time>2025-04-29T09:59:40.000Z</time>
</trkpt>
<trkpt lat="45.9131260" lon="10.3386800">
	<ele>1368.20</ele>
	<time>2025-04-29T09:59:41.000Z</time>
</trkpt>
<trkpt lat="45.9131240" lon="10.3386790">
	<ele>1368.00</ele>
	<time>2025-04-29T09:59:42.000Z</time>
</trkpt>
<trkpt lat="45.9131190" lon="10.3386700">
	<ele>1368.00</ele>
	<time>2025-04-29T09:59:43.000Z</time>
</trkpt>
<trkpt lat="45.9131100" lon="10.3386490">
	<ele>1368.00</ele>
	<time>2025-04-29T09:59:44.000Z</time>
</trkpt>
<trkpt lat="45.9130920" lon="10.3386150">
	<ele>1368.00</ele>
	<time>2025-04-29T09:59:45.000Z</time>
</trkpt>
<trkpt lat="45.9130730" lon="10.3385940">
	<ele>1368.00</ele>
	<time>2025-04-29T09:59:46.000Z</time>
</trkpt>
<trkpt lat="45.9130540" lon="10.3385760">
	<ele>1368.00</ele>
	<time>2025-04-29T09:59:47.000Z</time>
</trkpt>
<trkpt lat="45.9130480" lon="10.3385710">
	<ele>1368.00</ele>
	<time>2025-04-29T09:59:48.000Z</time>
</trkpt>
<trkpt lat="45.9130370" lon="10.3385590">
	<ele>1368.00</ele>
	<time>2025-04-29T09:59:49.000Z</time>
</trkpt>
<trkpt lat="45.9130320" lon="10.3385440">
	<ele>1368.00</ele>
	<time>2025-04-29T09:59:50.000Z</time>
</trkpt>
<trkpt lat="45.9130340" lon="10.3385230">
	<ele>1368.00</ele>
	<time>2025-04-29T09:59:51.000Z</time>
</trkpt>
<trkpt lat="45.9130320" lon="10.3385270">
	<ele>1368.00</ele>
	<time>2025-04-29T09:59:52.000Z</time>
</trkpt>
<trkpt lat="45.9130210" lon="10.3385240">
	<ele>1367.80</ele>
	<time>2025-04-29T09:59:53.000Z</time>
</trkpt>
<trkpt lat="45.9130120" lon="10.3385240">
	<ele>1367.60</ele>
	<time>2025-04-29T09:59:54.000Z</time>
</trkpt>
<trkpt lat="45.9130030" lon="10.3385270">
	<ele>1367.40</ele>
	<time>2025-04-29T09:59:55.000Z</time>
</trkpt>
<trkpt lat="45.9129960" lon="10.3385300">
	<ele>1367.40</ele>
	<time>2025-04-29T09:59:56.000Z</time>
</trkpt>
<trkpt lat="45.9129840" lon="10.3385280">
	<ele>1367.20</ele>
	<time>2025-04-29T09:59:57.000Z</time>
</trkpt>
<trkpt lat="45.9129720" lon="10.3385150">
	<ele>1367.00</ele>
	<time>2025-04-29T09:59:58.000Z</time>
</trkpt>
<trkpt lat="45.9129610" lon="10.3385090">
	<ele>1367.00</ele>
	<time>2025-04-29T09:59:59.000Z</time>
</trkpt>
<trkpt lat="45.9129510" lon="10.3385030">
	<ele>1366.80</ele>
	<time>2025-04-29T10:00:00.000Z</time>
</trkpt>
<trkpt lat="45.9129500" lon="10.3384980">
	<ele>1366.60</ele>
	<time>2025-04-29T10:00:01.000Z</time>
</trkpt>
<trkpt lat="45.9128960" lon="10.3384760">
	<ele>1366.00</ele>
	<time>2025-04-29T10:00:02.000Z</time>
</trkpt>
<trkpt lat="45.9128810" lon="10.3384640">
	<ele>1365.80</ele>
	<time>2025-04-29T10:00:03.000Z</time>
</trkpt>
<trkpt lat="45.9128670" lon="10.3384570">
	<ele>1365.40</ele>
	<time>2025-04-29T10:00:04.000Z</time>
</trkpt>
<trkpt lat="45.9128520" lon="10.3384570">
	<ele>1365.20</ele>
	<time>2025-04-29T10:00:05.000Z</time>
</trkpt>
<trkpt lat="45.9128360" lon="10.3384570">
	<ele>1365.00</ele>
	<time>2025-04-29T10:00:06.000Z</time>
</trkpt>
<trkpt lat="45.9128200" lon="10.3384570">
	<ele>1364.80</ele>
	<time>2025-04-29T10:00:07.000Z</time>
</trkpt>
<trkpt lat="45.9128090" lon="10.3384580">
	<ele>1364.40</ele>
	<time>2025-04-29T10:00:08.000Z</time>
</trkpt>
<trkpt lat="45.9127960" lon="10.3384330">
	<ele>1364.00</ele>
	<time>2025-04-29T10:00:09.000Z</time>
</trkpt>
<trkpt lat="45.9127880" lon="10.3384180">
	<ele>1363.80</ele>
	<time>2025-04-29T10:00:10.000Z</time>
</trkpt>
<trkpt lat="45.9127830" lon="10.3384210">
	<ele>1363.60</ele>
	<time>2025-04-29T10:00:11.000Z</time>
</trkpt>
<trkpt lat="45.9127790" lon="10.3384200">
	<ele>1363.40</ele>
	<time>2025-04-29T10:00:12.000Z</time>
</trkpt>
<trkpt lat="45.9127670" lon="10.3384130">
	<ele>1363.20</ele>
	<time>2025-04-29T10:00:13.000Z</time>
</trkpt>
<trkpt lat="45.9127470" lon="10.3383970">
	<ele>1363.00</ele>
	<time>2025-04-29T10:00:14.000Z</time>
</trkpt>
<trkpt lat="45.9127310" lon="10.3383870">
	<ele>1362.80</ele>
	<time>2025-04-29T10:00:15.000Z</time>
</trkpt>
<trkpt lat="45.9127200" lon="10.3383760">
	<ele>1362.60</ele>
	<time>2025-04-29T10:00:16.000Z</time>
</trkpt>
<trkpt lat="45.9127140" lon="10.3383870">
	<ele>1362.40</ele>
	<time>2025-04-29T10:00:17.000Z</time>
</trkpt>
<trkpt lat="45.9127050" lon="10.3383850">
	<ele>1362.20</ele>
	<time>2025-04-29T10:00:18.000Z</time>
</trkpt>
<trkpt lat="45.9127010" lon="10.3383850">
	<ele>1362.20</ele>
	<time>2025-04-29T10:00:19.000Z</time>
</trkpt>
<trkpt lat="45.9127180" lon="10.3383640">
	<ele>1362.00</ele>
	<time>2025-04-29T10:00:20.000Z</time>
</trkpt>
<trkpt lat="45.9127220" lon="10.3383400">
	<ele>1361.80</ele>
	<time>2025-04-29T10:00:21.000Z</time>
</trkpt>
<trkpt lat="45.9127180" lon="10.3383180">
	<ele>1361.60</ele>
	<time>2025-04-29T10:00:22.000Z</time>
</trkpt>
<trkpt lat="45.9127090" lon="10.3383030">
	<ele>1361.40</ele>
	<time>2025-04-29T10:00:23.000Z</time>
</trkpt>
<trkpt lat="45.9127020" lon="10.3382890">
	<ele>1361.20</ele>
	<time>2025-04-29T10:00:24.000Z</time>
</trkpt>
<trkpt lat="45.9126900" lon="10.3382630">
	<ele>1360.60</ele>
	<time>2025-04-29T10:00:27.000Z</time>
</trkpt>
<trkpt lat="45.9126950" lon="10.3382830">
	<ele>1360.60</ele>
	<time>2025-04-29T10:00:28.000Z</time>
</trkpt>
<trkpt lat="45.9127030" lon="10.3382920">
	<ele>1360.60</ele>
	<time>2025-04-29T10:00:29.000Z</time>
</trkpt>
<trkpt lat="45.9127040" lon="10.3382730">
	<ele>1360.60</ele>
	<time>2025-04-29T10:00:30.000Z</time>
</trkpt>
<trkpt lat="45.9126910" lon="10.3382560">
	<ele>1360.60</ele>
	<time>2025-04-29T10:00:31.000Z</time>
</trkpt>
<trkpt lat="45.9126810" lon="10.3382480">
	<ele>1360.20</ele>
	<time>2025-04-29T10:00:32.000Z</time>
</trkpt>
<trkpt lat="45.9126560" lon="10.3382140">
	<ele>1360.00</ele>
	<time>2025-04-29T10:00:33.000Z</time>
</trkpt>
<trkpt lat="45.9126420" lon="10.3381940">
	<ele>1360.00</ele>
	<time>2025-04-29T10:00:34.000Z</time>
</trkpt>
<trkpt lat="45.9126340" lon="10.3381640">
	<ele>1360.00</ele>
	<time>2025-04-29T10:00:35.000Z</time>
</trkpt>
<trkpt lat="45.9126340" lon="10.3381550">
	<ele>1359.80</ele>
	<time>2025-04-29T10:00:36.000Z</time>
</trkpt>
<trkpt lat="45.9126380" lon="10.3381610">
	<ele>1359.80</ele>
	<time>2025-04-29T10:00:37.000Z</time>
</trkpt>
<trkpt lat="45.9126470" lon="10.3381330">
	<ele>1359.60</ele>
	<time>2025-04-29T10:00:38.000Z</time>
</trkpt>
<trkpt lat="45.9126590" lon="10.3381070">
	<ele>1359.40</ele>
	<time>2025-04-29T10:00:39.000Z</time>
</trkpt>
<trkpt lat="45.9126490" lon="10.3380560">
	<ele>1359.40</ele>
	<time>2025-04-29T10:00:40.000Z</time>
</trkpt>
<trkpt lat="45.9126100" lon="10.3379990">
	<ele>1359.40</ele>
	<time>2025-04-29T10:00:41.000Z</time>
</trkpt>
<trkpt lat="45.9125870" lon="10.3379530">
	<ele>1359.20</ele>
	<time>2025-04-29T10:00:42.000Z</time>
</trkpt>
<trkpt lat="45.9125800" lon="10.3378970">
	<ele>1359.00</ele>
	<time>2025-04-29T10:00:43.000Z</time>
</trkpt>
<trkpt lat="45.9125670" lon="10.3378400">
	<ele>1359.00</ele>
	<time>2025-04-29T10:00:44.000Z</time>
</trkpt>
<trkpt lat="45.9125680" lon="10.3378250">
	<ele>1358.60</ele>
	<time>2025-04-29T10:00:45.000Z</time>
</trkpt>
<trkpt lat="45.9125730" lon="10.3378130">
	<ele>1358.40</ele>
	<time>2025-04-29T10:00:46.000Z</time>
</trkpt>
<trkpt lat="45.9125900" lon="10.3378240">
	<ele>1358.20</ele>
	<time>2025-04-29T10:00:47.000Z</time>
</trkpt>
<trkpt lat="45.9126010" lon="10.3378140">
	<ele>1358.20</ele>
	<time>2025-04-29T10:00:48.000Z</time>
</trkpt>
<trkpt lat="45.9126090" lon="10.3378200">
	<ele>1358.00</ele>
	<time>2025-04-29T10:00:49.000Z</time>
</trkpt>
<trkpt lat="45.9125990" lon="10.3378080">
	<ele>1357.80</ele>
	<time>2025-04-29T10:00:50.000Z</time>
</trkpt>
<trkpt lat="45.9125980" lon="10.3378080">
	<ele>1357.60</ele>
	<time>2025-04-29T10:00:51.000Z</time>
</trkpt>
<trkpt lat="45.9126020" lon="10.3378200">
	<ele>1357.40</ele>
	<time>2025-04-29T10:00:52.000Z</time>
</trkpt>
<trkpt lat="45.9126040" lon="10.3378230">
	<ele>1357.20</ele>
	<time>2025-04-29T10:00:53.000Z</time>
</trkpt>
<trkpt lat="45.9125980" lon="10.3377600">
	<ele>1357.20</ele>
	<time>2025-04-29T10:00:54.000Z</time>
</trkpt>
<trkpt lat="45.9125870" lon="10.3376770">
	<ele>1357.00</ele>
	<time>2025-04-29T10:00:55.000Z</time>
</trkpt>
<trkpt lat="45.9125750" lon="10.3376040">
	<ele>1356.60</ele>
	<time>2025-04-29T10:00:56.000Z</time>
</trkpt>
<trkpt lat="45.9125620" lon="10.3375370">
	<ele>1356.40</ele>
	<time>2025-04-29T10:00:57.000Z</time>
</trkpt>
<trkpt lat="45.9125530" lon="10.3374840">
	<ele>1356.40</ele>
	<time>2025-04-29T10:00:58.000Z</time>
</trkpt>
<trkpt lat="45.9125540" lon="10.3374420">
	<ele>1356.20</ele>
	<time>2025-04-29T10:00:59.000Z</time>
</trkpt>
<trkpt lat="45.9125540" lon="10.3374040">
	<ele>1356.20</ele>
	<time>2025-04-29T10:01:00.000Z</time>
</trkpt>
<trkpt lat="45.9125560" lon="10.3373840">
	<ele>1356.00</ele>
	<time>2025-04-29T10:01:01.000Z</time>
</trkpt>
<trkpt lat="45.9125080" lon="10.3373420">
	<ele>1356.00</ele>
	<time>2025-04-29T10:01:02.000Z</time>
</trkpt>
<trkpt lat="45.9125130" lon="10.3374140">
	<ele>1356.00</ele>
	<time>2025-04-29T10:01:03.000Z</time>
</trkpt>
<trkpt lat="45.9125250" lon="10.3373530">
	<ele>1356.00</ele>
	<time>2025-04-29T10:01:04.000Z</time>
</trkpt>
<trkpt lat="45.9125430" lon="10.3373430">
	<ele>1355.80</ele>
	<time>2025-04-29T10:01:05.000Z</time>
</trkpt>
<trkpt lat="45.9125510" lon="10.3373180">
	<ele>1355.80</ele>
	<time>2025-04-29T10:01:06.000Z</time>
</trkpt>
<trkpt lat="45.9125600" lon="10.3372940">
	<ele>1355.80</ele>
	<time>2025-04-29T10:01:07.000Z</time>
</trkpt>
<trkpt lat="45.9125640" lon="10.3372550">
	<ele>1355.80</ele>
	<time>2025-04-29T10:01:08.000Z</time>
</trkpt>
<trkpt lat="45.9125740" lon="10.3372480">
	<ele>1355.80</ele>
	<time>2025-04-29T10:01:09.000Z</time>
</trkpt>
<trkpt lat="45.9125810" lon="10.3372280">
	<ele>1355.80</ele>
	<time>2025-04-29T10:01:10.000Z</time>
</trkpt>
<trkpt lat="45.9125910" lon="10.3372120">
	<ele>1355.80</ele>
	<time>2025-04-29T10:01:11.000Z</time>
</trkpt>
<trkpt lat="45.9126010" lon="10.3371990">
	<ele>1356.00</ele>
	<time>2025-04-29T10:01:12.000Z</time>
</trkpt>
<trkpt lat="45.9125980" lon="10.3371940">
	<ele>1356.00</ele>
	<time>2025-04-29T10:01:13.000Z</time>
</trkpt>
<trkpt lat="45.9126060" lon="10.3372380">
	<ele>1356.20</ele>
	<time>2025-04-29T10:01:14.000Z</time>
</trkpt>
<trkpt lat="45.9126140" lon="10.3372740">
	<ele>1356.20</ele>
	<time>2025-04-29T10:01:15.000Z</time>
</trkpt>
<trkpt lat="45.9126150" lon="10.3372770">
	<ele>1356.40</ele>
	<time>2025-04-29T10:01:16.000Z</time>
</trkpt>
<trkpt lat="45.9126060" lon="10.3372560">
	<ele>1356.40</ele>
	<time>2025-04-29T10:01:17.000Z</time>
</trkpt>
<trkpt lat="45.9126040" lon="10.3372290">
	<ele>1356.40</ele>
	<time>2025-04-29T10:01:18.000Z</time>
</trkpt>
<trkpt lat="45.9126130" lon="10.3372070">
	<ele>1356.40</ele>
	<time>2025-04-29T10:01:19.000Z</time>
</trkpt>
<trkpt lat="45.9126240" lon="10.3371880">
	<ele>1356.20</ele>
	<time>2025-04-29T10:01:20.000Z</time>
</trkpt>
<trkpt lat="45.9126180" lon="10.3371680">
	<ele>1356.20</ele>
	<time>2025-04-29T10:01:21.000Z</time>
</trkpt>
<trkpt lat="45.9126250" lon="10.3371350">
	<ele>1356.00</ele>
	<time>2025-04-29T10:01:22.000Z</time>
</trkpt>
<trkpt lat="45.9126340" lon="10.3371160">
	<ele>1355.80</ele>
	<time>2025-04-29T10:01:23.000Z</time>
</trkpt>
<trkpt lat="45.9126390" lon="10.3371070">
	<ele>1355.60</ele>
	<time>2025-04-29T10:01:24.000Z</time>
</trkpt>
<trkpt lat="45.9126470" lon="10.3370840">
	<ele>1355.40</ele>
	<time>2025-04-29T10:01:25.000Z</time>
</trkpt>
<trkpt lat="45.9126450" lon="10.3370660">
	<ele>1355.20</ele>
	<time>2025-04-29T10:01:26.000Z</time>
</trkpt>
<trkpt lat="45.9126360" lon="10.3370390">
	<ele>1355.00</ele>
	<time>2025-04-29T10:01:27.000Z</time>
</trkpt>
<trkpt lat="45.9126510" lon="10.3370520">
	<ele>1354.80</ele>
	<time>2025-04-29T10:01:28.000Z</time>
</trkpt>
<trkpt lat="45.9126500" lon="10.3370480">
	<ele>1354.60</ele>
	<time>2025-04-29T10:01:29.000Z</time>
</trkpt>
<trkpt lat="45.9126470" lon="10.3370360">
	<ele>1354.60</ele>
	<time>2025-04-29T10:01:30.000Z</time>
</trkpt>
<trkpt lat="45.9126520" lon="10.3370280">
	<ele>1354.40</ele>
	<time>2025-04-29T10:01:31.000Z</time>
</trkpt>
<trkpt lat="45.9126640" lon="10.3370340">
	<ele>1354.20</ele>
	<time>2025-04-29T10:01:32.000Z</time>
</trkpt>
<trkpt lat="45.9126660" lon="10.3370240">
	<ele>1354.00</ele>
	<time>2025-04-29T10:01:33.000Z</time>
</trkpt>
<trkpt lat="45.9126750" lon="10.3370120">
	<ele>1354.00</ele>
	<time>2025-04-29T10:01:34.000Z</time>
</trkpt>
<trkpt lat="45.9126760" lon="10.3369970">
	<ele>1353.80</ele>
	<time>2025-04-29T10:01:35.000Z</time>
</trkpt>
<trkpt lat="45.9126640" lon="10.3369690">
	<ele>1353.80</ele>
	<time>2025-04-29T10:01:36.000Z</time>
</trkpt>
<trkpt lat="45.9126530" lon="10.3369560">
	<ele>1353.60</ele>
	<time>2025-04-29T10:01:37.000Z</time>
</trkpt>
<trkpt lat="45.9126450" lon="10.3369460">
	<ele>1353.40</ele>
	<time>2025-04-29T10:01:38.000Z</time>
</trkpt>
<trkpt lat="45.9126400" lon="10.3369310">
	<ele>1353.40</ele>
	<time>2025-04-29T10:01:39.000Z</time>
</trkpt>
<trkpt lat="45.9126400" lon="10.3369240">
	<ele>1353.20</ele>
	<time>2025-04-29T10:01:40.000Z</time>
</trkpt>
<trkpt lat="45.9126400" lon="10.3369090">
	<ele>1353.20</ele>
	<time>2025-04-29T10:01:41.000Z</time>
</trkpt>
<trkpt lat="45.9126380" lon="10.3369100">
	<ele>1353.00</ele>
	<time>2025-04-29T10:01:42.000Z</time>
</trkpt>
<trkpt lat="45.9126410" lon="10.3369110">
	<ele>1352.80</ele>
	<time>2025-04-29T10:01:43.000Z</time>
</trkpt>
<trkpt lat="45.9126380" lon="10.3369150">
	<ele>1352.80</ele>
	<time>2025-04-29T10:01:44.000Z</time>
</trkpt>
<trkpt lat="45.9126230" lon="10.3369210">
	<ele>1352.80</ele>
	<time>2025-04-29T10:01:45.000Z</time>
</trkpt>
<trkpt lat="45.9126210" lon="10.3369130">
	<ele>1352.80</ele>
	<time>2025-04-29T10:01:46.000Z</time>
</trkpt>
<trkpt lat="45.9126280" lon="10.3368920">
	<ele>1352.80</ele>
	<time>2025-04-29T10:01:47.000Z</time>
</trkpt>
<trkpt lat="45.9126260" lon="10.3368670">
	<ele>1352.80</ele>
	<time>2025-04-29T10:01:48.000Z</time>
</trkpt>
<trkpt lat="45.9126070" lon="10.3368470">
	<ele>1352.80</ele>
	<time>2025-04-29T10:01:49.000Z</time>
</trkpt>
<trkpt lat="45.9125790" lon="10.3368100">
	<ele>1352.80</ele>
	<time>2025-04-29T10:01:50.000Z</time>
</trkpt>
<trkpt lat="45.9125520" lon="10.3367760">
	<ele>1352.80</ele>
	<time>2025-04-29T10:01:51.000Z</time>
</trkpt>
<trkpt lat="45.9125120" lon="10.3367280">
	<ele>1352.80</ele>
	<time>2025-04-29T10:01:52.000Z</time>
</trkpt>
<trkpt lat="45.9124850" lon="10.3367050">
	<ele>1352.80</ele>
	<time>2025-04-29T10:01:53.000Z</time>
</trkpt>
<trkpt lat="45.9124830" lon="10.3367010">
	<ele>1353.00</ele>
	<time>2025-04-29T10:01:54.000Z</time>
</trkpt>
<trkpt lat="45.9124860" lon="10.3366900">
	<ele>1353.00</ele>
	<time>2025-04-29T10:01:55.000Z</time>
</trkpt>
<trkpt lat="45.9124890" lon="10.3366830">
	<ele>1353.20</ele>
	<time>2025-04-29T10:01:56.000Z</time>
</trkpt>
<trkpt lat="45.9124830" lon="10.3366920">
	<ele>1353.40</ele>
	<time>2025-04-29T10:01:57.000Z</time>
</trkpt>
<trkpt lat="45.9124790" lon="10.3366920">
	<ele>1353.40</ele>
	<time>2025-04-29T10:01:58.000Z</time>
</trkpt>
<trkpt lat="45.9124750" lon="10.3366690">
	<ele>1353.60</ele>
	<time>2025-04-29T10:01:59.000Z</time>
</trkpt>
<trkpt lat="45.9124750" lon="10.3366510">
	<ele>1353.60</ele>
	<time>2025-04-29T10:02:00.000Z</time>
</trkpt>
<trkpt lat="45.9124700" lon="10.3366470">
	<ele>1353.60</ele>
	<time>2025-04-29T10:02:01.000Z</time>
</trkpt>
<trkpt lat="45.9124690" lon="10.3366320">
	<ele>1353.80</ele>
	<time>2025-04-29T10:02:02.000Z</time>
</trkpt>
<trkpt lat="45.9124650" lon="10.3366130">
	<ele>1354.00</ele>
	<time>2025-04-29T10:02:03.000Z</time>
</trkpt>
<trkpt lat="45.9124580" lon="10.3365820">
	<ele>1354.00</ele>
	<time>2025-04-29T10:02:04.000Z</time>
</trkpt>
<trkpt lat="45.9124620" lon="10.3365680">
	<ele>1354.00</ele>
	<time>2025-04-29T10:02:05.000Z</time>
</trkpt>
<trkpt lat="45.9124680" lon="10.3365620">
	<ele>1353.80</ele>
	<time>2025-04-29T10:02:06.000Z</time>
</trkpt>
<trkpt lat="45.9124690" lon="10.3365660">
	<ele>1353.80</ele>
	<time>2025-04-29T10:02:07.000Z</time>
</trkpt>
<trkpt lat="45.9124750" lon="10.3365740">
	<ele>1353.60</ele>
	<time>2025-04-29T10:02:08.000Z</time>
</trkpt>
<trkpt lat="45.9124940" lon="10.3365720">
	<ele>1353.60</ele>
	<time>2025-04-29T10:02:09.000Z</time>
</trkpt>
<trkpt lat="45.9125100" lon="10.3365670">
	<ele>1353.20</ele>
	<time>2025-04-29T10:02:10.000Z</time>
</trkpt>
<trkpt lat="45.9125310" lon="10.3365730">
	<ele>1353.00</ele>
	<time>2025-04-29T10:02:11.000Z</time>
</trkpt>
<trkpt lat="45.9125230" lon="10.3365700">
	<ele>1352.80</ele>
	<time>2025-04-29T10:02:12.000Z</time>
</trkpt>
<trkpt lat="45.9125110" lon="10.3365510">
	<ele>1352.60</ele>
	<time>2025-04-29T10:02:13.000Z</time>
</trkpt>
<trkpt lat="45.9125000" lon="10.3365320">
	<ele>1352.40</ele>
	<time>2025-04-29T10:02:14.000Z</time>
</trkpt>
<trkpt lat="45.9124900" lon="10.3365080">
	<ele>1352.20</ele>
	<time>2025-04-29T10:02:15.000Z</time>
</trkpt>
<trkpt lat="45.9124790" lon="10.3365000">
	<ele>1351.80</ele>
	<time>2025-04-29T10:02:16.000Z</time>
</trkpt>
<trkpt lat="45.9124830" lon="10.3364930">
	<ele>1351.60</ele>
	<time>2025-04-29T10:02:17.000Z</time>
</trkpt>
<trkpt lat="45.9124770" lon="10.3365020">
	<ele>1351.40</ele>
	<time>2025-04-29T10:02:18.000Z</time>
</trkpt>
<trkpt lat="45.9124660" lon="10.3365040">
	<ele>1351.00</ele>
	<time>2025-04-29T10:02:19.000Z</time>
</trkpt>
<trkpt lat="45.9124430" lon="10.3364760">
	<ele>1350.60</ele>
	<time>2025-04-29T10:02:20.000Z</time>
</trkpt>
<trkpt lat="45.9124220" lon="10.3364370">
	<ele>1350.40</ele>
	<time>2025-04-29T10:02:21.000Z</time>
</trkpt>
<trkpt lat="45.9124070" lon="10.3364140">
	<ele>1350.00</ele>
	<time>2025-04-29T10:02:22.000Z</time>
</trkpt>
<trkpt lat="45.9124060" lon="10.3363850">
	<ele>1349.80</ele>
	<time>2025-04-29T10:02:23.000Z</time>
</trkpt>
<trkpt lat="45.9124070" lon="10.3363570">
	<ele>1349.60</ele>
	<time>2025-04-29T10:02:24.000Z</time>
</trkpt>
<trkpt lat="45.9124070" lon="10.3363310">
	<ele>1349.40</ele>
	<time>2025-04-29T10:02:25.000Z</time>
</trkpt>
<trkpt lat="45.9124080" lon="10.3363020">
	<ele>1349.00</ele>
	<time>2025-04-29T10:02:26.000Z</time>
</trkpt>
<trkpt lat="45.9124080" lon="10.3362720">
	<ele>1348.60</ele>
	<time>2025-04-29T10:02:27.000Z</time>
</trkpt>
<trkpt lat="45.9124040" lon="10.3362450">
	<ele>1348.40</ele>
	<time>2025-04-29T10:02:28.000Z</time>
</trkpt>
<trkpt lat="45.9124020" lon="10.3362260">
	<ele>1348.40</ele>
	<time>2025-04-29T10:02:29.000Z</time>
</trkpt>
<trkpt lat="45.9124060" lon="10.3362320">
	<ele>1348.20</ele>
	<time>2025-04-29T10:02:30.000Z</time>
</trkpt>
<trkpt lat="45.9124090" lon="10.3362300">
	<ele>1348.20</ele>
	<time>2025-04-29T10:02:31.000Z</time>
</trkpt>
<trkpt lat="45.9124270" lon="10.3362530">
	<ele>1348.20</ele>
	<time>2025-04-29T10:02:32.000Z</time>
</trkpt>
<trkpt lat="45.9124450" lon="10.3362810">
	<ele>1348.20</ele>
	<time>2025-04-29T10:02:33.000Z</time>
</trkpt>
<trkpt lat="45.9124500" lon="10.3362570">
	<ele>1348.20</ele>
	<time>2025-04-29T10:02:34.000Z</time>
</trkpt>
<trkpt lat="45.9124380" lon="10.3362490">
	<ele>1348.20</ele>
	<time>2025-04-29T10:02:35.000Z</time>
</trkpt>
<trkpt lat="45.9124510" lon="10.3362220">
	<ele>1348.20</ele>
	<time>2025-04-29T10:02:36.000Z</time>
</trkpt>
<trkpt lat="45.9124710" lon="10.3361980">
	<ele>1348.20</ele>
	<time>2025-04-29T10:02:37.000Z</time>
</trkpt>
<trkpt lat="45.9124980" lon="10.3361570">
	<ele>1348.00</ele>
	<time>2025-04-29T10:02:38.000Z</time>
</trkpt>
<trkpt lat="45.9125250" lon="10.3361250">
	<ele>1348.00</ele>
	<time>2025-04-29T10:02:39.000Z</time>
</trkpt>
<trkpt lat="45.9125910" lon="10.3360520">
	<ele>1348.00</ele>
	<time>2025-04-29T10:02:41.000Z</time>
</trkpt>
<trkpt lat="45.9126200" lon="10.3360250">
	<ele>1348.00</ele>
	<time>2025-04-29T10:02:42.000Z</time>
</trkpt>
<trkpt lat="45.9126470" lon="10.3359970">
	<ele>1348.00</ele>
	<time>2025-04-29T10:02:43.000Z</time>
</trkpt>
<trkpt lat="45.9126440" lon="10.3359910">
	<ele>1348.00</ele>
	<time>2025-04-29T10:02:44.000Z</time>
</trkpt>
<trkpt lat="45.9126290" lon="10.3360240">
	<ele>1348.00</ele>
	<time>2025-04-29T10:02:45.000Z</time>
</trkpt>
<trkpt lat="45.9126280" lon="10.3360260">
	<ele>1348.00</ele>
	<time>2025-04-29T10:02:46.000Z</time>
</trkpt>
<trkpt lat="45.9126360" lon="10.3360180">
	<ele>1348.00</ele>
	<time>2025-04-29T10:02:47.000Z</time>
</trkpt>
<trkpt lat="45.9126460" lon="10.3360180">
	<ele>1348.00</ele>
	<time>2025-04-29T10:02:48.000Z</time>
</trkpt>
<trkpt lat="45.9126320" lon="10.3360410">
	<ele>1348.00</ele>
	<time>2025-04-29T10:02:49.000Z</time>
</trkpt>
<trkpt lat="45.9126230" lon="10.3360630">
	<ele>1347.80</ele>
	<time>2025-04-29T10:02:50.000Z</time>
</trkpt>
<trkpt lat="45.9126150" lon="10.3360770">
	<ele>1347.80</ele>
	<time>2025-04-29T10:02:51.000Z</time>
</trkpt>
<trkpt lat="45.9125930" lon="10.3360890">
	<ele>1347.80</ele>
	<time>2025-04-29T10:02:52.000Z</time>
</trkpt>
<trkpt lat="45.9125670" lon="10.3360950">
	<ele>1347.80</ele>
	<time>2025-04-29T10:02:53.000Z</time>
</trkpt>
<trkpt lat="45.9125420" lon="10.3361060">
	<ele>1347.60</ele>
	<time>2025-04-29T10:02:54.000Z</time>
</trkpt>
<trkpt lat="45.9125140" lon="10.3360890">
	<ele>1347.60</ele>
	<time>2025-04-29T10:02:55.000Z</time>
</trkpt>
<trkpt lat="45.9124710" lon="10.3360400">
	<ele>1347.60</ele>
	<time>2025-04-29T10:02:56.000Z</time>
</trkpt>
<trkpt lat="45.9124350" lon="10.3360840">
	<ele>1347.40</ele>
	<time>2025-04-29T10:02:57.000Z</time>
</trkpt>
<trkpt lat="45.9123910" lon="10.3360830">
	<ele>1347.00</ele>
	<time>2025-04-29T10:02:58.000Z</time>
</trkpt>
<trkpt lat="45.9123550" lon="10.3360920">
	<ele>1346.80</ele>
	<time>2025-04-29T10:02:59.000Z</time>
</trkpt>
<trkpt lat="45.9123270" lon="10.3361090">
	<ele>1346.60</ele>
	<time>2025-04-29T10:03:00.000Z</time>
</trkpt>
<trkpt lat="45.9122720" lon="10.3361010">
	<ele>1346.40</ele>
	<time>2025-04-29T10:03:02.000Z</time>
</trkpt>
<trkpt lat="45.9122500" lon="10.3361130">
	<ele>1346.20</ele>
	<time>2025-04-29T10:03:03.000Z</time>
</trkpt>
<trkpt lat="45.9122220" lon="10.3361320">
	<ele>1345.80</ele>
	<time>2025-04-29T10:03:04.000Z</time>
</trkpt>
<trkpt lat="45.9121950" lon="10.3361500">
	<ele>1345.60</ele>
	<time>2025-04-29T10:03:05.000Z</time>
</trkpt>
<trkpt lat="45.9122090" lon="10.3361740">
	<ele>1345.20</ele>
	<time>2025-04-29T10:03:06.000Z</time>
</trkpt>
<trkpt lat="45.9122260" lon="10.3361900">
	<ele>1345.00</ele>
	<time>2025-04-29T10:03:07.000Z</time>
</trkpt>
<trkpt lat="45.9122230" lon="10.3361790">
	<ele>1344.80</ele>
	<time>2025-04-29T10:03:08.000Z</time>
</trkpt>
<trkpt lat="45.9122240" lon="10.3361740">
	<ele>1344.40</ele>
	<time>2025-04-29T10:03:09.000Z</time>
</trkpt>
<trkpt lat="45.9122180" lon="10.3361790">
	<ele>1343.80</ele>
	<time>2025-04-29T10:03:10.000Z</time>
</trkpt>
<trkpt lat="45.9122320" lon="10.3361960">
	<ele>1343.40</ele>
	<time>2025-04-29T10:03:11.000Z</time>
</trkpt>
<trkpt lat="45.9122580" lon="10.3362260">
	<ele>1343.00</ele>
	<time>2025-04-29T10:03:12.000Z</time>
</trkpt>
<trkpt lat="45.9122850" lon="10.3362370">
	<ele>1342.60</ele>
	<time>2025-04-29T10:03:13.000Z</time>
</trkpt>
<trkpt lat="45.9123610" lon="10.3363080">
	<ele>1341.60</ele>
	<time>2025-04-29T10:03:16.000Z</time>
</trkpt>
<trkpt lat="45.9123820" lon="10.3363240">
	<ele>1341.40</ele>
	<time>2025-04-29T10:03:17.000Z</time>
</trkpt>
<trkpt lat="45.9123990" lon="10.3363250">
	<ele>1341.00</ele>
	<time>2025-04-29T10:03:18.000Z</time>
</trkpt>
<trkpt lat="45.9123610" lon="10.3362790">
	<ele>1340.80</ele>
	<time>2025-04-29T10:03:19.000Z</time>
</trkpt>
<trkpt lat="45.9123140" lon="10.3361940">
	<ele>1340.60</ele>
	<time>2025-04-29T10:03:20.000Z</time>
</trkpt>
<trkpt lat="45.9122870" lon="10.3361360">
	<ele>1340.20</ele>
	<time>2025-04-29T10:03:21.000Z</time>
</trkpt>
<trkpt lat="45.9122770" lon="10.3361010">
	<ele>1340.00</ele>
	<time>2025-04-29T10:03:22.000Z</time>
</trkpt>
<trkpt lat="45.9122740" lon="10.3360670">
	<ele>1339.80</ele>
	<time>2025-04-29T10:03:23.000Z</time>
</trkpt>
<trkpt lat="45.9122660" lon="10.3360340">
	<ele>1339.60</ele>
	<time>2025-04-29T10:03:24.000Z</time>
</trkpt>
<trkpt lat="45.9122670" lon="10.3360270">
	<ele>1339.00</ele>
	<time>2025-04-29T10:03:25.000Z</time>
</trkpt>
<trkpt lat="45.9122670" lon="10.3360130">
	<ele>1338.80</ele>
	<time>2025-04-29T10:03:26.000Z</time>
</trkpt>
<trkpt lat="45.9122710" lon="10.3359960">
	<ele>1338.40</ele>
	<time>2025-04-29T10:03:27.000Z</time>
</trkpt>
<trkpt lat="45.9122810" lon="10.3359910">
	<ele>1338.20</ele>
	<time>2025-04-29T10:03:28.000Z</time>
</trkpt>
<trkpt lat="45.9122930" lon="10.3359800">
	<ele>1338.00</ele>
	<time>2025-04-29T10:03:29.000Z</time>
</trkpt>
<trkpt lat="45.9122990" lon="10.3359710">
	<ele>1337.60</ele>
	<time>2025-04-29T10:03:30.000Z</time>
</trkpt>
<trkpt lat="45.9122980" lon="10.3359610">
	<ele>1337.40</ele>
	<time>2025-04-29T10:03:31.000Z</time>
</trkpt>
<trkpt lat="45.9122940" lon="10.3359410">
	<ele>1337.00</ele>
	<time>2025-04-29T10:03:32.000Z</time>
</trkpt>
<trkpt lat="45.9122740" lon="10.3358700">
	<ele>1336.60</ele>
	<time>2025-04-29T10:03:34.000Z</time>
</trkpt>
<trkpt lat="45.9122490" lon="10.3358430">
	<ele>1336.60</ele>
	<time>2025-04-29T10:03:35.000Z</time>
</trkpt>
<trkpt lat="45.9122590" lon="10.3358440">
	<ele>1336.40</ele>
	<time>2025-04-29T10:03:36.000Z</time>
</trkpt>
<trkpt lat="45.9122440" lon="10.3358270">
	<ele>1336.20</ele>
	<time>2025-04-29T10:03:37.000Z</time>
</trkpt>
<trkpt lat="45.9122320" lon="10.3358290">
	<ele>1335.80</ele>
	<time>2025-04-29T10:03:38.000Z</time>
</trkpt>
<trkpt lat="45.9122140" lon="10.3358340">
	<ele>1335.80</ele>
	<time>2025-04-29T10:03:39.000Z</time>
</trkpt>
<trkpt lat="45.9122020" lon="10.3358440">
	<ele>1335.60</ele>
	<time>2025-04-29T10:03:40.000Z</time>
</trkpt>
<trkpt lat="45.9122120" lon="10.3358780">
	<ele>1335.40</ele>
	<time>2025-04-29T10:03:41.000Z</time>
</trkpt>
<trkpt lat="45.9122030" lon="10.3358720">
	<ele>1335.40</ele>
	<time>2025-04-29T10:03:42.000Z</time>
</trkpt>
<trkpt lat="45.9122000" lon="10.3358340">
	<ele>1335.20</ele>
	<time>2025-04-29T10:03:43.000Z</time>
</trkpt>
<trkpt lat="45.9121830" lon="10.3358030">
	<ele>1335.00</ele>
	<time>2025-04-29T10:03:44.000Z</time>
</trkpt>
<trkpt lat="45.9121750" lon="10.3357650">
	<ele>1334.80</ele>
	<time>2025-04-29T10:03:45.000Z</time>
</trkpt>
<trkpt lat="45.9121650" lon="10.3357250">
	<ele>1334.80</ele>
	<time>2025-04-29T10:03:46.000Z</time>
</trkpt>
<trkpt lat="45.9121550" lon="10.3356950">
	<ele>1334.80</ele>
	<time>2025-04-29T10:03:47.000Z</time>
</trkpt>
<trkpt lat="45.9121410" lon="10.3356510">
	<ele>1334.80</ele>
	<time>2025-04-29T10:03:48.000Z</time>
</trkpt>
<trkpt lat="45.9121320" lon="10.3356020">
	<ele>1334.60</ele>
	<time>2025-04-29T10:03:49.000Z</time>
</trkpt>
<trkpt lat="45.9121270" lon="10.3355840">
	<ele>1334.60</ele>
	<time>2025-04-29T10:03:50.000Z</time>
</trkpt>
<trkpt lat="45.9121190" lon="10.3355690">
	<ele>1334.60</ele>
	<time>2025-04-29T10:03:51.000Z</time>
</trkpt>
<trkpt lat="45.9121090" lon="10.3355650">
	<ele>1334.60</ele>
	<time>2025-04-29T10:03:52.000Z</time>
</trkpt>
<trkpt lat="45.9121020" lon="10.3355470">
	<ele>1334.60</ele>
	<time>2025-04-29T10:03:53.000Z</time>
</trkpt>
<trkpt lat="45.9120850" lon="10.3354910">
	<ele>1334.60</ele>
	<time>2025-04-29T10:03:54.000Z</time>
</trkpt>
<trkpt lat="45.9120500" lon="10.3354350">
	<ele>1334.60</ele>
	<time>2025-04-29T10:03:55.000Z</time>
</trkpt>
<trkpt lat="45.9120280" lon="10.3353880">
	<ele>1334.60</ele>
	<time>2025-04-29T10:03:56.000Z</time>
</trkpt>
<trkpt lat="45.9120240" lon="10.3353800">
	<ele>1334.60</ele>
	<time>2025-04-29T10:03:57.000Z</time>
</trkpt>
<trkpt lat="45.9120120" lon="10.3354070">
	<ele>1334.60</ele>
	<time>2025-04-29T10:03:58.000Z</time>
</trkpt>
<trkpt lat="45.9120190" lon="10.3354190">
	<ele>1334.60</ele>
	<time>2025-04-29T10:03:59.000Z</time>
</trkpt>
<trkpt lat="45.9120460" lon="10.3354370">
	<ele>1334.60</ele>
	<time>2025-04-29T10:04:00.000Z</time>
</trkpt>
<trkpt lat="45.9120590" lon="10.3354260">
	<ele>1334.60</ele>
	<time>2025-04-29T10:04:01.000Z</time>
</trkpt>
<trkpt lat="45.9120740" lon="10.3354270">
	<ele>1334.60</ele>
	<time>2025-04-29T10:04:02.000Z</time>
</trkpt>
<trkpt lat="45.9120600" lon="10.3354190">
	<ele>1334.60</ele>
	<time>2025-04-29T10:04:03.000Z</time>
</trkpt>
<trkpt lat="45.9120400" lon="10.3353920">
	<ele>1334.80</ele>
	<time>2025-04-29T10:04:04.000Z</time>
</trkpt>
<trkpt lat="45.9120110" lon="10.3353560">
	<ele>1334.80</ele>
	<time>2025-04-29T10:04:05.000Z</time>
</trkpt>
<trkpt lat="45.9119890" lon="10.3353370">
	<ele>1334.80</ele>
	<time>2025-04-29T10:04:06.000Z</time>
</trkpt>
<trkpt lat="45.9119740" lon="10.3353140">
	<ele>1334.80</ele>
	<time>2025-04-29T10:04:07.000Z</time>
</trkpt>
<trkpt lat="45.9119430" lon="10.3352710">
	<ele>1334.80</ele>
	<time>2025-04-29T10:04:08.000Z</time>
</trkpt>
<trkpt lat="45.9119230" lon="10.3352180">
	<ele>1334.80</ele>
	<time>2025-04-29T10:04:09.000Z</time>
</trkpt>
<trkpt lat="45.9119070" lon="10.3351490">
	<ele>1334.60</ele>
	<time>2025-04-29T10:04:10.000Z</time>
</trkpt>
<trkpt lat="45.9119130" lon="10.3351130">
	<ele>1334.40</ele>
	<time>2025-04-29T10:04:11.000Z</time>
</trkpt>
<trkpt lat="45.9119150" lon="10.3350720">
	<ele>1334.40</ele>
	<time>2025-04-29T10:04:12.000Z</time>
</trkpt>
<trkpt lat="45.9119190" lon="10.3350680">
	<ele>1334.20</ele>
	<time>2025-04-29T10:04:13.000Z</time>
</trkpt>
<trkpt lat="45.9119200" lon="10.3350360">
	<ele>1334.20</ele>
	<time>2025-04-29T10:04:14.000Z</time>
</trkpt>
<trkpt lat="45.9119240" lon="10.3350180">
	<ele>1334.20</ele>
	<time>2025-04-29T10:04:15.000Z</time>
</trkpt>
<trkpt lat="45.9119260" lon="10.3350010">
	<ele>1334.20</ele>
	<time>2025-04-29T10:04:16.000Z</time>
</trkpt>
<trkpt lat="45.9119260" lon="10.3349830">
	<ele>1334.20</ele>
	<time>2025-04-29T10:04:17.000Z</time>
</trkpt>
<trkpt lat="45.9119290" lon="10.3349630">
	<ele>1334.20</ele>
	<time>2025-04-29T10:04:18.000Z</time>
</trkpt>
<trkpt lat="45.9119280" lon="10.3349400">
	<ele>1334.20</ele>
	<time>2025-04-29T10:04:19.000Z</time>
</trkpt>
<trkpt lat="45.9119300" lon="10.3349250">
	<ele>1334.40</ele>
	<time>2025-04-29T10:04:20.000Z</time>
</trkpt>
<trkpt lat="45.9119330" lon="10.3349110">
	<ele>1334.60</ele>
	<time>2025-04-29T10:04:21.000Z</time>
</trkpt>
<trkpt lat="45.9119440" lon="10.3349020">
	<ele>1334.60</ele>
	<time>2025-04-29T10:04:22.000Z</time>
</trkpt>
<trkpt lat="45.9119530" lon="10.3349010">
	<ele>1334.80</ele>
	<time>2025-04-29T10:04:23.000Z</time>
</trkpt>
<trkpt lat="45.9119560" lon="10.3349070">
	<ele>1335.00</ele>
	<time>2025-04-29T10:04:24.000Z</time>
</trkpt>
<trkpt lat="45.9119650" lon="10.3349180">
	<ele>1335.00</ele>
	<time>2025-04-29T10:04:25.000Z</time>
</trkpt>
<trkpt lat="45.9119780" lon="10.3349300">
	<ele>1335.00</ele>
	<time>2025-04-29T10:04:26.000Z</time>
</trkpt>
<trkpt lat="45.9119860" lon="10.3349350">
	<ele>1335.20</ele>
	<time>2025-04-29T10:04:27.000Z</time>
</trkpt>
<trkpt lat="45.9119900" lon="10.3349370">
	<ele>1335.00</ele>
	<time>2025-04-29T10:04:28.000Z</time>
</trkpt>
<trkpt lat="45.9119910" lon="10.3349310">
	<ele>1335.00</ele>
	<time>2025-04-29T10:04:29.000Z</time>
</trkpt>
<trkpt lat="45.9119880" lon="10.3349260">
	<ele>1335.00</ele>
	<time>2025-04-29T10:04:30.000Z</time>
</trkpt>
<trkpt lat="45.9119840" lon="10.3349300">
	<ele>1334.60</ele>
	<time>2025-04-29T10:04:31.000Z</time>
</trkpt>
<trkpt lat="45.9119880" lon="10.3349230">
	<ele>1334.40</ele>
	<time>2025-04-29T10:04:32.000Z</time>
</trkpt>
<trkpt lat="45.9120020" lon="10.3349190">
	<ele>1334.00</ele>
	<time>2025-04-29T10:04:33.000Z</time>
</trkpt>
<trkpt lat="45.9120110" lon="10.3349060">
	<ele>1333.80</ele>
	<time>2025-04-29T10:04:34.000Z</time>
</trkpt>
<trkpt lat="45.9120070" lon="10.3348960">
	<ele>1333.40</ele>
	<time>2025-04-29T10:04:35.000Z</time>
</trkpt>
<trkpt lat="45.9120010" lon="10.3348910">
	<ele>1333.20</ele>
	<time>2025-04-29T10:04:36.000Z</time>
</trkpt>
<trkpt lat="45.9119950" lon="10.3348920">
	<ele>1333.00</ele>
	<time>2025-04-29T10:04:37.000Z</time>
</trkpt>
<trkpt lat="45.9119770" lon="10.3348930">
	<ele>1332.80</ele>
	<time>2025-04-29T10:04:38.000Z</time>
</trkpt>
<trkpt lat="45.9119720" lon="10.3348910">
	<ele>1332.40</ele>
	<time>2025-04-29T10:04:39.000Z</time>
</trkpt>
<trkpt lat="45.9119840" lon="10.3348880">
	<ele>1332.20</ele>
	<time>2025-04-29T10:04:40.000Z</time>
</trkpt>
<trkpt lat="45.9120060" lon="10.3348800">
	<ele>1331.80</ele>
	<time>2025-04-29T10:04:41.000Z</time>
</trkpt>
<trkpt lat="45.9120210" lon="10.3348740">
	<ele>1331.60</ele>
	<time>2025-04-29T10:04:42.000Z</time>
</trkpt>
<trkpt lat="45.9120250" lon="10.3348740">
	<ele>1331.40</ele>
	<time>2025-04-29T10:04:43.000Z</time>
</trkpt>
<trkpt lat="45.9120240" lon="10.3348630">
	<ele>1331.00</ele>
	<time>2025-04-29T10:04:44.000Z</time>
</trkpt>
<trkpt lat="45.9120290" lon="10.3348510">
	<ele>1330.80</ele>
	<time>2025-04-29T10:04:45.000Z</time>
</trkpt>
<trkpt lat="45.9120280" lon="10.3348410">
	<ele>1330.40</ele>
	<time>2025-04-29T10:04:46.000Z</time>
</trkpt>
<trkpt lat="45.9120300" lon="10.3348260">
	<ele>1330.20</ele>
	<time>2025-04-29T10:04:47.000Z</time>
</trkpt>
<trkpt lat="45.9120170" lon="10.3348130">
	<ele>1330.00</ele>
	<time>2025-04-29T10:04:48.000Z</time>
</trkpt>
<trkpt lat="45.9120340" lon="10.3348090">
	<ele>1329.80</ele>
	<time>2025-04-29T10:04:49.000Z</time>
</trkpt>
<trkpt lat="45.9120330" lon="10.3347970">
	<ele>1329.60</ele>
	<time>2025-04-29T10:04:50.000Z</time>
</trkpt>
<trkpt lat="45.9120230" lon="10.3347830">
	<ele>1329.40</ele>
	<time>2025-04-29T10:04:51.000Z</time>
</trkpt>
<trkpt lat="45.9120040" lon="10.3347690">
	<ele>1329.20</ele>
	<time>2025-04-29T10:04:52.000Z</time>
</trkpt>
<trkpt lat="45.9119900" lon="10.3347570">
	<ele>1329.00</ele>
	<time>2025-04-29T10:04:53.000Z</time>
</trkpt>
<trkpt lat="45.9119860" lon="10.3347470">
	<ele>1329.00</ele>
	<time>2025-04-29T10:04:54.000Z</time>
</trkpt>
<trkpt lat="45.9119830" lon="10.3347440">
	<ele>1329.00</ele>
	<time>2025-04-29T10:04:55.000Z</time>
</trkpt>
<trkpt lat="45.9119830" lon="10.3347420">
	<ele>1328.80</ele>
	<time>2025-04-29T10:04:56.000Z</time>
</trkpt>
<trkpt lat="45.9119860" lon="10.3347360">
	<ele>1328.60</ele>
	<time>2025-04-29T10:04:57.000Z</time>
</trkpt>
<trkpt lat="45.9119990" lon="10.3347280">
	<ele>1328.40</ele>
	<time>2025-04-29T10:04:58.000Z</time>
</trkpt>
<trkpt lat="45.9120060" lon="10.3347130">
	<ele>1328.20</ele>
	<time>2025-04-29T10:04:59.000Z</time>
</trkpt>
<trkpt lat="45.9120120" lon="10.3347100">
	<ele>1328.00</ele>
	<time>2025-04-29T10:05:00.000Z</time>
</trkpt>
<trkpt lat="45.9120020" lon="10.3347020">
	<ele>1327.80</ele>
	<time>2025-04-29T10:05:01.000Z</time>
</trkpt>
<trkpt lat="45.9120100" lon="10.3346960">
	<ele>1327.60</ele>
	<time>2025-04-29T10:05:02.000Z</time>
</trkpt>
<trkpt lat="45.9120140" lon="10.3346860">
	<ele>1327.20</ele>
	<time>2025-04-29T10:05:03.000Z</time>
</trkpt>
<trkpt lat="45.9120200" lon="10.3346710">
	<ele>1327.00</ele>
	<time>2025-04-29T10:05:04.000Z</time>
</trkpt>
<trkpt lat="45.9120300" lon="10.3346480">
	<ele>1326.80</ele>
	<time>2025-04-29T10:05:05.000Z</time>
</trkpt>
<trkpt lat="45.9120340" lon="10.3346290">
	<ele>1326.60</ele>
	<time>2025-04-29T10:05:06.000Z</time>
</trkpt>
<trkpt lat="45.9120420" lon="10.3346150">
	<ele>1326.00</ele>
	<time>2025-04-29T10:05:07.000Z</time>
</trkpt>
<trkpt lat="45.9120520" lon="10.3345970">
	<ele>1325.80</ele>
	<time>2025-04-29T10:05:08.000Z</time>
</trkpt>
<trkpt lat="45.9120480" lon="10.3345800">
	<ele>1325.60</ele>
	<time>2025-04-29T10:05:09.000Z</time>
</trkpt>
<trkpt lat="45.9120370" lon="10.3345660">
	<ele>1325.40</ele>
	<time>2025-04-29T10:05:10.000Z</time>
</trkpt>
<trkpt lat="45.9120260" lon="10.3345520">
	<ele>1325.20</ele>
	<time>2025-04-29T10:05:11.000Z</time>
</trkpt>
<trkpt lat="45.9120060" lon="10.3345240">
	<ele>1325.00</ele>
	<time>2025-04-29T10:05:12.000Z</time>
</trkpt>
<trkpt lat="45.9120000" lon="10.3345020">
	<ele>1325.00</ele>
	<time>2025-04-29T10:05:13.000Z</time>
</trkpt>
<trkpt lat="45.9119930" lon="10.3344890">
	<ele>1324.80</ele>
	<time>2025-04-29T10:05:14.000Z</time>
</trkpt>
<trkpt lat="45.9119890" lon="10.3344750">
	<ele>1324.80</ele>
	<time>2025-04-29T10:05:15.000Z</time>
</trkpt>
<trkpt lat="45.9119920" lon="10.3344660">
	<ele>1324.40</ele>
	<time>2025-04-29T10:05:16.000Z</time>
</trkpt>
<trkpt lat="45.9119850" lon="10.3344670">
	<ele>1324.40</ele>
	<time>2025-04-29T10:05:17.000Z</time>
</trkpt>
<trkpt lat="45.9119680" lon="10.3344670">
	<ele>1324.20</ele>
	<time>2025-04-29T10:05:18.000Z</time>
</trkpt>
<trkpt lat="45.9119770" lon="10.3344570">
	<ele>1324.00</ele>
	<time>2025-04-29T10:05:19.000Z</time>
</trkpt>
<trkpt lat="45.9119720" lon="10.3344610">
	<ele>1323.80</ele>
	<time>2025-04-29T10:05:20.000Z</time>
</trkpt>
<trkpt lat="45.9119650" lon="10.3344580">
	<ele>1323.80</ele>
	<time>2025-04-29T10:05:21.000Z</time>
</trkpt>
<trkpt lat="45.9119690" lon="10.3344480">
	<ele>1323.60</ele>
	<time>2025-04-29T10:05:22.000Z</time>
</trkpt>
<trkpt lat="45.9119750" lon="10.3344350">
	<ele>1323.60</ele>
	<time>2025-04-29T10:05:23.000Z</time>
</trkpt>
<trkpt lat="45.9119650" lon="10.3344220">
	<ele>1323.60</ele>
	<time>2025-04-29T10:05:24.000Z</time>
</trkpt>
<trkpt lat="45.9119600" lon="10.3344040">
	<ele>1323.40</ele>
	<time>2025-04-29T10:05:25.000Z</time>
</trkpt>
<trkpt lat="45.9119710" lon="10.3343840">
	<ele>1323.20</ele>
	<time>2025-04-29T10:05:26.000Z</time>
</trkpt>
<trkpt lat="45.9119780" lon="10.3343650">
	<ele>1323.00</ele>
	<time>2025-04-29T10:05:27.000Z</time>
</trkpt>
<trkpt lat="45.9119810" lon="10.3343520">
	<ele>1323.00</ele>
	<time>2025-04-29T10:05:28.000Z</time>
</trkpt>
<trkpt lat="45.9119920" lon="10.3343440">
	<ele>1322.80</ele>
	<time>2025-04-29T10:05:29.000Z</time>
</trkpt>
<trkpt lat="45.9119990" lon="10.3343300">
	<ele>1322.80</ele>
	<time>2025-04-29T10:05:30.000Z</time>
</trkpt>
<trkpt lat="45.9120040" lon="10.3343220">
	<ele>1322.60</ele>
	<time>2025-04-29T10:05:31.000Z</time>
</trkpt>
<trkpt lat="45.9119980" lon="10.3343130">
	<ele>1322.60</ele>
	<time>2025-04-29T10:05:32.000Z</time>
</trkpt>
<trkpt lat="45.9119940" lon="10.3343020">
	<ele>1322.40</ele>
	<time>2025-04-29T10:05:33.000Z</time>
</trkpt>
<trkpt lat="45.9119940" lon="10.3342880">
	<ele>1322.40</ele>
	<time>2025-04-29T10:05:34.000Z</time>
</trkpt>
<trkpt lat="45.9119890" lon="10.3342810">
	<ele>1322.40</ele>
	<time>2025-04-29T10:05:35.000Z</time>
</trkpt>
<trkpt lat="45.9119840" lon="10.3342740">
	<ele>1322.20</ele>
	<time>2025-04-29T10:05:36.000Z</time>
</trkpt>
<trkpt lat="45.9119940" lon="10.3342650">
	<ele>1322.20</ele>
	<time>2025-04-29T10:05:37.000Z</time>
</trkpt>
<trkpt lat="45.9119980" lon="10.3342630">
	<ele>1322.20</ele>
	<time>2025-04-29T10:05:38.000Z</time>
</trkpt>
<trkpt lat="45.9120060" lon="10.3342570">
	<ele>1322.20</ele>
	<time>2025-04-29T10:05:39.000Z</time>
</trkpt>
<trkpt lat="45.9120200" lon="10.3342470">
	<ele>1322.00</ele>
	<time>2025-04-29T10:05:40.000Z</time>
</trkpt>
<trkpt lat="45.9120330" lon="10.3342320">
	<ele>1322.00</ele>
	<time>2025-04-29T10:05:41.000Z</time>
</trkpt>
<trkpt lat="45.9120370" lon="10.3342290">
	<ele>1322.00</ele>
	<time>2025-04-29T10:05:42.000Z</time>
</trkpt>
<trkpt lat="45.9120350" lon="10.3342170">
	<ele>1321.80</ele>
	<time>2025-04-29T10:05:43.000Z</time>
</trkpt>
<trkpt lat="45.9120330" lon="10.3342140">
	<ele>1321.80</ele>
	<time>2025-04-29T10:05:44.000Z</time>
</trkpt>
<trkpt lat="45.9120280" lon="10.3342090">
	<ele>1321.80</ele>
	<time>2025-04-29T10:05:45.000Z</time>
</trkpt>
<trkpt lat="45.9120220" lon="10.3341970">
	<ele>1321.80</ele>
	<time>2025-04-29T10:05:46.000Z</time>
</trkpt>
<trkpt lat="45.9120190" lon="10.3341780">
	<ele>1321.80</ele>
	<time>2025-04-29T10:05:47.000Z</time>
</trkpt>
<trkpt lat="45.9120150" lon="10.3341630">
	<ele>1321.60</ele>
	<time>2025-04-29T10:05:48.000Z</time>
</trkpt>
<trkpt lat="45.9120060" lon="10.3341530">
	<ele>1321.60</ele>
	<time>2025-04-29T10:05:49.000Z</time>
</trkpt>
<trkpt lat="45.9120050" lon="10.3341360">
	<ele>1321.60</ele>
	<time>2025-04-29T10:05:50.000Z</time>
</trkpt>
<trkpt lat="45.9120030" lon="10.3341180">
	<ele>1321.60</ele>
	<time>2025-04-29T10:05:51.000Z</time>
</trkpt>
<trkpt lat="45.9119980" lon="10.3341030">
	<ele>1321.60</ele>
	<time>2025-04-29T10:05:52.000Z</time>
</trkpt>
<trkpt lat="45.9119920" lon="10.3340900">
	<ele>1321.60</ele>
	<time>2025-04-29T10:05:53.000Z</time>
</trkpt>
<trkpt lat="45.9119840" lon="10.3340720">
	<ele>1321.60</ele>
	<time>2025-04-29T10:05:54.000Z</time>
</trkpt>
<trkpt lat="45.9119690" lon="10.3340600">
	<ele>1321.60</ele>
	<time>2025-04-29T10:05:55.000Z</time>
</trkpt>
<trkpt lat="45.9119580" lon="10.3340460">
	<ele>1321.60</ele>
	<time>2025-04-29T10:05:56.000Z</time>
</trkpt>
<trkpt lat="45.9119420" lon="10.3340260">
	<ele>1321.60</ele>
	<time>2025-04-29T10:05:57.000Z</time>
</trkpt>
<trkpt lat="45.9119340" lon="10.3340010">
	<ele>1321.60</ele>
	<time>2025-04-29T10:05:58.000Z</time>
</trkpt>
<trkpt lat="45.9119450" lon="10.3339690">
	<ele>1321.60</ele>
	<time>2025-04-29T10:05:59.000Z</time>
</trkpt>
<trkpt lat="45.9119500" lon="10.3339450">
	<ele>1321.40</ele>
	<time>2025-04-29T10:06:00.000Z</time>
</trkpt>
<trkpt lat="45.9119660" lon="10.3339100">
	<ele>1321.40</ele>
	<time>2025-04-29T10:06:01.000Z</time>
</trkpt>
<trkpt lat="45.9119650" lon="10.3338820">
	<ele>1321.20</ele>
	<time>2025-04-29T10:06:02.000Z</time>
</trkpt>
<trkpt lat="45.9119570" lon="10.3338570">
	<ele>1321.00</ele>
	<time>2025-04-29T10:06:03.000Z</time>
</trkpt>
<trkpt lat="45.9119470" lon="10.3338360">
	<ele>1321.00</ele>
	<time>2025-04-29T10:06:04.000Z</time>
</trkpt>
<trkpt lat="45.9119410" lon="10.3338140">
	<ele>1321.00</ele>
	<time>2025-04-29T10:06:05.000Z</time>
</trkpt>
<trkpt lat="45.9119460" lon="10.3337860">
	<ele>1321.00</ele>
	<time>2025-04-29T10:06:06.000Z</time>
</trkpt>
<trkpt lat="45.9119460" lon="10.3337610">
	<ele>1320.80</ele>
	<time>2025-04-29T10:06:07.000Z</time>
</trkpt>
<trkpt lat="45.9119420" lon="10.3337400">
	<ele>1320.80</ele>
	<time>2025-04-29T10:06:08.000Z</time>
</trkpt>
<trkpt lat="45.9119320" lon="10.3337160">
	<ele>1320.60</ele>
	<time>2025-04-29T10:06:09.000Z</time>
</trkpt>
<trkpt lat="45.9119270" lon="10.3336920">
	<ele>1320.60</ele>
	<time>2025-04-29T10:06:10.000Z</time>
</trkpt>
<trkpt lat="45.9119190" lon="10.3336720">
	<ele>1320.60</ele>
	<time>2025-04-29T10:06:11.000Z</time>
</trkpt>
<trkpt lat="45.9119010" lon="10.3336610">
	<ele>1320.40</ele>
	<time>2025-04-29T10:06:12.000Z</time>
</trkpt>
<trkpt lat="45.9118930" lon="10.3336320">
	<ele>1320.40</ele>
	<time>2025-04-29T10:06:13.000Z</time>
</trkpt>
<trkpt lat="45.9119040" lon="10.3336010">
	<ele>1320.40</ele>
	<time>2025-04-29T10:06:14.000Z</time>
</trkpt>
<trkpt lat="45.9119090" lon="10.3335830">
	<ele>1320.20</ele>
	<time>2025-04-29T10:06:15.000Z</time>
</trkpt>
<trkpt lat="45.9119100" lon="10.3335740">
	<ele>1320.00</ele>
	<time>2025-04-29T10:06:16.000Z</time>
</trkpt>
<trkpt lat="45.9119210" lon="10.3335530">
	<ele>1319.80</ele>
	<time>2025-04-29T10:06:17.000Z</time>
</trkpt>
<trkpt lat="45.9119300" lon="10.3335480">
	<ele>1319.80</ele>
	<time>2025-04-29T10:06:18.000Z</time>
</trkpt>
<trkpt lat="45.9119570" lon="10.3335520">
	<ele>1319.40</ele>
	<time>2025-04-29T10:06:19.000Z</time>
</trkpt>
<trkpt lat="45.9119760" lon="10.3335320">
	<ele>1319.20</ele>
	<time>2025-04-29T10:06:20.000Z</time>
</trkpt>
<trkpt lat="45.9119710" lon="10.3334860">
	<ele>1319.00</ele>
	<time>2025-04-29T10:06:21.000Z</time>
</trkpt>
<trkpt lat="45.9119600" lon="10.3334550">
	<ele>1318.60</ele>
	<time>2025-04-29T10:06:22.000Z</time>
</trkpt>
<trkpt lat="45.9119630" lon="10.3334220">
	<ele>1318.60</ele>
	<time>2025-04-29T10:06:23.000Z</time>
</trkpt>
<trkpt lat="45.9119580" lon="10.3334050">
	<ele>1318.40</ele>
	<time>2025-04-29T10:06:24.000Z</time>
</trkpt>
<trkpt lat="45.9119420" lon="10.3333930">
	<ele>1318.20</ele>
	<time>2025-04-29T10:06:25.000Z</time>
</trkpt>
<trkpt lat="45.9119340" lon="10.3333820">
	<ele>1318.20</ele>
	<time>2025-04-29T10:06:26.000Z</time>
</trkpt>
<trkpt lat="45.9119220" lon="10.3333660">
	<ele>1318.20</ele>
	<time>2025-04-29T10:06:27.000Z</time>
</trkpt>
<trkpt lat="45.9119120" lon="10.3333480">
	<ele>1318.20</ele>
	<time>2025-04-29T10:06:28.000Z</time>
</trkpt>
<trkpt lat="45.9119120" lon="10.3333280">
	<ele>1318.20</ele>
	<time>2025-04-29T10:06:29.000Z</time>
</trkpt>
<trkpt lat="45.9119190" lon="10.3333070">
	<ele>1318.20</ele>
	<time>2025-04-29T10:06:30.000Z</time>
</trkpt>
<trkpt lat="45.9119070" lon="10.3332930">
	<ele>1318.20</ele>
	<time>2025-04-29T10:06:31.000Z</time>
</trkpt>
<trkpt lat="45.9118970" lon="10.3332760">
	<ele>1318.20</ele>
	<time>2025-04-29T10:06:32.000Z</time>
</trkpt>
<trkpt lat="45.9118890" lon="10.3332640">
	<ele>1318.20</ele>
	<time>2025-04-29T10:06:33.000Z</time>
</trkpt>
<trkpt lat="45.9118850" lon="10.3332480">
	<ele>1318.20</ele>
	<time>2025-04-29T10:06:34.000Z</time>
</trkpt>
<trkpt lat="45.9119010" lon="10.3332080">
	<ele>1318.20</ele>
	<time>2025-04-29T10:06:35.000Z</time>
</trkpt>
<trkpt lat="45.9119260" lon="10.3331670">
	<ele>1318.20</ele>
	<time>2025-04-29T10:06:36.000Z</time>
</trkpt>
<trkpt lat="45.9119360" lon="10.3331340">
	<ele>1318.20</ele>
	<time>2025-04-29T10:06:37.000Z</time>
</trkpt>
<trkpt lat="45.9119520" lon="10.3331070">
	<ele>1318.20</ele>
	<time>2025-04-29T10:06:38.000Z</time>
</trkpt>
<trkpt lat="45.9119570" lon="10.3330930">
	<ele>1318.20</ele>
	<time>2025-04-29T10:06:39.000Z</time>
</trkpt>
<trkpt lat="45.9119590" lon="10.3330830">
	<ele>1318.20</ele>
	<time>2025-04-29T10:06:40.000Z</time>
</trkpt>
<trkpt lat="45.9119640" lon="10.3330770">
	<ele>1318.40</ele>
	<time>2025-04-29T10:06:41.000Z</time>
</trkpt>
<trkpt lat="45.9119650" lon="10.3330710">
	<ele>1318.60</ele>
	<time>2025-04-29T10:06:42.000Z</time>
</trkpt>
<trkpt lat="45.9119660" lon="10.3330650">
	<ele>1318.60</ele>
	<time>2025-04-29T10:06:43.000Z</time>
</trkpt>
<trkpt lat="45.9119660" lon="10.3330590">
	<ele>1318.60</ele>
	<time>2025-04-29T10:06:44.000Z</time>
</trkpt>
<trkpt lat="45.9119670" lon="10.3330480">
	<ele>1318.60</ele>
	<time>2025-04-29T10:06:45.000Z</time>
</trkpt>
<trkpt lat="45.9119650" lon="10.3330400">
	<ele>1318.60</ele>
	<time>2025-04-29T10:06:46.000Z</time>
</trkpt>
<trkpt lat="45.9119660" lon="10.3330290">
	<ele>1318.60</ele>
	<time>2025-04-29T10:06:47.000Z</time>
</trkpt>
<trkpt lat="45.9119710" lon="10.3330160">
	<ele>1318.60</ele>
	<time>2025-04-29T10:06:48.000Z</time>
</trkpt>
<trkpt lat="45.9119800" lon="10.3329970">
	<ele>1318.60</ele>
	<time>2025-04-29T10:06:49.000Z</time>
</trkpt>
<trkpt lat="45.9119850" lon="10.3329820">
	<ele>1318.60</ele>
	<time>2025-04-29T10:06:50.000Z</time>
</trkpt>
<trkpt lat="45.9119850" lon="10.3329690">
	<ele>1318.60</ele>
	<time>2025-04-29T10:06:51.000Z</time>
</trkpt>
<trkpt lat="45.9119840" lon="10.3329630">
	<ele>1318.60</ele>
	<time>2025-04-29T10:06:52.000Z</time>
</trkpt>
<trkpt lat="45.9120020" lon="10.3329390">
	<ele>1318.60</ele>
	<time>2025-04-29T10:06:53.000Z</time>
</trkpt>
<trkpt lat="45.9120330" lon="10.3329050">
	<ele>1318.60</ele>
	<time>2025-04-29T10:06:54.000Z</time>
</trkpt>
<trkpt lat="45.9120590" lon="10.3328660">
	<ele>1318.60</ele>
	<time>2025-04-29T10:06:55.000Z</time>
</trkpt>
<trkpt lat="45.9120630" lon="10.3328390">
	<ele>1318.60</ele>
	<time>2025-04-29T10:06:56.000Z</time>
</trkpt>
<trkpt lat="45.9120690" lon="10.3328140">
	<ele>1318.60</ele>
	<time>2025-04-29T10:06:57.000Z</time>
</trkpt>
<trkpt lat="45.9120530" lon="10.3327870">
	<ele>1318.60</ele>
	<time>2025-04-29T10:06:58.000Z</time>
</trkpt>
<trkpt lat="45.9120590" lon="10.3327730">
	<ele>1318.60</ele>
	<time>2025-04-29T10:06:59.000Z</time>
</trkpt>
<trkpt lat="45.9120440" lon="10.3327570">
	<ele>1318.60</ele>
	<time>2025-04-29T10:07:00.000Z</time>
</trkpt>
<trkpt lat="45.9120260" lon="10.3327370">
	<ele>1318.60</ele>
	<time>2025-04-29T10:07:01.000Z</time>
</trkpt>
<trkpt lat="45.9120340" lon="10.3327160">
	<ele>1318.60</ele>
	<time>2025-04-29T10:07:02.000Z</time>
</trkpt>
<trkpt lat="45.9120370" lon="10.3327040">
	<ele>1318.60</ele>
	<time>2025-04-29T10:07:03.000Z</time>
</trkpt>
<trkpt lat="45.9120480" lon="10.3326760">
	<ele>1318.60</ele>
	<time>2025-04-29T10:07:04.000Z</time>
</trkpt>
<trkpt lat="45.9120540" lon="10.3326570">
	<ele>1318.60</ele>
	<time>2025-04-29T10:07:05.000Z</time>
</trkpt>
<trkpt lat="45.9120630" lon="10.3326460">
	<ele>1318.60</ele>
	<time>2025-04-29T10:07:06.000Z</time>
</trkpt>
<trkpt lat="45.9120810" lon="10.3326350">
	<ele>1318.60</ele>
	<time>2025-04-29T10:07:07.000Z</time>
</trkpt>
<trkpt lat="45.9120960" lon="10.3326230">
	<ele>1318.40</ele>
	<time>2025-04-29T10:07:08.000Z</time>
</trkpt>
<trkpt lat="45.9121120" lon="10.3326130">
	<ele>1318.40</ele>
	<time>2025-04-29T10:07:09.000Z</time>
</trkpt>
<trkpt lat="45.9121150" lon="10.3326030">
	<ele>1318.40</ele>
	<time>2025-04-29T10:07:10.000Z</time>
</trkpt>
<trkpt lat="45.9121040" lon="10.3325980">
	<ele>1318.40</ele>
	<time>2025-04-29T10:07:11.000Z</time>
</trkpt>
<trkpt lat="45.9120940" lon="10.3325920">
	<ele>1318.40</ele>
	<time>2025-04-29T10:07:12.000Z</time>
</trkpt>
<trkpt lat="45.9120800" lon="10.3325860">
	<ele>1318.20</ele>
	<time>2025-04-29T10:07:13.000Z</time>
</trkpt>
<trkpt lat="45.9120730" lon="10.3325710">
	<ele>1318.20</ele>
	<time>2025-04-29T10:07:14.000Z</time>
</trkpt>
<trkpt lat="45.9120700" lon="10.3325650">
	<ele>1318.20</ele>
	<time>2025-04-29T10:07:15.000Z</time>
</trkpt>
<trkpt lat="45.9120790" lon="10.3325610">
	<ele>1318.20</ele>
	<time>2025-04-29T10:07:16.000Z</time>
</trkpt>
<trkpt lat="45.9120910" lon="10.3325530">
	<ele>1318.20</ele>
	<time>2025-04-29T10:07:17.000Z</time>
</trkpt>
<trkpt lat="45.9120980" lon="10.3325480">
	<ele>1318.00</ele>
	<time>2025-04-29T10:07:18.000Z</time>
</trkpt>
<trkpt lat="45.9121100" lon="10.3325390">
	<ele>1318.00</ele>
	<time>2025-04-29T10:07:19.000Z</time>
</trkpt>
<trkpt lat="45.9121240" lon="10.3325270">
	<ele>1318.00</ele>
	<time>2025-04-29T10:07:20.000Z</time>
</trkpt>
<trkpt lat="45.9121260" lon="10.3325190">
	<ele>1317.80</ele>
	<time>2025-04-29T10:07:21.000Z</time>
</trkpt>
<trkpt lat="45.9121210" lon="10.3325150">
	<ele>1317.80</ele>
	<time>2025-04-29T10:07:22.000Z</time>
</trkpt>
<trkpt lat="45.9121080" lon="10.3325110">
	<ele>1317.80</ele>
	<time>2025-04-29T10:07:23.000Z</time>
</trkpt>
<trkpt lat="45.9121020" lon="10.3325120">
	<ele>1317.80</ele>
	<time>2025-04-29T10:07:24.000Z</time>
</trkpt>
<trkpt lat="45.9120990" lon="10.3325090">
	<ele>1317.80</ele>
	<time>2025-04-29T10:07:25.000Z</time>
</trkpt>
<trkpt lat="45.9120980" lon="10.3325050">
	<ele>1317.80</ele>
	<time>2025-04-29T10:07:26.000Z</time>
</trkpt>
<trkpt lat="45.9121040" lon="10.3324970">
	<ele>1317.80</ele>
	<time>2025-04-29T10:07:27.000Z</time>
</trkpt>
<trkpt lat="45.9120640" lon="10.3324960">
	<ele>1317.80</ele>
	<time>2025-04-29T10:07:28.000Z</time>
</trkpt>
<trkpt lat="45.9120430" lon="10.3324880">
	<ele>1317.80</ele>
	<time>2025-04-29T10:07:29.000Z</time>
</trkpt>
<trkpt lat="45.9120240" lon="10.3324800">
	<ele>1317.80</ele>
	<time>2025-04-29T10:07:30.000Z</time>
</trkpt>
<trkpt lat="45.9120050" lon="10.3324770">
	<ele>1317.80</ele>
	<time>2025-04-29T10:07:31.000Z</time>
</trkpt>
<trkpt lat="45.9120050" lon="10.3324680">
	<ele>1317.80</ele>
	<time>2025-04-29T10:07:32.000Z</time>
</trkpt>
<trkpt lat="45.9120120" lon="10.3324690">
	<ele>1318.00</ele>
	<time>2025-04-29T10:07:33.000Z</time>
</trkpt>
<trkpt lat="45.9120240" lon="10.3324710">
	<ele>1318.00</ele>
	<time>2025-04-29T10:07:34.000Z</time>
</trkpt>
<trkpt lat="45.9120250" lon="10.3324700">
	<ele>1318.20</ele>
	<time>2025-04-29T10:07:35.000Z</time>
</trkpt>
<trkpt lat="45.9120470" lon="10.3324600">
	<ele>1318.40</ele>
	<time>2025-04-29T10:07:36.000Z</time>
</trkpt>
<trkpt lat="45.9120720" lon="10.3324510">
	<ele>1318.40</ele>
	<time>2025-04-29T10:07:37.000Z</time>
</trkpt>
<trkpt lat="45.9120960" lon="10.3324490">
	<ele>1318.60</ele>
	<time>2025-04-29T10:07:38.000Z</time>
</trkpt>
<trkpt lat="45.9121020" lon="10.3324490">
	<ele>1318.60</ele>
	<time>2025-04-29T10:07:39.000Z</time>
</trkpt>
<trkpt lat="45.9121260" lon="10.3324370">
	<ele>1318.60</ele>
	<time>2025-04-29T10:07:40.000Z</time>
</trkpt>
<trkpt lat="45.9121450" lon="10.3324230">
	<ele>1318.60</ele>
	<time>2025-04-29T10:07:41.000Z</time>
</trkpt>
<trkpt lat="45.9121650" lon="10.3324110">
	<ele>1318.60</ele>
	<time>2025-04-29T10:07:42.000Z</time>
</trkpt>
<trkpt lat="45.9121710" lon="10.3324070">
	<ele>1318.80</ele>
	<time>2025-04-29T10:07:43.000Z</time>
</trkpt>
<trkpt lat="45.9121960" lon="10.3324050">
	<ele>1318.80</ele>
	<time>2025-04-29T10:07:44.000Z</time>
</trkpt>
<trkpt lat="45.9122230" lon="10.3323960">
	<ele>1318.80</ele>
	<time>2025-04-29T10:07:45.000Z</time>
</trkpt>
<trkpt lat="45.9122460" lon="10.3323780">
	<ele>1318.80</ele>
	<time>2025-04-29T10:07:46.000Z</time>
</trkpt>
<trkpt lat="45.9122610" lon="10.3323610">
	<ele>1318.80</ele>
	<time>2025-04-29T10:07:47.000Z</time>
</trkpt>
<trkpt lat="45.9122740" lon="10.3323490">
	<ele>1318.80</ele>
	<time>2025-04-29T10:07:48.000Z</time>
</trkpt>
<trkpt lat="45.9122890" lon="10.3323400">
	<ele>1318.80</ele>
	<time>2025-04-29T10:07:49.000Z</time>
</trkpt>
<trkpt lat="45.9123110" lon="10.3323190">
	<ele>1318.60</ele>
	<time>2025-04-29T10:07:50.000Z</time>
</trkpt>
<trkpt lat="45.9123330" lon="10.3322990">
	<ele>1318.40</ele>
	<time>2025-04-29T10:07:51.000Z</time>
</trkpt>
<trkpt lat="45.9123520" lon="10.3322820">
	<ele>1318.20</ele>
	<time>2025-04-29T10:07:52.000Z</time>
</trkpt>
<trkpt lat="45.9123660" lon="10.3322640">
	<ele>1318.00</ele>
	<time>2025-04-29T10:07:53.000Z</time>
</trkpt>
<trkpt lat="45.9123830" lon="10.3322420">
	<ele>1317.60</ele>
	<time>2025-04-29T10:07:54.000Z</time>
</trkpt>
<trkpt lat="45.9124070" lon="10.3322200">
	<ele>1317.40</ele>
	<time>2025-04-29T10:07:55.000Z</time>
</trkpt>
<trkpt lat="45.9124340" lon="10.3322000">
	<ele>1317.00</ele>
	<time>2025-04-29T10:07:56.000Z</time>
</trkpt>
<trkpt lat="45.9124480" lon="10.3321870">
	<ele>1316.80</ele>
	<time>2025-04-29T10:07:57.000Z</time>
</trkpt>
<trkpt lat="45.9124510" lon="10.3321700">
	<ele>1316.80</ele>
	<time>2025-04-29T10:07:58.000Z</time>
</trkpt>
<trkpt lat="45.9124570" lon="10.3321590">
	<ele>1316.60</ele>
	<time>2025-04-29T10:07:59.000Z</time>
</trkpt>
<trkpt lat="45.9124580" lon="10.3321540">
	<ele>1316.60</ele>
	<time>2025-04-29T10:08:00.000Z</time>
</trkpt>
<trkpt lat="45.9124600" lon="10.3321540">
	<ele>1316.40</ele>
	<time>2025-04-29T10:08:01.000Z</time>
</trkpt>
<trkpt lat="45.9124620" lon="10.3321440">
	<ele>1316.40</ele>
	<time>2025-04-29T10:08:02.000Z</time>
</trkpt>
<trkpt lat="45.9124650" lon="10.3321360">
	<ele>1316.40</ele>
	<time>2025-04-29T10:08:03.000Z</time>
</trkpt>
<trkpt lat="45.9124630" lon="10.3321300">
	<ele>1316.20</ele>
	<time>2025-04-29T10:08:04.000Z</time>
</trkpt>
<trkpt lat="45.9124620" lon="10.3321270">
	<ele>1316.00</ele>
	<time>2025-04-29T10:08:05.000Z</time>
</trkpt>
<trkpt lat="45.9124620" lon="10.3321260">
	<ele>1315.60</ele>
	<time>2025-04-29T10:08:06.000Z</time>
</trkpt>
<trkpt lat="45.9124700" lon="10.3321130">
	<ele>1315.20</ele>
	<time>2025-04-29T10:08:07.000Z</time>
</trkpt>
<trkpt lat="45.9124830" lon="10.3320950">
	<ele>1315.00</ele>
	<time>2025-04-29T10:08:08.000Z</time>
</trkpt>
<trkpt lat="45.9125010" lon="10.3320730">
	<ele>1314.80</ele>
	<time>2025-04-29T10:08:09.000Z</time>
</trkpt>
<trkpt lat="45.9125110" lon="10.3320550">
	<ele>1314.40</ele>
	<time>2025-04-29T10:08:10.000Z</time>
</trkpt>
<trkpt lat="45.9125150" lon="10.3320340">
	<ele>1314.20</ele>
	<time>2025-04-29T10:08:11.000Z</time>
</trkpt>
<trkpt lat="45.9125160" lon="10.3320230">
	<ele>1314.00</ele>
	<time>2025-04-29T10:08:12.000Z</time>
</trkpt>
<trkpt lat="45.9125210" lon="10.3320060">
	<ele>1313.60</ele>
	<time>2025-04-29T10:08:13.000Z</time>
</trkpt>
<trkpt lat="45.9125210" lon="10.3320020">
	<ele>1313.40</ele>
	<time>2025-04-29T10:08:14.000Z</time>
</trkpt>
<trkpt lat="45.9125240" lon="10.3319920">
	<ele>1313.20</ele>
	<time>2025-04-29T10:08:15.000Z</time>
</trkpt>
<trkpt lat="45.9125350" lon="10.3319890">
	<ele>1313.00</ele>
	<time>2025-04-29T10:08:16.000Z</time>
</trkpt>
<trkpt lat="45.9125420" lon="10.3319850">
	<ele>1312.80</ele>
	<time>2025-04-29T10:08:17.000Z</time>
</trkpt>
<trkpt lat="45.9125420" lon="10.3319760">
	<ele>1312.60</ele>
	<time>2025-04-29T10:08:18.000Z</time>
</trkpt>
<trkpt lat="45.9125490" lon="10.3319640">
	<ele>1312.20</ele>
	<time>2025-04-29T10:08:19.000Z</time>
</trkpt>
<trkpt lat="45.9125610" lon="10.3319490">
	<ele>1311.80</ele>
	<time>2025-04-29T10:08:20.000Z</time>
</trkpt>
<trkpt lat="45.9125730" lon="10.3319350">
	<ele>1311.40</ele>
	<time>2025-04-29T10:08:21.000Z</time>
</trkpt>
<trkpt lat="45.9125850" lon="10.3319180">
	<ele>1311.20</ele>
	<time>2025-04-29T10:08:22.000Z</time>
</trkpt>
<trkpt lat="45.9125910" lon="10.3319020">
	<ele>1311.00</ele>
	<time>2025-04-29T10:08:23.000Z</time>
</trkpt>
<trkpt lat="45.9125930" lon="10.3318830">
	<ele>1310.80</ele>
	<time>2025-04-29T10:08:24.000Z</time>
</trkpt>
<trkpt lat="45.9125980" lon="10.3318670">
	<ele>1310.80</ele>
	<time>2025-04-29T10:08:25.000Z</time>
</trkpt>
<trkpt lat="45.9126130" lon="10.3318520">
	<ele>1310.80</ele>
	<time>2025-04-29T10:08:26.000Z</time>
</trkpt>
<trkpt lat="45.9126280" lon="10.3318340">
	<ele>1310.80</ele>
	<time>2025-04-29T10:08:27.000Z</time>
</trkpt>
<trkpt lat="45.9126390" lon="10.3318160">
	<ele>1310.60</ele>
	<time>2025-04-29T10:08:28.000Z</time>
</trkpt>
<trkpt lat="45.9126500" lon="10.3317940">
	<ele>1310.60</ele>
	<time>2025-04-29T10:08:29.000Z</time>
</trkpt>
<trkpt lat="45.9126470" lon="10.3317770">
	<ele>1310.40</ele>
	<time>2025-04-29T10:08:30.000Z</time>
</trkpt>
<trkpt lat="45.9126590" lon="10.3317600">
	<ele>1310.40</ele>
	<time>2025-04-29T10:08:31.000Z</time>
</trkpt>
<trkpt lat="45.9126710" lon="10.3317440">
	<ele>1310.40</ele>
	<time>2025-04-29T10:08:32.000Z</time>
</trkpt>
<trkpt lat="45.9126820" lon="10.3317330">
	<ele>1310.40</ele>
	<time>2025-04-29T10:08:33.000Z</time>
</trkpt>
<trkpt lat="45.9126930" lon="10.3317150">
	<ele>1310.40</ele>
	<time>2025-04-29T10:08:34.000Z</time>
</trkpt>
<trkpt lat="45.9127100" lon="10.3316970">
	<ele>1310.40</ele>
	<time>2025-04-29T10:08:35.000Z</time>
</trkpt>
<trkpt lat="45.9127190" lon="10.3316900">
	<ele>1310.40</ele>
	<time>2025-04-29T10:08:36.000Z</time>
</trkpt>
<trkpt lat="45.9127170" lon="10.3316880">
	<ele>1310.40</ele>
	<time>2025-04-29T10:08:37.000Z</time>
</trkpt>
<trkpt lat="45.9127290" lon="10.3316720">
	<ele>1310.40</ele>
	<time>2025-04-29T10:08:38.000Z</time>
</trkpt>
<trkpt lat="45.9127310" lon="10.3316720">
	<ele>1310.40</ele>
	<time>2025-04-29T10:08:39.000Z</time>
</trkpt>
<trkpt lat="45.9127470" lon="10.3316320">
	<ele>1310.40</ele>
	<time>2025-04-29T10:08:40.000Z</time>
</trkpt>
<trkpt lat="45.9127370" lon="10.3316170">
	<ele>1310.40</ele>
	<time>2025-04-29T10:08:41.000Z</time>
</trkpt>
<trkpt lat="45.9127320" lon="10.3316200">
	<ele>1310.40</ele>
	<time>2025-04-29T10:08:42.000Z</time>
</trkpt>
<trkpt lat="45.9127280" lon="10.3316230">
	<ele>1310.40</ele>
	<time>2025-04-29T10:08:43.000Z</time>
</trkpt>
<trkpt lat="45.9127200" lon="10.3316060">
	<ele>1310.40</ele>
	<time>2025-04-29T10:08:44.000Z</time>
</trkpt>
<trkpt lat="45.9127160" lon="10.3316010">
	<ele>1310.40</ele>
	<time>2025-04-29T10:08:45.000Z</time>
</trkpt>
<trkpt lat="45.9127210" lon="10.3315940">
	<ele>1310.40</ele>
	<time>2025-04-29T10:08:46.000Z</time>
</trkpt>
<trkpt lat="45.9127200" lon="10.3315940">
	<ele>1310.40</ele>
	<time>2025-04-29T10:08:47.000Z</time>
</trkpt>
<trkpt lat="45.9127230" lon="10.3315970">
	<ele>1310.40</ele>
	<time>2025-04-29T10:08:48.000Z</time>
</trkpt>
<trkpt lat="45.9127180" lon="10.3315970">
	<ele>1310.40</ele>
	<time>2025-04-29T10:08:49.000Z</time>
</trkpt>
<trkpt lat="45.9127220" lon="10.3315930">
	<ele>1310.40</ele>
	<time>2025-04-29T10:08:50.000Z</time>
</trkpt>
<trkpt lat="45.9127340" lon="10.3315930">
	<ele>1310.40</ele>
	<time>2025-04-29T10:08:51.000Z</time>
</trkpt>
<trkpt lat="45.9127400" lon="10.3315900">
	<ele>1310.40</ele>
	<time>2025-04-29T10:08:52.000Z</time>
</trkpt>
<trkpt lat="45.9127360" lon="10.3315850">
	<ele>1310.40</ele>
	<time>2025-04-29T10:08:53.000Z</time>
</trkpt>
<trkpt lat="45.9127330" lon="10.3315860">
	<ele>1310.40</ele>
	<time>2025-04-29T10:08:54.000Z</time>
</trkpt>
<trkpt lat="45.9127190" lon="10.3315820">
	<ele>1310.40</ele>
	<time>2025-04-29T10:08:55.000Z</time>
</trkpt>
<trkpt lat="45.9127030" lon="10.3315840">
	<ele>1310.40</ele>
	<time>2025-04-29T10:08:56.000Z</time>
</trkpt>
<trkpt lat="45.9126870" lon="10.3315960">
	<ele>1310.40</ele>
	<time>2025-04-29T10:08:57.000Z</time>
</trkpt>
<trkpt lat="45.9126810" lon="10.3316090">
	<ele>1310.40</ele>
	<time>2025-04-29T10:08:58.000Z</time>
</trkpt>
<trkpt lat="45.9126760" lon="10.3316230">
	<ele>1310.40</ele>
	<time>2025-04-29T10:08:59.000Z</time>
</trkpt>
<trkpt lat="45.9126650" lon="10.3316390">
	<ele>1310.40</ele>
	<time>2025-04-29T10:09:00.000Z</time>
</trkpt>
<trkpt lat="45.9126530" lon="10.3316530">
	<ele>1310.40</ele>
	<time>2025-04-29T10:09:01.000Z</time>
</trkpt>
<trkpt lat="45.9126320" lon="10.3316640">
	<ele>1310.40</ele>
	<time>2025-04-29T10:09:02.000Z</time>
</trkpt>
<trkpt lat="45.9126220" lon="10.3316790">
	<ele>1310.40</ele>
	<time>2025-04-29T10:09:03.000Z</time>
</trkpt>
<trkpt lat="45.9126190" lon="10.3316980">
	<ele>1310.40</ele>
	<time>2025-04-29T10:09:04.000Z</time>
</trkpt>
<trkpt lat="45.9126220" lon="10.3317130">
	<ele>1310.40</ele>
	<time>2025-04-29T10:09:05.000Z</time>
</trkpt>
<trkpt lat="45.9126230" lon="10.3317340">
	<ele>1310.40</ele>
	<time>2025-04-29T10:09:06.000Z</time>
</trkpt>
<trkpt lat="45.9126170" lon="10.3317360">
	<ele>1310.40</ele>
	<time>2025-04-29T10:09:07.000Z</time>
</trkpt>
<trkpt lat="45.9126170" lon="10.3317370">
	<ele>1310.40</ele>
	<time>2025-04-29T10:09:08.000Z</time>
</trkpt>
<trkpt lat="45.9126140" lon="10.3317340">
	<ele>1310.60</ele>
	<time>2025-04-29T10:09:09.000Z</time>
</trkpt>
<trkpt lat="45.9126100" lon="10.3317360">
	<ele>1310.60</ele>
	<time>2025-04-29T10:09:10.000Z</time>
</trkpt>
<trkpt lat="45.9125980" lon="10.3317440">
	<ele>1310.60</ele>
	<time>2025-04-29T10:09:11.000Z</time>
</trkpt>
<trkpt lat="45.9125900" lon="10.3317490">
	<ele>1310.60</ele>
	<time>2025-04-29T10:09:12.000Z</time>
</trkpt>
<trkpt lat="45.9125820" lon="10.3317510">
	<ele>1310.80</ele>
	<time>2025-04-29T10:09:13.000Z</time>
</trkpt>
<trkpt lat="45.9125660" lon="10.3317510">
	<ele>1310.80</ele>
	<time>2025-04-29T10:09:14.000Z</time>
</trkpt>
<trkpt lat="45.9125610" lon="10.3317520">
	<ele>1311.00</ele>
	<time>2025-04-29T10:09:15.000Z</time>
</trkpt>
<trkpt lat="45.9125540" lon="10.3317510">
	<ele>1311.00</ele>
	<time>2025-04-29T10:09:16.000Z</time>
</trkpt>
<trkpt lat="45.9125460" lon="10.3317510">
	<ele>1311.20</ele>
	<time>2025-04-29T10:09:17.000Z</time>
</trkpt>
<trkpt lat="45.9125480" lon="10.3317530">
	<ele>1311.40</ele>
	<time>2025-04-29T10:09:18.000Z</time>
</trkpt>
<trkpt lat="45.9125540" lon="10.3317570">
	<ele>1311.40</ele>
	<time>2025-04-29T10:09:19.000Z</time>
</trkpt>
<trkpt lat="45.9125520" lon="10.3317570">
	<ele>1311.60</ele>
	<time>2025-04-29T10:09:20.000Z</time>
</trkpt>
<trkpt lat="45.9125380" lon="10.3317520">
	<ele>1311.60</ele>
	<time>2025-04-29T10:09:21.000Z</time>
</trkpt>
<trkpt lat="45.9125280" lon="10.3317490">
	<ele>1311.80</ele>
	<time>2025-04-29T10:09:22.000Z</time>
</trkpt>
<trkpt lat="45.9125270" lon="10.3317500">
	<ele>1311.80</ele>
	<time>2025-04-29T10:09:23.000Z</time>
</trkpt>
<trkpt lat="45.9125260" lon="10.3317610">
	<ele>1312.00</ele>
	<time>2025-04-29T10:09:24.000Z</time>
</trkpt>
<trkpt lat="45.9125080" lon="10.3317710">
	<ele>1312.00</ele>
	<time>2025-04-29T10:09:25.000Z</time>
</trkpt>
<trkpt lat="45.9124930" lon="10.3317770">
	<ele>1312.00</ele>
	<time>2025-04-29T10:09:26.000Z</time>
</trkpt>
<trkpt lat="45.9124980" lon="10.3317770">
	<ele>1312.00</ele>
	<time>2025-04-29T10:09:27.000Z</time>
</trkpt>
<trkpt lat="45.9124920" lon="10.3317810">
	<ele>1312.40</ele>
	<time>2025-04-29T10:09:28.000Z</time>
</trkpt>
<trkpt lat="45.9124940" lon="10.3317810">
	<ele>1312.60</ele>
	<time>2025-04-29T10:09:29.000Z</time>
</trkpt>
<trkpt lat="45.9124960" lon="10.3317780">
	<ele>1312.60</ele>
	<time>2025-04-29T10:09:30.000Z</time>
</trkpt>
<trkpt lat="45.9125000" lon="10.3317690">
	<ele>1312.60</ele>
	<time>2025-04-29T10:09:31.000Z</time>
</trkpt>
<trkpt lat="45.9125060" lon="10.3317570">
	<ele>1312.60</ele>
	<time>2025-04-29T10:09:32.000Z</time>
</trkpt>
<trkpt lat="45.9125070" lon="10.3317490">
	<ele>1312.60</ele>
	<time>2025-04-29T10:09:33.000Z</time>
</trkpt>
<trkpt lat="45.9125060" lon="10.3317470">
	<ele>1312.60</ele>
	<time>2025-04-29T10:09:34.000Z</time>
</trkpt>
<trkpt lat="45.9125100" lon="10.3317420">
	<ele>1312.60</ele>
	<time>2025-04-29T10:09:35.000Z</time>
</trkpt>
<trkpt lat="45.9125110" lon="10.3317370">
	<ele>1312.40</ele>
	<time>2025-04-29T10:09:36.000Z</time>
</trkpt>
<trkpt lat="45.9125170" lon="10.3317320">
	<ele>1312.00</ele>
	<time>2025-04-29T10:09:37.000Z</time>
</trkpt>
<trkpt lat="45.9125240" lon="10.3317240">
	<ele>1311.60</ele>
	<time>2025-04-29T10:09:38.000Z</time>
</trkpt>
<trkpt lat="45.9125300" lon="10.3317140">
	<ele>1311.40</ele>
	<time>2025-04-29T10:09:39.000Z</time>
</trkpt>
<trkpt lat="45.9125390" lon="10.3317060">
	<ele>1311.00</ele>
	<time>2025-04-29T10:09:40.000Z</time>
</trkpt>
<trkpt lat="45.9125440" lon="10.3316940">
	<ele>1310.80</ele>
	<time>2025-04-29T10:09:41.000Z</time>
</trkpt>
<trkpt lat="45.9125450" lon="10.3316830">
	<ele>1310.60</ele>
	<time>2025-04-29T10:09:42.000Z</time>
</trkpt>
<trkpt lat="45.9125400" lon="10.3316800">
	<ele>1310.60</ele>
	<time>2025-04-29T10:09:43.000Z</time>
</trkpt>
<trkpt lat="45.9125390" lon="10.3316770">
	<ele>1310.60</ele>
	<time>2025-04-29T10:09:44.000Z</time>
</trkpt>
<trkpt lat="45.9125280" lon="10.3316770">
	<ele>1310.40</ele>
	<time>2025-04-29T10:09:45.000Z</time>
</trkpt>
<trkpt lat="45.9125320" lon="10.3316750">
	<ele>1310.40</ele>
	<time>2025-04-29T10:09:46.000Z</time>
</trkpt>
<trkpt lat="45.9125390" lon="10.3316680">
	<ele>1310.40</ele>
	<time>2025-04-29T10:09:47.000Z</time>
</trkpt>
<trkpt lat="45.9125430" lon="10.3316600">
	<ele>1310.40</ele>
	<time>2025-04-29T10:09:48.000Z</time>
</trkpt>
<trkpt lat="45.9125450" lon="10.3316550">
	<ele>1310.40</ele>
	<time>2025-04-29T10:09:49.000Z</time>
</trkpt>
<trkpt lat="45.9125500" lon="10.3316530">
	<ele>1310.40</ele>
	<time>2025-04-29T10:09:50.000Z</time>
</trkpt>
<trkpt lat="45.9125550" lon="10.3316500">
	<ele>1310.40</ele>
	<time>2025-04-29T10:09:51.000Z</time>
</trkpt>
<trkpt lat="45.9125550" lon="10.3316470">
	<ele>1310.40</ele>
	<time>2025-04-29T10:09:52.000Z</time>
</trkpt>
<trkpt lat="45.9125780" lon="10.3316390">
	<ele>1310.40</ele>
	<time>2025-04-29T10:09:53.000Z</time>
</trkpt>
<trkpt lat="45.9125940" lon="10.3316290">
	<ele>1310.40</ele>
	<time>2025-04-29T10:09:54.000Z</time>
</trkpt>
<trkpt lat="45.9125980" lon="10.3316210">
	<ele>1310.40</ele>
	<time>2025-04-29T10:09:55.000Z</time>
</trkpt>
<trkpt lat="45.9126110" lon="10.3316160">
	<ele>1310.60</ele>
	<time>2025-04-29T10:09:56.000Z</time>
</trkpt>
<trkpt lat="45.9126220" lon="10.3316080">
	<ele>1310.60</ele>
	<time>2025-04-29T10:09:57.000Z</time>
</trkpt>
<trkpt lat="45.9126310" lon="10.3316010">
	<ele>1310.60</ele>
	<time>2025-04-29T10:09:58.000Z</time>
</trkpt>
<trkpt lat="45.9126290" lon="10.3315960">
	<ele>1310.60</ele>
	<time>2025-04-29T10:09:59.000Z</time>
</trkpt>
<trkpt lat="45.9126250" lon="10.3315820">
	<ele>1310.40</ele>
	<time>2025-04-29T10:10:00.000Z</time>
</trkpt>
<trkpt lat="45.9126250" lon="10.3315680">
	<ele>1310.20</ele>
	<time>2025-04-29T10:10:01.000Z</time>
</trkpt>
<trkpt lat="45.9126240" lon="10.3315600">
	<ele>1310.00</ele>
	<time>2025-04-29T10:10:02.000Z</time>
</trkpt>
<trkpt lat="45.9126260" lon="10.3315560">
	<ele>1309.80</ele>
	<time>2025-04-29T10:10:03.000Z</time>
</trkpt>
<trkpt lat="45.9126270" lon="10.3315550">
	<ele>1309.40</ele>
	<time>2025-04-29T10:10:04.000Z</time>
</trkpt>
<trkpt lat="45.9126360" lon="10.3315530">
	<ele>1309.00</ele>
	<time>2025-04-29T10:10:05.000Z</time>
</trkpt>
<trkpt lat="45.9126460" lon="10.3315440">
	<ele>1308.80</ele>
	<time>2025-04-29T10:10:06.000Z</time>
</trkpt>
<trkpt lat="45.9126610" lon="10.3315310">
	<ele>1308.40</ele>
	<time>2025-04-29T10:10:07.000Z</time>
</trkpt>
<trkpt lat="45.9126690" lon="10.3315170">
	<ele>1308.20</ele>
	<time>2025-04-29T10:10:08.000Z</time>
</trkpt>
<trkpt lat="45.9126780" lon="10.3315030">
	<ele>1307.80</ele>
	<time>2025-04-29T10:10:09.000Z</time>
</trkpt>
<trkpt lat="45.9126800" lon="10.3314870">
	<ele>1307.60</ele>
	<time>2025-04-29T10:10:10.000Z</time>
</trkpt>
<trkpt lat="45.9126810" lon="10.3314790">
	<ele>1307.40</ele>
	<time>2025-04-29T10:10:11.000Z</time>
</trkpt>
<trkpt lat="45.9126810" lon="10.3314740">
	<ele>1307.00</ele>
	<time>2025-04-29T10:10:12.000Z</time>
</trkpt>
<trkpt lat="45.9126860" lon="10.3314640">
	<ele>1306.60</ele>
	<time>2025-04-29T10:10:13.000Z</time>
</trkpt>
<trkpt lat="45.9126930" lon="10.3314460">
	<ele>1306.20</ele>
	<time>2025-04-29T10:10:14.000Z</time>
</trkpt>
<trkpt lat="45.9127100" lon="10.3314280">
	<ele>1306.00</ele>
	<time>2025-04-29T10:10:15.000Z</time>
</trkpt>
<trkpt lat="45.9127260" lon="10.3314130">
	<ele>1305.40</ele>
	<time>2025-04-29T10:10:16.000Z</time>
</trkpt>
<trkpt lat="45.9127240" lon="10.3313830">
	<ele>1305.00</ele>
	<time>2025-04-29T10:10:17.000Z</time>
</trkpt>
<trkpt lat="45.9127130" lon="10.3313700">
	<ele>1304.80</ele>
	<time>2025-04-29T10:10:18.000Z</time>
</trkpt>
<trkpt lat="45.9127060" lon="10.3313520">
	<ele>1304.20</ele>
	<time>2025-04-29T10:10:19.000Z</time>
</trkpt>
<trkpt lat="45.9126960" lon="10.3313350">
	<ele>1303.80</ele>
	<time>2025-04-29T10:10:20.000Z</time>
</trkpt>
<trkpt lat="45.9126940" lon="10.3313100">
	<ele>1303.60</ele>
	<time>2025-04-29T10:10:21.000Z</time>
</trkpt>
<trkpt lat="45.9126900" lon="10.3312900">
	<ele>1303.20</ele>
	<time>2025-04-29T10:10:22.000Z</time>
</trkpt>
<trkpt lat="45.9126910" lon="10.3312810">
	<ele>1302.80</ele>
	<time>2025-04-29T10:10:23.000Z</time>
</trkpt>
<trkpt lat="45.9126900" lon="10.3312750">
	<ele>1302.60</ele>
	<time>2025-04-29T10:10:24.000Z</time>
</trkpt>
<trkpt lat="45.9126970" lon="10.3312810">
	<ele>1302.00</ele>
	<time>2025-04-29T10:10:25.000Z</time>
</trkpt>
<trkpt lat="45.9126920" lon="10.3312770">
	<ele>1301.60</ele>
	<time>2025-04-29T10:10:26.000Z</time>
</trkpt>
<trkpt lat="45.9126910" lon="10.3312690">
	<ele>1301.40</ele>
	<time>2025-04-29T10:10:27.000Z</time>
</trkpt>
<trkpt lat="45.9126970" lon="10.3312570">
	<ele>1301.00</ele>
	<time>2025-04-29T10:10:28.000Z</time>
</trkpt>
<trkpt lat="45.9127050" lon="10.3312450">
	<ele>1300.80</ele>
	<time>2025-04-29T10:10:29.000Z</time>
</trkpt>
<trkpt lat="45.9127030" lon="10.3312340">
	<ele>1300.40</ele>
	<time>2025-04-29T10:10:30.000Z</time>
</trkpt>
<trkpt lat="45.9127030" lon="10.3312220">
	<ele>1300.20</ele>
	<time>2025-04-29T10:10:31.000Z</time>
</trkpt>
<trkpt lat="45.9126990" lon="10.3312230">
	<ele>1299.80</ele>
	<time>2025-04-29T10:10:32.000Z</time>
</trkpt>
<trkpt lat="45.9127080" lon="10.3312100">
	<ele>1299.60</ele>
	<time>2025-04-29T10:10:33.000Z</time>
</trkpt>
<trkpt lat="45.9127040" lon="10.3312080">
	<ele>1299.20</ele>
	<time>2025-04-29T10:10:34.000Z</time>
</trkpt>
<trkpt lat="45.9127160" lon="10.3312080">
	<ele>1299.00</ele>
	<time>2025-04-29T10:10:35.000Z</time>
</trkpt>
<trkpt lat="45.9127170" lon="10.3312030">
	<ele>1298.80</ele>
	<time>2025-04-29T10:10:36.000Z</time>
</trkpt>
<trkpt lat="45.9127230" lon="10.3311950">
	<ele>1298.60</ele>
	<time>2025-04-29T10:10:37.000Z</time>
</trkpt>
<trkpt lat="45.9127270" lon="10.3311790">
	<ele>1298.40</ele>
	<time>2025-04-29T10:10:38.000Z</time>
</trkpt>
<trkpt lat="45.9127350" lon="10.3311610">
	<ele>1298.00</ele>
	<time>2025-04-29T10:10:39.000Z</time>
</trkpt>
<trkpt lat="45.9127520" lon="10.3311520">
	<ele>1297.80</ele>
	<time>2025-04-29T10:10:40.000Z</time>
</trkpt>
<trkpt lat="45.9127630" lon="10.3311500">
	<ele>1297.60</ele>
	<time>2025-04-29T10:10:41.000Z</time>
</trkpt>
<trkpt lat="45.9127690" lon="10.3311370">
	<ele>1297.20</ele>
	<time>2025-04-29T10:10:42.000Z</time>
</trkpt>
<trkpt lat="45.9127730" lon="10.3311220">
	<ele>1297.00</ele>
	<time>2025-04-29T10:10:43.000Z</time>
</trkpt>
<trkpt lat="45.9127840" lon="10.3311080">
	<ele>1296.80</ele>
	<time>2025-04-29T10:10:44.000Z</time>
</trkpt>
<trkpt lat="45.9127840" lon="10.3311040">
	<ele>1296.40</ele>
	<time>2025-04-29T10:10:45.000Z</time>
</trkpt>
<trkpt lat="45.9127970" lon="10.3310980">
	<ele>1296.20</ele>
	<time>2025-04-29T10:10:46.000Z</time>
</trkpt>
<trkpt lat="45.9128040" lon="10.3310930">
	<ele>1296.20</ele>
	<time>2025-04-29T10:10:47.000Z</time>
</trkpt>
<trkpt lat="45.9128020" lon="10.3310930">
	<ele>1295.80</ele>
	<time>2025-04-29T10:10:48.000Z</time>
</trkpt>
<trkpt lat="45.9128010" lon="10.3310920">
	<ele>1295.80</ele>
	<time>2025-04-29T10:10:49.000Z</time>
</trkpt>
<trkpt lat="45.9128000" lon="10.3310930">
	<ele>1295.60</ele>
	<time>2025-04-29T10:10:50.000Z</time>
</trkpt>
<trkpt lat="45.9127990" lon="10.3310950">
	<ele>1295.60</ele>
	<time>2025-04-29T10:10:51.000Z</time>
</trkpt>
<trkpt lat="45.9127970" lon="10.3310970">
	<ele>1295.60</ele>
	<time>2025-04-29T10:10:52.000Z</time>
</trkpt>
<trkpt lat="45.9127950" lon="10.3310980">
	<ele>1295.60</ele>
	<time>2025-04-29T10:10:53.000Z</time>
</trkpt>
<trkpt lat="45.9127860" lon="10.3310980">
	<ele>1295.60</ele>
	<time>2025-04-29T10:10:54.000Z</time>
</trkpt>
<trkpt lat="45.9127790" lon="10.3310930">
	<ele>1295.60</ele>
	<time>2025-04-29T10:10:55.000Z</time>
</trkpt>
<trkpt lat="45.9127740" lon="10.3310960">
	<ele>1295.80</ele>
	<time>2025-04-29T10:10:56.000Z</time>
</trkpt>
<trkpt lat="45.9127790" lon="10.3310920">
	<ele>1295.80</ele>
	<time>2025-04-29T10:10:57.000Z</time>
</trkpt>
<trkpt lat="45.9127850" lon="10.3310860">
	<ele>1295.80</ele>
	<time>2025-04-29T10:10:58.000Z</time>
</trkpt>
<trkpt lat="45.9127830" lon="10.3310850">
	<ele>1295.60</ele>
	<time>2025-04-29T10:10:59.000Z</time>
</trkpt>
<trkpt lat="45.9127790" lon="10.3310850">
	<ele>1295.60</ele>
	<time>2025-04-29T10:11:00.000Z</time>
</trkpt>
<trkpt lat="45.9127610" lon="10.3310970">
	<ele>1295.60</ele>
	<time>2025-04-29T10:11:01.000Z</time>
</trkpt>
<trkpt lat="45.9127460" lon="10.3310980">
	<ele>1295.20</ele>
	<time>2025-04-29T10:11:02.000Z</time>
</trkpt>
<trkpt lat="45.9127410" lon="10.3310960">
	<ele>1295.20</ele>
	<time>2025-04-29T10:11:03.000Z</time>
</trkpt>
<trkpt lat="45.9127460" lon="10.3310870">
	<ele>1294.80</ele>
	<time>2025-04-29T10:11:04.000Z</time>
</trkpt>
<trkpt lat="45.9127450" lon="10.3310760">
	<ele>1294.60</ele>
	<time>2025-04-29T10:11:05.000Z</time>
</trkpt>
<trkpt lat="45.9127460" lon="10.3310640">
	<ele>1294.40</ele>
	<time>2025-04-29T10:11:06.000Z</time>
</trkpt>
<trkpt lat="45.9127510" lon="10.3310540">
	<ele>1294.20</ele>
	<time>2025-04-29T10:11:07.000Z</time>
</trkpt>
<trkpt lat="45.9127570" lon="10.3310450">
	<ele>1293.80</ele>
	<time>2025-04-29T10:11:08.000Z</time>
</trkpt>
<trkpt lat="45.9127590" lon="10.3310410">
	<ele>1293.40</ele>
	<time>2025-04-29T10:11:09.000Z</time>
</trkpt>
<trkpt lat="45.9127620" lon="10.3310290">
	<ele>1293.00</ele>
	<time>2025-04-29T10:11:10.000Z</time>
</trkpt>
<trkpt lat="45.9127670" lon="10.3310170">
	<ele>1292.80</ele>
	<time>2025-04-29T10:11:11.000Z</time>
</trkpt>
<trkpt lat="45.9127680" lon="10.3310140">
	<ele>1292.60</ele>
	<time>2025-04-29T10:11:12.000Z</time>
</trkpt>
<trkpt lat="45.9127680" lon="10.3310120">
	<ele>1292.40</ele>
	<time>2025-04-29T10:11:13.000Z</time>
</trkpt>
<trkpt lat="45.9127600" lon="10.3310060">
	<ele>1292.00</ele>
	<time>2025-04-29T10:11:14.000Z</time>
</trkpt>
<trkpt lat="45.9127450" lon="10.3309910">
	<ele>1291.80</ele>
	<time>2025-04-29T10:11:15.000Z</time>
</trkpt>
<trkpt lat="45.9127380" lon="10.3309740">
	<ele>1291.40</ele>
	<time>2025-04-29T10:11:16.000Z</time>
</trkpt>
<trkpt lat="45.9127440" lon="10.3309530">
	<ele>1291.00</ele>
	<time>2025-04-29T10:11:17.000Z</time>
</trkpt>
<trkpt lat="45.9127580" lon="10.3309310">
	<ele>1290.60</ele>
	<time>2025-04-29T10:11:18.000Z</time>
</trkpt>
<trkpt lat="45.9127650" lon="10.3309130">
	<ele>1290.40</ele>
	<time>2025-04-29T10:11:19.000Z</time>
</trkpt>
<trkpt lat="45.9127640" lon="10.3309030">
	<ele>1290.20</ele>
	<time>2025-04-29T10:11:20.000Z</time>
</trkpt>
<trkpt lat="45.9127610" lon="10.3308950">
	<ele>1290.00</ele>
	<time>2025-04-29T10:11:21.000Z</time>
</trkpt>
<trkpt lat="45.9127610" lon="10.3308800">
	<ele>1289.80</ele>
	<time>2025-04-29T10:11:22.000Z</time>
</trkpt>
<trkpt lat="45.9127620" lon="10.3308610">
	<ele>1289.60</ele>
	<time>2025-04-29T10:11:23.000Z</time>
</trkpt>
<trkpt lat="45.9127620" lon="10.3308390">
	<ele>1289.20</ele>
	<time>2025-04-29T10:11:24.000Z</time>
</trkpt>
<trkpt lat="45.9127610" lon="10.3308230">
	<ele>1289.00</ele>
	<time>2025-04-29T10:11:25.000Z</time>
</trkpt>
<trkpt lat="45.9127610" lon="10.3308070">
	<ele>1289.00</ele>
	<time>2025-04-29T10:11:26.000Z</time>
</trkpt>
<trkpt lat="45.9127560" lon="10.3308020">
	<ele>1288.60</ele>
	<time>2025-04-29T10:11:27.000Z</time>
</trkpt>
<trkpt lat="45.9127590" lon="10.3307920">
	<ele>1288.40</ele>
	<time>2025-04-29T10:11:28.000Z</time>
</trkpt>
<trkpt lat="45.9127650" lon="10.3307850">
	<ele>1288.00</ele>
	<time>2025-04-29T10:11:29.000Z</time>
</trkpt>
<trkpt lat="45.9127650" lon="10.3307820">
	<ele>1287.80</ele>
	<time>2025-04-29T10:11:30.000Z</time>
</trkpt>
<trkpt lat="45.9127670" lon="10.3307690">
	<ele>1287.60</ele>
	<time>2025-04-29T10:11:31.000Z</time>
</trkpt>
<trkpt lat="45.9127720" lon="10.3307540">
	<ele>1287.40</ele>
	<time>2025-04-29T10:11:32.000Z</time>
</trkpt>
<trkpt lat="45.9127720" lon="10.3307370">
	<ele>1287.20</ele>
	<time>2025-04-29T10:11:33.000Z</time>
</trkpt>
<trkpt lat="45.9127680" lon="10.3307260">
	<ele>1287.00</ele>
	<time>2025-04-29T10:11:34.000Z</time>
</trkpt>
<trkpt lat="45.9127610" lon="10.3307210">
	<ele>1286.60</ele>
	<time>2025-04-29T10:11:35.000Z</time>
</trkpt>
<trkpt lat="45.9127600" lon="10.3307100">
	<ele>1286.40</ele>
	<time>2025-04-29T10:11:36.000Z</time>
</trkpt>
<trkpt lat="45.9127560" lon="10.3306950">
	<ele>1286.20</ele>
	<time>2025-04-29T10:11:37.000Z</time>
</trkpt>
<trkpt lat="45.9127680" lon="10.3306860">
	<ele>1286.00</ele>
	<time>2025-04-29T10:11:38.000Z</time>
</trkpt>
<trkpt lat="45.9127720" lon="10.3306730">
	<ele>1285.80</ele>
	<time>2025-04-29T10:11:39.000Z</time>
</trkpt>
<trkpt lat="45.9127760" lon="10.3306590">
	<ele>1285.40</ele>
	<time>2025-04-29T10:11:40.000Z</time>
</trkpt>
<trkpt lat="45.9127830" lon="10.3306480">
	<ele>1285.00</ele>
	<time>2025-04-29T10:11:41.000Z</time>
</trkpt>
<trkpt lat="45.9127900" lon="10.3306330">
	<ele>1284.80</ele>
	<time>2025-04-29T10:11:42.000Z</time>
</trkpt>
<trkpt lat="45.9127880" lon="10.3306210">
	<ele>1284.60</ele>
	<time>2025-04-29T10:11:43.000Z</time>
</trkpt>
<trkpt lat="45.9127930" lon="10.3306070">
	<ele>1284.20</ele>
	<time>2025-04-29T10:11:44.000Z</time>
</trkpt>
<trkpt lat="45.9127960" lon="10.3305920">
	<ele>1283.80</ele>
	<time>2025-04-29T10:11:45.000Z</time>
</trkpt>
<trkpt lat="45.9127990" lon="10.3305850">
	<ele>1283.60</ele>
	<time>2025-04-29T10:11:46.000Z</time>
</trkpt>
<trkpt lat="45.9128080" lon="10.3305760">
	<ele>1283.40</ele>
	<time>2025-04-29T10:11:47.000Z</time>
</trkpt>
<trkpt lat="45.9128220" lon="10.3305700">
	<ele>1283.00</ele>
	<time>2025-04-29T10:11:48.000Z</time>
</trkpt>
<trkpt lat="45.9128360" lon="10.3305570">
	<ele>1282.60</ele>
	<time>2025-04-29T10:11:49.000Z</time>
</trkpt>
<trkpt lat="45.9128460" lon="10.3305370">
	<ele>1282.40</ele>
	<time>2025-04-29T10:11:50.000Z</time>
</trkpt>
<trkpt lat="45.9128460" lon="10.3305240">
	<ele>1282.20</ele>
	<time>2025-04-29T10:11:51.000Z</time>
</trkpt>
<trkpt lat="45.9128440" lon="10.3305190">
	<ele>1282.00</ele>
	<time>2025-04-29T10:11:52.000Z</time>
</trkpt>
<trkpt lat="45.9128350" lon="10.3305180">
	<ele>1281.80</ele>
	<time>2025-04-29T10:11:53.000Z</time>
</trkpt>
<trkpt lat="45.9128300" lon="10.3305170">
	<ele>1281.60</ele>
	<time>2025-04-29T10:11:54.000Z</time>
</trkpt>
<trkpt lat="45.9128290" lon="10.3304980">
	<ele>1281.20</ele>
	<time>2025-04-29T10:11:55.000Z</time>
</trkpt>
<trkpt lat="45.9128350" lon="10.3304750">
	<ele>1281.20</ele>
	<time>2025-04-29T10:11:56.000Z</time>
</trkpt>
<trkpt lat="45.9128170" lon="10.3304280">
	<ele>1281.00</ele>
	<time>2025-04-29T10:11:57.000Z</time>
</trkpt>
<trkpt lat="45.9128270" lon="10.3304040">
	<ele>1280.80</ele>
	<time>2025-04-29T10:11:58.000Z</time>
</trkpt>
<trkpt lat="45.9128320" lon="10.3303820">
	<ele>1280.40</ele>
	<time>2025-04-29T10:11:59.000Z</time>
</trkpt>
<trkpt lat="45.9128310" lon="10.3303740">
	<ele>1280.20</ele>
	<time>2025-04-29T10:12:00.000Z</time>
</trkpt>
<trkpt lat="45.9128320" lon="10.3303700">
	<ele>1280.00</ele>
	<time>2025-04-29T10:12:01.000Z</time>
</trkpt>
<trkpt lat="45.9128320" lon="10.3303600">
	<ele>1279.60</ele>
	<time>2025-04-29T10:12:02.000Z</time>
</trkpt>
<trkpt lat="45.9128260" lon="10.3303550">
	<ele>1279.60</ele>
	<time>2025-04-29T10:12:03.000Z</time>
</trkpt>
<trkpt lat="45.9128170" lon="10.3303440">
	<ele>1279.40</ele>
	<time>2025-04-29T10:12:04.000Z</time>
</trkpt>
<trkpt lat="45.9128210" lon="10.3303270">
	<ele>1279.20</ele>
	<time>2025-04-29T10:12:05.000Z</time>
</trkpt>
<trkpt lat="45.9128340" lon="10.3303140">
	<ele>1279.00</ele>
	<time>2025-04-29T10:12:06.000Z</time>
</trkpt>
<trkpt lat="45.9128390" lon="10.3303150">
	<ele>1278.80</ele>
	<time>2025-04-29T10:12:07.000Z</time>
</trkpt>
<trkpt lat="45.9128410" lon="10.3303130">
	<ele>1278.40</ele>
	<time>2025-04-29T10:12:08.000Z</time>
</trkpt>
<trkpt lat="45.9128470" lon="10.3303080">
	<ele>1278.20</ele>
	<time>2025-04-29T10:12:09.000Z</time>
</trkpt>
<trkpt lat="45.9128500" lon="10.3302950">
	<ele>1278.00</ele>
	<time>2025-04-29T10:12:10.000Z</time>
</trkpt>
<trkpt lat="45.9128490" lon="10.3302850">
	<ele>1277.80</ele>
	<time>2025-04-29T10:12:11.000Z</time>
</trkpt>
<trkpt lat="45.9128480" lon="10.3302860">
	<ele>1277.40</ele>
	<time>2025-04-29T10:12:12.000Z</time>
</trkpt>
<trkpt lat="45.9128600" lon="10.3302920">
	<ele>1277.00</ele>
	<time>2025-04-29T10:12:13.000Z</time>
</trkpt>
<trkpt lat="45.9128710" lon="10.3302830">
	<ele>1276.80</ele>
	<time>2025-04-29T10:12:14.000Z</time>
</trkpt>
<trkpt lat="45.9128750" lon="10.3302800">
	<ele>1276.40</ele>
	<time>2025-04-29T10:12:15.000Z</time>
</trkpt>
<trkpt lat="45.9128790" lon="10.3302710">
	<ele>1276.20</ele>
	<time>2025-04-29T10:12:16.000Z</time>
</trkpt>
<trkpt lat="45.9128840" lon="10.3302620">
	<ele>1276.00</ele>
	<time>2025-04-29T10:12:17.000Z</time>
</trkpt>
<trkpt lat="45.9129010" lon="10.3302500">
	<ele>1275.60</ele>
	<time>2025-04-29T10:12:18.000Z</time>
</trkpt>
<trkpt lat="45.9128990" lon="10.3302500">
	<ele>1275.20</ele>
	<time>2025-04-29T10:12:19.000Z</time>
</trkpt>
<trkpt lat="45.9129020" lon="10.3302350">
	<ele>1275.00</ele>
	<time>2025-04-29T10:12:20.000Z</time>
</trkpt>
<trkpt lat="45.9129020" lon="10.3302110">
	<ele>1274.80</ele>
	<time>2025-04-29T10:12:21.000Z</time>
</trkpt>
<trkpt lat="45.9129040" lon="10.3301870">
	<ele>1274.40</ele>
	<time>2025-04-29T10:12:22.000Z</time>
</trkpt>
<trkpt lat="45.9129130" lon="10.3301630">
	<ele>1274.20</ele>
	<time>2025-04-29T10:12:23.000Z</time>
</trkpt>
<trkpt lat="45.9129230" lon="10.3301330">
	<ele>1273.60</ele>
	<time>2025-04-29T10:12:24.000Z</time>
</trkpt>
<trkpt lat="45.9129320" lon="10.3301040">
	<ele>1273.40</ele>
	<time>2025-04-29T10:12:25.000Z</time>
</trkpt>
<trkpt lat="45.9129470" lon="10.3300780">
	<ele>1273.00</ele>
	<time>2025-04-29T10:12:26.000Z</time>
</trkpt>
<trkpt lat="45.9129550" lon="10.3300580">
	<ele>1272.80</ele>
	<time>2025-04-29T10:12:27.000Z</time>
</trkpt>
<trkpt lat="45.9129580" lon="10.3300420">
	<ele>1272.60</ele>
	<time>2025-04-29T10:12:28.000Z</time>
</trkpt>
<trkpt lat="45.9129540" lon="10.3300130">
	<ele>1272.20</ele>
	<time>2025-04-29T10:12:29.000Z</time>
</trkpt>
<trkpt lat="45.9129620" lon="10.3299890">
	<ele>1271.60</ele>
	<time>2025-04-29T10:12:30.000Z</time>
</trkpt>
<trkpt lat="45.9129800" lon="10.3299650">
	<ele>1271.20</ele>
	<time>2025-04-29T10:12:31.000Z</time>
</trkpt>
<trkpt lat="45.9129810" lon="10.3299640">
	<ele>1271.00</ele>
	<time>2025-04-29T10:12:32.000Z</time>
</trkpt>
<trkpt lat="45.9130000" lon="10.3299450">
	<ele>1270.80</ele>
	<time>2025-04-29T10:12:33.000Z</time>
</trkpt>
<trkpt lat="45.9130010" lon="10.3299390">
	<ele>1270.80</ele>
	<time>2025-04-29T10:12:34.000Z</time>
</trkpt>
<trkpt lat="45.9130070" lon="10.3299260">
	<ele>1270.80</ele>
	<time>2025-04-29T10:12:35.000Z</time>
</trkpt>
<trkpt lat="45.9130150" lon="10.3299060">
	<ele>1270.60</ele>
	<time>2025-04-29T10:12:36.000Z</time>
</trkpt>
<trkpt lat="45.9130250" lon="10.3298840">
	<ele>1270.60</ele>
	<time>2025-04-29T10:12:37.000Z</time>
</trkpt>
<trkpt lat="45.9130290" lon="10.3298670">
	<ele>1270.20</ele>
	<time>2025-04-29T10:12:38.000Z</time>
</trkpt>
<trkpt lat="45.9130310" lon="10.3298510">
	<ele>1270.00</ele>
	<time>2025-04-29T10:12:39.000Z</time>
</trkpt>
<trkpt lat="45.9130310" lon="10.3298310">
	<ele>1270.00</ele>
	<time>2025-04-29T10:12:40.000Z</time>
</trkpt>
<trkpt lat="45.9130220" lon="10.3298150">
	<ele>1269.80</ele>
	<time>2025-04-29T10:12:41.000Z</time>
</trkpt>
<trkpt lat="45.9130200" lon="10.3297960">
	<ele>1269.80</ele>
	<time>2025-04-29T10:12:42.000Z</time>
</trkpt>
<trkpt lat="45.9130270" lon="10.3297750">
	<ele>1269.80</ele>
	<time>2025-04-29T10:12:43.000Z</time>
</trkpt>
<trkpt lat="45.9130330" lon="10.3297550">
	<ele>1269.80</ele>
	<time>2025-04-29T10:12:44.000Z</time>
</trkpt>
<trkpt lat="45.9130350" lon="10.3297350">
	<ele>1269.80</ele>
	<time>2025-04-29T10:12:45.000Z</time>
</trkpt>
<trkpt lat="45.9130370" lon="10.3297130">
	<ele>1269.80</ele>
	<time>2025-04-29T10:12:46.000Z</time>
</trkpt>
<trkpt lat="45.9130380" lon="10.3296950">
	<ele>1269.80</ele>
	<time>2025-04-29T10:12:47.000Z</time>
</trkpt>
<trkpt lat="45.9130320" lon="10.3296820">
	<ele>1269.80</ele>
	<time>2025-04-29T10:12:48.000Z</time>
</trkpt>
<trkpt lat="45.9130280" lon="10.3296680">
	<ele>1269.40</ele>
	<time>2025-04-29T10:12:49.000Z</time>
</trkpt>
<trkpt lat="45.9130270" lon="10.3296510">
	<ele>1269.20</ele>
	<time>2025-04-29T10:12:50.000Z</time>
</trkpt>
<trkpt lat="45.9130340" lon="10.3296360">
	<ele>1269.00</ele>
	<time>2025-04-29T10:12:51.000Z</time>
</trkpt>
<trkpt lat="45.9130410" lon="10.3296240">
	<ele>1269.00</ele>
	<time>2025-04-29T10:12:52.000Z</time>
</trkpt>
<trkpt lat="45.9130520" lon="10.3296090">
	<ele>1268.60</ele>
	<time>2025-04-29T10:12:53.000Z</time>
</trkpt>
<trkpt lat="45.9130630" lon="10.3295890">
	<ele>1268.60</ele>
	<time>2025-04-29T10:12:54.000Z</time>
</trkpt>
<trkpt lat="45.9130650" lon="10.3295750">
	<ele>1268.20</ele>
	<time>2025-04-29T10:12:55.000Z</time>
</trkpt>
<trkpt lat="45.9130690" lon="10.3295620">
	<ele>1267.60</ele>
	<time>2025-04-29T10:12:56.000Z</time>
</trkpt>
<trkpt lat="45.9130750" lon="10.3295490">
	<ele>1267.00</ele>
	<time>2025-04-29T10:12:57.000Z</time>
</trkpt>
<trkpt lat="45.9130720" lon="10.3295380">
	<ele>1266.80</ele>
	<time>2025-04-29T10:12:58.000Z</time>
</trkpt>
<trkpt lat="45.9130740" lon="10.3295270">
	<ele>1266.40</ele>
	<time>2025-04-29T10:12:59.000Z</time>
</trkpt>
<trkpt lat="45.9130850" lon="10.3295120">
	<ele>1266.40</ele>
	<time>2025-04-29T10:13:00.000Z</time>
</trkpt>
<trkpt lat="45.9130950" lon="10.3294980">
	<ele>1266.20</ele>
	<time>2025-04-29T10:13:01.000Z</time>
</trkpt>
<trkpt lat="45.9131000" lon="10.3294960">
	<ele>1265.80</ele>
	<time>2025-04-29T10:13:02.000Z</time>
</trkpt>
<trkpt lat="45.9131030" lon="10.3294920">
	<ele>1265.60</ele>
	<time>2025-04-29T10:13:03.000Z</time>
</trkpt>
<trkpt lat="45.9131060" lon="10.3294810">
	<ele>1265.40</ele>
	<time>2025-04-29T10:13:04.000Z</time>
</trkpt>
<trkpt lat="45.9131110" lon="10.3294680">
	<ele>1265.00</ele>
	<time>2025-04-29T10:13:05.000Z</time>
</trkpt>
<trkpt lat="45.9131200" lon="10.3294590">
	<ele>1264.60</ele>
	<time>2025-04-29T10:13:06.000Z</time>
</trkpt>
<trkpt lat="45.9131210" lon="10.3294540">
	<ele>1264.20</ele>
	<time>2025-04-29T10:13:07.000Z</time>
</trkpt>
<trkpt lat="45.9131320" lon="10.3294510">
	<ele>1264.00</ele>
	<time>2025-04-29T10:13:08.000Z</time>
</trkpt>
<trkpt lat="45.9131350" lon="10.3294530">
	<ele>1263.80</ele>
	<time>2025-04-29T10:13:09.000Z</time>
</trkpt>
<trkpt lat="45.9131440" lon="10.3294520">
	<ele>1263.40</ele>
	<time>2025-04-29T10:13:10.000Z</time>
</trkpt>
<trkpt lat="45.9131520" lon="10.3294480">
	<ele>1263.00</ele>
	<time>2025-04-29T10:13:11.000Z</time>
</trkpt>
<trkpt lat="45.9131640" lon="10.3294420">
	<ele>1262.80</ele>
	<time>2025-04-29T10:13:12.000Z</time>
</trkpt>
<trkpt lat="45.9131720" lon="10.3294380">
	<ele>1262.60</ele>
	<time>2025-04-29T10:13:13.000Z</time>
</trkpt>
<trkpt lat="45.9131690" lon="10.3294390">
	<ele>1262.20</ele>
	<time>2025-04-29T10:13:14.000Z</time>
</trkpt>
<trkpt lat="45.9131670" lon="10.3294320">
	<ele>1261.80</ele>
	<time>2025-04-29T10:13:15.000Z</time>
</trkpt>
<trkpt lat="45.9131720" lon="10.3294250">
	<ele>1261.80</ele>
	<time>2025-04-29T10:13:16.000Z</time>
</trkpt>
<trkpt lat="45.9131870" lon="10.3294190">
	<ele>1261.40</ele>
	<time>2025-04-29T10:13:17.000Z</time>
</trkpt>
<trkpt lat="45.9132020" lon="10.3294090">
	<ele>1261.20</ele>
	<time>2025-04-29T10:13:18.000Z</time>
</trkpt>
<trkpt lat="45.9132070" lon="10.3294020">
	<ele>1260.80</ele>
	<time>2025-04-29T10:13:19.000Z</time>
</trkpt>
<trkpt lat="45.9132140" lon="10.3293960">
	<ele>1260.60</ele>
	<time>2025-04-29T10:13:20.000Z</time>
</trkpt>
<trkpt lat="45.9132130" lon="10.3293930">
	<ele>1260.40</ele>
	<time>2025-04-29T10:13:21.000Z</time>
</trkpt>
<trkpt lat="45.9132230" lon="10.3293910">
	<ele>1260.00</ele>
	<time>2025-04-29T10:13:22.000Z</time>
</trkpt>
<trkpt lat="45.9132400" lon="10.3293850">
	<ele>1259.40</ele>
	<time>2025-04-29T10:13:23.000Z</time>
</trkpt>
<trkpt lat="45.9132570" lon="10.3293840">
	<ele>1259.00</ele>
	<time>2025-04-29T10:13:24.000Z</time>
</trkpt>
<trkpt lat="45.9132770" lon="10.3293850">
	<ele>1258.80</ele>
	<time>2025-04-29T10:13:25.000Z</time>
</trkpt>
<trkpt lat="45.9132820" lon="10.3293840">
	<ele>1258.40</ele>
	<time>2025-04-29T10:13:26.000Z</time>
</trkpt>
<trkpt lat="45.9132950" lon="10.3293850">
	<ele>1258.20</ele>
	<time>2025-04-29T10:13:27.000Z</time>
</trkpt>
<trkpt lat="45.9133120" lon="10.3293810">
	<ele>1258.00</ele>
	<time>2025-04-29T10:13:28.000Z</time>
</trkpt>
<trkpt lat="45.9133230" lon="10.3293710">
	<ele>1257.60</ele>
	<time>2025-04-29T10:13:29.000Z</time>
</trkpt>
<trkpt lat="45.9133360" lon="10.3293660">
	<ele>1257.40</ele>
	<time>2025-04-29T10:13:30.000Z</time>
</trkpt>
<trkpt lat="45.9133480" lon="10.3293510">
	<ele>1257.00</ele>
	<time>2025-04-29T10:13:31.000Z</time>
</trkpt>
<trkpt lat="45.9133470" lon="10.3293470">
	<ele>1256.80</ele>
	<time>2025-04-29T10:13:32.000Z</time>
</trkpt>
<trkpt lat="45.9133600" lon="10.3293390">
	<ele>1256.40</ele>
	<time>2025-04-29T10:13:33.000Z</time>
</trkpt>
<trkpt lat="45.9133750" lon="10.3293260">
	<ele>1256.20</ele>
	<time>2025-04-29T10:13:34.000Z</time>
</trkpt>
<trkpt lat="45.9133840" lon="10.3293110">
	<ele>1255.60</ele>
	<time>2025-04-29T10:13:35.000Z</time>
</trkpt>
<trkpt lat="45.9133930" lon="10.3292960">
	<ele>1255.40</ele>
	<time>2025-04-29T10:13:36.000Z</time>
</trkpt>
<trkpt lat="45.9133960" lon="10.3292950">
	<ele>1255.20</ele>
	<time>2025-04-29T10:13:37.000Z</time>
</trkpt>
<trkpt lat="45.9134090" lon="10.3292820">
	<ele>1255.00</ele>
	<time>2025-04-29T10:13:38.000Z</time>
</trkpt>
<trkpt lat="45.9134220" lon="10.3292640">
	<ele>1254.80</ele>
	<time>2025-04-29T10:13:39.000Z</time>
</trkpt>
<trkpt lat="45.9134270" lon="10.3292560">
	<ele>1254.40</ele>
	<time>2025-04-29T10:13:40.000Z</time>
</trkpt>
<trkpt lat="45.9134250" lon="10.3292550">
	<ele>1254.00</ele>
	<time>2025-04-29T10:13:41.000Z</time>
</trkpt>
<trkpt lat="45.9134190" lon="10.3292590">
	<ele>1253.80</ele>
	<time>2025-04-29T10:13:42.000Z</time>
</trkpt>
<trkpt lat="45.9134090" lon="10.3292620">
	<ele>1253.60</ele>
	<time>2025-04-29T10:13:43.000Z</time>
</trkpt>
<trkpt lat="45.9134080" lon="10.3292500">
	<ele>1253.20</ele>
	<time>2025-04-29T10:13:44.000Z</time>
</trkpt>
<trkpt lat="45.9134150" lon="10.3292320">
	<ele>1252.80</ele>
	<time>2025-04-29T10:13:45.000Z</time>
</trkpt>
<trkpt lat="45.9134230" lon="10.3292110">
	<ele>1252.60</ele>
	<time>2025-04-29T10:13:46.000Z</time>
</trkpt>
<trkpt lat="45.9134340" lon="10.3291920">
	<ele>1252.40</ele>
	<time>2025-04-29T10:13:47.000Z</time>
</trkpt>
<trkpt lat="45.9134370" lon="10.3291840">
	<ele>1252.20</ele>
	<time>2025-04-29T10:13:48.000Z</time>
</trkpt>
<trkpt lat="45.9134510" lon="10.3291700">
	<ele>1252.00</ele>
	<time>2025-04-29T10:13:49.000Z</time>
</trkpt>
<trkpt lat="45.9134550" lon="10.3291600">
	<ele>1251.80</ele>
	<time>2025-04-29T10:13:50.000Z</time>
</trkpt>
<trkpt lat="45.9134660" lon="10.3291470">
	<ele>1251.40</ele>
	<time>2025-04-29T10:13:51.000Z</time>
</trkpt>
<trkpt lat="45.9134730" lon="10.3291750">
	<ele>1251.00</ele>
	<time>2025-04-29T10:13:52.000Z</time>
</trkpt>
<trkpt lat="45.9134770" lon="10.3291890">
	<ele>1250.80</ele>
	<time>2025-04-29T10:13:53.000Z</time>
</trkpt>
<trkpt lat="45.9134810" lon="10.3291940">
	<ele>1250.60</ele>
	<time>2025-04-29T10:13:54.000Z</time>
</trkpt>
<trkpt lat="45.9134840" lon="10.3291970">
	<ele>1250.40</ele>
	<time>2025-04-29T10:13:55.000Z</time>
</trkpt>
<trkpt lat="45.9134840" lon="10.3292000">
	<ele>1250.20</ele>
	<time>2025-04-29T10:13:56.000Z</time>
</trkpt>
<trkpt lat="45.9134890" lon="10.3291970">
	<ele>1249.80</ele>
	<time>2025-04-29T10:13:57.000Z</time>
</trkpt>
<trkpt lat="45.9134890" lon="10.3291980">
	<ele>1249.60</ele>
	<time>2025-04-29T10:13:58.000Z</time>
</trkpt>
<trkpt lat="45.9134890" lon="10.3292000">
	<ele>1249.20</ele>
	<time>2025-04-29T10:13:59.000Z</time>
</trkpt>
<trkpt lat="45.9134750" lon="10.3292020">
	<ele>1249.00</ele>
	<time>2025-04-29T10:14:00.000Z</time>
</trkpt>
<trkpt lat="45.9134720" lon="10.3292000">
	<ele>1248.80</ele>
	<time>2025-04-29T10:14:01.000Z</time>
</trkpt>
<trkpt lat="45.9134800" lon="10.3291860">
	<ele>1248.60</ele>
	<time>2025-04-29T10:14:02.000Z</time>
</trkpt>
<trkpt lat="45.9134930" lon="10.3291690">
	<ele>1248.20</ele>
	<time>2025-04-29T10:14:03.000Z</time>
</trkpt>
<trkpt lat="45.9134950" lon="10.3291560">
	<ele>1247.80</ele>
	<time>2025-04-29T10:14:04.000Z</time>
</trkpt>
<trkpt lat="45.9134930" lon="10.3291530">
	<ele>1247.60</ele>
	<time>2025-04-29T10:14:05.000Z</time>
</trkpt>
<trkpt lat="45.9135010" lon="10.3291490">
	<ele>1247.60</ele>
	<time>2025-04-29T10:14:06.000Z</time>
</trkpt>
<trkpt lat="45.9135070" lon="10.3291360">
	<ele>1247.40</ele>
	<time>2025-04-29T10:14:07.000Z</time>
</trkpt>
<trkpt lat="45.9135150" lon="10.3291270">
	<ele>1247.00</ele>
	<time>2025-04-29T10:14:08.000Z</time>
</trkpt>
<trkpt lat="45.9135290" lon="10.3291130">
	<ele>1246.60</ele>
	<time>2025-04-29T10:14:09.000Z</time>
</trkpt>
<trkpt lat="45.9135480" lon="10.3290930">
	<ele>1246.20</ele>
	<time>2025-04-29T10:14:10.000Z</time>
</trkpt>
<trkpt lat="45.9135610" lon="10.3290770">
	<ele>1245.80</ele>
	<time>2025-04-29T10:14:11.000Z</time>
</trkpt>
<trkpt lat="45.9135720" lon="10.3290660">
	<ele>1245.60</ele>
	<time>2025-04-29T10:14:12.000Z</time>
</trkpt>
<trkpt lat="45.9135700" lon="10.3290660">
	<ele>1245.40</ele>
	<time>2025-04-29T10:14:13.000Z</time>
</trkpt>
<trkpt lat="45.9135600" lon="10.3290720">
	<ele>1245.20</ele>
	<time>2025-04-29T10:14:14.000Z</time>
</trkpt>
<trkpt lat="45.9135450" lon="10.3290780">
	<ele>1245.00</ele>
	<time>2025-04-29T10:14:15.000Z</time>
</trkpt>
<trkpt lat="45.9135380" lon="10.3290840">
	<ele>1244.80</ele>
	<time>2025-04-29T10:14:16.000Z</time>
</trkpt>
<trkpt lat="45.9135290" lon="10.3290810">
	<ele>1244.60</ele>
	<time>2025-04-29T10:14:17.000Z</time>
</trkpt>
<trkpt lat="45.9135350" lon="10.3290720">
	<ele>1244.20</ele>
	<time>2025-04-29T10:14:18.000Z</time>
</trkpt>
<trkpt lat="45.9135340" lon="10.3290630">
	<ele>1243.80</ele>
	<time>2025-04-29T10:14:19.000Z</time>
</trkpt>
<trkpt lat="45.9135320" lon="10.3290550">
	<ele>1243.60</ele>
	<time>2025-04-29T10:14:20.000Z</time>
</trkpt>
<trkpt lat="45.9135360" lon="10.3290390">
	<ele>1243.20</ele>
	<time>2025-04-29T10:14:21.000Z</time>
</trkpt>
<trkpt lat="45.9135540" lon="10.3290150">
	<ele>1242.80</ele>
	<time>2025-04-29T10:14:22.000Z</time>
</trkpt>
<trkpt lat="45.9135710" lon="10.3289970">
	<ele>1242.60</ele>
	<time>2025-04-29T10:14:23.000Z</time>
</trkpt>
<trkpt lat="45.9135920" lon="10.3289750">
	<ele>1242.20</ele>
	<time>2025-04-29T10:14:24.000Z</time>
</trkpt>
<trkpt lat="45.9136080" lon="10.3289600">
	<ele>1242.00</ele>
	<time>2025-04-29T10:14:25.000Z</time>
</trkpt>
<trkpt lat="45.9136280" lon="10.3289480">
	<ele>1241.80</ele>
	<time>2025-04-29T10:14:26.000Z</time>
</trkpt>
<trkpt lat="45.9136390" lon="10.3289370">
	<ele>1241.60</ele>
	<time>2025-04-29T10:14:27.000Z</time>
</trkpt>
<trkpt lat="45.9136380" lon="10.3289280">
	<ele>1241.40</ele>
	<time>2025-04-29T10:14:28.000Z</time>
</trkpt>
<trkpt lat="45.9136330" lon="10.3289200">
	<ele>1241.20</ele>
	<time>2025-04-29T10:14:29.000Z</time>
</trkpt>
<trkpt lat="45.9136500" lon="10.3288950">
	<ele>1241.00</ele>
	<time>2025-04-29T10:14:30.000Z</time>
</trkpt>
<trkpt lat="45.9136640" lon="10.3288690">
	<ele>1241.00</ele>
	<time>2025-04-29T10:14:31.000Z</time>
</trkpt>
<trkpt lat="45.9136860" lon="10.3288380">
	<ele>1240.80</ele>
	<time>2025-04-29T10:14:32.000Z</time>
</trkpt>
<trkpt lat="45.9136860" lon="10.3288110">
	<ele>1240.60</ele>
	<time>2025-04-29T10:14:33.000Z</time>
</trkpt>
<trkpt lat="45.9136810" lon="10.3287910">
	<ele>1240.60</ele>
	<time>2025-04-29T10:14:34.000Z</time>
</trkpt>
<trkpt lat="45.9136750" lon="10.3287780">
	<ele>1240.40</ele>
	<time>2025-04-29T10:14:35.000Z</time>
</trkpt>
<trkpt lat="45.9136760" lon="10.3287630">
	<ele>1240.40</ele>
	<time>2025-04-29T10:14:36.000Z</time>
</trkpt>
<trkpt lat="45.9136680" lon="10.3287550">
	<ele>1240.20</ele>
	<time>2025-04-29T10:14:37.000Z</time>
</trkpt>
<trkpt lat="45.9136600" lon="10.3287420">
	<ele>1240.20</ele>
	<time>2025-04-29T10:14:38.000Z</time>
</trkpt>
<trkpt lat="45.9136560" lon="10.3287360">
	<ele>1240.00</ele>
	<time>2025-04-29T10:14:39.000Z</time>
</trkpt>
<trkpt lat="45.9136470" lon="10.3287360">
	<ele>1240.00</ele>
	<time>2025-04-29T10:14:40.000Z</time>
</trkpt>
<trkpt lat="45.9136400" lon="10.3287310">
	<ele>1240.00</ele>
	<time>2025-04-29T10:14:41.000Z</time>
</trkpt>
<trkpt lat="45.9136270" lon="10.3287220">
	<ele>1239.80</ele>
	<time>2025-04-29T10:14:42.000Z</time>
</trkpt>
<trkpt lat="45.9136140" lon="10.3287010">
	<ele>1239.80</ele>
	<time>2025-04-29T10:14:43.000Z</time>
</trkpt>
<trkpt lat="45.9136140" lon="10.3286740">
	<ele>1239.80</ele>
	<time>2025-04-29T10:14:44.000Z</time>
</trkpt>
<trkpt lat="45.9136200" lon="10.3286370">
	<ele>1239.80</ele>
	<time>2025-04-29T10:14:45.000Z</time>
</trkpt>
<trkpt lat="45.9136400" lon="10.3285970">
	<ele>1239.80</ele>
	<time>2025-04-29T10:14:46.000Z</time>
</trkpt>
<trkpt lat="45.9136540" lon="10.3285630">
	<ele>1239.80</ele>
	<time>2025-04-29T10:14:47.000Z</time>
</trkpt>
<trkpt lat="45.9136790" lon="10.3285300">
	<ele>1239.80</ele>
	<time>2025-04-29T10:14:48.000Z</time>
</trkpt>
<trkpt lat="45.9136960" lon="10.3285020">
	<ele>1239.60</ele>
	<time>2025-04-29T10:14:49.000Z</time>
</trkpt>
<trkpt lat="45.9137130" lon="10.3284910">
	<ele>1239.40</ele>
	<time>2025-04-29T10:14:50.000Z</time>
</trkpt>
<trkpt lat="45.9137180" lon="10.3284800">
	<ele>1239.00</ele>
	<time>2025-04-29T10:14:51.000Z</time>
</trkpt>
<trkpt lat="45.9137140" lon="10.3284760">
	<ele>1238.80</ele>
	<time>2025-04-29T10:14:52.000Z</time>
</trkpt>
<trkpt lat="45.9137180" lon="10.3284690">
	<ele>1238.60</ele>
	<time>2025-04-29T10:14:53.000Z</time>
</trkpt>
<trkpt lat="45.9137260" lon="10.3284640">
	<ele>1238.40</ele>
	<time>2025-04-29T10:14:54.000Z</time>
</trkpt>
<trkpt lat="45.9137380" lon="10.3284570">
	<ele>1238.20</ele>
	<time>2025-04-29T10:14:55.000Z</time>
</trkpt>
<trkpt lat="45.9137500" lon="10.3284470">
	<ele>1238.00</ele>
	<time>2025-04-29T10:14:56.000Z</time>
</trkpt>
<trkpt lat="45.9137580" lon="10.3284340">
	<ele>1237.80</ele>
	<time>2025-04-29T10:14:57.000Z</time>
</trkpt>
<trkpt lat="45.9137670" lon="10.3284210">
	<ele>1237.60</ele>
	<time>2025-04-29T10:14:58.000Z</time>
</trkpt>
<trkpt lat="45.9137790" lon="10.3284060">
	<ele>1237.40</ele>
	<time>2025-04-29T10:14:59.000Z</time>
</trkpt>
<trkpt lat="45.9137920" lon="10.3283930">
	<ele>1237.20</ele>
	<time>2025-04-29T10:15:00.000Z</time>
</trkpt>
<trkpt lat="45.9138030" lon="10.3283820">
	<ele>1237.00</ele>
	<time>2025-04-29T10:15:01.000Z</time>
</trkpt>
<trkpt lat="45.9138080" lon="10.3283690">
	<ele>1236.60</ele>
	<time>2025-04-29T10:15:02.000Z</time>
</trkpt>
<trkpt lat="45.9138210" lon="10.3283520">
	<ele>1236.40</ele>
	<time>2025-04-29T10:15:03.000Z</time>
</trkpt>
<trkpt lat="45.9138350" lon="10.3283340">
	<ele>1236.20</ele>
	<time>2025-04-29T10:15:04.000Z</time>
</trkpt>
<trkpt lat="45.9138530" lon="10.3283140">
	<ele>1236.00</ele>
	<time>2025-04-29T10:15:05.000Z</time>
</trkpt>
<trkpt lat="45.9138680" lon="10.3282830">
	<ele>1235.80</ele>
	<time>2025-04-29T10:15:06.000Z</time>
</trkpt>
<trkpt lat="45.9138780" lon="10.3282580">
	<ele>1235.80</ele>
	<time>2025-04-29T10:15:07.000Z</time>
</trkpt>
<trkpt lat="45.9138710" lon="10.3282340">
	<ele>1235.80</ele>
	<time>2025-04-29T10:15:08.000Z</time>
</trkpt>
<trkpt lat="45.9138650" lon="10.3282100">
	<ele>1235.60</ele>
	<time>2025-04-29T10:15:09.000Z</time>
</trkpt>
<trkpt lat="45.9138650" lon="10.3282070">
	<ele>1235.60</ele>
	<time>2025-04-29T10:15:10.000Z</time>
</trkpt>
<trkpt lat="45.9138640" lon="10.3281950">
	<ele>1235.40</ele>
	<time>2025-04-29T10:15:11.000Z</time>
</trkpt>
<trkpt lat="45.9138620" lon="10.3281810">
	<ele>1235.40</ele>
	<time>2025-04-29T10:15:12.000Z</time>
</trkpt>
<trkpt lat="45.9138620" lon="10.3281710">
	<ele>1235.20</ele>
	<time>2025-04-29T10:15:13.000Z</time>
</trkpt>
<trkpt lat="45.9138590" lon="10.3281550">
	<ele>1235.00</ele>
	<time>2025-04-29T10:15:14.000Z</time>
</trkpt>
<trkpt lat="45.9138540" lon="10.3281400">
	<ele>1234.80</ele>
	<time>2025-04-29T10:15:15.000Z</time>
</trkpt>
<trkpt lat="45.9138520" lon="10.3281180">
	<ele>1234.40</ele>
	<time>2025-04-29T10:15:16.000Z</time>
</trkpt>
<trkpt lat="45.9138550" lon="10.3280950">
	<ele>1234.20</ele>
	<time>2025-04-29T10:15:17.000Z</time>
</trkpt>
<trkpt lat="45.9138530" lon="10.3280870">
	<ele>1234.00</ele>
	<time>2025-04-29T10:15:18.000Z</time>
</trkpt>
<trkpt lat="45.9138710" lon="10.3280800">
	<ele>1234.00</ele>
	<time>2025-04-29T10:15:19.000Z</time>
</trkpt>
<trkpt lat="45.9138800" lon="10.3280730">
	<ele>1233.80</ele>
	<time>2025-04-29T10:15:20.000Z</time>
</trkpt>
<trkpt lat="45.9138830" lon="10.3280620">
	<ele>1233.60</ele>
	<time>2025-04-29T10:15:21.000Z</time>
</trkpt>
<trkpt lat="45.9138880" lon="10.3280600">
	<ele>1233.20</ele>
	<time>2025-04-29T10:15:22.000Z</time>
</trkpt>
<trkpt lat="45.9138970" lon="10.3280500">
	<ele>1233.00</ele>
	<time>2025-04-29T10:15:23.000Z</time>
</trkpt>
<trkpt lat="45.9139010" lon="10.3280410">
	<ele>1232.80</ele>
	<time>2025-04-29T10:15:24.000Z</time>
</trkpt>
<trkpt lat="45.9139020" lon="10.3280370">
	<ele>1232.60</ele>
	<time>2025-04-29T10:15:25.000Z</time>
</trkpt>
<trkpt lat="45.9139020" lon="10.3280350">
	<ele>1232.20</ele>
	<time>2025-04-29T10:15:26.000Z</time>
</trkpt>
<trkpt lat="45.9139060" lon="10.3280260">
	<ele>1231.80</ele>
	<time>2025-04-29T10:15:27.000Z</time>
</trkpt>
<trkpt lat="45.9139030" lon="10.3280200">
	<ele>1231.60</ele>
	<time>2025-04-29T10:15:28.000Z</time>
</trkpt>
<trkpt lat="45.9138990" lon="10.3280180">
	<ele>1231.20</ele>
	<time>2025-04-29T10:15:29.000Z</time>
</trkpt>
<trkpt lat="45.9138890" lon="10.3280160">
	<ele>1231.00</ele>
	<time>2025-04-29T10:15:30.000Z</time>
</trkpt>
<trkpt lat="45.9138870" lon="10.3280100">
	<ele>1230.60</ele>
	<time>2025-04-29T10:15:31.000Z</time>
</trkpt>
<trkpt lat="45.9138890" lon="10.3279970">
	<ele>1230.20</ele>
	<time>2025-04-29T10:15:32.000Z</time>
</trkpt>
<trkpt lat="45.9138960" lon="10.3279850">
	<ele>1230.00</ele>
	<time>2025-04-29T10:15:33.000Z</time>
</trkpt>
<trkpt lat="45.9139010" lon="10.3279730">
	<ele>1229.60</ele>
	<time>2025-04-29T10:15:34.000Z</time>
</trkpt>
<trkpt lat="45.9139000" lon="10.3279630">
	<ele>1229.40</ele>
	<time>2025-04-29T10:15:35.000Z</time>
</trkpt>
<trkpt lat="45.9139110" lon="10.3279460">
	<ele>1229.00</ele>
	<time>2025-04-29T10:15:36.000Z</time>
</trkpt>
<trkpt lat="45.9139240" lon="10.3279280">
	<ele>1228.80</ele>
	<time>2025-04-29T10:15:37.000Z</time>
</trkpt>
<trkpt lat="45.9139310" lon="10.3279190">
	<ele>1228.60</ele>
	<time>2025-04-29T10:15:38.000Z</time>
</trkpt>
<trkpt lat="45.9139420" lon="10.3279090">
	<ele>1228.40</ele>
	<time>2025-04-29T10:15:39.000Z</time>
</trkpt>
<trkpt lat="45.9139570" lon="10.3278900">
	<ele>1228.20</ele>
	<time>2025-04-29T10:15:40.000Z</time>
</trkpt>
<trkpt lat="45.9139680" lon="10.3278740">
	<ele>1227.80</ele>
	<time>2025-04-29T10:15:41.000Z</time>
</trkpt>
<trkpt lat="45.9139700" lon="10.3278650">
	<ele>1227.40</ele>
	<time>2025-04-29T10:15:42.000Z</time>
</trkpt>
<trkpt lat="45.9139740" lon="10.3278540">
	<ele>1227.00</ele>
	<time>2025-04-29T10:15:43.000Z</time>
</trkpt>
<trkpt lat="45.9139840" lon="10.3278270">
	<ele>1226.80</ele>
	<time>2025-04-29T10:15:44.000Z</time>
</trkpt>
<trkpt lat="45.9139940" lon="10.3277980">
	<ele>1226.60</ele>
	<time>2025-04-29T10:15:45.000Z</time>
</trkpt>
<trkpt lat="45.9140130" lon="10.3277640">
	<ele>1226.20</ele>
	<time>2025-04-29T10:15:46.000Z</time>
</trkpt>
<trkpt lat="45.9140360" lon="10.3277330">
	<ele>1226.00</ele>
	<time>2025-04-29T10:15:47.000Z</time>
</trkpt>
<trkpt lat="45.9140580" lon="10.3276890">
	<ele>1225.80</ele>
	<time>2025-04-29T10:15:48.000Z</time>
</trkpt>
<trkpt lat="45.9140640" lon="10.3276550">
	<ele>1225.60</ele>
	<time>2025-04-29T10:15:49.000Z</time>
</trkpt>
<trkpt lat="45.9140630" lon="10.3276310">
	<ele>1225.60</ele>
	<time>2025-04-29T10:15:50.000Z</time>
</trkpt>
<trkpt lat="45.9140770" lon="10.3276110">
	<ele>1225.20</ele>
	<time>2025-04-29T10:15:51.000Z</time>
</trkpt>
<trkpt lat="45.9140890" lon="10.3275910">
	<ele>1225.20</ele>
	<time>2025-04-29T10:15:52.000Z</time>
</trkpt>
<trkpt lat="45.9140880" lon="10.3275740">
	<ele>1225.00</ele>
	<time>2025-04-29T10:15:53.000Z</time>
</trkpt>
<trkpt lat="45.9140920" lon="10.3275410">
	<ele>1224.80</ele>
	<time>2025-04-29T10:15:54.000Z</time>
</trkpt>
<trkpt lat="45.9140850" lon="10.3275140">
	<ele>1224.60</ele>
	<time>2025-04-29T10:15:55.000Z</time>
</trkpt>
<trkpt lat="45.9140770" lon="10.3274910">
	<ele>1224.40</ele>
	<time>2025-04-29T10:15:56.000Z</time>
</trkpt>
<trkpt lat="45.9140550" lon="10.3274740">
	<ele>1224.40</ele>
	<time>2025-04-29T10:15:57.000Z</time>
</trkpt>
<trkpt lat="45.9140510" lon="10.3274530">
	<ele>1224.20</ele>
	<time>2025-04-29T10:15:58.000Z</time>
</trkpt>
<trkpt lat="45.9140400" lon="10.3274360">
	<ele>1224.20</ele>
	<time>2025-04-29T10:15:59.000Z</time>
</trkpt>
<trkpt lat="45.9140360" lon="10.3274210">
	<ele>1223.80</ele>
	<time>2025-04-29T10:16:00.000Z</time>
</trkpt>
<trkpt lat="45.9140400" lon="10.3273950">
	<ele>1223.60</ele>
	<time>2025-04-29T10:16:01.000Z</time>
</trkpt>
<trkpt lat="45.9140460" lon="10.3273730">
	<ele>1223.60</ele>
	<time>2025-04-29T10:16:02.000Z</time>
</trkpt>
<trkpt lat="45.9140650" lon="10.3273510">
	<ele>1223.40</ele>
	<time>2025-04-29T10:16:03.000Z</time>
</trkpt>
<trkpt lat="45.9140760" lon="10.3273360">
	<ele>1223.20</ele>
	<time>2025-04-29T10:16:04.000Z</time>
</trkpt>
<trkpt lat="45.9140900" lon="10.3273200">
	<ele>1223.00</ele>
	<time>2025-04-29T10:16:05.000Z</time>
</trkpt>
<trkpt lat="45.9140900" lon="10.3273040">
	<ele>1222.80</ele>
	<time>2025-04-29T10:16:06.000Z</time>
</trkpt>
<trkpt lat="45.9140860" lon="10.3272920">
	<ele>1222.60</ele>
	<time>2025-04-29T10:16:07.000Z</time>
</trkpt>
<trkpt lat="45.9140880" lon="10.3272770">
	<ele>1222.40</ele>
	<time>2025-04-29T10:16:08.000Z</time>
</trkpt>
<trkpt lat="45.9140760" lon="10.3272680">
	<ele>1222.00</ele>
	<time>2025-04-29T10:16:09.000Z</time>
</trkpt>
<trkpt lat="45.9140670" lon="10.3272560">
	<ele>1221.80</ele>
	<time>2025-04-29T10:16:10.000Z</time>
</trkpt>
<trkpt lat="45.9140710" lon="10.3272490">
	<ele>1221.40</ele>
	<time>2025-04-29T10:16:11.000Z</time>
</trkpt>
<trkpt lat="45.9140740" lon="10.3272330">
	<ele>1221.20</ele>
	<time>2025-04-29T10:16:12.000Z</time>
</trkpt>
<trkpt lat="45.9140830" lon="10.3272200">
	<ele>1220.80</ele>
	<time>2025-04-29T10:16:13.000Z</time>
</trkpt>
<trkpt lat="45.9140920" lon="10.3272050">
	<ele>1220.40</ele>
	<time>2025-04-29T10:16:14.000Z</time>
</trkpt>
<trkpt lat="45.9140990" lon="10.3271950">
	<ele>1220.20</ele>
	<time>2025-04-29T10:16:15.000Z</time>
</trkpt>
<trkpt lat="45.9141110" lon="10.3271800">
	<ele>1220.00</ele>
	<time>2025-04-29T10:16:16.000Z</time>
</trkpt>
<trkpt lat="45.9141200" lon="10.3271640">
	<ele>1219.60</ele>
	<time>2025-04-29T10:16:17.000Z</time>
</trkpt>
<trkpt lat="45.9141250" lon="10.3271500">
	<ele>1219.40</ele>
	<time>2025-04-29T10:16:18.000Z</time>
</trkpt>
<trkpt lat="45.9141280" lon="10.3271300">
	<ele>1219.20</ele>
	<time>2025-04-29T10:16:19.000Z</time>
</trkpt>
<trkpt lat="45.9141320" lon="10.3271120">
	<ele>1219.00</ele>
	<time>2025-04-29T10:16:20.000Z</time>
</trkpt>
<trkpt lat="45.9141410" lon="10.3270900">
	<ele>1218.80</ele>
	<time>2025-04-29T10:16:21.000Z</time>
</trkpt>
<trkpt lat="45.9141400" lon="10.3270810">
	<ele>1218.60</ele>
	<time>2025-04-29T10:16:22.000Z</time>
</trkpt>
<trkpt lat="45.9141420" lon="10.3270700">
	<ele>1218.40</ele>
	<time>2025-04-29T10:16:23.000Z</time>
</trkpt>
<trkpt lat="45.9141450" lon="10.3270570">
	<ele>1218.20</ele>
	<time>2025-04-29T10:16:24.000Z</time>
</trkpt>
<trkpt lat="45.9141420" lon="10.3270420">
	<ele>1218.20</ele>
	<time>2025-04-29T10:16:25.000Z</time>
</trkpt>
<trkpt lat="45.9141360" lon="10.3270290">
	<ele>1218.00</ele>
	<time>2025-04-29T10:16:26.000Z</time>
</trkpt>
<trkpt lat="45.9141310" lon="10.3270150">
	<ele>1218.00</ele>
	<time>2025-04-29T10:16:27.000Z</time>
</trkpt>
<trkpt lat="45.9141250" lon="10.3270020">
	<ele>1217.80</ele>
	<time>2025-04-29T10:16:28.000Z</time>
</trkpt>
<trkpt lat="45.9141260" lon="10.3269790">
	<ele>1217.80</ele>
	<time>2025-04-29T10:16:29.000Z</time>
</trkpt>
<trkpt lat="45.9141280" lon="10.3269500">
	<ele>1217.60</ele>
	<time>2025-04-29T10:16:30.000Z</time>
</trkpt>
<trkpt lat="45.9141380" lon="10.3269230">
	<ele>1217.60</ele>
	<time>2025-04-29T10:16:31.000Z</time>
</trkpt>
<trkpt lat="45.9141440" lon="10.3269040">
	<ele>1217.60</ele>
	<time>2025-04-29T10:16:32.000Z</time>
</trkpt>
<trkpt lat="45.9141420" lon="10.3268950">
	<ele>1217.40</ele>
	<time>2025-04-29T10:16:33.000Z</time>
</trkpt>
<trkpt lat="45.9141360" lon="10.3268930">
	<ele>1217.20</ele>
	<time>2025-04-29T10:16:34.000Z</time>
</trkpt>
<trkpt lat="45.9141630" lon="10.3268830">
	<ele>1217.00</ele>
	<time>2025-04-29T10:16:35.000Z</time>
</trkpt>
<trkpt lat="45.9141810" lon="10.3268680">
	<ele>1216.80</ele>
	<time>2025-04-29T10:16:36.000Z</time>
</trkpt>
<trkpt lat="45.9142090" lon="10.3268360">
	<ele>1216.80</ele>
	<time>2025-04-29T10:16:37.000Z</time>
</trkpt>
<trkpt lat="45.9142290" lon="10.3268050">
	<ele>1216.60</ele>
	<time>2025-04-29T10:16:38.000Z</time>
</trkpt>
<trkpt lat="45.9142450" lon="10.3267750">
	<ele>1216.60</ele>
	<time>2025-04-29T10:16:39.000Z</time>
</trkpt>
<trkpt lat="45.9142570" lon="10.3267500">
	<ele>1216.60</ele>
	<time>2025-04-29T10:16:40.000Z</time>
</trkpt>
<trkpt lat="45.9142590" lon="10.3267290">
	<ele>1216.60</ele>
	<time>2025-04-29T10:16:41.000Z</time>
</trkpt>
<trkpt lat="45.9142590" lon="10.3267140">
	<ele>1216.40</ele>
	<time>2025-04-29T10:16:42.000Z</time>
</trkpt>
<trkpt lat="45.9142530" lon="10.3267060">
	<ele>1216.40</ele>
	<time>2025-04-29T10:16:43.000Z</time>
</trkpt>
<trkpt lat="45.9142570" lon="10.3266920">
	<ele>1216.20</ele>
	<time>2025-04-29T10:16:44.000Z</time>
</trkpt>
<trkpt lat="45.9142570" lon="10.3266830">
	<ele>1216.00</ele>
	<time>2025-04-29T10:16:45.000Z</time>
</trkpt>
<trkpt lat="45.9142520" lon="10.3266810">
	<ele>1215.80</ele>
	<time>2025-04-29T10:16:46.000Z</time>
</trkpt>
<trkpt lat="45.9142530" lon="10.3266810">
	<ele>1215.60</ele>
	<time>2025-04-29T10:16:47.000Z</time>
</trkpt>
<trkpt lat="45.9142560" lon="10.3266800">
	<ele>1215.60</ele>
	<time>2025-04-29T10:16:48.000Z</time>
</trkpt>
<trkpt lat="45.9142700" lon="10.3266710">
	<ele>1215.20</ele>
	<time>2025-04-29T10:16:49.000Z</time>
</trkpt>
<trkpt lat="45.9142840" lon="10.3266560">
	<ele>1214.80</ele>
	<time>2025-04-29T10:16:50.000Z</time>
</trkpt>
<trkpt lat="45.9143110" lon="10.3266440">
	<ele>1214.60</ele>
	<time>2025-04-29T10:16:51.000Z</time>
</trkpt>
<trkpt lat="45.9143220" lon="10.3266310">
	<ele>1214.20</ele>
	<time>2025-04-29T10:16:52.000Z</time>
</trkpt>
<trkpt lat="45.9143250" lon="10.3266200">
	<ele>1214.00</ele>
	<time>2025-04-29T10:16:53.000Z</time>
</trkpt>
<trkpt lat="45.9143260" lon="10.3266180">
	<ele>1213.60</ele>
	<time>2025-04-29T10:16:54.000Z</time>
</trkpt>
<trkpt lat="45.9143310" lon="10.3266090">
	<ele>1213.40</ele>
	<time>2025-04-29T10:16:55.000Z</time>
</trkpt>
<trkpt lat="45.9143350" lon="10.3265900">
	<ele>1213.00</ele>
	<time>2025-04-29T10:16:56.000Z</time>
</trkpt>
<trkpt lat="45.9143380" lon="10.3265750">
	<ele>1212.60</ele>
	<time>2025-04-29T10:16:57.000Z</time>
</trkpt>
<trkpt lat="45.9143380" lon="10.3265710">
	<ele>1212.40</ele>
	<time>2025-04-29T10:16:58.000Z</time>
</trkpt>
<trkpt lat="45.9143520" lon="10.3265560">
	<ele>1212.00</ele>
	<time>2025-04-29T10:16:59.000Z</time>
</trkpt>
<trkpt lat="45.9143630" lon="10.3265450">
	<ele>1211.80</ele>
	<time>2025-04-29T10:17:00.000Z</time>
</trkpt>
<trkpt lat="45.9143670" lon="10.3265340">
	<ele>1211.60</ele>
	<time>2025-04-29T10:17:01.000Z</time>
</trkpt>
<trkpt lat="45.9143750" lon="10.3265220">
	<ele>1211.20</ele>
	<time>2025-04-29T10:17:02.000Z</time>
</trkpt>
<trkpt lat="45.9143810" lon="10.3265070">
	<ele>1210.80</ele>
	<time>2025-04-29T10:17:03.000Z</time>
</trkpt>
<trkpt lat="45.9143920" lon="10.3264990">
	<ele>1210.40</ele>
	<time>2025-04-29T10:17:04.000Z</time>
</trkpt>
<trkpt lat="45.9144040" lon="10.3264880">
	<ele>1210.40</ele>
	<time>2025-04-29T10:17:05.000Z</time>
</trkpt>
<trkpt lat="45.9144040" lon="10.3264770">
	<ele>1210.00</ele>
	<time>2025-04-29T10:17:06.000Z</time>
</trkpt>
<trkpt lat="45.9144160" lon="10.3264630">
	<ele>1210.00</ele>
	<time>2025-04-29T10:17:07.000Z</time>
</trkpt>
<trkpt lat="45.9144290" lon="10.3264440">
	<ele>1209.60</ele>
	<time>2025-04-29T10:17:08.000Z</time>
</trkpt>
<trkpt lat="45.9144530" lon="10.3264340">
	<ele>1209.20</ele>
	<time>2025-04-29T10:17:09.000Z</time>
</trkpt>
<trkpt lat="45.9144880" lon="10.3264380">
	<ele>1208.80</ele>
	<time>2025-04-29T10:17:10.000Z</time>
</trkpt>
<trkpt lat="45.9145050" lon="10.3264280">
	<ele>1208.40</ele>
	<time>2025-04-29T10:17:11.000Z</time>
</trkpt>
<trkpt lat="45.9145080" lon="10.3264280">
	<ele>1208.20</ele>
	<time>2025-04-29T10:17:12.000Z</time>
</trkpt>
<trkpt lat="45.9145080" lon="10.3264280">
	<ele>1208.00</ele>
	<time>2025-04-29T10:17:13.000Z</time>
</trkpt>
<trkpt lat="45.9145080" lon="10.3264080">
	<ele>1207.80</ele>
	<time>2025-04-29T10:17:14.000Z</time>
</trkpt>
<trkpt lat="45.9145060" lon="10.3263470">
	<ele>1207.40</ele>
	<time>2025-04-29T10:17:15.000Z</time>
</trkpt>
<trkpt lat="45.9145020" lon="10.3263070">
	<ele>1207.00</ele>
	<time>2025-04-29T10:17:16.000Z</time>
</trkpt>
<trkpt lat="45.9144950" lon="10.3262770">
	<ele>1206.80</ele>
	<time>2025-04-29T10:17:17.000Z</time>
</trkpt>
<trkpt lat="45.9144740" lon="10.3262650">
	<ele>1206.40</ele>
	<time>2025-04-29T10:17:18.000Z</time>
</trkpt>
<trkpt lat="45.9144520" lon="10.3262620">
	<ele>1206.00</ele>
	<time>2025-04-29T10:17:19.000Z</time>
</trkpt>
<trkpt lat="45.9144450" lon="10.3262510">
	<ele>1205.80</ele>
	<time>2025-04-29T10:17:20.000Z</time>
</trkpt>
<trkpt lat="45.9144410" lon="10.3262310">
	<ele>1205.60</ele>
	<time>2025-04-29T10:17:21.000Z</time>
</trkpt>
<trkpt lat="45.9144530" lon="10.3262070">
	<ele>1205.20</ele>
	<time>2025-04-29T10:17:22.000Z</time>
</trkpt>
<trkpt lat="45.9144540" lon="10.3261890">
	<ele>1205.00</ele>
	<time>2025-04-29T10:17:23.000Z</time>
</trkpt>
<trkpt lat="45.9144520" lon="10.3261710">
	<ele>1204.80</ele>
	<time>2025-04-29T10:17:24.000Z</time>
</trkpt>
<trkpt lat="45.9144490" lon="10.3261490">
	<ele>1204.60</ele>
	<time>2025-04-29T10:17:25.000Z</time>
</trkpt>
<trkpt lat="45.9144510" lon="10.3261260">
	<ele>1204.40</ele>
	<time>2025-04-29T10:17:26.000Z</time>
</trkpt>
<trkpt lat="45.9144530" lon="10.3261150">
	<ele>1204.20</ele>
	<time>2025-04-29T10:17:27.000Z</time>
</trkpt>
<trkpt lat="45.9144540" lon="10.3261000">
	<ele>1204.00</ele>
	<time>2025-04-29T10:17:28.000Z</time>
</trkpt>
<trkpt lat="45.9144650" lon="10.3260730">
	<ele>1203.80</ele>
	<time>2025-04-29T10:17:29.000Z</time>
</trkpt>
<trkpt lat="45.9144680" lon="10.3260530">
	<ele>1203.80</ele>
	<time>2025-04-29T10:17:30.000Z</time>
</trkpt>
<trkpt lat="45.9144680" lon="10.3260360">
	<ele>1203.40</ele>
	<time>2025-04-29T10:17:31.000Z</time>
</trkpt>
<trkpt lat="45.9144640" lon="10.3260230">
	<ele>1203.20</ele>
	<time>2025-04-29T10:17:32.000Z</time>
</trkpt>
<trkpt lat="45.9144650" lon="10.3260090">
	<ele>1203.20</ele>
	<time>2025-04-29T10:17:33.000Z</time>
</trkpt>
<trkpt lat="45.9144650" lon="10.3259950">
	<ele>1203.00</ele>
	<time>2025-04-29T10:17:34.000Z</time>
</trkpt>
<trkpt lat="45.9144630" lon="10.3259880">
	<ele>1202.80</ele>
	<time>2025-04-29T10:17:35.000Z</time>
</trkpt>
<trkpt lat="45.9144550" lon="10.3259780">
	<ele>1202.60</ele>
	<time>2025-04-29T10:17:36.000Z</time>
</trkpt>
<trkpt lat="45.9144460" lon="10.3259690">
	<ele>1202.60</ele>
	<time>2025-04-29T10:17:37.000Z</time>
</trkpt>
<trkpt lat="45.9144380" lon="10.3259570">
	<ele>1202.40</ele>
	<time>2025-04-29T10:17:38.000Z</time>
</trkpt>
<trkpt lat="45.9144340" lon="10.3259440">
	<ele>1202.20</ele>
	<time>2025-04-29T10:17:39.000Z</time>
</trkpt>
<trkpt lat="45.9144370" lon="10.3259240">
	<ele>1202.00</ele>
	<time>2025-04-29T10:17:40.000Z</time>
</trkpt>
<trkpt lat="45.9144310" lon="10.3259070">
	<ele>1201.80</ele>
	<time>2025-04-29T10:17:41.000Z</time>
</trkpt>
<trkpt lat="45.9144330" lon="10.3258900">
	<ele>1201.60</ele>
	<time>2025-04-29T10:17:42.000Z</time>
</trkpt>
<trkpt lat="45.9144370" lon="10.3258740">
	<ele>1201.40</ele>
	<time>2025-04-29T10:17:43.000Z</time>
</trkpt>
<trkpt lat="45.9144370" lon="10.3258560">
	<ele>1201.20</ele>
	<time>2025-04-29T10:17:44.000Z</time>
</trkpt>
<trkpt lat="45.9144370" lon="10.3258340">
	<ele>1201.20</ele>
	<time>2025-04-29T10:17:45.000Z</time>
</trkpt>
<trkpt lat="45.9144370" lon="10.3258050">
	<ele>1201.00</ele>
	<time>2025-04-29T10:17:46.000Z</time>
</trkpt>
<trkpt lat="45.9144460" lon="10.3257730">
	<ele>1200.80</ele>
	<time>2025-04-29T10:17:47.000Z</time>
</trkpt>
<trkpt lat="45.9144570" lon="10.3257480">
	<ele>1200.60</ele>
	<time>2025-04-29T10:17:48.000Z</time>
</trkpt>
<trkpt lat="45.9144620" lon="10.3257280">
	<ele>1200.60</ele>
	<time>2025-04-29T10:17:49.000Z</time>
</trkpt>
<trkpt lat="45.9144590" lon="10.3257080">
	<ele>1200.40</ele>
	<time>2025-04-29T10:17:50.000Z</time>
</trkpt>
<trkpt lat="45.9144650" lon="10.3256890">
	<ele>1200.40</ele>
	<time>2025-04-29T10:17:51.000Z</time>
</trkpt>
<trkpt lat="45.9144600" lon="10.3256790">
	<ele>1200.20</ele>
	<time>2025-04-29T10:17:52.000Z</time>
</trkpt>
<trkpt lat="45.9144640" lon="10.3256670">
	<ele>1200.20</ele>
	<time>2025-04-29T10:17:53.000Z</time>
</trkpt>
<trkpt lat="45.9144790" lon="10.3256480">
	<ele>1200.20</ele>
	<time>2025-04-29T10:17:54.000Z</time>
</trkpt>
<trkpt lat="45.9144870" lon="10.3256270">
	<ele>1200.00</ele>
	<time>2025-04-29T10:17:55.000Z</time>
</trkpt>
<trkpt lat="45.9144900" lon="10.3256110">
	<ele>1199.80</ele>
	<time>2025-04-29T10:17:56.000Z</time>
</trkpt>
<trkpt lat="45.9145050" lon="10.3255860">
	<ele>1199.80</ele>
	<time>2025-04-29T10:17:57.000Z</time>
</trkpt>
<trkpt lat="45.9145150" lon="10.3255690">
	<ele>1199.80</ele>
	<time>2025-04-29T10:17:58.000Z</time>
</trkpt>
<trkpt lat="45.9145230" lon="10.3255480">
	<ele>1199.60</ele>
	<time>2025-04-29T10:17:59.000Z</time>
</trkpt>
<trkpt lat="45.9145280" lon="10.3255280">
	<ele>1199.60</ele>
	<time>2025-04-29T10:18:00.000Z</time>
</trkpt>
<trkpt lat="45.9145430" lon="10.3255000">
	<ele>1199.60</ele>
	<time>2025-04-29T10:18:01.000Z</time>
</trkpt>
<trkpt lat="45.9145410" lon="10.3254800">
	<ele>1199.40</ele>
	<time>2025-04-29T10:18:02.000Z</time>
</trkpt>
<trkpt lat="45.9145420" lon="10.3254510">
	<ele>1199.40</ele>
	<time>2025-04-29T10:18:03.000Z</time>
</trkpt>
<trkpt lat="45.9145450" lon="10.3254300">
	<ele>1199.40</ele>
	<time>2025-04-29T10:18:04.000Z</time>
</trkpt>
<trkpt lat="45.9145350" lon="10.3254090">
	<ele>1199.40</ele>
	<time>2025-04-29T10:18:05.000Z</time>
</trkpt>
<trkpt lat="45.9145370" lon="10.3253910">
	<ele>1199.60</ele>
	<time>2025-04-29T10:18:06.000Z</time>
</trkpt>
<trkpt lat="45.9145460" lon="10.3253690">
	<ele>1199.60</ele>
	<time>2025-04-29T10:18:07.000Z</time>
</trkpt>
<trkpt lat="45.9145570" lon="10.3253480">
	<ele>1199.60</ele>
	<time>2025-04-29T10:18:08.000Z</time>
</trkpt>
<trkpt lat="45.9145510" lon="10.3253260">
	<ele>1199.80</ele>
	<time>2025-04-29T10:18:09.000Z</time>
</trkpt>
<trkpt lat="45.9145530" lon="10.3253060">
	<ele>1199.80</ele>
	<time>2025-04-29T10:18:10.000Z</time>
</trkpt>
<trkpt lat="45.9145510" lon="10.3252890">
	<ele>1199.80</ele>
	<time>2025-04-29T10:18:11.000Z</time>
</trkpt>
<trkpt lat="45.9145530" lon="10.3252770">
	<ele>1199.80</ele>
	<time>2025-04-29T10:18:12.000Z</time>
</trkpt>
<trkpt lat="45.9145610" lon="10.3252650">
	<ele>1199.80</ele>
	<time>2025-04-29T10:18:13.000Z</time>
</trkpt>
<trkpt lat="45.9145700" lon="10.3252470">
	<ele>1199.60</ele>
	<time>2025-04-29T10:18:14.000Z</time>
</trkpt>
<trkpt lat="45.9145730" lon="10.3252280">
	<ele>1199.40</ele>
	<time>2025-04-29T10:18:15.000Z</time>
</trkpt>
<trkpt lat="45.9145580" lon="10.3252150">
	<ele>1199.40</ele>
	<time>2025-04-29T10:18:16.000Z</time>
</trkpt>
<trkpt lat="45.9145410" lon="10.3252010">
	<ele>1199.40</ele>
	<time>2025-04-29T10:18:17.000Z</time>
</trkpt>
<trkpt lat="45.9145360" lon="10.3251960">
	<ele>1199.20</ele>
	<time>2025-04-29T10:18:18.000Z</time>
</trkpt>
<trkpt lat="45.9145340" lon="10.3251920">
	<ele>1199.20</ele>
	<time>2025-04-29T10:18:19.000Z</time>
</trkpt>
<trkpt lat="45.9145260" lon="10.3251900">
	<ele>1199.00</ele>
	<time>2025-04-29T10:18:20.000Z</time>
</trkpt>
<trkpt lat="45.9145180" lon="10.3252020">
	<ele>1199.00</ele>
	<time>2025-04-29T10:18:21.000Z</time>
</trkpt>
<trkpt lat="45.9145080" lon="10.3251940">
	<ele>1199.00</ele>
	<time>2025-04-29T10:18:22.000Z</time>
</trkpt>
<trkpt lat="45.9144970" lon="10.3251900">
	<ele>1199.00</ele>
	<time>2025-04-29T10:18:23.000Z</time>
</trkpt>
<trkpt lat="45.9144990" lon="10.3251770">
	<ele>1199.00</ele>
	<time>2025-04-29T10:18:24.000Z</time>
</trkpt>
<trkpt lat="45.9145100" lon="10.3251720">
	<ele>1199.00</ele>
	<time>2025-04-29T10:18:25.000Z</time>
</trkpt>
<trkpt lat="45.9145120" lon="10.3251750">
	<ele>1199.00</ele>
	<time>2025-04-29T10:18:26.000Z</time>
</trkpt>
<trkpt lat="45.9145020" lon="10.3251740">
	<ele>1198.80</ele>
	<time>2025-04-29T10:18:27.000Z</time>
</trkpt>
<trkpt lat="45.9144890" lon="10.3251680">
	<ele>1198.80</ele>
	<time>2025-04-29T10:18:28.000Z</time>
</trkpt>
<trkpt lat="45.9144810" lon="10.3251640">
	<ele>1198.80</ele>
	<time>2025-04-29T10:18:29.000Z</time>
</trkpt>
<trkpt lat="45.9144760" lon="10.3251510">
	<ele>1198.80</ele>
	<time>2025-04-29T10:18:30.000Z</time>
</trkpt>
<trkpt lat="45.9144700" lon="10.3251470">
	<ele>1198.60</ele>
	<time>2025-04-29T10:18:31.000Z</time>
</trkpt>
<trkpt lat="45.9144660" lon="10.3251350">
	<ele>1198.60</ele>
	<time>2025-04-29T10:18:32.000Z</time>
</trkpt>
<trkpt lat="45.9144630" lon="10.3251150">
	<ele>1198.60</ele>
	<time>2025-04-29T10:18:33.000Z</time>
</trkpt>
<trkpt lat="45.9144590" lon="10.3250950">
	<ele>1198.60</ele>
	<time>2025-04-29T10:18:34.000Z</time>
</trkpt>
<trkpt lat="45.9144560" lon="10.3250770">
	<ele>1198.60</ele>
	<time>2025-04-29T10:18:35.000Z</time>
</trkpt>
<trkpt lat="45.9144510" lon="10.3250570">
	<ele>1198.60</ele>
	<time>2025-04-29T10:18:36.000Z</time>
</trkpt>
<trkpt lat="45.9144530" lon="10.3250270">
	<ele>1198.60</ele>
	<time>2025-04-29T10:18:37.000Z</time>
</trkpt>
<trkpt lat="45.9144580" lon="10.3249970">
	<ele>1198.60</ele>
	<time>2025-04-29T10:18:38.000Z</time>
</trkpt>
<trkpt lat="45.9144590" lon="10.3249750">
	<ele>1198.60</ele>
	<time>2025-04-29T10:18:39.000Z</time>
</trkpt>
<trkpt lat="45.9144580" lon="10.3249610">
	<ele>1198.60</ele>
	<time>2025-04-29T10:18:40.000Z</time>
</trkpt>
<trkpt lat="45.9144540" lon="10.3249430">
	<ele>1198.40</ele>
	<time>2025-04-29T10:18:41.000Z</time>
</trkpt>
<trkpt lat="45.9144610" lon="10.3249190">
	<ele>1198.40</ele>
	<time>2025-04-29T10:18:42.000Z</time>
</trkpt>
<trkpt lat="45.9144610" lon="10.3248930">
	<ele>1198.20</ele>
	<time>2025-04-29T10:18:43.000Z</time>
</trkpt>
<trkpt lat="45.9144620" lon="10.3248690">
	<ele>1197.80</ele>
	<time>2025-04-29T10:18:44.000Z</time>
</trkpt>
<trkpt lat="45.9144690" lon="10.3248480">
	<ele>1197.60</ele>
	<time>2025-04-29T10:18:45.000Z</time>
</trkpt>
<trkpt lat="45.9144720" lon="10.3248340">
	<ele>1197.40</ele>
	<time>2025-04-29T10:18:46.000Z</time>
</trkpt>
<trkpt lat="45.9144770" lon="10.3248080">
	<ele>1197.20</ele>
	<time>2025-04-29T10:18:47.000Z</time>
</trkpt>
<trkpt lat="45.9144760" lon="10.3247840">
	<ele>1197.00</ele>
	<time>2025-04-29T10:18:48.000Z</time>
</trkpt>
<trkpt lat="45.9144720" lon="10.3247590">
	<ele>1196.80</ele>
	<time>2025-04-29T10:18:49.000Z</time>
</trkpt>
<trkpt lat="45.9144630" lon="10.3247380">
	<ele>1196.60</ele>
	<time>2025-04-29T10:18:50.000Z</time>
</trkpt>
<trkpt lat="45.9144610" lon="10.3247170">
	<ele>1196.60</ele>
	<time>2025-04-29T10:18:51.000Z</time>
</trkpt>
<trkpt lat="45.9144700" lon="10.3247000">
	<ele>1196.40</ele>
	<time>2025-04-29T10:18:52.000Z</time>
</trkpt>
<trkpt lat="45.9144800" lon="10.3246830">
	<ele>1196.00</ele>
	<time>2025-04-29T10:18:53.000Z</time>
</trkpt>
<trkpt lat="45.9144890" lon="10.3246660">
	<ele>1195.80</ele>
	<time>2025-04-29T10:18:54.000Z</time>
</trkpt>
<trkpt lat="45.9144970" lon="10.3246480">
	<ele>1195.60</ele>
	<time>2025-04-29T10:18:55.000Z</time>
</trkpt>
<trkpt lat="45.9145080" lon="10.3246340">
	<ele>1195.40</ele>
	<time>2025-04-29T10:18:56.000Z</time>
</trkpt>
<trkpt lat="45.9145070" lon="10.3246200">
	<ele>1195.20</ele>
	<time>2025-04-29T10:18:57.000Z</time>
</trkpt>
<trkpt lat="45.9145050" lon="10.3246080">
	<ele>1195.00</ele>
	<time>2025-04-29T10:18:58.000Z</time>
</trkpt>
<trkpt lat="45.9145110" lon="10.3245870">
	<ele>1195.00</ele>
	<time>2025-04-29T10:18:59.000Z</time>
</trkpt>
<trkpt lat="45.9145150" lon="10.3245640">
	<ele>1194.80</ele>
	<time>2025-04-29T10:19:00.000Z</time>
</trkpt>
<trkpt lat="45.9145100" lon="10.3245500">
	<ele>1194.80</ele>
	<time>2025-04-29T10:19:01.000Z</time>
</trkpt>
<trkpt lat="45.9145040" lon="10.3245440">
	<ele>1194.80</ele>
	<time>2025-04-29T10:19:02.000Z</time>
</trkpt>
<trkpt lat="45.9145020" lon="10.3245330">
	<ele>1194.80</ele>
	<time>2025-04-29T10:19:03.000Z</time>
</trkpt>
<trkpt lat="45.9145020" lon="10.3245190">
	<ele>1194.80</ele>
	<time>2025-04-29T10:19:04.000Z</time>
</trkpt>
<trkpt lat="45.9144990" lon="10.3245200">
	<ele>1194.80</ele>
	<time>2025-04-29T10:19:05.000Z</time>
</trkpt>
<trkpt lat="45.9144970" lon="10.3245200">
	<ele>1195.00</ele>
	<time>2025-04-29T10:19:06.000Z</time>
</trkpt>
<trkpt lat="45.9145010" lon="10.3245110">
	<ele>1195.00</ele>
	<time>2025-04-29T10:19:07.000Z</time>
</trkpt>
<trkpt lat="45.9144990" lon="10.3245120">
	<ele>1195.20</ele>
	<time>2025-04-29T10:19:08.000Z</time>
</trkpt>
<trkpt lat="45.9145030" lon="10.3245040">
	<ele>1195.20</ele>
	<time>2025-04-29T10:19:09.000Z</time>
</trkpt>
<trkpt lat="45.9145070" lon="10.3244970">
	<ele>1195.20</ele>
	<time>2025-04-29T10:19:10.000Z</time>
</trkpt>
<trkpt lat="45.9145080" lon="10.3244940">
	<ele>1195.20</ele>
	<time>2025-04-29T10:19:11.000Z</time>
</trkpt>
<trkpt lat="45.9145120" lon="10.3244830">
	<ele>1194.80</ele>
	<time>2025-04-29T10:19:12.000Z</time>
</trkpt>
<trkpt lat="45.9145280" lon="10.3244670">
	<ele>1194.80</ele>
	<time>2025-04-29T10:19:13.000Z</time>
</trkpt>
<trkpt lat="45.9145350" lon="10.3244550">
	<ele>1194.60</ele>
	<time>2025-04-29T10:19:14.000Z</time>
</trkpt>
<trkpt lat="45.9145410" lon="10.3244400">
	<ele>1194.60</ele>
	<time>2025-04-29T10:19:15.000Z</time>
</trkpt>
<trkpt lat="45.9145430" lon="10.3244240">
	<ele>1194.40</ele>
	<time>2025-04-29T10:19:16.000Z</time>
</trkpt>
<trkpt lat="45.9145450" lon="10.3244050">
	<ele>1194.20</ele>
	<time>2025-04-29T10:19:17.000Z</time>
</trkpt>
<trkpt lat="45.9145500" lon="10.3243880">
	<ele>1194.00</ele>
	<time>2025-04-29T10:19:18.000Z</time>
</trkpt>
<trkpt lat="45.9145500" lon="10.3243830">
	<ele>1194.00</ele>
	<time>2025-04-29T10:19:19.000Z</time>
</trkpt>
<trkpt lat="45.9145510" lon="10.3243780">
	<ele>1193.80</ele>
	<time>2025-04-29T10:19:20.000Z</time>
</trkpt>
<trkpt lat="45.9145640" lon="10.3243640">
	<ele>1193.80</ele>
	<time>2025-04-29T10:19:21.000Z</time>
</trkpt>
<trkpt lat="45.9145630" lon="10.3243650">
	<ele>1194.00</ele>
	<time>2025-04-29T10:19:22.000Z</time>
</trkpt>
<trkpt lat="45.9145600" lon="10.3243670">
	<ele>1194.00</ele>
	<time>2025-04-29T10:19:23.000Z</time>
</trkpt>
<trkpt lat="45.9145560" lon="10.3243550">
	<ele>1194.00</ele>
	<time>2025-04-29T10:19:24.000Z</time>
</trkpt>
<trkpt lat="45.9145400" lon="10.3243560">
	<ele>1194.00</ele>
	<time>2025-04-29T10:19:25.000Z</time>
</trkpt>
<trkpt lat="45.9145360" lon="10.3243510">
	<ele>1193.80</ele>
	<time>2025-04-29T10:19:26.000Z</time>
</trkpt>
<trkpt lat="45.9145290" lon="10.3243420">
	<ele>1193.80</ele>
	<time>2025-04-29T10:19:27.000Z</time>
</trkpt>
<trkpt lat="45.9145310" lon="10.3243280">
	<ele>1193.80</ele>
	<time>2025-04-29T10:19:28.000Z</time>
</trkpt>
<trkpt lat="45.9145360" lon="10.3243140">
	<ele>1193.80</ele>
	<time>2025-04-29T10:19:29.000Z</time>
</trkpt>
<trkpt lat="45.9145390" lon="10.3242980">
	<ele>1193.60</ele>
	<time>2025-04-29T10:19:30.000Z</time>
</trkpt>
<trkpt lat="45.9145420" lon="10.3242840">
	<ele>1193.20</ele>
	<time>2025-04-29T10:19:31.000Z</time>
</trkpt>
<trkpt lat="45.9145470" lon="10.3242710">
	<ele>1193.00</ele>
	<time>2025-04-29T10:19:32.000Z</time>
</trkpt>
<trkpt lat="45.9145500" lon="10.3242550">
	<ele>1192.80</ele>
	<time>2025-04-29T10:19:33.000Z</time>
</trkpt>
<trkpt lat="45.9145460" lon="10.3242370">
	<ele>1192.60</ele>
	<time>2025-04-29T10:19:34.000Z</time>
</trkpt>
<trkpt lat="45.9145410" lon="10.3242320">
	<ele>1192.60</ele>
	<time>2025-04-29T10:19:35.000Z</time>
</trkpt>
<trkpt lat="45.9145390" lon="10.3242260">
	<ele>1192.60</ele>
	<time>2025-04-29T10:19:36.000Z</time>
</trkpt>
<trkpt lat="45.9145470" lon="10.3242160">
	<ele>1192.60</ele>
	<time>2025-04-29T10:19:37.000Z</time>
</trkpt>
<trkpt lat="45.9145490" lon="10.3242130">
	<ele>1192.60</ele>
	<time>2025-04-29T10:19:38.000Z</time>
</trkpt>
<trkpt lat="45.9145480" lon="10.3242110">
	<ele>1192.60</ele>
	<time>2025-04-29T10:19:39.000Z</time>
</trkpt>
<trkpt lat="45.9145490" lon="10.3242090">
	<ele>1192.80</ele>
	<time>2025-04-29T10:19:40.000Z</time>
</trkpt>
<trkpt lat="45.9145490" lon="10.3242070">
	<ele>1192.80</ele>
	<time>2025-04-29T10:19:41.000Z</time>
</trkpt>
<trkpt lat="45.9145590" lon="10.3241970">
	<ele>1192.80</ele>
	<time>2025-04-29T10:19:42.000Z</time>
</trkpt>
<trkpt lat="45.9145690" lon="10.3241830">
	<ele>1192.80</ele>
	<time>2025-04-29T10:19:43.000Z</time>
</trkpt>
<trkpt lat="45.9145800" lon="10.3241650">
	<ele>1192.40</ele>
	<time>2025-04-29T10:19:44.000Z</time>
</trkpt>
<trkpt lat="45.9145900" lon="10.3241500">
	<ele>1192.20</ele>
	<time>2025-04-29T10:19:45.000Z</time>
</trkpt>
<trkpt lat="45.9145960" lon="10.3241400">
	<ele>1192.00</ele>
	<time>2025-04-29T10:19:46.000Z</time>
</trkpt>
<trkpt lat="45.9146060" lon="10.3241280">
	<ele>1191.60</ele>
	<time>2025-04-29T10:19:47.000Z</time>
</trkpt>
<trkpt lat="45.9146190" lon="10.3241120">
	<ele>1191.60</ele>
	<time>2025-04-29T10:19:48.000Z</time>
</trkpt>
<trkpt lat="45.9146340" lon="10.3240970">
	<ele>1191.40</ele>
	<time>2025-04-29T10:19:49.000Z</time>
</trkpt>
<trkpt lat="45.9146470" lon="10.3240780">
	<ele>1191.20</ele>
	<time>2025-04-29T10:19:50.000Z</time>
</trkpt>
<trkpt lat="45.9146630" lon="10.3240610">
	<ele>1191.00</ele>
	<time>2025-04-29T10:19:51.000Z</time>
</trkpt>
<trkpt lat="45.9146770" lon="10.3240430">
	<ele>1190.60</ele>
	<time>2025-04-29T10:19:52.000Z</time>
</trkpt>
<trkpt lat="45.9146790" lon="10.3240350">
	<ele>1190.20</ele>
	<time>2025-04-29T10:19:53.000Z</time>
</trkpt>
<trkpt lat="45.9146910" lon="10.3240240">
	<ele>1190.00</ele>
	<time>2025-04-29T10:19:54.000Z</time>
</trkpt>
<trkpt lat="45.9146960" lon="10.3240110">
	<ele>1189.80</ele>
	<time>2025-04-29T10:19:55.000Z</time>
</trkpt>
<trkpt lat="45.9146920" lon="10.3239990">
	<ele>1189.60</ele>
	<time>2025-04-29T10:19:56.000Z</time>
</trkpt>
<trkpt lat="45.9146860" lon="10.3239850">
	<ele>1189.20</ele>
	<time>2025-04-29T10:19:57.000Z</time>
</trkpt>
<trkpt lat="45.9146850" lon="10.3239690">
	<ele>1188.80</ele>
	<time>2025-04-29T10:19:58.000Z</time>
</trkpt>
<trkpt lat="45.9146880" lon="10.3239530">
	<ele>1188.80</ele>
	<time>2025-04-29T10:19:59.000Z</time>
</trkpt>
<trkpt lat="45.9147040" lon="10.3239390">
	<ele>1188.60</ele>
	<time>2025-04-29T10:20:00.000Z</time>
</trkpt>
<trkpt lat="45.9147190" lon="10.3239280">
	<ele>1188.40</ele>
	<time>2025-04-29T10:20:01.000Z</time>
</trkpt>
<trkpt lat="45.9147240" lon="10.3239220">
	<ele>1188.20</ele>
	<time>2025-04-29T10:20:02.000Z</time>
</trkpt>
<trkpt lat="45.9147400" lon="10.3239210">
	<ele>1188.20</ele>
	<time>2025-04-29T10:20:03.000Z</time>
</trkpt>
<trkpt lat="45.9147630" lon="10.3239170">
	<ele>1188.00</ele>
	<time>2025-04-29T10:20:04.000Z</time>
</trkpt>
<trkpt lat="45.9147760" lon="10.3239120">
	<ele>1187.60</ele>
	<time>2025-04-29T10:20:05.000Z</time>
</trkpt>
<trkpt lat="45.9147920" lon="10.3239030">
	<ele>1187.40</ele>
	<time>2025-04-29T10:20:06.000Z</time>
</trkpt>
<trkpt lat="45.9148060" lon="10.3238920">
	<ele>1187.20</ele>
	<time>2025-04-29T10:20:07.000Z</time>
</trkpt>
<trkpt lat="45.9148180" lon="10.3238730">
	<ele>1186.80</ele>
	<time>2025-04-29T10:20:08.000Z</time>
</trkpt>
<trkpt lat="45.9148140" lon="10.3238540">
	<ele>1186.60</ele>
	<time>2025-04-29T10:20:09.000Z</time>
</trkpt>
<trkpt lat="45.9148070" lon="10.3238450">
	<ele>1186.40</ele>
	<time>2025-04-29T10:20:10.000Z</time>
</trkpt>
<trkpt lat="45.9148180" lon="10.3238470">
	<ele>1186.20</ele>
	<time>2025-04-29T10:20:11.000Z</time>
</trkpt>
<trkpt lat="45.9148190" lon="10.3238390">
	<ele>1185.80</ele>
	<time>2025-04-29T10:20:12.000Z</time>
</trkpt>
<trkpt lat="45.9148250" lon="10.3238310">
	<ele>1185.60</ele>
	<time>2025-04-29T10:20:13.000Z</time>
</trkpt>
<trkpt lat="45.9148370" lon="10.3238210">
	<ele>1185.40</ele>
	<time>2025-04-29T10:20:14.000Z</time>
</trkpt>
<trkpt lat="45.9148500" lon="10.3238020">
	<ele>1184.80</ele>
	<time>2025-04-29T10:20:15.000Z</time>
</trkpt>
<trkpt lat="45.9148590" lon="10.3237870">
	<ele>1184.60</ele>
	<time>2025-04-29T10:20:16.000Z</time>
</trkpt>
<trkpt lat="45.9148650" lon="10.3237700">
	<ele>1184.20</ele>
	<time>2025-04-29T10:20:17.000Z</time>
</trkpt>
<trkpt lat="45.9148730" lon="10.3237570">
	<ele>1184.00</ele>
	<time>2025-04-29T10:20:18.000Z</time>
</trkpt>
<trkpt lat="45.9148770" lon="10.3237480">
	<ele>1183.80</ele>
	<time>2025-04-29T10:20:19.000Z</time>
</trkpt>
<trkpt lat="45.9148760" lon="10.3237360">
	<ele>1183.60</ele>
	<time>2025-04-29T10:20:20.000Z</time>
</trkpt>
<trkpt lat="45.9148760" lon="10.3237330">
	<ele>1183.00</ele>
	<time>2025-04-29T10:20:21.000Z</time>
</trkpt>
<trkpt lat="45.9148810" lon="10.3237240">
	<ele>1182.80</ele>
	<time>2025-04-29T10:20:22.000Z</time>
</trkpt>
<trkpt lat="45.9148960" lon="10.3237170">
	<ele>1182.40</ele>
	<time>2025-04-29T10:20:23.000Z</time>
</trkpt>
<trkpt lat="45.9149000" lon="10.3237050">
	<ele>1182.20</ele>
	<time>2025-04-29T10:20:24.000Z</time>
</trkpt>
<trkpt lat="45.9149150" lon="10.3236950">
	<ele>1181.80</ele>
	<time>2025-04-29T10:20:25.000Z</time>
</trkpt>
<trkpt lat="45.9149360" lon="10.3236830">
	<ele>1181.60</ele>
	<time>2025-04-29T10:20:26.000Z</time>
</trkpt>
<trkpt lat="45.9149500" lon="10.3236710">
	<ele>1181.20</ele>
	<time>2025-04-29T10:20:27.000Z</time>
</trkpt>
<trkpt lat="45.9149650" lon="10.3236560">
	<ele>1181.00</ele>
	<time>2025-04-29T10:20:28.000Z</time>
</trkpt>
<trkpt lat="45.9149760" lon="10.3236450">
	<ele>1180.80</ele>
	<time>2025-04-29T10:20:29.000Z</time>
</trkpt>
<trkpt lat="45.9149760" lon="10.3236360">
	<ele>1180.60</ele>
	<time>2025-04-29T10:20:30.000Z</time>
</trkpt>
<trkpt lat="45.9149760" lon="10.3236280">
	<ele>1180.20</ele>
	<time>2025-04-29T10:20:31.000Z</time>
</trkpt>
<trkpt lat="45.9149790" lon="10.3236180">
	<ele>1180.00</ele>
	<time>2025-04-29T10:20:32.000Z</time>
</trkpt>
<trkpt lat="45.9149880" lon="10.3236040">
	<ele>1180.00</ele>
	<time>2025-04-29T10:20:33.000Z</time>
</trkpt>
<trkpt lat="45.9150020" lon="10.3235930">
	<ele>1179.80</ele>
	<time>2025-04-29T10:20:34.000Z</time>
</trkpt>
<trkpt lat="45.9150130" lon="10.3235820">
	<ele>1179.80</ele>
	<time>2025-04-29T10:20:35.000Z</time>
</trkpt>
<trkpt lat="45.9150180" lon="10.3235700">
	<ele>1179.60</ele>
	<time>2025-04-29T10:20:36.000Z</time>
</trkpt>
<trkpt lat="45.9150160" lon="10.3235560">
	<ele>1179.40</ele>
	<time>2025-04-29T10:20:37.000Z</time>
</trkpt>
<trkpt lat="45.9150110" lon="10.3235410">
	<ele>1179.40</ele>
	<time>2025-04-29T10:20:38.000Z</time>
</trkpt>
<trkpt lat="45.9150160" lon="10.3235240">
	<ele>1179.20</ele>
	<time>2025-04-29T10:20:39.000Z</time>
</trkpt>
<trkpt lat="45.9150180" lon="10.3235100">
	<ele>1179.00</ele>
	<time>2025-04-29T10:20:40.000Z</time>
</trkpt>
<trkpt lat="45.9150220" lon="10.3234940">
	<ele>1179.00</ele>
	<time>2025-04-29T10:20:41.000Z</time>
</trkpt>
<trkpt lat="45.9150320" lon="10.3234780">
	<ele>1178.80</ele>
	<time>2025-04-29T10:20:42.000Z</time>
</trkpt>
<trkpt lat="45.9150490" lon="10.3234580">
	<ele>1178.60</ele>
	<time>2025-04-29T10:20:43.000Z</time>
</trkpt>
<trkpt lat="45.9150590" lon="10.3234400">
	<ele>1178.40</ele>
	<time>2025-04-29T10:20:44.000Z</time>
</trkpt>
<trkpt lat="45.9150610" lon="10.3234180">
	<ele>1178.00</ele>
	<time>2025-04-29T10:20:45.000Z</time>
</trkpt>
<trkpt lat="45.9150610" lon="10.3234020">
	<ele>1177.60</ele>
	<time>2025-04-29T10:20:46.000Z</time>
</trkpt>
<trkpt lat="45.9150640" lon="10.3233930">
	<ele>1177.20</ele>
	<time>2025-04-29T10:20:47.000Z</time>
</trkpt>
<trkpt lat="45.9150690" lon="10.3233860">
	<ele>1177.00</ele>
	<time>2025-04-29T10:20:48.000Z</time>
</trkpt>
<trkpt lat="45.9150670" lon="10.3233730">
	<ele>1176.60</ele>
	<time>2025-04-29T10:20:49.000Z</time>
</trkpt>
<trkpt lat="45.9150670" lon="10.3233600">
	<ele>1176.40</ele>
	<time>2025-04-29T10:20:50.000Z</time>
</trkpt>
<trkpt lat="45.9150640" lon="10.3233560">
	<ele>1176.00</ele>
	<time>2025-04-29T10:20:51.000Z</time>
</trkpt>
<trkpt lat="45.9150730" lon="10.3233380">
	<ele>1175.80</ele>
	<time>2025-04-29T10:20:52.000Z</time>
</trkpt>
<trkpt lat="45.9150900" lon="10.3233180">
	<ele>1175.40</ele>
	<time>2025-04-29T10:20:53.000Z</time>
</trkpt>
<trkpt lat="45.9151180" lon="10.3232930">
	<ele>1175.20</ele>
	<time>2025-04-29T10:20:54.000Z</time>
</trkpt>
<trkpt lat="45.9151380" lon="10.3232780">
	<ele>1174.80</ele>
	<time>2025-04-29T10:20:55.000Z</time>
</trkpt>
<trkpt lat="45.9151550" lon="10.3232650">
	<ele>1174.40</ele>
	<time>2025-04-29T10:20:56.000Z</time>
</trkpt>
<trkpt lat="45.9151680" lon="10.3232540">
	<ele>1174.40</ele>
	<time>2025-04-29T10:20:57.000Z</time>
</trkpt>
<trkpt lat="45.9151800" lon="10.3232440">
	<ele>1174.20</ele>
	<time>2025-04-29T10:20:58.000Z</time>
</trkpt>
<trkpt lat="45.9151850" lon="10.3232440">
	<ele>1174.20</ele>
	<time>2025-04-29T10:20:59.000Z</time>
</trkpt>
<trkpt lat="45.9151870" lon="10.3232430">
	<ele>1174.00</ele>
	<time>2025-04-29T10:21:00.000Z</time>
</trkpt>
<trkpt lat="45.9151750" lon="10.3232320">
	<ele>1174.00</ele>
	<time>2025-04-29T10:21:01.000Z</time>
</trkpt>
<trkpt lat="45.9151710" lon="10.3232330">
	<ele>1174.00</ele>
	<time>2025-04-29T10:21:02.000Z</time>
</trkpt>
<trkpt lat="45.9151810" lon="10.3232220">
	<ele>1173.60</ele>
	<time>2025-04-29T10:21:03.000Z</time>
</trkpt>
<trkpt lat="45.9151910" lon="10.3232140">
	<ele>1173.40</ele>
	<time>2025-04-29T10:21:04.000Z</time>
</trkpt>
<trkpt lat="45.9151950" lon="10.3232100">
	<ele>1173.20</ele>
	<time>2025-04-29T10:21:05.000Z</time>
</trkpt>
<trkpt lat="45.9151990" lon="10.3232020">
	<ele>1173.20</ele>
	<time>2025-04-29T10:21:06.000Z</time>
</trkpt>
<trkpt lat="45.9152010" lon="10.3231840">
	<ele>1173.00</ele>
	<time>2025-04-29T10:21:07.000Z</time>
</trkpt>
<trkpt lat="45.9152000" lon="10.3231540">
	<ele>1172.80</ele>
	<time>2025-04-29T10:21:08.000Z</time>
</trkpt>
<trkpt lat="45.9151990" lon="10.3231280">
	<ele>1172.40</ele>
	<time>2025-04-29T10:21:09.000Z</time>
</trkpt>
<trkpt lat="45.9151900" lon="10.3231040">
	<ele>1172.20</ele>
	<time>2025-04-29T10:21:10.000Z</time>
</trkpt>
<trkpt lat="45.9151910" lon="10.3230820">
	<ele>1172.00</ele>
	<time>2025-04-29T10:21:11.000Z</time>
</trkpt>
<trkpt lat="45.9151950" lon="10.3230670">
	<ele>1172.00</ele>
	<time>2025-04-29T10:21:12.000Z</time>
</trkpt>
<trkpt lat="45.9151930" lon="10.3230580">
	<ele>1171.80</ele>
	<time>2025-04-29T10:21:13.000Z</time>
</trkpt>
<trkpt lat="45.9151820" lon="10.3230530">
	<ele>1171.60</ele>
	<time>2025-04-29T10:21:14.000Z</time>
</trkpt>
<trkpt lat="45.9151740" lon="10.3230500">
	<ele>1171.20</ele>
	<time>2025-04-29T10:21:15.000Z</time>
</trkpt>
<trkpt lat="45.9151670" lon="10.3230370">
	<ele>1170.80</ele>
	<time>2025-04-29T10:21:16.000Z</time>
</trkpt>
<trkpt lat="45.9151620" lon="10.3230150">
	<ele>1170.60</ele>
	<time>2025-04-29T10:21:17.000Z</time>
</trkpt>
<trkpt lat="45.9151560" lon="10.3230050">
	<ele>1170.40</ele>
	<time>2025-04-29T10:21:18.000Z</time>
</trkpt>
<trkpt lat="45.9151540" lon="10.3229980">
	<ele>1170.00</ele>
	<time>2025-04-29T10:21:19.000Z</time>
</trkpt>
<trkpt lat="45.9151460" lon="10.3229950">
	<ele>1169.60</ele>
	<time>2025-04-29T10:21:20.000Z</time>
</trkpt>
<trkpt lat="45.9151440" lon="10.3229750">
	<ele>1169.20</ele>
	<time>2025-04-29T10:21:21.000Z</time>
</trkpt>
<trkpt lat="45.9151620" lon="10.3229550">
	<ele>1168.80</ele>
	<time>2025-04-29T10:21:22.000Z</time>
</trkpt>
<trkpt lat="45.9151670" lon="10.3229270">
	<ele>1168.60</ele>
	<time>2025-04-29T10:21:23.000Z</time>
</trkpt>
<trkpt lat="45.9151660" lon="10.3228840">
	<ele>1168.20</ele>
	<time>2025-04-29T10:21:24.000Z</time>
</trkpt>
<trkpt lat="45.9151720" lon="10.3228440">
	<ele>1167.80</ele>
	<time>2025-04-29T10:21:25.000Z</time>
</trkpt>
<trkpt lat="45.9151780" lon="10.3228120">
	<ele>1167.40</ele>
	<time>2025-04-29T10:21:26.000Z</time>
</trkpt>
<trkpt lat="45.9151730" lon="10.3227800">
	<ele>1167.00</ele>
	<time>2025-04-29T10:21:27.000Z</time>
</trkpt>
<trkpt lat="45.9151700" lon="10.3227570">
	<ele>1166.60</ele>
	<time>2025-04-29T10:21:28.000Z</time>
</trkpt>
<trkpt lat="45.9151820" lon="10.3227420">
	<ele>1166.40</ele>
	<time>2025-04-29T10:21:29.000Z</time>
</trkpt>
<trkpt lat="45.9151900" lon="10.3227250">
	<ele>1166.00</ele>
	<time>2025-04-29T10:21:30.000Z</time>
</trkpt>
<trkpt lat="45.9152030" lon="10.3227100">
	<ele>1165.40</ele>
	<time>2025-04-29T10:21:31.000Z</time>
</trkpt>
<trkpt lat="45.9151950" lon="10.3227250">
	<ele>1165.00</ele>
	<time>2025-04-29T10:21:32.000Z</time>
</trkpt>
<trkpt lat="45.9151970" lon="10.3227160">
	<ele>1164.60</ele>
	<time>2025-04-29T10:21:33.000Z</time>
</trkpt>
<trkpt lat="45.9151990" lon="10.3227030">
	<ele>1164.20</ele>
	<time>2025-04-29T10:21:34.000Z</time>
</trkpt>
<trkpt lat="45.9152010" lon="10.3226800">
	<ele>1164.00</ele>
	<time>2025-04-29T10:21:35.000Z</time>
</trkpt>
<trkpt lat="45.9152030" lon="10.3226560">
	<ele>1163.60</ele>
	<time>2025-04-29T10:21:36.000Z</time>
</trkpt>
<trkpt lat="45.9152070" lon="10.3226290">
	<ele>1163.20</ele>
	<time>2025-04-29T10:21:37.000Z</time>
</trkpt>
<trkpt lat="45.9152230" lon="10.3226070">
	<ele>1162.80</ele>
	<time>2025-04-29T10:21:38.000Z</time>
</trkpt>
<trkpt lat="45.9152300" lon="10.3225840">
	<ele>1162.60</ele>
	<time>2025-04-29T10:21:39.000Z</time>
</trkpt>
<trkpt lat="45.9152390" lon="10.3225630">
	<ele>1162.20</ele>
	<time>2025-04-29T10:21:40.000Z</time>
</trkpt>
<trkpt lat="45.9152400" lon="10.3225310">
	<ele>1162.00</ele>
	<time>2025-04-29T10:21:41.000Z</time>
</trkpt>
<trkpt lat="45.9152380" lon="10.3224990">
	<ele>1161.80</ele>
	<time>2025-04-29T10:21:42.000Z</time>
</trkpt>
<trkpt lat="45.9152360" lon="10.3224730">
	<ele>1161.60</ele>
	<time>2025-04-29T10:21:43.000Z</time>
</trkpt>
<trkpt lat="45.9152470" lon="10.3224480">
	<ele>1161.40</ele>
	<time>2025-04-29T10:21:44.000Z</time>
</trkpt>
<trkpt lat="45.9152430" lon="10.3224270">
	<ele>1161.20</ele>
	<time>2025-04-29T10:21:45.000Z</time>
</trkpt>
<trkpt lat="45.9152310" lon="10.3224030">
	<ele>1161.00</ele>
	<time>2025-04-29T10:21:46.000Z</time>
</trkpt>
<trkpt lat="45.9152090" lon="10.3223880">
	<ele>1160.80</ele>
	<time>2025-04-29T10:21:47.000Z</time>
</trkpt>
<trkpt lat="45.9151950" lon="10.3223760">
	<ele>1160.60</ele>
	<time>2025-04-29T10:21:48.000Z</time>
</trkpt>
<trkpt lat="45.9151850" lon="10.3223620">
	<ele>1160.60</ele>
	<time>2025-04-29T10:21:49.000Z</time>
</trkpt>
<trkpt lat="45.9151780" lon="10.3223480">
	<ele>1160.60</ele>
	<time>2025-04-29T10:21:50.000Z</time>
</trkpt>
<trkpt lat="45.9151630" lon="10.3223330">
	<ele>1160.40</ele>
	<time>2025-04-29T10:21:51.000Z</time>
</trkpt>
<trkpt lat="45.9151520" lon="10.3223270">
	<ele>1160.40</ele>
	<time>2025-04-29T10:21:52.000Z</time>
</trkpt>
<trkpt lat="45.9151410" lon="10.3223220">
	<ele>1160.20</ele>
	<time>2025-04-29T10:21:53.000Z</time>
</trkpt>
<trkpt lat="45.9151370" lon="10.3223200">
	<ele>1160.00</ele>
	<time>2025-04-29T10:21:54.000Z</time>
</trkpt>
<trkpt lat="45.9151320" lon="10.3223170">
	<ele>1159.80</ele>
	<time>2025-04-29T10:21:55.000Z</time>
</trkpt>
<trkpt lat="45.9151220" lon="10.3223080">
	<ele>1159.80</ele>
	<time>2025-04-29T10:21:56.000Z</time>
</trkpt>
<trkpt lat="45.9151150" lon="10.3223000">
	<ele>1159.40</ele>
	<time>2025-04-29T10:21:57.000Z</time>
</trkpt>
<trkpt lat="45.9151110" lon="10.3222960">
	<ele>1159.00</ele>
	<time>2025-04-29T10:21:58.000Z</time>
</trkpt>
<trkpt lat="45.9151100" lon="10.3222940">
	<ele>1158.80</ele>
	<time>2025-04-29T10:21:59.000Z</time>
</trkpt>
<trkpt lat="45.9151000" lon="10.3222790">
	<ele>1158.60</ele>
	<time>2025-04-29T10:22:00.000Z</time>
</trkpt>
<trkpt lat="45.9150820" lon="10.3222790">
	<ele>1158.40</ele>
	<time>2025-04-29T10:22:01.000Z</time>
</trkpt>
<trkpt lat="45.9150660" lon="10.3222630">
	<ele>1158.20</ele>
	<time>2025-04-29T10:22:02.000Z</time>
</trkpt>
<trkpt lat="45.9150560" lon="10.3222450">
	<ele>1158.00</ele>
	<time>2025-04-29T10:22:03.000Z</time>
</trkpt>
<trkpt lat="45.9150520" lon="10.3222390">
	<ele>1157.80</ele>
	<time>2025-04-29T10:22:04.000Z</time>
</trkpt>
<trkpt lat="45.9150390" lon="10.3222340">
	<ele>1157.40</ele>
	<time>2025-04-29T10:22:05.000Z</time>
</trkpt>
<trkpt lat="45.9150280" lon="10.3222400">
	<ele>1157.00</ele>
	<time>2025-04-29T10:22:06.000Z</time>
</trkpt>
<trkpt lat="45.9150120" lon="10.3222490">
	<ele>1156.60</ele>
	<time>2025-04-29T10:22:07.000Z</time>
</trkpt>
<trkpt lat="45.9149960" lon="10.3222480">
	<ele>1156.20</ele>
	<time>2025-04-29T10:22:08.000Z</time>
</trkpt>
<trkpt lat="45.9149760" lon="10.3222290">
	<ele>1156.00</ele>
	<time>2025-04-29T10:22:09.000Z</time>
</trkpt>
<trkpt lat="45.9149730" lon="10.3222330">
	<ele>1155.60</ele>
	<time>2025-04-29T10:22:10.000Z</time>
</trkpt>
<trkpt lat="45.9149660" lon="10.3222480">
	<ele>1155.20</ele>
	<time>2025-04-29T10:22:11.000Z</time>
</trkpt>
<trkpt lat="45.9149520" lon="10.3222500">
	<ele>1155.00</ele>
	<time>2025-04-29T10:22:12.000Z</time>
</trkpt>
<trkpt lat="45.9149480" lon="10.3222530">
	<ele>1154.80</ele>
	<time>2025-04-29T10:22:13.000Z</time>
</trkpt>
<trkpt lat="45.9149380" lon="10.3222540">
	<ele>1154.40</ele>
	<time>2025-04-29T10:22:14.000Z</time>
</trkpt>
<trkpt lat="45.9149120" lon="10.3222450">
	<ele>1154.20</ele>
	<time>2025-04-29T10:22:15.000Z</time>
</trkpt>
<trkpt lat="45.9148870" lon="10.3222260">
	<ele>1154.00</ele>
	<time>2025-04-29T10:22:16.000Z</time>
</trkpt>
<trkpt lat="45.9148640" lon="10.3222120">
	<ele>1153.80</ele>
	<time>2025-04-29T10:22:17.000Z</time>
</trkpt>
<trkpt lat="45.9148430" lon="10.3221890">
	<ele>1153.40</ele>
	<time>2025-04-29T10:22:18.000Z</time>
</trkpt>
<trkpt lat="45.9148280" lon="10.3221750">
	<ele>1152.80</ele>
	<time>2025-04-29T10:22:19.000Z</time>
</trkpt>
<trkpt lat="45.9148180" lon="10.3221700">
	<ele>1152.60</ele>
	<time>2025-04-29T10:22:20.000Z</time>
</trkpt>
<trkpt lat="45.9148100" lon="10.3221700">
	<ele>1152.40</ele>
	<time>2025-04-29T10:22:21.000Z</time>
</trkpt>
<trkpt lat="45.9147990" lon="10.3221730">
	<ele>1152.20</ele>
	<time>2025-04-29T10:22:22.000Z</time>
</trkpt>
<trkpt lat="45.9147950" lon="10.3221720">
	<ele>1151.60</ele>
	<time>2025-04-29T10:22:23.000Z</time>
</trkpt>
<trkpt lat="45.9147920" lon="10.3221700">
	<ele>1151.40</ele>
	<time>2025-04-29T10:22:24.000Z</time>
</trkpt>
<trkpt lat="45.9147820" lon="10.3221730">
	<ele>1151.00</ele>
	<time>2025-04-29T10:22:25.000Z</time>
</trkpt>
<trkpt lat="45.9147860" lon="10.3221790">
	<ele>1150.80</ele>
	<time>2025-04-29T10:22:26.000Z</time>
</trkpt>
<trkpt lat="45.9147860" lon="10.3221880">
	<ele>1150.60</ele>
	<time>2025-04-29T10:22:27.000Z</time>
</trkpt>
<trkpt lat="45.9147840" lon="10.3221840">
	<ele>1150.20</ele>
	<time>2025-04-29T10:22:28.000Z</time>
</trkpt>
<trkpt lat="45.9147920" lon="10.3221910">
	<ele>1150.00</ele>
	<time>2025-04-29T10:22:29.000Z</time>
</trkpt>
<trkpt lat="45.9147930" lon="10.3221870">
	<ele>1149.60</ele>
	<time>2025-04-29T10:22:30.000Z</time>
</trkpt>
<trkpt lat="45.9148030" lon="10.3221780">
	<ele>1149.20</ele>
	<time>2025-04-29T10:22:31.000Z</time>
</trkpt>
<trkpt lat="45.9148140" lon="10.3221740">
	<ele>1149.00</ele>
	<time>2025-04-29T10:22:32.000Z</time>
</trkpt>
<trkpt lat="45.9148280" lon="10.3221690">
	<ele>1148.60</ele>
	<time>2025-04-29T10:22:33.000Z</time>
</trkpt>
<trkpt lat="45.9148460" lon="10.3221820">
	<ele>1148.20</ele>
	<time>2025-04-29T10:22:34.000Z</time>
</trkpt>
<trkpt lat="45.9148500" lon="10.3221800">
	<ele>1147.80</ele>
	<time>2025-04-29T10:22:35.000Z</time>
</trkpt>
<trkpt lat="45.9148430" lon="10.3221680">
	<ele>1147.40</ele>
	<time>2025-04-29T10:22:36.000Z</time>
</trkpt>
<trkpt lat="45.9148420" lon="10.3221580">
	<ele>1147.20</ele>
	<time>2025-04-29T10:22:37.000Z</time>
</trkpt>
<trkpt lat="45.9148460" lon="10.3221550">
	<ele>1146.80</ele>
	<time>2025-04-29T10:22:38.000Z</time>
</trkpt>
<trkpt lat="45.9148540" lon="10.3221490">
	<ele>1146.60</ele>
	<time>2025-04-29T10:22:39.000Z</time>
</trkpt>
<trkpt lat="45.9148570" lon="10.3221410">
	<ele>1146.60</ele>
	<time>2025-04-29T10:22:40.000Z</time>
</trkpt>
<trkpt lat="45.9148550" lon="10.3221310">
	<ele>1146.00</ele>
	<time>2025-04-29T10:22:41.000Z</time>
</trkpt>
<trkpt lat="45.9148570" lon="10.3221140">
	<ele>1145.80</ele>
	<time>2025-04-29T10:22:42.000Z</time>
</trkpt>
<trkpt lat="45.9148590" lon="10.3221020">
	<ele>1145.40</ele>
	<time>2025-04-29T10:22:43.000Z</time>
</trkpt>
<trkpt lat="45.9148590" lon="10.3220890">
	<ele>1145.20</ele>
	<time>2025-04-29T10:22:44.000Z</time>
</trkpt>
<trkpt lat="45.9148530" lon="10.3220680">
	<ele>1145.00</ele>
	<time>2025-04-29T10:22:45.000Z</time>
</trkpt>
<trkpt lat="45.9148450" lon="10.3220420">
	<ele>1144.60</ele>
	<time>2025-04-29T10:22:46.000Z</time>
</trkpt>
<trkpt lat="45.9148460" lon="10.3220260">
	<ele>1144.40</ele>
	<time>2025-04-29T10:22:47.000Z</time>
</trkpt>
<trkpt lat="45.9148520" lon="10.3220220">
	<ele>1144.00</ele>
	<time>2025-04-29T10:22:48.000Z</time>
</trkpt>
<trkpt lat="45.9148480" lon="10.3220070">
	<ele>1143.80</ele>
	<time>2025-04-29T10:22:49.000Z</time>
</trkpt>
<trkpt lat="45.9148500" lon="10.3220020">
	<ele>1143.40</ele>
	<time>2025-04-29T10:22:50.000Z</time>
</trkpt>
<trkpt lat="45.9148560" lon="10.3219870">
	<ele>1143.20</ele>
	<time>2025-04-29T10:22:51.000Z</time>
</trkpt>
<trkpt lat="45.9148530" lon="10.3219660">
	<ele>1142.80</ele>
	<time>2025-04-29T10:22:52.000Z</time>
</trkpt>
<trkpt lat="45.9148480" lon="10.3219490">
	<ele>1142.40</ele>
	<time>2025-04-29T10:22:53.000Z</time>
</trkpt>
<trkpt lat="45.9148370" lon="10.3219310">
	<ele>1142.00</ele>
	<time>2025-04-29T10:22:54.000Z</time>
</trkpt>
<trkpt lat="45.9148660" lon="10.3219270">
	<ele>1141.80</ele>
	<time>2025-04-29T10:22:55.000Z</time>
</trkpt>
<trkpt lat="45.9148820" lon="10.3219310">
	<ele>1141.60</ele>
	<time>2025-04-29T10:22:56.000Z</time>
</trkpt>
<trkpt lat="45.9148860" lon="10.3219250">
	<ele>1141.20</ele>
	<time>2025-04-29T10:22:57.000Z</time>
</trkpt>
<trkpt lat="45.9148820" lon="10.3219030">
	<ele>1141.00</ele>
	<time>2025-04-29T10:22:58.000Z</time>
</trkpt>
<trkpt lat="45.9148820" lon="10.3218930">
	<ele>1140.80</ele>
	<time>2025-04-29T10:22:59.000Z</time>
</trkpt>
<trkpt lat="45.9148870" lon="10.3218890">
	<ele>1140.40</ele>
	<time>2025-04-29T10:23:00.000Z</time>
</trkpt>
<trkpt lat="45.9148880" lon="10.3218840">
	<ele>1140.00</ele>
	<time>2025-04-29T10:23:01.000Z</time>
</trkpt>
<trkpt lat="45.9148870" lon="10.3218790">
	<ele>1139.80</ele>
	<time>2025-04-29T10:23:02.000Z</time>
</trkpt>
<trkpt lat="45.9148750" lon="10.3218630">
	<ele>1139.20</ele>
	<time>2025-04-29T10:23:03.000Z</time>
</trkpt>
<trkpt lat="45.9148690" lon="10.3218540">
	<ele>1138.80</ele>
	<time>2025-04-29T10:23:04.000Z</time>
</trkpt>
<trkpt lat="45.9148640" lon="10.3218450">
	<ele>1138.60</ele>
	<time>2025-04-29T10:23:05.000Z</time>
</trkpt>
<trkpt lat="45.9148560" lon="10.3218290">
	<ele>1138.40</ele>
	<time>2025-04-29T10:23:06.000Z</time>
</trkpt>
<trkpt lat="45.9148470" lon="10.3218110">
	<ele>1138.20</ele>
	<time>2025-04-29T10:23:07.000Z</time>
</trkpt>
<trkpt lat="45.9148400" lon="10.3217860">
	<ele>1138.00</ele>
	<time>2025-04-29T10:23:08.000Z</time>
</trkpt>
<trkpt lat="45.9148350" lon="10.3217670">
	<ele>1137.60</ele>
	<time>2025-04-29T10:23:09.000Z</time>
</trkpt>
<trkpt lat="45.9148330" lon="10.3217490">
	<ele>1137.40</ele>
	<time>2025-04-29T10:23:10.000Z</time>
</trkpt>
<trkpt lat="45.9148310" lon="10.3217370">
	<ele>1137.00</ele>
	<time>2025-04-29T10:23:11.000Z</time>
</trkpt>
<trkpt lat="45.9148290" lon="10.3217290">
	<ele>1136.80</ele>
	<time>2025-04-29T10:23:12.000Z</time>
</trkpt>
<trkpt lat="45.9148180" lon="10.3217230">
	<ele>1136.80</ele>
	<time>2025-04-29T10:23:13.000Z</time>
</trkpt>
<trkpt lat="45.9148090" lon="10.3217210">
	<ele>1136.40</ele>
	<time>2025-04-29T10:23:14.000Z</time>
</trkpt>
<trkpt lat="45.9148070" lon="10.3217190">
	<ele>1136.20</ele>
	<time>2025-04-29T10:23:15.000Z</time>
</trkpt>
<trkpt lat="45.9148080" lon="10.3217150">
	<ele>1135.80</ele>
	<time>2025-04-29T10:23:16.000Z</time>
</trkpt>
<trkpt lat="45.9148100" lon="10.3217130">
	<ele>1135.60</ele>
	<time>2025-04-29T10:23:17.000Z</time>
</trkpt>
<trkpt lat="45.9148110" lon="10.3217110">
	<ele>1135.20</ele>
	<time>2025-04-29T10:23:18.000Z</time>
</trkpt>
<trkpt lat="45.9148060" lon="10.3217060">
	<ele>1135.20</ele>
	<time>2025-04-29T10:23:19.000Z</time>
</trkpt>
<trkpt lat="45.9147970" lon="10.3216990">
	<ele>1134.80</ele>
	<time>2025-04-29T10:23:20.000Z</time>
</trkpt>
<trkpt lat="45.9147950" lon="10.3216980">
	<ele>1134.60</ele>
	<time>2025-04-29T10:23:21.000Z</time>
</trkpt>
<trkpt lat="45.9147910" lon="10.3217060">
	<ele>1134.20</ele>
	<time>2025-04-29T10:23:22.000Z</time>
</trkpt>
<trkpt lat="45.9147920" lon="10.3217110">
	<ele>1134.00</ele>
	<time>2025-04-29T10:23:23.000Z</time>
</trkpt>
<trkpt lat="45.9147930" lon="10.3217160">
	<ele>1134.00</ele>
	<time>2025-04-29T10:23:24.000Z</time>
</trkpt>
<trkpt lat="45.9147930" lon="10.3217190">
	<ele>1133.80</ele>
	<time>2025-04-29T10:23:25.000Z</time>
</trkpt>
<trkpt lat="45.9147830" lon="10.3217110">
	<ele>1133.80</ele>
	<time>2025-04-29T10:23:26.000Z</time>
</trkpt>
<trkpt lat="45.9147840" lon="10.3217120">
	<ele>1133.80</ele>
	<time>2025-04-29T10:23:27.000Z</time>
</trkpt>
<trkpt lat="45.9147840" lon="10.3216990">
	<ele>1134.00</ele>
	<time>2025-04-29T10:23:28.000Z</time>
</trkpt>
<trkpt lat="45.9147810" lon="10.3216780">
	<ele>1134.00</ele>
	<time>2025-04-29T10:23:29.000Z</time>
</trkpt>
<trkpt lat="45.9147770" lon="10.3216800">
	<ele>1134.00</ele>
	<time>2025-04-29T10:23:30.000Z</time>
</trkpt>
<trkpt lat="45.9147580" lon="10.3216530">
	<ele>1134.00</ele>
	<time>2025-04-29T10:23:31.000Z</time>
</trkpt>
<trkpt lat="45.9147590" lon="10.3216530">
	<ele>1134.00</ele>
	<time>2025-04-29T10:23:32.000Z</time>
</trkpt>
<trkpt lat="45.9147570" lon="10.3216470">
	<ele>1134.00</ele>
	<time>2025-04-29T10:23:33.000Z</time>
</trkpt>
<trkpt lat="45.9147450" lon="10.3216420">
	<ele>1134.00</ele>
	<time>2025-04-29T10:23:34.000Z</time>
</trkpt>
<trkpt lat="45.9147340" lon="10.3216400">
	<ele>1133.80</ele>
	<time>2025-04-29T10:23:35.000Z</time>
</trkpt>
<trkpt lat="45.9147170" lon="10.3216260">
	<ele>1133.40</ele>
	<time>2025-04-29T10:23:36.000Z</time>
</trkpt>
<trkpt lat="45.9147090" lon="10.3216120">
	<ele>1133.40</ele>
	<time>2025-04-29T10:23:37.000Z</time>
</trkpt>
<trkpt lat="45.9147050" lon="10.3216050">
	<ele>1133.40</ele>
	<time>2025-04-29T10:23:38.000Z</time>
</trkpt>
<trkpt lat="45.9146890" lon="10.3215930">
	<ele>1133.40</ele>
	<time>2025-04-29T10:23:39.000Z</time>
</trkpt>
<trkpt lat="45.9146870" lon="10.3215920">
	<ele>1133.40</ele>
	<time>2025-04-29T10:23:40.000Z</time>
</trkpt>
<trkpt lat="45.9146880" lon="10.3215920">
	<ele>1133.60</ele>
	<time>2025-04-29T10:23:41.000Z</time>
</trkpt>
<trkpt lat="45.9146950" lon="10.3216030">
	<ele>1133.60</ele>
	<time>2025-04-29T10:23:42.000Z</time>
</trkpt>
<trkpt lat="45.9146950" lon="10.3216030">
	<ele>1133.60</ele>
	<time>2025-04-29T10:23:43.000Z</time>
</trkpt>
<trkpt lat="45.9146940" lon="10.3216020">
	<ele>1133.60</ele>
	<time>2025-04-29T10:23:44.000Z</time>
</trkpt>
<trkpt lat="45.9146870" lon="10.3215990">
	<ele>1133.60</ele>
	<time>2025-04-29T10:23:45.000Z</time>
</trkpt>
<trkpt lat="45.9146810" lon="10.3215980">
	<ele>1133.60</ele>
	<time>2025-04-29T10:23:46.000Z</time>
</trkpt>
<trkpt lat="45.9146720" lon="10.3216010">
	<ele>1133.20</ele>
	<time>2025-04-29T10:23:47.000Z</time>
</trkpt>
<trkpt lat="45.9146580" lon="10.3215890">
	<ele>1133.00</ele>
	<time>2025-04-29T10:23:48.000Z</time>
</trkpt>
<trkpt lat="45.9146440" lon="10.3215810">
	<ele>1133.00</ele>
	<time>2025-04-29T10:23:49.000Z</time>
</trkpt>
<trkpt lat="45.9146360" lon="10.3215730">
	<ele>1132.80</ele>
	<time>2025-04-29T10:23:50.000Z</time>
</trkpt>
<trkpt lat="45.9146260" lon="10.3215650">
	<ele>1132.80</ele>
	<time>2025-04-29T10:23:51.000Z</time>
</trkpt>
<trkpt lat="45.9146200" lon="10.3215640">
	<ele>1132.80</ele>
	<time>2025-04-29T10:23:52.000Z</time>
</trkpt>
<trkpt lat="45.9146080" lon="10.3215490">
	<ele>1132.60</ele>
	<time>2025-04-29T10:23:53.000Z</time>
</trkpt>
<trkpt lat="45.9145960" lon="10.3215370">
	<ele>1132.60</ele>
	<time>2025-04-29T10:23:54.000Z</time>
</trkpt>
<trkpt lat="45.9145850" lon="10.3215260">
	<ele>1132.60</ele>
	<time>2025-04-29T10:23:55.000Z</time>
</trkpt>
<trkpt lat="45.9145750" lon="10.3215130">
	<ele>1132.40</ele>
	<time>2025-04-29T10:23:56.000Z</time>
</trkpt>
<trkpt lat="45.9145630" lon="10.3214980">
	<ele>1132.40</ele>
	<time>2025-04-29T10:23:57.000Z</time>
</trkpt>
<trkpt lat="45.9145570" lon="10.3214900">
	<ele>1132.20</ele>
	<time>2025-04-29T10:23:58.000Z</time>
</trkpt>
<trkpt lat="45.9145460" lon="10.3214770">
	<ele>1132.00</ele>
	<time>2025-04-29T10:23:59.000Z</time>
</trkpt>
<trkpt lat="45.9145320" lon="10.3214620">
	<ele>1131.80</ele>
	<time>2025-04-29T10:24:00.000Z</time>
</trkpt>
<trkpt lat="45.9145160" lon="10.3214440">
	<ele>1131.60</ele>
	<time>2025-04-29T10:24:01.000Z</time>
</trkpt>
<trkpt lat="45.9144990" lon="10.3214250">
	<ele>1131.40</ele>
	<time>2025-04-29T10:24:02.000Z</time>
</trkpt>
<trkpt lat="45.9144860" lon="10.3214160">
	<ele>1131.20</ele>
	<time>2025-04-29T10:24:03.000Z</time>
</trkpt>
<trkpt lat="45.9144730" lon="10.3214100">
	<ele>1131.00</ele>
	<time>2025-04-29T10:24:04.000Z</time>
</trkpt>
<trkpt lat="45.9144580" lon="10.3214010">
	<ele>1130.80</ele>
	<time>2025-04-29T10:24:05.000Z</time>
</trkpt>
<trkpt lat="45.9144430" lon="10.3213900">
	<ele>1130.80</ele>
	<time>2025-04-29T10:24:06.000Z</time>
</trkpt>
<trkpt lat="45.9144300" lon="10.3213970">
	<ele>1130.40</ele>
	<time>2025-04-29T10:24:07.000Z</time>
</trkpt>
<trkpt lat="45.9144170" lon="10.3214060">
	<ele>1130.20</ele>
	<time>2025-04-29T10:24:08.000Z</time>
</trkpt>
<trkpt lat="45.9143990" lon="10.3214090">
	<ele>1130.20</ele>
	<time>2025-04-29T10:24:09.000Z</time>
</trkpt>
<trkpt lat="45.9143820" lon="10.3213860">
	<ele>1129.80</ele>
	<time>2025-04-29T10:24:10.000Z</time>
</trkpt>
<trkpt lat="45.9143680" lon="10.3213590">
	<ele>1129.60</ele>
	<time>2025-04-29T10:24:11.000Z</time>
</trkpt>
<trkpt lat="45.9143550" lon="10.3213350">
	<ele>1129.40</ele>
	<time>2025-04-29T10:24:12.000Z</time>
</trkpt>
<trkpt lat="45.9143390" lon="10.3213140">
	<ele>1129.20</ele>
	<time>2025-04-29T10:24:13.000Z</time>
</trkpt>
<trkpt lat="45.9143280" lon="10.3213050">
	<ele>1128.80</ele>
	<time>2025-04-29T10:24:14.000Z</time>
</trkpt>
<trkpt lat="45.9143170" lon="10.3212970">
	<ele>1128.40</ele>
	<time>2025-04-29T10:24:15.000Z</time>
</trkpt>
<trkpt lat="45.9142940" lon="10.3212700">
	<ele>1128.40</ele>
	<time>2025-04-29T10:24:16.000Z</time>
</trkpt>
<trkpt lat="45.9142710" lon="10.3212650">
	<ele>1128.20</ele>
	<time>2025-04-29T10:24:17.000Z</time>
</trkpt>
<trkpt lat="45.9142690" lon="10.3212820">
	<ele>1128.00</ele>
	<time>2025-04-29T10:24:18.000Z</time>
</trkpt>
<trkpt lat="45.9142670" lon="10.3212980">
	<ele>1128.00</ele>
	<time>2025-04-29T10:24:19.000Z</time>
</trkpt>
<trkpt lat="45.9142520" lon="10.3212890">
	<ele>1127.60</ele>
	<time>2025-04-29T10:24:20.000Z</time>
</trkpt>
<trkpt lat="45.9142350" lon="10.3212830">
	<ele>1127.40</ele>
	<time>2025-04-29T10:24:21.000Z</time>
</trkpt>
<trkpt lat="45.9142140" lon="10.3212680">
	<ele>1127.20</ele>
	<time>2025-04-29T10:24:22.000Z</time>
</trkpt>
<trkpt lat="45.9141970" lon="10.3212680">
	<ele>1127.00</ele>
	<time>2025-04-29T10:24:23.000Z</time>
</trkpt>
<trkpt lat="45.9141880" lon="10.3212780">
	<ele>1127.00</ele>
	<time>2025-04-29T10:24:24.000Z</time>
</trkpt>
<trkpt lat="45.9141780" lon="10.3212890">
	<ele>1126.80</ele>
	<time>2025-04-29T10:24:25.000Z</time>
</trkpt>
<trkpt lat="45.9141700" lon="10.3212920">
	<ele>1126.40</ele>
	<time>2025-04-29T10:24:26.000Z</time>
</trkpt>
<trkpt lat="45.9141630" lon="10.3212860">
	<ele>1126.20</ele>
	<time>2025-04-29T10:24:27.000Z</time>
</trkpt>
<trkpt lat="45.9141490" lon="10.3212790">
	<ele>1126.00</ele>
	<time>2025-04-29T10:24:28.000Z</time>
</trkpt>
<trkpt lat="45.9141320" lon="10.3212720">
	<ele>1125.60</ele>
	<time>2025-04-29T10:24:29.000Z</time>
</trkpt>
<trkpt lat="45.9141260" lon="10.3212700">
	<ele>1125.40</ele>
	<time>2025-04-29T10:24:30.000Z</time>
</trkpt>
<trkpt lat="45.9141130" lon="10.3212640">
	<ele>1125.00</ele>
	<time>2025-04-29T10:24:31.000Z</time>
</trkpt>
<trkpt lat="45.9140960" lon="10.3212470">
	<ele>1124.60</ele>
	<time>2025-04-29T10:24:32.000Z</time>
</trkpt>
<trkpt lat="45.9140740" lon="10.3212310">
	<ele>1124.40</ele>
	<time>2025-04-29T10:24:33.000Z</time>
</trkpt>
<trkpt lat="45.9140530" lon="10.3212170">
	<ele>1124.00</ele>
	<time>2025-04-29T10:24:34.000Z</time>
</trkpt>
<trkpt lat="45.9140500" lon="10.3212130">
	<ele>1123.80</ele>
	<time>2025-04-29T10:24:35.000Z</time>
</trkpt>
<trkpt lat="45.9140410" lon="10.3212080">
	<ele>1123.40</ele>
	<time>2025-04-29T10:24:36.000Z</time>
</trkpt>
<trkpt lat="45.9140240" lon="10.3211840">
	<ele>1123.20</ele>
	<time>2025-04-29T10:24:37.000Z</time>
</trkpt>
<trkpt lat="45.9140180" lon="10.3211850">
	<ele>1122.80</ele>
	<time>2025-04-29T10:24:38.000Z</time>
</trkpt>
<trkpt lat="45.9140000" lon="10.3211700">
	<ele>1122.40</ele>
	<time>2025-04-29T10:24:39.000Z</time>
</trkpt>
<trkpt lat="45.9139790" lon="10.3211490">
	<ele>1122.20</ele>
	<time>2025-04-29T10:24:40.000Z</time>
</trkpt>
<trkpt lat="45.9139580" lon="10.3211370">
	<ele>1122.00</ele>
	<time>2025-04-29T10:24:41.000Z</time>
</trkpt>
<trkpt lat="45.9139400" lon="10.3211260">
	<ele>1121.80</ele>
	<time>2025-04-29T10:24:42.000Z</time>
</trkpt>
<trkpt lat="45.9139270" lon="10.3211190">
	<ele>1121.60</ele>
	<time>2025-04-29T10:24:43.000Z</time>
</trkpt>
<trkpt lat="45.9139220" lon="10.3211250">
	<ele>1121.40</ele>
	<time>2025-04-29T10:24:44.000Z</time>
</trkpt>
<trkpt lat="45.9139070" lon="10.3211190">
	<ele>1121.00</ele>
	<time>2025-04-29T10:24:45.000Z</time>
</trkpt>
<trkpt lat="45.9138910" lon="10.3211080">
	<ele>1120.80</ele>
	<time>2025-04-29T10:24:46.000Z</time>
</trkpt>
<trkpt lat="45.9138770" lon="10.3210960">
	<ele>1120.60</ele>
	<time>2025-04-29T10:24:47.000Z</time>
</trkpt>
<trkpt lat="45.9138560" lon="10.3210780">
	<ele>1120.40</ele>
	<time>2025-04-29T10:24:48.000Z</time>
</trkpt>
<trkpt lat="45.9138440" lon="10.3210710">
	<ele>1120.00</ele>
	<time>2025-04-29T10:24:49.000Z</time>
</trkpt>
<trkpt lat="45.9138340" lon="10.3210700">
	<ele>1119.60</ele>
	<time>2025-04-29T10:24:50.000Z</time>
</trkpt>
<trkpt lat="45.9138250" lon="10.3210750">
	<ele>1119.40</ele>
	<time>2025-04-29T10:24:51.000Z</time>
</trkpt>
<trkpt lat="45.9138160" lon="10.3210780">
	<ele>1119.20</ele>
	<time>2025-04-29T10:24:52.000Z</time>
</trkpt>
<trkpt lat="45.9138090" lon="10.3210840">
	<ele>1119.00</ele>
	<time>2025-04-29T10:24:53.000Z</time>
</trkpt>
<trkpt lat="45.9137990" lon="10.3210850">
	<ele>1118.80</ele>
	<time>2025-04-29T10:24:54.000Z</time>
</trkpt>
<trkpt lat="45.9137880" lon="10.3210760">
	<ele>1118.60</ele>
	<time>2025-04-29T10:24:55.000Z</time>
</trkpt>
<trkpt lat="45.9137780" lon="10.3210660">
	<ele>1118.40</ele>
	<time>2025-04-29T10:24:56.000Z</time>
</trkpt>
<trkpt lat="45.9137720" lon="10.3210590">
	<ele>1118.00</ele>
	<time>2025-04-29T10:24:57.000Z</time>
</trkpt>
<trkpt lat="45.9137630" lon="10.3210480">
	<ele>1117.80</ele>
	<time>2025-04-29T10:24:58.000Z</time>
</trkpt>
<trkpt lat="45.9137550" lon="10.3210280">
	<ele>1117.40</ele>
	<time>2025-04-29T10:24:59.000Z</time>
</trkpt>
<trkpt lat="45.9137490" lon="10.3210150">
	<ele>1117.00</ele>
	<time>2025-04-29T10:25:00.000Z</time>
</trkpt>
<trkpt lat="45.9137440" lon="10.3210000">
	<ele>1116.80</ele>
	<time>2025-04-29T10:25:01.000Z</time>
</trkpt>
<trkpt lat="45.9137400" lon="10.3209950">
	<ele>1116.60</ele>
	<time>2025-04-29T10:25:02.000Z</time>
</trkpt>
<trkpt lat="45.9137380" lon="10.3210010">
	<ele>1116.40</ele>
	<time>2025-04-29T10:25:03.000Z</time>
</trkpt>
<trkpt lat="45.9137110" lon="10.3209870">
	<ele>1116.20</ele>
	<time>2025-04-29T10:25:04.000Z</time>
</trkpt>
<trkpt lat="45.9136970" lon="10.3209830">
	<ele>1116.00</ele>
	<time>2025-04-29T10:25:05.000Z</time>
</trkpt>
<trkpt lat="45.9136630" lon="10.3209400">
	<ele>1116.00</ele>
	<time>2025-04-29T10:25:06.000Z</time>
</trkpt>
<trkpt lat="45.9136760" lon="10.3209240">
	<ele>1116.00</ele>
	<time>2025-04-29T10:25:07.000Z</time>
</trkpt>
<trkpt lat="45.9136770" lon="10.3209100">
	<ele>1116.00</ele>
	<time>2025-04-29T10:25:08.000Z</time>
</trkpt>
<trkpt lat="45.9136750" lon="10.3208990">
	<ele>1116.00</ele>
	<time>2025-04-29T10:25:09.000Z</time>
</trkpt>
<trkpt lat="45.9136790" lon="10.3209480">
	<ele>1116.00</ele>
	<time>2025-04-29T10:25:10.000Z</time>
</trkpt>
<trkpt lat="45.9136800" lon="10.3209590">
	<ele>1116.00</ele>
	<time>2025-04-29T10:25:11.000Z</time>
</trkpt>
<trkpt lat="45.9136840" lon="10.3209710">
	<ele>1116.00</ele>
	<time>2025-04-29T10:25:12.000Z</time>
</trkpt>
<trkpt lat="45.9136830" lon="10.3209860">
	<ele>1115.80</ele>
	<time>2025-04-29T10:25:13.000Z</time>
</trkpt>
<trkpt lat="45.9136770" lon="10.3209730">
	<ele>1115.80</ele>
	<time>2025-04-29T10:25:14.000Z</time>
</trkpt>
<trkpt lat="45.9136790" lon="10.3209740">
	<ele>1115.80</ele>
	<time>2025-04-29T10:25:15.000Z</time>
</trkpt>
<trkpt lat="45.9136810" lon="10.3209650">
	<ele>1115.80</ele>
	<time>2025-04-29T10:25:16.000Z</time>
</trkpt>
<trkpt lat="45.9136840" lon="10.3209510">
	<ele>1115.60</ele>
	<time>2025-04-29T10:25:17.000Z</time>
</trkpt>
<trkpt lat="45.9136840" lon="10.3209430">
	<ele>1115.60</ele>
	<time>2025-04-29T10:25:18.000Z</time>
</trkpt>
<trkpt lat="45.9136740" lon="10.3209260">
	<ele>1115.40</ele>
	<time>2025-04-29T10:25:19.000Z</time>
</trkpt>
<trkpt lat="45.9136660" lon="10.3209050">
	<ele>1115.40</ele>
	<time>2025-04-29T10:25:20.000Z</time>
</trkpt>
<trkpt lat="45.9136600" lon="10.3208930">
	<ele>1115.40</ele>
	<time>2025-04-29T10:25:21.000Z</time>
</trkpt>
<trkpt lat="45.9136560" lon="10.3208900">
	<ele>1115.40</ele>
	<time>2025-04-29T10:25:22.000Z</time>
</trkpt>
<trkpt lat="45.9136480" lon="10.3208750">
	<ele>1115.40</ele>
	<time>2025-04-29T10:25:23.000Z</time>
</trkpt>
<trkpt lat="45.9136430" lon="10.3208680">
	<ele>1115.00</ele>
	<time>2025-04-29T10:25:24.000Z</time>
</trkpt>
<trkpt lat="45.9136460" lon="10.3208730">
	<ele>1115.00</ele>
	<time>2025-04-29T10:25:25.000Z</time>
</trkpt>
<trkpt lat="45.9136410" lon="10.3208640">
	<ele>1114.80</ele>
	<time>2025-04-29T10:25:26.000Z</time>
</trkpt>
<trkpt lat="45.9136340" lon="10.3208530">
	<ele>1114.60</ele>
	<time>2025-04-29T10:25:27.000Z</time>
</trkpt>
<trkpt lat="45.9136290" lon="10.3208430">
	<ele>1114.40</ele>
	<time>2025-04-29T10:25:28.000Z</time>
</trkpt>
<trkpt lat="45.9136280" lon="10.3208340">
	<ele>1114.20</ele>
	<time>2025-04-29T10:25:29.000Z</time>
</trkpt>
<trkpt lat="45.9136260" lon="10.3208250">
	<ele>1113.80</ele>
	<time>2025-04-29T10:25:30.000Z</time>
</trkpt>
<trkpt lat="45.9136270" lon="10.3208120">
	<ele>1113.60</ele>
	<time>2025-04-29T10:25:31.000Z</time>
</trkpt>
<trkpt lat="45.9136230" lon="10.3208030">
	<ele>1113.20</ele>
	<time>2025-04-29T10:25:32.000Z</time>
</trkpt>
<trkpt lat="45.9136230" lon="10.3208060">
	<ele>1112.80</ele>
	<time>2025-04-29T10:25:33.000Z</time>
</trkpt>
<trkpt lat="45.9136290" lon="10.3208130">
	<ele>1112.60</ele>
	<time>2025-04-29T10:25:34.000Z</time>
</trkpt>
<trkpt lat="45.9136340" lon="10.3208170">
	<ele>1112.60</ele>
	<time>2025-04-29T10:25:35.000Z</time>
</trkpt>
<trkpt lat="45.9136330" lon="10.3208200">
	<ele>1112.40</ele>
	<time>2025-04-29T10:25:36.000Z</time>
</trkpt>
<trkpt lat="45.9136360" lon="10.3208220">
	<ele>1112.40</ele>
	<time>2025-04-29T10:25:37.000Z</time>
</trkpt>
<trkpt lat="45.9136390" lon="10.3208090">
	<ele>1112.40</ele>
	<time>2025-04-29T10:25:38.000Z</time>
</trkpt>
<trkpt lat="45.9136400" lon="10.3208070">
	<ele>1112.40</ele>
	<time>2025-04-29T10:25:39.000Z</time>
</trkpt>
<trkpt lat="45.9136560" lon="10.3208260">
	<ele>1112.40</ele>
	<time>2025-04-29T10:25:40.000Z</time>
</trkpt>
<trkpt lat="45.9136760" lon="10.3208480">
	<ele>1112.40</ele>
	<time>2025-04-29T10:25:41.000Z</time>
</trkpt>
<trkpt lat="45.9136830" lon="10.3208600">
	<ele>1112.40</ele>
	<time>2025-04-29T10:25:42.000Z</time>
</trkpt>
<trkpt lat="45.9136690" lon="10.3208860">
	<ele>1112.40</ele>
	<time>2025-04-29T10:25:43.000Z</time>
</trkpt>
<trkpt lat="45.9136750" lon="10.3208970">
	<ele>1112.40</ele>
	<time>2025-04-29T10:25:44.000Z</time>
</trkpt>
<trkpt lat="45.9136740" lon="10.3209020">
	<ele>1112.40</ele>
	<time>2025-04-29T10:25:45.000Z</time>
</trkpt>
<trkpt lat="45.9136820" lon="10.3209220">
	<ele>1112.40</ele>
	<time>2025-04-29T10:25:46.000Z</time>
</trkpt>
<trkpt lat="45.9136840" lon="10.3209310">
	<ele>1112.40</ele>
	<time>2025-04-29T10:25:47.000Z</time>
</trkpt>
<trkpt lat="45.9136840" lon="10.3209310">
	<ele>1112.40</ele>
	<time>2025-04-29T10:25:48.000Z</time>
</trkpt>
<trkpt lat="45.9136860" lon="10.3209210">
	<ele>1112.40</ele>
	<time>2025-04-29T10:25:49.000Z</time>
</trkpt>
<trkpt lat="45.9136870" lon="10.3209180">
	<ele>1112.20</ele>
	<time>2025-04-29T10:25:50.000Z</time>
</trkpt>
<trkpt lat="45.9136890" lon="10.3209110">
	<ele>1112.20</ele>
	<time>2025-04-29T10:25:51.000Z</time>
</trkpt>
<trkpt lat="45.9136910" lon="10.3209060">
	<ele>1112.00</ele>
	<time>2025-04-29T10:25:52.000Z</time>
</trkpt>
<trkpt lat="45.9137010" lon="10.3209090">
	<ele>1112.00</ele>
	<time>2025-04-29T10:25:53.000Z</time>
</trkpt>
<trkpt lat="45.9137070" lon="10.3209100">
	<ele>1111.80</ele>
	<time>2025-04-29T10:25:54.000Z</time>
</trkpt>
<trkpt lat="45.9137070" lon="10.3209070">
	<ele>1111.80</ele>
	<time>2025-04-29T10:25:55.000Z</time>
</trkpt>
<trkpt lat="45.9137250" lon="10.3209220">
	<ele>1111.40</ele>
	<time>2025-04-29T10:25:56.000Z</time>
</trkpt>
<trkpt lat="45.9137430" lon="10.3209300">
	<ele>1111.20</ele>
	<time>2025-04-29T10:25:57.000Z</time>
</trkpt>
<trkpt lat="45.9137550" lon="10.3209300">
	<ele>1110.80</ele>
	<time>2025-04-29T10:25:58.000Z</time>
</trkpt>
<trkpt lat="45.9137540" lon="10.3209250">
	<ele>1110.60</ele>
	<time>2025-04-29T10:25:59.000Z</time>
</trkpt>
<trkpt lat="45.9137580" lon="10.3209160">
	<ele>1110.20</ele>
	<time>2025-04-29T10:26:00.000Z</time>
</trkpt>
<trkpt lat="45.9137520" lon="10.3209020">
	<ele>1110.00</ele>
	<time>2025-04-29T10:26:01.000Z</time>
</trkpt>
<trkpt lat="45.9137490" lon="10.3208900">
	<ele>1109.60</ele>
	<time>2025-04-29T10:26:02.000Z</time>
</trkpt>
<trkpt lat="45.9137480" lon="10.3208790">
	<ele>1109.20</ele>
	<time>2025-04-29T10:26:03.000Z</time>
</trkpt>
<trkpt lat="45.9137550" lon="10.3208770">
	<ele>1108.80</ele>
	<time>2025-04-29T10:26:04.000Z</time>
</trkpt>
<trkpt lat="45.9137610" lon="10.3208690">
	<ele>1108.40</ele>
	<time>2025-04-29T10:26:05.000Z</time>
</trkpt>
<trkpt lat="45.9137650" lon="10.3208520">
	<ele>1108.20</ele>
	<time>2025-04-29T10:26:06.000Z</time>
</trkpt>
<trkpt lat="45.9137540" lon="10.3208310">
	<ele>1107.80</ele>
	<time>2025-04-29T10:26:07.000Z</time>
</trkpt>
<trkpt lat="45.9137480" lon="10.3208110">
	<ele>1107.40</ele>
	<time>2025-04-29T10:26:08.000Z</time>
</trkpt>
<trkpt lat="45.9137430" lon="10.3207930">
	<ele>1107.20</ele>
	<time>2025-04-29T10:26:09.000Z</time>
</trkpt>
<trkpt lat="45.9137370" lon="10.3207750">
	<ele>1106.80</ele>
	<time>2025-04-29T10:26:10.000Z</time>
</trkpt>
<trkpt lat="45.9137400" lon="10.3207710">
	<ele>1106.40</ele>
	<time>2025-04-29T10:26:11.000Z</time>
</trkpt>
<trkpt lat="45.9137460" lon="10.3207650">
	<ele>1106.00</ele>
	<time>2025-04-29T10:26:12.000Z</time>
</trkpt>
<trkpt lat="45.9137460" lon="10.3207520">
	<ele>1105.80</ele>
	<time>2025-04-29T10:26:13.000Z</time>
</trkpt>
<trkpt lat="45.9137470" lon="10.3207330">
	<ele>1105.40</ele>
	<time>2025-04-29T10:26:14.000Z</time>
</trkpt>
<trkpt lat="45.9137530" lon="10.3207150">
	<ele>1105.00</ele>
	<time>2025-04-29T10:26:15.000Z</time>
</trkpt>
<trkpt lat="45.9137630" lon="10.3206990">
	<ele>1104.60</ele>
	<time>2025-04-29T10:26:16.000Z</time>
</trkpt>
<trkpt lat="45.9137710" lon="10.3206900">
	<ele>1104.20</ele>
	<time>2025-04-29T10:26:17.000Z</time>
</trkpt>
<trkpt lat="45.9137850" lon="10.3206800">
	<ele>1104.00</ele>
	<time>2025-04-29T10:26:18.000Z</time>
</trkpt>
<trkpt lat="45.9137950" lon="10.3206720">
	<ele>1103.60</ele>
	<time>2025-04-29T10:26:19.000Z</time>
</trkpt>
<trkpt lat="45.9138020" lon="10.3206530">
	<ele>1103.40</ele>
	<time>2025-04-29T10:26:20.000Z</time>
</trkpt>
<trkpt lat="45.9138020" lon="10.3206280">
	<ele>1102.80</ele>
	<time>2025-04-29T10:26:21.000Z</time>
</trkpt>
<trkpt lat="45.9138110" lon="10.3206180">
	<ele>1102.60</ele>
	<time>2025-04-29T10:26:22.000Z</time>
</trkpt>
<trkpt lat="45.9138320" lon="10.3206240">
	<ele>1102.20</ele>
	<time>2025-04-29T10:26:23.000Z</time>
</trkpt>
<trkpt lat="45.9138530" lon="10.3206280">
	<ele>1102.00</ele>
	<time>2025-04-29T10:26:24.000Z</time>
</trkpt>
<trkpt lat="45.9138720" lon="10.3206330">
	<ele>1101.60</ele>
	<time>2025-04-29T10:26:25.000Z</time>
</trkpt>
<trkpt lat="45.9138910" lon="10.3206330">
	<ele>1101.60</ele>
	<time>2025-04-29T10:26:26.000Z</time>
</trkpt>
<trkpt lat="45.9139060" lon="10.3206320">
	<ele>1101.00</ele>
	<time>2025-04-29T10:26:27.000Z</time>
</trkpt>
<trkpt lat="45.9139220" lon="10.3206300">
	<ele>1100.60</ele>
	<time>2025-04-29T10:26:28.000Z</time>
</trkpt>
<trkpt lat="45.9139250" lon="10.3206100">
	<ele>1100.40</ele>
	<time>2025-04-29T10:26:29.000Z</time>
</trkpt>
<trkpt lat="45.9139300" lon="10.3205940">
	<ele>1100.00</ele>
	<time>2025-04-29T10:26:30.000Z</time>
</trkpt>
<trkpt lat="45.9139330" lon="10.3205770">
	<ele>1099.80</ele>
	<time>2025-04-29T10:26:31.000Z</time>
</trkpt>
<trkpt lat="45.9139370" lon="10.3205610">
	<ele>1099.60</ele>
	<time>2025-04-29T10:26:32.000Z</time>
</trkpt>
<trkpt lat="45.9139290" lon="10.3205320">
	<ele>1099.20</ele>
	<time>2025-04-29T10:26:33.000Z</time>
</trkpt>
<trkpt lat="45.9139210" lon="10.3205090">
	<ele>1098.80</ele>
	<time>2025-04-29T10:26:34.000Z</time>
</trkpt>
<trkpt lat="45.9139230" lon="10.3204810">
	<ele>1098.40</ele>
	<time>2025-04-29T10:26:35.000Z</time>
</trkpt>
<trkpt lat="45.9139230" lon="10.3204610">
	<ele>1098.00</ele>
	<time>2025-04-29T10:26:36.000Z</time>
</trkpt>
<trkpt lat="45.9139240" lon="10.3204520">
	<ele>1097.80</ele>
	<time>2025-04-29T10:26:37.000Z</time>
</trkpt>
<trkpt lat="45.9139220" lon="10.3204380">
	<ele>1097.60</ele>
	<time>2025-04-29T10:26:38.000Z</time>
</trkpt>
<trkpt lat="45.9139160" lon="10.3204140">
	<ele>1097.20</ele>
	<time>2025-04-29T10:26:39.000Z</time>
</trkpt>
<trkpt lat="45.9139090" lon="10.3203890">
	<ele>1097.00</ele>
	<time>2025-04-29T10:26:40.000Z</time>
</trkpt>
<trkpt lat="45.9139080" lon="10.3203690">
	<ele>1096.60</ele>
	<time>2025-04-29T10:26:41.000Z</time>
</trkpt>
<trkpt lat="45.9139120" lon="10.3203610">
	<ele>1096.40</ele>
	<time>2025-04-29T10:26:42.000Z</time>
</trkpt>
<trkpt lat="45.9139150" lon="10.3203560">
	<ele>1096.00</ele>
	<time>2025-04-29T10:26:43.000Z</time>
</trkpt>
<trkpt lat="45.9139130" lon="10.3203480">
	<ele>1095.80</ele>
	<time>2025-04-29T10:26:44.000Z</time>
</trkpt>
<trkpt lat="45.9139200" lon="10.3203450">
	<ele>1095.40</ele>
	<time>2025-04-29T10:26:45.000Z</time>
</trkpt>
<trkpt lat="45.9139430" lon="10.3203560">
	<ele>1095.20</ele>
	<time>2025-04-29T10:26:46.000Z</time>
</trkpt>
<trkpt lat="45.9139630" lon="10.3203600">
	<ele>1094.80</ele>
	<time>2025-04-29T10:26:47.000Z</time>
</trkpt>
<trkpt lat="45.9139880" lon="10.3203590">
	<ele>1094.60</ele>
	<time>2025-04-29T10:26:48.000Z</time>
</trkpt>
<trkpt lat="45.9140080" lon="10.3203610">
	<ele>1094.20</ele>
	<time>2025-04-29T10:26:49.000Z</time>
</trkpt>
<trkpt lat="45.9140130" lon="10.3203590">
	<ele>1094.00</ele>
	<time>2025-04-29T10:26:50.000Z</time>
</trkpt>
<trkpt lat="45.9140210" lon="10.3203420">
	<ele>1093.60</ele>
	<time>2025-04-29T10:26:51.000Z</time>
</trkpt>
<trkpt lat="45.9140320" lon="10.3203250">
	<ele>1093.20</ele>
	<time>2025-04-29T10:26:52.000Z</time>
</trkpt>
<trkpt lat="45.9140360" lon="10.3203160">
	<ele>1093.00</ele>
	<time>2025-04-29T10:26:53.000Z</time>
</trkpt>
<trkpt lat="45.9140420" lon="10.3203060">
	<ele>1092.80</ele>
	<time>2025-04-29T10:26:54.000Z</time>
</trkpt>
<trkpt lat="45.9140490" lon="10.3202960">
	<ele>1092.60</ele>
	<time>2025-04-29T10:26:55.000Z</time>
</trkpt>
<trkpt lat="45.9140550" lon="10.3202900">
	<ele>1092.40</ele>
	<time>2025-04-29T10:26:56.000Z</time>
</trkpt>
<trkpt lat="45.9140470" lon="10.3202730">
	<ele>1092.20</ele>
	<time>2025-04-29T10:26:57.000Z</time>
</trkpt>
<trkpt lat="45.9140490" lon="10.3202660">
	<ele>1091.80</ele>
	<time>2025-04-29T10:26:58.000Z</time>
</trkpt>
<trkpt lat="45.9140620" lon="10.3202540">
	<ele>1091.60</ele>
	<time>2025-04-29T10:26:59.000Z</time>
</trkpt>
<trkpt lat="45.9140670" lon="10.3202230">
	<ele>1091.40</ele>
	<time>2025-04-29T10:27:00.000Z</time>
</trkpt>
<trkpt lat="45.9140770" lon="10.3202100">
	<ele>1091.00</ele>
	<time>2025-04-29T10:27:01.000Z</time>
</trkpt>
<trkpt lat="45.9140860" lon="10.3201940">
	<ele>1090.80</ele>
	<time>2025-04-29T10:27:02.000Z</time>
</trkpt>
<trkpt lat="45.9140960" lon="10.3201810">
	<ele>1090.40</ele>
	<time>2025-04-29T10:27:03.000Z</time>
</trkpt>
<trkpt lat="45.9140880" lon="10.3201560">
	<ele>1090.00</ele>
	<time>2025-04-29T10:27:04.000Z</time>
</trkpt>
<trkpt lat="45.9140890" lon="10.3201470">
	<ele>1089.80</ele>
	<time>2025-04-29T10:27:05.000Z</time>
</trkpt>
<trkpt lat="45.9140900" lon="10.3201460">
	<ele>1089.60</ele>
	<time>2025-04-29T10:27:06.000Z</time>
</trkpt>
<trkpt lat="45.9140870" lon="10.3201460">
	<ele>1089.40</ele>
	<time>2025-04-29T10:27:07.000Z</time>
</trkpt>
<trkpt lat="45.9140870" lon="10.3201470">
	<ele>1089.20</ele>
	<time>2025-04-29T10:27:08.000Z</time>
</trkpt>
<trkpt lat="45.9141080" lon="10.3201520">
	<ele>1089.20</ele>
	<time>2025-04-29T10:27:09.000Z</time>
</trkpt>
<trkpt lat="45.9141110" lon="10.3201500">
	<ele>1089.00</ele>
	<time>2025-04-29T10:27:10.000Z</time>
</trkpt>
<trkpt lat="45.9141430" lon="10.3201520">
	<ele>1089.00</ele>
	<time>2025-04-29T10:27:11.000Z</time>
</trkpt>
<trkpt lat="45.9141870" lon="10.3201600">
	<ele>1089.00</ele>
	<time>2025-04-29T10:27:12.000Z</time>
</trkpt>
<trkpt lat="45.9142140" lon="10.3201600">
	<ele>1088.80</ele>
	<time>2025-04-29T10:27:13.000Z</time>
</trkpt>
<trkpt lat="45.9142370" lon="10.3201600">
	<ele>1088.60</ele>
	<time>2025-04-29T10:27:14.000Z</time>
</trkpt>
<trkpt lat="45.9142580" lon="10.3201540">
	<ele>1088.40</ele>
	<time>2025-04-29T10:27:15.000Z</time>
</trkpt>
<trkpt lat="45.9142880" lon="10.3201560">
	<ele>1088.40</ele>
	<time>2025-04-29T10:27:16.000Z</time>
</trkpt>
<trkpt lat="45.9143100" lon="10.3201470">
	<ele>1088.20</ele>
	<time>2025-04-29T10:27:17.000Z</time>
</trkpt>
<trkpt lat="45.9143330" lon="10.3201420">
	<ele>1088.00</ele>
	<time>2025-04-29T10:27:18.000Z</time>
</trkpt>
<trkpt lat="45.9143420" lon="10.3201330">
	<ele>1087.80</ele>
	<time>2025-04-29T10:27:19.000Z</time>
</trkpt>
<trkpt lat="45.9143500" lon="10.3201280">
	<ele>1087.80</ele>
	<time>2025-04-29T10:27:20.000Z</time>
</trkpt>
<trkpt lat="45.9143610" lon="10.3201050">
	<ele>1087.60</ele>
	<time>2025-04-29T10:27:21.000Z</time>
</trkpt>
<trkpt lat="45.9143610" lon="10.3200900">
	<ele>1087.60</ele>
	<time>2025-04-29T10:27:22.000Z</time>
</trkpt>
<trkpt lat="45.9143690" lon="10.3200800">
	<ele>1087.40</ele>
	<time>2025-04-29T10:27:23.000Z</time>
</trkpt>
<trkpt lat="45.9143750" lon="10.3200660">
	<ele>1087.00</ele>
	<time>2025-04-29T10:27:24.000Z</time>
</trkpt>
<trkpt lat="45.9143940" lon="10.3200660">
	<ele>1086.60</ele>
	<time>2025-04-29T10:27:25.000Z</time>
</trkpt>
<trkpt lat="45.9144140" lon="10.3200630">
	<ele>1086.20</ele>
	<time>2025-04-29T10:27:26.000Z</time>
</trkpt>
<trkpt lat="45.9144250" lon="10.3200520">
	<ele>1085.80</ele>
	<time>2025-04-29T10:27:27.000Z</time>
</trkpt>
<trkpt lat="45.9144270" lon="10.3200460">
	<ele>1085.40</ele>
	<time>2025-04-29T10:27:28.000Z</time>
</trkpt>
<trkpt lat="45.9144250" lon="10.3200310">
	<ele>1085.00</ele>
	<time>2025-04-29T10:27:29.000Z</time>
</trkpt>
<trkpt lat="45.9144210" lon="10.3200110">
	<ele>1084.80</ele>
	<time>2025-04-29T10:27:30.000Z</time>
</trkpt>
<trkpt lat="45.9144290" lon="10.3199930">
	<ele>1084.40</ele>
	<time>2025-04-29T10:27:31.000Z</time>
</trkpt>
<trkpt lat="45.9144430" lon="10.3199840">
	<ele>1084.20</ele>
	<time>2025-04-29T10:27:32.000Z</time>
</trkpt>
<trkpt lat="45.9144560" lon="10.3199830">
	<ele>1084.00</ele>
	<time>2025-04-29T10:27:33.000Z</time>
</trkpt>
<trkpt lat="45.9144740" lon="10.3199950">
	<ele>1083.80</ele>
	<time>2025-04-29T10:27:34.000Z</time>
</trkpt>
<trkpt lat="45.9144860" lon="10.3199900">
	<ele>1083.80</ele>
	<time>2025-04-29T10:27:35.000Z</time>
</trkpt>
<trkpt lat="45.9145010" lon="10.3199800">
	<ele>1083.60</ele>
	<time>2025-04-29T10:27:36.000Z</time>
</trkpt>
<trkpt lat="45.9145210" lon="10.3199770">
	<ele>1083.40</ele>
	<time>2025-04-29T10:27:37.000Z</time>
</trkpt>
<trkpt lat="45.9145420" lon="10.3199740">
	<ele>1083.20</ele>
	<time>2025-04-29T10:27:38.000Z</time>
</trkpt>
<trkpt lat="45.9145630" lon="10.3199780">
	<ele>1083.00</ele>
	<time>2025-04-29T10:27:39.000Z</time>
</trkpt>
<trkpt lat="45.9145750" lon="10.3199700">
	<ele>1082.80</ele>
	<time>2025-04-29T10:27:40.000Z</time>
</trkpt>
<trkpt lat="45.9145800" lon="10.3199540">
	<ele>1082.60</ele>
	<time>2025-04-29T10:27:41.000Z</time>
</trkpt>
<trkpt lat="45.9145870" lon="10.3199310">
	<ele>1082.20</ele>
	<time>2025-04-29T10:27:42.000Z</time>
</trkpt>
<trkpt lat="45.9146060" lon="10.3199290">
	<ele>1081.60</ele>
	<time>2025-04-29T10:27:43.000Z</time>
</trkpt>
<trkpt lat="45.9146340" lon="10.3199320">
	<ele>1081.40</ele>
	<time>2025-04-29T10:27:44.000Z</time>
</trkpt>
<trkpt lat="45.9146450" lon="10.3199160">
	<ele>1081.00</ele>
	<time>2025-04-29T10:27:45.000Z</time>
</trkpt>
<trkpt lat="45.9146460" lon="10.3199030">
	<ele>1081.00</ele>
	<time>2025-04-29T10:27:46.000Z</time>
</trkpt>
<trkpt lat="45.9146350" lon="10.3198850">
	<ele>1080.80</ele>
	<time>2025-04-29T10:27:47.000Z</time>
</trkpt>
<trkpt lat="45.9146250" lon="10.3198750">
	<ele>1080.80</ele>
	<time>2025-04-29T10:27:48.000Z</time>
</trkpt>
<trkpt lat="45.9146220" lon="10.3198600">
	<ele>1080.60</ele>
	<time>2025-04-29T10:27:49.000Z</time>
</trkpt>
<trkpt lat="45.9146260" lon="10.3198580">
	<ele>1080.40</ele>
	<time>2025-04-29T10:27:50.000Z</time>
</trkpt>
<trkpt lat="45.9146410" lon="10.3198680">
	<ele>1080.00</ele>
	<time>2025-04-29T10:27:51.000Z</time>
</trkpt>
<trkpt lat="45.9146500" lon="10.3198680">
	<ele>1079.80</ele>
	<time>2025-04-29T10:27:52.000Z</time>
</trkpt>
<trkpt lat="45.9146700" lon="10.3198700">
	<ele>1079.80</ele>
	<time>2025-04-29T10:27:53.000Z</time>
</trkpt>
<trkpt lat="45.9146930" lon="10.3198840">
	<ele>1079.40</ele>
	<time>2025-04-29T10:27:54.000Z</time>
</trkpt>
<trkpt lat="45.9147150" lon="10.3199050">
	<ele>1079.20</ele>
	<time>2025-04-29T10:27:55.000Z</time>
</trkpt>
<trkpt lat="45.9147120" lon="10.3198970">
	<ele>1079.20</ele>
	<time>2025-04-29T10:27:56.000Z</time>
</trkpt>
<trkpt lat="45.9147110" lon="10.3198840">
	<ele>1079.00</ele>
	<time>2025-04-29T10:27:57.000Z</time>
</trkpt>
<trkpt lat="45.9147160" lon="10.3198690">
	<ele>1079.00</ele>
	<time>2025-04-29T10:27:58.000Z</time>
</trkpt>
<trkpt lat="45.9147210" lon="10.3198520">
	<ele>1078.80</ele>
	<time>2025-04-29T10:27:59.000Z</time>
</trkpt>
<trkpt lat="45.9147250" lon="10.3198340">
	<ele>1078.80</ele>
	<time>2025-04-29T10:28:00.000Z</time>
</trkpt>
<trkpt lat="45.9147150" lon="10.3198110">
	<ele>1078.60</ele>
	<time>2025-04-29T10:28:01.000Z</time>
</trkpt>
<trkpt lat="45.9147090" lon="10.3197820">
	<ele>1078.40</ele>
	<time>2025-04-29T10:28:02.000Z</time>
</trkpt>
<trkpt lat="45.9147190" lon="10.3197570">
	<ele>1078.00</ele>
	<time>2025-04-29T10:28:03.000Z</time>
</trkpt>
<trkpt lat="45.9147220" lon="10.3197260">
	<ele>1078.00</ele>
	<time>2025-04-29T10:28:04.000Z</time>
</trkpt>
<trkpt lat="45.9147280" lon="10.3197090">
	<ele>1077.80</ele>
	<time>2025-04-29T10:28:05.000Z</time>
</trkpt>
<trkpt lat="45.9147380" lon="10.3196910">
	<ele>1077.20</ele>
	<time>2025-04-29T10:28:06.000Z</time>
</trkpt>
<trkpt lat="45.9147560" lon="10.3196680">
	<ele>1076.80</ele>
	<time>2025-04-29T10:28:07.000Z</time>
</trkpt>
<trkpt lat="45.9147650" lon="10.3196330">
	<ele>1076.60</ele>
	<time>2025-04-29T10:28:08.000Z</time>
</trkpt>
<trkpt lat="45.9147870" lon="10.3196050">
	<ele>1076.40</ele>
	<time>2025-04-29T10:28:09.000Z</time>
</trkpt>
<trkpt lat="45.9147880" lon="10.3195990">
	<ele>1076.00</ele>
	<time>2025-04-29T10:28:10.000Z</time>
</trkpt>
<trkpt lat="45.9148140" lon="10.3195900">
	<ele>1075.80</ele>
	<time>2025-04-29T10:28:11.000Z</time>
</trkpt>
<trkpt lat="45.9148620" lon="10.3195960">
	<ele>1075.60</ele>
	<time>2025-04-29T10:28:12.000Z</time>
</trkpt>
<trkpt lat="45.9149190" lon="10.3196200">
	<ele>1075.40</ele>
	<time>2025-04-29T10:28:13.000Z</time>
</trkpt>
<trkpt lat="45.9149490" lon="10.3196140">
	<ele>1075.20</ele>
	<time>2025-04-29T10:28:14.000Z</time>
</trkpt>
<trkpt lat="45.9149720" lon="10.3196070">
	<ele>1075.00</ele>
	<time>2025-04-29T10:28:15.000Z</time>
</trkpt>
<trkpt lat="45.9149960" lon="10.3195960">
	<ele>1074.60</ele>
	<time>2025-04-29T10:28:16.000Z</time>
</trkpt>
<trkpt lat="45.9150030" lon="10.3195730">
	<ele>1074.40</ele>
	<time>2025-04-29T10:28:17.000Z</time>
</trkpt>
<trkpt lat="45.9150010" lon="10.3195530">
	<ele>1074.20</ele>
	<time>2025-04-29T10:28:18.000Z</time>
</trkpt>
<trkpt lat="45.9149950" lon="10.3195280">
	<ele>1074.20</ele>
	<time>2025-04-29T10:28:19.000Z</time>
</trkpt>
<trkpt lat="45.9150050" lon="10.3195160">
	<ele>1074.00</ele>
	<time>2025-04-29T10:28:20.000Z</time>
</trkpt>
<trkpt lat="45.9150090" lon="10.3194950">
	<ele>1074.00</ele>
	<time>2025-04-29T10:28:21.000Z</time>
</trkpt>
<trkpt lat="45.9150110" lon="10.3194720">
	<ele>1073.80</ele>
	<time>2025-04-29T10:28:22.000Z</time>
</trkpt>
<trkpt lat="45.9150230" lon="10.3194590">
	<ele>1073.60</ele>
	<time>2025-04-29T10:28:23.000Z</time>
</trkpt>
<trkpt lat="45.9150430" lon="10.3194570">
	<ele>1073.40</ele>
	<time>2025-04-29T10:28:24.000Z</time>
</trkpt>
<trkpt lat="45.9150480" lon="10.3194430">
	<ele>1073.20</ele>
	<time>2025-04-29T10:28:25.000Z</time>
</trkpt>
<trkpt lat="45.9150610" lon="10.3194430">
	<ele>1073.00</ele>
	<time>2025-04-29T10:28:26.000Z</time>
</trkpt>
<trkpt lat="45.9150610" lon="10.3194380">
	<ele>1072.80</ele>
	<time>2025-04-29T10:28:27.000Z</time>
</trkpt>
<trkpt lat="45.9150540" lon="10.3194170">
	<ele>1072.80</ele>
	<time>2025-04-29T10:28:28.000Z</time>
</trkpt>
<trkpt lat="45.9150480" lon="10.3193890">
	<ele>1072.60</ele>
	<time>2025-04-29T10:28:29.000Z</time>
</trkpt>
<trkpt lat="45.9150530" lon="10.3193840">
	<ele>1072.60</ele>
	<time>2025-04-29T10:28:30.000Z</time>
</trkpt>
<trkpt lat="45.9150610" lon="10.3193800">
	<ele>1072.60</ele>
	<time>2025-04-29T10:28:31.000Z</time>
</trkpt>
<trkpt lat="45.9150720" lon="10.3193810">
	<ele>1072.60</ele>
	<time>2025-04-29T10:28:32.000Z</time>
</trkpt>
<trkpt lat="45.9150740" lon="10.3193860">
	<ele>1073.00</ele>
	<time>2025-04-29T10:28:33.000Z</time>
</trkpt>
<trkpt lat="45.9150780" lon="10.3193890">
	<ele>1073.00</ele>
	<time>2025-04-29T10:28:34.000Z</time>
</trkpt>
<trkpt lat="45.9150790" lon="10.3193790">
	<ele>1073.20</ele>
	<time>2025-04-29T10:28:35.000Z</time>
</trkpt>
<trkpt lat="45.9150810" lon="10.3193780">
	<ele>1073.20</ele>
	<time>2025-04-29T10:28:36.000Z</time>
</trkpt>
<trkpt lat="45.9150760" lon="10.3193650">
	<ele>1073.20</ele>
	<time>2025-04-29T10:28:37.000Z</time>
</trkpt>
<trkpt lat="45.9150770" lon="10.3193640">
	<ele>1073.20</ele>
	<time>2025-04-29T10:28:38.000Z</time>
</trkpt>
<trkpt lat="45.9150780" lon="10.3193460">
	<ele>1073.20</ele>
	<time>2025-04-29T10:28:39.000Z</time>
</trkpt>
<trkpt lat="45.9150810" lon="10.3193370">
	<ele>1073.20</ele>
	<time>2025-04-29T10:28:40.000Z</time>
</trkpt>
<trkpt lat="45.9150810" lon="10.3193410">
	<ele>1073.00</ele>
	<time>2025-04-29T10:28:41.000Z</time>
</trkpt>
<trkpt lat="45.9150790" lon="10.3193470">
	<ele>1073.00</ele>
	<time>2025-04-29T10:28:42.000Z</time>
</trkpt>
<trkpt lat="45.9150890" lon="10.3193630">
	<ele>1072.80</ele>
	<time>2025-04-29T10:28:43.000Z</time>
</trkpt>
<trkpt lat="45.9150810" lon="10.3193430">
	<ele>1072.80</ele>
	<time>2025-04-29T10:28:44.000Z</time>
</trkpt>
<trkpt lat="45.9150770" lon="10.3193250">
	<ele>1072.40</ele>
	<time>2025-04-29T10:28:45.000Z</time>
</trkpt>
<trkpt lat="45.9150710" lon="10.3193090">
	<ele>1072.20</ele>
	<time>2025-04-29T10:28:46.000Z</time>
</trkpt>
<trkpt lat="45.9150690" lon="10.3193030">
	<ele>1072.00</ele>
	<time>2025-04-29T10:28:47.000Z</time>
</trkpt>
<trkpt lat="45.9150680" lon="10.3192960">
	<ele>1072.00</ele>
	<time>2025-04-29T10:28:48.000Z</time>
</trkpt>
<trkpt lat="45.9150720" lon="10.3192900">
	<ele>1071.80</ele>
	<time>2025-04-29T10:28:49.000Z</time>
</trkpt>
<trkpt lat="45.9150840" lon="10.3192850">
	<ele>1071.60</ele>
	<time>2025-04-29T10:28:50.000Z</time>
</trkpt>
<trkpt lat="45.9150930" lon="10.3192680">
	<ele>1071.60</ele>
	<time>2025-04-29T10:28:51.000Z</time>
</trkpt>
<trkpt lat="45.9151070" lon="10.3192630">
	<ele>1071.40</ele>
	<time>2025-04-29T10:28:52.000Z</time>
</trkpt>
<trkpt lat="45.9151240" lon="10.3192610">
	<ele>1071.40</ele>
	<time>2025-04-29T10:28:53.000Z</time>
</trkpt>
<trkpt lat="45.9151380" lon="10.3192560">
	<ele>1071.20</ele>
	<time>2025-04-29T10:28:54.000Z</time>
</trkpt>
<trkpt lat="45.9151530" lon="10.3192480">
	<ele>1071.20</ele>
	<time>2025-04-29T10:28:55.000Z</time>
</trkpt>
<trkpt lat="45.9151710" lon="10.3192450">
	<ele>1071.20</ele>
	<time>2025-04-29T10:28:56.000Z</time>
</trkpt>
<trkpt lat="45.9151910" lon="10.3192430">
	<ele>1071.20</ele>
	<time>2025-04-29T10:28:57.000Z</time>
</trkpt>
<trkpt lat="45.9152100" lon="10.3192390">
	<ele>1071.40</ele>
	<time>2025-04-29T10:28:58.000Z</time>
</trkpt>
<trkpt lat="45.9152230" lon="10.3192270">
	<ele>1071.40</ele>
	<time>2025-04-29T10:28:59.000Z</time>
</trkpt>
<trkpt lat="45.9152410" lon="10.3192180">
	<ele>1071.20</ele>
	<time>2025-04-29T10:29:00.000Z</time>
</trkpt>
<trkpt lat="45.9152490" lon="10.3192050">
	<ele>1071.20</ele>
	<time>2025-04-29T10:29:01.000Z</time>
</trkpt>
<trkpt lat="45.9152600" lon="10.3191920">
	<ele>1071.20</ele>
	<time>2025-04-29T10:29:02.000Z</time>
</trkpt>
<trkpt lat="45.9152630" lon="10.3191940">
	<ele>1071.00</ele>
	<time>2025-04-29T10:29:03.000Z</time>
</trkpt>
<trkpt lat="45.9152720" lon="10.3191860">
	<ele>1070.80</ele>
	<time>2025-04-29T10:29:04.000Z</time>
</trkpt>
<trkpt lat="45.9152840" lon="10.3191980">
	<ele>1070.60</ele>
	<time>2025-04-29T10:29:05.000Z</time>
</trkpt>
<trkpt lat="45.9152940" lon="10.3192210">
	<ele>1070.40</ele>
	<time>2025-04-29T10:29:06.000Z</time>
</trkpt>
<trkpt lat="45.9152980" lon="10.3192210">
	<ele>1070.20</ele>
	<time>2025-04-29T10:29:07.000Z</time>
</trkpt>
<trkpt lat="45.9153150" lon="10.3192290">
	<ele>1069.80</ele>
	<time>2025-04-29T10:29:08.000Z</time>
</trkpt>
<trkpt lat="45.9153290" lon="10.3192200">
	<ele>1069.60</ele>
	<time>2025-04-29T10:29:09.000Z</time>
</trkpt>
<trkpt lat="45.9153400" lon="10.3192080">
	<ele>1069.40</ele>
	<time>2025-04-29T10:29:10.000Z</time>
</trkpt>
<trkpt lat="45.9153570" lon="10.3192000">
	<ele>1069.00</ele>
	<time>2025-04-29T10:29:11.000Z</time>
</trkpt>
<trkpt lat="45.9153640" lon="10.3191740">
	<ele>1068.80</ele>
	<time>2025-04-29T10:29:12.000Z</time>
</trkpt>
<trkpt lat="45.9153670" lon="10.3191540">
	<ele>1068.60</ele>
	<time>2025-04-29T10:29:13.000Z</time>
</trkpt>
<trkpt lat="45.9153610" lon="10.3190980">
	<ele>1068.40</ele>
	<time>2025-04-29T10:29:14.000Z</time>
</trkpt>
<trkpt lat="45.9153580" lon="10.3190940">
	<ele>1068.20</ele>
	<time>2025-04-29T10:29:15.000Z</time>
</trkpt>
<trkpt lat="45.9153610" lon="10.3190750">
	<ele>1068.00</ele>
	<time>2025-04-29T10:29:16.000Z</time>
</trkpt>
<trkpt lat="45.9153670" lon="10.3190610">
	<ele>1067.80</ele>
	<time>2025-04-29T10:29:17.000Z</time>
</trkpt>
<trkpt lat="45.9153780" lon="10.3190460">
	<ele>1067.40</ele>
	<time>2025-04-29T10:29:18.000Z</time>
</trkpt>
<trkpt lat="45.9153870" lon="10.3190460">
	<ele>1067.00</ele>
	<time>2025-04-29T10:29:19.000Z</time>
</trkpt>
<trkpt lat="45.9153930" lon="10.3190330">
	<ele>1066.60</ele>
	<time>2025-04-29T10:29:20.000Z</time>
</trkpt>
<trkpt lat="45.9154000" lon="10.3190120">
	<ele>1066.40</ele>
	<time>2025-04-29T10:29:21.000Z</time>
</trkpt>
<trkpt lat="45.9153950" lon="10.3189860">
	<ele>1066.00</ele>
	<time>2025-04-29T10:29:22.000Z</time>
</trkpt>
<trkpt lat="45.9153840" lon="10.3189660">
	<ele>1065.80</ele>
	<time>2025-04-29T10:29:23.000Z</time>
</trkpt>
<trkpt lat="45.9153830" lon="10.3189470">
	<ele>1065.60</ele>
	<time>2025-04-29T10:29:24.000Z</time>
</trkpt>
<trkpt lat="45.9153920" lon="10.3189410">
	<ele>1065.20</ele>
	<time>2025-04-29T10:29:25.000Z</time>
</trkpt>
<trkpt lat="45.9154120" lon="10.3189450">
	<ele>1064.80</ele>
	<time>2025-04-29T10:29:26.000Z</time>
</trkpt>
<trkpt lat="45.9154260" lon="10.3189420">
	<ele>1064.40</ele>
	<time>2025-04-29T10:29:27.000Z</time>
</trkpt>
<trkpt lat="45.9154450" lon="10.3189380">
	<ele>1064.20</ele>
	<time>2025-04-29T10:29:28.000Z</time>
</trkpt>
<trkpt lat="45.9154640" lon="10.3189260">
	<ele>1063.80</ele>
	<time>2025-04-29T10:29:29.000Z</time>
</trkpt>
<trkpt lat="45.9154790" lon="10.3189190">
	<ele>1063.40</ele>
	<time>2025-04-29T10:29:30.000Z</time>
</trkpt>
<trkpt lat="45.9154950" lon="10.3189110">
	<ele>1063.40</ele>
	<time>2025-04-29T10:29:31.000Z</time>
</trkpt>
<trkpt lat="45.9155120" lon="10.3189050">
	<ele>1063.00</ele>
	<time>2025-04-29T10:29:32.000Z</time>
</trkpt>
<trkpt lat="45.9155270" lon="10.3189010">
	<ele>1062.80</ele>
	<time>2025-04-29T10:29:33.000Z</time>
</trkpt>
<trkpt lat="45.9155390" lon="10.3189050">
	<ele>1062.80</ele>
	<time>2025-04-29T10:29:34.000Z</time>
</trkpt>
<trkpt lat="45.9155470" lon="10.3188950">
	<ele>1062.60</ele>
	<time>2025-04-29T10:29:35.000Z</time>
</trkpt>
<trkpt lat="45.9155520" lon="10.3188740">
	<ele>1062.40</ele>
	<time>2025-04-29T10:29:36.000Z</time>
</trkpt>
<trkpt lat="45.9155650" lon="10.3188720">
	<ele>1062.20</ele>
	<time>2025-04-29T10:29:37.000Z</time>
</trkpt>
<trkpt lat="45.9155770" lon="10.3188650">
	<ele>1061.80</ele>
	<time>2025-04-29T10:29:38.000Z</time>
</trkpt>
<trkpt lat="45.9155830" lon="10.3188450">
	<ele>1061.60</ele>
	<time>2025-04-29T10:29:39.000Z</time>
</trkpt>
<trkpt lat="45.9155950" lon="10.3188340">
	<ele>1061.20</ele>
	<time>2025-04-29T10:29:40.000Z</time>
</trkpt>
<trkpt lat="45.9156060" lon="10.3188170">
	<ele>1061.00</ele>
	<time>2025-04-29T10:29:41.000Z</time>
</trkpt>
<trkpt lat="45.9156180" lon="10.3187910">
	<ele>1060.80</ele>
	<time>2025-04-29T10:29:42.000Z</time>
</trkpt>
<trkpt lat="45.9156290" lon="10.3187710">
	<ele>1060.60</ele>
	<time>2025-04-29T10:29:43.000Z</time>
</trkpt>
<trkpt lat="45.9156350" lon="10.3187570">
	<ele>1060.40</ele>
	<time>2025-04-29T10:29:44.000Z</time>
</trkpt>
<trkpt lat="45.9156610" lon="10.3187470">
	<ele>1060.20</ele>
	<time>2025-04-29T10:29:45.000Z</time>
</trkpt>
<trkpt lat="45.9156830" lon="10.3187310">
	<ele>1060.20</ele>
	<time>2025-04-29T10:29:46.000Z</time>
</trkpt>
<trkpt lat="45.9156980" lon="10.3187210">
	<ele>1060.00</ele>
	<time>2025-04-29T10:29:47.000Z</time>
</trkpt>
<trkpt lat="45.9157010" lon="10.3187140">
	<ele>1060.00</ele>
	<time>2025-04-29T10:29:48.000Z</time>
</trkpt>
<trkpt lat="45.9157170" lon="10.3187100">
	<ele>1060.00</ele>
	<time>2025-04-29T10:29:49.000Z</time>
</trkpt>
<trkpt lat="45.9157330" lon="10.3187020">
	<ele>1060.00</ele>
	<time>2025-04-29T10:29:50.000Z</time>
</trkpt>
<trkpt lat="45.9157520" lon="10.3186770">
	<ele>1060.00</ele>
	<time>2025-04-29T10:29:51.000Z</time>
</trkpt>
<trkpt lat="45.9157830" lon="10.3186740">
	<ele>1060.00</ele>
	<time>2025-04-29T10:29:52.000Z</time>
</trkpt>
<trkpt lat="45.9157890" lon="10.3186710">
	<ele>1059.80</ele>
	<time>2025-04-29T10:29:53.000Z</time>
</trkpt>
<trkpt lat="45.9157910" lon="10.3186510">
	<ele>1059.80</ele>
	<time>2025-04-29T10:29:54.000Z</time>
</trkpt>
<trkpt lat="45.9157900" lon="10.3186260">
	<ele>1059.80</ele>
	<time>2025-04-29T10:29:55.000Z</time>
</trkpt>
<trkpt lat="45.9157880" lon="10.3185950">
	<ele>1059.80</ele>
	<time>2025-04-29T10:29:56.000Z</time>
</trkpt>
<trkpt lat="45.9158050" lon="10.3185830">
	<ele>1059.60</ele>
	<time>2025-04-29T10:29:57.000Z</time>
</trkpt>
<trkpt lat="45.9158190" lon="10.3185740">
	<ele>1059.60</ele>
	<time>2025-04-29T10:29:58.000Z</time>
</trkpt>
<trkpt lat="45.9158360" lon="10.3185760">
	<ele>1059.80</ele>
	<time>2025-04-29T10:29:59.000Z</time>
</trkpt>
<trkpt lat="45.9158510" lon="10.3185710">
	<ele>1059.80</ele>
	<time>2025-04-29T10:30:00.000Z</time>
</trkpt>
<trkpt lat="45.9158710" lon="10.3185690">
	<ele>1060.00</ele>
	<time>2025-04-29T10:30:01.000Z</time>
</trkpt>
<trkpt lat="45.9158870" lon="10.3185580">
	<ele>1060.00</ele>
	<time>2025-04-29T10:30:02.000Z</time>
</trkpt>
<trkpt lat="45.9159020" lon="10.3185430">
	<ele>1060.00</ele>
	<time>2025-04-29T10:30:03.000Z</time>
</trkpt>
<trkpt lat="45.9159220" lon="10.3185460">
	<ele>1060.00</ele>
	<time>2025-04-29T10:30:04.000Z</time>
</trkpt>
<trkpt lat="45.9159220" lon="10.3185360">
	<ele>1060.00</ele>
	<time>2025-04-29T10:30:05.000Z</time>
</trkpt>
<trkpt lat="45.9159200" lon="10.3185450">
	<ele>1060.00</ele>
	<time>2025-04-29T10:30:06.000Z</time>
</trkpt>
<trkpt lat="45.9159330" lon="10.3185560">
	<ele>1059.80</ele>
	<time>2025-04-29T10:30:07.000Z</time>
</trkpt>
<trkpt lat="45.9159550" lon="10.3185700">
	<ele>1059.60</ele>
	<time>2025-04-29T10:30:08.000Z</time>
</trkpt>
<trkpt lat="45.9159710" lon="10.3185760">
	<ele>1059.60</ele>
	<time>2025-04-29T10:30:09.000Z</time>
</trkpt>
<trkpt lat="45.9159860" lon="10.3185700">
	<ele>1059.60</ele>
	<time>2025-04-29T10:30:10.000Z</time>
</trkpt>
<trkpt lat="45.9160030" lon="10.3185650">
	<ele>1059.60</ele>
	<time>2025-04-29T10:30:11.000Z</time>
</trkpt>
<trkpt lat="45.9160260" lon="10.3185620">
	<ele>1059.40</ele>
	<time>2025-04-29T10:30:12.000Z</time>
</trkpt>
<trkpt lat="45.9160480" lon="10.3185580">
	<ele>1059.40</ele>
	<time>2025-04-29T10:30:13.000Z</time>
</trkpt>
<trkpt lat="45.9160600" lon="10.3185390">
	<ele>1059.40</ele>
	<time>2025-04-29T10:30:14.000Z</time>
</trkpt>
<trkpt lat="45.9160660" lon="10.3185170">
	<ele>1059.00</ele>
	<time>2025-04-29T10:30:15.000Z</time>
</trkpt>
<trkpt lat="45.9160650" lon="10.3184910">
	<ele>1058.80</ele>
	<time>2025-04-29T10:30:16.000Z</time>
</trkpt>
<trkpt lat="45.9160690" lon="10.3184700">
	<ele>1058.60</ele>
	<time>2025-04-29T10:30:17.000Z</time>
</trkpt>
<trkpt lat="45.9160680" lon="10.3184460">
	<ele>1058.40</ele>
	<time>2025-04-29T10:30:18.000Z</time>
</trkpt>
<trkpt lat="45.9160800" lon="10.3184370">
	<ele>1058.40</ele>
	<time>2025-04-29T10:30:19.000Z</time>
</trkpt>
<trkpt lat="45.9160950" lon="10.3184330">
	<ele>1058.20</ele>
	<time>2025-04-29T10:30:20.000Z</time>
</trkpt>
<trkpt lat="45.9160940" lon="10.3184150">
	<ele>1058.00</ele>
	<time>2025-04-29T10:30:21.000Z</time>
</trkpt>
<trkpt lat="45.9161090" lon="10.3184020">
	<ele>1057.80</ele>
	<time>2025-04-29T10:30:22.000Z</time>
</trkpt>
<trkpt lat="45.9161160" lon="10.3183760">
	<ele>1057.60</ele>
	<time>2025-04-29T10:30:23.000Z</time>
</trkpt>
<trkpt lat="45.9161240" lon="10.3183580">
	<ele>1057.60</ele>
	<time>2025-04-29T10:30:24.000Z</time>
</trkpt>
<trkpt lat="45.9161300" lon="10.3183430">
	<ele>1057.20</ele>
	<time>2025-04-29T10:30:25.000Z</time>
</trkpt>
<trkpt lat="45.9161490" lon="10.3183390">
	<ele>1057.20</ele>
	<time>2025-04-29T10:30:26.000Z</time>
</trkpt>
<trkpt lat="45.9161590" lon="10.3183340">
	<ele>1057.00</ele>
	<time>2025-04-29T10:30:27.000Z</time>
</trkpt>
<trkpt lat="45.9161800" lon="10.3183330">
	<ele>1056.80</ele>
	<time>2025-04-29T10:30:28.000Z</time>
</trkpt>
<trkpt lat="45.9161840" lon="10.3183310">
	<ele>1056.80</ele>
	<time>2025-04-29T10:30:29.000Z</time>
</trkpt>
<trkpt lat="45.9161840" lon="10.3183220">
	<ele>1056.60</ele>
	<time>2025-04-29T10:30:30.000Z</time>
</trkpt>
<trkpt lat="45.9162030" lon="10.3183190">
	<ele>1056.20</ele>
	<time>2025-04-29T10:30:31.000Z</time>
</trkpt>
<trkpt lat="45.9162100" lon="10.3183050">
	<ele>1056.20</ele>
	<time>2025-04-29T10:30:32.000Z</time>
</trkpt>
<trkpt lat="45.9162140" lon="10.3183010">
	<ele>1055.80</ele>
	<time>2025-04-29T10:30:33.000Z</time>
</trkpt>
<trkpt lat="45.9162190" lon="10.3182870">
	<ele>1055.40</ele>
	<time>2025-04-29T10:30:34.000Z</time>
</trkpt>
<trkpt lat="45.9162220" lon="10.3182650">
	<ele>1055.00</ele>
	<time>2025-04-29T10:30:35.000Z</time>
</trkpt>
<trkpt lat="45.9162210" lon="10.3182590">
	<ele>1054.60</ele>
	<time>2025-04-29T10:30:36.000Z</time>
</trkpt>
<trkpt lat="45.9162230" lon="10.3182420">
	<ele>1054.40</ele>
	<time>2025-04-29T10:30:37.000Z</time>
</trkpt>
<trkpt lat="45.9162180" lon="10.3182130">
	<ele>1054.00</ele>
	<time>2025-04-29T10:30:38.000Z</time>
</trkpt>
<trkpt lat="45.9162210" lon="10.3181960">
	<ele>1054.00</ele>
	<time>2025-04-29T10:30:39.000Z</time>
</trkpt>
<trkpt lat="45.9162210" lon="10.3181790">
	<ele>1053.60</ele>
	<time>2025-04-29T10:30:40.000Z</time>
</trkpt>
<trkpt lat="45.9162280" lon="10.3181610">
	<ele>1053.20</ele>
	<time>2025-04-29T10:30:41.000Z</time>
</trkpt>
<trkpt lat="45.9162320" lon="10.3181400">
	<ele>1052.80</ele>
	<time>2025-04-29T10:30:42.000Z</time>
</trkpt>
<trkpt lat="45.9162320" lon="10.3181150">
	<ele>1052.40</ele>
	<time>2025-04-29T10:30:43.000Z</time>
</trkpt>
<trkpt lat="45.9162440" lon="10.3180980">
	<ele>1051.80</ele>
	<time>2025-04-29T10:30:44.000Z</time>
</trkpt>
<trkpt lat="45.9162430" lon="10.3180690">
	<ele>1051.40</ele>
	<time>2025-04-29T10:30:45.000Z</time>
</trkpt>
<trkpt lat="45.9162370" lon="10.3180380">
	<ele>1051.00</ele>
	<time>2025-04-29T10:30:46.000Z</time>
</trkpt>
<trkpt lat="45.9162390" lon="10.3180180">
	<ele>1050.60</ele>
	<time>2025-04-29T10:30:47.000Z</time>
</trkpt>
<trkpt lat="45.9162410" lon="10.3180000">
	<ele>1050.00</ele>
	<time>2025-04-29T10:30:48.000Z</time>
</trkpt>
<trkpt lat="45.9162440" lon="10.3179860">
	<ele>1049.60</ele>
	<time>2025-04-29T10:30:49.000Z</time>
</trkpt>
<trkpt lat="45.9162450" lon="10.3179690">
	<ele>1049.20</ele>
	<time>2025-04-29T10:30:50.000Z</time>
</trkpt>
<trkpt lat="45.9162490" lon="10.3179490">
	<ele>1048.80</ele>
	<time>2025-04-29T10:30:51.000Z</time>
</trkpt>
<trkpt lat="45.9162610" lon="10.3179310">
	<ele>1048.60</ele>
	<time>2025-04-29T10:30:52.000Z</time>
</trkpt>
<trkpt lat="45.9162580" lon="10.3179050">
	<ele>1048.00</ele>
	<time>2025-04-29T10:30:53.000Z</time>
</trkpt>
<trkpt lat="45.9162600" lon="10.3178750">
	<ele>1047.80</ele>
	<time>2025-04-29T10:30:54.000Z</time>
</trkpt>
<trkpt lat="45.9162830" lon="10.3178680">
	<ele>1047.40</ele>
	<time>2025-04-29T10:30:55.000Z</time>
</trkpt>
<trkpt lat="45.9162850" lon="10.3178450">
	<ele>1047.00</ele>
	<time>2025-04-29T10:30:56.000Z</time>
</trkpt>
<trkpt lat="45.9162830" lon="10.3178200">
	<ele>1046.80</ele>
	<time>2025-04-29T10:30:57.000Z</time>
</trkpt>
<trkpt lat="45.9162820" lon="10.3177960">
	<ele>1046.20</ele>
	<time>2025-04-29T10:30:58.000Z</time>
</trkpt>
<trkpt lat="45.9162820" lon="10.3177650">
	<ele>1046.00</ele>
	<time>2025-04-29T10:30:59.000Z</time>
</trkpt>
<trkpt lat="45.9162780" lon="10.3177430">
	<ele>1045.80</ele>
	<time>2025-04-29T10:31:00.000Z</time>
</trkpt>
<trkpt lat="45.9162710" lon="10.3177100">
	<ele>1045.40</ele>
	<time>2025-04-29T10:31:01.000Z</time>
</trkpt>
<trkpt lat="45.9162660" lon="10.3176780">
	<ele>1045.00</ele>
	<time>2025-04-29T10:31:02.000Z</time>
</trkpt>
<trkpt lat="45.9162680" lon="10.3176590">
	<ele>1044.80</ele>
	<time>2025-04-29T10:31:03.000Z</time>
</trkpt>
<trkpt lat="45.9162760" lon="10.3176360">
	<ele>1044.60</ele>
	<time>2025-04-29T10:31:04.000Z</time>
</trkpt>
<trkpt lat="45.9162850" lon="10.3176190">
	<ele>1044.20</ele>
	<time>2025-04-29T10:31:05.000Z</time>
</trkpt>
<trkpt lat="45.9162860" lon="10.3176080">
	<ele>1043.80</ele>
	<time>2025-04-29T10:31:06.000Z</time>
</trkpt>
<trkpt lat="45.9162830" lon="10.3175920">
	<ele>1043.40</ele>
	<time>2025-04-29T10:31:07.000Z</time>
</trkpt>
<trkpt lat="45.9162920" lon="10.3175570">
	<ele>1043.20</ele>
	<time>2025-04-29T10:31:08.000Z</time>
</trkpt>
<trkpt lat="45.9162950" lon="10.3175220">
	<ele>1043.00</ele>
	<time>2025-04-29T10:31:09.000Z</time>
</trkpt>
<trkpt lat="45.9162950" lon="10.3175170">
	<ele>1042.80</ele>
	<time>2025-04-29T10:31:10.000Z</time>
</trkpt>
<trkpt lat="45.9162940" lon="10.3175160">
	<ele>1042.40</ele>
	<time>2025-04-29T10:31:11.000Z</time>
</trkpt>
<trkpt lat="45.9162930" lon="10.3175140">
	<ele>1042.00</ele>
	<time>2025-04-29T10:31:12.000Z</time>
</trkpt>
<trkpt lat="45.9162970" lon="10.3175070">
	<ele>1041.80</ele>
	<time>2025-04-29T10:31:13.000Z</time>
</trkpt>
<trkpt lat="45.9162950" lon="10.3175040">
	<ele>1041.60</ele>
	<time>2025-04-29T10:31:14.000Z</time>
</trkpt>
<trkpt lat="45.9162980" lon="10.3174920">
	<ele>1041.20</ele>
	<time>2025-04-29T10:31:15.000Z</time>
</trkpt>
<trkpt lat="45.9162960" lon="10.3174800">
	<ele>1040.60</ele>
	<time>2025-04-29T10:31:16.000Z</time>
</trkpt>
<trkpt lat="45.9162880" lon="10.3174630">
	<ele>1040.40</ele>
	<time>2025-04-29T10:31:17.000Z</time>
</trkpt>
<trkpt lat="45.9162840" lon="10.3174450">
	<ele>1040.20</ele>
	<time>2025-04-29T10:31:18.000Z</time>
</trkpt>
<trkpt lat="45.9162850" lon="10.3174310">
	<ele>1040.00</ele>
	<time>2025-04-29T10:31:19.000Z</time>
</trkpt>
<trkpt lat="45.9162950" lon="10.3174120">
	<ele>1039.60</ele>
	<time>2025-04-29T10:31:20.000Z</time>
</trkpt>
<trkpt lat="45.9163080" lon="10.3173880">
	<ele>1039.20</ele>
	<time>2025-04-29T10:31:21.000Z</time>
</trkpt>
<trkpt lat="45.9163090" lon="10.3173770">
	<ele>1038.80</ele>
	<time>2025-04-29T10:31:22.000Z</time>
</trkpt>
<trkpt lat="45.9163080" lon="10.3173700">
	<ele>1038.40</ele>
	<time>2025-04-29T10:31:23.000Z</time>
</trkpt>
<trkpt lat="45.9163080" lon="10.3173680">
	<ele>1038.00</ele>
	<time>2025-04-29T10:31:24.000Z</time>
</trkpt>
<trkpt lat="45.9163090" lon="10.3173640">
	<ele>1037.60</ele>
	<time>2025-04-29T10:31:25.000Z</time>
</trkpt>
<trkpt lat="45.9163260" lon="10.3173500">
	<ele>1037.20</ele>
	<time>2025-04-29T10:31:26.000Z</time>
</trkpt>
<trkpt lat="45.9163490" lon="10.3173410">
	<ele>1037.00</ele>
	<time>2025-04-29T10:31:27.000Z</time>
</trkpt>
<trkpt lat="45.9163630" lon="10.3173310">
	<ele>1036.80</ele>
	<time>2025-04-29T10:31:28.000Z</time>
</trkpt>
<trkpt lat="45.9163650" lon="10.3173260">
	<ele>1036.40</ele>
	<time>2025-04-29T10:31:29.000Z</time>
</trkpt>
<trkpt lat="45.9163660" lon="10.3173100">
	<ele>1036.20</ele>
	<time>2025-04-29T10:31:30.000Z</time>
</trkpt>
<trkpt lat="45.9163620" lon="10.3172960">
	<ele>1035.80</ele>
	<time>2025-04-29T10:31:31.000Z</time>
</trkpt>
<trkpt lat="45.9163610" lon="10.3172830">
	<ele>1035.60</ele>
	<time>2025-04-29T10:31:32.000Z</time>
</trkpt>
<trkpt lat="45.9163620" lon="10.3172700">
	<ele>1035.40</ele>
	<time>2025-04-29T10:31:33.000Z</time>
</trkpt>
<trkpt lat="45.9163650" lon="10.3172630">
	<ele>1035.20</ele>
	<time>2025-04-29T10:31:34.000Z</time>
</trkpt>
<trkpt lat="45.9163700" lon="10.3172600">
	<ele>1035.20</ele>
	<time>2025-04-29T10:31:35.000Z</time>
</trkpt>
<trkpt lat="45.9163750" lon="10.3172610">
	<ele>1035.20</ele>
	<time>2025-04-29T10:31:36.000Z</time>
</trkpt>
<trkpt lat="45.9163830" lon="10.3172530">
	<ele>1035.20</ele>
	<time>2025-04-29T10:31:37.000Z</time>
</trkpt>
<trkpt lat="45.9163790" lon="10.3172350">
	<ele>1035.00</ele>
	<time>2025-04-29T10:31:38.000Z</time>
</trkpt>
<trkpt lat="45.9163810" lon="10.3172290">
	<ele>1035.00</ele>
	<time>2025-04-29T10:31:39.000Z</time>
</trkpt>
<trkpt lat="45.9163820" lon="10.3172270">
	<ele>1035.00</ele>
	<time>2025-04-29T10:31:40.000Z</time>
</trkpt>
<trkpt lat="45.9163830" lon="10.3172160">
	<ele>1034.80</ele>
	<time>2025-04-29T10:31:41.000Z</time>
</trkpt>
<trkpt lat="45.9163900" lon="10.3172170">
	<ele>1034.60</ele>
	<time>2025-04-29T10:31:42.000Z</time>
</trkpt>
<trkpt lat="45.9163880" lon="10.3172060">
	<ele>1034.20</ele>
	<time>2025-04-29T10:31:43.000Z</time>
</trkpt>
<trkpt lat="45.9163830" lon="10.3171890">
	<ele>1033.80</ele>
	<time>2025-04-29T10:31:44.000Z</time>
</trkpt>
<trkpt lat="45.9163830" lon="10.3171760">
	<ele>1033.60</ele>
	<time>2025-04-29T10:31:45.000Z</time>
</trkpt>
<trkpt lat="45.9163770" lon="10.3171580">
	<ele>1033.20</ele>
	<time>2025-04-29T10:31:46.000Z</time>
</trkpt>
<trkpt lat="45.9163720" lon="10.3171340">
	<ele>1033.00</ele>
	<time>2025-04-29T10:31:47.000Z</time>
</trkpt>
<trkpt lat="45.9163740" lon="10.3171180">
	<ele>1032.60</ele>
	<time>2025-04-29T10:31:48.000Z</time>
</trkpt>
<trkpt lat="45.9163780" lon="10.3170990">
	<ele>1032.40</ele>
	<time>2025-04-29T10:31:49.000Z</time>
</trkpt>
<trkpt lat="45.9163820" lon="10.3170810">
	<ele>1032.20</ele>
	<time>2025-04-29T10:31:50.000Z</time>
</trkpt>
<trkpt lat="45.9163860" lon="10.3170580">
	<ele>1031.80</ele>
	<time>2025-04-29T10:31:51.000Z</time>
</trkpt>
<trkpt lat="45.9163880" lon="10.3170200">
	<ele>1031.60</ele>
	<time>2025-04-29T10:31:52.000Z</time>
</trkpt>
<trkpt lat="45.9164160" lon="10.3170170">
	<ele>1031.40</ele>
	<time>2025-04-29T10:31:53.000Z</time>
</trkpt>
<trkpt lat="45.9164370" lon="10.3170130">
	<ele>1031.00</ele>
	<time>2025-04-29T10:31:54.000Z</time>
</trkpt>
<trkpt lat="45.9164650" lon="10.3170050">
	<ele>1030.80</ele>
	<time>2025-04-29T10:31:55.000Z</time>
</trkpt>
<trkpt lat="45.9164850" lon="10.3169980">
	<ele>1030.80</ele>
	<time>2025-04-29T10:31:56.000Z</time>
</trkpt>
<trkpt lat="45.9165090" lon="10.3169940">
	<ele>1030.20</ele>
	<time>2025-04-29T10:31:57.000Z</time>
</trkpt>
<trkpt lat="45.9165240" lon="10.3169820">
	<ele>1029.80</ele>
	<time>2025-04-29T10:31:58.000Z</time>
</trkpt>
<trkpt lat="45.9165350" lon="10.3169740">
	<ele>1029.40</ele>
	<time>2025-04-29T10:31:59.000Z</time>
</trkpt>
<trkpt lat="45.9165470" lon="10.3169640">
	<ele>1028.80</ele>
	<time>2025-04-29T10:32:00.000Z</time>
</trkpt>
<trkpt lat="45.9165680" lon="10.3169510">
	<ele>1028.60</ele>
	<time>2025-04-29T10:32:01.000Z</time>
</trkpt>
<trkpt lat="45.9165800" lon="10.3169390">
	<ele>1028.40</ele>
	<time>2025-04-29T10:32:02.000Z</time>
</trkpt>
<trkpt lat="45.9165920" lon="10.3169260">
	<ele>1028.00</ele>
	<time>2025-04-29T10:32:03.000Z</time>
</trkpt>
<trkpt lat="45.9166050" lon="10.3169180">
	<ele>1027.80</ele>
	<time>2025-04-29T10:32:04.000Z</time>
</trkpt>
<trkpt lat="45.9166040" lon="10.3169070">
	<ele>1027.60</ele>
	<time>2025-04-29T10:32:05.000Z</time>
</trkpt>
<trkpt lat="45.9166130" lon="10.3168990">
	<ele>1027.20</ele>
	<time>2025-04-29T10:32:06.000Z</time>
</trkpt>
<trkpt lat="45.9166320" lon="10.3169000">
	<ele>1026.80</ele>
	<time>2025-04-29T10:32:07.000Z</time>
</trkpt>
<trkpt lat="45.9166390" lon="10.3168890">
	<ele>1026.20</ele>
	<time>2025-04-29T10:32:08.000Z</time>
</trkpt>
<trkpt lat="45.9166470" lon="10.3168760">
	<ele>1026.00</ele>
	<time>2025-04-29T10:32:09.000Z</time>
</trkpt>
<trkpt lat="45.9166500" lon="10.3168630">
	<ele>1025.60</ele>
	<time>2025-04-29T10:32:10.000Z</time>
</trkpt>
<trkpt lat="45.9166530" lon="10.3168500">
	<ele>1025.20</ele>
	<time>2025-04-29T10:32:11.000Z</time>
</trkpt>
<trkpt lat="45.9166550" lon="10.3168420">
	<ele>1024.80</ele>
	<time>2025-04-29T10:32:12.000Z</time>
</trkpt>
<trkpt lat="45.9166610" lon="10.3168360">
	<ele>1024.60</ele>
	<time>2025-04-29T10:32:13.000Z</time>
</trkpt>
<trkpt lat="45.9166690" lon="10.3168330">
	<ele>1024.40</ele>
	<time>2025-04-29T10:32:14.000Z</time>
</trkpt>
<trkpt lat="45.9166850" lon="10.3168260">
	<ele>1024.00</ele>
	<time>2025-04-29T10:32:15.000Z</time>
</trkpt>
<trkpt lat="45.9167090" lon="10.3168120">
	<ele>1023.60</ele>
	<time>2025-04-29T10:32:16.000Z</time>
</trkpt>
<trkpt lat="45.9167350" lon="10.3168030">
	<ele>1023.60</ele>
	<time>2025-04-29T10:32:17.000Z</time>
</trkpt>
<trkpt lat="45.9167570" lon="10.3167990">
	<ele>1023.00</ele>
	<time>2025-04-29T10:32:18.000Z</time>
</trkpt>
<trkpt lat="45.9167790" lon="10.3167980">
	<ele>1022.60</ele>
	<time>2025-04-29T10:32:19.000Z</time>
</trkpt>
<trkpt lat="45.9167900" lon="10.3167850">
	<ele>1022.20</ele>
	<time>2025-04-29T10:32:20.000Z</time>
</trkpt>
<trkpt lat="45.9167980" lon="10.3167590">
	<ele>1021.80</ele>
	<time>2025-04-29T10:32:21.000Z</time>
</trkpt>
<trkpt lat="45.9167860" lon="10.3167200">
	<ele>1021.40</ele>
	<time>2025-04-29T10:32:22.000Z</time>
</trkpt>
<trkpt lat="45.9167700" lon="10.3166780">
	<ele>1021.00</ele>
	<time>2025-04-29T10:32:23.000Z</time>
</trkpt>
<trkpt lat="45.9167620" lon="10.3166450">
	<ele>1020.60</ele>
	<time>2025-04-29T10:32:24.000Z</time>
</trkpt>
<trkpt lat="45.9167680" lon="10.3166160">
	<ele>1020.40</ele>
	<time>2025-04-29T10:32:25.000Z</time>
</trkpt>
<trkpt lat="45.9167720" lon="10.3165930">
	<ele>1020.20</ele>
	<time>2025-04-29T10:32:26.000Z</time>
</trkpt>
<trkpt lat="45.9167790" lon="10.3165730">
	<ele>1019.60</ele>
	<time>2025-04-29T10:32:27.000Z</time>
</trkpt>
<trkpt lat="45.9167850" lon="10.3165600">
	<ele>1019.20</ele>
	<time>2025-04-29T10:32:28.000Z</time>
</trkpt>
<trkpt lat="45.9167880" lon="10.3165470">
	<ele>1019.00</ele>
	<time>2025-04-29T10:32:29.000Z</time>
</trkpt>
<trkpt lat="45.9167860" lon="10.3165300">
	<ele>1018.80</ele>
	<time>2025-04-29T10:32:30.000Z</time>
</trkpt>
<trkpt lat="45.9167870" lon="10.3165180">
	<ele>1018.60</ele>
	<time>2025-04-29T10:32:31.000Z</time>
</trkpt>
<trkpt lat="45.9167980" lon="10.3165130">
	<ele>1018.40</ele>
	<time>2025-04-29T10:32:32.000Z</time>
</trkpt>
<trkpt lat="45.9167990" lon="10.3164990">
	<ele>1017.80</ele>
	<time>2025-04-29T10:32:33.000Z</time>
</trkpt>
<trkpt lat="45.9168060" lon="10.3164890">
	<ele>1017.40</ele>
	<time>2025-04-29T10:32:34.000Z</time>
</trkpt>
<trkpt lat="45.9168220" lon="10.3164810">
	<ele>1017.00</ele>
	<time>2025-04-29T10:32:35.000Z</time>
</trkpt>
<trkpt lat="45.9168320" lon="10.3164660">
	<ele>1016.80</ele>
	<time>2025-04-29T10:32:36.000Z</time>
</trkpt>
<trkpt lat="45.9168360" lon="10.3164530">
	<ele>1016.40</ele>
	<time>2025-04-29T10:32:37.000Z</time>
</trkpt>
<trkpt lat="45.9168330" lon="10.3164270">
	<ele>1016.00</ele>
	<time>2025-04-29T10:32:38.000Z</time>
</trkpt>
<trkpt lat="45.9168290" lon="10.3163930">
	<ele>1015.80</ele>
	<time>2025-04-29T10:32:39.000Z</time>
</trkpt>
<trkpt lat="45.9168340" lon="10.3163680">
	<ele>1015.20</ele>
	<time>2025-04-29T10:32:40.000Z</time>
</trkpt>
<trkpt lat="45.9168280" lon="10.3163560">
	<ele>1015.00</ele>
	<time>2025-04-29T10:32:41.000Z</time>
</trkpt>
<trkpt lat="45.9168810" lon="10.3163860">
	<ele>1014.80</ele>
	<time>2025-04-29T10:32:42.000Z</time>
</trkpt>
<trkpt lat="45.9169240" lon="10.3164120">
	<ele>1014.60</ele>
	<time>2025-04-29T10:32:43.000Z</time>
</trkpt>
<trkpt lat="45.9169290" lon="10.3164100">
	<ele>1014.40</ele>
	<time>2025-04-29T10:32:44.000Z</time>
</trkpt>
<trkpt lat="45.9169390" lon="10.3164100">
	<ele>1014.00</ele>
	<time>2025-04-29T10:32:45.000Z</time>
</trkpt>
<trkpt lat="45.9169500" lon="10.3163970">
	<ele>1013.60</ele>
	<time>2025-04-29T10:32:46.000Z</time>
</trkpt>
<trkpt lat="45.9169660" lon="10.3163890">
	<ele>1013.40</ele>
	<time>2025-04-29T10:32:47.000Z</time>
</trkpt>
<trkpt lat="45.9169800" lon="10.3163810">
	<ele>1013.00</ele>
	<time>2025-04-29T10:32:48.000Z</time>
</trkpt>
<trkpt lat="45.9169880" lon="10.3163750">
	<ele>1012.60</ele>
	<time>2025-04-29T10:32:49.000Z</time>
</trkpt>
<trkpt lat="45.9169890" lon="10.3163650">
	<ele>1012.20</ele>
	<time>2025-04-29T10:32:50.000Z</time>
</trkpt>
<trkpt lat="45.9169780" lon="10.3163470">
	<ele>1011.80</ele>
	<time>2025-04-29T10:32:51.000Z</time>
</trkpt>
<trkpt lat="45.9169730" lon="10.3163170">
	<ele>1011.40</ele>
	<time>2025-04-29T10:32:52.000Z</time>
</trkpt>
<trkpt lat="45.9169960" lon="10.3163060">
	<ele>1010.80</ele>
	<time>2025-04-29T10:32:53.000Z</time>
</trkpt>
<trkpt lat="45.9169890" lon="10.3162760">
	<ele>1010.40</ele>
	<time>2025-04-29T10:32:54.000Z</time>
</trkpt>
<trkpt lat="45.9169860" lon="10.3162580">
	<ele>1010.00</ele>
	<time>2025-04-29T10:32:55.000Z</time>
</trkpt>
<trkpt lat="45.9169850" lon="10.3162430">
	<ele>1009.60</ele>
	<time>2025-04-29T10:32:56.000Z</time>
</trkpt>
<trkpt lat="45.9169860" lon="10.3162260">
	<ele>1009.40</ele>
	<time>2025-04-29T10:32:57.000Z</time>
</trkpt>
<trkpt lat="45.9169950" lon="10.3162100">
	<ele>1009.20</ele>
	<time>2025-04-29T10:32:58.000Z</time>
</trkpt>
<trkpt lat="45.9170130" lon="10.3161950">
	<ele>1008.80</ele>
	<time>2025-04-29T10:32:59.000Z</time>
</trkpt>
<trkpt lat="45.9170230" lon="10.3161850">
	<ele>1008.40</ele>
	<time>2025-04-29T10:33:00.000Z</time>
</trkpt>
<trkpt lat="45.9170350" lon="10.3161830">
	<ele>1008.20</ele>
	<time>2025-04-29T10:33:01.000Z</time>
</trkpt>
<trkpt lat="45.9170390" lon="10.3161830">
	<ele>1007.80</ele>
	<time>2025-04-29T10:33:02.000Z</time>
</trkpt>
<trkpt lat="45.9170500" lon="10.3161810">
	<ele>1007.40</ele>
	<time>2025-04-29T10:33:03.000Z</time>
</trkpt>
<trkpt lat="45.9170530" lon="10.3161640">
	<ele>1007.20</ele>
	<time>2025-04-29T10:33:04.000Z</time>
</trkpt>
<trkpt lat="45.9170620" lon="10.3161520">
	<ele>1007.00</ele>
	<time>2025-04-29T10:33:05.000Z</time>
</trkpt>
<trkpt lat="45.9170790" lon="10.3161420">
	<ele>1006.60</ele>
	<time>2025-04-29T10:33:06.000Z</time>
</trkpt>
<trkpt lat="45.9170930" lon="10.3161380">
	<ele>1006.20</ele>
	<time>2025-04-29T10:33:07.000Z</time>
</trkpt>
<trkpt lat="45.9170920" lon="10.3161280">
	<ele>1005.80</ele>
	<time>2025-04-29T10:33:08.000Z</time>
</trkpt>
<trkpt lat="45.9170940" lon="10.3161140">
	<ele>1005.20</ele>
	<time>2025-04-29T10:33:09.000Z</time>
</trkpt>
<trkpt lat="45.9170920" lon="10.3161060">
	<ele>1005.00</ele>
	<time>2025-04-29T10:33:10.000Z</time>
</trkpt>
<trkpt lat="45.9171150" lon="10.3161120">
	<ele>1004.80</ele>
	<time>2025-04-29T10:33:11.000Z</time>
</trkpt>
<trkpt lat="45.9171340" lon="10.3161130">
	<ele>1004.40</ele>
	<time>2025-04-29T10:33:12.000Z</time>
</trkpt>
<trkpt lat="45.9171510" lon="10.3161140">
	<ele>1004.00</ele>
	<time>2025-04-29T10:33:13.000Z</time>
</trkpt>
<trkpt lat="45.9171780" lon="10.3161160">
	<ele>1003.80</ele>
	<time>2025-04-29T10:33:14.000Z</time>
</trkpt>
<trkpt lat="45.9172000" lon="10.3161150">
	<ele>1003.40</ele>
	<time>2025-04-29T10:33:15.000Z</time>
</trkpt>
<trkpt lat="45.9172300" lon="10.3161250">
	<ele>1003.20</ele>
	<time>2025-04-29T10:33:16.000Z</time>
</trkpt>
<trkpt lat="45.9172490" lon="10.3161200">
	<ele>1002.80</ele>
	<time>2025-04-29T10:33:17.000Z</time>
</trkpt>
<trkpt lat="45.9172540" lon="10.3161000">
	<ele>1002.20</ele>
	<time>2025-04-29T10:33:18.000Z</time>
</trkpt>
<trkpt lat="45.9172530" lon="10.3160700">
	<ele>1001.80</ele>
	<time>2025-04-29T10:33:19.000Z</time>
</trkpt>
<trkpt lat="45.9172480" lon="10.3160470">
	<ele>1001.20</ele>
	<time>2025-04-29T10:33:20.000Z</time>
</trkpt>
<trkpt lat="45.9172500" lon="10.3160250">
	<ele>1001.00</ele>
	<time>2025-04-29T10:33:21.000Z</time>
</trkpt>
<trkpt lat="45.9172730" lon="10.3160270">
	<ele>1000.60</ele>
	<time>2025-04-29T10:33:22.000Z</time>
</trkpt>
<trkpt lat="45.9173040" lon="10.3160260">
	<ele>1000.40</ele>
	<time>2025-04-29T10:33:23.000Z</time>
</trkpt>
<trkpt lat="45.9173120" lon="10.3160270">
	<ele>1000.20</ele>
	<time>2025-04-29T10:33:24.000Z</time>
</trkpt>
<trkpt lat="45.9173120" lon="10.3160160">
	<ele>1000.00</ele>
	<time>2025-04-29T10:33:25.000Z</time>
</trkpt>
<trkpt lat="45.9173140" lon="10.3160050">
	<ele>999.60</ele>
	<time>2025-04-29T10:33:26.000Z</time>
</trkpt>
<trkpt lat="45.9173220" lon="10.3159940">
	<ele>999.20</ele>
	<time>2025-04-29T10:33:27.000Z</time>
</trkpt>
<trkpt lat="45.9173170" lon="10.3159740">
	<ele>998.80</ele>
	<time>2025-04-29T10:33:28.000Z</time>
</trkpt>
<trkpt lat="45.9173270" lon="10.3159710">
	<ele>998.20</ele>
	<time>2025-04-29T10:33:29.000Z</time>
</trkpt>
<trkpt lat="45.9173270" lon="10.3159660">
	<ele>997.80</ele>
	<time>2025-04-29T10:33:30.000Z</time>
</trkpt>
<trkpt lat="45.9173320" lon="10.3159660">
	<ele>997.40</ele>
	<time>2025-04-29T10:33:31.000Z</time>
</trkpt>
<trkpt lat="45.9173390" lon="10.3159750">
	<ele>997.00</ele>
	<time>2025-04-29T10:33:32.000Z</time>
</trkpt>
<trkpt lat="45.9173420" lon="10.3159800">
	<ele>996.60</ele>
	<time>2025-04-29T10:33:33.000Z</time>
</trkpt>
<trkpt lat="45.9172930" lon="10.3159420">
	<ele>996.40</ele>
	<time>2025-04-29T10:33:34.000Z</time>
</trkpt>
<trkpt lat="45.9172460" lon="10.3158960">
	<ele>996.20</ele>
	<time>2025-04-29T10:33:35.000Z</time>
</trkpt>
<trkpt lat="45.9172210" lon="10.3158880">
	<ele>996.00</ele>
	<time>2025-04-29T10:33:36.000Z</time>
</trkpt>
<trkpt lat="45.9172130" lon="10.3158760">
	<ele>996.00</ele>
	<time>2025-04-29T10:33:37.000Z</time>
</trkpt>
<trkpt lat="45.9172250" lon="10.3158890">
	<ele>996.00</ele>
	<time>2025-04-29T10:33:38.000Z</time>
</trkpt>
<trkpt lat="45.9172480" lon="10.3159160">
	<ele>996.00</ele>
	<time>2025-04-29T10:33:39.000Z</time>
</trkpt>
<trkpt lat="45.9172840" lon="10.3159440">
	<ele>996.00</ele>
	<time>2025-04-29T10:33:40.000Z</time>
</trkpt>
<trkpt lat="45.9173090" lon="10.3159510">
	<ele>996.00</ele>
	<time>2025-04-29T10:33:41.000Z</time>
</trkpt>
<trkpt lat="45.9173350" lon="10.3159490">
	<ele>996.00</ele>
	<time>2025-04-29T10:33:42.000Z</time>
</trkpt>
<trkpt lat="45.9173560" lon="10.3159470">
	<ele>996.00</ele>
	<time>2025-04-29T10:33:43.000Z</time>
</trkpt>
<trkpt lat="45.9173790" lon="10.3159420">
	<ele>995.80</ele>
	<time>2025-04-29T10:33:44.000Z</time>
</trkpt>
<trkpt lat="45.9173970" lon="10.3159360">
	<ele>995.80</ele>
	<time>2025-04-29T10:33:45.000Z</time>
</trkpt>
<trkpt lat="45.9174170" lon="10.3159400">
	<ele>995.40</ele>
	<time>2025-04-29T10:33:46.000Z</time>
</trkpt>
<trkpt lat="45.9174300" lon="10.3159360">
	<ele>995.00</ele>
	<time>2025-04-29T10:33:47.000Z</time>
</trkpt>
<trkpt lat="45.9174360" lon="10.3159210">
	<ele>994.80</ele>
	<time>2025-04-29T10:33:48.000Z</time>
</trkpt>
<trkpt lat="45.9174510" lon="10.3159170">
	<ele>994.60</ele>
	<time>2025-04-29T10:33:49.000Z</time>
</trkpt>
<trkpt lat="45.9174670" lon="10.3159170">
	<ele>994.40</ele>
	<time>2025-04-29T10:33:50.000Z</time>
</trkpt>
<trkpt lat="45.9174660" lon="10.3159000">
	<ele>994.00</ele>
	<time>2025-04-29T10:33:51.000Z</time>
</trkpt>
<trkpt lat="45.9174610" lon="10.3158750">
	<ele>993.60</ele>
	<time>2025-04-29T10:33:52.000Z</time>
</trkpt>
<trkpt lat="45.9174500" lon="10.3158410">
	<ele>993.40</ele>
	<time>2025-04-29T10:33:53.000Z</time>
</trkpt>
<trkpt lat="45.9174280" lon="10.3158160">
	<ele>993.20</ele>
	<time>2025-04-29T10:33:54.000Z</time>
</trkpt>
<trkpt lat="45.9174180" lon="10.3158010">
	<ele>992.80</ele>
	<time>2025-04-29T10:33:55.000Z</time>
</trkpt>
<trkpt lat="45.9174200" lon="10.3157910">
	<ele>992.40</ele>
	<time>2025-04-29T10:33:56.000Z</time>
</trkpt>
<trkpt lat="45.9174130" lon="10.3157820">
	<ele>992.00</ele>
	<time>2025-04-29T10:33:57.000Z</time>
</trkpt>
<trkpt lat="45.9174110" lon="10.3157750">
	<ele>991.80</ele>
	<time>2025-04-29T10:33:58.000Z</time>
</trkpt>
<trkpt lat="45.9173990" lon="10.3157580">
	<ele>991.40</ele>
	<time>2025-04-29T10:33:59.000Z</time>
</trkpt>
<trkpt lat="45.9173950" lon="10.3157380">
	<ele>991.00</ele>
	<time>2025-04-29T10:34:00.000Z</time>
</trkpt>
<trkpt lat="45.9173810" lon="10.3157040">
	<ele>990.80</ele>
	<time>2025-04-29T10:34:01.000Z</time>
</trkpt>
<trkpt lat="45.9173790" lon="10.3156800">
	<ele>990.60</ele>
	<time>2025-04-29T10:34:02.000Z</time>
</trkpt>
<trkpt lat="45.9173810" lon="10.3156660">
	<ele>990.40</ele>
	<time>2025-04-29T10:34:03.000Z</time>
</trkpt>
<trkpt lat="45.9173690" lon="10.3156400">
	<ele>990.20</ele>
	<time>2025-04-29T10:34:04.000Z</time>
</trkpt>
<trkpt lat="45.9173630" lon="10.3156040">
	<ele>990.00</ele>
	<time>2025-04-29T10:34:05.000Z</time>
</trkpt>
<trkpt lat="45.9173790" lon="10.3155950">
	<ele>990.00</ele>
	<time>2025-04-29T10:34:06.000Z</time>
</trkpt>
<trkpt lat="45.9173970" lon="10.3155850">
	<ele>989.80</ele>
	<time>2025-04-29T10:34:07.000Z</time>
</trkpt>
<trkpt lat="45.9174090" lon="10.3155700">
	<ele>989.60</ele>
	<time>2025-04-29T10:34:08.000Z</time>
</trkpt>
<trkpt lat="45.9173910" lon="10.3155370">
	<ele>989.20</ele>
	<time>2025-04-29T10:34:09.000Z</time>
</trkpt>
<trkpt lat="45.9173820" lon="10.3155170">
	<ele>989.00</ele>
	<time>2025-04-29T10:34:10.000Z</time>
</trkpt>
<trkpt lat="45.9173930" lon="10.3155230">
	<ele>988.80</ele>
	<time>2025-04-29T10:34:11.000Z</time>
</trkpt>
<trkpt lat="45.9173970" lon="10.3155240">
	<ele>988.40</ele>
	<time>2025-04-29T10:34:12.000Z</time>
</trkpt>
<trkpt lat="45.9174070" lon="10.3155220">
	<ele>988.00</ele>
	<time>2025-04-29T10:34:13.000Z</time>
</trkpt>
<trkpt lat="45.9174040" lon="10.3155050">
	<ele>987.80</ele>
	<time>2025-04-29T10:34:14.000Z</time>
</trkpt>
<trkpt lat="45.9174140" lon="10.3155010">
	<ele>987.60</ele>
	<time>2025-04-29T10:34:15.000Z</time>
</trkpt>
<trkpt lat="45.9174280" lon="10.3155060">
	<ele>987.40</ele>
	<time>2025-04-29T10:34:16.000Z</time>
</trkpt>
<trkpt lat="45.9174670" lon="10.3155240">
	<ele>987.00</ele>
	<time>2025-04-29T10:34:17.000Z</time>
</trkpt>
<trkpt lat="45.9175020" lon="10.3155350">
	<ele>986.80</ele>
	<time>2025-04-29T10:34:18.000Z</time>
</trkpt>
<trkpt lat="45.9175250" lon="10.3155310">
	<ele>986.20</ele>
	<time>2025-04-29T10:34:19.000Z</time>
</trkpt>
<trkpt lat="45.9175240" lon="10.3155090">
	<ele>986.00</ele>
	<time>2025-04-29T10:34:20.000Z</time>
</trkpt>
<trkpt lat="45.9175220" lon="10.3154940">
	<ele>985.60</ele>
	<time>2025-04-29T10:34:21.000Z</time>
</trkpt>
<trkpt lat="45.9175150" lon="10.3154810">
	<ele>985.20</ele>
	<time>2025-04-29T10:34:22.000Z</time>
</trkpt>
<trkpt lat="45.9175160" lon="10.3154760">
	<ele>985.00</ele>
	<time>2025-04-29T10:34:23.000Z</time>
</trkpt>
<trkpt lat="45.9175270" lon="10.3154750">
	<ele>984.60</ele>
	<time>2025-04-29T10:34:24.000Z</time>
</trkpt>
<trkpt lat="45.9175450" lon="10.3154850">
	<ele>984.60</ele>
	<time>2025-04-29T10:34:25.000Z</time>
</trkpt>
<trkpt lat="45.9175700" lon="10.3154920">
	<ele>984.40</ele>
	<time>2025-04-29T10:34:26.000Z</time>
</trkpt>
<trkpt lat="45.9175980" lon="10.3154960">
	<ele>984.00</ele>
	<time>2025-04-29T10:34:27.000Z</time>
</trkpt>
<trkpt lat="45.9176230" lon="10.3155140">
	<ele>984.00</ele>
	<time>2025-04-29T10:34:28.000Z</time>
</trkpt>
<trkpt lat="45.9176380" lon="10.3155220">
	<ele>983.80</ele>
	<time>2025-04-29T10:34:29.000Z</time>
</trkpt>
<trkpt lat="45.9176460" lon="10.3155160">
	<ele>983.40</ele>
	<time>2025-04-29T10:34:30.000Z</time>
</trkpt>
<trkpt lat="45.9176460" lon="10.3155110">
	<ele>983.00</ele>
	<time>2025-04-29T10:34:31.000Z</time>
</trkpt>
<trkpt lat="45.9176420" lon="10.3154840">
	<ele>982.60</ele>
	<time>2025-04-29T10:34:32.000Z</time>
</trkpt>
<trkpt lat="45.9176370" lon="10.3154560">
	<ele>982.40</ele>
	<time>2025-04-29T10:34:33.000Z</time>
</trkpt>
<trkpt lat="45.9176150" lon="10.3153960">
	<ele>982.20</ele>
	<time>2025-04-29T10:34:34.000Z</time>
</trkpt>
<trkpt lat="45.9175990" lon="10.3153670">
	<ele>981.80</ele>
	<time>2025-04-29T10:34:35.000Z</time>
</trkpt>
<trkpt lat="45.9176020" lon="10.3153550">
	<ele>981.60</ele>
	<time>2025-04-29T10:34:36.000Z</time>
</trkpt>
<trkpt lat="45.9175910" lon="10.3153320">
	<ele>981.60</ele>
	<time>2025-04-29T10:34:37.000Z</time>
</trkpt>
<trkpt lat="45.9175820" lon="10.3153160">
	<ele>981.20</ele>
	<time>2025-04-29T10:34:38.000Z</time>
</trkpt>
<trkpt lat="45.9175870" lon="10.3153120">
	<ele>981.20</ele>
	<time>2025-04-29T10:34:39.000Z</time>
</trkpt>
<trkpt lat="45.9176050" lon="10.3153010">
	<ele>980.80</ele>
	<time>2025-04-29T10:34:40.000Z</time>
</trkpt>
<trkpt lat="45.9176140" lon="10.3152930">
	<ele>980.40</ele>
	<time>2025-04-29T10:34:41.000Z</time>
</trkpt>
<trkpt lat="45.9176210" lon="10.3152850">
	<ele>980.00</ele>
	<time>2025-04-29T10:34:42.000Z</time>
</trkpt>
<trkpt lat="45.9176220" lon="10.3152810">
	<ele>979.80</ele>
	<time>2025-04-29T10:34:43.000Z</time>
</trkpt>
<trkpt lat="45.9176360" lon="10.3153030">
	<ele>979.60</ele>
	<time>2025-04-29T10:34:44.000Z</time>
</trkpt>
<trkpt lat="45.9176400" lon="10.3153190">
	<ele>979.40</ele>
	<time>2025-04-29T10:34:45.000Z</time>
</trkpt>
<trkpt lat="45.9176390" lon="10.3153220">
	<ele>979.20</ele>
	<time>2025-04-29T10:34:46.000Z</time>
</trkpt>
<trkpt lat="45.9176360" lon="10.3153250">
	<ele>979.00</ele>
	<time>2025-04-29T10:34:47.000Z</time>
</trkpt>
<trkpt lat="45.9176330" lon="10.3153080">
	<ele>978.80</ele>
	<time>2025-04-29T10:34:48.000Z</time>
</trkpt>
<trkpt lat="45.9176310" lon="10.3152940">
	<ele>978.40</ele>
	<time>2025-04-29T10:34:49.000Z</time>
</trkpt>
<trkpt lat="45.9176360" lon="10.3152820">
	<ele>977.80</ele>
	<time>2025-04-29T10:34:50.000Z</time>
</trkpt>
<trkpt lat="45.9176430" lon="10.3152650">
	<ele>977.60</ele>
	<time>2025-04-29T10:34:51.000Z</time>
</trkpt>
<trkpt lat="45.9176540" lon="10.3152630">
	<ele>977.20</ele>
	<time>2025-04-29T10:34:52.000Z</time>
</trkpt>
<trkpt lat="45.9176620" lon="10.3152530">
	<ele>976.80</ele>
	<time>2025-04-29T10:34:53.000Z</time>
</trkpt>
<trkpt lat="45.9176770" lon="10.3152560">
	<ele>976.40</ele>
	<time>2025-04-29T10:34:54.000Z</time>
</trkpt>
<trkpt lat="45.9176950" lon="10.3152650">
	<ele>976.00</ele>
	<time>2025-04-29T10:34:55.000Z</time>
</trkpt>
<trkpt lat="45.9177180" lon="10.3152760">
	<ele>975.60</ele>
	<time>2025-04-29T10:34:56.000Z</time>
</trkpt>
<trkpt lat="45.9177390" lon="10.3152720">
	<ele>975.40</ele>
	<time>2025-04-29T10:34:57.000Z</time>
</trkpt>
<trkpt lat="45.9177400" lon="10.3152640">
	<ele>975.20</ele>
	<time>2025-04-29T10:34:58.000Z</time>
</trkpt>
<trkpt lat="45.9177520" lon="10.3152660">
	<ele>974.80</ele>
	<time>2025-04-29T10:34:59.000Z</time>
</trkpt>
<trkpt lat="45.9177690" lon="10.3152770">
	<ele>974.60</ele>
	<time>2025-04-29T10:35:00.000Z</time>
</trkpt>
<trkpt lat="45.9177910" lon="10.3152910">
	<ele>974.40</ele>
	<time>2025-04-29T10:35:01.000Z</time>
</trkpt>
<trkpt lat="45.9178120" lon="10.3153030">
	<ele>974.00</ele>
	<time>2025-04-29T10:35:02.000Z</time>
</trkpt>
<trkpt lat="45.9178370" lon="10.3153110">
	<ele>973.60</ele>
	<time>2025-04-29T10:35:03.000Z</time>
</trkpt>
<trkpt lat="45.9178670" lon="10.3153240">
	<ele>973.60</ele>
	<time>2025-04-29T10:35:04.000Z</time>
</trkpt>
<trkpt lat="45.9178920" lon="10.3153280">
	<ele>973.20</ele>
	<time>2025-04-29T10:35:05.000Z</time>
</trkpt>
<trkpt lat="45.9179060" lon="10.3153250">
	<ele>972.80</ele>
	<time>2025-04-29T10:35:06.000Z</time>
</trkpt>
<trkpt lat="45.9179090" lon="10.3153190">
	<ele>972.60</ele>
	<time>2025-04-29T10:35:07.000Z</time>
</trkpt>
<trkpt lat="45.9179160" lon="10.3153060">
	<ele>972.20</ele>
	<time>2025-04-29T10:35:08.000Z</time>
</trkpt>
<trkpt lat="45.9179360" lon="10.3153020">
	<ele>972.00</ele>
	<time>2025-04-29T10:35:09.000Z</time>
</trkpt>
<trkpt lat="45.9179530" lon="10.3152970">
	<ele>971.80</ele>
	<time>2025-04-29T10:35:10.000Z</time>
</trkpt>
<trkpt lat="45.9179880" lon="10.3152940">
	<ele>971.40</ele>
	<time>2025-04-29T10:35:11.000Z</time>
</trkpt>
<trkpt lat="45.9180140" lon="10.3152860">
	<ele>971.00</ele>
	<time>2025-04-29T10:35:12.000Z</time>
</trkpt>
<trkpt lat="45.9180300" lon="10.3152740">
	<ele>970.80</ele>
	<time>2025-04-29T10:35:13.000Z</time>
</trkpt>
<trkpt lat="45.9180530" lon="10.3152610">
	<ele>970.40</ele>
	<time>2025-04-29T10:35:14.000Z</time>
</trkpt>
<trkpt lat="45.9180690" lon="10.3152510">
	<ele>970.00</ele>
	<time>2025-04-29T10:35:15.000Z</time>
</trkpt>
<trkpt lat="45.9180790" lon="10.3152400">
	<ele>970.00</ele>
	<time>2025-04-29T10:35:16.000Z</time>
</trkpt>
<trkpt lat="45.9180860" lon="10.3152200">
	<ele>969.80</ele>
	<time>2025-04-29T10:35:17.000Z</time>
</trkpt>
<trkpt lat="45.9180910" lon="10.3151820">
	<ele>969.60</ele>
	<time>2025-04-29T10:35:18.000Z</time>
</trkpt>
<trkpt lat="45.9180890" lon="10.3151510">
	<ele>969.40</ele>
	<time>2025-04-29T10:35:19.000Z</time>
</trkpt>
<trkpt lat="45.9181000" lon="10.3151400">
	<ele>969.40</ele>
	<time>2025-04-29T10:35:20.000Z</time>
</trkpt>
<trkpt lat="45.9181370" lon="10.3151610">
	<ele>969.40</ele>
	<time>2025-04-29T10:35:21.000Z</time>
</trkpt>
<trkpt lat="45.9181660" lon="10.3151840">
	<ele>969.20</ele>
	<time>2025-04-29T10:35:22.000Z</time>
</trkpt>
<trkpt lat="45.9181710" lon="10.3151920">
	<ele>969.20</ele>
	<time>2025-04-29T10:35:23.000Z</time>
</trkpt>
<trkpt lat="45.9181750" lon="10.3151980">
	<ele>969.20</ele>
	<time>2025-04-29T10:35:24.000Z</time>
</trkpt>
<trkpt lat="45.9181770" lon="10.3152060">
	<ele>969.00</ele>
	<time>2025-04-29T10:35:25.000Z</time>
</trkpt>
<trkpt lat="45.9181750" lon="10.3152070">
	<ele>968.60</ele>
	<time>2025-04-29T10:35:26.000Z</time>
</trkpt>
<trkpt lat="45.9181710" lon="10.3152050">
	<ele>968.60</ele>
	<time>2025-04-29T10:35:27.000Z</time>
</trkpt>
<trkpt lat="45.9181820" lon="10.3152220">
	<ele>968.20</ele>
	<time>2025-04-29T10:35:28.000Z</time>
</trkpt>
<trkpt lat="45.9181950" lon="10.3152340">
	<ele>968.00</ele>
	<time>2025-04-29T10:35:29.000Z</time>
</trkpt>
<trkpt lat="45.9182120" lon="10.3152360">
	<ele>968.00</ele>
	<time>2025-04-29T10:35:30.000Z</time>
</trkpt>
<trkpt lat="45.9182150" lon="10.3152230">
	<ele>967.80</ele>
	<time>2025-04-29T10:35:31.000Z</time>
</trkpt>
<trkpt lat="45.9182070" lon="10.3152020">
	<ele>967.80</ele>
	<time>2025-04-29T10:35:32.000Z</time>
</trkpt>
<trkpt lat="45.9182000" lon="10.3151780">
	<ele>967.80</ele>
	<time>2025-04-29T10:35:33.000Z</time>
</trkpt>
<trkpt lat="45.9181750" lon="10.3151290">
	<ele>967.80</ele>
	<time>2025-04-29T10:35:34.000Z</time>
</trkpt>
<trkpt lat="45.9181710" lon="10.3151050">
	<ele>967.60</ele>
	<time>2025-04-29T10:35:35.000Z</time>
</trkpt>
<trkpt lat="45.9181700" lon="10.3150990">
	<ele>967.40</ele>
	<time>2025-04-29T10:35:36.000Z</time>
</trkpt>
<trkpt lat="45.9181680" lon="10.3150900">
	<ele>967.20</ele>
	<time>2025-04-29T10:35:37.000Z</time>
</trkpt>
<trkpt lat="45.9181690" lon="10.3150820">
	<ele>967.00</ele>
	<time>2025-04-29T10:35:38.000Z</time>
</trkpt>
<trkpt lat="45.9181620" lon="10.3150730">
	<ele>967.00</ele>
	<time>2025-04-29T10:35:39.000Z</time>
</trkpt>
<trkpt lat="45.9181600" lon="10.3150600">
	<ele>966.60</ele>
	<time>2025-04-29T10:35:40.000Z</time>
</trkpt>
<trkpt lat="45.9181540" lon="10.3150410">
	<ele>966.40</ele>
	<time>2025-04-29T10:35:41.000Z</time>
</trkpt>
<trkpt lat="45.9181480" lon="10.3150160">
	<ele>966.20</ele>
	<time>2025-04-29T10:35:42.000Z</time>
</trkpt>
<trkpt lat="45.9181450" lon="10.3149980">
	<ele>966.00</ele>
	<time>2025-04-29T10:35:43.000Z</time>
</trkpt>
<trkpt lat="45.9181490" lon="10.3149790">
	<ele>965.80</ele>
	<time>2025-04-29T10:35:44.000Z</time>
</trkpt>
<trkpt lat="45.9181490" lon="10.3149620">
	<ele>965.80</ele>
	<time>2025-04-29T10:35:45.000Z</time>
</trkpt>
<trkpt lat="45.9181480" lon="10.3149530">
	<ele>965.60</ele>
	<time>2025-04-29T10:35:46.000Z</time>
</trkpt>
<trkpt lat="45.9181410" lon="10.3149430">
	<ele>965.20</ele>
	<time>2025-04-29T10:35:47.000Z</time>
</trkpt>
<trkpt lat="45.9181320" lon="10.3149290">
	<ele>965.00</ele>
	<time>2025-04-29T10:35:48.000Z</time>
</trkpt>
<trkpt lat="45.9181270" lon="10.3149120">
	<ele>964.80</ele>
	<time>2025-04-29T10:35:49.000Z</time>
</trkpt>
<trkpt lat="45.9181130" lon="10.3148930">
	<ele>964.60</ele>
	<time>2025-04-29T10:35:50.000Z</time>
</trkpt>
<trkpt lat="45.9181060" lon="10.3148780">
	<ele>964.60</ele>
	<time>2025-04-29T10:35:51.000Z</time>
</trkpt>
<trkpt lat="45.9181080" lon="10.3148680">
	<ele>964.20</ele>
	<time>2025-04-29T10:35:52.000Z</time>
</trkpt>
<trkpt lat="45.9181030" lon="10.3148530">
	<ele>964.00</ele>
	<time>2025-04-29T10:35:53.000Z</time>
</trkpt>
<trkpt lat="45.9180900" lon="10.3148320">
	<ele>963.80</ele>
	<time>2025-04-29T10:35:54.000Z</time>
</trkpt>
<trkpt lat="45.9180770" lon="10.3148180">
	<ele>963.60</ele>
	<time>2025-04-29T10:35:55.000Z</time>
</trkpt>
<trkpt lat="45.9180650" lon="10.3147980">
	<ele>963.40</ele>
	<time>2025-04-29T10:35:56.000Z</time>
</trkpt>
<trkpt lat="45.9180640" lon="10.3147780">
	<ele>963.20</ele>
	<time>2025-04-29T10:35:57.000Z</time>
</trkpt>
<trkpt lat="45.9180530" lon="10.3147550">
	<ele>963.20</ele>
	<time>2025-04-29T10:35:58.000Z</time>
</trkpt>
<trkpt lat="45.9180400" lon="10.3147380">
	<ele>963.00</ele>
	<time>2025-04-29T10:35:59.000Z</time>
</trkpt>
<trkpt lat="45.9180250" lon="10.3147120">
	<ele>962.60</ele>
	<time>2025-04-29T10:36:00.000Z</time>
</trkpt>
<trkpt lat="45.9180090" lon="10.3146920">
	<ele>962.60</ele>
	<time>2025-04-29T10:36:01.000Z</time>
</trkpt>
<trkpt lat="45.9180040" lon="10.3146730">
	<ele>962.20</ele>
	<time>2025-04-29T10:36:02.000Z</time>
</trkpt>
<trkpt lat="45.9179930" lon="10.3146450">
	<ele>962.00</ele>
	<time>2025-04-29T10:36:03.000Z</time>
</trkpt>
<trkpt lat="45.9179730" lon="10.3146180">
	<ele>961.80</ele>
	<time>2025-04-29T10:36:04.000Z</time>
</trkpt>
<trkpt lat="45.9179710" lon="10.3146140">
	<ele>961.60</ele>
	<time>2025-04-29T10:36:05.000Z</time>
</trkpt>
<trkpt lat="45.9179610" lon="10.3145880">
	<ele>961.60</ele>
	<time>2025-04-29T10:36:06.000Z</time>
</trkpt>
<trkpt lat="45.9179510" lon="10.3145680">
	<ele>961.20</ele>
	<time>2025-04-29T10:36:07.000Z</time>
</trkpt>
<trkpt lat="45.9179530" lon="10.3145670">
	<ele>961.00</ele>
	<time>2025-04-29T10:36:08.000Z</time>
</trkpt>
<trkpt lat="45.9179570" lon="10.3145620">
	<ele>960.80</ele>
	<time>2025-04-29T10:36:09.000Z</time>
</trkpt>
<trkpt lat="45.9179540" lon="10.3145540">
	<ele>960.80</ele>
	<time>2025-04-29T10:36:10.000Z</time>
</trkpt>
<trkpt lat="45.9179660" lon="10.3145500">
	<ele>960.80</ele>
	<time>2025-04-29T10:36:11.000Z</time>
</trkpt>
<trkpt lat="45.9179550" lon="10.3145200">
	<ele>960.60</ele>
	<time>2025-04-29T10:36:12.000Z</time>
</trkpt>
<trkpt lat="45.9179410" lon="10.3144950">
	<ele>960.40</ele>
	<time>2025-04-29T10:36:13.000Z</time>
</trkpt>
<trkpt lat="45.9179370" lon="10.3144790">
	<ele>960.00</ele>
	<time>2025-04-29T10:36:14.000Z</time>
</trkpt>
<trkpt lat="45.9179320" lon="10.3144960">
	<ele>959.80</ele>
	<time>2025-04-29T10:36:15.000Z</time>
</trkpt>
<trkpt lat="45.9179190" lon="10.3144840">
	<ele>959.60</ele>
	<time>2025-04-29T10:36:16.000Z</time>
</trkpt>
<trkpt lat="45.9179200" lon="10.3144810">
	<ele>959.60</ele>
	<time>2025-04-29T10:36:17.000Z</time>
</trkpt>
<trkpt lat="45.9179290" lon="10.3144960">
	<ele>959.60</ele>
	<time>2025-04-29T10:36:18.000Z</time>
</trkpt>
<trkpt lat="45.9179360" lon="10.3145240">
	<ele>959.60</ele>
	<time>2025-04-29T10:36:19.000Z</time>
</trkpt>
<trkpt lat="45.9179280" lon="10.3145240">
	<ele>959.60</ele>
	<time>2025-04-29T10:36:20.000Z</time>
</trkpt>
<trkpt lat="45.9179150" lon="10.3145150">
	<ele>959.60</ele>
	<time>2025-04-29T10:36:21.000Z</time>
</trkpt>
<trkpt lat="45.9179080" lon="10.3145170">
	<ele>959.60</ele>
	<time>2025-04-29T10:36:22.000Z</time>
</trkpt>
<trkpt lat="45.9179010" lon="10.3145220">
	<ele>959.60</ele>
	<time>2025-04-29T10:36:23.000Z</time>
</trkpt>
<trkpt lat="45.9178970" lon="10.3145280">
	<ele>959.40</ele>
	<time>2025-04-29T10:36:24.000Z</time>
</trkpt>
<trkpt lat="45.9178950" lon="10.3145290">
	<ele>959.40</ele>
	<time>2025-04-29T10:36:25.000Z</time>
</trkpt>
<trkpt lat="45.9178950" lon="10.3145250">
	<ele>959.40</ele>
	<time>2025-04-29T10:36:26.000Z</time>
</trkpt>
<trkpt lat="45.9179010" lon="10.3145280">
	<ele>959.40</ele>
	<time>2025-04-29T10:36:27.000Z</time>
</trkpt>
<trkpt lat="45.9179130" lon="10.3145360">
	<ele>959.40</ele>
	<time>2025-04-29T10:36:28.000Z</time>
</trkpt>
<trkpt lat="45.9179160" lon="10.3145430">
	<ele>959.40</ele>
	<time>2025-04-29T10:36:29.000Z</time>
</trkpt>
<trkpt lat="45.9179140" lon="10.3145510">
	<ele>959.40</ele>
	<time>2025-04-29T10:36:30.000Z</time>
</trkpt>
<trkpt lat="45.9179010" lon="10.3145810">
	<ele>959.40</ele>
	<time>2025-04-29T10:36:31.000Z</time>
</trkpt>
<trkpt lat="45.9179000" lon="10.3145980">
	<ele>959.40</ele>
	<time>2025-04-29T10:36:32.000Z</time>
</trkpt>
<trkpt lat="45.9179010" lon="10.3146080">
	<ele>959.40</ele>
	<time>2025-04-29T10:36:33.000Z</time>
</trkpt>
<trkpt lat="45.9179030" lon="10.3146130">
	<ele>959.40</ele>
	<time>2025-04-29T10:36:34.000Z</time>
</trkpt>
<trkpt lat="45.9179090" lon="10.3146150">
	<ele>959.40</ele>
	<time>2025-04-29T10:36:35.000Z</time>
</trkpt>
<trkpt lat="45.9179160" lon="10.3146180">
	<ele>959.40</ele>
	<time>2025-04-29T10:36:36.000Z</time>
</trkpt>
<trkpt lat="45.9179230" lon="10.3146240">
	<ele>959.20</ele>
	<time>2025-04-29T10:36:37.000Z</time>
</trkpt>
<trkpt lat="45.9179260" lon="10.3146270">
	<ele>959.20</ele>
	<time>2025-04-29T10:36:38.000Z</time>
</trkpt>
<trkpt lat="45.9179260" lon="10.3146270">
	<ele>959.20</ele>
	<time>2025-04-29T10:36:39.000Z</time>
</trkpt>
<trkpt lat="45.9179280" lon="10.3146280">
	<ele>959.00</ele>
	<time>2025-04-29T10:36:40.000Z</time>
</trkpt>
<trkpt lat="45.9179290" lon="10.3146280">
	<ele>959.00</ele>
	<time>2025-04-29T10:36:41.000Z</time>
</trkpt>
<trkpt lat="45.9179290" lon="10.3146320">
	<ele>959.00</ele>
	<time>2025-04-29T10:36:42.000Z</time>
</trkpt>
<trkpt lat="45.9179220" lon="10.3146300">
	<ele>959.00</ele>
	<time>2025-04-29T10:36:43.000Z</time>
</trkpt>
<trkpt lat="45.9179200" lon="10.3146340">
	<ele>959.00</ele>
	<time>2025-04-29T10:36:44.000Z</time>
</trkpt>
<trkpt lat="45.9179190" lon="10.3146330">
	<ele>959.00</ele>
	<time>2025-04-29T10:36:45.000Z</time>
</trkpt>
<trkpt lat="45.9179190" lon="10.3146330">
	<ele>959.00</ele>
	<time>2025-04-29T10:36:46.000Z</time>
</trkpt>
<trkpt lat="45.9179190" lon="10.3146330">
	<ele>959.00</ele>
	<time>2025-04-29T10:36:47.000Z</time>
</trkpt>
<trkpt lat="45.9179170" lon="10.3146290">
	<ele>959.00</ele>
	<time>2025-04-29T10:36:48.000Z</time>
</trkpt>
<trkpt lat="45.9179130" lon="10.3146180">
	<ele>959.20</ele>
	<time>2025-04-29T10:36:49.000Z</time>
</trkpt>
<trkpt lat="45.9179090" lon="10.3146090">
	<ele>959.20</ele>
	<time>2025-04-29T10:36:50.000Z</time>
</trkpt>
<trkpt lat="45.9179090" lon="10.3145920">
	<ele>959.40</ele>
	<time>2025-04-29T10:36:51.000Z</time>
</trkpt>
<trkpt lat="45.9179090" lon="10.3145750">
	<ele>959.40</ele>
	<time>2025-04-29T10:36:52.000Z</time>
</trkpt>
<trkpt lat="45.9179080" lon="10.3145660">
	<ele>959.60</ele>
	<time>2025-04-29T10:36:53.000Z</time>
</trkpt>
<trkpt lat="45.9178970" lon="10.3145540">
	<ele>959.60</ele>
	<time>2025-04-29T10:36:54.000Z</time>
</trkpt>
<trkpt lat="45.9178860" lon="10.3145490">
	<ele>959.60</ele>
	<time>2025-04-29T10:36:55.000Z</time>
</trkpt>
<trkpt lat="45.9178820" lon="10.3145450">
	<ele>959.60</ele>
	<time>2025-04-29T10:36:56.000Z</time>
</trkpt>
<trkpt lat="45.9178800" lon="10.3145450">
	<ele>959.60</ele>
	<time>2025-04-29T10:36:57.000Z</time>
</trkpt>
<trkpt lat="45.9178850" lon="10.3145480">
	<ele>959.60</ele>
	<time>2025-04-29T10:36:58.000Z</time>
</trkpt>
<trkpt lat="45.9178910" lon="10.3145520">
	<ele>959.60</ele>
	<time>2025-04-29T10:36:59.000Z</time>
</trkpt>
<trkpt lat="45.9178970" lon="10.3145550">
	<ele>959.40</ele>
	<time>2025-04-29T10:37:00.000Z</time>
</trkpt>
<trkpt lat="45.9179030" lon="10.3145570">
	<ele>959.40</ele>
	<time>2025-04-29T10:37:01.000Z</time>
</trkpt>
<trkpt lat="45.9179100" lon="10.3145570">
	<ele>959.40</ele>
	<time>2025-04-29T10:37:02.000Z</time>
</trkpt>
<trkpt lat="45.9179180" lon="10.3145560">
	<ele>959.40</ele>
	<time>2025-04-29T10:37:03.000Z</time>
</trkpt>
<trkpt lat="45.9179220" lon="10.3145550">
	<ele>959.40</ele>
	<time>2025-04-29T10:37:04.000Z</time>
</trkpt>
<trkpt lat="45.9179270" lon="10.3145540">
	<ele>959.40</ele>
	<time>2025-04-29T10:37:05.000Z</time>
</trkpt>
<trkpt lat="45.9179330" lon="10.3145550">
	<ele>959.60</ele>
	<time>2025-04-29T10:37:06.000Z</time>
</trkpt>
<trkpt lat="45.9179360" lon="10.3145550">
	<ele>959.60</ele>
	<time>2025-04-29T10:37:07.000Z</time>
</trkpt>
<trkpt lat="45.9179370" lon="10.3145460">
	<ele>959.80</ele>
	<time>2025-04-29T10:37:08.000Z</time>
</trkpt>
<trkpt lat="45.9179370" lon="10.3145430">
	<ele>959.80</ele>
	<time>2025-04-29T10:37:09.000Z</time>
</trkpt>
<trkpt lat="45.9179330" lon="10.3145390">
	<ele>959.80</ele>
	<time>2025-04-29T10:37:10.000Z</time>
</trkpt>
<trkpt lat="45.9179480" lon="10.3145470">
	<ele>959.80</ele>
	<time>2025-04-29T10:37:11.000Z</time>
</trkpt>
<trkpt lat="45.9179530" lon="10.3145490">
	<ele>959.80</ele>
	<time>2025-04-29T10:37:12.000Z</time>
</trkpt>
<trkpt lat="45.9179550" lon="10.3145500">
	<ele>959.80</ele>
	<time>2025-04-29T10:37:13.000Z</time>
</trkpt>
<trkpt lat="45.9179570" lon="10.3145370">
	<ele>959.80</ele>
	<time>2025-04-29T10:37:14.000Z</time>
</trkpt>
<trkpt lat="45.9179670" lon="10.3145280">
	<ele>959.80</ele>
	<time>2025-04-29T10:37:15.000Z</time>
</trkpt>
<trkpt lat="45.9179790" lon="10.3145130">
	<ele>959.80</ele>
	<time>2025-04-29T10:37:16.000Z</time>
</trkpt>
<trkpt lat="45.9179810" lon="10.3145160">
	<ele>959.80</ele>
	<time>2025-04-29T10:37:17.000Z</time>
</trkpt>
<trkpt lat="45.9179810" lon="10.3145150">
	<ele>959.80</ele>
	<time>2025-04-29T10:37:18.000Z</time>
</trkpt>
<trkpt lat="45.9179790" lon="10.3145120">
	<ele>959.80</ele>
	<time>2025-04-29T10:37:19.000Z</time>
</trkpt>
<trkpt lat="45.9179830" lon="10.3145170">
	<ele>960.00</ele>
	<time>2025-04-29T10:37:20.000Z</time>
</trkpt>
<trkpt lat="45.9179850" lon="10.3145200">
	<ele>960.00</ele>
	<time>2025-04-29T10:37:21.000Z</time>
</trkpt>
<trkpt lat="45.9179850" lon="10.3145190">
	<ele>960.00</ele>
	<time>2025-04-29T10:37:22.000Z</time>
</trkpt>
<trkpt lat="45.9179880" lon="10.3145240">
	<ele>960.00</ele>
	<time>2025-04-29T10:37:23.000Z</time>
</trkpt>
<trkpt lat="45.9180030" lon="10.3145440">
	<ele>960.00</ele>
	<time>2025-04-29T10:37:24.000Z</time>
</trkpt>
<trkpt lat="45.9180020" lon="10.3145410">
	<ele>960.00</ele>
	<time>2025-04-29T10:37:25.000Z</time>
</trkpt>
<trkpt lat="45.9180030" lon="10.3145410">
	<ele>960.00</ele>
	<time>2025-04-29T10:37:26.000Z</time>
</trkpt>
<trkpt lat="45.9180120" lon="10.3145460">
	<ele>960.00</ele>
	<time>2025-04-29T10:37:27.000Z</time>
</trkpt>
<trkpt lat="45.9180130" lon="10.3145490">
	<ele>960.00</ele>
	<time>2025-04-29T10:37:28.000Z</time>
</trkpt>
<trkpt lat="45.9180110" lon="10.3145490">
	<ele>960.00</ele>
	<time>2025-04-29T10:37:29.000Z</time>
</trkpt>
<trkpt lat="45.9180070" lon="10.3145460">
	<ele>960.00</ele>
	<time>2025-04-29T10:37:30.000Z</time>
</trkpt>
<trkpt lat="45.9179940" lon="10.3145230">
	<ele>959.20</ele>
	<time>2025-04-29T10:37:31.000Z</time>
</trkpt>
<trkpt lat="45.9179810" lon="10.3145040">
	<ele>959.20</ele>
	<time>2025-04-29T10:37:32.000Z</time>
</trkpt>
<trkpt lat="45.9179650" lon="10.3144720">
	<ele>959.20</ele>
	<time>2025-04-29T10:37:33.000Z</time>
</trkpt>
<trkpt lat="45.9179620" lon="10.3144690">
	<ele>959.20</ele>
	<time>2025-04-29T10:37:34.000Z</time>
</trkpt>
<trkpt lat="45.9179590" lon="10.3144580">
	<ele>959.20</ele>
	<time>2025-04-29T10:37:35.000Z</time>
</trkpt>
<trkpt lat="45.9179600" lon="10.3144490">
	<ele>959.20</ele>
	<time>2025-04-29T10:37:36.000Z</time>
</trkpt>
<trkpt lat="45.9179660" lon="10.3144380">
	<ele>959.20</ele>
	<time>2025-04-29T10:37:37.000Z</time>
</trkpt>
<trkpt lat="45.9179690" lon="10.3144290">
	<ele>959.20</ele>
	<time>2025-04-29T10:37:38.000Z</time>
</trkpt>
<trkpt lat="45.9179730" lon="10.3144220">
	<ele>959.20</ele>
	<time>2025-04-29T10:37:39.000Z</time>
</trkpt>
<trkpt lat="45.9179690" lon="10.3144040">
	<ele>959.20</ele>
	<time>2025-04-29T10:37:40.000Z</time>
</trkpt>
<trkpt lat="45.9179640" lon="10.3143800">
	<ele>958.60</ele>
	<time>2025-04-29T10:37:41.000Z</time>
</trkpt>
<trkpt lat="45.9179530" lon="10.3143580">
	<ele>958.20</ele>
	<time>2025-04-29T10:37:42.000Z</time>
</trkpt>
<trkpt lat="45.9179440" lon="10.3143360">
	<ele>958.00</ele>
	<time>2025-04-29T10:37:43.000Z</time>
</trkpt>
<trkpt lat="45.9179380" lon="10.3143090">
	<ele>957.80</ele>
	<time>2025-04-29T10:37:44.000Z</time>
</trkpt>
<trkpt lat="45.9179360" lon="10.3142840">
	<ele>957.60</ele>
	<time>2025-04-29T10:37:45.000Z</time>
</trkpt>
<trkpt lat="45.9179410" lon="10.3142660">
	<ele>957.40</ele>
	<time>2025-04-29T10:37:46.000Z</time>
</trkpt>
<trkpt lat="45.9179460" lon="10.3142480">
	<ele>957.20</ele>
	<time>2025-04-29T10:37:47.000Z</time>
</trkpt>
<trkpt lat="45.9179440" lon="10.3142300">
	<ele>956.80</ele>
	<time>2025-04-29T10:37:48.000Z</time>
</trkpt>
<trkpt lat="45.9179350" lon="10.3142070">
	<ele>956.40</ele>
	<time>2025-04-29T10:37:49.000Z</time>
</trkpt>
<trkpt lat="45.9179360" lon="10.3141910">
	<ele>956.00</ele>
	<time>2025-04-29T10:37:50.000Z</time>
</trkpt>
<trkpt lat="45.9179330" lon="10.3141760">
	<ele>955.60</ele>
	<time>2025-04-29T10:37:51.000Z</time>
</trkpt>
<trkpt lat="45.9179340" lon="10.3141650">
	<ele>955.40</ele>
	<time>2025-04-29T10:37:52.000Z</time>
</trkpt>
<trkpt lat="45.9179360" lon="10.3141600">
	<ele>955.20</ele>
	<time>2025-04-29T10:37:53.000Z</time>
</trkpt>
<trkpt lat="45.9179390" lon="10.3141690">
	<ele>955.00</ele>
	<time>2025-04-29T10:37:54.000Z</time>
</trkpt>
<trkpt lat="45.9179460" lon="10.3141670">
	<ele>954.80</ele>
	<time>2025-04-29T10:37:55.000Z</time>
</trkpt>
<trkpt lat="45.9179540" lon="10.3141680">
	<ele>954.80</ele>
	<time>2025-04-29T10:37:56.000Z</time>
</trkpt>
<trkpt lat="45.9179580" lon="10.3141630">
	<ele>954.60</ele>
	<time>2025-04-29T10:37:57.000Z</time>
</trkpt>
<trkpt lat="45.9179540" lon="10.3141590">
	<ele>954.60</ele>
	<time>2025-04-29T10:37:58.000Z</time>
</trkpt>
<trkpt lat="45.9179550" lon="10.3141620">
	<ele>954.60</ele>
	<time>2025-04-29T10:37:59.000Z</time>
</trkpt>
<trkpt lat="45.9179530" lon="10.3141610">
	<ele>954.40</ele>
	<time>2025-04-29T10:38:00.000Z</time>
</trkpt>
<trkpt lat="45.9179510" lon="10.3141620">
	<ele>954.40</ele>
	<time>2025-04-29T10:38:01.000Z</time>
</trkpt>
<trkpt lat="45.9179560" lon="10.3141600">
	<ele>954.40</ele>
	<time>2025-04-29T10:38:02.000Z</time>
</trkpt>
<trkpt lat="45.9179560" lon="10.3141640">
	<ele>954.40</ele>
	<time>2025-04-29T10:38:03.000Z</time>
</trkpt>
<trkpt lat="45.9179550" lon="10.3141670">
	<ele>954.40</ele>
	<time>2025-04-29T10:38:04.000Z</time>
</trkpt>
<trkpt lat="45.9179630" lon="10.3141690">
	<ele>954.40</ele>
	<time>2025-04-29T10:38:05.000Z</time>
</trkpt>
<trkpt lat="45.9179720" lon="10.3141750">
	<ele>954.60</ele>
	<time>2025-04-29T10:38:06.000Z</time>
</trkpt>
<trkpt lat="45.9179840" lon="10.3141730">
	<ele>954.60</ele>
	<time>2025-04-29T10:38:07.000Z</time>
</trkpt>
<trkpt lat="45.9179850" lon="10.3141740">
	<ele>954.60</ele>
	<time>2025-04-29T10:38:08.000Z</time>
</trkpt>
<trkpt lat="45.9179850" lon="10.3141750">
	<ele>954.60</ele>
	<time>2025-04-29T10:38:09.000Z</time>
</trkpt>
<trkpt lat="45.9179860" lon="10.3141760">
	<ele>954.60</ele>
	<time>2025-04-29T10:38:10.000Z</time>
</trkpt>
<trkpt lat="45.9179870" lon="10.3141770">
	<ele>954.60</ele>
	<time>2025-04-29T10:38:11.000Z</time>
</trkpt>
<trkpt lat="45.9179870" lon="10.3141780">
	<ele>954.60</ele>
	<time>2025-04-29T10:38:12.000Z</time>
</trkpt>
<trkpt lat="45.9179880" lon="10.3141790">
	<ele>954.60</ele>
	<time>2025-04-29T10:38:13.000Z</time>
</trkpt>
<trkpt lat="45.9179890" lon="10.3141790">
	<ele>954.60</ele>
	<time>2025-04-29T10:38:14.000Z</time>
</trkpt>
<trkpt lat="45.9179990" lon="10.3141810">
	<ele>954.60</ele>
	<time>2025-04-29T10:38:15.000Z</time>
</trkpt>
<trkpt lat="45.9180020" lon="10.3141790">
	<ele>954.40</ele>
	<time>2025-04-29T10:38:16.000Z</time>
</trkpt>
<trkpt lat="45.9180120" lon="10.3141810">
	<ele>954.20</ele>
	<time>2025-04-29T10:38:17.000Z</time>
</trkpt>
<trkpt lat="45.9180300" lon="10.3141820">
	<ele>954.00</ele>
	<time>2025-04-29T10:38:18.000Z</time>
</trkpt>
<trkpt lat="45.9180420" lon="10.3141860">
	<ele>953.80</ele>
	<time>2025-04-29T10:38:19.000Z</time>
</trkpt>
<trkpt lat="45.9180590" lon="10.3141900">
	<ele>953.60</ele>
	<time>2025-04-29T10:38:20.000Z</time>
</trkpt>
<trkpt lat="45.9180720" lon="10.3142030">
	<ele>953.40</ele>
	<time>2025-04-29T10:38:21.000Z</time>
</trkpt>
<trkpt lat="45.9180610" lon="10.3142070">
	<ele>953.20</ele>
	<time>2025-04-29T10:38:22.000Z</time>
</trkpt>
<trkpt lat="45.9180560" lon="10.3142090">
	<ele>953.00</ele>
	<time>2025-04-29T10:38:23.000Z</time>
</trkpt>
<trkpt lat="45.9180620" lon="10.3142180">
	<ele>953.00</ele>
	<time>2025-04-29T10:38:24.000Z</time>
</trkpt>
<trkpt lat="45.9180650" lon="10.3142320">
	<ele>952.80</ele>
	<time>2025-04-29T10:38:25.000Z</time>
</trkpt>
<trkpt lat="45.9180680" lon="10.3142500">
	<ele>952.80</ele>
	<time>2025-04-29T10:38:26.000Z</time>
</trkpt>
<trkpt lat="45.9180650" lon="10.3142370">
	<ele>952.60</ele>
	<time>2025-04-29T10:38:27.000Z</time>
</trkpt>
<trkpt lat="45.9180800" lon="10.3142420">
	<ele>952.60</ele>
	<time>2025-04-29T10:38:28.000Z</time>
</trkpt>
<trkpt lat="45.9180950" lon="10.3142520">
	<ele>952.40</ele>
	<time>2025-04-29T10:38:29.000Z</time>
</trkpt>
<trkpt lat="45.9181040" lon="10.3142620">
	<ele>952.20</ele>
	<time>2025-04-29T10:38:30.000Z</time>
</trkpt>
<trkpt lat="45.9181280" lon="10.3142790">
	<ele>952.20</ele>
	<time>2025-04-29T10:38:31.000Z</time>
</trkpt>
<trkpt lat="45.9181350" lon="10.3142820">
	<ele>952.20</ele>
	<time>2025-04-29T10:38:32.000Z</time>
</trkpt>
<trkpt lat="45.9181370" lon="10.3142920">
	<ele>952.20</ele>
	<time>2025-04-29T10:38:33.000Z</time>
</trkpt>
<trkpt lat="45.9181370" lon="10.3143040">
	<ele>952.00</ele>
	<time>2025-04-29T10:38:34.000Z</time>
</trkpt>
<trkpt lat="45.9181200" lon="10.3143000">
	<ele>952.00</ele>
	<time>2025-04-29T10:38:35.000Z</time>
</trkpt>
<trkpt lat="45.9181200" lon="10.3143060">
	<ele>951.80</ele>
	<time>2025-04-29T10:38:36.000Z</time>
</trkpt>
<trkpt lat="45.9181360" lon="10.3143210">
	<ele>951.80</ele>
	<time>2025-04-29T10:38:37.000Z</time>
</trkpt>
<trkpt lat="45.9181370" lon="10.3143240">
	<ele>951.60</ele>
	<time>2025-04-29T10:38:38.000Z</time>
</trkpt>
<trkpt lat="45.9181440" lon="10.3143340">
	<ele>951.40</ele>
	<time>2025-04-29T10:38:39.000Z</time>
</trkpt>
<trkpt lat="45.9181460" lon="10.3143410">
	<ele>951.40</ele>
	<time>2025-04-29T10:38:40.000Z</time>
</trkpt>
<trkpt lat="45.9181440" lon="10.3143280">
	<ele>951.40</ele>
	<time>2025-04-29T10:38:41.000Z</time>
</trkpt>
<trkpt lat="45.9181390" lon="10.3143100">
	<ele>951.40</ele>
	<time>2025-04-29T10:38:42.000Z</time>
</trkpt>
<trkpt lat="45.9181490" lon="10.3143040">
	<ele>951.20</ele>
	<time>2025-04-29T10:38:43.000Z</time>
</trkpt>
<trkpt lat="45.9181420" lon="10.3142800">
	<ele>951.00</ele>
	<time>2025-04-29T10:38:44.000Z</time>
</trkpt>
<trkpt lat="45.9181240" lon="10.3142550">
	<ele>951.00</ele>
	<time>2025-04-29T10:38:45.000Z</time>
</trkpt>
<trkpt lat="45.9181180" lon="10.3142450">
	<ele>950.80</ele>
	<time>2025-04-29T10:38:46.000Z</time>
</trkpt>
<trkpt lat="45.9181180" lon="10.3142400">
	<ele>950.80</ele>
	<time>2025-04-29T10:38:47.000Z</time>
</trkpt>
<trkpt lat="45.9181210" lon="10.3142430">
	<ele>950.60</ele>
	<time>2025-04-29T10:38:48.000Z</time>
</trkpt>
<trkpt lat="45.9181310" lon="10.3142380">
	<ele>950.60</ele>
	<time>2025-04-29T10:38:49.000Z</time>
</trkpt>
<trkpt lat="45.9181420" lon="10.3142260">
	<ele>950.40</ele>
	<time>2025-04-29T10:38:50.000Z</time>
</trkpt>
<trkpt lat="45.9181450" lon="10.3142110">
	<ele>950.20</ele>
	<time>2025-04-29T10:38:51.000Z</time>
</trkpt>
<trkpt lat="45.9181520" lon="10.3141960">
	<ele>950.00</ele>
	<time>2025-04-29T10:38:52.000Z</time>
</trkpt>
<trkpt lat="45.9181630" lon="10.3141880">
	<ele>949.80</ele>
	<time>2025-04-29T10:38:53.000Z</time>
</trkpt>
<trkpt lat="45.9181760" lon="10.3141810">
	<ele>949.60</ele>
	<time>2025-04-29T10:38:54.000Z</time>
</trkpt>
<trkpt lat="45.9181960" lon="10.3141760">
	<ele>949.40</ele>
	<time>2025-04-29T10:38:55.000Z</time>
</trkpt>
<trkpt lat="45.9182140" lon="10.3141660">
	<ele>949.20</ele>
	<time>2025-04-29T10:38:56.000Z</time>
</trkpt>
<trkpt lat="45.9182250" lon="10.3141540">
	<ele>949.00</ele>
	<time>2025-04-29T10:38:57.000Z</time>
</trkpt>
<trkpt lat="45.9182340" lon="10.3141360">
	<ele>948.80</ele>
	<time>2025-04-29T10:38:58.000Z</time>
</trkpt>
<trkpt lat="45.9182430" lon="10.3141110">
	<ele>948.80</ele>
	<time>2025-04-29T10:38:59.000Z</time>
</trkpt>
<trkpt lat="45.9182560" lon="10.3141060">
	<ele>948.40</ele>
	<time>2025-04-29T10:39:00.000Z</time>
</trkpt>
<trkpt lat="45.9182520" lon="10.3140910">
	<ele>948.20</ele>
	<time>2025-04-29T10:39:01.000Z</time>
</trkpt>
<trkpt lat="45.9182790" lon="10.3141010">
	<ele>948.00</ele>
	<time>2025-04-29T10:39:02.000Z</time>
</trkpt>
<trkpt lat="45.9183080" lon="10.3141180">
	<ele>947.80</ele>
	<time>2025-04-29T10:39:03.000Z</time>
</trkpt>
<trkpt lat="45.9183290" lon="10.3141210">
	<ele>947.60</ele>
	<time>2025-04-29T10:39:04.000Z</time>
</trkpt>
<trkpt lat="45.9183380" lon="10.3141140">
	<ele>947.40</ele>
	<time>2025-04-29T10:39:05.000Z</time>
</trkpt>
<trkpt lat="45.9183450" lon="10.3141070">
	<ele>947.00</ele>
	<time>2025-04-29T10:39:06.000Z</time>
</trkpt>
<trkpt lat="45.9183610" lon="10.3141100">
	<ele>946.80</ele>
	<time>2025-04-29T10:39:07.000Z</time>
</trkpt>
<trkpt lat="45.9184030" lon="10.3141380">
	<ele>946.60</ele>
	<time>2025-04-29T10:39:08.000Z</time>
</trkpt>
<trkpt lat="45.9184060" lon="10.3141380">
	<ele>946.40</ele>
	<time>2025-04-29T10:39:09.000Z</time>
</trkpt>
<trkpt lat="45.9184500" lon="10.3141620">
	<ele>946.20</ele>
	<time>2025-04-29T10:39:10.000Z</time>
</trkpt>
<trkpt lat="45.9185000" lon="10.3141730">
	<ele>946.00</ele>
	<time>2025-04-29T10:39:11.000Z</time>
</trkpt>
<trkpt lat="45.9185300" lon="10.3141790">
	<ele>946.00</ele>
	<time>2025-04-29T10:39:12.000Z</time>
</trkpt>
<trkpt lat="45.9185260" lon="10.3141590">
	<ele>946.00</ele>
	<time>2025-04-29T10:39:13.000Z</time>
</trkpt>
<trkpt lat="45.9185160" lon="10.3141370">
	<ele>946.20</ele>
	<time>2025-04-29T10:39:14.000Z</time>
</trkpt>
<trkpt lat="45.9184960" lon="10.3141060">
	<ele>946.20</ele>
	<time>2025-04-29T10:39:15.000Z</time>
</trkpt>
<trkpt lat="45.9184790" lon="10.3140640">
	<ele>946.40</ele>
	<time>2025-04-29T10:39:16.000Z</time>
</trkpt>
<trkpt lat="45.9184780" lon="10.3140340">
	<ele>946.40</ele>
	<time>2025-04-29T10:39:17.000Z</time>
</trkpt>
<trkpt lat="45.9184730" lon="10.3140110">
	<ele>946.00</ele>
	<time>2025-04-29T10:39:18.000Z</time>
</trkpt>
<trkpt lat="45.9184720" lon="10.3140000">
	<ele>945.60</ele>
	<time>2025-04-29T10:39:19.000Z</time>
</trkpt>
<trkpt lat="45.9184910" lon="10.3140060">
	<ele>945.00</ele>
	<time>2025-04-29T10:39:20.000Z</time>
</trkpt>
<trkpt lat="45.9185060" lon="10.3139950">
	<ele>944.80</ele>
	<time>2025-04-29T10:39:21.000Z</time>
</trkpt>
<trkpt lat="45.9185140" lon="10.3139840">
	<ele>944.60</ele>
	<time>2025-04-29T10:39:22.000Z</time>
</trkpt>
<trkpt lat="45.9185230" lon="10.3139730">
	<ele>944.40</ele>
	<time>2025-04-29T10:39:23.000Z</time>
</trkpt>
<trkpt lat="45.9185320" lon="10.3139640">
	<ele>944.40</ele>
	<time>2025-04-29T10:39:24.000Z</time>
</trkpt>
<trkpt lat="45.9185430" lon="10.3139610">
	<ele>944.20</ele>
	<time>2025-04-29T10:39:25.000Z</time>
</trkpt>
<trkpt lat="45.9185370" lon="10.3139300">
	<ele>944.20</ele>
	<time>2025-04-29T10:39:26.000Z</time>
</trkpt>
<trkpt lat="45.9185220" lon="10.3138950">
	<ele>944.00</ele>
	<time>2025-04-29T10:39:27.000Z</time>
</trkpt>
<trkpt lat="45.9185200" lon="10.3138790">
	<ele>943.80</ele>
	<time>2025-04-29T10:39:28.000Z</time>
</trkpt>
<trkpt lat="45.9185140" lon="10.3138550">
	<ele>943.60</ele>
	<time>2025-04-29T10:39:29.000Z</time>
</trkpt>
<trkpt lat="45.9185200" lon="10.3138570">
	<ele>943.40</ele>
	<time>2025-04-29T10:39:30.000Z</time>
</trkpt>
<trkpt lat="45.9185290" lon="10.3138600">
	<ele>943.20</ele>
	<time>2025-04-29T10:39:31.000Z</time>
</trkpt>
<trkpt lat="45.9185450" lon="10.3138710">
	<ele>943.20</ele>
	<time>2025-04-29T10:39:32.000Z</time>
</trkpt>
<trkpt lat="45.9185580" lon="10.3138760">
	<ele>943.00</ele>
	<time>2025-04-29T10:39:33.000Z</time>
</trkpt>
<trkpt lat="45.9185610" lon="10.3138690">
	<ele>943.00</ele>
	<time>2025-04-29T10:39:34.000Z</time>
</trkpt>
<trkpt lat="45.9185650" lon="10.3138540">
	<ele>942.80</ele>
	<time>2025-04-29T10:39:35.000Z</time>
</trkpt>
<trkpt lat="45.9185690" lon="10.3138390">
	<ele>942.80</ele>
	<time>2025-04-29T10:39:36.000Z</time>
</trkpt>
<trkpt lat="45.9185760" lon="10.3138220">
	<ele>942.80</ele>
	<time>2025-04-29T10:39:37.000Z</time>
</trkpt>
<trkpt lat="45.9185780" lon="10.3138030">
	<ele>942.80</ele>
	<time>2025-04-29T10:39:38.000Z</time>
</trkpt>
<trkpt lat="45.9185850" lon="10.3137950">
	<ele>942.80</ele>
	<time>2025-04-29T10:39:39.000Z</time>
</trkpt>
<trkpt lat="45.9185880" lon="10.3137820">
	<ele>942.80</ele>
	<time>2025-04-29T10:39:40.000Z</time>
</trkpt>
<trkpt lat="45.9185890" lon="10.3137660">
	<ele>942.80</ele>
	<time>2025-04-29T10:39:41.000Z</time>
</trkpt>
<trkpt lat="45.9185860" lon="10.3137550">
	<ele>942.80</ele>
	<time>2025-04-29T10:39:42.000Z</time>
</trkpt>
<trkpt lat="45.9185840" lon="10.3137450">
	<ele>942.80</ele>
	<time>2025-04-29T10:39:43.000Z</time>
</trkpt>
<trkpt lat="45.9185820" lon="10.3137380">
	<ele>942.80</ele>
	<time>2025-04-29T10:39:44.000Z</time>
</trkpt>
<trkpt lat="45.9185760" lon="10.3137280">
	<ele>942.80</ele>
	<time>2025-04-29T10:39:45.000Z</time>
</trkpt>
<trkpt lat="45.9185720" lon="10.3137170">
	<ele>942.80</ele>
	<time>2025-04-29T10:39:46.000Z</time>
</trkpt>
<trkpt lat="45.9185680" lon="10.3137070">
	<ele>942.80</ele>
	<time>2025-04-29T10:39:47.000Z</time>
</trkpt>
<trkpt lat="45.9185610" lon="10.3136860">
	<ele>942.80</ele>
	<time>2025-04-29T10:39:48.000Z</time>
</trkpt>
<trkpt lat="45.9185690" lon="10.3136740">
	<ele>942.80</ele>
	<time>2025-04-29T10:39:49.000Z</time>
</trkpt>
<trkpt lat="45.9185800" lon="10.3136640">
	<ele>942.80</ele>
	<time>2025-04-29T10:39:50.000Z</time>
</trkpt>
<trkpt lat="45.9185820" lon="10.3136550">
	<ele>942.80</ele>
	<time>2025-04-29T10:39:51.000Z</time>
</trkpt>
<trkpt lat="45.9185790" lon="10.3136340">
	<ele>942.60</ele>
	<time>2025-04-29T10:39:52.000Z</time>
</trkpt>
<trkpt lat="45.9185670" lon="10.3136180">
	<ele>942.60</ele>
	<time>2025-04-29T10:39:53.000Z</time>
</trkpt>
<trkpt lat="45.9185670" lon="10.3136140">
	<ele>942.60</ele>
	<time>2025-04-29T10:39:54.000Z</time>
</trkpt>
<trkpt lat="45.9185530" lon="10.3136020">
	<ele>942.60</ele>
	<time>2025-04-29T10:39:55.000Z</time>
</trkpt>
<trkpt lat="45.9185410" lon="10.3135790">
	<ele>942.60</ele>
	<time>2025-04-29T10:39:56.000Z</time>
</trkpt>
<trkpt lat="45.9185270" lon="10.3135640">
	<ele>942.60</ele>
	<time>2025-04-29T10:39:57.000Z</time>
</trkpt>
<trkpt lat="45.9185170" lon="10.3135650">
	<ele>942.60</ele>
	<time>2025-04-29T10:39:58.000Z</time>
</trkpt>
<trkpt lat="45.9185090" lon="10.3135550">
	<ele>942.60</ele>
	<time>2025-04-29T10:39:59.000Z</time>
</trkpt>
<trkpt lat="45.9184960" lon="10.3135530">
	<ele>942.60</ele>
	<time>2025-04-29T10:40:00.000Z</time>
</trkpt>
<trkpt lat="45.9184850" lon="10.3135350">
	<ele>942.60</ele>
	<time>2025-04-29T10:40:01.000Z</time>
</trkpt>
<trkpt lat="45.9184760" lon="10.3135210">
	<ele>942.60</ele>
	<time>2025-04-29T10:40:02.000Z</time>
</trkpt>
<trkpt lat="45.9184680" lon="10.3135070">
	<ele>942.60</ele>
	<time>2025-04-29T10:40:03.000Z</time>
</trkpt>
<trkpt lat="45.9184550" lon="10.3134780">
	<ele>942.60</ele>
	<time>2025-04-29T10:40:04.000Z</time>
</trkpt>
<trkpt lat="45.9184420" lon="10.3134500">
	<ele>942.60</ele>
	<time>2025-04-29T10:40:05.000Z</time>
</trkpt>
<trkpt lat="45.9184360" lon="10.3134270">
	<ele>942.40</ele>
	<time>2025-04-29T10:40:06.000Z</time>
</trkpt>
<trkpt lat="45.9184160" lon="10.3133950">
	<ele>942.40</ele>
	<time>2025-04-29T10:40:07.000Z</time>
</trkpt>
<trkpt lat="45.9184000" lon="10.3133720">
	<ele>942.40</ele>
	<time>2025-04-29T10:40:08.000Z</time>
</trkpt>
<trkpt lat="45.9183950" lon="10.3133690">
	<ele>942.40</ele>
	<time>2025-04-29T10:40:09.000Z</time>
</trkpt>
<trkpt lat="45.9183920" lon="10.3133640">
	<ele>942.40</ele>
	<time>2025-04-29T10:40:10.000Z</time>
</trkpt>
<trkpt lat="45.9184090" lon="10.3133910">
	<ele>942.40</ele>
	<time>2025-04-29T10:40:11.000Z</time>
</trkpt>
<trkpt lat="45.9183970" lon="10.3133900">
	<ele>942.40</ele>
	<time>2025-04-29T10:40:12.000Z</time>
</trkpt>
<trkpt lat="45.9183910" lon="10.3133850">
	<ele>942.60</ele>
	<time>2025-04-29T10:40:13.000Z</time>
</trkpt>
<trkpt lat="45.9183790" lon="10.3133690">
	<ele>942.60</ele>
	<time>2025-04-29T10:40:14.000Z</time>
</trkpt>
<trkpt lat="45.9183680" lon="10.3133460">
	<ele>942.60</ele>
	<time>2025-04-29T10:40:15.000Z</time>
</trkpt>
<trkpt lat="45.9183590" lon="10.3133300">
	<ele>942.60</ele>
	<time>2025-04-29T10:40:16.000Z</time>
</trkpt>
<trkpt lat="45.9183390" lon="10.3133150">
	<ele>942.60</ele>
	<time>2025-04-29T10:40:17.000Z</time>
</trkpt>
<trkpt lat="45.9183240" lon="10.3132980">
	<ele>942.60</ele>
	<time>2025-04-29T10:40:18.000Z</time>
</trkpt>
<trkpt lat="45.9183230" lon="10.3132930">
	<ele>942.60</ele>
	<time>2025-04-29T10:40:19.000Z</time>
</trkpt>
<trkpt lat="45.9183280" lon="10.3132850">
	<ele>942.60</ele>
	<time>2025-04-29T10:40:20.000Z</time>
</trkpt>
<trkpt lat="45.9183340" lon="10.3132770">
	<ele>942.60</ele>
	<time>2025-04-29T10:40:21.000Z</time>
</trkpt>
<trkpt lat="45.9183530" lon="10.3132540">
	<ele>942.60</ele>
	<time>2025-04-29T10:40:22.000Z</time>
</trkpt>
<trkpt lat="45.9183570" lon="10.3132610">
	<ele>942.60</ele>
	<time>2025-04-29T10:40:23.000Z</time>
</trkpt>
<trkpt lat="45.9183480" lon="10.3132490">
	<ele>942.60</ele>
	<time>2025-04-29T10:40:24.000Z</time>
</trkpt>
<trkpt lat="45.9183370" lon="10.3132340">
	<ele>942.60</ele>
	<time>2025-04-29T10:40:25.000Z</time>
</trkpt>
<trkpt lat="45.9183260" lon="10.3132160">
	<ele>942.60</ele>
	<time>2025-04-29T10:40:26.000Z</time>
</trkpt>
<trkpt lat="45.9183200" lon="10.3132040">
	<ele>942.40</ele>
	<time>2025-04-29T10:40:27.000Z</time>
</trkpt>
<trkpt lat="45.9183090" lon="10.3131960">
	<ele>942.40</ele>
	<time>2025-04-29T10:40:28.000Z</time>
</trkpt>
<trkpt lat="45.9183080" lon="10.3131950">
	<ele>942.40</ele>
	<time>2025-04-29T10:40:29.000Z</time>
</trkpt>
<trkpt lat="45.9183070" lon="10.3131930">
	<ele>942.40</ele>
	<time>2025-04-29T10:40:30.000Z</time>
</trkpt>
<trkpt lat="45.9183070" lon="10.3131940">
	<ele>942.40</ele>
	<time>2025-04-29T10:40:31.000Z</time>
</trkpt>
<trkpt lat="45.9183010" lon="10.3131930">
	<ele>942.20</ele>
	<time>2025-04-29T10:40:32.000Z</time>
</trkpt>
<trkpt lat="45.9182910" lon="10.3131890">
	<ele>942.20</ele>
	<time>2025-04-29T10:40:33.000Z</time>
</trkpt>
<trkpt lat="45.9182770" lon="10.3131800">
	<ele>942.20</ele>
	<time>2025-04-29T10:40:34.000Z</time>
</trkpt>
<trkpt lat="45.9182630" lon="10.3131660">
	<ele>942.40</ele>
	<time>2025-04-29T10:40:35.000Z</time>
</trkpt>
<trkpt lat="45.9182550" lon="10.3131600">
	<ele>942.40</ele>
	<time>2025-04-29T10:40:36.000Z</time>
</trkpt>
<trkpt lat="45.9182540" lon="10.3131610">
	<ele>942.40</ele>
	<time>2025-04-29T10:40:37.000Z</time>
</trkpt>
<trkpt lat="45.9182640" lon="10.3131790">
	<ele>942.40</ele>
	<time>2025-04-29T10:40:38.000Z</time>
</trkpt>
<trkpt lat="45.9182670" lon="10.3131830">
	<ele>942.20</ele>
	<time>2025-04-29T10:40:39.000Z</time>
</trkpt>
<trkpt lat="45.9182690" lon="10.3131870">
	<ele>942.20</ele>
	<time>2025-04-29T10:40:40.000Z</time>
</trkpt>
<trkpt lat="45.9182670" lon="10.3131880">
	<ele>942.00</ele>
	<time>2025-04-29T10:40:41.000Z</time>
</trkpt>
<trkpt lat="45.9182660" lon="10.3131880">
	<ele>942.00</ele>
	<time>2025-04-29T10:40:42.000Z</time>
</trkpt>
<trkpt lat="45.9182640" lon="10.3131860">
	<ele>942.00</ele>
	<time>2025-04-29T10:40:43.000Z</time>
</trkpt>
<trkpt lat="45.9182630" lon="10.3131830">
	<ele>942.00</ele>
	<time>2025-04-29T10:40:44.000Z</time>
</trkpt>
<trkpt lat="45.9182630" lon="10.3131820">
	<ele>942.00</ele>
	<time>2025-04-29T10:40:45.000Z</time>
</trkpt>
<trkpt lat="45.9182640" lon="10.3131810">
	<ele>942.00</ele>
	<time>2025-04-29T10:40:46.000Z</time>
</trkpt>
<trkpt lat="45.9182620" lon="10.3131790">
	<ele>942.00</ele>
	<time>2025-04-29T10:40:47.000Z</time>
</trkpt>
<trkpt lat="45.9182640" lon="10.3131800">
	<ele>942.00</ele>
	<time>2025-04-29T10:40:48.000Z</time>
</trkpt>
<trkpt lat="45.9182600" lon="10.3131670">
	<ele>942.00</ele>
	<time>2025-04-29T10:40:49.000Z</time>
</trkpt>
<trkpt lat="45.9182560" lon="10.3131650">
	<ele>942.00</ele>
	<time>2025-04-29T10:40:50.000Z</time>
</trkpt>
<trkpt lat="45.9182550" lon="10.3131660">
	<ele>942.00</ele>
	<time>2025-04-29T10:40:51.000Z</time>
</trkpt>
<trkpt lat="45.9182530" lon="10.3131650">
	<ele>942.00</ele>
	<time>2025-04-29T10:40:52.000Z</time>
</trkpt>
<trkpt lat="45.9182520" lon="10.3131640">
	<ele>942.00</ele>
	<time>2025-04-29T10:40:53.000Z</time>
</trkpt>
<trkpt lat="45.9182370" lon="10.3131540">
	<ele>942.00</ele>
	<time>2025-04-29T10:40:54.000Z</time>
</trkpt>
<trkpt lat="45.9182290" lon="10.3131530">
	<ele>942.00</ele>
	<time>2025-04-29T10:40:55.000Z</time>
</trkpt>
<trkpt lat="45.9182360" lon="10.3131620">
	<ele>942.00</ele>
	<time>2025-04-29T10:40:56.000Z</time>
</trkpt>
<trkpt lat="45.9182320" lon="10.3131620">
	<ele>942.00</ele>
	<time>2025-04-29T10:40:57.000Z</time>
</trkpt>
<trkpt lat="45.9182290" lon="10.3131620">
	<ele>942.00</ele>
	<time>2025-04-29T10:40:58.000Z</time>
</trkpt>
<trkpt lat="45.9182290" lon="10.3131640">
	<ele>942.00</ele>
	<time>2025-04-29T10:40:59.000Z</time>
</trkpt>
<trkpt lat="45.9182280" lon="10.3131680">
	<ele>942.00</ele>
	<time>2025-04-29T10:41:00.000Z</time>
</trkpt>
<trkpt lat="45.9182270" lon="10.3131710">
	<ele>942.00</ele>
	<time>2025-04-29T10:41:01.000Z</time>
</trkpt>
<trkpt lat="45.9182260" lon="10.3131720">
	<ele>942.00</ele>
	<time>2025-04-29T10:41:02.000Z</time>
</trkpt>
<trkpt lat="45.9182290" lon="10.3131670">
	<ele>942.00</ele>
	<time>2025-04-29T10:41:03.000Z</time>
</trkpt>
<trkpt lat="45.9182300" lon="10.3131650">
	<ele>942.00</ele>
	<time>2025-04-29T10:41:04.000Z</time>
</trkpt>
<trkpt lat="45.9182300" lon="10.3131720">
	<ele>942.00</ele>
	<time>2025-04-29T10:41:05.000Z</time>
</trkpt>
<trkpt lat="45.9182300" lon="10.3131790">
	<ele>942.00</ele>
	<time>2025-04-29T10:41:06.000Z</time>
</trkpt>
<trkpt lat="45.9182300" lon="10.3131840">
	<ele>942.00</ele>
	<time>2025-04-29T10:41:07.000Z</time>
</trkpt>
<trkpt lat="45.9182300" lon="10.3131850">
	<ele>942.00</ele>
	<time>2025-04-29T10:41:08.000Z</time>
</trkpt>
<trkpt lat="45.9182300" lon="10.3131860">
	<ele>942.00</ele>
	<time>2025-04-29T10:41:09.000Z</time>
</trkpt>
<trkpt lat="45.9182310" lon="10.3131910">
	<ele>942.00</ele>
	<time>2025-04-29T10:41:10.000Z</time>
</trkpt>
<trkpt lat="45.9182230" lon="10.3131920">
	<ele>942.00</ele>
	<time>2025-04-29T10:41:11.000Z</time>
</trkpt>
<trkpt lat="45.9182220" lon="10.3131940">
	<ele>942.00</ele>
	<time>2025-04-29T10:41:12.000Z</time>
</trkpt>
<trkpt lat="45.9182220" lon="10.3131950">
	<ele>942.00</ele>
	<time>2025-04-29T10:41:13.000Z</time>
</trkpt>
<trkpt lat="45.9182210" lon="10.3131960">
	<ele>942.00</ele>
	<time>2025-04-29T10:41:14.000Z</time>
</trkpt>
<trkpt lat="45.9182220" lon="10.3131970">
	<ele>942.00</ele>
	<time>2025-04-29T10:41:15.000Z</time>
</trkpt>
<trkpt lat="45.9182230" lon="10.3131970">
	<ele>942.00</ele>
	<time>2025-04-29T10:41:16.000Z</time>
</trkpt>
<trkpt lat="45.9182230" lon="10.3131960">
	<ele>942.00</ele>
	<time>2025-04-29T10:41:17.000Z</time>
</trkpt>
<trkpt lat="45.9182230" lon="10.3131960">
	<ele>941.80</ele>
	<time>2025-04-29T10:41:18.000Z</time>
</trkpt>
<trkpt lat="45.9182230" lon="10.3131960">
	<ele>941.80</ele>
	<time>2025-04-29T10:41:19.000Z</time>
</trkpt>
<trkpt lat="45.9182230" lon="10.3131960">
	<ele>941.80</ele>
	<time>2025-04-29T10:41:20.000Z</time>
</trkpt>
<trkpt lat="45.9182230" lon="10.3131960">
	<ele>941.80</ele>
	<time>2025-04-29T10:41:21.000Z</time>
</trkpt>
<trkpt lat="45.9182230" lon="10.3131960">
	<ele>941.80</ele>
	<time>2025-04-29T10:41:22.000Z</time>
</trkpt>
<trkpt lat="45.9182230" lon="10.3131960">
	<ele>941.80</ele>
	<time>2025-04-29T10:41:23.000Z</time>
</trkpt>
<trkpt lat="45.9182230" lon="10.3131960">
	<ele>941.80</ele>
	<time>2025-04-29T10:41:24.000Z</time>
</trkpt>
<trkpt lat="45.9182230" lon="10.3131960">
	<ele>941.80</ele>
	<time>2025-04-29T10:41:25.000Z</time>
</trkpt>
<trkpt lat="45.9182230" lon="10.3131960">
	<ele>941.80</ele>
	<time>2025-04-29T10:41:26.000Z</time>
</trkpt>
<trkpt lat="45.9182230" lon="10.3131960">
	<ele>941.80</ele>
	<time>2025-04-29T10:41:27.000Z</time>
</trkpt>
<trkpt lat="45.9182230" lon="10.3131950">
	<ele>941.80</ele>
	<time>2025-04-29T10:41:28.000Z</time>
</trkpt>
<trkpt lat="45.9182230" lon="10.3131950">
	<ele>941.80</ele>
	<time>2025-04-29T10:41:29.000Z</time>
</trkpt>
<trkpt lat="45.9182230" lon="10.3131940">
	<ele>941.80</ele>
	<time>2025-04-29T10:41:30.000Z</time>
</trkpt>
<trkpt lat="45.9182240" lon="10.3131940">
	<ele>941.80</ele>
	<time>2025-04-29T10:41:31.000Z</time>
</trkpt>
<trkpt lat="45.9182250" lon="10.3131940">
	<ele>941.80</ele>
	<time>2025-04-29T10:41:32.000Z</time>
</trkpt>
<trkpt lat="45.9182250" lon="10.3131940">
	<ele>941.80</ele>
	<time>2025-04-29T10:41:33.000Z</time>
</trkpt>
<trkpt lat="45.9182260" lon="10.3131940">
	<ele>941.80</ele>
	<time>2025-04-29T10:41:34.000Z</time>
</trkpt>
<trkpt lat="45.9182270" lon="10.3131940">
	<ele>941.80</ele>
	<time>2025-04-29T10:41:35.000Z</time>
</trkpt>
<trkpt lat="45.9182290" lon="10.3131940">
	<ele>941.80</ele>
	<time>2025-04-29T10:41:36.000Z</time>
</trkpt>
<trkpt lat="45.9182290" lon="10.3131940">
	<ele>941.80</ele>
	<time>2025-04-29T10:41:37.000Z</time>
</trkpt>
<trkpt lat="45.9182290" lon="10.3131940">
	<ele>941.80</ele>
	<time>2025-04-29T10:41:38.000Z</time>
</trkpt>
<trkpt lat="45.9182290" lon="10.3131940">
	<ele>941.80</ele>
	<time>2025-04-29T10:41:39.000Z</time>
</trkpt>
<trkpt lat="45.9182290" lon="10.3131950">
	<ele>941.80</ele>
	<time>2025-04-29T10:41:40.000Z</time>
</trkpt>
<trkpt lat="45.9182290" lon="10.3131950">
	<ele>941.80</ele>
	<time>2025-04-29T10:41:41.000Z</time>
</trkpt>
<trkpt lat="45.9182290" lon="10.3131950">
	<ele>941.80</ele>
	<time>2025-04-29T10:41:42.000Z</time>
</trkpt>
<trkpt lat="45.9182300" lon="10.3131960">
	<ele>941.80</ele>
	<time>2025-04-29T10:41:43.000Z</time>
</trkpt>
<trkpt lat="45.9182300" lon="10.3131960">
	<ele>941.80</ele>
	<time>2025-04-29T10:41:44.000Z</time>
</trkpt>
<trkpt lat="45.9182300" lon="10.3131960">
	<ele>941.80</ele>
	<time>2025-04-29T10:41:45.000Z</time>
</trkpt>
<trkpt lat="45.9182310" lon="10.3131960">
	<ele>941.80</ele>
	<time>2025-04-29T10:41:46.000Z</time>
</trkpt>
<trkpt lat="45.9182310" lon="10.3131950">
	<ele>941.80</ele>
	<time>2025-04-29T10:41:47.000Z</time>
</trkpt>
<trkpt lat="45.9182310" lon="10.3131950">
	<ele>941.80</ele>
	<time>2025-04-29T10:41:48.000Z</time>
</trkpt>
<trkpt lat="45.9182300" lon="10.3131950">
	<ele>941.80</ele>
	<time>2025-04-29T10:41:49.000Z</time>
</trkpt>
<trkpt lat="45.9182300" lon="10.3131940">
	<ele>941.80</ele>
	<time>2025-04-29T10:41:50.000Z</time>
</trkpt>
<trkpt lat="45.9182310" lon="10.3131930">
	<ele>941.80</ele>
	<time>2025-04-29T10:41:51.000Z</time>
</trkpt>
<trkpt lat="45.9182300" lon="10.3131930">
	<ele>941.80</ele>
	<time>2025-04-29T10:41:52.000Z</time>
</trkpt>
<trkpt lat="45.9182310" lon="10.3131920">
	<ele>941.80</ele>
	<time>2025-04-29T10:41:53.000Z</time>
</trkpt>
<trkpt lat="45.9182410" lon="10.3131890">
	<ele>942.00</ele>
	<time>2025-04-29T10:41:54.000Z</time>
</trkpt>
<trkpt lat="45.9182530" lon="10.3131970">
	<ele>942.00</ele>
	<time>2025-04-29T10:41:55.000Z</time>
</trkpt>
<trkpt lat="45.9182550" lon="10.3132020">
	<ele>942.00</ele>
	<time>2025-04-29T10:41:56.000Z</time>
</trkpt>
<trkpt lat="45.9182530" lon="10.3132030">
	<ele>942.00</ele>
	<time>2025-04-29T10:41:57.000Z</time>
</trkpt>
<trkpt lat="45.9182490" lon="10.3132040">
	<ele>942.00</ele>
	<time>2025-04-29T10:41:58.000Z</time>
</trkpt>
<trkpt lat="45.9182460" lon="10.3132050">
	<ele>942.00</ele>
	<time>2025-04-29T10:41:59.000Z</time>
</trkpt>
<trkpt lat="45.9182440" lon="10.3132070">
	<ele>942.00</ele>
	<time>2025-04-29T10:42:00.000Z</time>
</trkpt>
<trkpt lat="45.9182420" lon="10.3132080">
	<ele>942.00</ele>
	<time>2025-04-29T10:42:01.000Z</time>
</trkpt>
<trkpt lat="45.9182400" lon="10.3132120">
	<ele>942.00</ele>
	<time>2025-04-29T10:42:02.000Z</time>
</trkpt>
<trkpt lat="45.9182380" lon="10.3132140">
	<ele>941.80</ele>
	<time>2025-04-29T10:42:03.000Z</time>
</trkpt>
<trkpt lat="45.9182370" lon="10.3132160">
	<ele>941.80</ele>
	<time>2025-04-29T10:42:04.000Z</time>
</trkpt>
<trkpt lat="45.9182410" lon="10.3132160">
	<ele>941.80</ele>
	<time>2025-04-29T10:42:05.000Z</time>
</trkpt>
<trkpt lat="45.9182420" lon="10.3132160">
	<ele>941.80</ele>
	<time>2025-04-29T10:42:06.000Z</time>
</trkpt>
<trkpt lat="45.9182460" lon="10.3132120">
	<ele>941.80</ele>
	<time>2025-04-29T10:42:07.000Z</time>
</trkpt>
<trkpt lat="45.9182460" lon="10.3132120">
	<ele>941.80</ele>
	<time>2025-04-29T10:42:08.000Z</time>
</trkpt>
<trkpt lat="45.9182460" lon="10.3132120">
	<ele>941.80</ele>
	<time>2025-04-29T10:42:09.000Z</time>
</trkpt>
<trkpt lat="45.9182460" lon="10.3132120">
	<ele>942.00</ele>
	<time>2025-04-29T10:42:10.000Z</time>
</trkpt>
<trkpt lat="45.9182460" lon="10.3132120">
	<ele>942.00</ele>
	<time>2025-04-29T10:42:11.000Z</time>
</trkpt>
<trkpt lat="45.9182430" lon="10.3132110">
	<ele>942.00</ele>
	<time>2025-04-29T10:42:12.000Z</time>
</trkpt>
<trkpt lat="45.9182490" lon="10.3132070">
	<ele>942.00</ele>
	<time>2025-04-29T10:42:13.000Z</time>
</trkpt>
<trkpt lat="45.9182520" lon="10.3132060">
	<ele>942.00</ele>
	<time>2025-04-29T10:42:14.000Z</time>
</trkpt>
<trkpt lat="45.9182600" lon="10.3132070">
	<ele>942.00</ele>
	<time>2025-04-29T10:42:15.000Z</time>
</trkpt>
<trkpt lat="45.9182720" lon="10.3132170">
	<ele>942.00</ele>
	<time>2025-04-29T10:42:16.000Z</time>
</trkpt>
<trkpt lat="45.9182830" lon="10.3132240">
	<ele>942.00</ele>
	<time>2025-04-29T10:42:17.000Z</time>
</trkpt>
<trkpt lat="45.9182890" lon="10.3132300">
	<ele>942.00</ele>
	<time>2025-04-29T10:42:18.000Z</time>
</trkpt>
<trkpt lat="45.9182850" lon="10.3132240">
	<ele>942.00</ele>
	<time>2025-04-29T10:42:19.000Z</time>
</trkpt>
<trkpt lat="45.9182790" lon="10.3132230">
	<ele>942.00</ele>
	<time>2025-04-29T10:42:20.000Z</time>
</trkpt>
<trkpt lat="45.9182740" lon="10.3132230">
	<ele>942.00</ele>
	<time>2025-04-29T10:42:21.000Z</time>
</trkpt>
<trkpt lat="45.9182740" lon="10.3132230">
	<ele>942.00</ele>
	<time>2025-04-29T10:42:22.000Z</time>
</trkpt>
<trkpt lat="45.9182730" lon="10.3132240">
	<ele>942.00</ele>
	<time>2025-04-29T10:42:23.000Z</time>
</trkpt>
<trkpt lat="45.9182680" lon="10.3132200">
	<ele>942.00</ele>
	<time>2025-04-29T10:42:24.000Z</time>
</trkpt>
<trkpt lat="45.9182660" lon="10.3132200">
	<ele>942.00</ele>
	<time>2025-04-29T10:42:25.000Z</time>
</trkpt>
<trkpt lat="45.9182650" lon="10.3132190">
	<ele>942.00</ele>
	<time>2025-04-29T10:42:26.000Z</time>
</trkpt>
<trkpt lat="45.9182650" lon="10.3132190">
	<ele>942.00</ele>
	<time>2025-04-29T10:42:27.000Z</time>
</trkpt>
<trkpt lat="45.9182650" lon="10.3132190">
	<ele>942.00</ele>
	<time>2025-04-29T10:42:28.000Z</time>
</trkpt>
<trkpt lat="45.9182650" lon="10.3132190">
	<ele>942.00</ele>
	<time>2025-04-29T10:42:29.000Z</time>
</trkpt>
<trkpt lat="45.9182650" lon="10.3132190">
	<ele>942.00</ele>
	<time>2025-04-29T10:42:30.000Z</time>
</trkpt>
<trkpt lat="45.9182650" lon="10.3132190">
	<ele>942.00</ele>
	<time>2025-04-29T10:42:31.000Z</time>
</trkpt>
<trkpt lat="45.9182650" lon="10.3132190">
	<ele>942.00</ele>
	<time>2025-04-29T10:42:32.000Z</time>
</trkpt>
<trkpt lat="45.9182650" lon="10.3132190">
	<ele>942.00</ele>
	<time>2025-04-29T10:42:33.000Z</time>
</trkpt>
<trkpt lat="45.9182650" lon="10.3132190">
	<ele>942.00</ele>
	<time>2025-04-29T10:42:34.000Z</time>
</trkpt>
<trkpt lat="45.9182650" lon="10.3132190">
	<ele>942.00</ele>
	<time>2025-04-29T10:42:35.000Z</time>
</trkpt>
<trkpt lat="45.9182660" lon="10.3132190">
	<ele>942.00</ele>
	<time>2025-04-29T10:42:36.000Z</time>
</trkpt>
<trkpt lat="45.9182660" lon="10.3132190">
	<ele>942.00</ele>
	<time>2025-04-29T10:42:37.000Z</time>
</trkpt>
<trkpt lat="45.9182660" lon="10.3132190">
	<ele>942.00</ele>
	<time>2025-04-29T10:42:38.000Z</time>
</trkpt>
<trkpt lat="45.9182670" lon="10.3132190">
	<ele>942.00</ele>
	<time>2025-04-29T10:42:39.000Z</time>
</trkpt>
<trkpt lat="45.9182680" lon="10.3132190">
	<ele>942.00</ele>
	<time>2025-04-29T10:42:40.000Z</time>
</trkpt>
<trkpt lat="45.9182680" lon="10.3132190">
	<ele>942.00</ele>
	<time>2025-04-29T10:42:41.000Z</time>
</trkpt>
<trkpt lat="45.9182680" lon="10.3132180">
	<ele>942.00</ele>
	<time>2025-04-29T10:42:42.000Z</time>
</trkpt>
<trkpt lat="45.9182680" lon="10.3132180">
	<ele>942.00</ele>
	<time>2025-04-29T10:42:43.000Z</time>
</trkpt>
<trkpt lat="45.9182680" lon="10.3132020">
	<ele>942.00</ele>
	<time>2025-04-29T10:42:44.000Z</time>
</trkpt>
<trkpt lat="45.9182690" lon="10.3131920">
	<ele>942.00</ele>
	<time>2025-04-29T10:42:45.000Z</time>
</trkpt>
<trkpt lat="45.9182700" lon="10.3131900">
	<ele>942.00</ele>
	<time>2025-04-29T10:42:46.000Z</time>
</trkpt>
<trkpt lat="45.9182700" lon="10.3131900">
	<ele>942.00</ele>
	<time>2025-04-29T10:42:47.000Z</time>
</trkpt>
<trkpt lat="45.9182700" lon="10.3131900">
	<ele>942.00</ele>
	<time>2025-04-29T10:42:48.000Z</time>
</trkpt>
<trkpt lat="45.9182700" lon="10.3131900">
	<ele>942.00</ele>
	<time>2025-04-29T10:42:49.000Z</time>
</trkpt>
<trkpt lat="45.9182690" lon="10.3131900">
	<ele>942.00</ele>
	<time>2025-04-29T10:42:50.000Z</time>
</trkpt>
<trkpt lat="45.9182680" lon="10.3131900">
	<ele>942.00</ele>
	<time>2025-04-29T10:42:51.000Z</time>
</trkpt>
<trkpt lat="45.9182680" lon="10.3131900">
	<ele>942.00</ele>
	<time>2025-04-29T10:42:52.000Z</time>
</trkpt>
<trkpt lat="45.9182680" lon="10.3131900">
	<ele>942.00</ele>
	<time>2025-04-29T10:42:53.000Z</time>
</trkpt>
<trkpt lat="45.9182680" lon="10.3131900">
	<ele>942.00</ele>
	<time>2025-04-29T10:42:54.000Z</time>
</trkpt>
<trkpt lat="45.9182680" lon="10.3131900">
	<ele>942.00</ele>
	<time>2025-04-29T10:42:55.000Z</time>
</trkpt>
<trkpt lat="45.9182680" lon="10.3131900">
	<ele>942.00</ele>
	<time>2025-04-29T10:42:56.000Z</time>
</trkpt>
<trkpt lat="45.9182680" lon="10.3131900">
	<ele>942.00</ele>
	<time>2025-04-29T10:42:57.000Z</time>
</trkpt>
<trkpt lat="45.9182680" lon="10.3131900">
	<ele>942.00</ele>
	<time>2025-04-29T10:42:58.000Z</time>
</trkpt>
<trkpt lat="45.9182690" lon="10.3131900">
	<ele>942.00</ele>
	<time>2025-04-29T10:42:59.000Z</time>
</trkpt>
<trkpt lat="45.9182690" lon="10.3131900">
	<ele>942.00</ele>
	<time>2025-04-29T10:43:00.000Z</time>
</trkpt>
<trkpt lat="45.9182700" lon="10.3131900">
	<ele>942.00</ele>
	<time>2025-04-29T10:43:01.000Z</time>
</trkpt>
<trkpt lat="45.9182700" lon="10.3131900">
	<ele>942.00</ele>
	<time>2025-04-29T10:43:02.000Z</time>
</trkpt>
<trkpt lat="45.9182700" lon="10.3131900">
	<ele>942.00</ele>
	<time>2025-04-29T10:43:03.000Z</time>
</trkpt>
<trkpt lat="45.9182700" lon="10.3131900">
	<ele>942.00</ele>
	<time>2025-04-29T10:43:04.000Z</time>
</trkpt>
<trkpt lat="45.9182700" lon="10.3131910">
	<ele>942.00</ele>
	<time>2025-04-29T10:43:05.000Z</time>
</trkpt>
<trkpt lat="45.9182700" lon="10.3131920">
	<ele>942.00</ele>
	<time>2025-04-29T10:43:06.000Z</time>
</trkpt>
<trkpt lat="45.9182700" lon="10.3131920">
	<ele>942.00</ele>
	<time>2025-04-29T10:43:07.000Z</time>
</trkpt>
<trkpt lat="45.9182710" lon="10.3131950">
	<ele>942.00</ele>
	<time>2025-04-29T10:43:08.000Z</time>
</trkpt>
<trkpt lat="45.9182710" lon="10.3131980">
	<ele>942.00</ele>
	<time>2025-04-29T10:43:09.000Z</time>
</trkpt>
<trkpt lat="45.9182710" lon="10.3132000">
	<ele>942.00</ele>
	<time>2025-04-29T10:43:10.000Z</time>
</trkpt>
<trkpt lat="45.9182710" lon="10.3132060">
	<ele>942.00</ele>
	<time>2025-04-29T10:43:11.000Z</time>
</trkpt>
<trkpt lat="45.9182780" lon="10.3132050">
	<ele>942.00</ele>
	<time>2025-04-29T10:43:12.000Z</time>
</trkpt>
<trkpt lat="45.9182860" lon="10.3132070">
	<ele>942.00</ele>
	<time>2025-04-29T10:43:13.000Z</time>
</trkpt>
<trkpt lat="45.9182920" lon="10.3132060">
	<ele>942.00</ele>
	<time>2025-04-29T10:43:14.000Z</time>
</trkpt>
<trkpt lat="45.9182940" lon="10.3132060">
	<ele>942.00</ele>
	<time>2025-04-29T10:43:15.000Z</time>
</trkpt>
<trkpt lat="45.9182910" lon="10.3132050">
	<ele>942.00</ele>
	<time>2025-04-29T10:43:16.000Z</time>
</trkpt>
<trkpt lat="45.9183000" lon="10.3132170">
	<ele>942.00</ele>
	<time>2025-04-29T10:43:17.000Z</time>
</trkpt>
<trkpt lat="45.9183050" lon="10.3132320">
	<ele>942.00</ele>
	<time>2025-04-29T10:43:18.000Z</time>
</trkpt>
<trkpt lat="45.9183160" lon="10.3132510">
	<ele>942.00</ele>
	<time>2025-04-29T10:43:19.000Z</time>
</trkpt>
<trkpt lat="45.9183200" lon="10.3132590">
	<ele>942.00</ele>
	<time>2025-04-29T10:43:20.000Z</time>
</trkpt>
<trkpt lat="45.9183140" lon="10.3132560">
	<ele>942.00</ele>
	<time>2025-04-29T10:43:21.000Z</time>
</trkpt>
<trkpt lat="45.9183040" lon="10.3132480">
	<ele>942.00</ele>
	<time>2025-04-29T10:43:22.000Z</time>
</trkpt>
<trkpt lat="45.9182920" lon="10.3132300">
	<ele>942.00</ele>
	<time>2025-04-29T10:43:23.000Z</time>
</trkpt>
<trkpt lat="45.9182870" lon="10.3132240">
	<ele>942.00</ele>
	<time>2025-04-29T10:43:24.000Z</time>
</trkpt>
<trkpt lat="45.9182920" lon="10.3132280">
	<ele>942.00</ele>
	<time>2025-04-29T10:43:25.000Z</time>
</trkpt>
<trkpt lat="45.9182980" lon="10.3132340">
	<ele>942.00</ele>
	<time>2025-04-29T10:43:26.000Z</time>
</trkpt>
<trkpt lat="45.9183030" lon="10.3132360">
	<ele>942.00</ele>
	<time>2025-04-29T10:43:27.000Z</time>
</trkpt>
<trkpt lat="45.9182990" lon="10.3132370">
	<ele>942.00</ele>
	<time>2025-04-29T10:43:28.000Z</time>
</trkpt>
<trkpt lat="45.9182970" lon="10.3132370">
	<ele>942.00</ele>
	<time>2025-04-29T10:43:29.000Z</time>
</trkpt>
<trkpt lat="45.9182960" lon="10.3132400">
	<ele>942.00</ele>
	<time>2025-04-29T10:43:30.000Z</time>
</trkpt>
<trkpt lat="45.9182950" lon="10.3132400">
	<ele>942.00</ele>
	<time>2025-04-29T10:43:31.000Z</time>
</trkpt>
<trkpt lat="45.9183030" lon="10.3132390">
	<ele>942.00</ele>
	<time>2025-04-29T10:43:32.000Z</time>
</trkpt>
<trkpt lat="45.9183060" lon="10.3132380">
	<ele>942.00</ele>
	<time>2025-04-29T10:43:33.000Z</time>
</trkpt>
<trkpt lat="45.9183060" lon="10.3132370">
	<ele>942.00</ele>
	<time>2025-04-29T10:43:34.000Z</time>
</trkpt>
<trkpt lat="45.9183060" lon="10.3132370">
	<ele>942.00</ele>
	<time>2025-04-29T10:43:35.000Z</time>
</trkpt>
<trkpt lat="45.9183060" lon="10.3132370">
	<ele>942.00</ele>
	<time>2025-04-29T10:43:36.000Z</time>
</trkpt>
<trkpt lat="45.9183060" lon="10.3132370">
	<ele>942.00</ele>
	<time>2025-04-29T10:43:37.000Z</time>
</trkpt>
<trkpt lat="45.9183060" lon="10.3132370">
	<ele>942.00</ele>
	<time>2025-04-29T10:43:38.000Z</time>
</trkpt>
<trkpt lat="45.9183060" lon="10.3132370">
	<ele>942.00</ele>
	<time>2025-04-29T10:43:39.000Z</time>
</trkpt>
<trkpt lat="45.9183060" lon="10.3132370">
	<ele>942.00</ele>
	<time>2025-04-29T10:43:40.000Z</time>
</trkpt>
<trkpt lat="45.9183060" lon="10.3132370">
	<ele>942.00</ele>
	<time>2025-04-29T10:43:41.000Z</time>
</trkpt>
<trkpt lat="45.9183060" lon="10.3132370">
	<ele>942.00</ele>
	<time>2025-04-29T10:43:42.000Z</time>
</trkpt>
<trkpt lat="45.9183060" lon="10.3132370">
	<ele>942.00</ele>
	<time>2025-04-29T10:43:43.000Z</time>
</trkpt>
<trkpt lat="45.9183060" lon="10.3132370">
	<ele>942.00</ele>
	<time>2025-04-29T10:43:44.000Z</time>
</trkpt>
<trkpt lat="45.9183060" lon="10.3132370">
	<ele>942.00</ele>
	<time>2025-04-29T10:43:45.000Z</time>
</trkpt>
<trkpt lat="45.9183060" lon="10.3132370">
	<ele>942.00</ele>
	<time>2025-04-29T10:43:46.000Z</time>
</trkpt>
<trkpt lat="45.9183060" lon="10.3132370">
	<ele>942.00</ele>
	<time>2025-04-29T10:43:47.000Z</time>
</trkpt>
<trkpt lat="45.9183060" lon="10.3132370">
	<ele>942.00</ele>
	<time>2025-04-29T10:43:48.000Z</time>
</trkpt>
<trkpt lat="45.9183050" lon="10.3132370">
	<ele>942.00</ele>
	<time>2025-04-29T10:43:49.000Z</time>
</trkpt>
<trkpt lat="45.9183040" lon="10.3132370">
	<ele>942.00</ele>
	<time>2025-04-29T10:43:50.000Z</time>
</trkpt>
<trkpt lat="45.9183030" lon="10.3132360">
	<ele>942.00</ele>
	<time>2025-04-29T10:43:51.000Z</time>
</trkpt>
<trkpt lat="45.9183030" lon="10.3132360">
	<ele>942.00</ele>
	<time>2025-04-29T10:43:52.000Z</time>
</trkpt>
<trkpt lat="45.9183010" lon="10.3132300">
	<ele>942.00</ele>
	<time>2025-04-29T10:43:53.000Z</time>
</trkpt>
<trkpt lat="45.9182980" lon="10.3132170">
	<ele>942.00</ele>
	<time>2025-04-29T10:43:54.000Z</time>
</trkpt>
<trkpt lat="45.9182960" lon="10.3132110">
	<ele>942.00</ele>
	<time>2025-04-29T10:43:55.000Z</time>
</trkpt>
<trkpt lat="45.9182890" lon="10.3132070">
	<ele>942.00</ele>
	<time>2025-04-29T10:43:56.000Z</time>
</trkpt>
<trkpt lat="45.9182810" lon="10.3132160">
	<ele>942.00</ele>
	<time>2025-04-29T10:43:57.000Z</time>
</trkpt>
<trkpt lat="45.9182740" lon="10.3132230">
	<ele>942.00</ele>
	<time>2025-04-29T10:43:58.000Z</time>
</trkpt>
<trkpt lat="45.9182680" lon="10.3132230">
	<ele>942.00</ele>
	<time>2025-04-29T10:43:59.000Z</time>
</trkpt>
<trkpt lat="45.9182690" lon="10.3132140">
	<ele>942.00</ele>
	<time>2025-04-29T10:44:00.000Z</time>
</trkpt>
<trkpt lat="45.9182610" lon="10.3132210">
	<ele>942.00</ele>
	<time>2025-04-29T10:44:01.000Z</time>
</trkpt>
<trkpt lat="45.9182650" lon="10.3132270">
	<ele>942.00</ele>
	<time>2025-04-29T10:44:02.000Z</time>
</trkpt>
<trkpt lat="45.9182690" lon="10.3132330">
	<ele>942.00</ele>
	<time>2025-04-29T10:44:03.000Z</time>
</trkpt>
<trkpt lat="45.9182750" lon="10.3132410">
	<ele>942.00</ele>
	<time>2025-04-29T10:44:04.000Z</time>
</trkpt>
<trkpt lat="45.9182650" lon="10.3132340">
	<ele>942.00</ele>
	<time>2025-04-29T10:44:05.000Z</time>
</trkpt>
<trkpt lat="45.9182680" lon="10.3132390">
	<ele>942.00</ele>
	<time>2025-04-29T10:44:06.000Z</time>
</trkpt>
<trkpt lat="45.9182590" lon="10.3132260">
	<ele>942.00</ele>
	<time>2025-04-29T10:44:07.000Z</time>
</trkpt>
<trkpt lat="45.9182580" lon="10.3132220">
	<ele>942.00</ele>
	<time>2025-04-29T10:44:08.000Z</time>
</trkpt>
<trkpt lat="45.9182580" lon="10.3132190">
	<ele>942.00</ele>
	<time>2025-04-29T10:44:09.000Z</time>
</trkpt>
<trkpt lat="45.9182550" lon="10.3132110">
	<ele>942.00</ele>
	<time>2025-04-29T10:44:10.000Z</time>
</trkpt>
<trkpt lat="45.9182510" lon="10.3132050">
	<ele>942.00</ele>
	<time>2025-04-29T10:44:11.000Z</time>
</trkpt>
<trkpt lat="45.9182470" lon="10.3131970">
	<ele>942.00</ele>
	<time>2025-04-29T10:44:12.000Z</time>
</trkpt>
<trkpt lat="45.9182400" lon="10.3131860">
	<ele>942.00</ele>
	<time>2025-04-29T10:44:13.000Z</time>
</trkpt>
<trkpt lat="45.9182300" lon="10.3131710">
	<ele>942.00</ele>
	<time>2025-04-29T10:44:14.000Z</time>
</trkpt>
<trkpt lat="45.9182190" lon="10.3131570">
	<ele>942.00</ele>
	<time>2025-04-29T10:44:15.000Z</time>
</trkpt>
<trkpt lat="45.9182180" lon="10.3131510">
	<ele>942.00</ele>
	<time>2025-04-29T10:44:16.000Z</time>
</trkpt>
<trkpt lat="45.9182150" lon="10.3131430">
	<ele>942.00</ele>
	<time>2025-04-29T10:44:17.000Z</time>
</trkpt>
<trkpt lat="45.9182180" lon="10.3131450">
	<ele>942.00</ele>
	<time>2025-04-29T10:44:18.000Z</time>
</trkpt>
<trkpt lat="45.9182130" lon="10.3131440">
	<ele>942.00</ele>
	<time>2025-04-29T10:44:19.000Z</time>
</trkpt>
<trkpt lat="45.9182100" lon="10.3131420">
	<ele>942.00</ele>
	<time>2025-04-29T10:44:20.000Z</time>
</trkpt>
<trkpt lat="45.9182000" lon="10.3131380">
	<ele>942.00</ele>
	<time>2025-04-29T10:44:21.000Z</time>
</trkpt>
<trkpt lat="45.9181800" lon="10.3131270">
	<ele>942.00</ele>
	<time>2025-04-29T10:44:22.000Z</time>
</trkpt>
<trkpt lat="45.9181650" lon="10.3131180">
	<ele>942.00</ele>
	<time>2025-04-29T10:44:23.000Z</time>
</trkpt>
<trkpt lat="45.9181440" lon="10.3130940">
	<ele>942.00</ele>
	<time>2025-04-29T10:44:24.000Z</time>
</trkpt>
<trkpt lat="45.9181290" lon="10.3130840">
	<ele>941.20</ele>
	<time>2025-04-29T10:44:25.000Z</time>
</trkpt>
<trkpt lat="45.9181200" lon="10.3130870">
	<ele>940.80</ele>
	<time>2025-04-29T10:44:26.000Z</time>
</trkpt>
<trkpt lat="45.9181060" lon="10.3130890">
	<ele>940.60</ele>
	<time>2025-04-29T10:44:27.000Z</time>
</trkpt>
<trkpt lat="45.9180930" lon="10.3130930">
	<ele>940.40</ele>
	<time>2025-04-29T10:44:28.000Z</time>
</trkpt>
<trkpt lat="45.9180880" lon="10.3131020">
	<ele>940.40</ele>
	<time>2025-04-29T10:44:29.000Z</time>
</trkpt>
<trkpt lat="45.9180810" lon="10.3131110">
	<ele>940.20</ele>
	<time>2025-04-29T10:44:30.000Z</time>
</trkpt>
<trkpt lat="45.9180780" lon="10.3131200">
	<ele>940.20</ele>
	<time>2025-04-29T10:44:31.000Z</time>
</trkpt>
<trkpt lat="45.9180680" lon="10.3131240">
	<ele>940.00</ele>
	<time>2025-04-29T10:44:32.000Z</time>
</trkpt>
<trkpt lat="45.9180550" lon="10.3131290">
	<ele>940.00</ele>
	<time>2025-04-29T10:44:33.000Z</time>
</trkpt>
<trkpt lat="45.9180390" lon="10.3131290">
	<ele>940.00</ele>
	<time>2025-04-29T10:44:34.000Z</time>
</trkpt>
<trkpt lat="45.9180300" lon="10.3131330">
	<ele>940.00</ele>
	<time>2025-04-29T10:44:35.000Z</time>
</trkpt>
<trkpt lat="45.9180220" lon="10.3131310">
	<ele>940.00</ele>
	<time>2025-04-29T10:44:36.000Z</time>
</trkpt>
<trkpt lat="45.9180130" lon="10.3131310">
	<ele>940.00</ele>
	<time>2025-04-29T10:44:37.000Z</time>
</trkpt>
<trkpt lat="45.9179960" lon="10.3131320">
	<ele>939.80</ele>
	<time>2025-04-29T10:44:38.000Z</time>
</trkpt>
<trkpt lat="45.9179890" lon="10.3131430">
	<ele>939.80</ele>
	<time>2025-04-29T10:44:39.000Z</time>
</trkpt>
<trkpt lat="45.9179820" lon="10.3131420">
	<ele>939.80</ele>
	<time>2025-04-29T10:44:40.000Z</time>
</trkpt>
<trkpt lat="45.9179740" lon="10.3131520">
	<ele>939.80</ele>
	<time>2025-04-29T10:44:41.000Z</time>
</trkpt>
<trkpt lat="45.9179620" lon="10.3131580">
	<ele>939.80</ele>
	<time>2025-04-29T10:44:42.000Z</time>
</trkpt>
<trkpt lat="45.9179430" lon="10.3131560">
	<ele>939.80</ele>
	<time>2025-04-29T10:44:43.000Z</time>
</trkpt>
<trkpt lat="45.9179250" lon="10.3131580">
	<ele>939.80</ele>
	<time>2025-04-29T10:44:44.000Z</time>
</trkpt>
<trkpt lat="45.9179110" lon="10.3131680">
	<ele>939.80</ele>
	<time>2025-04-29T10:44:45.000Z</time>
</trkpt>
<trkpt lat="45.9178940" lon="10.3131750">
	<ele>939.80</ele>
	<time>2025-04-29T10:44:46.000Z</time>
</trkpt>
<trkpt lat="45.9178740" lon="10.3131720">
	<ele>940.00</ele>
	<time>2025-04-29T10:44:47.000Z</time>
</trkpt>
<trkpt lat="45.9178570" lon="10.3131720">
	<ele>940.00</ele>
	<time>2025-04-29T10:44:48.000Z</time>
</trkpt>
<trkpt lat="45.9178420" lon="10.3131750">
	<ele>940.00</ele>
	<time>2025-04-29T10:44:49.000Z</time>
</trkpt>
<trkpt lat="45.9178310" lon="10.3131850">
	<ele>939.80</ele>
	<time>2025-04-29T10:44:50.000Z</time>
</trkpt>
<trkpt lat="45.9178220" lon="10.3131960">
	<ele>939.80</ele>
	<time>2025-04-29T10:44:51.000Z</time>
</trkpt>
<trkpt lat="45.9178130" lon="10.3132100">
	<ele>939.80</ele>
	<time>2025-04-29T10:44:52.000Z</time>
</trkpt>
<trkpt lat="45.9178040" lon="10.3132230">
	<ele>939.60</ele>
	<time>2025-04-29T10:44:53.000Z</time>
</trkpt>
<trkpt lat="45.9177970" lon="10.3132340">
	<ele>939.40</ele>
	<time>2025-04-29T10:44:54.000Z</time>
</trkpt>
<trkpt lat="45.9177920" lon="10.3132440">
	<ele>939.20</ele>
	<time>2025-04-29T10:44:55.000Z</time>
</trkpt>
<trkpt lat="45.9177790" lon="10.3132490">
	<ele>939.00</ele>
	<time>2025-04-29T10:44:56.000Z</time>
</trkpt>
<trkpt lat="45.9177660" lon="10.3132540">
	<ele>938.80</ele>
	<time>2025-04-29T10:44:57.000Z</time>
</trkpt>
<trkpt lat="45.9177540" lon="10.3132650">
	<ele>938.80</ele>
	<time>2025-04-29T10:44:58.000Z</time>
</trkpt>
<trkpt lat="45.9177380" lon="10.3132770">
	<ele>938.60</ele>
	<time>2025-04-29T10:44:59.000Z</time>
</trkpt>
<trkpt lat="45.9177290" lon="10.3133000">
	<ele>938.60</ele>
	<time>2025-04-29T10:45:00.000Z</time>
</trkpt>
<trkpt lat="45.9177080" lon="10.3133110">
	<ele>938.40</ele>
	<time>2025-04-29T10:45:01.000Z</time>
</trkpt>
<trkpt lat="45.9176890" lon="10.3133170">
	<ele>938.00</ele>
	<time>2025-04-29T10:45:02.000Z</time>
</trkpt>
<trkpt lat="45.9176820" lon="10.3133390">
	<ele>937.80</ele>
	<time>2025-04-29T10:45:03.000Z</time>
</trkpt>
<trkpt lat="45.9176670" lon="10.3133500">
	<ele>937.40</ele>
	<time>2025-04-29T10:45:04.000Z</time>
</trkpt>
<trkpt lat="45.9176530" lon="10.3133530">
	<ele>937.00</ele>
	<time>2025-04-29T10:45:05.000Z</time>
</trkpt>
<trkpt lat="45.9176470" lon="10.3133710">
	<ele>936.80</ele>
	<time>2025-04-29T10:45:06.000Z</time>
</trkpt>
<trkpt lat="45.9176370" lon="10.3133960">
	<ele>936.60</ele>
	<time>2025-04-29T10:45:07.000Z</time>
</trkpt>
<trkpt lat="45.9176350" lon="10.3134190">
	<ele>936.40</ele>
	<time>2025-04-29T10:45:08.000Z</time>
</trkpt>
<trkpt lat="45.9176440" lon="10.3134510">
	<ele>936.20</ele>
	<time>2025-04-29T10:45:09.000Z</time>
</trkpt>
<trkpt lat="45.9176300" lon="10.3134580">
	<ele>936.00</ele>
	<time>2025-04-29T10:45:10.000Z</time>
</trkpt>
<trkpt lat="45.9176260" lon="10.3134700">
	<ele>935.80</ele>
	<time>2025-04-29T10:45:11.000Z</time>
</trkpt>
<trkpt lat="45.9176190" lon="10.3134890">
	<ele>935.60</ele>
	<time>2025-04-29T10:45:12.000Z</time>
</trkpt>
<trkpt lat="45.9176220" lon="10.3135100">
	<ele>935.40</ele>
	<time>2025-04-29T10:45:13.000Z</time>
</trkpt>
<trkpt lat="45.9176190" lon="10.3135170">
	<ele>935.20</ele>
	<time>2025-04-29T10:45:14.000Z</time>
</trkpt>
<trkpt lat="45.9176030" lon="10.3135060">
	<ele>935.00</ele>
	<time>2025-04-29T10:45:15.000Z</time>
</trkpt>
<trkpt lat="45.9175890" lon="10.3134780">
	<ele>934.80</ele>
	<time>2025-04-29T10:45:16.000Z</time>
</trkpt>
<trkpt lat="45.9175780" lon="10.3134590">
	<ele>934.60</ele>
	<time>2025-04-29T10:45:17.000Z</time>
</trkpt>
<trkpt lat="45.9175690" lon="10.3134570">
	<ele>934.40</ele>
	<time>2025-04-29T10:45:18.000Z</time>
</trkpt>
<trkpt lat="45.9175560" lon="10.3134420">
	<ele>934.20</ele>
	<time>2025-04-29T10:45:19.000Z</time>
</trkpt>
<trkpt lat="45.9175450" lon="10.3134350">
	<ele>933.80</ele>
	<time>2025-04-29T10:45:20.000Z</time>
</trkpt>
<trkpt lat="45.9175420" lon="10.3134230">
	<ele>933.40</ele>
	<time>2025-04-29T10:45:21.000Z</time>
</trkpt>
<trkpt lat="45.9175440" lon="10.3134140">
	<ele>933.00</ele>
	<time>2025-04-29T10:45:22.000Z</time>
</trkpt>
<trkpt lat="45.9175460" lon="10.3133990">
	<ele>932.60</ele>
	<time>2025-04-29T10:45:23.000Z</time>
</trkpt>
<trkpt lat="45.9175500" lon="10.3133880">
	<ele>932.40</ele>
	<time>2025-04-29T10:45:24.000Z</time>
</trkpt>
<trkpt lat="45.9175540" lon="10.3133720">
	<ele>932.40</ele>
	<time>2025-04-29T10:45:25.000Z</time>
</trkpt>
<trkpt lat="45.9175480" lon="10.3133470">
	<ele>932.20</ele>
	<time>2025-04-29T10:45:26.000Z</time>
</trkpt>
<trkpt lat="45.9175410" lon="10.3133260">
	<ele>932.00</ele>
	<time>2025-04-29T10:45:27.000Z</time>
</trkpt>
<trkpt lat="45.9175450" lon="10.3133150">
	<ele>931.80</ele>
	<time>2025-04-29T10:45:28.000Z</time>
</trkpt>
<trkpt lat="45.9175500" lon="10.3132990">
	<ele>931.60</ele>
	<time>2025-04-29T10:45:29.000Z</time>
</trkpt>
<trkpt lat="45.9175480" lon="10.3132800">
	<ele>931.40</ele>
	<time>2025-04-29T10:45:30.000Z</time>
</trkpt>
<trkpt lat="45.9175550" lon="10.3132600">
	<ele>931.20</ele>
	<time>2025-04-29T10:45:31.000Z</time>
</trkpt>
<trkpt lat="45.9175630" lon="10.3132480">
	<ele>931.20</ele>
	<time>2025-04-29T10:45:32.000Z</time>
</trkpt>
<trkpt lat="45.9175690" lon="10.3132350">
	<ele>931.00</ele>
	<time>2025-04-29T10:45:33.000Z</time>
</trkpt>
<trkpt lat="45.9175740" lon="10.3132170">
	<ele>930.80</ele>
	<time>2025-04-29T10:45:34.000Z</time>
</trkpt>
<trkpt lat="45.9175790" lon="10.3132060">
	<ele>930.60</ele>
	<time>2025-04-29T10:45:35.000Z</time>
</trkpt>
<trkpt lat="45.9175840" lon="10.3131940">
	<ele>930.60</ele>
	<time>2025-04-29T10:45:36.000Z</time>
</trkpt>
<trkpt lat="45.9175900" lon="10.3131790">
	<ele>930.20</ele>
	<time>2025-04-29T10:45:37.000Z</time>
</trkpt>
<trkpt lat="45.9175930" lon="10.3131610">
	<ele>930.00</ele>
	<time>2025-04-29T10:45:38.000Z</time>
</trkpt>
<trkpt lat="45.9175980" lon="10.3131450">
	<ele>929.60</ele>
	<time>2025-04-29T10:45:39.000Z</time>
</trkpt>
<trkpt lat="45.9176050" lon="10.3131280">
	<ele>929.20</ele>
	<time>2025-04-29T10:45:40.000Z</time>
</trkpt>
<trkpt lat="45.9176100" lon="10.3131110">
	<ele>929.00</ele>
	<time>2025-04-29T10:45:41.000Z</time>
</trkpt>
<trkpt lat="45.9176210" lon="10.3130910">
	<ele>928.80</ele>
	<time>2025-04-29T10:45:42.000Z</time>
</trkpt>
<trkpt lat="45.9176350" lon="10.3130680">
	<ele>928.60</ele>
	<time>2025-04-29T10:45:43.000Z</time>
</trkpt>
<trkpt lat="45.9176380" lon="10.3130460">
	<ele>928.20</ele>
	<time>2025-04-29T10:45:44.000Z</time>
</trkpt>
<trkpt lat="45.9176500" lon="10.3130350">
	<ele>928.00</ele>
	<time>2025-04-29T10:45:45.000Z</time>
</trkpt>
<trkpt lat="45.9176570" lon="10.3130240">
	<ele>927.80</ele>
	<time>2025-04-29T10:45:46.000Z</time>
</trkpt>
<trkpt lat="45.9176700" lon="10.3130130">
	<ele>927.60</ele>
	<time>2025-04-29T10:45:47.000Z</time>
</trkpt>
<trkpt lat="45.9176810" lon="10.3130020">
	<ele>927.40</ele>
	<time>2025-04-29T10:45:48.000Z</time>
</trkpt>
<trkpt lat="45.9176890" lon="10.3129800">
	<ele>927.20</ele>
	<time>2025-04-29T10:45:49.000Z</time>
</trkpt>
<trkpt lat="45.9177000" lon="10.3129640">
	<ele>927.20</ele>
	<time>2025-04-29T10:45:50.000Z</time>
</trkpt>
<trkpt lat="45.9177100" lon="10.3129540">
	<ele>927.00</ele>
	<time>2025-04-29T10:45:51.000Z</time>
</trkpt>
<trkpt lat="45.9177220" lon="10.3129430">
	<ele>926.80</ele>
	<time>2025-04-29T10:45:52.000Z</time>
</trkpt>
<trkpt lat="45.9177320" lon="10.3129230">
	<ele>926.60</ele>
	<time>2025-04-29T10:45:53.000Z</time>
</trkpt>
<trkpt lat="45.9177460" lon="10.3129130">
	<ele>926.20</ele>
	<time>2025-04-29T10:45:54.000Z</time>
</trkpt>
<trkpt lat="45.9177520" lon="10.3128910">
	<ele>926.20</ele>
	<time>2025-04-29T10:45:55.000Z</time>
</trkpt>
<trkpt lat="45.9177580" lon="10.3128880">
	<ele>926.00</ele>
	<time>2025-04-29T10:45:56.000Z</time>
</trkpt>
<trkpt lat="45.9177600" lon="10.3128810">
	<ele>925.80</ele>
	<time>2025-04-29T10:45:57.000Z</time>
</trkpt>
<trkpt lat="45.9177540" lon="10.3128630">
	<ele>925.40</ele>
	<time>2025-04-29T10:45:58.000Z</time>
</trkpt>
<trkpt lat="45.9177650" lon="10.3128550">
	<ele>925.40</ele>
	<time>2025-04-29T10:45:59.000Z</time>
</trkpt>
<trkpt lat="45.9177720" lon="10.3128500">
	<ele>925.00</ele>
	<time>2025-04-29T10:46:00.000Z</time>
</trkpt>
<trkpt lat="45.9177780" lon="10.3128450">
	<ele>924.80</ele>
	<time>2025-04-29T10:46:01.000Z</time>
</trkpt>
<trkpt lat="45.9177890" lon="10.3128410">
	<ele>924.80</ele>
	<time>2025-04-29T10:46:02.000Z</time>
</trkpt>
<trkpt lat="45.9178060" lon="10.3128390">
	<ele>924.40</ele>
	<time>2025-04-29T10:46:03.000Z</time>
</trkpt>
<trkpt lat="45.9178190" lon="10.3128300">
	<ele>924.00</ele>
	<time>2025-04-29T10:46:04.000Z</time>
</trkpt>
<trkpt lat="45.9178290" lon="10.3128120">
	<ele>923.60</ele>
	<time>2025-04-29T10:46:05.000Z</time>
</trkpt>
<trkpt lat="45.9178290" lon="10.3127880">
	<ele>923.40</ele>
	<time>2025-04-29T10:46:06.000Z</time>
</trkpt>
<trkpt lat="45.9178350" lon="10.3127710">
	<ele>923.20</ele>
	<time>2025-04-29T10:46:07.000Z</time>
</trkpt>
<trkpt lat="45.9178450" lon="10.3127580">
	<ele>922.80</ele>
	<time>2025-04-29T10:46:08.000Z</time>
</trkpt>
<trkpt lat="45.9178520" lon="10.3127380">
	<ele>922.60</ele>
	<time>2025-04-29T10:46:09.000Z</time>
</trkpt>
<trkpt lat="45.9178600" lon="10.3127250">
	<ele>922.20</ele>
	<time>2025-04-29T10:46:10.000Z</time>
</trkpt>
<trkpt lat="45.9178680" lon="10.3127110">
	<ele>922.00</ele>
	<time>2025-04-29T10:46:11.000Z</time>
</trkpt>
<trkpt lat="45.9178700" lon="10.3126920">
	<ele>921.60</ele>
	<time>2025-04-29T10:46:12.000Z</time>
</trkpt>
<trkpt lat="45.9178750" lon="10.3126700">
	<ele>921.20</ele>
	<time>2025-04-29T10:46:13.000Z</time>
</trkpt>
<trkpt lat="45.9178630" lon="10.3126410">
	<ele>921.00</ele>
	<time>2025-04-29T10:46:14.000Z</time>
</trkpt>
<trkpt lat="45.9178550" lon="10.3126150">
	<ele>920.80</ele>
	<time>2025-04-29T10:46:15.000Z</time>
</trkpt>
<trkpt lat="45.9178530" lon="10.3125870">
	<ele>920.40</ele>
	<time>2025-04-29T10:46:16.000Z</time>
</trkpt>
<trkpt lat="45.9178540" lon="10.3125660">
	<ele>920.00</ele>
	<time>2025-04-29T10:46:17.000Z</time>
</trkpt>
<trkpt lat="45.9178620" lon="10.3125480">
	<ele>919.60</ele>
	<time>2025-04-29T10:46:18.000Z</time>
</trkpt>
<trkpt lat="45.9178720" lon="10.3125360">
	<ele>919.40</ele>
	<time>2025-04-29T10:46:19.000Z</time>
</trkpt>
<trkpt lat="45.9178840" lon="10.3125300">
	<ele>919.20</ele>
	<time>2025-04-29T10:46:20.000Z</time>
</trkpt>
<trkpt lat="45.9178970" lon="10.3125260">
	<ele>919.00</ele>
	<time>2025-04-29T10:46:21.000Z</time>
</trkpt>
<trkpt lat="45.9178990" lon="10.3125190">
	<ele>918.60</ele>
	<time>2025-04-29T10:46:22.000Z</time>
</trkpt>
<trkpt lat="45.9179060" lon="10.3125080">
	<ele>918.20</ele>
	<time>2025-04-29T10:46:23.000Z</time>
</trkpt>
<trkpt lat="45.9179080" lon="10.3124980">
	<ele>918.00</ele>
	<time>2025-04-29T10:46:24.000Z</time>
</trkpt>
<trkpt lat="45.9179160" lon="10.3124870">
	<ele>917.80</ele>
	<time>2025-04-29T10:46:25.000Z</time>
</trkpt>
<trkpt lat="45.9179200" lon="10.3124740">
	<ele>917.40</ele>
	<time>2025-04-29T10:46:26.000Z</time>
</trkpt>
<trkpt lat="45.9179260" lon="10.3124550">
	<ele>917.20</ele>
	<time>2025-04-29T10:46:27.000Z</time>
</trkpt>
<trkpt lat="45.9179290" lon="10.3124340">
	<ele>916.80</ele>
	<time>2025-04-29T10:46:28.000Z</time>
</trkpt>
<trkpt lat="45.9179260" lon="10.3124090">
	<ele>916.60</ele>
	<time>2025-04-29T10:46:29.000Z</time>
</trkpt>
<trkpt lat="45.9179270" lon="10.3123910">
	<ele>916.40</ele>
	<time>2025-04-29T10:46:30.000Z</time>
</trkpt>
<trkpt lat="45.9179230" lon="10.3123710">
	<ele>916.00</ele>
	<time>2025-04-29T10:46:31.000Z</time>
</trkpt>
<trkpt lat="45.9179250" lon="10.3123490">
	<ele>915.80</ele>
	<time>2025-04-29T10:46:32.000Z</time>
</trkpt>
<trkpt lat="45.9179440" lon="10.3123430">
	<ele>915.60</ele>
	<time>2025-04-29T10:46:33.000Z</time>
</trkpt>
<trkpt lat="45.9179650" lon="10.3123410">
	<ele>915.40</ele>
	<time>2025-04-29T10:46:34.000Z</time>
</trkpt>
<trkpt lat="45.9179820" lon="10.3123430">
	<ele>915.00</ele>
	<time>2025-04-29T10:46:35.000Z</time>
</trkpt>
<trkpt lat="45.9180020" lon="10.3123540">
	<ele>914.60</ele>
	<time>2025-04-29T10:46:36.000Z</time>
</trkpt>
<trkpt lat="45.9180190" lon="10.3123450">
	<ele>914.20</ele>
	<time>2025-04-29T10:46:37.000Z</time>
</trkpt>
<trkpt lat="45.9180280" lon="10.3123240">
	<ele>913.80</ele>
	<time>2025-04-29T10:46:38.000Z</time>
</trkpt>
<trkpt lat="45.9180400" lon="10.3123110">
	<ele>913.60</ele>
	<time>2025-04-29T10:46:39.000Z</time>
</trkpt>
<trkpt lat="45.9180500" lon="10.3123040">
	<ele>913.20</ele>
	<time>2025-04-29T10:46:40.000Z</time>
</trkpt>
<trkpt lat="45.9180590" lon="10.3122880">
	<ele>913.00</ele>
	<time>2025-04-29T10:46:41.000Z</time>
</trkpt>
<trkpt lat="45.9180720" lon="10.3122740">
	<ele>912.60</ele>
	<time>2025-04-29T10:46:42.000Z</time>
</trkpt>
<trkpt lat="45.9180970" lon="10.3122690">
	<ele>912.20</ele>
	<time>2025-04-29T10:46:43.000Z</time>
</trkpt>
<trkpt lat="45.9181130" lon="10.3122570">
	<ele>911.80</ele>
	<time>2025-04-29T10:46:44.000Z</time>
</trkpt>
<trkpt lat="45.9181150" lon="10.3122360">
	<ele>911.60</ele>
	<time>2025-04-29T10:46:45.000Z</time>
</trkpt>
<trkpt lat="45.9181170" lon="10.3122130">
	<ele>911.20</ele>
	<time>2025-04-29T10:46:46.000Z</time>
</trkpt>
<trkpt lat="45.9181110" lon="10.3121890">
	<ele>911.00</ele>
	<time>2025-04-29T10:46:47.000Z</time>
</trkpt>
<trkpt lat="45.9181140" lon="10.3121850">
	<ele>910.60</ele>
	<time>2025-04-29T10:46:48.000Z</time>
</trkpt>
<trkpt lat="45.9181110" lon="10.3121790">
	<ele>910.40</ele>
	<time>2025-04-29T10:46:49.000Z</time>
</trkpt>
<trkpt lat="45.9181050" lon="10.3121650">
	<ele>910.20</ele>
	<time>2025-04-29T10:46:50.000Z</time>
</trkpt>
<trkpt lat="45.9180970" lon="10.3121440">
	<ele>910.00</ele>
	<time>2025-04-29T10:46:51.000Z</time>
</trkpt>
<trkpt lat="45.9180850" lon="10.3121240">
	<ele>909.60</ele>
	<time>2025-04-29T10:46:52.000Z</time>
</trkpt>
<trkpt lat="45.9180740" lon="10.3121040">
	<ele>909.20</ele>
	<time>2025-04-29T10:46:53.000Z</time>
</trkpt>
<trkpt lat="45.9180690" lon="10.3120940">
	<ele>908.80</ele>
	<time>2025-04-29T10:46:54.000Z</time>
</trkpt>
<trkpt lat="45.9180700" lon="10.3120920">
	<ele>908.60</ele>
	<time>2025-04-29T10:46:55.000Z</time>
</trkpt>
<trkpt lat="45.9180580" lon="10.3120720">
	<ele>908.40</ele>
	<time>2025-04-29T10:46:56.000Z</time>
</trkpt>
<trkpt lat="45.9180460" lon="10.3120580">
	<ele>908.20</ele>
	<time>2025-04-29T10:46:57.000Z</time>
</trkpt>
<trkpt lat="45.9180390" lon="10.3120480">
	<ele>908.20</ele>
	<time>2025-04-29T10:46:58.000Z</time>
</trkpt>
<trkpt lat="45.9180370" lon="10.3120460">
	<ele>908.00</ele>
	<time>2025-04-29T10:46:59.000Z</time>
</trkpt>
<trkpt lat="45.9180350" lon="10.3120430">
	<ele>907.80</ele>
	<time>2025-04-29T10:47:00.000Z</time>
</trkpt>
<trkpt lat="45.9180340" lon="10.3120400">
	<ele>907.80</ele>
	<time>2025-04-29T10:47:01.000Z</time>
</trkpt>
<trkpt lat="45.9180320" lon="10.3120390">
	<ele>907.60</ele>
	<time>2025-04-29T10:47:02.000Z</time>
</trkpt>
<trkpt lat="45.9180110" lon="10.3120160">
	<ele>907.60</ele>
	<time>2025-04-29T10:47:03.000Z</time>
</trkpt>
<trkpt lat="45.9179970" lon="10.3119970">
	<ele>907.40</ele>
	<time>2025-04-29T10:47:04.000Z</time>
</trkpt>
<trkpt lat="45.9179810" lon="10.3119750">
	<ele>907.20</ele>
	<time>2025-04-29T10:47:05.000Z</time>
</trkpt>
<trkpt lat="45.9179800" lon="10.3119740">
	<ele>907.20</ele>
	<time>2025-04-29T10:47:06.000Z</time>
</trkpt>
<trkpt lat="45.9179680" lon="10.3119560">
	<ele>907.00</ele>
	<time>2025-04-29T10:47:07.000Z</time>
</trkpt>
<trkpt lat="45.9179660" lon="10.3119550">
	<ele>906.60</ele>
	<time>2025-04-29T10:47:08.000Z</time>
</trkpt>
<trkpt lat="45.9179670" lon="10.3119550">
	<ele>906.60</ele>
	<time>2025-04-29T10:47:09.000Z</time>
</trkpt>
<trkpt lat="45.9179590" lon="10.3119370">
	<ele>906.40</ele>
	<time>2025-04-29T10:47:10.000Z</time>
</trkpt>
<trkpt lat="45.9179470" lon="10.3119180">
	<ele>906.20</ele>
	<time>2025-04-29T10:47:11.000Z</time>
</trkpt>
<trkpt lat="45.9179440" lon="10.3119150">
	<ele>906.00</ele>
	<time>2025-04-29T10:47:12.000Z</time>
</trkpt>
<trkpt lat="45.9179550" lon="10.3119260">
	<ele>906.00</ele>
	<time>2025-04-29T10:47:13.000Z</time>
</trkpt>
<trkpt lat="45.9179490" lon="10.3119190">
	<ele>905.60</ele>
	<time>2025-04-29T10:47:14.000Z</time>
</trkpt>
<trkpt lat="45.9179450" lon="10.3119240">
	<ele>905.40</ele>
	<time>2025-04-29T10:47:15.000Z</time>
</trkpt>
<trkpt lat="45.9179400" lon="10.3119290">
	<ele>905.00</ele>
	<time>2025-04-29T10:47:16.000Z</time>
</trkpt>
<trkpt lat="45.9179250" lon="10.3119290">
	<ele>904.80</ele>
	<time>2025-04-29T10:47:17.000Z</time>
</trkpt>
<trkpt lat="45.9179100" lon="10.3119100">
	<ele>904.60</ele>
	<time>2025-04-29T10:47:18.000Z</time>
</trkpt>
<trkpt lat="45.9178910" lon="10.3118950">
	<ele>904.60</ele>
	<time>2025-04-29T10:47:19.000Z</time>
</trkpt>
<trkpt lat="45.9178580" lon="10.3118630">
	<ele>904.40</ele>
	<time>2025-04-29T10:47:20.000Z</time>
</trkpt>
<trkpt lat="45.9178410" lon="10.3118480">
	<ele>904.20</ele>
	<time>2025-04-29T10:47:21.000Z</time>
</trkpt>
<trkpt lat="45.9178270" lon="10.3118350">
	<ele>903.80</ele>
	<time>2025-04-29T10:47:22.000Z</time>
</trkpt>
<trkpt lat="45.9178160" lon="10.3118240">
	<ele>903.40</ele>
	<time>2025-04-29T10:47:23.000Z</time>
</trkpt>
<trkpt lat="45.9178120" lon="10.3118240">
	<ele>903.00</ele>
	<time>2025-04-29T10:47:24.000Z</time>
</trkpt>
<trkpt lat="45.9177880" lon="10.3118030">
	<ele>902.80</ele>
	<time>2025-04-29T10:47:25.000Z</time>
</trkpt>
<trkpt lat="45.9177640" lon="10.3118030">
	<ele>902.40</ele>
	<time>2025-04-29T10:47:26.000Z</time>
</trkpt>
<trkpt lat="45.9177590" lon="10.3117890">
	<ele>902.20</ele>
	<time>2025-04-29T10:47:27.000Z</time>
</trkpt>
<trkpt lat="45.9177480" lon="10.3117720">
	<ele>902.00</ele>
	<time>2025-04-29T10:47:28.000Z</time>
</trkpt>
<trkpt lat="45.9177310" lon="10.3117590">
	<ele>901.80</ele>
	<time>2025-04-29T10:47:29.000Z</time>
</trkpt>
<trkpt lat="45.9177100" lon="10.3117410">
	<ele>901.60</ele>
	<time>2025-04-29T10:47:30.000Z</time>
</trkpt>
<trkpt lat="45.9176900" lon="10.3117240">
	<ele>901.20</ele>
	<time>2025-04-29T10:47:31.000Z</time>
</trkpt>
<trkpt lat="45.9176600" lon="10.3116950">
	<ele>901.00</ele>
	<time>2025-04-29T10:47:32.000Z</time>
</trkpt>
<trkpt lat="45.9176540" lon="10.3116910">
	<ele>900.80</ele>
	<time>2025-04-29T10:47:33.000Z</time>
</trkpt>
<trkpt lat="45.9176290" lon="10.3116820">
	<ele>900.40</ele>
	<time>2025-04-29T10:47:34.000Z</time>
</trkpt>
<trkpt lat="45.9175960" lon="10.3116670">
	<ele>900.20</ele>
	<time>2025-04-29T10:47:35.000Z</time>
</trkpt>
<trkpt lat="45.9175850" lon="10.3116620">
	<ele>900.00</ele>
	<time>2025-04-29T10:47:36.000Z</time>
</trkpt>
<trkpt lat="45.9175820" lon="10.3116680">
	<ele>899.80</ele>
	<time>2025-04-29T10:47:37.000Z</time>
</trkpt>
<trkpt lat="45.9175680" lon="10.3116690">
	<ele>899.60</ele>
	<time>2025-04-29T10:47:38.000Z</time>
</trkpt>
<trkpt lat="45.9175550" lon="10.3116710">
	<ele>899.20</ele>
	<time>2025-04-29T10:47:39.000Z</time>
</trkpt>
<trkpt lat="45.9175520" lon="10.3116760">
	<ele>899.20</ele>
	<time>2025-04-29T10:47:40.000Z</time>
</trkpt>
<trkpt lat="45.9175580" lon="10.3116830">
	<ele>899.00</ele>
	<time>2025-04-29T10:47:41.000Z</time>
</trkpt>
<trkpt lat="45.9175650" lon="10.3117010">
	<ele>898.80</ele>
	<time>2025-04-29T10:47:42.000Z</time>
</trkpt>
<trkpt lat="45.9175800" lon="10.3117270">
	<ele>898.80</ele>
	<time>2025-04-29T10:47:43.000Z</time>
</trkpt>
<trkpt lat="45.9176490" lon="10.3117890">
	<ele>898.80</ele>
	<time>2025-04-29T10:47:44.000Z</time>
</trkpt>
<trkpt lat="45.9176780" lon="10.3118220">
	<ele>898.80</ele>
	<time>2025-04-29T10:47:45.000Z</time>
</trkpt>
<trkpt lat="45.9177000" lon="10.3118490">
	<ele>898.80</ele>
	<time>2025-04-29T10:47:46.000Z</time>
</trkpt>
<trkpt lat="45.9177200" lon="10.3118720">
	<ele>898.80</ele>
	<time>2025-04-29T10:47:47.000Z</time>
</trkpt>
<trkpt lat="45.9177320" lon="10.3118870">
	<ele>898.80</ele>
	<time>2025-04-29T10:47:48.000Z</time>
</trkpt>
<trkpt lat="45.9177330" lon="10.3118920">
	<ele>898.80</ele>
	<time>2025-04-29T10:47:49.000Z</time>
</trkpt>
<trkpt lat="45.9177320" lon="10.3118950">
	<ele>898.80</ele>
	<time>2025-04-29T10:47:50.000Z</time>
</trkpt>
<trkpt lat="45.9177360" lon="10.3119030">
	<ele>898.80</ele>
	<time>2025-04-29T10:47:51.000Z</time>
</trkpt>
<trkpt lat="45.9177440" lon="10.3119140">
	<ele>898.80</ele>
	<time>2025-04-29T10:47:52.000Z</time>
</trkpt>
<trkpt lat="45.9177400" lon="10.3119170">
	<ele>898.80</ele>
	<time>2025-04-29T10:47:53.000Z</time>
</trkpt>
<trkpt lat="45.9177420" lon="10.3119230">
	<ele>899.00</ele>
	<time>2025-04-29T10:47:54.000Z</time>
</trkpt>
<trkpt lat="45.9177410" lon="10.3119240">
	<ele>899.00</ele>
	<time>2025-04-29T10:47:55.000Z</time>
</trkpt>
<trkpt lat="45.9177400" lon="10.3119230">
	<ele>898.80</ele>
	<time>2025-04-29T10:47:56.000Z</time>
</trkpt>
<trkpt lat="45.9177390" lon="10.3119240">
	<ele>898.80</ele>
	<time>2025-04-29T10:47:57.000Z</time>
</trkpt>
<trkpt lat="45.9177270" lon="10.3119160">
	<ele>898.80</ele>
	<time>2025-04-29T10:47:58.000Z</time>
</trkpt>
<trkpt lat="45.9177110" lon="10.3119030">
	<ele>898.60</ele>
	<time>2025-04-29T10:47:59.000Z</time>
</trkpt>
<trkpt lat="45.9177100" lon="10.3119050">
	<ele>898.60</ele>
	<time>2025-04-29T10:48:00.000Z</time>
</trkpt>
<trkpt lat="45.9177040" lon="10.3119030">
	<ele>898.60</ele>
	<time>2025-04-29T10:48:01.000Z</time>
</trkpt>
<trkpt lat="45.9177040" lon="10.3119050">
	<ele>898.60</ele>
	<time>2025-04-29T10:48:02.000Z</time>
</trkpt>
<trkpt lat="45.9176910" lon="10.3118960">
	<ele>898.60</ele>
	<time>2025-04-29T10:48:03.000Z</time>
</trkpt>
<trkpt lat="45.9176940" lon="10.3119010">
	<ele>898.80</ele>
	<time>2025-04-29T10:48:04.000Z</time>
</trkpt>
<trkpt lat="45.9176950" lon="10.3118970">
	<ele>898.80</ele>
	<time>2025-04-29T10:48:05.000Z</time>
</trkpt>
<trkpt lat="45.9176940" lon="10.3118960">
	<ele>898.80</ele>
	<time>2025-04-29T10:48:06.000Z</time>
</trkpt>
<trkpt lat="45.9176790" lon="10.3118740">
	<ele>899.00</ele>
	<time>2025-04-29T10:48:07.000Z</time>
</trkpt>
<trkpt lat="45.9176750" lon="10.3118650">
	<ele>898.80</ele>
	<time>2025-04-29T10:48:08.000Z</time>
</trkpt>
<trkpt lat="45.9176520" lon="10.3118460">
	<ele>898.60</ele>
	<time>2025-04-29T10:48:09.000Z</time>
</trkpt>
<trkpt lat="45.9176320" lon="10.3118260">
	<ele>898.60</ele>
	<time>2025-04-29T10:48:10.000Z</time>
</trkpt>
<trkpt lat="45.9176340" lon="10.3118290">
	<ele>898.40</ele>
	<time>2025-04-29T10:48:11.000Z</time>
</trkpt>
<trkpt lat="45.9176340" lon="10.3118320">
	<ele>898.40</ele>
	<time>2025-04-29T10:48:12.000Z</time>
</trkpt>
<trkpt lat="45.9176210" lon="10.3118170">
	<ele>898.40</ele>
	<time>2025-04-29T10:48:13.000Z</time>
</trkpt>
<trkpt lat="45.9176080" lon="10.3118030">
	<ele>898.40</ele>
	<time>2025-04-29T10:48:14.000Z</time>
</trkpt>
<trkpt lat="45.9176040" lon="10.3117990">
	<ele>898.40</ele>
	<time>2025-04-29T10:48:15.000Z</time>
</trkpt>
<trkpt lat="45.9175960" lon="10.3117910">
	<ele>898.40</ele>
	<time>2025-04-29T10:48:16.000Z</time>
</trkpt>
<trkpt lat="45.9175930" lon="10.3117920">
	<ele>898.40</ele>
	<time>2025-04-29T10:48:17.000Z</time>
</trkpt>
<trkpt lat="45.9175920" lon="10.3117940">
	<ele>898.40</ele>
	<time>2025-04-29T10:48:18.000Z</time>
</trkpt>
<trkpt lat="45.9175970" lon="10.3118000">
	<ele>898.60</ele>
	<time>2025-04-29T10:48:19.000Z</time>
</trkpt>
<trkpt lat="45.9175990" lon="10.3118040">
	<ele>898.80</ele>
	<time>2025-04-29T10:48:20.000Z</time>
</trkpt>
<trkpt lat="45.9176010" lon="10.3118040">
	<ele>898.80</ele>
	<time>2025-04-29T10:48:21.000Z</time>
</trkpt>
<trkpt lat="45.9176030" lon="10.3118060">
	<ele>898.80</ele>
	<time>2025-04-29T10:48:22.000Z</time>
</trkpt>
<trkpt lat="45.9176050" lon="10.3118060">
	<ele>898.60</ele>
	<time>2025-04-29T10:48:23.000Z</time>
</trkpt>
<trkpt lat="45.9176050" lon="10.3118060">
	<ele>898.60</ele>
	<time>2025-04-29T10:48:24.000Z</time>
</trkpt>
<trkpt lat="45.9176010" lon="10.3117970">
	<ele>898.60</ele>
	<time>2025-04-29T10:48:25.000Z</time>
</trkpt>
<trkpt lat="45.9175950" lon="10.3117920">
	<ele>898.60</ele>
	<time>2025-04-29T10:48:26.000Z</time>
</trkpt>
<trkpt lat="45.9176000" lon="10.3117970">
	<ele>898.60</ele>
	<time>2025-04-29T10:48:27.000Z</time>
</trkpt>
<trkpt lat="45.9176030" lon="10.3118040">
	<ele>898.60</ele>
	<time>2025-04-29T10:48:28.000Z</time>
</trkpt>
<trkpt lat="45.9176030" lon="10.3118080">
	<ele>898.60</ele>
	<time>2025-04-29T10:48:29.000Z</time>
</trkpt>
<trkpt lat="45.9175940" lon="10.3117990">
	<ele>898.60</ele>
	<time>2025-04-29T10:48:30.000Z</time>
</trkpt>
<trkpt lat="45.9175940" lon="10.3117980">
	<ele>898.60</ele>
	<time>2025-04-29T10:48:31.000Z</time>
</trkpt>
<trkpt lat="45.9175880" lon="10.3117990">
	<ele>898.60</ele>
	<time>2025-04-29T10:48:32.000Z</time>
</trkpt>
<trkpt lat="45.9175900" lon="10.3118040">
	<ele>898.60</ele>
	<time>2025-04-29T10:48:33.000Z</time>
</trkpt>
<trkpt lat="45.9175830" lon="10.3117930">
	<ele>898.60</ele>
	<time>2025-04-29T10:48:34.000Z</time>
</trkpt>
<trkpt lat="45.9175730" lon="10.3117790">
	<ele>898.60</ele>
	<time>2025-04-29T10:48:35.000Z</time>
</trkpt>
<trkpt lat="45.9175560" lon="10.3117530">
	<ele>898.40</ele>
	<time>2025-04-29T10:48:36.000Z</time>
</trkpt>
<trkpt lat="45.9175460" lon="10.3117460">
	<ele>898.40</ele>
	<time>2025-04-29T10:48:37.000Z</time>
</trkpt>
<trkpt lat="45.9175430" lon="10.3117500">
	<ele>898.20</ele>
	<time>2025-04-29T10:48:38.000Z</time>
</trkpt>
<trkpt lat="45.9175360" lon="10.3117560">
	<ele>898.20</ele>
	<time>2025-04-29T10:48:39.000Z</time>
</trkpt>
<trkpt lat="45.9175300" lon="10.3117610">
	<ele>898.00</ele>
	<time>2025-04-29T10:48:40.000Z</time>
</trkpt>
<trkpt lat="45.9175100" lon="10.3117490">
	<ele>897.60</ele>
	<time>2025-04-29T10:48:41.000Z</time>
</trkpt>
<trkpt lat="45.9174910" lon="10.3117320">
	<ele>897.40</ele>
	<time>2025-04-29T10:48:42.000Z</time>
</trkpt>
<trkpt lat="45.9174750" lon="10.3117230">
	<ele>897.00</ele>
	<time>2025-04-29T10:48:43.000Z</time>
</trkpt>
<trkpt lat="45.9174610" lon="10.3117200">
	<ele>896.60</ele>
	<time>2025-04-29T10:48:44.000Z</time>
</trkpt>
<trkpt lat="45.9174490" lon="10.3117140">
	<ele>896.40</ele>
	<time>2025-04-29T10:48:45.000Z</time>
</trkpt>
<trkpt lat="45.9174360" lon="10.3117090">
	<ele>896.20</ele>
	<time>2025-04-29T10:48:46.000Z</time>
</trkpt>
<trkpt lat="45.9174230" lon="10.3117110">
	<ele>896.00</ele>
	<time>2025-04-29T10:48:47.000Z</time>
</trkpt>
<trkpt lat="45.9174100" lon="10.3117170">
	<ele>895.80</ele>
	<time>2025-04-29T10:48:48.000Z</time>
</trkpt>
<trkpt lat="45.9173920" lon="10.3117110">
	<ele>895.40</ele>
	<time>2025-04-29T10:48:49.000Z</time>
</trkpt>
<trkpt lat="45.9173820" lon="10.3117100">
	<ele>895.20</ele>
	<time>2025-04-29T10:48:50.000Z</time>
</trkpt>
<trkpt lat="45.9173720" lon="10.3117070">
	<ele>894.80</ele>
	<time>2025-04-29T10:48:51.000Z</time>
</trkpt>
<trkpt lat="45.9173620" lon="10.3117130">
	<ele>894.40</ele>
	<time>2025-04-29T10:48:52.000Z</time>
</trkpt>
<trkpt lat="45.9173520" lon="10.3117260">
	<ele>894.20</ele>
	<time>2025-04-29T10:48:53.000Z</time>
</trkpt>
<trkpt lat="45.9173340" lon="10.3117340">
	<ele>894.00</ele>
	<time>2025-04-29T10:48:54.000Z</time>
</trkpt>
<trkpt lat="45.9173230" lon="10.3117330">
	<ele>893.60</ele>
	<time>2025-04-29T10:48:55.000Z</time>
</trkpt>
<trkpt lat="45.9173200" lon="10.3117520">
	<ele>893.40</ele>
	<time>2025-04-29T10:48:56.000Z</time>
</trkpt>
<trkpt lat="45.9173090" lon="10.3117550">
	<ele>893.00</ele>
	<time>2025-04-29T10:48:57.000Z</time>
</trkpt>
<trkpt lat="45.9172970" lon="10.3117520">
	<ele>892.80</ele>
	<time>2025-04-29T10:48:58.000Z</time>
</trkpt>
<trkpt lat="45.9172890" lon="10.3117510">
	<ele>892.40</ele>
	<time>2025-04-29T10:48:59.000Z</time>
</trkpt>
<trkpt lat="45.9172610" lon="10.3117380">
	<ele>892.20</ele>
	<time>2025-04-29T10:49:00.000Z</time>
</trkpt>
<trkpt lat="45.9172380" lon="10.3117290">
	<ele>892.00</ele>
	<time>2025-04-29T10:49:01.000Z</time>
</trkpt>
<trkpt lat="45.9172140" lon="10.3117210">
	<ele>891.80</ele>
	<time>2025-04-29T10:49:02.000Z</time>
</trkpt>
<trkpt lat="45.9172010" lon="10.3117230">
	<ele>891.60</ele>
	<time>2025-04-29T10:49:03.000Z</time>
</trkpt>
<trkpt lat="45.9171980" lon="10.3117290">
	<ele>891.40</ele>
	<time>2025-04-29T10:49:04.000Z</time>
</trkpt>
<trkpt lat="45.9171850" lon="10.3117250">
	<ele>891.00</ele>
	<time>2025-04-29T10:49:05.000Z</time>
</trkpt>
<trkpt lat="45.9171730" lon="10.3117210">
	<ele>890.60</ele>
	<time>2025-04-29T10:49:06.000Z</time>
</trkpt>
<trkpt lat="45.9171640" lon="10.3117250">
	<ele>890.40</ele>
	<time>2025-04-29T10:49:07.000Z</time>
</trkpt>
<trkpt lat="45.9171570" lon="10.3117350">
	<ele>890.20</ele>
	<time>2025-04-29T10:49:08.000Z</time>
</trkpt>
<trkpt lat="45.9171480" lon="10.3117380">
	<ele>889.80</ele>
	<time>2025-04-29T10:49:09.000Z</time>
</trkpt>
<trkpt lat="45.9171420" lon="10.3117510">
	<ele>889.60</ele>
	<time>2025-04-29T10:49:10.000Z</time>
</trkpt>
<trkpt lat="45.9171320" lon="10.3117560">
	<ele>889.40</ele>
	<time>2025-04-29T10:49:11.000Z</time>
</trkpt>
<trkpt lat="45.9171210" lon="10.3117610">
	<ele>889.20</ele>
	<time>2025-04-29T10:49:12.000Z</time>
</trkpt>
<trkpt lat="45.9171120" lon="10.3117690">
	<ele>888.80</ele>
	<time>2025-04-29T10:49:13.000Z</time>
</trkpt>
<trkpt lat="45.9171070" lon="10.3117780">
	<ele>888.60</ele>
	<time>2025-04-29T10:49:14.000Z</time>
</trkpt>
<trkpt lat="45.9171040" lon="10.3117800">
	<ele>888.60</ele>
	<time>2025-04-29T10:49:15.000Z</time>
</trkpt>
<trkpt lat="45.9170940" lon="10.3117770">
	<ele>888.60</ele>
	<time>2025-04-29T10:49:16.000Z</time>
</trkpt>
<trkpt lat="45.9170830" lon="10.3117700">
	<ele>888.40</ele>
	<time>2025-04-29T10:49:17.000Z</time>
</trkpt>
<trkpt lat="45.9170550" lon="10.3117490">
	<ele>888.20</ele>
	<time>2025-04-29T10:49:18.000Z</time>
</trkpt>
<trkpt lat="45.9170510" lon="10.3117420">
	<ele>888.20</ele>
	<time>2025-04-29T10:49:19.000Z</time>
</trkpt>
<trkpt lat="45.9170470" lon="10.3117380">
	<ele>888.20</ele>
	<time>2025-04-29T10:49:20.000Z</time>
</trkpt>
<trkpt lat="45.9170550" lon="10.3117470">
	<ele>888.20</ele>
	<time>2025-04-29T10:49:21.000Z</time>
</trkpt>
<trkpt lat="45.9170390" lon="10.3117520">
	<ele>888.20</ele>
	<time>2025-04-29T10:49:22.000Z</time>
</trkpt>
<trkpt lat="45.9170310" lon="10.3117460">
	<ele>888.20</ele>
	<time>2025-04-29T10:49:23.000Z</time>
</trkpt>
<trkpt lat="45.9170250" lon="10.3117430">
	<ele>888.20</ele>
	<time>2025-04-29T10:49:24.000Z</time>
</trkpt>
<trkpt lat="45.9170060" lon="10.3117370">
	<ele>888.20</ele>
	<time>2025-04-29T10:49:25.000Z</time>
</trkpt>
<trkpt lat="45.9169890" lon="10.3117370">
	<ele>888.00</ele>
	<time>2025-04-29T10:49:26.000Z</time>
</trkpt>
<trkpt lat="45.9169800" lon="10.3117480">
	<ele>887.80</ele>
	<time>2025-04-29T10:49:27.000Z</time>
</trkpt>
<trkpt lat="45.9169720" lon="10.3117530">
	<ele>887.60</ele>
	<time>2025-04-29T10:49:28.000Z</time>
</trkpt>
<trkpt lat="45.9169700" lon="10.3117700">
	<ele>887.40</ele>
	<time>2025-04-29T10:49:29.000Z</time>
</trkpt>
<trkpt lat="45.9169680" lon="10.3117850">
	<ele>887.20</ele>
	<time>2025-04-29T10:49:30.000Z</time>
</trkpt>
<trkpt lat="45.9169590" lon="10.3117890">
	<ele>886.80</ele>
	<time>2025-04-29T10:49:31.000Z</time>
</trkpt>
<trkpt lat="45.9169540" lon="10.3117970">
	<ele>886.60</ele>
	<time>2025-04-29T10:49:32.000Z</time>
</trkpt>
<trkpt lat="45.9169570" lon="10.3118230">
	<ele>886.40</ele>
	<time>2025-04-29T10:49:33.000Z</time>
</trkpt>
<trkpt lat="45.9169470" lon="10.3118230">
	<ele>886.20</ele>
	<time>2025-04-29T10:49:34.000Z</time>
</trkpt>
<trkpt lat="45.9169440" lon="10.3118230">
	<ele>886.00</ele>
	<time>2025-04-29T10:49:35.000Z</time>
</trkpt>
<trkpt lat="45.9169370" lon="10.3118130">
	<ele>885.80</ele>
	<time>2025-04-29T10:49:36.000Z</time>
</trkpt>
<trkpt lat="45.9169390" lon="10.3118120">
	<ele>885.40</ele>
	<time>2025-04-29T10:49:37.000Z</time>
</trkpt>
<trkpt lat="45.9169500" lon="10.3118210">
	<ele>885.00</ele>
	<time>2025-04-29T10:49:38.000Z</time>
</trkpt>
<trkpt lat="45.9169630" lon="10.3118300">
	<ele>884.60</ele>
	<time>2025-04-29T10:49:39.000Z</time>
</trkpt>
<trkpt lat="45.9169710" lon="10.3118310">
	<ele>884.40</ele>
	<time>2025-04-29T10:49:40.000Z</time>
</trkpt>
<trkpt lat="45.9169720" lon="10.3118270">
	<ele>884.00</ele>
	<time>2025-04-29T10:49:41.000Z</time>
</trkpt>
<trkpt lat="45.9169720" lon="10.3118180">
	<ele>883.80</ele>
	<time>2025-04-29T10:49:42.000Z</time>
</trkpt>
<trkpt lat="45.9169780" lon="10.3118080">
	<ele>883.60</ele>
	<time>2025-04-29T10:49:43.000Z</time>
</trkpt>
<trkpt lat="45.9169820" lon="10.3117970">
	<ele>883.40</ele>
	<time>2025-04-29T10:49:44.000Z</time>
</trkpt>
<trkpt lat="45.9169840" lon="10.3117850">
	<ele>883.20</ele>
	<time>2025-04-29T10:49:45.000Z</time>
</trkpt>
<trkpt lat="45.9169840" lon="10.3117760">
	<ele>883.00</ele>
	<time>2025-04-29T10:49:46.000Z</time>
</trkpt>
<trkpt lat="45.9169850" lon="10.3117700">
	<ele>882.60</ele>
	<time>2025-04-29T10:49:47.000Z</time>
</trkpt>
<trkpt lat="45.9169900" lon="10.3117670">
	<ele>882.40</ele>
	<time>2025-04-29T10:49:48.000Z</time>
</trkpt>
<trkpt lat="45.9169960" lon="10.3117660">
	<ele>882.40</ele>
	<time>2025-04-29T10:49:49.000Z</time>
</trkpt>
<trkpt lat="45.9170020" lon="10.3117570">
	<ele>882.20</ele>
	<time>2025-04-29T10:49:50.000Z</time>
</trkpt>
<trkpt lat="45.9170160" lon="10.3117600">
	<ele>882.00</ele>
	<time>2025-04-29T10:49:51.000Z</time>
</trkpt>
<trkpt lat="45.9170260" lon="10.3117560">
	<ele>881.60</ele>
	<time>2025-04-29T10:49:52.000Z</time>
</trkpt>
<trkpt lat="45.9170290" lon="10.3117380">
	<ele>881.20</ele>
	<time>2025-04-29T10:49:53.000Z</time>
</trkpt>
<trkpt lat="45.9170270" lon="10.3117120">
	<ele>881.00</ele>
	<time>2025-04-29T10:49:54.000Z</time>
</trkpt>
<trkpt lat="45.9170220" lon="10.3116920">
	<ele>880.80</ele>
	<time>2025-04-29T10:49:55.000Z</time>
</trkpt>
<trkpt lat="45.9170200" lon="10.3116640">
	<ele>880.40</ele>
	<time>2025-04-29T10:49:56.000Z</time>
</trkpt>
<trkpt lat="45.9170240" lon="10.3116510">
	<ele>879.80</ele>
	<time>2025-04-29T10:49:57.000Z</time>
</trkpt>
<trkpt lat="45.9170280" lon="10.3116350">
	<ele>879.60</ele>
	<time>2025-04-29T10:49:58.000Z</time>
</trkpt>
<trkpt lat="45.9170300" lon="10.3116160">
	<ele>878.80</ele>
	<time>2025-04-29T10:49:59.000Z</time>
</trkpt>
<trkpt lat="45.9170310" lon="10.3115930">
	<ele>878.60</ele>
	<time>2025-04-29T10:50:00.000Z</time>
</trkpt>
<trkpt lat="45.9170370" lon="10.3115620">
	<ele>878.00</ele>
	<time>2025-04-29T10:50:01.000Z</time>
</trkpt>
<trkpt lat="45.9170410" lon="10.3115270">
	<ele>877.60</ele>
	<time>2025-04-29T10:50:02.000Z</time>
</trkpt>
<trkpt lat="45.9170370" lon="10.3114810">
	<ele>877.40</ele>
	<time>2025-04-29T10:50:03.000Z</time>
</trkpt>
<trkpt lat="45.9170350" lon="10.3114470">
	<ele>877.20</ele>
	<time>2025-04-29T10:50:04.000Z</time>
</trkpt>
<trkpt lat="45.9170380" lon="10.3114160">
	<ele>876.80</ele>
	<time>2025-04-29T10:50:05.000Z</time>
</trkpt>
<trkpt lat="45.9170420" lon="10.3114010">
	<ele>876.40</ele>
	<time>2025-04-29T10:50:06.000Z</time>
</trkpt>
<trkpt lat="45.9170470" lon="10.3113690">
	<ele>876.20</ele>
	<time>2025-04-29T10:50:07.000Z</time>
</trkpt>
<trkpt lat="45.9170490" lon="10.3113370">
	<ele>875.80</ele>
	<time>2025-04-29T10:50:08.000Z</time>
</trkpt>
<trkpt lat="45.9170590" lon="10.3113190">
	<ele>875.40</ele>
	<time>2025-04-29T10:50:09.000Z</time>
</trkpt>
<trkpt lat="45.9170720" lon="10.3113150">
	<ele>875.00</ele>
	<time>2025-04-29T10:50:10.000Z</time>
</trkpt>
<trkpt lat="45.9170830" lon="10.3113020">
	<ele>874.60</ele>
	<time>2025-04-29T10:50:11.000Z</time>
</trkpt>
<trkpt lat="45.9170930" lon="10.3112920">
	<ele>874.20</ele>
	<time>2025-04-29T10:50:12.000Z</time>
</trkpt>
<trkpt lat="45.9170990" lon="10.3112780">
	<ele>874.00</ele>
	<time>2025-04-29T10:50:13.000Z</time>
</trkpt>
<trkpt lat="45.9171180" lon="10.3112770">
	<ele>873.40</ele>
	<time>2025-04-29T10:50:14.000Z</time>
</trkpt>
<trkpt lat="45.9171350" lon="10.3112670">
	<ele>873.00</ele>
	<time>2025-04-29T10:50:15.000Z</time>
</trkpt>
<trkpt lat="45.9171320" lon="10.3112470">
	<ele>872.60</ele>
	<time>2025-04-29T10:50:16.000Z</time>
</trkpt>
<trkpt lat="45.9171330" lon="10.3112320">
	<ele>872.20</ele>
	<time>2025-04-29T10:50:17.000Z</time>
</trkpt>
<trkpt lat="45.9171340" lon="10.3112250">
	<ele>872.00</ele>
	<time>2025-04-29T10:50:18.000Z</time>
</trkpt>
<trkpt lat="45.9171420" lon="10.3112110">
	<ele>871.60</ele>
	<time>2025-04-29T10:50:19.000Z</time>
</trkpt>
<trkpt lat="45.9171570" lon="10.3112030">
	<ele>871.20</ele>
	<time>2025-04-29T10:50:20.000Z</time>
</trkpt>
<trkpt lat="45.9171660" lon="10.3112010">
	<ele>870.80</ele>
	<time>2025-04-29T10:50:21.000Z</time>
</trkpt>
<trkpt lat="45.9171770" lon="10.3112010">
	<ele>870.60</ele>
	<time>2025-04-29T10:50:22.000Z</time>
</trkpt>
<trkpt lat="45.9171850" lon="10.3112000">
	<ele>870.20</ele>
	<time>2025-04-29T10:50:23.000Z</time>
</trkpt>
<trkpt lat="45.9171850" lon="10.3112020">
	<ele>870.00</ele>
	<time>2025-04-29T10:50:24.000Z</time>
</trkpt>
<trkpt lat="45.9171970" lon="10.3111960">
	<ele>869.60</ele>
	<time>2025-04-29T10:50:25.000Z</time>
</trkpt>
<trkpt lat="45.9172100" lon="10.3111820">
	<ele>869.40</ele>
	<time>2025-04-29T10:50:26.000Z</time>
</trkpt>
<trkpt lat="45.9172280" lon="10.3111620">
	<ele>869.20</ele>
	<time>2025-04-29T10:50:27.000Z</time>
</trkpt>
<trkpt lat="45.9172510" lon="10.3111400">
	<ele>869.20</ele>
	<time>2025-04-29T10:50:28.000Z</time>
</trkpt>
<trkpt lat="45.9172780" lon="10.3111220">
	<ele>868.80</ele>
	<time>2025-04-29T10:50:29.000Z</time>
</trkpt>
<trkpt lat="45.9173000" lon="10.3111170">
	<ele>868.60</ele>
	<time>2025-04-29T10:50:30.000Z</time>
</trkpt>
<trkpt lat="45.9173250" lon="10.3111180">
	<ele>868.20</ele>
	<time>2025-04-29T10:50:31.000Z</time>
</trkpt>
<trkpt lat="45.9173310" lon="10.3111060">
	<ele>868.00</ele>
	<time>2025-04-29T10:50:32.000Z</time>
</trkpt>
<trkpt lat="45.9173320" lon="10.3110850">
	<ele>867.80</ele>
	<time>2025-04-29T10:50:33.000Z</time>
</trkpt>
<trkpt lat="45.9173330" lon="10.3110610">
	<ele>867.60</ele>
	<time>2025-04-29T10:50:34.000Z</time>
</trkpt>
<trkpt lat="45.9173350" lon="10.3110380">
	<ele>867.40</ele>
	<time>2025-04-29T10:50:35.000Z</time>
</trkpt>
<trkpt lat="45.9173410" lon="10.3110190">
	<ele>867.00</ele>
	<time>2025-04-29T10:50:36.000Z</time>
</trkpt>
<trkpt lat="45.9173530" lon="10.3110020">
	<ele>866.80</ele>
	<time>2025-04-29T10:50:37.000Z</time>
</trkpt>
<trkpt lat="45.9173660" lon="10.3109910">
	<ele>866.40</ele>
	<time>2025-04-29T10:50:38.000Z</time>
</trkpt>
<trkpt lat="45.9173720" lon="10.3109710">
	<ele>866.00</ele>
	<time>2025-04-29T10:50:39.000Z</time>
</trkpt>
<trkpt lat="45.9173710" lon="10.3109530">
	<ele>865.80</ele>
	<time>2025-04-29T10:50:40.000Z</time>
</trkpt>
<trkpt lat="45.9173720" lon="10.3109350">
	<ele>865.60</ele>
	<time>2025-04-29T10:50:41.000Z</time>
</trkpt>
<trkpt lat="45.9173710" lon="10.3109160">
	<ele>865.20</ele>
	<time>2025-04-29T10:50:42.000Z</time>
</trkpt>
<trkpt lat="45.9173750" lon="10.3108970">
	<ele>864.80</ele>
	<time>2025-04-29T10:50:43.000Z</time>
</trkpt>
<trkpt lat="45.9173800" lon="10.3108810">
	<ele>864.40</ele>
	<time>2025-04-29T10:50:44.000Z</time>
</trkpt>
<trkpt lat="45.9173870" lon="10.3108670">
	<ele>864.20</ele>
	<time>2025-04-29T10:50:45.000Z</time>
</trkpt>
<trkpt lat="45.9173970" lon="10.3108540">
	<ele>863.80</ele>
	<time>2025-04-29T10:50:46.000Z</time>
</trkpt>
<trkpt lat="45.9174100" lon="10.3108410">
	<ele>863.40</ele>
	<time>2025-04-29T10:50:47.000Z</time>
</trkpt>
<trkpt lat="45.9174260" lon="10.3108270">
	<ele>863.20</ele>
	<time>2025-04-29T10:50:48.000Z</time>
</trkpt>
<trkpt lat="45.9174400" lon="10.3107980">
	<ele>862.60</ele>
	<time>2025-04-29T10:50:49.000Z</time>
</trkpt>
<trkpt lat="45.9174610" lon="10.3107830">
	<ele>862.40</ele>
	<time>2025-04-29T10:50:50.000Z</time>
</trkpt>
<trkpt lat="45.9174720" lon="10.3107700">
	<ele>862.00</ele>
	<time>2025-04-29T10:50:51.000Z</time>
</trkpt>
<trkpt lat="45.9174790" lon="10.3107650">
	<ele>861.60</ele>
	<time>2025-04-29T10:50:52.000Z</time>
</trkpt>
<trkpt lat="45.9174930" lon="10.3107690">
	<ele>861.40</ele>
	<time>2025-04-29T10:50:53.000Z</time>
</trkpt>
<trkpt lat="45.9175110" lon="10.3107690">
	<ele>861.00</ele>
	<time>2025-04-29T10:50:54.000Z</time>
</trkpt>
<trkpt lat="45.9175160" lon="10.3107580">
	<ele>860.80</ele>
	<time>2025-04-29T10:50:55.000Z</time>
</trkpt>
<trkpt lat="45.9175260" lon="10.3107610">
	<ele>860.40</ele>
	<time>2025-04-29T10:50:56.000Z</time>
</trkpt>
<trkpt lat="45.9175400" lon="10.3107570">
	<ele>860.00</ele>
	<time>2025-04-29T10:50:57.000Z</time>
</trkpt>
<trkpt lat="45.9175520" lon="10.3107450">
	<ele>859.80</ele>
	<time>2025-04-29T10:50:58.000Z</time>
</trkpt>
<trkpt lat="45.9175640" lon="10.3107260">
	<ele>859.40</ele>
	<time>2025-04-29T10:50:59.000Z</time>
</trkpt>
<trkpt lat="45.9175770" lon="10.3107030">
	<ele>859.00</ele>
	<time>2025-04-29T10:51:00.000Z</time>
</trkpt>
<trkpt lat="45.9175890" lon="10.3106730">
	<ele>858.60</ele>
	<time>2025-04-29T10:51:01.000Z</time>
</trkpt>
<trkpt lat="45.9175910" lon="10.3106330">
	<ele>858.40</ele>
	<time>2025-04-29T10:51:02.000Z</time>
</trkpt>
<trkpt lat="45.9175910" lon="10.3106020">
	<ele>858.20</ele>
	<time>2025-04-29T10:51:03.000Z</time>
</trkpt>
<trkpt lat="45.9175920" lon="10.3105840">
	<ele>857.80</ele>
	<time>2025-04-29T10:51:04.000Z</time>
</trkpt>
<trkpt lat="45.9176070" lon="10.3105930">
	<ele>857.40</ele>
	<time>2025-04-29T10:51:05.000Z</time>
</trkpt>
<trkpt lat="45.9176240" lon="10.3106040">
	<ele>857.00</ele>
	<time>2025-04-29T10:51:06.000Z</time>
</trkpt>
<trkpt lat="45.9176430" lon="10.3106250">
	<ele>856.80</ele>
	<time>2025-04-29T10:51:07.000Z</time>
</trkpt>
<trkpt lat="45.9176490" lon="10.3106300">
	<ele>856.40</ele>
	<time>2025-04-29T10:51:08.000Z</time>
</trkpt>
<trkpt lat="45.9176550" lon="10.3106180">
	<ele>856.00</ele>
	<time>2025-04-29T10:51:09.000Z</time>
</trkpt>
<trkpt lat="45.9176440" lon="10.3105680">
	<ele>855.80</ele>
	<time>2025-04-29T10:51:10.000Z</time>
</trkpt>
<trkpt lat="45.9176420" lon="10.3105430">
	<ele>855.60</ele>
	<time>2025-04-29T10:51:11.000Z</time>
</trkpt>
<trkpt lat="45.9176470" lon="10.3105230">
	<ele>855.20</ele>
	<time>2025-04-29T10:51:12.000Z</time>
</trkpt>
<trkpt lat="45.9176640" lon="10.3105100">
	<ele>854.80</ele>
	<time>2025-04-29T10:51:13.000Z</time>
</trkpt>
<trkpt lat="45.9176810" lon="10.3105020">
	<ele>854.60</ele>
	<time>2025-04-29T10:51:14.000Z</time>
</trkpt>
<trkpt lat="45.9177080" lon="10.3104980">
	<ele>854.20</ele>
	<time>2025-04-29T10:51:15.000Z</time>
</trkpt>
<trkpt lat="45.9177290" lon="10.3104910">
	<ele>854.00</ele>
	<time>2025-04-29T10:51:16.000Z</time>
</trkpt>
<trkpt lat="45.9177440" lon="10.3104830">
	<ele>853.60</ele>
	<time>2025-04-29T10:51:17.000Z</time>
</trkpt>
<trkpt lat="45.9177610" lon="10.3104770">
	<ele>853.40</ele>
	<time>2025-04-29T10:51:18.000Z</time>
</trkpt>
<trkpt lat="45.9177810" lon="10.3104740">
	<ele>853.00</ele>
	<time>2025-04-29T10:51:19.000Z</time>
</trkpt>
<trkpt lat="45.9178020" lon="10.3104730">
	<ele>852.80</ele>
	<time>2025-04-29T10:51:20.000Z</time>
</trkpt>
<trkpt lat="45.9178190" lon="10.3104740">
	<ele>852.40</ele>
	<time>2025-04-29T10:51:21.000Z</time>
</trkpt>
<trkpt lat="45.9178380" lon="10.3104790">
	<ele>852.20</ele>
	<time>2025-04-29T10:51:22.000Z</time>
</trkpt>
<trkpt lat="45.9178500" lon="10.3104690">
	<ele>852.00</ele>
	<time>2025-04-29T10:51:23.000Z</time>
</trkpt>
<trkpt lat="45.9178530" lon="10.3104490">
	<ele>851.60</ele>
	<time>2025-04-29T10:51:24.000Z</time>
</trkpt>
<trkpt lat="45.9178610" lon="10.3104320">
	<ele>851.40</ele>
	<time>2025-04-29T10:51:25.000Z</time>
</trkpt>
<trkpt lat="45.9178780" lon="10.3104410">
	<ele>851.20</ele>
	<time>2025-04-29T10:51:26.000Z</time>
</trkpt>
<trkpt lat="45.9178970" lon="10.3104380">
	<ele>851.00</ele>
	<time>2025-04-29T10:51:27.000Z</time>
</trkpt>
<trkpt lat="45.9179210" lon="10.3104470">
	<ele>850.80</ele>
	<time>2025-04-29T10:51:28.000Z</time>
</trkpt>
<trkpt lat="45.9179440" lon="10.3104600">
	<ele>850.80</ele>
	<time>2025-04-29T10:51:29.000Z</time>
</trkpt>
<trkpt lat="45.9179800" lon="10.3104810">
	<ele>850.60</ele>
	<time>2025-04-29T10:51:30.000Z</time>
</trkpt>
<trkpt lat="45.9180000" lon="10.3104690">
	<ele>850.60</ele>
	<time>2025-04-29T10:51:31.000Z</time>
</trkpt>
<trkpt lat="45.9179950" lon="10.3104430">
	<ele>850.40</ele>
	<time>2025-04-29T10:51:32.000Z</time>
</trkpt>
<trkpt lat="45.9179860" lon="10.3103970">
	<ele>850.40</ele>
	<time>2025-04-29T10:51:33.000Z</time>
</trkpt>
<trkpt lat="45.9179860" lon="10.3103580">
	<ele>850.20</ele>
	<time>2025-04-29T10:51:34.000Z</time>
</trkpt>
<trkpt lat="45.9179900" lon="10.3103260">
	<ele>850.00</ele>
	<time>2025-04-29T10:51:35.000Z</time>
</trkpt>
<trkpt lat="45.9179880" lon="10.3102960">
	<ele>849.80</ele>
	<time>2025-04-29T10:51:36.000Z</time>
</trkpt>
<trkpt lat="45.9179920" lon="10.3102710">
	<ele>849.80</ele>
	<time>2025-04-29T10:51:37.000Z</time>
</trkpt>
<trkpt lat="45.9179960" lon="10.3102190">
	<ele>849.80</ele>
	<time>2025-04-29T10:51:38.000Z</time>
</trkpt>
<trkpt lat="45.9180100" lon="10.3101810">
	<ele>849.60</ele>
	<time>2025-04-29T10:51:39.000Z</time>
</trkpt>
<trkpt lat="45.9180220" lon="10.3101480">
	<ele>849.60</ele>
	<time>2025-04-29T10:51:40.000Z</time>
</trkpt>
<trkpt lat="45.9180290" lon="10.3101090">
	<ele>849.60</ele>
	<time>2025-04-29T10:51:41.000Z</time>
</trkpt>
<trkpt lat="45.9180210" lon="10.3100670">
	<ele>849.60</ele>
	<time>2025-04-29T10:51:42.000Z</time>
</trkpt>
<trkpt lat="45.9180250" lon="10.3100400">
	<ele>849.60</ele>
	<time>2025-04-29T10:51:43.000Z</time>
</trkpt>
<trkpt lat="45.9180410" lon="10.3100250">
	<ele>849.40</ele>
	<time>2025-04-29T10:51:44.000Z</time>
</trkpt>
<trkpt lat="45.9180570" lon="10.3100240">
	<ele>849.40</ele>
	<time>2025-04-29T10:51:45.000Z</time>
</trkpt>
<trkpt lat="45.9180640" lon="10.3100110">
	<ele>849.20</ele>
	<time>2025-04-29T10:51:46.000Z</time>
</trkpt>
<trkpt lat="45.9180620" lon="10.3100030">
	<ele>849.00</ele>
	<time>2025-04-29T10:51:47.000Z</time>
</trkpt>
<trkpt lat="45.9180770" lon="10.3099910">
	<ele>848.80</ele>
	<time>2025-04-29T10:51:48.000Z</time>
</trkpt>
<trkpt lat="45.9180920" lon="10.3099970">
	<ele>848.80</ele>
	<time>2025-04-29T10:51:49.000Z</time>
</trkpt>
<trkpt lat="45.9180970" lon="10.3099900">
	<ele>848.60</ele>
	<time>2025-04-29T10:51:50.000Z</time>
</trkpt>
<trkpt lat="45.9181060" lon="10.3099860">
	<ele>848.60</ele>
	<time>2025-04-29T10:51:51.000Z</time>
</trkpt>
<trkpt lat="45.9181120" lon="10.3099640">
	<ele>848.60</ele>
	<time>2025-04-29T10:51:52.000Z</time>
</trkpt>
<trkpt lat="45.9181170" lon="10.3099290">
	<ele>848.60</ele>
	<time>2025-04-29T10:51:53.000Z</time>
</trkpt>
<trkpt lat="45.9181070" lon="10.3098670">
	<ele>848.60</ele>
	<time>2025-04-29T10:51:54.000Z</time>
</trkpt>
<trkpt lat="45.9181040" lon="10.3098190">
	<ele>848.60</ele>
	<time>2025-04-29T10:51:55.000Z</time>
</trkpt>
<trkpt lat="45.9181160" lon="10.3097940">
	<ele>848.40</ele>
	<time>2025-04-29T10:51:56.000Z</time>
</trkpt>
<trkpt lat="45.9181310" lon="10.3097830">
	<ele>848.40</ele>
	<time>2025-04-29T10:51:57.000Z</time>
</trkpt>
<trkpt lat="45.9181530" lon="10.3097890">
	<ele>848.40</ele>
	<time>2025-04-29T10:51:58.000Z</time>
</trkpt>
<trkpt lat="45.9181700" lon="10.3097760">
	<ele>848.00</ele>
	<time>2025-04-29T10:51:59.000Z</time>
</trkpt>
<trkpt lat="45.9181820" lon="10.3097520">
	<ele>847.80</ele>
	<time>2025-04-29T10:52:00.000Z</time>
</trkpt>
<trkpt lat="45.9181940" lon="10.3097500">
	<ele>847.40</ele>
	<time>2025-04-29T10:52:01.000Z</time>
</trkpt>
<trkpt lat="45.9182100" lon="10.3097360">
	<ele>847.40</ele>
	<time>2025-04-29T10:52:02.000Z</time>
</trkpt>
<trkpt lat="45.9182140" lon="10.3097210">
	<ele>847.20</ele>
	<time>2025-04-29T10:52:03.000Z</time>
</trkpt>
<trkpt lat="45.9182220" lon="10.3097190">
	<ele>847.00</ele>
	<time>2025-04-29T10:52:04.000Z</time>
</trkpt>
<trkpt lat="45.9182340" lon="10.3097110">
	<ele>846.80</ele>
	<time>2025-04-29T10:52:05.000Z</time>
</trkpt>
<trkpt lat="45.9182300" lon="10.3096840">
	<ele>846.80</ele>
	<time>2025-04-29T10:52:06.000Z</time>
</trkpt>
<trkpt lat="45.9182290" lon="10.3096580">
	<ele>846.60</ele>
	<time>2025-04-29T10:52:07.000Z</time>
</trkpt>
<trkpt lat="45.9182100" lon="10.3096190">
	<ele>846.60</ele>
	<time>2025-04-29T10:52:08.000Z</time>
</trkpt>
<trkpt lat="45.9182130" lon="10.3095860">
	<ele>846.40</ele>
	<time>2025-04-29T10:52:09.000Z</time>
</trkpt>
<trkpt lat="45.9182290" lon="10.3095680">
	<ele>846.20</ele>
	<time>2025-04-29T10:52:10.000Z</time>
</trkpt>
<trkpt lat="45.9182450" lon="10.3095510">
	<ele>846.00</ele>
	<time>2025-04-29T10:52:11.000Z</time>
</trkpt>
<trkpt lat="45.9182550" lon="10.3095390">
	<ele>845.80</ele>
	<time>2025-04-29T10:52:12.000Z</time>
</trkpt>
<trkpt lat="45.9182720" lon="10.3095240">
	<ele>845.40</ele>
	<time>2025-04-29T10:52:13.000Z</time>
</trkpt>
<trkpt lat="45.9182850" lon="10.3095090">
	<ele>845.20</ele>
	<time>2025-04-29T10:52:14.000Z</time>
</trkpt>
<trkpt lat="45.9182990" lon="10.3094890">
	<ele>845.00</ele>
	<time>2025-04-29T10:52:15.000Z</time>
</trkpt>
<trkpt lat="45.9183160" lon="10.3094700">
	<ele>844.60</ele>
	<time>2025-04-29T10:52:16.000Z</time>
</trkpt>
<trkpt lat="45.9183270" lon="10.3094490">
	<ele>844.20</ele>
	<time>2025-04-29T10:52:17.000Z</time>
</trkpt>
<trkpt lat="45.9183380" lon="10.3094310">
	<ele>843.80</ele>
	<time>2025-04-29T10:52:18.000Z</time>
</trkpt>
<trkpt lat="45.9183520" lon="10.3094210">
	<ele>843.40</ele>
	<time>2025-04-29T10:52:19.000Z</time>
</trkpt>
<trkpt lat="45.9183660" lon="10.3094070">
	<ele>843.00</ele>
	<time>2025-04-29T10:52:20.000Z</time>
</trkpt>
<trkpt lat="45.9183820" lon="10.3093920">
	<ele>842.40</ele>
	<time>2025-04-29T10:52:21.000Z</time>
</trkpt>
<trkpt lat="45.9183940" lon="10.3093790">
	<ele>842.00</ele>
	<time>2025-04-29T10:52:22.000Z</time>
</trkpt>
<trkpt lat="45.9184060" lon="10.3093660">
	<ele>841.80</ele>
	<time>2025-04-29T10:52:23.000Z</time>
</trkpt>
<trkpt lat="45.9184190" lon="10.3093520">
	<ele>841.20</ele>
	<time>2025-04-29T10:52:24.000Z</time>
</trkpt>
<trkpt lat="45.9184300" lon="10.3093370">
	<ele>840.80</ele>
	<time>2025-04-29T10:52:25.000Z</time>
</trkpt>
<trkpt lat="45.9184310" lon="10.3093140">
	<ele>840.20</ele>
	<time>2025-04-29T10:52:26.000Z</time>
</trkpt>
<trkpt lat="45.9184330" lon="10.3092930">
	<ele>839.60</ele>
	<time>2025-04-29T10:52:27.000Z</time>
</trkpt>
<trkpt lat="45.9184420" lon="10.3092770">
	<ele>839.20</ele>
	<time>2025-04-29T10:52:28.000Z</time>
</trkpt>
<trkpt lat="45.9184510" lon="10.3092590">
	<ele>838.80</ele>
	<time>2025-04-29T10:52:29.000Z</time>
</trkpt>
<trkpt lat="45.9184570" lon="10.3092470">
	<ele>838.20</ele>
	<time>2025-04-29T10:52:30.000Z</time>
</trkpt>
<trkpt lat="45.9184690" lon="10.3092300">
	<ele>837.80</ele>
	<time>2025-04-29T10:52:31.000Z</time>
</trkpt>
<trkpt lat="45.9184810" lon="10.3092230">
	<ele>837.60</ele>
	<time>2025-04-29T10:52:32.000Z</time>
</trkpt>
<trkpt lat="45.9184820" lon="10.3092180">
	<ele>837.20</ele>
	<time>2025-04-29T10:52:33.000Z</time>
</trkpt>
<trkpt lat="45.9184830" lon="10.3091960">
	<ele>836.80</ele>
	<time>2025-04-29T10:52:34.000Z</time>
</trkpt>
<trkpt lat="45.9184890" lon="10.3091950">
	<ele>836.20</ele>
	<time>2025-04-29T10:52:35.000Z</time>
</trkpt>
<trkpt lat="45.9184990" lon="10.3091930">
	<ele>835.80</ele>
	<time>2025-04-29T10:52:36.000Z</time>
</trkpt>
<trkpt lat="45.9185080" lon="10.3091830">
	<ele>835.40</ele>
	<time>2025-04-29T10:52:37.000Z</time>
</trkpt>
<trkpt lat="45.9185230" lon="10.3091700">
	<ele>835.00</ele>
	<time>2025-04-29T10:52:38.000Z</time>
</trkpt>
<trkpt lat="45.9185380" lon="10.3091660">
	<ele>834.60</ele>
	<time>2025-04-29T10:52:39.000Z</time>
</trkpt>
<trkpt lat="45.9185540" lon="10.3091600">
	<ele>834.00</ele>
	<time>2025-04-29T10:52:40.000Z</time>
</trkpt>
<trkpt lat="45.9185680" lon="10.3091570">
	<ele>833.60</ele>
	<time>2025-04-29T10:52:41.000Z</time>
</trkpt>
<trkpt lat="45.9185810" lon="10.3091540">
	<ele>833.20</ele>
	<time>2025-04-29T10:52:42.000Z</time>
</trkpt>
<trkpt lat="45.9185950" lon="10.3091500">
	<ele>832.60</ele>
	<time>2025-04-29T10:52:43.000Z</time>
</trkpt>
<trkpt lat="45.9186100" lon="10.3091460">
	<ele>832.20</ele>
	<time>2025-04-29T10:52:44.000Z</time>
</trkpt>
<trkpt lat="45.9186260" lon="10.3091410">
	<ele>832.00</ele>
	<time>2025-04-29T10:52:45.000Z</time>
</trkpt>
<trkpt lat="45.9186620" lon="10.3091310">
	<ele>831.40</ele>
	<time>2025-04-29T10:52:46.000Z</time>
</trkpt>
<trkpt lat="45.9186800" lon="10.3091170">
	<ele>830.80</ele>
	<time>2025-04-29T10:52:47.000Z</time>
</trkpt>
<trkpt lat="45.9186910" lon="10.3090990">
	<ele>830.60</ele>
	<time>2025-04-29T10:52:48.000Z</time>
</trkpt>
<trkpt lat="45.9187130" lon="10.3090890">
	<ele>830.40</ele>
	<time>2025-04-29T10:52:49.000Z</time>
</trkpt>
<trkpt lat="45.9187230" lon="10.3090920">
	<ele>830.20</ele>
	<time>2025-04-29T10:52:50.000Z</time>
</trkpt>
<trkpt lat="45.9187370" lon="10.3090960">
	<ele>830.00</ele>
	<time>2025-04-29T10:52:51.000Z</time>
</trkpt>
<trkpt lat="45.9187470" lon="10.3090940">
	<ele>830.00</ele>
	<time>2025-04-29T10:52:52.000Z</time>
</trkpt>
<trkpt lat="45.9187610" lon="10.3090920">
	<ele>829.80</ele>
	<time>2025-04-29T10:52:53.000Z</time>
</trkpt>
<trkpt lat="45.9187730" lon="10.3090850">
	<ele>829.60</ele>
	<time>2025-04-29T10:52:54.000Z</time>
</trkpt>
<trkpt lat="45.9187840" lon="10.3090710">
	<ele>829.40</ele>
	<time>2025-04-29T10:52:55.000Z</time>
</trkpt>
<trkpt lat="45.9187930" lon="10.3090590">
	<ele>829.20</ele>
	<time>2025-04-29T10:52:56.000Z</time>
</trkpt>
<trkpt lat="45.9188030" lon="10.3090580">
	<ele>829.00</ele>
	<time>2025-04-29T10:52:57.000Z</time>
</trkpt>
<trkpt lat="45.9188140" lon="10.3090480">
	<ele>828.80</ele>
	<time>2025-04-29T10:52:58.000Z</time>
</trkpt>
<trkpt lat="45.9188270" lon="10.3090420">
	<ele>828.60</ele>
	<time>2025-04-29T10:52:59.000Z</time>
</trkpt>
<trkpt lat="45.9188420" lon="10.3090380">
	<ele>828.40</ele>
	<time>2025-04-29T10:53:00.000Z</time>
</trkpt>
<trkpt lat="45.9188520" lon="10.3090380">
	<ele>828.00</ele>
	<time>2025-04-29T10:53:01.000Z</time>
</trkpt>
<trkpt lat="45.9188650" lon="10.3090290">
	<ele>827.80</ele>
	<time>2025-04-29T10:53:02.000Z</time>
</trkpt>
<trkpt lat="45.9188800" lon="10.3090220">
	<ele>827.40</ele>
	<time>2025-04-29T10:53:03.000Z</time>
</trkpt>
<trkpt lat="45.9188930" lon="10.3090130">
	<ele>827.00</ele>
	<time>2025-04-29T10:53:04.000Z</time>
</trkpt>
<trkpt lat="45.9189150" lon="10.3090070">
	<ele>826.60</ele>
	<time>2025-04-29T10:53:05.000Z</time>
</trkpt>
<trkpt lat="45.9189400" lon="10.3090000">
	<ele>826.20</ele>
	<time>2025-04-29T10:53:06.000Z</time>
</trkpt>
<trkpt lat="45.9189660" lon="10.3089920">
	<ele>825.80</ele>
	<time>2025-04-29T10:53:07.000Z</time>
</trkpt>
<trkpt lat="45.9189880" lon="10.3089950">
	<ele>825.60</ele>
	<time>2025-04-29T10:53:08.000Z</time>
</trkpt>
<trkpt lat="45.9190050" lon="10.3089920">
	<ele>825.20</ele>
	<time>2025-04-29T10:53:09.000Z</time>
</trkpt>
<trkpt lat="45.9190190" lon="10.3089930">
	<ele>824.80</ele>
	<time>2025-04-29T10:53:10.000Z</time>
</trkpt>
<trkpt lat="45.9190330" lon="10.3089930">
	<ele>824.80</ele>
	<time>2025-04-29T10:53:11.000Z</time>
</trkpt>
<trkpt lat="45.9190500" lon="10.3089930">
	<ele>824.40</ele>
	<time>2025-04-29T10:53:12.000Z</time>
</trkpt>
<trkpt lat="45.9190670" lon="10.3089930">
	<ele>824.20</ele>
	<time>2025-04-29T10:53:13.000Z</time>
</trkpt>
<trkpt lat="45.9190820" lon="10.3089930">
	<ele>824.00</ele>
	<time>2025-04-29T10:53:14.000Z</time>
</trkpt>
<trkpt lat="45.9190950" lon="10.3089970">
	<ele>823.80</ele>
	<time>2025-04-29T10:53:15.000Z</time>
</trkpt>
<trkpt lat="45.9191130" lon="10.3090030">
	<ele>823.80</ele>
	<time>2025-04-29T10:53:16.000Z</time>
</trkpt>
<trkpt lat="45.9191250" lon="10.3090060">
	<ele>823.40</ele>
	<time>2025-04-29T10:53:17.000Z</time>
</trkpt>
<trkpt lat="45.9191370" lon="10.3090040">
	<ele>823.40</ele>
	<time>2025-04-29T10:53:18.000Z</time>
</trkpt>
<trkpt lat="45.9191490" lon="10.3090130">
	<ele>823.20</ele>
	<time>2025-04-29T10:53:19.000Z</time>
</trkpt>
<trkpt lat="45.9191660" lon="10.3090230">
	<ele>823.00</ele>
	<time>2025-04-29T10:53:20.000Z</time>
</trkpt>
<trkpt lat="45.9191910" lon="10.3090470">
	<ele>822.80</ele>
	<time>2025-04-29T10:53:21.000Z</time>
</trkpt>
<trkpt lat="45.9192160" lon="10.3090600">
	<ele>822.60</ele>
	<time>2025-04-29T10:53:22.000Z</time>
</trkpt>
<trkpt lat="45.9192330" lon="10.3090600">
	<ele>822.60</ele>
	<time>2025-04-29T10:53:23.000Z</time>
</trkpt>
<trkpt lat="45.9192510" lon="10.3090590">
	<ele>822.60</ele>
	<time>2025-04-29T10:53:24.000Z</time>
</trkpt>
<trkpt lat="45.9192610" lon="10.3090680">
	<ele>822.40</ele>
	<time>2025-04-29T10:53:25.000Z</time>
</trkpt>
<trkpt lat="45.9192740" lon="10.3090740">
	<ele>822.40</ele>
	<time>2025-04-29T10:53:26.000Z</time>
</trkpt>
<trkpt lat="45.9192800" lon="10.3090790">
	<ele>822.20</ele>
	<time>2025-04-29T10:53:27.000Z</time>
</trkpt>
<trkpt lat="45.9192900" lon="10.3090980">
	<ele>822.00</ele>
	<time>2025-04-29T10:53:28.000Z</time>
</trkpt>
<trkpt lat="45.9193120" lon="10.3091020">
	<ele>821.80</ele>
	<time>2025-04-29T10:53:29.000Z</time>
</trkpt>
<trkpt lat="45.9193300" lon="10.3091000">
	<ele>821.60</ele>
	<time>2025-04-29T10:53:30.000Z</time>
</trkpt>
<trkpt lat="45.9193410" lon="10.3090960">
	<ele>821.40</ele>
	<time>2025-04-29T10:53:31.000Z</time>
</trkpt>
<trkpt lat="45.9193510" lon="10.3090930">
	<ele>821.20</ele>
	<time>2025-04-29T10:53:32.000Z</time>
</trkpt>
<trkpt lat="45.9193620" lon="10.3091010">
	<ele>821.00</ele>
	<time>2025-04-29T10:53:33.000Z</time>
</trkpt>
<trkpt lat="45.9193720" lon="10.3091080">
	<ele>821.00</ele>
	<time>2025-04-29T10:53:34.000Z</time>
</trkpt>
<trkpt lat="45.9193810" lon="10.3091160">
	<ele>820.80</ele>
	<time>2025-04-29T10:53:35.000Z</time>
</trkpt>
<trkpt lat="45.9194000" lon="10.3091170">
	<ele>820.60</ele>
	<time>2025-04-29T10:53:36.000Z</time>
</trkpt>
<trkpt lat="45.9194280" lon="10.3091130">
	<ele>820.40</ele>
	<time>2025-04-29T10:53:37.000Z</time>
</trkpt>
<trkpt lat="45.9194370" lon="10.3091100">
	<ele>820.20</ele>
	<time>2025-04-29T10:53:38.000Z</time>
</trkpt>
<trkpt lat="45.9194500" lon="10.3091090">
	<ele>820.20</ele>
	<time>2025-04-29T10:53:39.000Z</time>
</trkpt>
<trkpt lat="45.9194620" lon="10.3091120">
	<ele>820.00</ele>
	<time>2025-04-29T10:53:40.000Z</time>
</trkpt>
<trkpt lat="45.9194730" lon="10.3091170">
	<ele>819.80</ele>
	<time>2025-04-29T10:53:41.000Z</time>
</trkpt>
<trkpt lat="45.9194890" lon="10.3091220">
	<ele>819.60</ele>
	<time>2025-04-29T10:53:42.000Z</time>
</trkpt>
<trkpt lat="45.9195030" lon="10.3091300">
	<ele>819.60</ele>
	<time>2025-04-29T10:53:43.000Z</time>
</trkpt>
<trkpt lat="45.9195200" lon="10.3091400">
	<ele>819.40</ele>
	<time>2025-04-29T10:53:44.000Z</time>
</trkpt>
<trkpt lat="45.9195360" lon="10.3091460">
	<ele>819.20</ele>
	<time>2025-04-29T10:53:45.000Z</time>
</trkpt>
<trkpt lat="45.9195560" lon="10.3091400">
	<ele>818.80</ele>
	<time>2025-04-29T10:53:46.000Z</time>
</trkpt>
<trkpt lat="45.9195720" lon="10.3091290">
	<ele>818.40</ele>
	<time>2025-04-29T10:53:47.000Z</time>
</trkpt>
<trkpt lat="45.9195880" lon="10.3091270">
	<ele>818.20</ele>
	<time>2025-04-29T10:53:48.000Z</time>
</trkpt>
<trkpt lat="45.9196040" lon="10.3091280">
	<ele>818.00</ele>
	<time>2025-04-29T10:53:49.000Z</time>
</trkpt>
<trkpt lat="45.9196270" lon="10.3091350">
	<ele>817.60</ele>
	<time>2025-04-29T10:53:50.000Z</time>
</trkpt>
<trkpt lat="45.9196520" lon="10.3091370">
	<ele>817.40</ele>
	<time>2025-04-29T10:53:51.000Z</time>
</trkpt>
<trkpt lat="45.9196730" lon="10.3091440">
	<ele>817.00</ele>
	<time>2025-04-29T10:53:52.000Z</time>
</trkpt>
<trkpt lat="45.9196910" lon="10.3091470">
	<ele>816.80</ele>
	<time>2025-04-29T10:53:53.000Z</time>
</trkpt>
<trkpt lat="45.9197060" lon="10.3091520">
	<ele>816.40</ele>
	<time>2025-04-29T10:53:54.000Z</time>
</trkpt>
<trkpt lat="45.9197200" lon="10.3091560">
	<ele>816.40</ele>
	<time>2025-04-29T10:53:55.000Z</time>
</trkpt>
<trkpt lat="45.9197290" lon="10.3091560">
	<ele>816.20</ele>
	<time>2025-04-29T10:53:56.000Z</time>
</trkpt>
<trkpt lat="45.9197400" lon="10.3091600">
	<ele>815.80</ele>
	<time>2025-04-29T10:53:57.000Z</time>
</trkpt>
<trkpt lat="45.9197470" lon="10.3091620">
	<ele>815.60</ele>
	<time>2025-04-29T10:53:58.000Z</time>
</trkpt>
<trkpt lat="45.9197580" lon="10.3091660">
	<ele>815.40</ele>
	<time>2025-04-29T10:53:59.000Z</time>
</trkpt>
<trkpt lat="45.9197720" lon="10.3091670">
	<ele>815.00</ele>
	<time>2025-04-29T10:54:00.000Z</time>
</trkpt>
<trkpt lat="45.9197870" lon="10.3091670">
	<ele>814.60</ele>
	<time>2025-04-29T10:54:01.000Z</time>
</trkpt>
<trkpt lat="45.9198030" lon="10.3091620">
	<ele>814.40</ele>
	<time>2025-04-29T10:54:02.000Z</time>
</trkpt>
<trkpt lat="45.9198200" lon="10.3091640">
	<ele>814.00</ele>
	<time>2025-04-29T10:54:03.000Z</time>
</trkpt>
<trkpt lat="45.9198330" lon="10.3091590">
	<ele>813.40</ele>
	<time>2025-04-29T10:54:04.000Z</time>
</trkpt>
<trkpt lat="45.9198480" lon="10.3091550">
	<ele>813.00</ele>
	<time>2025-04-29T10:54:05.000Z</time>
</trkpt>
<trkpt lat="45.9198670" lon="10.3091530">
	<ele>812.80</ele>
	<time>2025-04-29T10:54:06.000Z</time>
</trkpt>
<trkpt lat="45.9198870" lon="10.3091520">
	<ele>812.20</ele>
	<time>2025-04-29T10:54:07.000Z</time>
</trkpt>
<trkpt lat="45.9199090" lon="10.3091510">
	<ele>812.00</ele>
	<time>2025-04-29T10:54:08.000Z</time>
</trkpt>
<trkpt lat="45.9199320" lon="10.3091490">
	<ele>811.40</ele>
	<time>2025-04-29T10:54:09.000Z</time>
</trkpt>
<trkpt lat="45.9199530" lon="10.3091420">
	<ele>811.20</ele>
	<time>2025-04-29T10:54:10.000Z</time>
</trkpt>
<trkpt lat="45.9199720" lon="10.3091360">
	<ele>811.00</ele>
	<time>2025-04-29T10:54:11.000Z</time>
</trkpt>
<trkpt lat="45.9199890" lon="10.3091330">
	<ele>810.40</ele>
	<time>2025-04-29T10:54:12.000Z</time>
</trkpt>
<trkpt lat="45.9200060" lon="10.3091370">
	<ele>810.00</ele>
	<time>2025-04-29T10:54:13.000Z</time>
</trkpt>
<trkpt lat="45.9200240" lon="10.3091380">
	<ele>809.60</ele>
	<time>2025-04-29T10:54:14.000Z</time>
</trkpt>
<trkpt lat="45.9200360" lon="10.3091370">
	<ele>809.00</ele>
	<time>2025-04-29T10:54:15.000Z</time>
</trkpt>
<trkpt lat="45.9200540" lon="10.3091410">
	<ele>808.60</ele>
	<time>2025-04-29T10:54:16.000Z</time>
</trkpt>
<trkpt lat="45.9200750" lon="10.3091470">
	<ele>808.20</ele>
	<time>2025-04-29T10:54:17.000Z</time>
</trkpt>
<trkpt lat="45.9200890" lon="10.3091540">
	<ele>807.80</ele>
	<time>2025-04-29T10:54:18.000Z</time>
</trkpt>
<trkpt lat="45.9201030" lon="10.3091660">
	<ele>807.60</ele>
	<time>2025-04-29T10:54:19.000Z</time>
</trkpt>
<trkpt lat="45.9201180" lon="10.3091600">
	<ele>807.40</ele>
	<time>2025-04-29T10:54:20.000Z</time>
</trkpt>
<trkpt lat="45.9201450" lon="10.3091590">
	<ele>807.20</ele>
	<time>2025-04-29T10:54:21.000Z</time>
</trkpt>
<trkpt lat="45.9201710" lon="10.3091650">
	<ele>806.80</ele>
	<time>2025-04-29T10:54:22.000Z</time>
</trkpt>
<trkpt lat="45.9201920" lon="10.3091670">
	<ele>806.60</ele>
	<time>2025-04-29T10:54:23.000Z</time>
</trkpt>
<trkpt lat="45.9202070" lon="10.3091710">
	<ele>806.40</ele>
	<time>2025-04-29T10:54:24.000Z</time>
</trkpt>
<trkpt lat="45.9202300" lon="10.3091800">
	<ele>806.40</ele>
	<time>2025-04-29T10:54:25.000Z</time>
</trkpt>
<trkpt lat="45.9202390" lon="10.3091900">
	<ele>806.20</ele>
	<time>2025-04-29T10:54:26.000Z</time>
</trkpt>
<trkpt lat="45.9202420" lon="10.3091990">
	<ele>806.00</ele>
	<time>2025-04-29T10:54:27.000Z</time>
</trkpt>
<trkpt lat="45.9202520" lon="10.3092150">
	<ele>806.00</ele>
	<time>2025-04-29T10:54:28.000Z</time>
</trkpt>
<trkpt lat="45.9202670" lon="10.3092290">
	<ele>805.80</ele>
	<time>2025-04-29T10:54:29.000Z</time>
</trkpt>
<trkpt lat="45.9202870" lon="10.3092370">
	<ele>805.80</ele>
	<time>2025-04-29T10:54:30.000Z</time>
</trkpt>
<trkpt lat="45.9203120" lon="10.3092430">
	<ele>805.80</ele>
	<time>2025-04-29T10:54:31.000Z</time>
</trkpt>
<trkpt lat="45.9203370" lon="10.3092490">
	<ele>805.80</ele>
	<time>2025-04-29T10:54:32.000Z</time>
</trkpt>
<trkpt lat="45.9203560" lon="10.3092560">
	<ele>805.60</ele>
	<time>2025-04-29T10:54:33.000Z</time>
</trkpt>
<trkpt lat="45.9203630" lon="10.3092570">
	<ele>805.60</ele>
	<time>2025-04-29T10:54:34.000Z</time>
</trkpt>
<trkpt lat="45.9203670" lon="10.3092550">
	<ele>805.60</ele>
	<time>2025-04-29T10:54:35.000Z</time>
</trkpt>
<trkpt lat="45.9203790" lon="10.3092560">
	<ele>805.60</ele>
	<time>2025-04-29T10:54:36.000Z</time>
</trkpt>
<trkpt lat="45.9203970" lon="10.3092620">
	<ele>805.60</ele>
	<time>2025-04-29T10:54:37.000Z</time>
</trkpt>
<trkpt lat="45.9204090" lon="10.3092680">
	<ele>805.60</ele>
	<time>2025-04-29T10:54:38.000Z</time>
</trkpt>
<trkpt lat="45.9204190" lon="10.3092780">
	<ele>805.60</ele>
	<time>2025-04-29T10:54:39.000Z</time>
</trkpt>
<trkpt lat="45.9204340" lon="10.3092890">
	<ele>805.60</ele>
	<time>2025-04-29T10:54:40.000Z</time>
</trkpt>
<trkpt lat="45.9204520" lon="10.3093010">
	<ele>805.60</ele>
	<time>2025-04-29T10:54:41.000Z</time>
</trkpt>
<trkpt lat="45.9204700" lon="10.3093110">
	<ele>805.40</ele>
	<time>2025-04-29T10:54:42.000Z</time>
</trkpt>
<trkpt lat="45.9204830" lon="10.3093080">
	<ele>805.40</ele>
	<time>2025-04-29T10:54:43.000Z</time>
</trkpt>
<trkpt lat="45.9204880" lon="10.3093000">
	<ele>805.20</ele>
	<time>2025-04-29T10:54:44.000Z</time>
</trkpt>
<trkpt lat="45.9204950" lon="10.3093000">
	<ele>805.00</ele>
	<time>2025-04-29T10:54:45.000Z</time>
</trkpt>
<trkpt lat="45.9205070" lon="10.3093040">
	<ele>805.00</ele>
	<time>2025-04-29T10:54:46.000Z</time>
</trkpt>
<trkpt lat="45.9205190" lon="10.3093120">
	<ele>804.60</ele>
	<time>2025-04-29T10:54:47.000Z</time>
</trkpt>
<trkpt lat="45.9205340" lon="10.3093140">
	<ele>804.40</ele>
	<time>2025-04-29T10:54:48.000Z</time>
</trkpt>
<trkpt lat="45.9205590" lon="10.3093000">
	<ele>804.20</ele>
	<time>2025-04-29T10:54:49.000Z</time>
</trkpt>
<trkpt lat="45.9205780" lon="10.3092990">
	<ele>803.80</ele>
	<time>2025-04-29T10:54:50.000Z</time>
</trkpt>
<trkpt lat="45.9206000" lon="10.3092990">
	<ele>803.60</ele>
	<time>2025-04-29T10:54:51.000Z</time>
</trkpt>
<trkpt lat="45.9206220" lon="10.3092990">
	<ele>803.20</ele>
	<time>2025-04-29T10:54:52.000Z</time>
</trkpt>
<trkpt lat="45.9206450" lon="10.3093140">
	<ele>802.80</ele>
	<time>2025-04-29T10:54:53.000Z</time>
</trkpt>
<trkpt lat="45.9206640" lon="10.3093250">
	<ele>802.40</ele>
	<time>2025-04-29T10:54:54.000Z</time>
</trkpt>
<trkpt lat="45.9206850" lon="10.3093360">
	<ele>802.00</ele>
	<time>2025-04-29T10:54:55.000Z</time>
</trkpt>
<trkpt lat="45.9207130" lon="10.3093580">
	<ele>801.40</ele>
	<time>2025-04-29T10:54:56.000Z</time>
</trkpt>
<trkpt lat="45.9207340" lon="10.3093770">
	<ele>801.00</ele>
	<time>2025-04-29T10:54:57.000Z</time>
</trkpt>
<trkpt lat="45.9207490" lon="10.3094040">
	<ele>800.60</ele>
	<time>2025-04-29T10:54:58.000Z</time>
</trkpt>
<trkpt lat="45.9207650" lon="10.3094330">
	<ele>800.20</ele>
	<time>2025-04-29T10:54:59.000Z</time>
</trkpt>
<trkpt lat="45.9207730" lon="10.3094480">
	<ele>800.00</ele>
	<time>2025-04-29T10:55:00.000Z</time>
</trkpt>
<trkpt lat="45.9207870" lon="10.3094600">
	<ele>799.80</ele>
	<time>2025-04-29T10:55:01.000Z</time>
</trkpt>
<trkpt lat="45.9208070" lon="10.3094620">
	<ele>799.40</ele>
	<time>2025-04-29T10:55:02.000Z</time>
</trkpt>
<trkpt lat="45.9208270" lon="10.3094650">
	<ele>799.00</ele>
	<time>2025-04-29T10:55:03.000Z</time>
</trkpt>
<trkpt lat="45.9208440" lon="10.3094780">
	<ele>798.40</ele>
	<time>2025-04-29T10:55:04.000Z</time>
</trkpt>
<trkpt lat="45.9208540" lon="10.3094910">
	<ele>798.00</ele>
	<time>2025-04-29T10:55:05.000Z</time>
</trkpt>
<trkpt lat="45.9208740" lon="10.3095060">
	<ele>797.80</ele>
	<time>2025-04-29T10:55:06.000Z</time>
</trkpt>
<trkpt lat="45.9208930" lon="10.3095180">
	<ele>797.60</ele>
	<time>2025-04-29T10:55:07.000Z</time>
</trkpt>
<trkpt lat="45.9209040" lon="10.3095270">
	<ele>797.20</ele>
	<time>2025-04-29T10:55:08.000Z</time>
</trkpt>
<trkpt lat="45.9209150" lon="10.3095290">
	<ele>797.00</ele>
	<time>2025-04-29T10:55:09.000Z</time>
</trkpt>
<trkpt lat="45.9209280" lon="10.3095270">
	<ele>796.80</ele>
	<time>2025-04-29T10:55:10.000Z</time>
</trkpt>
<trkpt lat="45.9209450" lon="10.3095140">
	<ele>796.60</ele>
	<time>2025-04-29T10:55:11.000Z</time>
</trkpt>
<trkpt lat="45.9209490" lon="10.3095140">
	<ele>796.00</ele>
	<time>2025-04-29T10:55:12.000Z</time>
</trkpt>
<trkpt lat="45.9209630" lon="10.3095110">
	<ele>795.80</ele>
	<time>2025-04-29T10:55:13.000Z</time>
</trkpt>
<trkpt lat="45.9209650" lon="10.3095140">
	<ele>795.60</ele>
	<time>2025-04-29T10:55:14.000Z</time>
</trkpt>
<trkpt lat="45.9209820" lon="10.3095260">
	<ele>795.40</ele>
	<time>2025-04-29T10:55:15.000Z</time>
</trkpt>
<trkpt lat="45.9210000" lon="10.3095420">
	<ele>795.40</ele>
	<time>2025-04-29T10:55:16.000Z</time>
</trkpt>
<trkpt lat="45.9210100" lon="10.3095550">
	<ele>795.20</ele>
	<time>2025-04-29T10:55:17.000Z</time>
</trkpt>
<trkpt lat="45.9210140" lon="10.3095700">
	<ele>794.80</ele>
	<time>2025-04-29T10:55:18.000Z</time>
</trkpt>
<trkpt lat="45.9210220" lon="10.3095780">
	<ele>794.80</ele>
	<time>2025-04-29T10:55:19.000Z</time>
</trkpt>
<trkpt lat="45.9210260" lon="10.3095830">
	<ele>794.60</ele>
	<time>2025-04-29T10:55:20.000Z</time>
</trkpt>
<trkpt lat="45.9210330" lon="10.3095840">
	<ele>794.60</ele>
	<time>2025-04-29T10:55:21.000Z</time>
</trkpt>
<trkpt lat="45.9210370" lon="10.3095880">
	<ele>794.40</ele>
	<time>2025-04-29T10:55:22.000Z</time>
</trkpt>
<trkpt lat="45.9210370" lon="10.3095890">
	<ele>794.40</ele>
	<time>2025-04-29T10:55:23.000Z</time>
</trkpt>
<trkpt lat="45.9210350" lon="10.3095910">
	<ele>794.40</ele>
	<time>2025-04-29T10:55:24.000Z</time>
</trkpt>
<trkpt lat="45.9210490" lon="10.3096020">
	<ele>794.40</ele>
	<time>2025-04-29T10:55:25.000Z</time>
</trkpt>
<trkpt lat="45.9210530" lon="10.3096040">
	<ele>793.80</ele>
	<time>2025-04-29T10:55:26.000Z</time>
</trkpt>
<trkpt lat="45.9210730" lon="10.3096000">
	<ele>793.60</ele>
	<time>2025-04-29T10:55:27.000Z</time>
</trkpt>
<trkpt lat="45.9210910" lon="10.3095960">
	<ele>793.40</ele>
	<time>2025-04-29T10:55:28.000Z</time>
</trkpt>
<trkpt lat="45.9210920" lon="10.3095950">
	<ele>793.20</ele>
	<time>2025-04-29T10:55:29.000Z</time>
</trkpt>
<trkpt lat="45.9210950" lon="10.3095940">
	<ele>793.00</ele>
	<time>2025-04-29T10:55:30.000Z</time>
</trkpt>
<trkpt lat="45.9210890" lon="10.3095910">
	<ele>792.80</ele>
	<time>2025-04-29T10:55:31.000Z</time>
</trkpt>
<trkpt lat="45.9210890" lon="10.3095900">
	<ele>792.60</ele>
	<time>2025-04-29T10:55:32.000Z</time>
</trkpt>
<trkpt lat="45.9210860" lon="10.3095860">
	<ele>792.60</ele>
	<time>2025-04-29T10:55:33.000Z</time>
</trkpt>
<trkpt lat="45.9210980" lon="10.3095800">
	<ele>792.40</ele>
	<time>2025-04-29T10:55:34.000Z</time>
</trkpt>
<trkpt lat="45.9211020" lon="10.3095760">
	<ele>792.20</ele>
	<time>2025-04-29T10:55:35.000Z</time>
</trkpt>
<trkpt lat="45.9211130" lon="10.3095760">
	<ele>792.20</ele>
	<time>2025-04-29T10:55:36.000Z</time>
</trkpt>
<trkpt lat="45.9211160" lon="10.3095740">
	<ele>792.00</ele>
	<time>2025-04-29T10:55:37.000Z</time>
</trkpt>
<trkpt lat="45.9211190" lon="10.3095730">
	<ele>791.80</ele>
	<time>2025-04-29T10:55:38.000Z</time>
</trkpt>
<trkpt lat="45.9211200" lon="10.3095740">
	<ele>791.60</ele>
	<time>2025-04-29T10:55:39.000Z</time>
</trkpt>
<trkpt lat="45.9211310" lon="10.3095810">
	<ele>791.60</ele>
	<time>2025-04-29T10:55:40.000Z</time>
</trkpt>
<trkpt lat="45.9211430" lon="10.3095830">
	<ele>791.20</ele>
	<time>2025-04-29T10:55:41.000Z</time>
</trkpt>
<trkpt lat="45.9211530" lon="10.3095820">
	<ele>791.00</ele>
	<time>2025-04-29T10:55:42.000Z</time>
</trkpt>
<trkpt lat="45.9211550" lon="10.3095810">
	<ele>790.80</ele>
	<time>2025-04-29T10:55:43.000Z</time>
</trkpt>
<trkpt lat="45.9211700" lon="10.3095830">
	<ele>790.60</ele>
	<time>2025-04-29T10:55:44.000Z</time>
</trkpt>
<trkpt lat="45.9211890" lon="10.3095810">
	<ele>790.40</ele>
	<time>2025-04-29T10:55:45.000Z</time>
</trkpt>
<trkpt lat="45.9212100" lon="10.3095790">
	<ele>790.20</ele>
	<time>2025-04-29T10:55:46.000Z</time>
</trkpt>
<trkpt lat="45.9212300" lon="10.3095750">
	<ele>789.80</ele>
	<time>2025-04-29T10:55:47.000Z</time>
</trkpt>
<trkpt lat="45.9212500" lon="10.3095750">
	<ele>789.60</ele>
	<time>2025-04-29T10:55:48.000Z</time>
</trkpt>
<trkpt lat="45.9212670" lon="10.3095790">
	<ele>789.20</ele>
	<time>2025-04-29T10:55:49.000Z</time>
</trkpt>
<trkpt lat="45.9212850" lon="10.3095830">
	<ele>788.60</ele>
	<time>2025-04-29T10:55:50.000Z</time>
</trkpt>
<trkpt lat="45.9213040" lon="10.3095840">
	<ele>788.20</ele>
	<time>2025-04-29T10:55:51.000Z</time>
</trkpt>
<trkpt lat="45.9213280" lon="10.3095830">
	<ele>787.80</ele>
	<time>2025-04-29T10:55:52.000Z</time>
</trkpt>
<trkpt lat="45.9213540" lon="10.3095830">
	<ele>787.20</ele>
	<time>2025-04-29T10:55:53.000Z</time>
</trkpt>
<trkpt lat="45.9213770" lon="10.3095800">
	<ele>786.80</ele>
	<time>2025-04-29T10:55:54.000Z</time>
</trkpt>
<trkpt lat="45.9213990" lon="10.3095830">
	<ele>786.40</ele>
	<time>2025-04-29T10:55:55.000Z</time>
</trkpt>
<trkpt lat="45.9214280" lon="10.3095850">
	<ele>786.00</ele>
	<time>2025-04-29T10:55:56.000Z</time>
</trkpt>
<trkpt lat="45.9214580" lon="10.3095980">
	<ele>785.20</ele>
	<time>2025-04-29T10:55:57.000Z</time>
</trkpt>
<trkpt lat="45.9214880" lon="10.3096030">
	<ele>784.80</ele>
	<time>2025-04-29T10:55:58.000Z</time>
</trkpt>
<trkpt lat="45.9215210" lon="10.3096020">
	<ele>784.20</ele>
	<time>2025-04-29T10:55:59.000Z</time>
</trkpt>
<trkpt lat="45.9215480" lon="10.3096010">
	<ele>783.80</ele>
	<time>2025-04-29T10:56:00.000Z</time>
</trkpt>
<trkpt lat="45.9215690" lon="10.3095960">
	<ele>783.60</ele>
	<time>2025-04-29T10:56:01.000Z</time>
</trkpt>
<trkpt lat="45.9215870" lon="10.3095950">
	<ele>783.00</ele>
	<time>2025-04-29T10:56:02.000Z</time>
</trkpt>
<trkpt lat="45.9216100" lon="10.3095980">
	<ele>782.60</ele>
	<time>2025-04-29T10:56:03.000Z</time>
</trkpt>
<trkpt lat="45.9216320" lon="10.3096020">
	<ele>782.00</ele>
	<time>2025-04-29T10:56:04.000Z</time>
</trkpt>
<trkpt lat="45.9216590" lon="10.3096090">
	<ele>781.60</ele>
	<time>2025-04-29T10:56:05.000Z</time>
</trkpt>
<trkpt lat="45.9216910" lon="10.3096140">
	<ele>781.20</ele>
	<time>2025-04-29T10:56:06.000Z</time>
</trkpt>
<trkpt lat="45.9217140" lon="10.3096170">
	<ele>781.00</ele>
	<time>2025-04-29T10:56:07.000Z</time>
</trkpt>
<trkpt lat="45.9217370" lon="10.3096250">
	<ele>780.60</ele>
	<time>2025-04-29T10:56:08.000Z</time>
</trkpt>
<trkpt lat="45.9217670" lon="10.3096310">
	<ele>780.00</ele>
	<time>2025-04-29T10:56:09.000Z</time>
</trkpt>
<trkpt lat="45.9217880" lon="10.3096360">
	<ele>779.60</ele>
	<time>2025-04-29T10:56:10.000Z</time>
</trkpt>
<trkpt lat="45.9218080" lon="10.3096490">
	<ele>779.20</ele>
	<time>2025-04-29T10:56:11.000Z</time>
</trkpt>
<trkpt lat="45.9218270" lon="10.3096570">
	<ele>778.80</ele>
	<time>2025-04-29T10:56:12.000Z</time>
</trkpt>
<trkpt lat="45.9218520" lon="10.3096630">
	<ele>778.40</ele>
	<time>2025-04-29T10:56:13.000Z</time>
</trkpt>
<trkpt lat="45.9218750" lon="10.3096680">
	<ele>778.20</ele>
	<time>2025-04-29T10:56:14.000Z</time>
</trkpt>
<trkpt lat="45.9218870" lon="10.3096810">
	<ele>778.00</ele>
	<time>2025-04-29T10:56:15.000Z</time>
</trkpt>
<trkpt lat="45.9218960" lon="10.3096950">
	<ele>778.00</ele>
	<time>2025-04-29T10:56:16.000Z</time>
</trkpt>
<trkpt lat="45.9219040" lon="10.3097130">
	<ele>777.80</ele>
	<time>2025-04-29T10:56:17.000Z</time>
</trkpt>
<trkpt lat="45.9219070" lon="10.3097200">
	<ele>777.60</ele>
	<time>2025-04-29T10:56:18.000Z</time>
</trkpt>
<trkpt lat="45.9219250" lon="10.3097210">
	<ele>777.60</ele>
	<time>2025-04-29T10:56:19.000Z</time>
</trkpt>
<trkpt lat="45.9219470" lon="10.3097110">
	<ele>777.40</ele>
	<time>2025-04-29T10:56:20.000Z</time>
</trkpt>
<trkpt lat="45.9219690" lon="10.3097150">
	<ele>777.20</ele>
	<time>2025-04-29T10:56:21.000Z</time>
</trkpt>
<trkpt lat="45.9219870" lon="10.3097320">
	<ele>777.00</ele>
	<time>2025-04-29T10:56:22.000Z</time>
</trkpt>
<trkpt lat="45.9220020" lon="10.3097340">
	<ele>776.80</ele>
	<time>2025-04-29T10:56:23.000Z</time>
</trkpt>
<trkpt lat="45.9220170" lon="10.3097340">
	<ele>776.60</ele>
	<time>2025-04-29T10:56:24.000Z</time>
</trkpt>
<trkpt lat="45.9220410" lon="10.3097300">
	<ele>776.40</ele>
	<time>2025-04-29T10:56:25.000Z</time>
</trkpt>
<trkpt lat="45.9220580" lon="10.3097290">
	<ele>775.80</ele>
	<time>2025-04-29T10:56:26.000Z</time>
</trkpt>
<trkpt lat="45.9220730" lon="10.3097310">
	<ele>775.40</ele>
	<time>2025-04-29T10:56:27.000Z</time>
</trkpt>
<trkpt lat="45.9220930" lon="10.3097320">
	<ele>775.20</ele>
	<time>2025-04-29T10:56:28.000Z</time>
</trkpt>
<trkpt lat="45.9221140" lon="10.3097380">
	<ele>775.00</ele>
	<time>2025-04-29T10:56:29.000Z</time>
</trkpt>
<trkpt lat="45.9221340" lon="10.3097410">
	<ele>774.60</ele>
	<time>2025-04-29T10:56:30.000Z</time>
</trkpt>
<trkpt lat="45.9221500" lon="10.3097420">
	<ele>774.40</ele>
	<time>2025-04-29T10:56:31.000Z</time>
</trkpt>
<trkpt lat="45.9221670" lon="10.3097420">
	<ele>774.20</ele>
	<time>2025-04-29T10:56:32.000Z</time>
</trkpt>
<trkpt lat="45.9221860" lon="10.3097440">
	<ele>773.80</ele>
	<time>2025-04-29T10:56:33.000Z</time>
</trkpt>
<trkpt lat="45.9222060" lon="10.3097490">
	<ele>773.80</ele>
	<time>2025-04-29T10:56:34.000Z</time>
</trkpt>
<trkpt lat="45.9222250" lon="10.3097570">
	<ele>773.60</ele>
	<time>2025-04-29T10:56:35.000Z</time>
</trkpt>
<trkpt lat="45.9222430" lon="10.3097550">
	<ele>773.40</ele>
	<time>2025-04-29T10:56:36.000Z</time>
</trkpt>
<trkpt lat="45.9222610" lon="10.3097510">
	<ele>772.80</ele>
	<time>2025-04-29T10:56:37.000Z</time>
</trkpt>
<trkpt lat="45.9222810" lon="10.3097470">
	<ele>772.40</ele>
	<time>2025-04-29T10:56:38.000Z</time>
</trkpt>
<trkpt lat="45.9223010" lon="10.3097470">
	<ele>772.20</ele>
	<time>2025-04-29T10:56:39.000Z</time>
</trkpt>
<trkpt lat="45.9223240" lon="10.3097480">
	<ele>772.00</ele>
	<time>2025-04-29T10:56:40.000Z</time>
</trkpt>
<trkpt lat="45.9223430" lon="10.3097450">
	<ele>771.60</ele>
	<time>2025-04-29T10:56:41.000Z</time>
</trkpt>
<trkpt lat="45.9223620" lon="10.3097400">
	<ele>771.20</ele>
	<time>2025-04-29T10:56:42.000Z</time>
</trkpt>
<trkpt lat="45.9223840" lon="10.3097350">
	<ele>770.80</ele>
	<time>2025-04-29T10:56:43.000Z</time>
</trkpt>
<trkpt lat="45.9224010" lon="10.3097350">
	<ele>770.40</ele>
	<time>2025-04-29T10:56:44.000Z</time>
</trkpt>
<trkpt lat="45.9224190" lon="10.3097310">
	<ele>770.20</ele>
	<time>2025-04-29T10:56:45.000Z</time>
</trkpt>
<trkpt lat="45.9224360" lon="10.3097290">
	<ele>769.60</ele>
	<time>2025-04-29T10:56:46.000Z</time>
</trkpt>
<trkpt lat="45.9224530" lon="10.3097310">
	<ele>769.20</ele>
	<time>2025-04-29T10:56:47.000Z</time>
</trkpt>
<trkpt lat="45.9224690" lon="10.3097320">
	<ele>769.00</ele>
	<time>2025-04-29T10:56:48.000Z</time>
</trkpt>
<trkpt lat="45.9224910" lon="10.3097300">
	<ele>768.20</ele>
	<time>2025-04-29T10:56:49.000Z</time>
</trkpt>
<trkpt lat="45.9225070" lon="10.3097240">
	<ele>767.80</ele>
	<time>2025-04-29T10:56:50.000Z</time>
</trkpt>
<trkpt lat="45.9225220" lon="10.3097170">
	<ele>767.60</ele>
	<time>2025-04-29T10:56:51.000Z</time>
</trkpt>
<trkpt lat="45.9225360" lon="10.3097080">
	<ele>767.20</ele>
	<time>2025-04-29T10:56:52.000Z</time>
</trkpt>
<trkpt lat="45.9225540" lon="10.3097090">
	<ele>766.60</ele>
	<time>2025-04-29T10:56:53.000Z</time>
</trkpt>
<trkpt lat="45.9225710" lon="10.3097210">
	<ele>766.20</ele>
	<time>2025-04-29T10:56:54.000Z</time>
</trkpt>
<trkpt lat="45.9225890" lon="10.3097360">
	<ele>766.00</ele>
	<time>2025-04-29T10:56:55.000Z</time>
</trkpt>
<trkpt lat="45.9226090" lon="10.3097400">
	<ele>765.60</ele>
	<time>2025-04-29T10:56:56.000Z</time>
</trkpt>
<trkpt lat="45.9226240" lon="10.3097460">
	<ele>765.20</ele>
	<time>2025-04-29T10:56:57.000Z</time>
</trkpt>
<trkpt lat="45.9226380" lon="10.3097550">
	<ele>764.80</ele>
	<time>2025-04-29T10:56:58.000Z</time>
</trkpt>
<trkpt lat="45.9226500" lon="10.3097650">
	<ele>764.40</ele>
	<time>2025-04-29T10:56:59.000Z</time>
</trkpt>
<trkpt lat="45.9226580" lon="10.3097780">
	<ele>764.00</ele>
	<time>2025-04-29T10:57:00.000Z</time>
</trkpt>
<trkpt lat="45.9226710" lon="10.3097920">
	<ele>763.60</ele>
	<time>2025-04-29T10:57:01.000Z</time>
</trkpt>
<trkpt lat="45.9226870" lon="10.3098040">
	<ele>763.20</ele>
	<time>2025-04-29T10:57:02.000Z</time>
</trkpt>
<trkpt lat="45.9227070" lon="10.3098120">
	<ele>762.80</ele>
	<time>2025-04-29T10:57:03.000Z</time>
</trkpt>
<trkpt lat="45.9227260" lon="10.3098160">
	<ele>762.20</ele>
	<time>2025-04-29T10:57:04.000Z</time>
</trkpt>
<trkpt lat="45.9227470" lon="10.3098190">
	<ele>761.80</ele>
	<time>2025-04-29T10:57:05.000Z</time>
</trkpt>
<trkpt lat="45.9227680" lon="10.3098250">
	<ele>761.40</ele>
	<time>2025-04-29T10:57:06.000Z</time>
</trkpt>
<trkpt lat="45.9227860" lon="10.3098380">
	<ele>760.80</ele>
	<time>2025-04-29T10:57:07.000Z</time>
</trkpt>
<trkpt lat="45.9228010" lon="10.3098690">
	<ele>760.40</ele>
	<time>2025-04-29T10:57:08.000Z</time>
</trkpt>
<trkpt lat="45.9228140" lon="10.3098850">
	<ele>759.80</ele>
	<time>2025-04-29T10:57:09.000Z</time>
</trkpt>
<trkpt lat="45.9228270" lon="10.3099070">
	<ele>759.40</ele>
	<time>2025-04-29T10:57:10.000Z</time>
</trkpt>
<trkpt lat="45.9228450" lon="10.3099250">
	<ele>758.80</ele>
	<time>2025-04-29T10:57:11.000Z</time>
</trkpt>
<trkpt lat="45.9228570" lon="10.3099380">
	<ele>758.40</ele>
	<time>2025-04-29T10:57:12.000Z</time>
</trkpt>
<trkpt lat="45.9228710" lon="10.3099440">
	<ele>758.20</ele>
	<time>2025-04-29T10:57:13.000Z</time>
</trkpt>
<trkpt lat="45.9228820" lon="10.3099510">
	<ele>757.80</ele>
	<time>2025-04-29T10:57:14.000Z</time>
</trkpt>
<trkpt lat="45.9228910" lon="10.3099670">
	<ele>757.60</ele>
	<time>2025-04-29T10:57:15.000Z</time>
</trkpt>
<trkpt lat="45.9229070" lon="10.3099790">
	<ele>757.20</ele>
	<time>2025-04-29T10:57:16.000Z</time>
</trkpt>
<trkpt lat="45.9229210" lon="10.3099970">
	<ele>756.60</ele>
	<time>2025-04-29T10:57:17.000Z</time>
</trkpt>
<trkpt lat="45.9229400" lon="10.3100070">
	<ele>756.00</ele>
	<time>2025-04-29T10:57:18.000Z</time>
</trkpt>
<trkpt lat="45.9229630" lon="10.3100160">
	<ele>755.80</ele>
	<time>2025-04-29T10:57:19.000Z</time>
</trkpt>
<trkpt lat="45.9229810" lon="10.3100290">
	<ele>755.40</ele>
	<time>2025-04-29T10:57:20.000Z</time>
</trkpt>
<trkpt lat="45.9229960" lon="10.3100490">
	<ele>755.20</ele>
	<time>2025-04-29T10:57:21.000Z</time>
</trkpt>
<trkpt lat="45.9230100" lon="10.3100710">
	<ele>754.80</ele>
	<time>2025-04-29T10:57:22.000Z</time>
</trkpt>
<trkpt lat="45.9230250" lon="10.3100900">
	<ele>754.60</ele>
	<time>2025-04-29T10:57:23.000Z</time>
</trkpt>
<trkpt lat="45.9230380" lon="10.3101030">
	<ele>754.40</ele>
	<time>2025-04-29T10:57:24.000Z</time>
</trkpt>
<trkpt lat="45.9230510" lon="10.3101150">
	<ele>754.20</ele>
	<time>2025-04-29T10:57:25.000Z</time>
</trkpt>
<trkpt lat="45.9230610" lon="10.3101210">
	<ele>753.80</ele>
	<time>2025-04-29T10:57:26.000Z</time>
</trkpt>
<trkpt lat="45.9230710" lon="10.3101290">
	<ele>753.80</ele>
	<time>2025-04-29T10:57:27.000Z</time>
</trkpt>
<trkpt lat="45.9230820" lon="10.3101420">
	<ele>753.40</ele>
	<time>2025-04-29T10:57:28.000Z</time>
</trkpt>
<trkpt lat="45.9230940" lon="10.3101550">
	<ele>753.40</ele>
	<time>2025-04-29T10:57:29.000Z</time>
</trkpt>
<trkpt lat="45.9231050" lon="10.3101630">
	<ele>753.20</ele>
	<time>2025-04-29T10:57:30.000Z</time>
</trkpt>
<trkpt lat="45.9231170" lon="10.3101730">
	<ele>753.00</ele>
	<time>2025-04-29T10:57:31.000Z</time>
</trkpt>
<trkpt lat="45.9231300" lon="10.3101880">
	<ele>752.80</ele>
	<time>2025-04-29T10:57:32.000Z</time>
</trkpt>
<trkpt lat="45.9231430" lon="10.3102070">
	<ele>752.60</ele>
	<time>2025-04-29T10:57:33.000Z</time>
</trkpt>
<trkpt lat="45.9231540" lon="10.3102170">
	<ele>752.20</ele>
	<time>2025-04-29T10:57:34.000Z</time>
</trkpt>
<trkpt lat="45.9231640" lon="10.3102190">
	<ele>752.00</ele>
	<time>2025-04-29T10:57:35.000Z</time>
</trkpt>
<trkpt lat="45.9231760" lon="10.3102310">
	<ele>751.60</ele>
	<time>2025-04-29T10:57:36.000Z</time>
</trkpt>
<trkpt lat="45.9231880" lon="10.3102460">
	<ele>751.40</ele>
	<time>2025-04-29T10:57:37.000Z</time>
</trkpt>
<trkpt lat="45.9232030" lon="10.3102710">
	<ele>751.00</ele>
	<time>2025-04-29T10:57:38.000Z</time>
</trkpt>
<trkpt lat="45.9232200" lon="10.3102860">
	<ele>750.80</ele>
	<time>2025-04-29T10:57:39.000Z</time>
</trkpt>
<trkpt lat="45.9232390" lon="10.3102910">
	<ele>750.60</ele>
	<time>2025-04-29T10:57:40.000Z</time>
</trkpt>
<trkpt lat="45.9232530" lon="10.3102950">
	<ele>750.40</ele>
	<time>2025-04-29T10:57:41.000Z</time>
</trkpt>
<trkpt lat="45.9232660" lon="10.3103020">
	<ele>750.20</ele>
	<time>2025-04-29T10:57:42.000Z</time>
</trkpt>
<trkpt lat="45.9232790" lon="10.3103100">
	<ele>750.00</ele>
	<time>2025-04-29T10:57:43.000Z</time>
</trkpt>
<trkpt lat="45.9232950" lon="10.3103230">
	<ele>749.80</ele>
	<time>2025-04-29T10:57:44.000Z</time>
</trkpt>
<trkpt lat="45.9233100" lon="10.3103390">
	<ele>749.60</ele>
	<time>2025-04-29T10:57:45.000Z</time>
</trkpt>
<trkpt lat="45.9233210" lon="10.3103510">
	<ele>749.20</ele>
	<time>2025-04-29T10:57:46.000Z</time>
</trkpt>
<trkpt lat="45.9233320" lon="10.3103560">
	<ele>749.00</ele>
	<time>2025-04-29T10:57:47.000Z</time>
</trkpt>
<trkpt lat="45.9233440" lon="10.3103750">
	<ele>748.60</ele>
	<time>2025-04-29T10:57:48.000Z</time>
</trkpt>
<trkpt lat="45.9233530" lon="10.3103980">
	<ele>748.20</ele>
	<time>2025-04-29T10:57:49.000Z</time>
</trkpt>
<trkpt lat="45.9233620" lon="10.3104160">
	<ele>748.00</ele>
	<time>2025-04-29T10:57:50.000Z</time>
</trkpt>
<trkpt lat="45.9233750" lon="10.3104220">
	<ele>747.60</ele>
	<time>2025-04-29T10:57:51.000Z</time>
</trkpt>
<trkpt lat="45.9233930" lon="10.3104210">
	<ele>747.40</ele>
	<time>2025-04-29T10:57:52.000Z</time>
</trkpt>
<trkpt lat="45.9234070" lon="10.3104340">
	<ele>747.00</ele>
	<time>2025-04-29T10:57:53.000Z</time>
</trkpt>
<trkpt lat="45.9234190" lon="10.3104450">
	<ele>747.00</ele>
	<time>2025-04-29T10:57:54.000Z</time>
</trkpt>
<trkpt lat="45.9234270" lon="10.3104540">
	<ele>746.40</ele>
	<time>2025-04-29T10:57:55.000Z</time>
</trkpt>
<trkpt lat="45.9234430" lon="10.3104590">
	<ele>746.00</ele>
	<time>2025-04-29T10:57:56.000Z</time>
</trkpt>
<trkpt lat="45.9234570" lon="10.3104600">
	<ele>745.60</ele>
	<time>2025-04-29T10:57:57.000Z</time>
</trkpt>
<trkpt lat="45.9234750" lon="10.3104590">
	<ele>745.20</ele>
	<time>2025-04-29T10:57:58.000Z</time>
</trkpt>
<trkpt lat="45.9234920" lon="10.3104580">
	<ele>744.80</ele>
	<time>2025-04-29T10:57:59.000Z</time>
</trkpt>
<trkpt lat="45.9235180" lon="10.3104680">
	<ele>744.40</ele>
	<time>2025-04-29T10:58:00.000Z</time>
</trkpt>
<trkpt lat="45.9235370" lon="10.3104780">
	<ele>744.20</ele>
	<time>2025-04-29T10:58:01.000Z</time>
</trkpt>
<trkpt lat="45.9235530" lon="10.3104820">
	<ele>743.80</ele>
	<time>2025-04-29T10:58:02.000Z</time>
</trkpt>
<trkpt lat="45.9235730" lon="10.3104740">
	<ele>743.40</ele>
	<time>2025-04-29T10:58:03.000Z</time>
</trkpt>
<trkpt lat="45.9235950" lon="10.3104670">
	<ele>743.00</ele>
	<time>2025-04-29T10:58:04.000Z</time>
</trkpt>
<trkpt lat="45.9236220" lon="10.3104670">
	<ele>742.60</ele>
	<time>2025-04-29T10:58:05.000Z</time>
</trkpt>
<trkpt lat="45.9236470" lon="10.3104570">
	<ele>742.40</ele>
	<time>2025-04-29T10:58:06.000Z</time>
</trkpt>
<trkpt lat="45.9236610" lon="10.3104570">
	<ele>742.20</ele>
	<time>2025-04-29T10:58:07.000Z</time>
</trkpt>
<trkpt lat="45.9236810" lon="10.3104710">
	<ele>741.80</ele>
	<time>2025-04-29T10:58:08.000Z</time>
</trkpt>
<trkpt lat="45.9237000" lon="10.3104900">
	<ele>741.40</ele>
	<time>2025-04-29T10:58:09.000Z</time>
</trkpt>
<trkpt lat="45.9237140" lon="10.3105030">
	<ele>741.00</ele>
	<time>2025-04-29T10:58:10.000Z</time>
</trkpt>
<trkpt lat="45.9237210" lon="10.3105320">
	<ele>740.60</ele>
	<time>2025-04-29T10:58:11.000Z</time>
</trkpt>
<trkpt lat="45.9237260" lon="10.3105550">
	<ele>740.20</ele>
	<time>2025-04-29T10:58:12.000Z</time>
</trkpt>
<trkpt lat="45.9237410" lon="10.3105760">
	<ele>739.80</ele>
	<time>2025-04-29T10:58:13.000Z</time>
</trkpt>
<trkpt lat="45.9237560" lon="10.3105930">
	<ele>739.40</ele>
	<time>2025-04-29T10:58:14.000Z</time>
</trkpt>
<trkpt lat="45.9237660" lon="10.3106140">
	<ele>739.00</ele>
	<time>2025-04-29T10:58:15.000Z</time>
</trkpt>
<trkpt lat="45.9237690" lon="10.3106340">
	<ele>738.80</ele>
	<time>2025-04-29T10:58:16.000Z</time>
</trkpt>
<trkpt lat="45.9237690" lon="10.3106510">
	<ele>738.40</ele>
	<time>2025-04-29T10:58:17.000Z</time>
</trkpt>
<trkpt lat="45.9237770" lon="10.3106570">
	<ele>738.00</ele>
	<time>2025-04-29T10:58:18.000Z</time>
</trkpt>
<trkpt lat="45.9237880" lon="10.3106500">
	<ele>737.40</ele>
	<time>2025-04-29T10:58:19.000Z</time>
</trkpt>
<trkpt lat="45.9238020" lon="10.3106470">
	<ele>737.20</ele>
	<time>2025-04-29T10:58:20.000Z</time>
</trkpt>
<trkpt lat="45.9238200" lon="10.3106540">
	<ele>736.80</ele>
	<time>2025-04-29T10:58:21.000Z</time>
</trkpt>
<trkpt lat="45.9238410" lon="10.3106600">
	<ele>736.20</ele>
	<time>2025-04-29T10:58:22.000Z</time>
</trkpt>
<trkpt lat="45.9238590" lon="10.3106720">
	<ele>736.00</ele>
	<time>2025-04-29T10:58:23.000Z</time>
</trkpt>
<trkpt lat="45.9238730" lon="10.3106820">
	<ele>735.60</ele>
	<time>2025-04-29T10:58:24.000Z</time>
</trkpt>
<trkpt lat="45.9238900" lon="10.3106950">
	<ele>735.00</ele>
	<time>2025-04-29T10:58:25.000Z</time>
</trkpt>
<trkpt lat="45.9239030" lon="10.3107110">
	<ele>734.60</ele>
	<time>2025-04-29T10:58:26.000Z</time>
</trkpt>
<trkpt lat="45.9239180" lon="10.3107320">
	<ele>734.40</ele>
	<time>2025-04-29T10:58:27.000Z</time>
</trkpt>
<trkpt lat="45.9239290" lon="10.3107460">
	<ele>734.00</ele>
	<time>2025-04-29T10:58:28.000Z</time>
</trkpt>
<trkpt lat="45.9239430" lon="10.3107650">
	<ele>733.60</ele>
	<time>2025-04-29T10:58:29.000Z</time>
</trkpt>
<trkpt lat="45.9239530" lon="10.3107890">
	<ele>733.00</ele>
	<time>2025-04-29T10:58:30.000Z</time>
</trkpt>
<trkpt lat="45.9239680" lon="10.3108080">
	<ele>732.60</ele>
	<time>2025-04-29T10:58:31.000Z</time>
</trkpt>
<trkpt lat="45.9239790" lon="10.3108230">
	<ele>732.20</ele>
	<time>2025-04-29T10:58:32.000Z</time>
</trkpt>
<trkpt lat="45.9239930" lon="10.3108320">
	<ele>731.80</ele>
	<time>2025-04-29T10:58:33.000Z</time>
</trkpt>
<trkpt lat="45.9240100" lon="10.3108510">
	<ele>731.40</ele>
	<time>2025-04-29T10:58:34.000Z</time>
</trkpt>
<trkpt lat="45.9240200" lon="10.3108560">
	<ele>731.00</ele>
	<time>2025-04-29T10:58:35.000Z</time>
</trkpt>
<trkpt lat="45.9240310" lon="10.3108570">
	<ele>730.60</ele>
	<time>2025-04-29T10:58:36.000Z</time>
</trkpt>
<trkpt lat="45.9240470" lon="10.3108520">
	<ele>730.40</ele>
	<time>2025-04-29T10:58:37.000Z</time>
</trkpt>
<trkpt lat="45.9240640" lon="10.3108500">
	<ele>730.00</ele>
	<time>2025-04-29T10:58:38.000Z</time>
</trkpt>
<trkpt lat="45.9240840" lon="10.3108520">
	<ele>729.40</ele>
	<time>2025-04-29T10:58:39.000Z</time>
</trkpt>
<trkpt lat="45.9240930" lon="10.3108560">
	<ele>729.00</ele>
	<time>2025-04-29T10:58:40.000Z</time>
</trkpt>
<trkpt lat="45.9241030" lon="10.3108590">
	<ele>728.60</ele>
	<time>2025-04-29T10:58:41.000Z</time>
</trkpt>
<trkpt lat="45.9241160" lon="10.3108600">
	<ele>728.00</ele>
	<time>2025-04-29T10:58:42.000Z</time>
</trkpt>
<trkpt lat="45.9241300" lon="10.3108600">
	<ele>727.60</ele>
	<time>2025-04-29T10:58:43.000Z</time>
</trkpt>
<trkpt lat="45.9241420" lon="10.3108570">
	<ele>727.20</ele>
	<time>2025-04-29T10:58:44.000Z</time>
</trkpt>
<trkpt lat="45.9241570" lon="10.3108550">
	<ele>726.80</ele>
	<time>2025-04-29T10:58:45.000Z</time>
</trkpt>
<trkpt lat="45.9241710" lon="10.3108530">
	<ele>726.40</ele>
	<time>2025-04-29T10:58:46.000Z</time>
</trkpt>
<trkpt lat="45.9241860" lon="10.3108500">
	<ele>725.80</ele>
	<time>2025-04-29T10:58:47.000Z</time>
</trkpt>
<trkpt lat="45.9241990" lon="10.3108500">
	<ele>725.40</ele>
	<time>2025-04-29T10:58:48.000Z</time>
</trkpt>
<trkpt lat="45.9242150" lon="10.3108470">
	<ele>725.00</ele>
	<time>2025-04-29T10:58:49.000Z</time>
</trkpt>
<trkpt lat="45.9242390" lon="10.3108490">
	<ele>724.40</ele>
	<time>2025-04-29T10:58:50.000Z</time>
</trkpt>
<trkpt lat="45.9242630" lon="10.3108500">
	<ele>724.20</ele>
	<time>2025-04-29T10:58:51.000Z</time>
</trkpt>
<trkpt lat="45.9242830" lon="10.3108500">
	<ele>724.00</ele>
	<time>2025-04-29T10:58:52.000Z</time>
</trkpt>
<trkpt lat="45.9243050" lon="10.3108490">
	<ele>723.60</ele>
	<time>2025-04-29T10:58:53.000Z</time>
</trkpt>
<trkpt lat="45.9243220" lon="10.3108360">
	<ele>723.40</ele>
	<time>2025-04-29T10:58:54.000Z</time>
</trkpt>
<trkpt lat="45.9243460" lon="10.3108260">
	<ele>723.20</ele>
	<time>2025-04-29T10:58:55.000Z</time>
</trkpt>
<trkpt lat="45.9243660" lon="10.3108220">
	<ele>722.80</ele>
	<time>2025-04-29T10:58:56.000Z</time>
</trkpt>
<trkpt lat="45.9243830" lon="10.3108200">
	<ele>722.60</ele>
	<time>2025-04-29T10:58:57.000Z</time>
</trkpt>
<trkpt lat="45.9243990" lon="10.3108210">
	<ele>722.20</ele>
	<time>2025-04-29T10:58:58.000Z</time>
</trkpt>
<trkpt lat="45.9244130" lon="10.3108240">
	<ele>722.00</ele>
	<time>2025-04-29T10:58:59.000Z</time>
</trkpt>
<trkpt lat="45.9244250" lon="10.3108380">
	<ele>722.00</ele>
	<time>2025-04-29T10:59:00.000Z</time>
</trkpt>
<trkpt lat="45.9244350" lon="10.3108550">
	<ele>721.80</ele>
	<time>2025-04-29T10:59:01.000Z</time>
</trkpt>
<trkpt lat="45.9244490" lon="10.3108710">
	<ele>721.40</ele>
	<time>2025-04-29T10:59:02.000Z</time>
</trkpt>
<trkpt lat="45.9244670" lon="10.3108710">
	<ele>721.20</ele>
	<time>2025-04-29T10:59:03.000Z</time>
</trkpt>
<trkpt lat="45.9245020" lon="10.3108490">
	<ele>721.00</ele>
	<time>2025-04-29T10:59:04.000Z</time>
</trkpt>
<trkpt lat="45.9245410" lon="10.3108200">
	<ele>721.00</ele>
	<time>2025-04-29T10:59:05.000Z</time>
</trkpt>
<trkpt lat="45.9245600" lon="10.3108210">
	<ele>720.80</ele>
	<time>2025-04-29T10:59:06.000Z</time>
</trkpt>
<trkpt lat="45.9245720" lon="10.3108440">
	<ele>720.60</ele>
	<time>2025-04-29T10:59:07.000Z</time>
</trkpt>
<trkpt lat="45.9245780" lon="10.3108630">
	<ele>720.60</ele>
	<time>2025-04-29T10:59:08.000Z</time>
</trkpt>
<trkpt lat="45.9245930" lon="10.3108790">
	<ele>720.40</ele>
	<time>2025-04-29T10:59:09.000Z</time>
</trkpt>
<trkpt lat="45.9246080" lon="10.3108930">
	<ele>720.20</ele>
	<time>2025-04-29T10:59:10.000Z</time>
</trkpt>
<trkpt lat="45.9246280" lon="10.3109070">
	<ele>720.00</ele>
	<time>2025-04-29T10:59:11.000Z</time>
</trkpt>
<trkpt lat="45.9246420" lon="10.3109170">
	<ele>720.00</ele>
	<time>2025-04-29T10:59:12.000Z</time>
</trkpt>
<trkpt lat="45.9246540" lon="10.3109220">
	<ele>719.80</ele>
	<time>2025-04-29T10:59:13.000Z</time>
</trkpt>
<trkpt lat="45.9246640" lon="10.3109290">
	<ele>719.60</ele>
	<time>2025-04-29T10:59:14.000Z</time>
</trkpt>
<trkpt lat="45.9246750" lon="10.3109380">
	<ele>719.60</ele>
	<time>2025-04-29T10:59:15.000Z</time>
</trkpt>
<trkpt lat="45.9246860" lon="10.3109550">
	<ele>719.40</ele>
	<time>2025-04-29T10:59:16.000Z</time>
</trkpt>
<trkpt lat="45.9247040" lon="10.3109710">
	<ele>719.00</ele>
	<time>2025-04-29T10:59:17.000Z</time>
</trkpt>
<trkpt lat="45.9247230" lon="10.3109780">
	<ele>718.80</ele>
	<time>2025-04-29T10:59:18.000Z</time>
</trkpt>
<trkpt lat="45.9247390" lon="10.3109830">
	<ele>718.60</ele>
	<time>2025-04-29T10:59:19.000Z</time>
</trkpt>
<trkpt lat="45.9247430" lon="10.3109770">
	<ele>718.40</ele>
	<time>2025-04-29T10:59:20.000Z</time>
</trkpt>
<trkpt lat="45.9247520" lon="10.3109760">
	<ele>718.00</ele>
	<time>2025-04-29T10:59:21.000Z</time>
</trkpt>
<trkpt lat="45.9247570" lon="10.3109830">
	<ele>717.60</ele>
	<time>2025-04-29T10:59:22.000Z</time>
</trkpt>
<trkpt lat="45.9247680" lon="10.3109880">
	<ele>717.20</ele>
	<time>2025-04-29T10:59:23.000Z</time>
</trkpt>
<trkpt lat="45.9247790" lon="10.3109940">
	<ele>716.80</ele>
	<time>2025-04-29T10:59:24.000Z</time>
</trkpt>
<trkpt lat="45.9247980" lon="10.3110050">
	<ele>716.80</ele>
	<time>2025-04-29T10:59:25.000Z</time>
</trkpt>
<trkpt lat="45.9248120" lon="10.3110140">
	<ele>716.60</ele>
	<time>2025-04-29T10:59:26.000Z</time>
</trkpt>
<trkpt lat="45.9248240" lon="10.3110230">
	<ele>716.20</ele>
	<time>2025-04-29T10:59:27.000Z</time>
</trkpt>
<trkpt lat="45.9248340" lon="10.3110290">
	<ele>715.80</ele>
	<time>2025-04-29T10:59:28.000Z</time>
</trkpt>
<trkpt lat="45.9248440" lon="10.3110360">
	<ele>715.60</ele>
	<time>2025-04-29T10:59:29.000Z</time>
</trkpt>
<trkpt lat="45.9248660" lon="10.3110440">
	<ele>715.40</ele>
	<time>2025-04-29T10:59:30.000Z</time>
</trkpt>
<trkpt lat="45.9248850" lon="10.3110490">
	<ele>715.00</ele>
	<time>2025-04-29T10:59:31.000Z</time>
</trkpt>
<trkpt lat="45.9249000" lon="10.3110500">
	<ele>714.80</ele>
	<time>2025-04-29T10:59:32.000Z</time>
</trkpt>
<trkpt lat="45.9249190" lon="10.3110580">
	<ele>714.40</ele>
	<time>2025-04-29T10:59:33.000Z</time>
</trkpt>
<trkpt lat="45.9249360" lon="10.3110720">
	<ele>714.00</ele>
	<time>2025-04-29T10:59:34.000Z</time>
</trkpt>
<trkpt lat="45.9249450" lon="10.3110850">
	<ele>713.80</ele>
	<time>2025-04-29T10:59:35.000Z</time>
</trkpt>
<trkpt lat="45.9249580" lon="10.3110950">
	<ele>713.60</ele>
	<time>2025-04-29T10:59:36.000Z</time>
</trkpt>
<trkpt lat="45.9249730" lon="10.3111030">
	<ele>713.40</ele>
	<time>2025-04-29T10:59:37.000Z</time>
</trkpt>
<trkpt lat="45.9249850" lon="10.3111130">
	<ele>713.00</ele>
	<time>2025-04-29T10:59:38.000Z</time>
</trkpt>
<trkpt lat="45.9249910" lon="10.3111170">
	<ele>712.60</ele>
	<time>2025-04-29T10:59:39.000Z</time>
</trkpt>
<trkpt lat="45.9249960" lon="10.3111220">
	<ele>712.60</ele>
	<time>2025-04-29T10:59:40.000Z</time>
</trkpt>
<trkpt lat="45.9249970" lon="10.3111330">
	<ele>712.60</ele>
	<time>2025-04-29T10:59:41.000Z</time>
</trkpt>
<trkpt lat="45.9249990" lon="10.3111350">
	<ele>712.40</ele>
	<time>2025-04-29T10:59:42.000Z</time>
</trkpt>
<trkpt lat="45.9249980" lon="10.3111300">
	<ele>712.40</ele>
	<time>2025-04-29T10:59:43.000Z</time>
</trkpt>
<trkpt lat="45.9249960" lon="10.3111240">
	<ele>712.60</ele>
	<time>2025-04-29T10:59:44.000Z</time>
</trkpt>
<trkpt lat="45.9249960" lon="10.3111240">
	<ele>712.60</ele>
	<time>2025-04-29T10:59:45.000Z</time>
</trkpt>
<trkpt lat="45.9249970" lon="10.3111240">
	<ele>712.60</ele>
	<time>2025-04-29T10:59:46.000Z</time>
</trkpt>
<trkpt lat="45.9250070" lon="10.3111270">
	<ele>712.60</ele>
	<time>2025-04-29T10:59:47.000Z</time>
</trkpt>
<trkpt lat="45.9250120" lon="10.3111350">
	<ele>712.60</ele>
	<time>2025-04-29T10:59:48.000Z</time>
</trkpt>
<trkpt lat="45.9250060" lon="10.3111570">
	<ele>712.60</ele>
	<time>2025-04-29T10:59:49.000Z</time>
</trkpt>
<trkpt lat="45.9249990" lon="10.3111800">
	<ele>712.60</ele>
	<time>2025-04-29T10:59:50.000Z</time>
</trkpt>
<trkpt lat="45.9249970" lon="10.3112080">
	<ele>712.20</ele>
	<time>2025-04-29T10:59:51.000Z</time>
</trkpt>
<trkpt lat="45.9250030" lon="10.3112260">
	<ele>712.00</ele>
	<time>2025-04-29T10:59:52.000Z</time>
</trkpt>
<trkpt lat="45.9250160" lon="10.3112330">
	<ele>711.80</ele>
	<time>2025-04-29T10:59:53.000Z</time>
</trkpt>
<trkpt lat="45.9250290" lon="10.3112490">
	<ele>711.60</ele>
	<time>2025-04-29T10:59:54.000Z</time>
</trkpt>
<trkpt lat="45.9250450" lon="10.3112620">
	<ele>711.60</ele>
	<time>2025-04-29T10:59:55.000Z</time>
</trkpt>
<trkpt lat="45.9250610" lon="10.3112710">
	<ele>711.40</ele>
	<time>2025-04-29T10:59:56.000Z</time>
</trkpt>
<trkpt lat="45.9250770" lon="10.3112800">
	<ele>711.00</ele>
	<time>2025-04-29T10:59:57.000Z</time>
</trkpt>
<trkpt lat="45.9250920" lon="10.3112910">
	<ele>710.60</ele>
	<time>2025-04-29T10:59:58.000Z</time>
</trkpt>
<trkpt lat="45.9251060" lon="10.3112950">
	<ele>710.20</ele>
	<time>2025-04-29T10:59:59.000Z</time>
</trkpt>
<trkpt lat="45.9251150" lon="10.3113000">
	<ele>710.00</ele>
	<time>2025-04-29T11:00:00.000Z</time>
</trkpt>
<trkpt lat="45.9251280" lon="10.3113090">
	<ele>709.80</ele>
	<time>2025-04-29T11:00:01.000Z</time>
</trkpt>
<trkpt lat="45.9251370" lon="10.3113100">
	<ele>709.60</ele>
	<time>2025-04-29T11:00:02.000Z</time>
</trkpt>
<trkpt lat="45.9251440" lon="10.3113080">
	<ele>709.60</ele>
	<time>2025-04-29T11:00:03.000Z</time>
</trkpt>
<trkpt lat="45.9251560" lon="10.3113020">
	<ele>709.20</ele>
	<time>2025-04-29T11:00:04.000Z</time>
</trkpt>
<trkpt lat="45.9251590" lon="10.3112970">
	<ele>708.80</ele>
	<time>2025-04-29T11:00:05.000Z</time>
</trkpt>
<trkpt lat="45.9251620" lon="10.3112950">
	<ele>708.60</ele>
	<time>2025-04-29T11:00:06.000Z</time>
</trkpt>
<trkpt lat="45.9251650" lon="10.3112930">
	<ele>708.20</ele>
	<time>2025-04-29T11:00:07.000Z</time>
</trkpt>
<trkpt lat="45.9251730" lon="10.3113030">
	<ele>708.00</ele>
	<time>2025-04-29T11:00:08.000Z</time>
</trkpt>
<trkpt lat="45.9251750" lon="10.3113270">
	<ele>707.80</ele>
	<time>2025-04-29T11:00:09.000Z</time>
</trkpt>
<trkpt lat="45.9251770" lon="10.3113550">
	<ele>707.40</ele>
	<time>2025-04-29T11:00:10.000Z</time>
</trkpt>
<trkpt lat="45.9251890" lon="10.3113780">
	<ele>707.00</ele>
	<time>2025-04-29T11:00:11.000Z</time>
</trkpt>
<trkpt lat="45.9251990" lon="10.3113970">
	<ele>706.80</ele>
	<time>2025-04-29T11:00:12.000Z</time>
</trkpt>
<trkpt lat="45.9252020" lon="10.3114130">
	<ele>706.60</ele>
	<time>2025-04-29T11:00:13.000Z</time>
</trkpt>
<trkpt lat="45.9252110" lon="10.3114330">
	<ele>706.40</ele>
	<time>2025-04-29T11:00:14.000Z</time>
</trkpt>
<trkpt lat="45.9252210" lon="10.3114570">
	<ele>706.00</ele>
	<time>2025-04-29T11:00:15.000Z</time>
</trkpt>
<trkpt lat="45.9252380" lon="10.3114720">
	<ele>705.80</ele>
	<time>2025-04-29T11:00:16.000Z</time>
</trkpt>
<trkpt lat="45.9252480" lon="10.3114800">
	<ele>705.60</ele>
	<time>2025-04-29T11:00:17.000Z</time>
</trkpt>
<trkpt lat="45.9252560" lon="10.3114870">
	<ele>705.20</ele>
	<time>2025-04-29T11:00:18.000Z</time>
</trkpt>
<trkpt lat="45.9252590" lon="10.3114900">
	<ele>705.00</ele>
	<time>2025-04-29T11:00:19.000Z</time>
</trkpt>
<trkpt lat="45.9252690" lon="10.3114960">
	<ele>704.80</ele>
	<time>2025-04-29T11:00:20.000Z</time>
</trkpt>
<trkpt lat="45.9252740" lon="10.3114950">
	<ele>704.60</ele>
	<time>2025-04-29T11:00:21.000Z</time>
</trkpt>
<trkpt lat="45.9252800" lon="10.3115020">
	<ele>704.60</ele>
	<time>2025-04-29T11:00:22.000Z</time>
</trkpt>
<trkpt lat="45.9252930" lon="10.3115070">
	<ele>704.40</ele>
	<time>2025-04-29T11:00:23.000Z</time>
</trkpt>
<trkpt lat="45.9253100" lon="10.3115380">
	<ele>704.20</ele>
	<time>2025-04-29T11:00:24.000Z</time>
</trkpt>
<trkpt lat="45.9253210" lon="10.3115630">
	<ele>704.00</ele>
	<time>2025-04-29T11:00:25.000Z</time>
</trkpt>
<trkpt lat="45.9253270" lon="10.3115990">
	<ele>704.00</ele>
	<time>2025-04-29T11:00:26.000Z</time>
</trkpt>
<trkpt lat="45.9253350" lon="10.3116200">
	<ele>703.80</ele>
	<time>2025-04-29T11:00:27.000Z</time>
</trkpt>
<trkpt lat="45.9253470" lon="10.3116410">
	<ele>703.40</ele>
	<time>2025-04-29T11:00:28.000Z</time>
</trkpt>
<trkpt lat="45.9253510" lon="10.3116650">
	<ele>703.40</ele>
	<time>2025-04-29T11:00:29.000Z</time>
</trkpt>
<trkpt lat="45.9253620" lon="10.3116700">
	<ele>703.00</ele>
	<time>2025-04-29T11:00:30.000Z</time>
</trkpt>
<trkpt lat="45.9253760" lon="10.3116860">
	<ele>703.00</ele>
	<time>2025-04-29T11:00:31.000Z</time>
</trkpt>
<trkpt lat="45.9253880" lon="10.3117060">
	<ele>702.80</ele>
	<time>2025-04-29T11:00:32.000Z</time>
</trkpt>
<trkpt lat="45.9253940" lon="10.3117240">
	<ele>702.60</ele>
	<time>2025-04-29T11:00:33.000Z</time>
</trkpt>
<trkpt lat="45.9254040" lon="10.3117340">
	<ele>702.40</ele>
	<time>2025-04-29T11:00:34.000Z</time>
</trkpt>
<trkpt lat="45.9254210" lon="10.3117350">
	<ele>702.20</ele>
	<time>2025-04-29T11:00:35.000Z</time>
</trkpt>
<trkpt lat="45.9254360" lon="10.3117320">
	<ele>702.00</ele>
	<time>2025-04-29T11:00:36.000Z</time>
</trkpt>
<trkpt lat="45.9254430" lon="10.3117310">
	<ele>701.80</ele>
	<time>2025-04-29T11:00:37.000Z</time>
</trkpt>
<trkpt lat="45.9254590" lon="10.3117280">
	<ele>701.60</ele>
	<time>2025-04-29T11:00:38.000Z</time>
</trkpt>
<trkpt lat="45.9254730" lon="10.3117280">
	<ele>701.20</ele>
	<time>2025-04-29T11:00:39.000Z</time>
</trkpt>
<trkpt lat="45.9254870" lon="10.3117340">
	<ele>701.00</ele>
	<time>2025-04-29T11:00:40.000Z</time>
</trkpt>
<trkpt lat="45.9255010" lon="10.3117310">
	<ele>700.80</ele>
	<time>2025-04-29T11:00:41.000Z</time>
</trkpt>
<trkpt lat="45.9255200" lon="10.3117320">
	<ele>700.40</ele>
	<time>2025-04-29T11:00:42.000Z</time>
</trkpt>
<trkpt lat="45.9255380" lon="10.3117320">
	<ele>700.20</ele>
	<time>2025-04-29T11:00:43.000Z</time>
</trkpt>
<trkpt lat="45.9255550" lon="10.3117270">
	<ele>700.00</ele>
	<time>2025-04-29T11:00:44.000Z</time>
</trkpt>
<trkpt lat="45.9255680" lon="10.3117240">
	<ele>699.80</ele>
	<time>2025-04-29T11:00:45.000Z</time>
</trkpt>
<trkpt lat="45.9255860" lon="10.3117230">
	<ele>699.60</ele>
	<time>2025-04-29T11:00:46.000Z</time>
</trkpt>
<trkpt lat="45.9256000" lon="10.3117240">
	<ele>699.60</ele>
	<time>2025-04-29T11:00:47.000Z</time>
</trkpt>
<trkpt lat="45.9256110" lon="10.3117170">
	<ele>699.40</ele>
	<time>2025-04-29T11:00:48.000Z</time>
</trkpt>
<trkpt lat="45.9256180" lon="10.3117080">
	<ele>699.40</ele>
	<time>2025-04-29T11:00:49.000Z</time>
</trkpt>
<trkpt lat="45.9256240" lon="10.3117050">
	<ele>699.20</ele>
	<time>2025-04-29T11:00:50.000Z</time>
</trkpt>
<trkpt lat="45.9256300" lon="10.3117050">
	<ele>698.80</ele>
	<time>2025-04-29T11:00:51.000Z</time>
</trkpt>
<trkpt lat="45.9256320" lon="10.3117090">
	<ele>698.60</ele>
	<time>2025-04-29T11:00:52.000Z</time>
</trkpt>
<trkpt lat="45.9256440" lon="10.3117080">
	<ele>698.60</ele>
	<time>2025-04-29T11:00:53.000Z</time>
</trkpt>
<trkpt lat="45.9256470" lon="10.3116980">
	<ele>698.40</ele>
	<time>2025-04-29T11:00:54.000Z</time>
</trkpt>
<trkpt lat="45.9256540" lon="10.3116950">
	<ele>698.20</ele>
	<time>2025-04-29T11:00:55.000Z</time>
</trkpt>
<trkpt lat="45.9256640" lon="10.3117040">
	<ele>698.20</ele>
	<time>2025-04-29T11:00:56.000Z</time>
</trkpt>
<trkpt lat="45.9256770" lon="10.3117190">
	<ele>697.80</ele>
	<time>2025-04-29T11:00:57.000Z</time>
</trkpt>
<trkpt lat="45.9256800" lon="10.3117220">
	<ele>697.60</ele>
	<time>2025-04-29T11:00:58.000Z</time>
</trkpt>
<trkpt lat="45.9256890" lon="10.3117220">
	<ele>697.40</ele>
	<time>2025-04-29T11:00:59.000Z</time>
</trkpt>
<trkpt lat="45.9256990" lon="10.3117100">
	<ele>697.20</ele>
	<time>2025-04-29T11:01:00.000Z</time>
</trkpt>
<trkpt lat="45.9257120" lon="10.3117050">
	<ele>697.20</ele>
	<time>2025-04-29T11:01:01.000Z</time>
</trkpt>
<trkpt lat="45.9257250" lon="10.3117050">
	<ele>697.00</ele>
	<time>2025-04-29T11:01:02.000Z</time>
</trkpt>
<trkpt lat="45.9257360" lon="10.3117060">
	<ele>696.80</ele>
	<time>2025-04-29T11:01:03.000Z</time>
</trkpt>
<trkpt lat="45.9257500" lon="10.3117000">
	<ele>696.60</ele>
	<time>2025-04-29T11:01:04.000Z</time>
</trkpt>
<trkpt lat="45.9257550" lon="10.3116930">
	<ele>696.20</ele>
	<time>2025-04-29T11:01:05.000Z</time>
</trkpt>
<trkpt lat="45.9257630" lon="10.3116770">
	<ele>695.80</ele>
	<time>2025-04-29T11:01:06.000Z</time>
</trkpt>
<trkpt lat="45.9257740" lon="10.3116650">
	<ele>695.60</ele>
	<time>2025-04-29T11:01:07.000Z</time>
</trkpt>
<trkpt lat="45.9257910" lon="10.3116410">
	<ele>695.40</ele>
	<time>2025-04-29T11:01:08.000Z</time>
</trkpt>
<trkpt lat="45.9258010" lon="10.3116040">
	<ele>695.00</ele>
	<time>2025-04-29T11:01:09.000Z</time>
</trkpt>
<trkpt lat="45.9258120" lon="10.3115720">
	<ele>694.80</ele>
	<time>2025-04-29T11:01:10.000Z</time>
</trkpt>
<trkpt lat="45.9258240" lon="10.3115650">
	<ele>694.40</ele>
	<time>2025-04-29T11:01:11.000Z</time>
</trkpt>
<trkpt lat="45.9258340" lon="10.3115670">
	<ele>694.40</ele>
	<time>2025-04-29T11:01:12.000Z</time>
</trkpt>
<trkpt lat="45.9258530" lon="10.3115780">
	<ele>694.20</ele>
	<time>2025-04-29T11:01:13.000Z</time>
</trkpt>
<trkpt lat="45.9258590" lon="10.3115750">
	<ele>693.80</ele>
	<time>2025-04-29T11:01:14.000Z</time>
</trkpt>
<trkpt lat="45.9258790" lon="10.3115850">
	<ele>693.80</ele>
	<time>2025-04-29T11:01:15.000Z</time>
</trkpt>
<trkpt lat="45.9258960" lon="10.3115880">
	<ele>693.60</ele>
	<time>2025-04-29T11:01:16.000Z</time>
</trkpt>
<trkpt lat="45.9259150" lon="10.3115980">
	<ele>693.20</ele>
	<time>2025-04-29T11:01:17.000Z</time>
</trkpt>
<trkpt lat="45.9259290" lon="10.3115960">
	<ele>692.80</ele>
	<time>2025-04-29T11:01:18.000Z</time>
</trkpt>
<trkpt lat="45.9259350" lon="10.3115910">
	<ele>692.60</ele>
	<time>2025-04-29T11:01:19.000Z</time>
</trkpt>
<trkpt lat="45.9259430" lon="10.3115830">
	<ele>692.60</ele>
	<time>2025-04-29T11:01:20.000Z</time>
</trkpt>
<trkpt lat="45.9259520" lon="10.3115780">
	<ele>692.20</ele>
	<time>2025-04-29T11:01:21.000Z</time>
</trkpt>
<trkpt lat="45.9259640" lon="10.3115760">
	<ele>692.00</ele>
	<time>2025-04-29T11:01:22.000Z</time>
</trkpt>
<trkpt lat="45.9259810" lon="10.3115730">
	<ele>692.00</ele>
	<time>2025-04-29T11:01:23.000Z</time>
</trkpt>
<trkpt lat="45.9259990" lon="10.3115750">
	<ele>691.60</ele>
	<time>2025-04-29T11:01:24.000Z</time>
</trkpt>
<trkpt lat="45.9260200" lon="10.3115770">
	<ele>691.40</ele>
	<time>2025-04-29T11:01:25.000Z</time>
</trkpt>
<trkpt lat="45.9260470" lon="10.3115690">
	<ele>690.80</ele>
	<time>2025-04-29T11:01:26.000Z</time>
</trkpt>
<trkpt lat="45.9260730" lon="10.3115620">
	<ele>690.60</ele>
	<time>2025-04-29T11:01:27.000Z</time>
</trkpt>
<trkpt lat="45.9260960" lon="10.3115590">
	<ele>690.20</ele>
	<time>2025-04-29T11:01:28.000Z</time>
</trkpt>
<trkpt lat="45.9261160" lon="10.3115540">
	<ele>690.00</ele>
	<time>2025-04-29T11:01:29.000Z</time>
</trkpt>
<trkpt lat="45.9261310" lon="10.3115570">
	<ele>689.80</ele>
	<time>2025-04-29T11:01:30.000Z</time>
</trkpt>
<trkpt lat="45.9261410" lon="10.3115680">
	<ele>689.40</ele>
	<time>2025-04-29T11:01:31.000Z</time>
</trkpt>
<trkpt lat="45.9261620" lon="10.3115850">
	<ele>689.20</ele>
	<time>2025-04-29T11:01:32.000Z</time>
</trkpt>
<trkpt lat="45.9261790" lon="10.3115970">
	<ele>688.80</ele>
	<time>2025-04-29T11:01:33.000Z</time>
</trkpt>
<trkpt lat="45.9261880" lon="10.3116150">
	<ele>688.60</ele>
	<time>2025-04-29T11:01:34.000Z</time>
</trkpt>
<trkpt lat="45.9262010" lon="10.3116330">
	<ele>688.40</ele>
	<time>2025-04-29T11:01:35.000Z</time>
</trkpt>
<trkpt lat="45.9262080" lon="10.3116420">
	<ele>687.80</ele>
	<time>2025-04-29T11:01:36.000Z</time>
</trkpt>
<trkpt lat="45.9262190" lon="10.3116370">
	<ele>687.60</ele>
	<time>2025-04-29T11:01:37.000Z</time>
</trkpt>
<trkpt lat="45.9262370" lon="10.3116380">
	<ele>687.40</ele>
	<time>2025-04-29T11:01:38.000Z</time>
</trkpt>
<trkpt lat="45.9262470" lon="10.3116320">
	<ele>687.20</ele>
	<time>2025-04-29T11:01:39.000Z</time>
</trkpt>
<trkpt lat="45.9262580" lon="10.3116280">
	<ele>687.00</ele>
	<time>2025-04-29T11:01:40.000Z</time>
</trkpt>
<trkpt lat="45.9262720" lon="10.3116350">
	<ele>686.80</ele>
	<time>2025-04-29T11:01:41.000Z</time>
</trkpt>
<trkpt lat="45.9262870" lon="10.3116380">
	<ele>686.40</ele>
	<time>2025-04-29T11:01:42.000Z</time>
</trkpt>
<trkpt lat="45.9262940" lon="10.3116210">
	<ele>686.00</ele>
	<time>2025-04-29T11:01:43.000Z</time>
</trkpt>
<trkpt lat="45.9263110" lon="10.3116050">
	<ele>685.60</ele>
	<time>2025-04-29T11:01:44.000Z</time>
</trkpt>
<trkpt lat="45.9263310" lon="10.3115990">
	<ele>685.40</ele>
	<time>2025-04-29T11:01:45.000Z</time>
</trkpt>
<trkpt lat="45.9263510" lon="10.3115880">
	<ele>685.00</ele>
	<time>2025-04-29T11:01:46.000Z</time>
</trkpt>
<trkpt lat="45.9263640" lon="10.3115880">
	<ele>684.80</ele>
	<time>2025-04-29T11:01:47.000Z</time>
</trkpt>
<trkpt lat="45.9263820" lon="10.3115830">
	<ele>684.60</ele>
	<time>2025-04-29T11:01:48.000Z</time>
</trkpt>
<trkpt lat="45.9263900" lon="10.3115750">
	<ele>684.60</ele>
	<time>2025-04-29T11:01:49.000Z</time>
</trkpt>
<trkpt lat="45.9264040" lon="10.3115740">
	<ele>684.20</ele>
	<time>2025-04-29T11:01:50.000Z</time>
</trkpt>
<trkpt lat="45.9264220" lon="10.3115720">
	<ele>683.80</ele>
	<time>2025-04-29T11:01:51.000Z</time>
</trkpt>
<trkpt lat="45.9264380" lon="10.3115660">
	<ele>683.40</ele>
	<time>2025-04-29T11:01:52.000Z</time>
</trkpt>
<trkpt lat="45.9264510" lon="10.3115600">
	<ele>683.00</ele>
	<time>2025-04-29T11:01:53.000Z</time>
</trkpt>
<trkpt lat="45.9264720" lon="10.3115610">
	<ele>682.80</ele>
	<time>2025-04-29T11:01:54.000Z</time>
</trkpt>
<trkpt lat="45.9264920" lon="10.3115610">
	<ele>682.60</ele>
	<time>2025-04-29T11:01:55.000Z</time>
</trkpt>
<trkpt lat="45.9265100" lon="10.3115500">
	<ele>682.40</ele>
	<time>2025-04-29T11:01:56.000Z</time>
</trkpt>
<trkpt lat="45.9265240" lon="10.3115460">
	<ele>682.00</ele>
	<time>2025-04-29T11:01:57.000Z</time>
</trkpt>
<trkpt lat="45.9265360" lon="10.3115480">
	<ele>681.80</ele>
	<time>2025-04-29T11:01:58.000Z</time>
</trkpt>
<trkpt lat="45.9265470" lon="10.3115450">
	<ele>681.60</ele>
	<time>2025-04-29T11:01:59.000Z</time>
</trkpt>
<trkpt lat="45.9265590" lon="10.3115400">
	<ele>681.00</ele>
	<time>2025-04-29T11:02:00.000Z</time>
</trkpt>
<trkpt lat="45.9265770" lon="10.3115370">
	<ele>680.80</ele>
	<time>2025-04-29T11:02:01.000Z</time>
</trkpt>
<trkpt lat="45.9265950" lon="10.3115390">
	<ele>680.60</ele>
	<time>2025-04-29T11:02:02.000Z</time>
</trkpt>
<trkpt lat="45.9266110" lon="10.3115450">
	<ele>680.40</ele>
	<time>2025-04-29T11:02:03.000Z</time>
</trkpt>
<trkpt lat="45.9266270" lon="10.3115510">
	<ele>680.20</ele>
	<time>2025-04-29T11:02:04.000Z</time>
</trkpt>
<trkpt lat="45.9266420" lon="10.3115600">
	<ele>680.00</ele>
	<time>2025-04-29T11:02:05.000Z</time>
</trkpt>
<trkpt lat="45.9266600" lon="10.3115560">
	<ele>679.60</ele>
	<time>2025-04-29T11:02:06.000Z</time>
</trkpt>
<trkpt lat="45.9266780" lon="10.3115630">
	<ele>679.40</ele>
	<time>2025-04-29T11:02:07.000Z</time>
</trkpt>
<trkpt lat="45.9266920" lon="10.3115660">
	<ele>679.20</ele>
	<time>2025-04-29T11:02:08.000Z</time>
</trkpt>
<trkpt lat="45.9267100" lon="10.3115650">
	<ele>678.80</ele>
	<time>2025-04-29T11:02:09.000Z</time>
</trkpt>
<trkpt lat="45.9267210" lon="10.3115690">
	<ele>678.60</ele>
	<time>2025-04-29T11:02:10.000Z</time>
</trkpt>
<trkpt lat="45.9267320" lon="10.3115690">
	<ele>678.40</ele>
	<time>2025-04-29T11:02:11.000Z</time>
</trkpt>
<trkpt lat="45.9267490" lon="10.3115650">
	<ele>678.20</ele>
	<time>2025-04-29T11:02:12.000Z</time>
</trkpt>
<trkpt lat="45.9267580" lon="10.3115600">
	<ele>677.80</ele>
	<time>2025-04-29T11:02:13.000Z</time>
</trkpt>
<trkpt lat="45.9267690" lon="10.3115580">
	<ele>677.40</ele>
	<time>2025-04-29T11:02:14.000Z</time>
</trkpt>
<trkpt lat="45.9267830" lon="10.3115610">
	<ele>677.20</ele>
	<time>2025-04-29T11:02:15.000Z</time>
</trkpt>
<trkpt lat="45.9268000" lon="10.3115650">
	<ele>677.00</ele>
	<time>2025-04-29T11:02:16.000Z</time>
</trkpt>
<trkpt lat="45.9268160" lon="10.3115730">
	<ele>676.60</ele>
	<time>2025-04-29T11:02:17.000Z</time>
</trkpt>
<trkpt lat="45.9268330" lon="10.3115770">
	<ele>676.40</ele>
	<time>2025-04-29T11:02:18.000Z</time>
</trkpt>
<trkpt lat="45.9268460" lon="10.3115830">
	<ele>676.20</ele>
	<time>2025-04-29T11:02:19.000Z</time>
</trkpt>
<trkpt lat="45.9268550" lon="10.3115820">
	<ele>676.00</ele>
	<time>2025-04-29T11:02:20.000Z</time>
</trkpt>
<trkpt lat="45.9268700" lon="10.3115880">
	<ele>675.80</ele>
	<time>2025-04-29T11:02:21.000Z</time>
</trkpt>
<trkpt lat="45.9268820" lon="10.3115890">
	<ele>675.60</ele>
	<time>2025-04-29T11:02:22.000Z</time>
</trkpt>
<trkpt lat="45.9268910" lon="10.3115890">
	<ele>675.20</ele>
	<time>2025-04-29T11:02:23.000Z</time>
</trkpt>
<trkpt lat="45.9269030" lon="10.3115890">
	<ele>674.80</ele>
	<time>2025-04-29T11:02:24.000Z</time>
</trkpt>
<trkpt lat="45.9269120" lon="10.3115820">
	<ele>674.60</ele>
	<time>2025-04-29T11:02:25.000Z</time>
</trkpt>
<trkpt lat="45.9269310" lon="10.3115740">
	<ele>674.40</ele>
	<time>2025-04-29T11:02:26.000Z</time>
</trkpt>
<trkpt lat="45.9269460" lon="10.3115720">
	<ele>674.20</ele>
	<time>2025-04-29T11:02:27.000Z</time>
</trkpt>
<trkpt lat="45.9269640" lon="10.3115740">
	<ele>673.80</ele>
	<time>2025-04-29T11:02:28.000Z</time>
</trkpt>
<trkpt lat="45.9269900" lon="10.3115920">
	<ele>673.60</ele>
	<time>2025-04-29T11:02:29.000Z</time>
</trkpt>
<trkpt lat="45.9270130" lon="10.3115970">
	<ele>673.40</ele>
	<time>2025-04-29T11:02:30.000Z</time>
</trkpt>
<trkpt lat="45.9270320" lon="10.3116040">
	<ele>673.00</ele>
	<time>2025-04-29T11:02:31.000Z</time>
</trkpt>
<trkpt lat="45.9270520" lon="10.3116000">
	<ele>672.80</ele>
	<time>2025-04-29T11:02:32.000Z</time>
</trkpt>
<trkpt lat="45.9270620" lon="10.3115990">
	<ele>672.60</ele>
	<time>2025-04-29T11:02:33.000Z</time>
</trkpt>
<trkpt lat="45.9270740" lon="10.3115910">
	<ele>672.40</ele>
	<time>2025-04-29T11:02:34.000Z</time>
</trkpt>
<trkpt lat="45.9270850" lon="10.3115890">
	<ele>672.40</ele>
	<time>2025-04-29T11:02:35.000Z</time>
</trkpt>
<trkpt lat="45.9271050" lon="10.3115800">
	<ele>672.20</ele>
	<time>2025-04-29T11:02:36.000Z</time>
</trkpt>
<trkpt lat="45.9271210" lon="10.3115720">
	<ele>671.80</ele>
	<time>2025-04-29T11:02:37.000Z</time>
</trkpt>
<trkpt lat="45.9271430" lon="10.3115560">
	<ele>671.60</ele>
	<time>2025-04-29T11:02:38.000Z</time>
</trkpt>
<trkpt lat="45.9271540" lon="10.3115510">
	<ele>671.40</ele>
	<time>2025-04-29T11:02:39.000Z</time>
</trkpt>
<trkpt lat="45.9271670" lon="10.3115500">
	<ele>670.80</ele>
	<time>2025-04-29T11:02:40.000Z</time>
</trkpt>
<trkpt lat="45.9271800" lon="10.3115520">
	<ele>670.60</ele>
	<time>2025-04-29T11:02:41.000Z</time>
</trkpt>
<trkpt lat="45.9271980" lon="10.3115480">
	<ele>670.20</ele>
	<time>2025-04-29T11:02:42.000Z</time>
</trkpt>
<trkpt lat="45.9272150" lon="10.3115490">
	<ele>669.80</ele>
	<time>2025-04-29T11:02:43.000Z</time>
</trkpt>
<trkpt lat="45.9272220" lon="10.3115640">
	<ele>669.40</ele>
	<time>2025-04-29T11:02:44.000Z</time>
</trkpt>
<trkpt lat="45.9272290" lon="10.3115720">
	<ele>669.00</ele>
	<time>2025-04-29T11:02:45.000Z</time>
</trkpt>
<trkpt lat="45.9272500" lon="10.3115830">
	<ele>668.80</ele>
	<time>2025-04-29T11:02:46.000Z</time>
</trkpt>
<trkpt lat="45.9272650" lon="10.3115850">
	<ele>668.60</ele>
	<time>2025-04-29T11:02:47.000Z</time>
</trkpt>
<trkpt lat="45.9272820" lon="10.3115850">
	<ele>668.20</ele>
	<time>2025-04-29T11:02:48.000Z</time>
</trkpt>
<trkpt lat="45.9272990" lon="10.3115840">
	<ele>668.00</ele>
	<time>2025-04-29T11:02:49.000Z</time>
</trkpt>
<trkpt lat="45.9273160" lon="10.3115870">
	<ele>667.80</ele>
	<time>2025-04-29T11:02:50.000Z</time>
</trkpt>
<trkpt lat="45.9273340" lon="10.3115850">
	<ele>667.40</ele>
	<time>2025-04-29T11:02:51.000Z</time>
</trkpt>
<trkpt lat="45.9273480" lon="10.3115920">
	<ele>667.20</ele>
	<time>2025-04-29T11:02:52.000Z</time>
</trkpt>
<trkpt lat="45.9273630" lon="10.3115980">
	<ele>666.80</ele>
	<time>2025-04-29T11:02:53.000Z</time>
</trkpt>
<trkpt lat="45.9273730" lon="10.3115950">
	<ele>666.40</ele>
	<time>2025-04-29T11:02:54.000Z</time>
</trkpt>
<trkpt lat="45.9273880" lon="10.3115930">
	<ele>666.20</ele>
	<time>2025-04-29T11:02:55.000Z</time>
</trkpt>
<trkpt lat="45.9274010" lon="10.3115950">
	<ele>666.00</ele>
	<time>2025-04-29T11:02:56.000Z</time>
</trkpt>
<trkpt lat="45.9274110" lon="10.3116010">
	<ele>665.80</ele>
	<time>2025-04-29T11:02:57.000Z</time>
</trkpt>
<trkpt lat="45.9274280" lon="10.3116120">
	<ele>665.60</ele>
	<time>2025-04-29T11:02:58.000Z</time>
</trkpt>
<trkpt lat="45.9274410" lon="10.3116210">
	<ele>665.20</ele>
	<time>2025-04-29T11:02:59.000Z</time>
</trkpt>
<trkpt lat="45.9274520" lon="10.3116320">
	<ele>665.00</ele>
	<time>2025-04-29T11:03:00.000Z</time>
</trkpt>
<trkpt lat="45.9274640" lon="10.3116500">
	<ele>664.80</ele>
	<time>2025-04-29T11:03:01.000Z</time>
</trkpt>
<trkpt lat="45.9274750" lon="10.3116660">
	<ele>664.80</ele>
	<time>2025-04-29T11:03:02.000Z</time>
</trkpt>
<trkpt lat="45.9274850" lon="10.3116820">
	<ele>664.40</ele>
	<time>2025-04-29T11:03:03.000Z</time>
</trkpt>
<trkpt lat="45.9274960" lon="10.3116940">
	<ele>664.20</ele>
	<time>2025-04-29T11:03:04.000Z</time>
</trkpt>
<trkpt lat="45.9275080" lon="10.3117060">
	<ele>664.00</ele>
	<time>2025-04-29T11:03:05.000Z</time>
</trkpt>
<trkpt lat="45.9275180" lon="10.3117120">
	<ele>663.60</ele>
	<time>2025-04-29T11:03:06.000Z</time>
</trkpt>
<trkpt lat="45.9275280" lon="10.3117170">
	<ele>663.40</ele>
	<time>2025-04-29T11:03:07.000Z</time>
</trkpt>
<trkpt lat="45.9275400" lon="10.3117270">
	<ele>663.20</ele>
	<time>2025-04-29T11:03:08.000Z</time>
</trkpt>
<trkpt lat="45.9275530" lon="10.3117390">
	<ele>662.80</ele>
	<time>2025-04-29T11:03:09.000Z</time>
</trkpt>
<trkpt lat="45.9275670" lon="10.3117440">
	<ele>662.60</ele>
	<time>2025-04-29T11:03:10.000Z</time>
</trkpt>
<trkpt lat="45.9275800" lon="10.3117500">
	<ele>662.20</ele>
	<time>2025-04-29T11:03:11.000Z</time>
</trkpt>
<trkpt lat="45.9275900" lon="10.3117550">
	<ele>662.00</ele>
	<time>2025-04-29T11:03:12.000Z</time>
</trkpt>
<trkpt lat="45.9276010" lon="10.3117630">
	<ele>661.80</ele>
	<time>2025-04-29T11:03:13.000Z</time>
</trkpt>
<trkpt lat="45.9276150" lon="10.3117630">
	<ele>661.60</ele>
	<time>2025-04-29T11:03:14.000Z</time>
</trkpt>
<trkpt lat="45.9276330" lon="10.3117720">
	<ele>661.40</ele>
	<time>2025-04-29T11:03:15.000Z</time>
</trkpt>
<trkpt lat="45.9276470" lon="10.3117740">
	<ele>661.20</ele>
	<time>2025-04-29T11:03:16.000Z</time>
</trkpt>
<trkpt lat="45.9276560" lon="10.3117800">
	<ele>661.00</ele>
	<time>2025-04-29T11:03:17.000Z</time>
</trkpt>
<trkpt lat="45.9276660" lon="10.3117820">
	<ele>660.80</ele>
	<time>2025-04-29T11:03:18.000Z</time>
</trkpt>
<trkpt lat="45.9276740" lon="10.3117830">
	<ele>660.60</ele>
	<time>2025-04-29T11:03:19.000Z</time>
</trkpt>
<trkpt lat="45.9276880" lon="10.3117860">
	<ele>660.40</ele>
	<time>2025-04-29T11:03:20.000Z</time>
</trkpt>
<trkpt lat="45.9277000" lon="10.3117850">
	<ele>660.40</ele>
	<time>2025-04-29T11:03:21.000Z</time>
</trkpt>
<trkpt lat="45.9277270" lon="10.3118020">
	<ele>660.00</ele>
	<time>2025-04-29T11:03:22.000Z</time>
</trkpt>
<trkpt lat="45.9277390" lon="10.3118190">
	<ele>659.80</ele>
	<time>2025-04-29T11:03:23.000Z</time>
</trkpt>
<trkpt lat="45.9277500" lon="10.3118410">
	<ele>659.40</ele>
	<time>2025-04-29T11:03:24.000Z</time>
</trkpt>
<trkpt lat="45.9277550" lon="10.3118580">
	<ele>659.20</ele>
	<time>2025-04-29T11:03:25.000Z</time>
</trkpt>
<trkpt lat="45.9277640" lon="10.3118660">
	<ele>659.00</ele>
	<time>2025-04-29T11:03:26.000Z</time>
</trkpt>
<trkpt lat="45.9277710" lon="10.3118690">
	<ele>658.80</ele>
	<time>2025-04-29T11:03:27.000Z</time>
</trkpt>
<trkpt lat="45.9277730" lon="10.3118710">
	<ele>658.60</ele>
	<time>2025-04-29T11:03:28.000Z</time>
</trkpt>
<trkpt lat="45.9277750" lon="10.3118810">
	<ele>658.40</ele>
	<time>2025-04-29T11:03:29.000Z</time>
</trkpt>
<trkpt lat="45.9277770" lon="10.3118950">
	<ele>658.00</ele>
	<time>2025-04-29T11:03:30.000Z</time>
</trkpt>
<trkpt lat="45.9277700" lon="10.3119120">
	<ele>657.80</ele>
	<time>2025-04-29T11:03:31.000Z</time>
</trkpt>
<trkpt lat="45.9277600" lon="10.3119290">
	<ele>657.40</ele>
	<time>2025-04-29T11:03:32.000Z</time>
</trkpt>
<trkpt lat="45.9277490" lon="10.3119400">
	<ele>657.00</ele>
	<time>2025-04-29T11:03:33.000Z</time>
</trkpt>
<trkpt lat="45.9277320" lon="10.3119530">
	<ele>656.60</ele>
	<time>2025-04-29T11:03:34.000Z</time>
</trkpt>
<trkpt lat="45.9277220" lon="10.3119690">
	<ele>656.40</ele>
	<time>2025-04-29T11:03:35.000Z</time>
</trkpt>
<trkpt lat="45.9277100" lon="10.3119780">
	<ele>656.20</ele>
	<time>2025-04-29T11:03:36.000Z</time>
</trkpt>
<trkpt lat="45.9276960" lon="10.3119790">
	<ele>656.00</ele>
	<time>2025-04-29T11:03:37.000Z</time>
</trkpt>
<trkpt lat="45.9276830" lon="10.3119830">
	<ele>655.60</ele>
	<time>2025-04-29T11:03:38.000Z</time>
</trkpt>
<trkpt lat="45.9276690" lon="10.3119880">
	<ele>655.40</ele>
	<time>2025-04-29T11:03:39.000Z</time>
</trkpt>
<trkpt lat="45.9276570" lon="10.3119910">
	<ele>655.00</ele>
	<time>2025-04-29T11:03:40.000Z</time>
</trkpt>
<trkpt lat="45.9276450" lon="10.3119970">
	<ele>654.80</ele>
	<time>2025-04-29T11:03:41.000Z</time>
</trkpt>
<trkpt lat="45.9276340" lon="10.3120040">
	<ele>654.40</ele>
	<time>2025-04-29T11:03:42.000Z</time>
</trkpt>
<trkpt lat="45.9276210" lon="10.3120180">
	<ele>654.20</ele>
	<time>2025-04-29T11:03:43.000Z</time>
</trkpt>
<trkpt lat="45.9276090" lon="10.3120310">
	<ele>653.80</ele>
	<time>2025-04-29T11:03:44.000Z</time>
</trkpt>
<trkpt lat="45.9275920" lon="10.3120340">
	<ele>653.40</ele>
	<time>2025-04-29T11:03:45.000Z</time>
</trkpt>
<trkpt lat="45.9275720" lon="10.3120340">
	<ele>653.00</ele>
	<time>2025-04-29T11:03:46.000Z</time>
</trkpt>
<trkpt lat="45.9275480" lon="10.3120310">
	<ele>652.80</ele>
	<time>2025-04-29T11:03:47.000Z</time>
</trkpt>
<trkpt lat="45.9275310" lon="10.3120340">
	<ele>652.40</ele>
	<time>2025-04-29T11:03:48.000Z</time>
</trkpt>
<trkpt lat="45.9275230" lon="10.3120400">
	<ele>652.00</ele>
	<time>2025-04-29T11:03:49.000Z</time>
</trkpt>
<trkpt lat="45.9275150" lon="10.3120490">
	<ele>651.80</ele>
	<time>2025-04-29T11:03:50.000Z</time>
</trkpt>
<trkpt lat="45.9274940" lon="10.3120590">
	<ele>651.60</ele>
	<time>2025-04-29T11:03:51.000Z</time>
</trkpt>
<trkpt lat="45.9274680" lon="10.3120620">
	<ele>651.40</ele>
	<time>2025-04-29T11:03:52.000Z</time>
</trkpt>
<trkpt lat="45.9274470" lon="10.3120620">
	<ele>651.00</ele>
	<time>2025-04-29T11:03:53.000Z</time>
</trkpt>
<trkpt lat="45.9274340" lon="10.3120590">
	<ele>650.80</ele>
	<time>2025-04-29T11:03:54.000Z</time>
</trkpt>
<trkpt lat="45.9274200" lon="10.3120590">
	<ele>650.60</ele>
	<time>2025-04-29T11:03:55.000Z</time>
</trkpt>
<trkpt lat="45.9274050" lon="10.3120630">
	<ele>650.40</ele>
	<time>2025-04-29T11:03:56.000Z</time>
</trkpt>
<trkpt lat="45.9273950" lon="10.3120650">
	<ele>650.40</ele>
	<time>2025-04-29T11:03:57.000Z</time>
</trkpt>
<trkpt lat="45.9273860" lon="10.3120720">
	<ele>650.00</ele>
	<time>2025-04-29T11:03:58.000Z</time>
</trkpt>
<trkpt lat="45.9273730" lon="10.3120850">
	<ele>649.80</ele>
	<time>2025-04-29T11:03:59.000Z</time>
</trkpt>
<trkpt lat="45.9273460" lon="10.3120850">
	<ele>649.60</ele>
	<time>2025-04-29T11:04:00.000Z</time>
</trkpt>
<trkpt lat="45.9273240" lon="10.3120820">
	<ele>649.40</ele>
	<time>2025-04-29T11:04:01.000Z</time>
</trkpt>
<trkpt lat="45.9273050" lon="10.3120800">
	<ele>649.20</ele>
	<time>2025-04-29T11:04:02.000Z</time>
</trkpt>
<trkpt lat="45.9272960" lon="10.3120820">
	<ele>648.80</ele>
	<time>2025-04-29T11:04:03.000Z</time>
</trkpt>
<trkpt lat="45.9272790" lon="10.3120870">
	<ele>648.60</ele>
	<time>2025-04-29T11:04:04.000Z</time>
</trkpt>
<trkpt lat="45.9272550" lon="10.3120880">
	<ele>648.40</ele>
	<time>2025-04-29T11:04:05.000Z</time>
</trkpt>
<trkpt lat="45.9272270" lon="10.3120810">
	<ele>648.20</ele>
	<time>2025-04-29T11:04:06.000Z</time>
</trkpt>
<trkpt lat="45.9272060" lon="10.3120670">
	<ele>648.00</ele>
	<time>2025-04-29T11:04:07.000Z</time>
</trkpt>
<trkpt lat="45.9271870" lon="10.3120570">
	<ele>647.80</ele>
	<time>2025-04-29T11:04:08.000Z</time>
</trkpt>
<trkpt lat="45.9271750" lon="10.3120530">
	<ele>647.40</ele>
	<time>2025-04-29T11:04:09.000Z</time>
</trkpt>
<trkpt lat="45.9271630" lon="10.3120520">
	<ele>647.20</ele>
	<time>2025-04-29T11:04:10.000Z</time>
</trkpt>
<trkpt lat="45.9271510" lon="10.3120590">
	<ele>647.00</ele>
	<time>2025-04-29T11:04:11.000Z</time>
</trkpt>
<trkpt lat="45.9271330" lon="10.3120700">
	<ele>647.00</ele>
	<time>2025-04-29T11:04:12.000Z</time>
</trkpt>
<trkpt lat="45.9271170" lon="10.3120830">
	<ele>646.80</ele>
	<time>2025-04-29T11:04:13.000Z</time>
</trkpt>
<trkpt lat="45.9270960" lon="10.3120870">
	<ele>646.60</ele>
	<time>2025-04-29T11:04:14.000Z</time>
</trkpt>
<trkpt lat="45.9270890" lon="10.3120850">
	<ele>646.40</ele>
	<time>2025-04-29T11:04:15.000Z</time>
</trkpt>
<trkpt lat="45.9270800" lon="10.3120860">
	<ele>646.20</ele>
	<time>2025-04-29T11:04:16.000Z</time>
</trkpt>
<trkpt lat="45.9270720" lon="10.3120930">
	<ele>646.20</ele>
	<time>2025-04-29T11:04:17.000Z</time>
</trkpt>
<trkpt lat="45.9270590" lon="10.3121040">
	<ele>646.00</ele>
	<time>2025-04-29T11:04:18.000Z</time>
</trkpt>
<trkpt lat="45.9270500" lon="10.3121260">
	<ele>646.00</ele>
	<time>2025-04-29T11:04:19.000Z</time>
</trkpt>
<trkpt lat="45.9270420" lon="10.3121420">
	<ele>646.00</ele>
	<time>2025-04-29T11:04:20.000Z</time>
</trkpt>
<trkpt lat="45.9270450" lon="10.3121390">
	<ele>646.00</ele>
	<time>2025-04-29T11:04:21.000Z</time>
</trkpt>
<trkpt lat="45.9270470" lon="10.3121440">
	<ele>646.00</ele>
	<time>2025-04-29T11:04:22.000Z</time>
</trkpt>
<trkpt lat="45.9270440" lon="10.3121620">
	<ele>646.00</ele>
	<time>2025-04-29T11:04:23.000Z</time>
</trkpt>
<trkpt lat="45.9270300" lon="10.3121830">
	<ele>645.80</ele>
	<time>2025-04-29T11:04:24.000Z</time>
</trkpt>
<trkpt lat="45.9270240" lon="10.3122060">
	<ele>645.80</ele>
	<time>2025-04-29T11:04:25.000Z</time>
</trkpt>
<trkpt lat="45.9270210" lon="10.3122260">
	<ele>645.80</ele>
	<time>2025-04-29T11:04:26.000Z</time>
</trkpt>
<trkpt lat="45.9270200" lon="10.3122490">
	<ele>645.80</ele>
	<time>2025-04-29T11:04:27.000Z</time>
</trkpt>
<trkpt lat="45.9270220" lon="10.3122720">
	<ele>645.80</ele>
	<time>2025-04-29T11:04:28.000Z</time>
</trkpt>
<trkpt lat="45.9270220" lon="10.3122950">
	<ele>645.80</ele>
	<time>2025-04-29T11:04:29.000Z</time>
</trkpt>
<trkpt lat="45.9270220" lon="10.3123200">
	<ele>645.80</ele>
	<time>2025-04-29T11:04:30.000Z</time>
</trkpt>
<trkpt lat="45.9270240" lon="10.3123430">
	<ele>645.80</ele>
	<time>2025-04-29T11:04:31.000Z</time>
</trkpt>
<trkpt lat="45.9270260" lon="10.3123640">
	<ele>645.80</ele>
	<time>2025-04-29T11:04:32.000Z</time>
</trkpt>
<trkpt lat="45.9270290" lon="10.3123850">
	<ele>645.80</ele>
	<time>2025-04-29T11:04:33.000Z</time>
</trkpt>
<trkpt lat="45.9270370" lon="10.3124030">
	<ele>645.80</ele>
	<time>2025-04-29T11:04:34.000Z</time>
</trkpt>
<trkpt lat="45.9270420" lon="10.3124210">
	<ele>645.80</ele>
	<time>2025-04-29T11:04:35.000Z</time>
</trkpt>
<trkpt lat="45.9270470" lon="10.3124390">
	<ele>645.60</ele>
	<time>2025-04-29T11:04:36.000Z</time>
</trkpt>
<trkpt lat="45.9270580" lon="10.3124580">
	<ele>645.60</ele>
	<time>2025-04-29T11:04:37.000Z</time>
</trkpt>
<trkpt lat="45.9270720" lon="10.3124700">
	<ele>645.40</ele>
	<time>2025-04-29T11:04:38.000Z</time>
</trkpt>
<trkpt lat="45.9270820" lon="10.3124810">
	<ele>645.40</ele>
	<time>2025-04-29T11:04:39.000Z</time>
</trkpt>
<trkpt lat="45.9270950" lon="10.3124900">
	<ele>645.40</ele>
	<time>2025-04-29T11:04:40.000Z</time>
</trkpt>
<trkpt lat="45.9271080" lon="10.3124980">
	<ele>645.40</ele>
	<time>2025-04-29T11:04:41.000Z</time>
</trkpt>
<trkpt lat="45.9271210" lon="10.3125060">
	<ele>645.60</ele>
	<time>2025-04-29T11:04:42.000Z</time>
</trkpt>
<trkpt lat="45.9271340" lon="10.3125110">
	<ele>645.60</ele>
	<time>2025-04-29T11:04:43.000Z</time>
</trkpt>
<trkpt lat="45.9271500" lon="10.3125130">
	<ele>645.60</ele>
	<time>2025-04-29T11:04:44.000Z</time>
</trkpt>
<trkpt lat="45.9271650" lon="10.3125120">
	<ele>645.80</ele>
	<time>2025-04-29T11:04:45.000Z</time>
</trkpt>
<trkpt lat="45.9271790" lon="10.3125140">
	<ele>645.80</ele>
	<time>2025-04-29T11:04:46.000Z</time>
</trkpt>
<trkpt lat="45.9271900" lon="10.3125200">
	<ele>645.80</ele>
	<time>2025-04-29T11:04:47.000Z</time>
</trkpt>
<trkpt lat="45.9272020" lon="10.3125300">
	<ele>645.80</ele>
	<time>2025-04-29T11:04:48.000Z</time>
</trkpt>
<trkpt lat="45.9272120" lon="10.3125410">
	<ele>645.80</ele>
	<time>2025-04-29T11:04:49.000Z</time>
</trkpt>
<trkpt lat="45.9272220" lon="10.3125550">
	<ele>645.80</ele>
	<time>2025-04-29T11:04:50.000Z</time>
</trkpt>
<trkpt lat="45.9272340" lon="10.3125680">
	<ele>646.00</ele>
	<time>2025-04-29T11:04:51.000Z</time>
</trkpt>
<trkpt lat="45.9272450" lon="10.3125810">
	<ele>646.00</ele>
	<time>2025-04-29T11:04:52.000Z</time>
</trkpt>
<trkpt lat="45.9272590" lon="10.3125880">
	<ele>646.00</ele>
	<time>2025-04-29T11:04:53.000Z</time>
</trkpt>
<trkpt lat="45.9272720" lon="10.3125990">
	<ele>646.00</ele>
	<time>2025-04-29T11:04:54.000Z</time>
</trkpt>
<trkpt lat="45.9272840" lon="10.3126130">
	<ele>646.20</ele>
	<time>2025-04-29T11:04:55.000Z</time>
</trkpt>
<trkpt lat="45.9272910" lon="10.3126340">
	<ele>646.20</ele>
	<time>2025-04-29T11:04:56.000Z</time>
</trkpt>
<trkpt lat="45.9272960" lon="10.3126500">
	<ele>646.20</ele>
	<time>2025-04-29T11:04:57.000Z</time>
</trkpt>
<trkpt lat="45.9273020" lon="10.3126730">
	<ele>646.20</ele>
	<time>2025-04-29T11:04:58.000Z</time>
</trkpt>
<trkpt lat="45.9273050" lon="10.3126890">
	<ele>646.20</ele>
	<time>2025-04-29T11:04:59.000Z</time>
</trkpt>
<trkpt lat="45.9273090" lon="10.3127060">
	<ele>646.20</ele>
	<time>2025-04-29T11:05:00.000Z</time>
</trkpt>
<trkpt lat="45.9273100" lon="10.3127260">
	<ele>646.20</ele>
	<time>2025-04-29T11:05:01.000Z</time>
</trkpt>
<trkpt lat="45.9273110" lon="10.3127490">
	<ele>646.20</ele>
	<time>2025-04-29T11:05:02.000Z</time>
</trkpt>
<trkpt lat="45.9273080" lon="10.3127700">
	<ele>646.20</ele>
	<time>2025-04-29T11:05:03.000Z</time>
</trkpt>
<trkpt lat="45.9273070" lon="10.3127890">
	<ele>646.00</ele>
	<time>2025-04-29T11:05:04.000Z</time>
</trkpt>
<trkpt lat="45.9273070" lon="10.3128090">
	<ele>646.00</ele>
	<time>2025-04-29T11:05:05.000Z</time>
</trkpt>
<trkpt lat="45.9273050" lon="10.3128310">
	<ele>645.80</ele>
	<time>2025-04-29T11:05:06.000Z</time>
</trkpt>
<trkpt lat="45.9273030" lon="10.3128490">
	<ele>645.60</ele>
	<time>2025-04-29T11:05:07.000Z</time>
</trkpt>
<trkpt lat="45.9272980" lon="10.3128650">
	<ele>645.40</ele>
	<time>2025-04-29T11:05:08.000Z</time>
</trkpt>
<trkpt lat="45.9272930" lon="10.3128880">
	<ele>645.20</ele>
	<time>2025-04-29T11:05:09.000Z</time>
</trkpt>
<trkpt lat="45.9272880" lon="10.3129070">
	<ele>644.80</ele>
	<time>2025-04-29T11:05:10.000Z</time>
</trkpt>
<trkpt lat="45.9272820" lon="10.3129260">
	<ele>644.60</ele>
	<time>2025-04-29T11:05:11.000Z</time>
</trkpt>
<trkpt lat="45.9272730" lon="10.3129420">
	<ele>644.40</ele>
	<time>2025-04-29T11:05:12.000Z</time>
</trkpt>
<trkpt lat="45.9272690" lon="10.3129600">
	<ele>644.00</ele>
	<time>2025-04-29T11:05:13.000Z</time>
</trkpt>
<trkpt lat="45.9272680" lon="10.3129800">
	<ele>643.60</ele>
	<time>2025-04-29T11:05:14.000Z</time>
</trkpt>
<trkpt lat="45.9272680" lon="10.3129960">
	<ele>643.40</ele>
	<time>2025-04-29T11:05:15.000Z</time>
</trkpt>
<trkpt lat="45.9272720" lon="10.3130180">
	<ele>643.40</ele>
	<time>2025-04-29T11:05:16.000Z</time>
</trkpt>
<trkpt lat="45.9272790" lon="10.3130400">
	<ele>643.20</ele>
	<time>2025-04-29T11:05:17.000Z</time>
</trkpt>
<trkpt lat="45.9272860" lon="10.3130570">
	<ele>643.00</ele>
	<time>2025-04-29T11:05:18.000Z</time>
</trkpt>
<trkpt lat="45.9272900" lon="10.3130760">
	<ele>643.00</ele>
	<time>2025-04-29T11:05:19.000Z</time>
</trkpt>
<trkpt lat="45.9272930" lon="10.3130980">
	<ele>642.80</ele>
	<time>2025-04-29T11:05:20.000Z</time>
</trkpt>
<trkpt lat="45.9272900" lon="10.3131210">
	<ele>642.80</ele>
	<time>2025-04-29T11:05:21.000Z</time>
</trkpt>
<trkpt lat="45.9272960" lon="10.3131390">
	<ele>642.80</ele>
	<time>2025-04-29T11:05:22.000Z</time>
</trkpt>
<trkpt lat="45.9273060" lon="10.3131540">
	<ele>642.80</ele>
	<time>2025-04-29T11:05:23.000Z</time>
</trkpt>
<trkpt lat="45.9273160" lon="10.3131690">
	<ele>642.80</ele>
	<time>2025-04-29T11:05:24.000Z</time>
</trkpt>
<trkpt lat="45.9273270" lon="10.3131820">
	<ele>642.80</ele>
	<time>2025-04-29T11:05:25.000Z</time>
</trkpt>
<trkpt lat="45.9273380" lon="10.3131940">
	<ele>642.80</ele>
	<time>2025-04-29T11:05:26.000Z</time>
</trkpt>
<trkpt lat="45.9273500" lon="10.3132030">
	<ele>642.80</ele>
	<time>2025-04-29T11:05:27.000Z</time>
</trkpt>
<trkpt lat="45.9273600" lon="10.3132140">
	<ele>642.80</ele>
	<time>2025-04-29T11:05:28.000Z</time>
</trkpt>
<trkpt lat="45.9273730" lon="10.3132200">
	<ele>642.80</ele>
	<time>2025-04-29T11:05:29.000Z</time>
</trkpt>
<trkpt lat="45.9273900" lon="10.3132280">
	<ele>642.80</ele>
	<time>2025-04-29T11:05:30.000Z</time>
</trkpt>
<trkpt lat="45.9274070" lon="10.3132310">
	<ele>642.80</ele>
	<time>2025-04-29T11:05:31.000Z</time>
</trkpt>
<trkpt lat="45.9274230" lon="10.3132320">
	<ele>642.80</ele>
	<time>2025-04-29T11:05:32.000Z</time>
</trkpt>
<trkpt lat="45.9274390" lon="10.3132340">
	<ele>642.60</ele>
	<time>2025-04-29T11:05:33.000Z</time>
</trkpt>
<trkpt lat="45.9274540" lon="10.3132360">
	<ele>642.60</ele>
	<time>2025-04-29T11:05:34.000Z</time>
</trkpt>
<trkpt lat="45.9274680" lon="10.3132390">
	<ele>642.40</ele>
	<time>2025-04-29T11:05:35.000Z</time>
</trkpt>
<trkpt lat="45.9274820" lon="10.3132470">
	<ele>642.40</ele>
	<time>2025-04-29T11:05:36.000Z</time>
</trkpt>
<trkpt lat="45.9274950" lon="10.3132540">
	<ele>642.40</ele>
	<time>2025-04-29T11:05:37.000Z</time>
</trkpt>
<trkpt lat="45.9275080" lon="10.3132560">
	<ele>642.40</ele>
	<time>2025-04-29T11:05:38.000Z</time>
</trkpt>
<trkpt lat="45.9275220" lon="10.3132570">
	<ele>642.40</ele>
	<time>2025-04-29T11:05:39.000Z</time>
</trkpt>
<trkpt lat="45.9275360" lon="10.3132540">
	<ele>642.40</ele>
	<time>2025-04-29T11:05:40.000Z</time>
</trkpt>
<trkpt lat="45.9275510" lon="10.3132480">
	<ele>642.40</ele>
	<time>2025-04-29T11:05:41.000Z</time>
</trkpt>
<trkpt lat="45.9275640" lon="10.3132490">
	<ele>642.40</ele>
	<time>2025-04-29T11:05:42.000Z</time>
</trkpt>
<trkpt lat="45.9275780" lon="10.3132520">
	<ele>642.60</ele>
	<time>2025-04-29T11:05:43.000Z</time>
</trkpt>
<trkpt lat="45.9275920" lon="10.3132570">
	<ele>642.60</ele>
	<time>2025-04-29T11:05:44.000Z</time>
</trkpt>
<trkpt lat="45.9276050" lon="10.3132600">
	<ele>642.80</ele>
	<time>2025-04-29T11:05:45.000Z</time>
</trkpt>
<trkpt lat="45.9276170" lon="10.3132700">
	<ele>642.80</ele>
	<time>2025-04-29T11:05:46.000Z</time>
</trkpt>
<trkpt lat="45.9276260" lon="10.3132810">
	<ele>643.00</ele>
	<time>2025-04-29T11:05:47.000Z</time>
</trkpt>
<trkpt lat="45.9276360" lon="10.3132950">
	<ele>643.20</ele>
	<time>2025-04-29T11:05:48.000Z</time>
</trkpt>
<trkpt lat="45.9276420" lon="10.3133050">
	<ele>643.40</ele>
	<time>2025-04-29T11:05:49.000Z</time>
</trkpt>
<trkpt lat="45.9276460" lon="10.3133240">
	<ele>643.60</ele>
	<time>2025-04-29T11:05:50.000Z</time>
</trkpt>
<trkpt lat="45.9276460" lon="10.3133400">
	<ele>643.80</ele>
	<time>2025-04-29T11:05:51.000Z</time>
</trkpt>
<trkpt lat="45.9276500" lon="10.3133550">
	<ele>643.80</ele>
	<time>2025-04-29T11:05:52.000Z</time>
</trkpt>
<trkpt lat="45.9276560" lon="10.3133760">
	<ele>644.00</ele>
	<time>2025-04-29T11:05:53.000Z</time>
</trkpt>
<trkpt lat="45.9276650" lon="10.3133860">
	<ele>644.20</ele>
	<time>2025-04-29T11:05:54.000Z</time>
</trkpt>
<trkpt lat="45.9276710" lon="10.3133980">
	<ele>644.40</ele>
	<time>2025-04-29T11:05:55.000Z</time>
</trkpt>
<trkpt lat="45.9276770" lon="10.3134190">
	<ele>644.60</ele>
	<time>2025-04-29T11:05:56.000Z</time>
</trkpt>
<trkpt lat="45.9276840" lon="10.3134360">
	<ele>644.80</ele>
	<time>2025-04-29T11:05:57.000Z</time>
</trkpt>
<trkpt lat="45.9276910" lon="10.3134420">
	<ele>645.00</ele>
	<time>2025-04-29T11:05:58.000Z</time>
</trkpt>
<trkpt lat="45.9277110" lon="10.3134410">
	<ele>645.20</ele>
	<time>2025-04-29T11:05:59.000Z</time>
</trkpt>
<trkpt lat="45.9277280" lon="10.3134450">
	<ele>645.40</ele>
	<time>2025-04-29T11:06:00.000Z</time>
</trkpt>
<trkpt lat="45.9277580" lon="10.3134490">
	<ele>645.60</ele>
	<time>2025-04-29T11:06:01.000Z</time>
</trkpt>
<trkpt lat="45.9277770" lon="10.3134610">
	<ele>646.00</ele>
	<time>2025-04-29T11:06:02.000Z</time>
</trkpt>
<trkpt lat="45.9277990" lon="10.3134810">
	<ele>646.20</ele>
	<time>2025-04-29T11:06:03.000Z</time>
</trkpt>
<trkpt lat="45.9277960" lon="10.3134870">
	<ele>646.40</ele>
	<time>2025-04-29T11:06:04.000Z</time>
</trkpt>
<trkpt lat="45.9277950" lon="10.3134910">
	<ele>646.80</ele>
	<time>2025-04-29T11:06:05.000Z</time>
</trkpt>
<trkpt lat="45.9277810" lon="10.3135060">
	<ele>647.00</ele>
	<time>2025-04-29T11:06:06.000Z</time>
</trkpt>
<trkpt lat="45.9277760" lon="10.3135270">
	<ele>647.20</ele>
	<time>2025-04-29T11:06:07.000Z</time>
</trkpt>
<trkpt lat="45.9277700" lon="10.3135440">
	<ele>647.40</ele>
	<time>2025-04-29T11:06:08.000Z</time>
</trkpt>
<trkpt lat="45.9277640" lon="10.3135620">
	<ele>647.60</ele>
	<time>2025-04-29T11:06:09.000Z</time>
</trkpt>
<trkpt lat="45.9277630" lon="10.3135690">
	<ele>648.00</ele>
	<time>2025-04-29T11:06:10.000Z</time>
</trkpt>
<trkpt lat="45.9277590" lon="10.3135800">
	<ele>648.20</ele>
	<time>2025-04-29T11:06:11.000Z</time>
</trkpt>
<trkpt lat="45.9277640" lon="10.3135990">
	<ele>648.40</ele>
	<time>2025-04-29T11:06:12.000Z</time>
</trkpt>
<trkpt lat="45.9277570" lon="10.3136120">
	<ele>648.60</ele>
	<time>2025-04-29T11:06:13.000Z</time>
</trkpt>
<trkpt lat="45.9277530" lon="10.3136290">
	<ele>648.80</ele>
	<time>2025-04-29T11:06:14.000Z</time>
</trkpt>
<trkpt lat="45.9277480" lon="10.3136410">
	<ele>649.00</ele>
	<time>2025-04-29T11:06:15.000Z</time>
</trkpt>
<trkpt lat="45.9277600" lon="10.3136420">
	<ele>649.20</ele>
	<time>2025-04-29T11:06:16.000Z</time>
</trkpt>
<trkpt lat="45.9277710" lon="10.3136450">
	<ele>649.60</ele>
	<time>2025-04-29T11:06:17.000Z</time>
</trkpt>
<trkpt lat="45.9277790" lon="10.3136320">
	<ele>649.80</ele>
	<time>2025-04-29T11:06:18.000Z</time>
</trkpt>
<trkpt lat="45.9277890" lon="10.3136360">
	<ele>650.00</ele>
	<time>2025-04-29T11:06:19.000Z</time>
</trkpt>
<trkpt lat="45.9277970" lon="10.3136320">
	<ele>650.00</ele>
	<time>2025-04-29T11:06:20.000Z</time>
</trkpt>
<trkpt lat="45.9278130" lon="10.3136330">
	<ele>650.20</ele>
	<time>2025-04-29T11:06:21.000Z</time>
</trkpt>
<trkpt lat="45.9278270" lon="10.3136260">
	<ele>650.20</ele>
	<time>2025-04-29T11:06:22.000Z</time>
</trkpt>
<trkpt lat="45.9278450" lon="10.3136320">
	<ele>650.40</ele>
	<time>2025-04-29T11:06:23.000Z</time>
</trkpt>
<trkpt lat="45.9278610" lon="10.3136310">
	<ele>650.40</ele>
	<time>2025-04-29T11:06:24.000Z</time>
</trkpt>
<trkpt lat="45.9278760" lon="10.3136310">
	<ele>650.40</ele>
	<time>2025-04-29T11:06:25.000Z</time>
</trkpt>
<trkpt lat="45.9278880" lon="10.3136330">
	<ele>650.40</ele>
	<time>2025-04-29T11:06:26.000Z</time>
</trkpt>
<trkpt lat="45.9278980" lon="10.3136460">
	<ele>650.40</ele>
	<time>2025-04-29T11:06:27.000Z</time>
</trkpt>
<trkpt lat="45.9279060" lon="10.3136560">
	<ele>650.20</ele>
	<time>2025-04-29T11:06:28.000Z</time>
</trkpt>
<trkpt lat="45.9279190" lon="10.3136630">
	<ele>650.00</ele>
	<time>2025-04-29T11:06:29.000Z</time>
</trkpt>
<trkpt lat="45.9278830" lon="10.3136540">
	<ele>650.00</ele>
	<time>2025-04-29T11:06:30.000Z</time>
</trkpt>
<trkpt lat="45.9278810" lon="10.3136370">
	<ele>649.80</ele>
	<time>2025-04-29T11:06:31.000Z</time>
</trkpt>
<trkpt lat="45.9278790" lon="10.3136340">
	<ele>649.60</ele>
	<time>2025-04-29T11:06:32.000Z</time>
</trkpt>
<trkpt lat="45.9278780" lon="10.3136160">
	<ele>649.60</ele>
	<time>2025-04-29T11:06:33.000Z</time>
</trkpt>
<trkpt lat="45.9278720" lon="10.3135890">
	<ele>649.60</ele>
	<time>2025-04-29T11:06:34.000Z</time>
</trkpt>
<trkpt lat="45.9278670" lon="10.3135620">
	<ele>649.60</ele>
	<time>2025-04-29T11:06:35.000Z</time>
</trkpt>
<trkpt lat="45.9278620" lon="10.3135420">
	<ele>649.80</ele>
	<time>2025-04-29T11:06:36.000Z</time>
</trkpt>
<trkpt lat="45.9278550" lon="10.3135200">
	<ele>649.80</ele>
	<time>2025-04-29T11:06:37.000Z</time>
</trkpt>
<trkpt lat="45.9278490" lon="10.3135050">
	<ele>649.80</ele>
	<time>2025-04-29T11:06:38.000Z</time>
</trkpt>
<trkpt lat="45.9278370" lon="10.3134720">
	<ele>649.80</ele>
	<time>2025-04-29T11:06:39.000Z</time>
</trkpt>
<trkpt lat="45.9278190" lon="10.3134250">
	<ele>649.80</ele>
	<time>2025-04-29T11:06:40.000Z</time>
</trkpt>
<trkpt lat="45.9278020" lon="10.3133800">
	<ele>649.80</ele>
	<time>2025-04-29T11:06:41.000Z</time>
</trkpt>
<trkpt lat="45.9277910" lon="10.3133480">
	<ele>649.80</ele>
	<time>2025-04-29T11:06:42.000Z</time>
</trkpt>
<trkpt lat="45.9277870" lon="10.3133260">
	<ele>649.80</ele>
	<time>2025-04-29T11:06:43.000Z</time>
</trkpt>
<trkpt lat="45.9277850" lon="10.3132890">
	<ele>649.80</ele>
	<time>2025-04-29T11:06:44.000Z</time>
</trkpt>
<trkpt lat="45.9277820" lon="10.3132560">
	<ele>649.60</ele>
	<time>2025-04-29T11:06:45.000Z</time>
</trkpt>
<trkpt lat="45.9277890" lon="10.3132490">
	<ele>649.40</ele>
	<time>2025-04-29T11:06:46.000Z</time>
</trkpt>
<trkpt lat="45.9277980" lon="10.3132430">
	<ele>649.40</ele>
	<time>2025-04-29T11:06:47.000Z</time>
</trkpt>
<trkpt lat="45.9278180" lon="10.3132430">
	<ele>649.40</ele>
	<time>2025-04-29T11:06:48.000Z</time>
</trkpt>
<trkpt lat="45.9278320" lon="10.3132440">
	<ele>649.20</ele>
	<time>2025-04-29T11:06:49.000Z</time>
</trkpt>
<trkpt lat="45.9278490" lon="10.3132490">
	<ele>649.20</ele>
	<time>2025-04-29T11:06:50.000Z</time>
</trkpt>
<trkpt lat="45.9278670" lon="10.3132550">
	<ele>649.20</ele>
	<time>2025-04-29T11:06:51.000Z</time>
</trkpt>
<trkpt lat="45.9278680" lon="10.3132270">
	<ele>649.00</ele>
	<time>2025-04-29T11:06:52.000Z</time>
</trkpt>
<trkpt lat="45.9278620" lon="10.3131970">
	<ele>649.00</ele>
	<time>2025-04-29T11:06:53.000Z</time>
</trkpt>
<trkpt lat="45.9278670" lon="10.3131860">
	<ele>648.80</ele>
	<time>2025-04-29T11:06:54.000Z</time>
</trkpt>
<trkpt lat="45.9278810" lon="10.3131820">
	<ele>648.60</ele>
	<time>2025-04-29T11:06:55.000Z</time>
</trkpt>
<trkpt lat="45.9278930" lon="10.3131800">
	<ele>648.60</ele>
	<time>2025-04-29T11:06:56.000Z</time>
</trkpt>
<trkpt lat="45.9279070" lon="10.3131900">
	<ele>648.60</ele>
	<time>2025-04-29T11:06:57.000Z</time>
</trkpt>
<trkpt lat="45.9279200" lon="10.3131920">
	<ele>648.40</ele>
	<time>2025-04-29T11:06:58.000Z</time>
</trkpt>
<trkpt lat="45.9279220" lon="10.3131870">
	<ele>648.40</ele>
	<time>2025-04-29T11:06:59.000Z</time>
</trkpt>
<trkpt lat="45.9279500" lon="10.3132230">
	<ele>648.40</ele>
	<time>2025-04-29T11:07:00.000Z</time>
</trkpt>
<trkpt lat="45.9279860" lon="10.3132690">
	<ele>648.40</ele>
	<time>2025-04-29T11:07:01.000Z</time>
</trkpt>
<trkpt lat="45.9280210" lon="10.3133040">
	<ele>648.20</ele>
	<time>2025-04-29T11:07:02.000Z</time>
</trkpt>
<trkpt lat="45.9280560" lon="10.3133410">
	<ele>648.20</ele>
	<time>2025-04-29T11:07:03.000Z</time>
</trkpt>
<trkpt lat="45.9280860" lon="10.3133730">
	<ele>648.00</ele>
	<time>2025-04-29T11:07:04.000Z</time>
</trkpt>
<trkpt lat="45.9281050" lon="10.3134050">
	<ele>648.00</ele>
	<time>2025-04-29T11:07:05.000Z</time>
</trkpt>
<trkpt lat="45.9281270" lon="10.3134360">
	<ele>648.00</ele>
	<time>2025-04-29T11:07:06.000Z</time>
</trkpt>
<trkpt lat="45.9281480" lon="10.3134730">
	<ele>647.80</ele>
	<time>2025-04-29T11:07:07.000Z</time>
</trkpt>
<trkpt lat="45.9281690" lon="10.3134960">
	<ele>647.80</ele>
	<time>2025-04-29T11:07:08.000Z</time>
</trkpt>
<trkpt lat="45.9281930" lon="10.3135150">
	<ele>647.80</ele>
	<time>2025-04-29T11:07:09.000Z</time>
</trkpt>
<trkpt lat="45.9282170" lon="10.3135490">
	<ele>647.40</ele>
	<time>2025-04-29T11:07:10.000Z</time>
</trkpt>
<trkpt lat="45.9282470" lon="10.3135970">
	<ele>647.40</ele>
	<time>2025-04-29T11:07:11.000Z</time>
</trkpt>
<trkpt lat="45.9282790" lon="10.3136380">
	<ele>647.20</ele>
	<time>2025-04-29T11:07:12.000Z</time>
</trkpt>
<trkpt lat="45.9283040" lon="10.3136760">
	<ele>647.00</ele>
	<time>2025-04-29T11:07:13.000Z</time>
</trkpt>
<trkpt lat="45.9283320" lon="10.3137090">
	<ele>647.00</ele>
	<time>2025-04-29T11:07:14.000Z</time>
</trkpt>
<trkpt lat="45.9283610" lon="10.3137360">
	<ele>647.00</ele>
	<time>2025-04-29T11:07:15.000Z</time>
</trkpt>
<trkpt lat="45.9283860" lon="10.3137640">
	<ele>646.80</ele>
	<time>2025-04-29T11:07:16.000Z</time>
</trkpt>
<trkpt lat="45.9283930" lon="10.3137730">
	<ele>646.80</ele>
	<time>2025-04-29T11:07:17.000Z</time>
</trkpt>
<trkpt lat="45.9284080" lon="10.3137860">
	<ele>646.60</ele>
	<time>2025-04-29T11:07:18.000Z</time>
</trkpt>
<trkpt lat="45.9284280" lon="10.3137950">
	<ele>646.40</ele>
	<time>2025-04-29T11:07:19.000Z</time>
</trkpt>
<trkpt lat="45.9284480" lon="10.3137890">
	<ele>646.20</ele>
	<time>2025-04-29T11:07:20.000Z</time>
</trkpt>
<trkpt lat="45.9284670" lon="10.3137800">
	<ele>646.20</ele>
	<time>2025-04-29T11:07:21.000Z</time>
</trkpt>
<trkpt lat="45.9284920" lon="10.3137890">
	<ele>646.00</ele>
	<time>2025-04-29T11:07:22.000Z</time>
</trkpt>
<trkpt lat="45.9285180" lon="10.3137950">
	<ele>645.80</ele>
	<time>2025-04-29T11:07:23.000Z</time>
</trkpt>
<trkpt lat="45.9285360" lon="10.3137890">
	<ele>645.80</ele>
	<time>2025-04-29T11:07:24.000Z</time>
</trkpt>
<trkpt lat="45.9285540" lon="10.3137890">
	<ele>645.60</ele>
	<time>2025-04-29T11:07:25.000Z</time>
</trkpt>
<trkpt lat="45.9285730" lon="10.3137820">
	<ele>645.40</ele>
	<time>2025-04-29T11:07:26.000Z</time>
</trkpt>
<trkpt lat="45.9285890" lon="10.3137700">
	<ele>645.40</ele>
	<time>2025-04-29T11:07:27.000Z</time>
</trkpt>
<trkpt lat="45.9286030" lon="10.3137610">
	<ele>645.20</ele>
	<time>2025-04-29T11:07:28.000Z</time>
</trkpt>
<trkpt lat="45.9286180" lon="10.3137460">
	<ele>645.00</ele>
	<time>2025-04-29T11:07:29.000Z</time>
</trkpt>
<trkpt lat="45.9286260" lon="10.3137290">
	<ele>644.80</ele>
	<time>2025-04-29T11:07:30.000Z</time>
</trkpt>
<trkpt lat="45.9286320" lon="10.3137150">
	<ele>644.80</ele>
	<time>2025-04-29T11:07:31.000Z</time>
</trkpt>
<trkpt lat="45.9286400" lon="10.3137060">
	<ele>644.60</ele>
	<time>2025-04-29T11:07:32.000Z</time>
</trkpt>
<trkpt lat="45.9286540" lon="10.3137040">
	<ele>644.40</ele>
	<time>2025-04-29T11:07:33.000Z</time>
</trkpt>
<trkpt lat="45.9286600" lon="10.3136760">
	<ele>644.20</ele>
	<time>2025-04-29T11:07:34.000Z</time>
</trkpt>
<trkpt lat="45.9286660" lon="10.3136580">
	<ele>644.20</ele>
	<time>2025-04-29T11:07:35.000Z</time>
</trkpt>
<trkpt lat="45.9286700" lon="10.3136450">
	<ele>644.00</ele>
	<time>2025-04-29T11:07:36.000Z</time>
</trkpt>
<trkpt lat="45.9286830" lon="10.3136400">
	<ele>643.80</ele>
	<time>2025-04-29T11:07:37.000Z</time>
</trkpt>
<trkpt lat="45.9287020" lon="10.3136590">
	<ele>643.60</ele>
	<time>2025-04-29T11:07:38.000Z</time>
</trkpt>
<trkpt lat="45.9287110" lon="10.3136610">
	<ele>643.60</ele>
	<time>2025-04-29T11:07:39.000Z</time>
</trkpt>
<trkpt lat="45.9287340" lon="10.3136750">
	<ele>643.40</ele>
	<time>2025-04-29T11:07:40.000Z</time>
</trkpt>
<trkpt lat="45.9287570" lon="10.3136920">
	<ele>643.20</ele>
	<time>2025-04-29T11:07:41.000Z</time>
</trkpt>
<trkpt lat="45.9287800" lon="10.3137040">
	<ele>643.20</ele>
	<time>2025-04-29T11:07:42.000Z</time>
</trkpt>
<trkpt lat="45.9287930" lon="10.3137000">
	<ele>643.00</ele>
	<time>2025-04-29T11:07:43.000Z</time>
</trkpt>
<trkpt lat="45.9288050" lon="10.3136980">
	<ele>643.00</ele>
	<time>2025-04-29T11:07:44.000Z</time>
</trkpt>
<trkpt lat="45.9288120" lon="10.3136850">
	<ele>642.80</ele>
	<time>2025-04-29T11:07:45.000Z</time>
</trkpt>
<trkpt lat="45.9288180" lon="10.3136740">
	<ele>642.80</ele>
	<time>2025-04-29T11:07:46.000Z</time>
</trkpt>
<trkpt lat="45.9288220" lon="10.3136460">
	<ele>642.80</ele>
	<time>2025-04-29T11:07:47.000Z</time>
</trkpt>
<trkpt lat="45.9288300" lon="10.3136310">
	<ele>642.60</ele>
	<time>2025-04-29T11:07:48.000Z</time>
</trkpt>
<trkpt lat="45.9288400" lon="10.3136160">
	<ele>642.60</ele>
	<time>2025-04-29T11:07:49.000Z</time>
</trkpt>
<trkpt lat="45.9288530" lon="10.3136150">
	<ele>642.60</ele>
	<time>2025-04-29T11:07:50.000Z</time>
</trkpt>
<trkpt lat="45.9288660" lon="10.3136200">
	<ele>642.40</ele>
	<time>2025-04-29T11:07:51.000Z</time>
</trkpt>
<trkpt lat="45.9288870" lon="10.3136310">
	<ele>642.20</ele>
	<time>2025-04-29T11:07:52.000Z</time>
</trkpt>
<trkpt lat="45.9289050" lon="10.3136300">
	<ele>642.20</ele>
	<time>2025-04-29T11:07:53.000Z</time>
</trkpt>
<trkpt lat="45.9289260" lon="10.3136370">
	<ele>642.20</ele>
	<time>2025-04-29T11:07:54.000Z</time>
</trkpt>
<trkpt lat="45.9289420" lon="10.3136440">
	<ele>642.20</ele>
	<time>2025-04-29T11:07:55.000Z</time>
</trkpt>
<trkpt lat="45.9289760" lon="10.3136950">
	<ele>642.20</ele>
	<time>2025-04-29T11:07:56.000Z</time>
</trkpt>
<trkpt lat="45.9290120" lon="10.3138230">
	<ele>642.20</ele>
	<time>2025-04-29T11:07:57.000Z</time>
</trkpt>
<trkpt lat="45.9290320" lon="10.3137770">
	<ele>642.20</ele>
	<time>2025-04-29T11:07:58.000Z</time>
</trkpt>
<trkpt lat="45.9290460" lon="10.3137800">
	<ele>642.00</ele>
	<time>2025-04-29T11:07:59.000Z</time>
</trkpt>
<trkpt lat="45.9290580" lon="10.3137660">
	<ele>641.80</ele>
	<time>2025-04-29T11:08:00.000Z</time>
</trkpt>
<trkpt lat="45.9290690" lon="10.3137460">
	<ele>641.80</ele>
	<time>2025-04-29T11:08:01.000Z</time>
</trkpt>
<trkpt lat="45.9290830" lon="10.3137350">
	<ele>641.60</ele>
	<time>2025-04-29T11:08:02.000Z</time>
</trkpt>
<trkpt lat="45.9290920" lon="10.3137260">
	<ele>641.60</ele>
	<time>2025-04-29T11:08:03.000Z</time>
</trkpt>
<trkpt lat="45.9291030" lon="10.3137160">
	<ele>641.40</ele>
	<time>2025-04-29T11:08:04.000Z</time>
</trkpt>
<trkpt lat="45.9291170" lon="10.3137090">
	<ele>641.40</ele>
	<time>2025-04-29T11:08:05.000Z</time>
</trkpt>
<trkpt lat="45.9291340" lon="10.3137030">
	<ele>641.40</ele>
	<time>2025-04-29T11:08:06.000Z</time>
</trkpt>
<trkpt lat="45.9291440" lon="10.3137000">
	<ele>641.40</ele>
	<time>2025-04-29T11:08:07.000Z</time>
</trkpt>
<trkpt lat="45.9291530" lon="10.3136890">
	<ele>641.40</ele>
	<time>2025-04-29T11:08:08.000Z</time>
</trkpt>
<trkpt lat="45.9291560" lon="10.3136770">
	<ele>641.20</ele>
	<time>2025-04-29T11:08:09.000Z</time>
</trkpt>
<trkpt lat="45.9291590" lon="10.3136740">
	<ele>641.20</ele>
	<time>2025-04-29T11:08:10.000Z</time>
</trkpt>
<trkpt lat="45.9291580" lon="10.3136780">
	<ele>641.20</ele>
	<time>2025-04-29T11:08:11.000Z</time>
</trkpt>
<trkpt lat="45.9291580" lon="10.3136700">
	<ele>641.20</ele>
	<time>2025-04-29T11:08:12.000Z</time>
</trkpt>
<trkpt lat="45.9291680" lon="10.3136760">
	<ele>641.20</ele>
	<time>2025-04-29T11:08:13.000Z</time>
</trkpt>
<trkpt lat="45.9291820" lon="10.3136840">
	<ele>641.20</ele>
	<time>2025-04-29T11:08:14.000Z</time>
</trkpt>
<trkpt lat="45.9291920" lon="10.3136840">
	<ele>641.00</ele>
	<time>2025-04-29T11:08:15.000Z</time>
</trkpt>
<trkpt lat="45.9292060" lon="10.3136730">
	<ele>641.00</ele>
	<time>2025-04-29T11:08:16.000Z</time>
</trkpt>
<trkpt lat="45.9292240" lon="10.3136690">
	<ele>641.00</ele>
	<time>2025-04-29T11:08:17.000Z</time>
</trkpt>
<trkpt lat="45.9292430" lon="10.3136630">
	<ele>641.00</ele>
	<time>2025-04-29T11:08:18.000Z</time>
</trkpt>
<trkpt lat="45.9292500" lon="10.3136430">
	<ele>641.00</ele>
	<time>2025-04-29T11:08:19.000Z</time>
</trkpt>
<trkpt lat="45.9292610" lon="10.3136330">
	<ele>640.80</ele>
	<time>2025-04-29T11:08:20.000Z</time>
</trkpt>
<trkpt lat="45.9292990" lon="10.3136500">
	<ele>640.80</ele>
	<time>2025-04-29T11:08:21.000Z</time>
</trkpt>
<trkpt lat="45.9293230" lon="10.3136660">
	<ele>640.80</ele>
	<time>2025-04-29T11:08:22.000Z</time>
</trkpt>
<trkpt lat="45.9293450" lon="10.3136840">
	<ele>640.80</ele>
	<time>2025-04-29T11:08:23.000Z</time>
</trkpt>
<trkpt lat="45.9293560" lon="10.3136950">
	<ele>640.80</ele>
	<time>2025-04-29T11:08:24.000Z</time>
</trkpt>
<trkpt lat="45.9293650" lon="10.3137040">
	<ele>640.80</ele>
	<time>2025-04-29T11:08:25.000Z</time>
</trkpt>
<trkpt lat="45.9293720" lon="10.3137050">
	<ele>640.80</ele>
	<time>2025-04-29T11:08:26.000Z</time>
</trkpt>
<trkpt lat="45.9293830" lon="10.3136920">
	<ele>640.80</ele>
	<time>2025-04-29T11:08:27.000Z</time>
</trkpt>
<trkpt lat="45.9293930" lon="10.3136840">
	<ele>640.60</ele>
	<time>2025-04-29T11:08:28.000Z</time>
</trkpt>
<trkpt lat="45.9294000" lon="10.3136770">
	<ele>640.60</ele>
	<time>2025-04-29T11:08:29.000Z</time>
</trkpt>
<trkpt lat="45.9294100" lon="10.3136740">
	<ele>640.60</ele>
	<time>2025-04-29T11:08:30.000Z</time>
</trkpt>
<trkpt lat="45.9294200" lon="10.3136670">
	<ele>640.40</ele>
	<time>2025-04-29T11:08:31.000Z</time>
</trkpt>
<trkpt lat="45.9294410" lon="10.3136870">
	<ele>640.40</ele>
	<time>2025-04-29T11:08:32.000Z</time>
</trkpt>
<trkpt lat="45.9294590" lon="10.3137000">
	<ele>640.40</ele>
	<time>2025-04-29T11:08:33.000Z</time>
</trkpt>
<trkpt lat="45.9294710" lon="10.3137110">
	<ele>640.40</ele>
	<time>2025-04-29T11:08:34.000Z</time>
</trkpt>
<trkpt lat="45.9294800" lon="10.3137060">
	<ele>640.40</ele>
	<time>2025-04-29T11:08:35.000Z</time>
</trkpt>
<trkpt lat="45.9294920" lon="10.3137090">
	<ele>640.20</ele>
	<time>2025-04-29T11:08:36.000Z</time>
</trkpt>
<trkpt lat="45.9295050" lon="10.3137290">
	<ele>640.20</ele>
	<time>2025-04-29T11:08:37.000Z</time>
</trkpt>
<trkpt lat="45.9295160" lon="10.3137470">
	<ele>640.20</ele>
	<time>2025-04-29T11:08:38.000Z</time>
</trkpt>
<trkpt lat="45.9295230" lon="10.3137330">
	<ele>640.20</ele>
	<time>2025-04-29T11:08:39.000Z</time>
</trkpt>
<trkpt lat="45.9295360" lon="10.3137270">
	<ele>640.20</ele>
	<time>2025-04-29T11:08:40.000Z</time>
</trkpt>
<trkpt lat="45.9295390" lon="10.3137240">
	<ele>640.00</ele>
	<time>2025-04-29T11:08:41.000Z</time>
</trkpt>
<trkpt lat="45.9295490" lon="10.3137180">
	<ele>640.00</ele>
	<time>2025-04-29T11:08:42.000Z</time>
</trkpt>
<trkpt lat="45.9295600" lon="10.3137120">
	<ele>639.80</ele>
	<time>2025-04-29T11:08:43.000Z</time>
</trkpt>
<trkpt lat="45.9295670" lon="10.3137110">
	<ele>639.80</ele>
	<time>2025-04-29T11:08:44.000Z</time>
</trkpt>
<trkpt lat="45.9295700" lon="10.3137130">
	<ele>639.80</ele>
	<time>2025-04-29T11:08:45.000Z</time>
</trkpt>
<trkpt lat="45.9295720" lon="10.3137040">
	<ele>639.80</ele>
	<time>2025-04-29T11:08:46.000Z</time>
</trkpt>
<trkpt lat="45.9295840" lon="10.3136970">
	<ele>639.60</ele>
	<time>2025-04-29T11:08:47.000Z</time>
</trkpt>
<trkpt lat="45.9296000" lon="10.3136860">
	<ele>639.60</ele>
	<time>2025-04-29T11:08:48.000Z</time>
</trkpt>
<trkpt lat="45.9296110" lon="10.3136700">
	<ele>639.60</ele>
	<time>2025-04-29T11:08:49.000Z</time>
</trkpt>
<trkpt lat="45.9296270" lon="10.3136480">
	<ele>639.40</ele>
	<time>2025-04-29T11:08:50.000Z</time>
</trkpt>
<trkpt lat="45.9296430" lon="10.3136240">
	<ele>639.40</ele>
	<time>2025-04-29T11:08:51.000Z</time>
</trkpt>
<trkpt lat="45.9296580" lon="10.3135990">
	<ele>639.20</ele>
	<time>2025-04-29T11:08:52.000Z</time>
</trkpt>
<trkpt lat="45.9296750" lon="10.3135820">
	<ele>639.20</ele>
	<time>2025-04-29T11:08:53.000Z</time>
</trkpt>
<trkpt lat="45.9296860" lon="10.3135660">
	<ele>639.00</ele>
	<time>2025-04-29T11:08:54.000Z</time>
</trkpt>
<trkpt lat="45.9296960" lon="10.3135500">
	<ele>638.60</ele>
	<time>2025-04-29T11:08:55.000Z</time>
</trkpt>
<trkpt lat="45.9297070" lon="10.3135340">
	<ele>638.40</ele>
	<time>2025-04-29T11:08:56.000Z</time>
</trkpt>
<trkpt lat="45.9297140" lon="10.3135150">
	<ele>638.20</ele>
	<time>2025-04-29T11:08:57.000Z</time>
</trkpt>
<trkpt lat="45.9297280" lon="10.3135030">
	<ele>638.00</ele>
	<time>2025-04-29T11:08:58.000Z</time>
</trkpt>
<trkpt lat="45.9297400" lon="10.3134890">
	<ele>638.00</ele>
	<time>2025-04-29T11:08:59.000Z</time>
</trkpt>
<trkpt lat="45.9297590" lon="10.3134860">
	<ele>637.80</ele>
	<time>2025-04-29T11:09:00.000Z</time>
</trkpt>
<trkpt lat="45.9297770" lon="10.3134880">
	<ele>637.60</ele>
	<time>2025-04-29T11:09:01.000Z</time>
</trkpt>
<trkpt lat="45.9298090" lon="10.3132590">
	<ele>635.00</ele>
	<time>2025-04-29T11:09:11.000Z</time>
</trkpt>
<trkpt lat="45.9297900" lon="10.3131710">
	<ele>634.80</ele>
	<time>2025-04-29T11:09:12.000Z</time>
</trkpt>
<trkpt lat="45.9297930" lon="10.3131260">
	<ele>634.60</ele>
	<time>2025-04-29T11:09:13.000Z</time>
</trkpt>
<trkpt lat="45.9297880" lon="10.3131210">
	<ele>634.40</ele>
	<time>2025-04-29T11:09:14.000Z</time>
</trkpt>
<trkpt lat="45.9297720" lon="10.3131390">
	<ele>634.20</ele>
	<time>2025-04-29T11:09:15.000Z</time>
</trkpt>
<trkpt lat="45.9297780" lon="10.3131270">
	<ele>634.00</ele>
	<time>2025-04-29T11:09:16.000Z</time>
</trkpt>
<trkpt lat="45.9297750" lon="10.3131120">
	<ele>633.80</ele>
	<time>2025-04-29T11:09:17.000Z</time>
</trkpt>
<trkpt lat="45.9297680" lon="10.3130970">
	<ele>633.60</ele>
	<time>2025-04-29T11:09:18.000Z</time>
</trkpt>
<trkpt lat="45.9297650" lon="10.3130760">
	<ele>633.40</ele>
	<time>2025-04-29T11:09:19.000Z</time>
</trkpt>
<trkpt lat="45.9297670" lon="10.3130450">
	<ele>633.20</ele>
	<time>2025-04-29T11:09:20.000Z</time>
</trkpt>
<trkpt lat="45.9297620" lon="10.3130340">
	<ele>632.80</ele>
	<time>2025-04-29T11:09:21.000Z</time>
</trkpt>
<trkpt lat="45.9297500" lon="10.3130120">
	<ele>632.60</ele>
	<time>2025-04-29T11:09:22.000Z</time>
</trkpt>
<trkpt lat="45.9297420" lon="10.3129920">
	<ele>632.20</ele>
	<time>2025-04-29T11:09:23.000Z</time>
</trkpt>
<trkpt lat="45.9297310" lon="10.3129670">
	<ele>632.00</ele>
	<time>2025-04-29T11:09:24.000Z</time>
</trkpt>
<trkpt lat="45.9297300" lon="10.3129460">
	<ele>631.80</ele>
	<time>2025-04-29T11:09:25.000Z</time>
</trkpt>
<trkpt lat="45.9297410" lon="10.3129300">
	<ele>631.60</ele>
	<time>2025-04-29T11:09:26.000Z</time>
</trkpt>
<trkpt lat="45.9297540" lon="10.3129120">
	<ele>631.20</ele>
	<time>2025-04-29T11:09:27.000Z</time>
</trkpt>
<trkpt lat="45.9297650" lon="10.3128990">
	<ele>631.00</ele>
	<time>2025-04-29T11:09:28.000Z</time>
</trkpt>
<trkpt lat="45.9297770" lon="10.3128850">
	<ele>630.80</ele>
	<time>2025-04-29T11:09:29.000Z</time>
</trkpt>
<trkpt lat="45.9297920" lon="10.3128830">
	<ele>630.60</ele>
	<time>2025-04-29T11:09:30.000Z</time>
</trkpt>
<trkpt lat="45.9298020" lon="10.3128860">
	<ele>630.40</ele>
	<time>2025-04-29T11:09:31.000Z</time>
</trkpt>
<trkpt lat="45.9298080" lon="10.3128750">
	<ele>630.20</ele>
	<time>2025-04-29T11:09:32.000Z</time>
</trkpt>
<trkpt lat="45.9298100" lon="10.3128600">
	<ele>629.80</ele>
	<time>2025-04-29T11:09:33.000Z</time>
</trkpt>
<trkpt lat="45.9298140" lon="10.3128370">
	<ele>629.60</ele>
	<time>2025-04-29T11:09:34.000Z</time>
</trkpt>
<trkpt lat="45.9298180" lon="10.3128220">
	<ele>629.40</ele>
	<time>2025-04-29T11:09:35.000Z</time>
</trkpt>
<trkpt lat="45.9298270" lon="10.3128100">
	<ele>629.20</ele>
	<time>2025-04-29T11:09:36.000Z</time>
</trkpt>
<trkpt lat="45.9298410" lon="10.3128060">
	<ele>629.00</ele>
	<time>2025-04-29T11:09:37.000Z</time>
</trkpt>
<trkpt lat="45.9298480" lon="10.3127910">
	<ele>628.80</ele>
	<time>2025-04-29T11:09:38.000Z</time>
</trkpt>
<trkpt lat="45.9298610" lon="10.3127820">
	<ele>628.40</ele>
	<time>2025-04-29T11:09:39.000Z</time>
</trkpt>
<trkpt lat="45.9298710" lon="10.3127780">
	<ele>628.40</ele>
	<time>2025-04-29T11:09:40.000Z</time>
</trkpt>
<trkpt lat="45.9298810" lon="10.3127680">
	<ele>628.20</ele>
	<time>2025-04-29T11:09:41.000Z</time>
</trkpt>
<trkpt lat="45.9298870" lon="10.3127540">
	<ele>628.00</ele>
	<time>2025-04-29T11:09:42.000Z</time>
</trkpt>
<trkpt lat="45.9298930" lon="10.3127350">
	<ele>627.80</ele>
	<time>2025-04-29T11:09:43.000Z</time>
</trkpt>
<trkpt lat="45.9299030" lon="10.3127130">
	<ele>627.80</ele>
	<time>2025-04-29T11:09:44.000Z</time>
</trkpt>
<trkpt lat="45.9299120" lon="10.3126910">
	<ele>627.60</ele>
	<time>2025-04-29T11:09:45.000Z</time>
</trkpt>
<trkpt lat="45.9299170" lon="10.3126710">
	<ele>627.40</ele>
	<time>2025-04-29T11:09:46.000Z</time>
</trkpt>
<trkpt lat="45.9299250" lon="10.3126540">
	<ele>627.40</ele>
	<time>2025-04-29T11:09:47.000Z</time>
</trkpt>
<trkpt lat="45.9299310" lon="10.3126380">
	<ele>627.20</ele>
	<time>2025-04-29T11:09:48.000Z</time>
</trkpt>
<trkpt lat="45.9299330" lon="10.3126240">
	<ele>626.80</ele>
	<time>2025-04-29T11:09:49.000Z</time>
</trkpt>
<trkpt lat="45.9299390" lon="10.3126060">
	<ele>626.60</ele>
	<time>2025-04-29T11:09:50.000Z</time>
</trkpt>
<trkpt lat="45.9299420" lon="10.3125940">
	<ele>626.40</ele>
	<time>2025-04-29T11:09:51.000Z</time>
</trkpt>
<trkpt lat="45.9299470" lon="10.3125820">
	<ele>626.20</ele>
	<time>2025-04-29T11:09:52.000Z</time>
</trkpt>
<trkpt lat="45.9299560" lon="10.3125680">
	<ele>626.20</ele>
	<time>2025-04-29T11:09:53.000Z</time>
</trkpt>
<trkpt lat="45.9299660" lon="10.3125520">
	<ele>625.80</ele>
	<time>2025-04-29T11:09:54.000Z</time>
</trkpt>
<trkpt lat="45.9299810" lon="10.3125320">
	<ele>625.80</ele>
	<time>2025-04-29T11:09:55.000Z</time>
</trkpt>
<trkpt lat="45.9299950" lon="10.3125290">
	<ele>625.60</ele>
	<time>2025-04-29T11:09:56.000Z</time>
</trkpt>
<trkpt lat="45.9300000" lon="10.3125080">
	<ele>625.20</ele>
	<time>2025-04-29T11:09:57.000Z</time>
</trkpt>
<trkpt lat="45.9299890" lon="10.3124790">
	<ele>625.00</ele>
	<time>2025-04-29T11:09:58.000Z</time>
</trkpt>
<trkpt lat="45.9299970" lon="10.3124610">
	<ele>624.80</ele>
	<time>2025-04-29T11:09:59.000Z</time>
</trkpt>
<trkpt lat="45.9300070" lon="10.3124560">
	<ele>624.60</ele>
	<time>2025-04-29T11:10:00.000Z</time>
</trkpt>
<trkpt lat="45.9300140" lon="10.3124400">
	<ele>624.40</ele>
	<time>2025-04-29T11:10:01.000Z</time>
</trkpt>
<trkpt lat="45.9300280" lon="10.3124390">
	<ele>624.20</ele>
	<time>2025-04-29T11:10:02.000Z</time>
</trkpt>
<trkpt lat="45.9300410" lon="10.3124340">
	<ele>624.20</ele>
	<time>2025-04-29T11:10:03.000Z</time>
</trkpt>
<trkpt lat="45.9300610" lon="10.3124400">
	<ele>624.20</ele>
	<time>2025-04-29T11:10:04.000Z</time>
</trkpt>
<trkpt lat="45.9300830" lon="10.3124630">
	<ele>624.00</ele>
	<time>2025-04-29T11:10:05.000Z</time>
</trkpt>
<trkpt lat="45.9300930" lon="10.3124520">
	<ele>623.80</ele>
	<time>2025-04-29T11:10:06.000Z</time>
</trkpt>
<trkpt lat="45.9301110" lon="10.3124440">
	<ele>623.60</ele>
	<time>2025-04-29T11:10:07.000Z</time>
</trkpt>
<trkpt lat="45.9301270" lon="10.3124330">
	<ele>623.40</ele>
	<time>2025-04-29T11:10:08.000Z</time>
</trkpt>
<trkpt lat="45.9301470" lon="10.3124350">
	<ele>623.00</ele>
	<time>2025-04-29T11:10:09.000Z</time>
</trkpt>
<trkpt lat="45.9301640" lon="10.3124360">
	<ele>623.00</ele>
	<time>2025-04-29T11:10:10.000Z</time>
</trkpt>
<trkpt lat="45.9301710" lon="10.3124280">
	<ele>622.80</ele>
	<time>2025-04-29T11:10:11.000Z</time>
</trkpt>
<trkpt lat="45.9301690" lon="10.3124260">
	<ele>622.80</ele>
	<time>2025-04-29T11:10:12.000Z</time>
</trkpt>
<trkpt lat="45.9301450" lon="10.3123970">
	<ele>622.60</ele>
	<time>2025-04-29T11:10:13.000Z</time>
</trkpt>
<trkpt lat="45.9301310" lon="10.3123770">
	<ele>622.40</ele>
	<time>2025-04-29T11:10:14.000Z</time>
</trkpt>
<trkpt lat="45.9301100" lon="10.3123550">
	<ele>622.40</ele>
	<time>2025-04-29T11:10:15.000Z</time>
</trkpt>
<trkpt lat="45.9300890" lon="10.3123400">
	<ele>622.20</ele>
	<time>2025-04-29T11:10:16.000Z</time>
</trkpt>
<trkpt lat="45.9300740" lon="10.3123400">
	<ele>622.20</ele>
	<time>2025-04-29T11:10:17.000Z</time>
</trkpt>
<trkpt lat="45.9300620" lon="10.3123470">
	<ele>622.00</ele>
	<time>2025-04-29T11:10:18.000Z</time>
</trkpt>
<trkpt lat="45.9300480" lon="10.3123550">
	<ele>621.60</ele>
	<time>2025-04-29T11:10:19.000Z</time>
</trkpt>
<trkpt lat="45.9300350" lon="10.3123530">
	<ele>621.40</ele>
	<time>2025-04-29T11:10:20.000Z</time>
</trkpt>
<trkpt lat="45.9300240" lon="10.3123520">
	<ele>621.00</ele>
	<time>2025-04-29T11:10:21.000Z</time>
</trkpt>
<trkpt lat="45.9300070" lon="10.3123470">
	<ele>621.00</ele>
	<time>2025-04-29T11:10:22.000Z</time>
</trkpt>
<trkpt lat="45.9299870" lon="10.3123440">
	<ele>620.80</ele>
	<time>2025-04-29T11:10:23.000Z</time>
</trkpt>
<trkpt lat="45.9299720" lon="10.3123520">
	<ele>620.60</ele>
	<time>2025-04-29T11:10:24.000Z</time>
</trkpt>
<trkpt lat="45.9299600" lon="10.3123670">
	<ele>620.20</ele>
	<time>2025-04-29T11:10:25.000Z</time>
</trkpt>
<trkpt lat="45.9299560" lon="10.3123840">
	<ele>620.00</ele>
	<time>2025-04-29T11:10:26.000Z</time>
</trkpt>
<trkpt lat="45.9299450" lon="10.3123950">
	<ele>619.80</ele>
	<time>2025-04-29T11:10:27.000Z</time>
</trkpt>
<trkpt lat="45.9299300" lon="10.3123970">
	<ele>619.60</ele>
	<time>2025-04-29T11:10:28.000Z</time>
</trkpt>
<trkpt lat="45.9299230" lon="10.3123990">
	<ele>619.40</ele>
	<time>2025-04-29T11:10:29.000Z</time>
</trkpt>
<trkpt lat="45.9299180" lon="10.3124070">
	<ele>619.40</ele>
	<time>2025-04-29T11:10:30.000Z</time>
</trkpt>
<trkpt lat="45.9299080" lon="10.3124230">
	<ele>619.20</ele>
	<time>2025-04-29T11:10:31.000Z</time>
</trkpt>
<trkpt lat="45.9299010" lon="10.3124360">
	<ele>619.00</ele>
	<time>2025-04-29T11:10:32.000Z</time>
</trkpt>
<trkpt lat="45.9298880" lon="10.3124530">
	<ele>618.80</ele>
	<time>2025-04-29T11:10:33.000Z</time>
</trkpt>
<trkpt lat="45.9298790" lon="10.3124690">
	<ele>618.60</ele>
	<time>2025-04-29T11:10:34.000Z</time>
</trkpt>
<trkpt lat="45.9298650" lon="10.3124830">
	<ele>618.40</ele>
	<time>2025-04-29T11:10:35.000Z</time>
</trkpt>
<trkpt lat="45.9298510" lon="10.3124840">
	<ele>618.40</ele>
	<time>2025-04-29T11:10:36.000Z</time>
</trkpt>
<trkpt lat="45.9298380" lon="10.3124840">
	<ele>618.20</ele>
	<time>2025-04-29T11:10:37.000Z</time>
</trkpt>
<trkpt lat="45.9298330" lon="10.3124940">
	<ele>618.00</ele>
	<time>2025-04-29T11:10:38.000Z</time>
</trkpt>
<trkpt lat="45.9298310" lon="10.3124980">
	<ele>617.80</ele>
	<time>2025-04-29T11:10:39.000Z</time>
</trkpt>
<trkpt lat="45.9298280" lon="10.3125180">
	<ele>617.60</ele>
	<time>2025-04-29T11:10:40.000Z</time>
</trkpt>
<trkpt lat="45.9298240" lon="10.3125470">
	<ele>617.60</ele>
	<time>2025-04-29T11:10:41.000Z</time>
</trkpt>
<trkpt lat="45.9298200" lon="10.3125650">
	<ele>617.40</ele>
	<time>2025-04-29T11:10:42.000Z</time>
</trkpt>
<trkpt lat="45.9298160" lon="10.3125840">
	<ele>617.40</ele>
	<time>2025-04-29T11:10:43.000Z</time>
</trkpt>
<trkpt lat="45.9298090" lon="10.3126030">
	<ele>617.20</ele>
	<time>2025-04-29T11:10:44.000Z</time>
</trkpt>
<trkpt lat="45.9297980" lon="10.3126130">
	<ele>617.20</ele>
	<time>2025-04-29T11:10:45.000Z</time>
</trkpt>
<trkpt lat="45.9297840" lon="10.3126240">
	<ele>617.00</ele>
	<time>2025-04-29T11:10:46.000Z</time>
</trkpt>
<trkpt lat="45.9297670" lon="10.3126360">
	<ele>617.00</ele>
	<time>2025-04-29T11:10:47.000Z</time>
</trkpt>
<trkpt lat="45.9297500" lon="10.3126440">
	<ele>617.00</ele>
	<time>2025-04-29T11:10:48.000Z</time>
</trkpt>
<trkpt lat="45.9297340" lon="10.3126450">
	<ele>617.00</ele>
	<time>2025-04-29T11:10:49.000Z</time>
</trkpt>
<trkpt lat="45.9297180" lon="10.3126360">
	<ele>617.00</ele>
	<time>2025-04-29T11:10:50.000Z</time>
</trkpt>
<trkpt lat="45.9297120" lon="10.3126380">
	<ele>617.00</ele>
	<time>2025-04-29T11:10:51.000Z</time>
</trkpt>
<trkpt lat="45.9297010" lon="10.3126410">
	<ele>616.80</ele>
	<time>2025-04-29T11:10:52.000Z</time>
</trkpt>
<trkpt lat="45.9296900" lon="10.3126410">
	<ele>616.80</ele>
	<time>2025-04-29T11:10:53.000Z</time>
</trkpt>
<trkpt lat="45.9296850" lon="10.3126420">
	<ele>616.60</ele>
	<time>2025-04-29T11:10:54.000Z</time>
</trkpt>
<trkpt lat="45.9296810" lon="10.3126400">
	<ele>616.60</ele>
	<time>2025-04-29T11:10:55.000Z</time>
</trkpt>
<trkpt lat="45.9296770" lon="10.3126250">
	<ele>616.40</ele>
	<time>2025-04-29T11:10:56.000Z</time>
</trkpt>
<trkpt lat="45.9296740" lon="10.3126100">
	<ele>616.40</ele>
	<time>2025-04-29T11:10:57.000Z</time>
</trkpt>
<trkpt lat="45.9296690" lon="10.3126030">
	<ele>616.60</ele>
	<time>2025-04-29T11:10:58.000Z</time>
</trkpt>
<trkpt lat="45.9296660" lon="10.3125930">
	<ele>616.60</ele>
	<time>2025-04-29T11:10:59.000Z</time>
</trkpt>
<trkpt lat="45.9296620" lon="10.3125830">
	<ele>616.60</ele>
	<time>2025-04-29T11:11:00.000Z</time>
</trkpt>
<trkpt lat="45.9296550" lon="10.3125700">
	<ele>616.40</ele>
	<time>2025-04-29T11:11:01.000Z</time>
</trkpt>
<trkpt lat="45.9296450" lon="10.3125610">
	<ele>616.60</ele>
	<time>2025-04-29T11:11:02.000Z</time>
</trkpt>
<trkpt lat="45.9296320" lon="10.3125440">
	<ele>616.60</ele>
	<time>2025-04-29T11:11:03.000Z</time>
</trkpt>
<trkpt lat="45.9296170" lon="10.3125290">
	<ele>616.40</ele>
	<time>2025-04-29T11:11:04.000Z</time>
</trkpt>
<trkpt lat="45.9296100" lon="10.3125120">
	<ele>616.40</ele>
	<time>2025-04-29T11:11:05.000Z</time>
</trkpt>
<trkpt lat="45.9296030" lon="10.3124930">
	<ele>616.20</ele>
	<time>2025-04-29T11:11:06.000Z</time>
</trkpt>
<trkpt lat="45.9295980" lon="10.3124740">
	<ele>616.20</ele>
	<time>2025-04-29T11:11:07.000Z</time>
</trkpt>
<trkpt lat="45.9295910" lon="10.3124540">
	<ele>616.00</ele>
	<time>2025-04-29T11:11:08.000Z</time>
</trkpt>
<trkpt lat="45.9295850" lon="10.3124330">
	<ele>616.00</ele>
	<time>2025-04-29T11:11:09.000Z</time>
</trkpt>
<trkpt lat="45.9295800" lon="10.3124100">
	<ele>616.00</ele>
	<time>2025-04-29T11:11:10.000Z</time>
</trkpt>
<trkpt lat="45.9295770" lon="10.3123910">
	<ele>616.00</ele>
	<time>2025-04-29T11:11:11.000Z</time>
</trkpt>
<trkpt lat="45.9295710" lon="10.3123700">
	<ele>616.00</ele>
	<time>2025-04-29T11:11:12.000Z</time>
</trkpt>
<trkpt lat="45.9295650" lon="10.3123490">
	<ele>615.80</ele>
	<time>2025-04-29T11:11:13.000Z</time>
</trkpt>
<trkpt lat="45.9295640" lon="10.3123330">
	<ele>615.80</ele>
	<time>2025-04-29T11:11:14.000Z</time>
</trkpt>
<trkpt lat="45.9295650" lon="10.3123180">
	<ele>615.80</ele>
	<time>2025-04-29T11:11:15.000Z</time>
</trkpt>
<trkpt lat="45.9295670" lon="10.3123010">
	<ele>615.60</ele>
	<time>2025-04-29T11:11:16.000Z</time>
</trkpt>
<trkpt lat="45.9295680" lon="10.3122840">
	<ele>615.40</ele>
	<time>2025-04-29T11:11:17.000Z</time>
</trkpt>
<trkpt lat="45.9295660" lon="10.3122670">
	<ele>615.20</ele>
	<time>2025-04-29T11:11:18.000Z</time>
</trkpt>
<trkpt lat="45.9295630" lon="10.3122490">
	<ele>615.20</ele>
	<time>2025-04-29T11:11:19.000Z</time>
</trkpt>
<trkpt lat="45.9295570" lon="10.3122320">
	<ele>615.20</ele>
	<time>2025-04-29T11:11:20.000Z</time>
</trkpt>
<trkpt lat="45.9295530" lon="10.3122150">
	<ele>615.00</ele>
	<time>2025-04-29T11:11:21.000Z</time>
</trkpt>
<trkpt lat="45.9295500" lon="10.3121920">
	<ele>615.00</ele>
	<time>2025-04-29T11:11:22.000Z</time>
</trkpt>
<trkpt lat="45.9295530" lon="10.3121710">
	<ele>614.80</ele>
	<time>2025-04-29T11:11:23.000Z</time>
</trkpt>
<trkpt lat="45.9295450" lon="10.3121530">
	<ele>614.80</ele>
	<time>2025-04-29T11:11:24.000Z</time>
</trkpt>
<trkpt lat="45.9295360" lon="10.3121370">
	<ele>614.80</ele>
	<time>2025-04-29T11:11:25.000Z</time>
</trkpt>
<trkpt lat="45.9295320" lon="10.3121210">
	<ele>614.60</ele>
	<time>2025-04-29T11:11:26.000Z</time>
</trkpt>
<trkpt lat="45.9295310" lon="10.3121040">
	<ele>614.60</ele>
	<time>2025-04-29T11:11:27.000Z</time>
</trkpt>
</trkseg>
</trk>
</gpx>
